<?xml version="1.0" encoding="UTF-8" standalone="no" ?>
<gpx xmlns="http://www.topografix.com/GPX/1/1" xmlns:xsi="http://www.w3.org/2001/XMLSchema-instance" xsi:schemaLocation="http://www.topografix.com/GPX/1/1 http://www.topografix.com/GPX/1/1/gpx.xsd" version="1.1" creator="VisuGPX - https://www.visugpx.com">
  <metadata>
    <name>P4 Saint-Sulpice 2025-20002096</name>
  </metadata>
  <trk>
    <name><![CDATA[P4 Saint-Sulpice 2025-20002096]]></name>
    <trkseg>
      <trkpt lat="49.35453" lon="2.11529">
        <ele>163.26173</ele>
        <time>2025-06-19T06:00:22.866Z</time>
      </trkpt>
      <trkpt lat="49.3545" lon="2.11516">
        <ele>163.26173</ele>
        <time>2025-06-19T06:00:43.508Z</time>
      </trkpt>
      <trkpt lat="49.35454" lon="2.11503">
        <ele>163.26173</ele>
        <time>2025-06-19T06:13:53.505Z</time>
      </trkpt>
      <trkpt lat="49.35449" lon="2.1149">
        <ele>163.26173</ele>
        <time>2025-06-19T06:21:20.504Z</time>
      </trkpt>
      <trkpt lat="49.35439" lon="2.11488">
        <ele>163.26173</ele>
        <time>2025-06-19T06:21:35.507Z</time>
      </trkpt>
      <trkpt lat="49.3543" lon="2.11489">
        <ele>163.26173</ele>
        <time>2025-06-19T06:21:47.517Z</time>
      </trkpt>
      <trkpt lat="49.35431" lon="2.11504">
        <ele>163.26173</ele>
        <time>2025-06-19T06:21:57.515Z</time>
      </trkpt>
      <trkpt lat="49.35435" lon="2.11516">
        <ele>163.26173</ele>
        <time>2025-06-19T06:22:07.507Z</time>
      </trkpt>
      <trkpt lat="49.35441" lon="2.11527">
        <ele>163.26173</ele>
        <time>2025-06-19T06:22:17.500Z</time>
      </trkpt>
      <trkpt lat="49.35448" lon="2.11537">
        <ele>163.26173</ele>
        <time>2025-06-19T06:22:32.506Z</time>
      </trkpt>
      <trkpt lat="49.35458" lon="2.11531">
        <ele>163.123768</ele>
        <time>2025-06-19T06:22:39.504Z</time>
      </trkpt>
      <trkpt lat="49.35467" lon="2.11525">
        <ele>162.876702</ele>
        <time>2025-06-19T06:22:43.507Z</time>
      </trkpt>
      <trkpt lat="49.35475" lon="2.11517">
        <ele>162.633566</ele>
        <time>2025-06-19T06:22:47.502Z</time>
      </trkpt>
      <trkpt lat="49.35484" lon="2.11517">
        <ele>162.399984</ele>
        <time>2025-06-19T06:22:52.528Z</time>
      </trkpt>
      <trkpt lat="49.35499" lon="2.11522">
        <ele>162.016353</ele>
        <time>2025-06-19T06:24:18.516Z</time>
      </trkpt>
      <trkpt lat="49.35507" lon="2.11531">
        <ele>161.765653</ele>
        <time>2025-06-19T06:24:23.505Z</time>
      </trkpt>
      <trkpt lat="49.35514" lon="2.11542">
        <ele>161.504848</ele>
        <time>2025-06-19T06:24:27.517Z</time>
      </trkpt>
      <trkpt lat="49.35523" lon="2.11554">
        <ele>161.210607</ele>
        <time>2025-06-19T06:24:31.510Z</time>
      </trkpt>
      <trkpt lat="49.3553" lon="2.11565">
        <ele>160.958533</ele>
        <time>2025-06-19T06:24:34.513Z</time>
      </trkpt>
      <trkpt lat="49.35538" lon="2.11576">
        <ele>160.68812</ele>
        <time>2025-06-19T06:24:37.511Z</time>
      </trkpt>
      <trkpt lat="49.35545" lon="2.11587">
        <ele>160.420843</ele>
        <time>2025-06-19T06:24:40.493Z</time>
      </trkpt>
      <trkpt lat="49.35553" lon="2.116">
        <ele>160.136384</ele>
        <time>2025-06-19T06:24:43.509Z</time>
      </trkpt>
      <trkpt lat="49.35561" lon="2.11612">
        <ele>159.851926</ele>
        <time>2025-06-19T06:24:46.503Z</time>
      </trkpt>
      <trkpt lat="49.35569" lon="2.11624">
        <ele>159.577419</ele>
        <time>2025-06-19T06:24:49.493Z</time>
      </trkpt>
      <trkpt lat="49.35576" lon="2.11636">
        <ele>159.299839</ele>
        <time>2025-06-19T06:24:52.498Z</time>
      </trkpt>
      <trkpt lat="49.35581" lon="2.11652">
        <ele>158.994854</ele>
        <time>2025-06-19T06:24:55.499Z</time>
      </trkpt>
      <trkpt lat="49.35581" lon="2.11673">
        <ele>158.716269</ele>
        <time>2025-06-19T06:24:58.518Z</time>
      </trkpt>
      <trkpt lat="49.35579" lon="2.11694">
        <ele>158.874762</ele>
        <time>2025-06-19T06:25:01.499Z</time>
      </trkpt>
      <trkpt lat="49.35579" lon="2.11714">
        <ele>159.029419</ele>
        <time>2025-06-19T06:25:04.507Z</time>
      </trkpt>
      <trkpt lat="49.35578" lon="2.11735">
        <ele>159.195168</ele>
        <time>2025-06-19T06:25:07.520Z</time>
      </trkpt>
      <trkpt lat="49.35578" lon="2.11757">
        <ele>159.359008</ele>
        <time>2025-06-19T06:25:10.511Z</time>
      </trkpt>
      <trkpt lat="49.35583" lon="2.11772">
        <ele>159.485911</ele>
        <time>2025-06-19T06:25:12.517Z</time>
      </trkpt>
      <trkpt lat="49.35588" lon="2.11784">
        <ele>159.598793</ele>
        <time>2025-06-19T06:25:14.503Z</time>
      </trkpt>
      <trkpt lat="49.35593" lon="2.11797">
        <ele>159.712966</ele>
        <time>2025-06-19T06:25:16.517Z</time>
      </trkpt>
      <trkpt lat="49.35598" lon="2.11808">
        <ele>159.818798</ele>
        <time>2025-06-19T06:25:18.502Z</time>
      </trkpt>
      <trkpt lat="49.356" lon="2.11824">
        <ele>159.938274</ele>
        <time>2025-06-19T06:25:21.503Z</time>
      </trkpt>
      <trkpt lat="49.35592" lon="2.11836">
        <ele>160.064204</ele>
        <time>2025-06-19T06:25:24.518Z</time>
      </trkpt>
      <trkpt lat="49.35584" lon="2.11846">
        <ele>160.183557</ele>
        <time>2025-06-19T06:25:26.514Z</time>
      </trkpt>
      <trkpt lat="49.35576" lon="2.11857">
        <ele>160.317871</ele>
        <time>2025-06-19T06:25:28.499Z</time>
      </trkpt>
      <trkpt lat="49.35567" lon="2.11871">
        <ele>160.46761</ele>
        <time>2025-06-19T06:25:30.512Z</time>
      </trkpt>
      <trkpt lat="49.35557" lon="2.11885">
        <ele>160.623878</ele>
        <time>2025-06-19T06:25:32.512Z</time>
      </trkpt>
      <trkpt lat="49.35547" lon="2.119">
        <ele>160.790519</ele>
        <time>2025-06-19T06:25:34.509Z</time>
      </trkpt>
      <trkpt lat="49.35536" lon="2.11914">
        <ele>160.932343</ele>
        <time>2025-06-19T06:25:36.518Z</time>
      </trkpt>
      <trkpt lat="49.35525" lon="2.11927">
        <ele>161.066797</ele>
        <time>2025-06-19T06:25:38.510Z</time>
      </trkpt>
      <trkpt lat="49.35513" lon="2.11938">
        <ele>161.19737</ele>
        <time>2025-06-19T06:25:40.514Z</time>
      </trkpt>
      <trkpt lat="49.35503" lon="2.11946">
        <ele>161.316094</ele>
        <time>2025-06-19T06:25:42.515Z</time>
      </trkpt>
      <trkpt lat="49.35493" lon="2.11954">
        <ele>161.424728</ele>
        <time>2025-06-19T06:25:44.520Z</time>
      </trkpt>
      <trkpt lat="49.35483" lon="2.1196">
        <ele>161.526713</ele>
        <time>2025-06-19T06:25:46.516Z</time>
      </trkpt>
      <trkpt lat="49.35474" lon="2.11966">
        <ele>161.620773</ele>
        <time>2025-06-19T06:25:48.514Z</time>
      </trkpt>
      <trkpt lat="49.35463" lon="2.11974">
        <ele>161.740063</ele>
        <time>2025-06-19T06:25:51.510Z</time>
      </trkpt>
      <trkpt lat="49.35453" lon="2.11981">
        <ele>161.846009</ele>
        <time>2025-06-19T06:25:54.508Z</time>
      </trkpt>
      <trkpt lat="49.35443" lon="2.11988">
        <ele>161.955902</ele>
        <time>2025-06-19T06:25:57.509Z</time>
      </trkpt>
      <trkpt lat="49.35432" lon="2.11996">
        <ele>162.072617</ele>
        <time>2025-06-19T06:26:00.512Z</time>
      </trkpt>
      <trkpt lat="49.3542" lon="2.12005">
        <ele>162.2</ele>
        <time>2025-06-19T06:26:03.508Z</time>
      </trkpt>
      <trkpt lat="49.35408" lon="2.12014">
        <ele>162.326204</ele>
        <time>2025-06-19T06:26:06.508Z</time>
      </trkpt>
      <trkpt lat="49.35397" lon="2.12022">
        <ele>162.446421</ele>
        <time>2025-06-19T06:26:09.509Z</time>
      </trkpt>
      <trkpt lat="49.35386" lon="2.1203">
        <ele>162.531307</ele>
        <time>2025-06-19T06:26:12.515Z</time>
      </trkpt>
      <trkpt lat="49.35374" lon="2.12037">
        <ele>162.321528</ele>
        <time>2025-06-19T06:26:15.506Z</time>
      </trkpt>
      <trkpt lat="49.35363" lon="2.12045">
        <ele>162.114495</ele>
        <time>2025-06-19T06:26:18.523Z</time>
      </trkpt>
      <trkpt lat="49.35352" lon="2.1205">
        <ele>161.912183</ele>
        <time>2025-06-19T06:26:21.516Z</time>
      </trkpt>
      <trkpt lat="49.35341" lon="2.12056">
        <ele>161.710929</ele>
        <time>2025-06-19T06:26:24.512Z</time>
      </trkpt>
      <trkpt lat="49.35329" lon="2.12063">
        <ele>161.495123</ele>
        <time>2025-06-19T06:26:27.516Z</time>
      </trkpt>
      <trkpt lat="49.35316" lon="2.1207">
        <ele>161.270993</ele>
        <time>2025-06-19T06:26:30.510Z</time>
      </trkpt>
      <trkpt lat="49.35308" lon="2.12074">
        <ele>161.110544</ele>
        <time>2025-06-19T06:26:32.509Z</time>
      </trkpt>
      <trkpt lat="49.35299" lon="2.12079">
        <ele>160.952963</ele>
        <time>2025-06-19T06:26:34.511Z</time>
      </trkpt>
      <trkpt lat="49.3529" lon="2.12083">
        <ele>160.79808</ele>
        <time>2025-06-19T06:26:36.510Z</time>
      </trkpt>
      <trkpt lat="49.35281" lon="2.12088">
        <ele>160.627366</ele>
        <time>2025-06-19T06:26:38.508Z</time>
      </trkpt>
      <trkpt lat="49.35268" lon="2.12095">
        <ele>160.395577</ele>
        <time>2025-06-19T06:26:41.505Z</time>
      </trkpt>
      <trkpt lat="49.35259" lon="2.121">
        <ele>160.229197</ele>
        <time>2025-06-19T06:26:43.514Z</time>
      </trkpt>
      <trkpt lat="49.3525" lon="2.12105">
        <ele>160.071243</ele>
        <time>2025-06-19T06:26:45.515Z</time>
      </trkpt>
      <trkpt lat="49.35241" lon="2.1211">
        <ele>159.903739</ele>
        <time>2025-06-19T06:26:47.510Z</time>
      </trkpt>
      <trkpt lat="49.35232" lon="2.12115">
        <ele>159.738423</ele>
        <time>2025-06-19T06:26:49.502Z</time>
      </trkpt>
      <trkpt lat="49.35219" lon="2.12122">
        <ele>159.512707</ele>
        <time>2025-06-19T06:26:52.515Z</time>
      </trkpt>
      <trkpt lat="49.3521" lon="2.12127">
        <ele>159.436202</ele>
        <time>2025-06-19T06:26:54.517Z</time>
      </trkpt>
      <trkpt lat="49.35201" lon="2.12131">
        <ele>159.380269</ele>
        <time>2025-06-19T06:26:56.510Z</time>
      </trkpt>
      <trkpt lat="49.35193" lon="2.12136">
        <ele>159.323718</ele>
        <time>2025-06-19T06:26:58.509Z</time>
      </trkpt>
      <trkpt lat="49.35184" lon="2.12141">
        <ele>159.268297</ele>
        <time>2025-06-19T06:27:00.507Z</time>
      </trkpt>
      <trkpt lat="49.35175" lon="2.12146">
        <ele>159.209791</ele>
        <time>2025-06-19T06:27:02.511Z</time>
      </trkpt>
      <trkpt lat="49.35165" lon="2.1215">
        <ele>159.149835</ele>
        <time>2025-06-19T06:27:04.512Z</time>
      </trkpt>
      <trkpt lat="49.35155" lon="2.12156">
        <ele>159.087546</ele>
        <time>2025-06-19T06:27:06.527Z</time>
      </trkpt>
      <trkpt lat="49.35146" lon="2.12164">
        <ele>159.021687</ele>
        <time>2025-06-19T06:27:08.518Z</time>
      </trkpt>
      <trkpt lat="49.35137" lon="2.12175">
        <ele>158.954024</ele>
        <time>2025-06-19T06:27:10.500Z</time>
      </trkpt>
      <trkpt lat="49.35129" lon="2.12189">
        <ele>158.882754</ele>
        <time>2025-06-19T06:27:12.516Z</time>
      </trkpt>
      <trkpt lat="49.35121" lon="2.12201">
        <ele>158.814742</ele>
        <time>2025-06-19T06:27:14.506Z</time>
      </trkpt>
      <trkpt lat="49.35113" lon="2.12212">
        <ele>158.752149</ele>
        <time>2025-06-19T06:27:16.520Z</time>
      </trkpt>
      <trkpt lat="49.35105" lon="2.12221">
        <ele>158.688174</ele>
        <time>2025-06-19T06:27:18.518Z</time>
      </trkpt>
      <trkpt lat="49.35097" lon="2.1223">
        <ele>158.629354</ele>
        <time>2025-06-19T06:27:20.511Z</time>
      </trkpt>
      <trkpt lat="49.35089" lon="2.12236">
        <ele>158.574562</ele>
        <time>2025-06-19T06:27:22.515Z</time>
      </trkpt>
      <trkpt lat="49.35077" lon="2.12242">
        <ele>158.50332</ele>
        <time>2025-06-19T06:27:25.516Z</time>
      </trkpt>
      <trkpt lat="49.35067" lon="2.12246">
        <ele>158.442749</ele>
        <time>2025-06-19T06:27:28.507Z</time>
      </trkpt>
      <trkpt lat="49.35058" lon="2.12239">
        <ele>158.401816</ele>
        <time>2025-06-19T06:27:31.502Z</time>
      </trkpt>
      <trkpt lat="49.35049" lon="2.12231">
        <ele>158.394135</ele>
        <time>2025-06-19T06:27:34.514Z</time>
      </trkpt>
      <trkpt lat="49.3504" lon="2.12224">
        <ele>158.386613</ele>
        <time>2025-06-19T06:27:37.518Z</time>
      </trkpt>
      <trkpt lat="49.35031" lon="2.12217">
        <ele>158.379175</ele>
        <time>2025-06-19T06:27:40.506Z</time>
      </trkpt>
      <trkpt lat="49.35023" lon="2.12212">
        <ele>158.372158</ele>
        <time>2025-06-19T06:27:43.514Z</time>
      </trkpt>
      <trkpt lat="49.35013" lon="2.12212">
        <ele>158.36483</ele>
        <time>2025-06-19T06:27:46.505Z</time>
      </trkpt>
      <trkpt lat="49.35003" lon="2.12216">
        <ele>158.357522</ele>
        <time>2025-06-19T06:27:49.504Z</time>
      </trkpt>
      <trkpt lat="49.34994" lon="2.12223">
        <ele>158.349978</ele>
        <time>2025-06-19T06:27:52.517Z</time>
      </trkpt>
      <trkpt lat="49.34985" lon="2.1223">
        <ele>158.342366</ele>
        <time>2025-06-19T06:27:55.514Z</time>
      </trkpt>
      <trkpt lat="49.34976" lon="2.12236">
        <ele>158.334731</ele>
        <time>2025-06-19T06:27:58.513Z</time>
      </trkpt>
      <trkpt lat="49.34967" lon="2.12243">
        <ele>158.326893</ele>
        <time>2025-06-19T06:28:01.513Z</time>
      </trkpt>
      <trkpt lat="49.34957" lon="2.1225">
        <ele>158.319037</ele>
        <time>2025-06-19T06:28:04.508Z</time>
      </trkpt>
      <trkpt lat="49.34947" lon="2.12258">
        <ele>158.310934</ele>
        <time>2025-06-19T06:28:07.517Z</time>
      </trkpt>
      <trkpt lat="49.34937" lon="2.12265">
        <ele>158.302498</ele>
        <time>2025-06-19T06:28:10.509Z</time>
      </trkpt>
      <trkpt lat="49.34928" lon="2.12272">
        <ele>158.294576</ele>
        <time>2025-06-19T06:28:13.516Z</time>
      </trkpt>
      <trkpt lat="49.34919" lon="2.12281">
        <ele>158.286418</ele>
        <time>2025-06-19T06:28:16.514Z</time>
      </trkpt>
      <trkpt lat="49.34909" lon="2.12292">
        <ele>158.277604</ele>
        <time>2025-06-19T06:28:19.512Z</time>
      </trkpt>
      <trkpt lat="49.34899" lon="2.12303">
        <ele>158.247502</ele>
        <time>2025-06-19T06:28:22.510Z</time>
      </trkpt>
      <trkpt lat="49.3489" lon="2.12313">
        <ele>158.13126</ele>
        <time>2025-06-19T06:28:25.513Z</time>
      </trkpt>
      <trkpt lat="49.34881" lon="2.12323">
        <ele>158.02345</ele>
        <time>2025-06-19T06:28:28.510Z</time>
      </trkpt>
      <trkpt lat="49.34874" lon="2.12333">
        <ele>157.926638</ele>
        <time>2025-06-19T06:28:31.519Z</time>
      </trkpt>
      <trkpt lat="49.34867" lon="2.12343">
        <ele>157.831978</ele>
        <time>2025-06-19T06:28:34.530Z</time>
      </trkpt>
      <trkpt lat="49.3486" lon="2.12353">
        <ele>157.734986</ele>
        <time>2025-06-19T06:28:37.518Z</time>
      </trkpt>
      <trkpt lat="49.34851" lon="2.12364">
        <ele>157.624799</ele>
        <time>2025-06-19T06:28:40.508Z</time>
      </trkpt>
      <trkpt lat="49.34841" lon="2.12375">
        <ele>157.499209</ele>
        <time>2025-06-19T06:28:43.510Z</time>
      </trkpt>
      <trkpt lat="49.34833" lon="2.12383">
        <ele>157.406998</ele>
        <time>2025-06-19T06:28:45.510Z</time>
      </trkpt>
      <trkpt lat="49.34825" lon="2.12391">
        <ele>157.311582</ele>
        <time>2025-06-19T06:28:47.509Z</time>
      </trkpt>
      <trkpt lat="49.34817" lon="2.12399">
        <ele>157.217569</ele>
        <time>2025-06-19T06:28:49.511Z</time>
      </trkpt>
      <trkpt lat="49.34809" lon="2.12407">
        <ele>157.118587</ele>
        <time>2025-06-19T06:28:51.521Z</time>
      </trkpt>
      <trkpt lat="49.34801" lon="2.12414">
        <ele>157.024299</ele>
        <time>2025-06-19T06:28:53.515Z</time>
      </trkpt>
      <trkpt lat="49.34792" lon="2.12421">
        <ele>156.93001</ele>
        <time>2025-06-19T06:28:55.508Z</time>
      </trkpt>
      <trkpt lat="49.34784" lon="2.12429">
        <ele>156.830109</ele>
        <time>2025-06-19T06:28:57.511Z</time>
      </trkpt>
      <trkpt lat="49.34774" lon="2.12436">
        <ele>156.726089</ele>
        <time>2025-06-19T06:28:59.510Z</time>
      </trkpt>
      <trkpt lat="49.34765" lon="2.12445">
        <ele>156.620031</ele>
        <time>2025-06-19T06:29:01.514Z</time>
      </trkpt>
      <trkpt lat="49.34756" lon="2.12453">
        <ele>156.51042</ele>
        <time>2025-06-19T06:29:03.507Z</time>
      </trkpt>
      <trkpt lat="49.34747" lon="2.1246">
        <ele>156.428871</ele>
        <time>2025-06-19T06:29:05.515Z</time>
      </trkpt>
      <trkpt lat="49.34737" lon="2.12467">
        <ele>156.354803</ele>
        <time>2025-06-19T06:29:07.511Z</time>
      </trkpt>
      <trkpt lat="49.34728" lon="2.12474">
        <ele>156.278759</ele>
        <time>2025-06-19T06:29:09.509Z</time>
      </trkpt>
      <trkpt lat="49.34719" lon="2.12482">
        <ele>156.206133</ele>
        <time>2025-06-19T06:29:11.516Z</time>
      </trkpt>
      <trkpt lat="49.34709" lon="2.12489">
        <ele>156.1295</ele>
        <time>2025-06-19T06:29:13.512Z</time>
      </trkpt>
      <trkpt lat="49.34699" lon="2.12497">
        <ele>156.050755</ele>
        <time>2025-06-19T06:29:15.510Z</time>
      </trkpt>
      <trkpt lat="49.34688" lon="2.12501">
        <ele>155.97083</ele>
        <time>2025-06-19T06:29:17.513Z</time>
      </trkpt>
      <trkpt lat="49.34677" lon="2.12503">
        <ele>155.889863</ele>
        <time>2025-06-19T06:29:19.500Z</time>
      </trkpt>
      <trkpt lat="49.34666" lon="2.12504">
        <ele>155.812022</ele>
        <time>2025-06-19T06:29:21.517Z</time>
      </trkpt>
      <trkpt lat="49.34657" lon="2.12504">
        <ele>155.745662</ele>
        <time>2025-06-19T06:29:23.517Z</time>
      </trkpt>
      <trkpt lat="49.34646" lon="2.12504">
        <ele>155.667208</ele>
        <time>2025-06-19T06:29:27.508Z</time>
      </trkpt>
      <trkpt lat="49.34626" lon="2.12506">
        <ele>155.527288</ele>
        <time>2025-06-19T06:29:46.515Z</time>
      </trkpt>
      <trkpt lat="49.34617" lon="2.12506">
        <ele>155.459537</ele>
        <time>2025-06-19T06:29:49.516Z</time>
      </trkpt>
      <trkpt lat="49.34606" lon="2.12506">
        <ele>155.383942</ele>
        <time>2025-06-19T06:29:52.513Z</time>
      </trkpt>
      <trkpt lat="49.34595" lon="2.12506">
        <ele>155.306163</ele>
        <time>2025-06-19T06:29:55.516Z</time>
      </trkpt>
      <trkpt lat="49.34583" lon="2.12507">
        <ele>155.219119</ele>
        <time>2025-06-19T06:29:58.505Z</time>
      </trkpt>
      <trkpt lat="49.3457" lon="2.12507">
        <ele>155.071671</ele>
        <time>2025-06-19T06:30:01.503Z</time>
      </trkpt>
      <trkpt lat="49.34557" lon="2.12509">
        <ele>154.907285</ele>
        <time>2025-06-19T06:30:04.509Z</time>
      </trkpt>
      <trkpt lat="49.34544" lon="2.12512">
        <ele>154.746281</ele>
        <time>2025-06-19T06:30:07.508Z</time>
      </trkpt>
      <trkpt lat="49.34531" lon="2.12515">
        <ele>154.584435</ele>
        <time>2025-06-19T06:30:10.507Z</time>
      </trkpt>
      <trkpt lat="49.34518" lon="2.1252">
        <ele>154.414943</ele>
        <time>2025-06-19T06:30:13.509Z</time>
      </trkpt>
      <trkpt lat="49.34508" lon="2.12523">
        <ele>154.296716</ele>
        <time>2025-06-19T06:30:15.512Z</time>
      </trkpt>
      <trkpt lat="49.34498" lon="2.12526">
        <ele>154.170695</ele>
        <time>2025-06-19T06:30:17.508Z</time>
      </trkpt>
      <trkpt lat="49.34488" lon="2.12529">
        <ele>154.043381</ele>
        <time>2025-06-19T06:30:19.508Z</time>
      </trkpt>
      <trkpt lat="49.34478" lon="2.12532">
        <ele>153.913625</ele>
        <time>2025-06-19T06:30:21.515Z</time>
      </trkpt>
      <trkpt lat="49.34467" lon="2.12535">
        <ele>153.778242</ele>
        <time>2025-06-19T06:30:23.516Z</time>
      </trkpt>
      <trkpt lat="49.34457" lon="2.12539">
        <ele>153.649978</ele>
        <time>2025-06-19T06:30:25.511Z</time>
      </trkpt>
      <trkpt lat="49.34447" lon="2.12543">
        <ele>153.52071</ele>
        <time>2025-06-19T06:30:27.523Z</time>
      </trkpt>
      <trkpt lat="49.34438" lon="2.12548">
        <ele>153.392715</ele>
        <time>2025-06-19T06:30:29.513Z</time>
      </trkpt>
      <trkpt lat="49.34427" lon="2.12553">
        <ele>153.262912</ele>
        <time>2025-06-19T06:30:31.511Z</time>
      </trkpt>
      <trkpt lat="49.34418" lon="2.1256">
        <ele>153.13331</ele>
        <time>2025-06-19T06:30:33.508Z</time>
      </trkpt>
      <trkpt lat="49.34408" lon="2.12567">
        <ele>152.996823</ele>
        <time>2025-06-19T06:30:35.511Z</time>
      </trkpt>
      <trkpt lat="49.34399" lon="2.12575">
        <ele>153.366478</ele>
        <time>2025-06-19T06:30:37.519Z</time>
      </trkpt>
      <trkpt lat="49.34389" lon="2.12582">
        <ele>153.902181</ele>
        <time>2025-06-19T06:30:39.508Z</time>
      </trkpt>
      <trkpt lat="49.34379" lon="2.12588">
        <ele>154.452108</ele>
        <time>2025-06-19T06:30:41.514Z</time>
      </trkpt>
      <trkpt lat="49.34369" lon="2.12598">
        <ele>155.022509</ele>
        <time>2025-06-19T06:30:43.518Z</time>
      </trkpt>
      <trkpt lat="49.3436" lon="2.12605">
        <ele>155.508271</ele>
        <time>2025-06-19T06:30:45.509Z</time>
      </trkpt>
      <trkpt lat="49.34352" lon="2.12613">
        <ele>155.976433</ele>
        <time>2025-06-19T06:30:47.514Z</time>
      </trkpt>
      <trkpt lat="49.34344" lon="2.1262">
        <ele>156.441882</ele>
        <time>2025-06-19T06:30:49.506Z</time>
      </trkpt>
      <trkpt lat="49.34336" lon="2.12627">
        <ele>156.89719</ele>
        <time>2025-06-19T06:30:51.516Z</time>
      </trkpt>
      <trkpt lat="49.34328" lon="2.12633">
        <ele>157.353383</ele>
        <time>2025-06-19T06:30:53.526Z</time>
      </trkpt>
      <trkpt lat="49.34316" lon="2.12641">
        <ele>157.990555</ele>
        <time>2025-06-19T06:30:56.517Z</time>
      </trkpt>
      <trkpt lat="49.34303" lon="2.12644">
        <ele>158.603202</ele>
        <time>2025-06-19T06:30:59.505Z</time>
      </trkpt>
      <trkpt lat="49.34291" lon="2.12643">
        <ele>159.189829</ele>
        <time>2025-06-19T06:31:02.525Z</time>
      </trkpt>
      <trkpt lat="49.34279" lon="2.1264">
        <ele>159.798585</ele>
        <time>2025-06-19T06:31:05.502Z</time>
      </trkpt>
      <trkpt lat="49.34266" lon="2.12636">
        <ele>160.444168</ele>
        <time>2025-06-19T06:31:08.512Z</time>
      </trkpt>
      <trkpt lat="49.34254" lon="2.12632">
        <ele>161.093232</ele>
        <time>2025-06-19T06:31:11.509Z</time>
      </trkpt>
      <trkpt lat="49.34241" lon="2.12629">
        <ele>161.713904</ele>
        <time>2025-06-19T06:31:14.527Z</time>
      </trkpt>
      <trkpt lat="49.34228" lon="2.12628">
        <ele>162.21515</ele>
        <time>2025-06-19T06:31:17.526Z</time>
      </trkpt>
      <trkpt lat="49.34216" lon="2.12628">
        <ele>162.668105</ele>
        <time>2025-06-19T06:31:20.516Z</time>
      </trkpt>
      <trkpt lat="49.34204" lon="2.12631">
        <ele>163.107172</ele>
        <time>2025-06-19T06:31:23.524Z</time>
      </trkpt>
      <trkpt lat="49.34193" lon="2.12635">
        <ele>163.516552</ele>
        <time>2025-06-19T06:31:26.517Z</time>
      </trkpt>
      <trkpt lat="49.34183" lon="2.12639">
        <ele>163.904226</ele>
        <time>2025-06-19T06:31:29.509Z</time>
      </trkpt>
      <trkpt lat="49.34173" lon="2.12646">
        <ele>164.275556</ele>
        <time>2025-06-19T06:31:32.524Z</time>
      </trkpt>
      <trkpt lat="49.34164" lon="2.12652">
        <ele>164.653144</ele>
        <time>2025-06-19T06:31:35.512Z</time>
      </trkpt>
      <trkpt lat="49.34156" lon="2.1266">
        <ele>165.005754</ele>
        <time>2025-06-19T06:31:38.513Z</time>
      </trkpt>
      <trkpt lat="49.34147" lon="2.12669">
        <ele>165.375602</ele>
        <time>2025-06-19T06:31:41.522Z</time>
      </trkpt>
      <trkpt lat="49.34139" lon="2.12676">
        <ele>165.741713</ele>
        <time>2025-06-19T06:31:44.518Z</time>
      </trkpt>
      <trkpt lat="49.3413" lon="2.12684">
        <ele>166.114908</ele>
        <time>2025-06-19T06:31:47.511Z</time>
      </trkpt>
      <trkpt lat="49.34121" lon="2.12692">
        <ele>166.490463</ele>
        <time>2025-06-19T06:31:50.510Z</time>
      </trkpt>
      <trkpt lat="49.34112" lon="2.127">
        <ele>166.862861</ele>
        <time>2025-06-19T06:31:53.510Z</time>
      </trkpt>
      <trkpt lat="49.34103" lon="2.12708">
        <ele>167.240823</ele>
        <time>2025-06-19T06:31:56.517Z</time>
      </trkpt>
      <trkpt lat="49.34094" lon="2.12717">
        <ele>167.626834</ele>
        <time>2025-06-19T06:31:59.502Z</time>
      </trkpt>
      <trkpt lat="49.34085" lon="2.12725">
        <ele>168.031674</ele>
        <time>2025-06-19T06:32:02.509Z</time>
      </trkpt>
      <trkpt lat="49.34076" lon="2.12735">
        <ele>168.435471</ele>
        <time>2025-06-19T06:32:05.509Z</time>
      </trkpt>
      <trkpt lat="49.34067" lon="2.12746">
        <ele>168.773041</ele>
        <time>2025-06-19T06:32:08.518Z</time>
      </trkpt>
      <trkpt lat="49.34059" lon="2.12758">
        <ele>169.114931</ele>
        <time>2025-06-19T06:32:11.517Z</time>
      </trkpt>
      <trkpt lat="49.34052" lon="2.12772">
        <ele>169.447332</ele>
        <time>2025-06-19T06:32:14.512Z</time>
      </trkpt>
      <trkpt lat="49.34047" lon="2.12786">
        <ele>169.771556</ele>
        <time>2025-06-19T06:32:17.524Z</time>
      </trkpt>
      <trkpt lat="49.34043" lon="2.128">
        <ele>170.070804</ele>
        <time>2025-06-19T06:32:20.509Z</time>
      </trkpt>
      <trkpt lat="49.3404" lon="2.12815">
        <ele>170.381918</ele>
        <time>2025-06-19T06:32:23.514Z</time>
      </trkpt>
      <trkpt lat="49.34037" lon="2.1283">
        <ele>170.687532</ele>
        <time>2025-06-19T06:32:26.513Z</time>
      </trkpt>
      <trkpt lat="49.34034" lon="2.12844">
        <ele>170.981726</ele>
        <time>2025-06-19T06:32:29.518Z</time>
      </trkpt>
      <trkpt lat="49.34029" lon="2.12858">
        <ele>171.286048</ele>
        <time>2025-06-19T06:32:32.517Z</time>
      </trkpt>
      <trkpt lat="49.34023" lon="2.12869">
        <ele>171.578926</ele>
        <time>2025-06-19T06:32:35.508Z</time>
      </trkpt>
      <trkpt lat="49.34017" lon="2.1288">
        <ele>171.870738</ele>
        <time>2025-06-19T06:32:38.513Z</time>
      </trkpt>
      <trkpt lat="49.34009" lon="2.12892">
        <ele>172.191416</ele>
        <time>2025-06-19T06:32:41.510Z</time>
      </trkpt>
      <trkpt lat="49.34002" lon="2.12904">
        <ele>172.521977</ele>
        <time>2025-06-19T06:32:44.520Z</time>
      </trkpt>
      <trkpt lat="49.33994" lon="2.12916">
        <ele>172.84833</ele>
        <time>2025-06-19T06:32:47.511Z</time>
      </trkpt>
      <trkpt lat="49.33985" lon="2.12926">
        <ele>173.183125</ele>
        <time>2025-06-19T06:32:50.508Z</time>
      </trkpt>
      <trkpt lat="49.33975" lon="2.12939">
        <ele>173.580402</ele>
        <time>2025-06-19T06:32:53.514Z</time>
      </trkpt>
      <trkpt lat="49.33968" lon="2.12947">
        <ele>173.836452</ele>
        <time>2025-06-19T06:32:55.514Z</time>
      </trkpt>
      <trkpt lat="49.3396" lon="2.12957">
        <ele>173.809043</ele>
        <time>2025-06-19T06:32:57.520Z</time>
      </trkpt>
      <trkpt lat="49.33952" lon="2.12967">
        <ele>173.780382</ele>
        <time>2025-06-19T06:32:59.508Z</time>
      </trkpt>
      <trkpt lat="49.33944" lon="2.12977">
        <ele>173.749265</ele>
        <time>2025-06-19T06:33:01.508Z</time>
      </trkpt>
      <trkpt lat="49.33935" lon="2.12989">
        <ele>173.716156</ele>
        <time>2025-06-19T06:33:03.517Z</time>
      </trkpt>
      <trkpt lat="49.33926" lon="2.13002">
        <ele>173.681679</ele>
        <time>2025-06-19T06:33:05.520Z</time>
      </trkpt>
      <trkpt lat="49.33917" lon="2.13014">
        <ele>173.647513</ele>
        <time>2025-06-19T06:33:07.511Z</time>
      </trkpt>
      <trkpt lat="49.33909" lon="2.13027">
        <ele>173.613939</ele>
        <time>2025-06-19T06:33:09.513Z</time>
      </trkpt>
      <trkpt lat="49.33901" lon="2.13041">
        <ele>173.581573</ele>
        <time>2025-06-19T06:33:11.507Z</time>
      </trkpt>
      <trkpt lat="49.33894" lon="2.13054">
        <ele>173.550622</ele>
        <time>2025-06-19T06:33:13.510Z</time>
      </trkpt>
      <trkpt lat="49.33887" lon="2.13067">
        <ele>173.519208</ele>
        <time>2025-06-19T06:33:15.513Z</time>
      </trkpt>
      <trkpt lat="49.3388" lon="2.1308">
        <ele>173.487578</ele>
        <time>2025-06-19T06:33:17.506Z</time>
      </trkpt>
      <trkpt lat="49.33873" lon="2.13093">
        <ele>173.456947</ele>
        <time>2025-06-19T06:33:19.520Z</time>
      </trkpt>
      <trkpt lat="49.33866" lon="2.13107">
        <ele>173.424813</ele>
        <time>2025-06-19T06:33:21.525Z</time>
      </trkpt>
      <trkpt lat="49.3386" lon="2.13119">
        <ele>173.39621</ele>
        <time>2025-06-19T06:33:23.505Z</time>
      </trkpt>
      <trkpt lat="49.33853" lon="2.13131">
        <ele>173.36671</ele>
        <time>2025-06-19T06:33:25.501Z</time>
      </trkpt>
      <trkpt lat="49.33847" lon="2.13144">
        <ele>173.337844</ele>
        <time>2025-06-19T06:33:27.512Z</time>
      </trkpt>
      <trkpt lat="49.3384" lon="2.13154">
        <ele>173.507803</ele>
        <time>2025-06-19T06:33:29.523Z</time>
      </trkpt>
      <trkpt lat="49.33829" lon="2.13165">
        <ele>173.851735</ele>
        <time>2025-06-19T06:33:32.519Z</time>
      </trkpt>
      <trkpt lat="49.3382" lon="2.13168">
        <ele>174.092828</ele>
        <time>2025-06-19T06:33:34.502Z</time>
      </trkpt>
      <trkpt lat="49.33807" lon="2.13167">
        <ele>174.429672</ele>
        <time>2025-06-19T06:33:37.504Z</time>
      </trkpt>
      <trkpt lat="49.33794" lon="2.13162">
        <ele>174.76344</ele>
        <time>2025-06-19T06:33:40.509Z</time>
      </trkpt>
      <trkpt lat="49.33782" lon="2.13157">
        <ele>175.093775</ele>
        <time>2025-06-19T06:33:43.520Z</time>
      </trkpt>
      <trkpt lat="49.33771" lon="2.13149">
        <ele>175.417892</ele>
        <time>2025-06-19T06:33:46.520Z</time>
      </trkpt>
      <trkpt lat="49.33759" lon="2.13143">
        <ele>175.74941</ele>
        <time>2025-06-19T06:33:49.516Z</time>
      </trkpt>
      <trkpt lat="49.33747" lon="2.13136">
        <ele>176.07408</ele>
        <time>2025-06-19T06:33:52.511Z</time>
      </trkpt>
      <trkpt lat="49.33736" lon="2.13132">
        <ele>176.37397</ele>
        <time>2025-06-19T06:33:55.511Z</time>
      </trkpt>
      <trkpt lat="49.33724" lon="2.13126">
        <ele>176.685983</ele>
        <time>2025-06-19T06:33:58.510Z</time>
      </trkpt>
      <trkpt lat="49.33713" lon="2.13121">
        <ele>176.990145</ele>
        <time>2025-06-19T06:34:01.514Z</time>
      </trkpt>
      <trkpt lat="49.33702" lon="2.13116">
        <ele>177.290277</ele>
        <time>2025-06-19T06:34:04.514Z</time>
      </trkpt>
      <trkpt lat="49.33691" lon="2.13111">
        <ele>177.591394</ele>
        <time>2025-06-19T06:34:07.506Z</time>
      </trkpt>
      <trkpt lat="49.33679" lon="2.13106">
        <ele>177.900098</ele>
        <time>2025-06-19T06:34:10.513Z</time>
      </trkpt>
      <trkpt lat="49.33668" lon="2.131">
        <ele>178.352576</ele>
        <time>2025-06-19T06:34:13.511Z</time>
      </trkpt>
      <trkpt lat="49.33657" lon="2.13094">
        <ele>178.879039</ele>
        <time>2025-06-19T06:34:16.510Z</time>
      </trkpt>
      <trkpt lat="49.33646" lon="2.13089">
        <ele>179.395925</ele>
        <time>2025-06-19T06:34:19.513Z</time>
      </trkpt>
      <trkpt lat="49.33634" lon="2.13084">
        <ele>179.918746</ele>
        <time>2025-06-19T06:34:22.509Z</time>
      </trkpt>
      <trkpt lat="49.33623" lon="2.1308">
        <ele>180.42747</ele>
        <time>2025-06-19T06:34:25.512Z</time>
      </trkpt>
      <trkpt lat="49.33612" lon="2.13076">
        <ele>180.920914</ele>
        <time>2025-06-19T06:34:28.510Z</time>
      </trkpt>
      <trkpt lat="49.33601" lon="2.13074">
        <ele>181.410513</ele>
        <time>2025-06-19T06:34:31.529Z</time>
      </trkpt>
      <trkpt lat="49.3359" lon="2.13072">
        <ele>181.876363</ele>
        <time>2025-06-19T06:34:34.518Z</time>
      </trkpt>
      <trkpt lat="49.33581" lon="2.1307">
        <ele>182.315296</ele>
        <time>2025-06-19T06:34:37.507Z</time>
      </trkpt>
      <trkpt lat="49.3357" lon="2.1307">
        <ele>182.768802</ele>
        <time>2025-06-19T06:34:40.498Z</time>
      </trkpt>
      <trkpt lat="49.33561" lon="2.13071">
        <ele>183.196661</ele>
        <time>2025-06-19T06:34:43.507Z</time>
      </trkpt>
      <trkpt lat="49.33551" lon="2.13073">
        <ele>183.64145</ele>
        <time>2025-06-19T06:34:46.521Z</time>
      </trkpt>
      <trkpt lat="49.33541" lon="2.13077">
        <ele>184.092929</ele>
        <time>2025-06-19T06:34:49.525Z</time>
      </trkpt>
      <trkpt lat="49.33531" lon="2.13081">
        <ele>184.542499</ele>
        <time>2025-06-19T06:34:52.515Z</time>
      </trkpt>
      <trkpt lat="49.3352" lon="2.13086">
        <ele>185.016726</ele>
        <time>2025-06-19T06:34:55.511Z</time>
      </trkpt>
      <trkpt lat="49.3351" lon="2.13091">
        <ele>185.504981</ele>
        <time>2025-06-19T06:34:58.505Z</time>
      </trkpt>
      <trkpt lat="49.33498" lon="2.13095">
        <ele>185.904786</ele>
        <time>2025-06-19T06:35:01.509Z</time>
      </trkpt>
      <trkpt lat="49.33487" lon="2.131">
        <ele>185.884307</ele>
        <time>2025-06-19T06:35:04.518Z</time>
      </trkpt>
      <trkpt lat="49.33475" lon="2.13105">
        <ele>185.863168</ele>
        <time>2025-06-19T06:35:07.501Z</time>
      </trkpt>
      <trkpt lat="49.33464" lon="2.13111">
        <ele>185.842589</ele>
        <time>2025-06-19T06:35:10.504Z</time>
      </trkpt>
      <trkpt lat="49.33451" lon="2.13118">
        <ele>185.819735</ele>
        <time>2025-06-19T06:35:13.501Z</time>
      </trkpt>
      <trkpt lat="49.33442" lon="2.13123">
        <ele>185.803562</ele>
        <time>2025-06-19T06:35:15.509Z</time>
      </trkpt>
      <trkpt lat="49.33434" lon="2.13127">
        <ele>185.78752</ele>
        <time>2025-06-19T06:35:17.516Z</time>
      </trkpt>
      <trkpt lat="49.33425" lon="2.13132">
        <ele>185.771187</ele>
        <time>2025-06-19T06:35:19.514Z</time>
      </trkpt>
      <trkpt lat="49.33416" lon="2.13137">
        <ele>185.755094</ele>
        <time>2025-06-19T06:35:21.514Z</time>
      </trkpt>
      <trkpt lat="49.33407" lon="2.13143">
        <ele>185.738841</ele>
        <time>2025-06-19T06:35:23.510Z</time>
      </trkpt>
      <trkpt lat="49.33398" lon="2.13147">
        <ele>185.722821</ele>
        <time>2025-06-19T06:35:25.510Z</time>
      </trkpt>
      <trkpt lat="49.3339" lon="2.13152">
        <ele>185.706888</ele>
        <time>2025-06-19T06:35:27.517Z</time>
      </trkpt>
      <trkpt lat="49.33381" lon="2.13157">
        <ele>185.691392</ele>
        <time>2025-06-19T06:35:29.514Z</time>
      </trkpt>
      <trkpt lat="49.33373" lon="2.13162">
        <ele>185.67562</ele>
        <time>2025-06-19T06:35:31.510Z</time>
      </trkpt>
      <trkpt lat="49.33364" lon="2.13167">
        <ele>185.659164</ele>
        <time>2025-06-19T06:35:33.517Z</time>
      </trkpt>
      <trkpt lat="49.33355" lon="2.13172">
        <ele>185.643231</ele>
        <time>2025-06-19T06:35:35.514Z</time>
      </trkpt>
      <trkpt lat="49.33346" lon="2.13177">
        <ele>185.627058</ele>
        <time>2025-06-19T06:35:37.514Z</time>
      </trkpt>
      <trkpt lat="49.33334" lon="2.13184">
        <ele>185.6039</ele>
        <time>2025-06-19T06:35:40.517Z</time>
      </trkpt>
      <trkpt lat="49.33321" lon="2.13192">
        <ele>185.144642</ele>
        <time>2025-06-19T06:35:43.516Z</time>
      </trkpt>
      <trkpt lat="49.3331" lon="2.13199">
        <ele>184.643985</ele>
        <time>2025-06-19T06:35:46.519Z</time>
      </trkpt>
      <trkpt lat="49.33298" lon="2.13202">
        <ele>184.153741</ele>
        <time>2025-06-19T06:35:49.513Z</time>
      </trkpt>
      <trkpt lat="49.33288" lon="2.13198">
        <ele>183.710239</ele>
        <time>2025-06-19T06:35:52.505Z</time>
      </trkpt>
      <trkpt lat="49.33278" lon="2.13198">
        <ele>183.305214</ele>
        <time>2025-06-19T06:35:55.511Z</time>
      </trkpt>
      <trkpt lat="49.33272" lon="2.13216">
        <ele>182.779525</ele>
        <time>2025-06-19T06:35:58.521Z</time>
      </trkpt>
      <trkpt lat="49.33271" lon="2.1323">
        <ele>182.39672</ele>
        <time>2025-06-19T06:36:00.506Z</time>
      </trkpt>
      <trkpt lat="49.33269" lon="2.13244">
        <ele>182.00981</ele>
        <time>2025-06-19T06:36:02.504Z</time>
      </trkpt>
      <trkpt lat="49.33267" lon="2.13258">
        <ele>181.614917</ele>
        <time>2025-06-19T06:36:04.521Z</time>
      </trkpt>
      <trkpt lat="49.33266" lon="2.13273">
        <ele>181.220722</ele>
        <time>2025-06-19T06:36:06.513Z</time>
      </trkpt>
      <trkpt lat="49.33264" lon="2.13287">
        <ele>180.837348</ele>
        <time>2025-06-19T06:36:08.515Z</time>
      </trkpt>
      <trkpt lat="49.33261" lon="2.13301">
        <ele>180.452107</ele>
        <time>2025-06-19T06:36:10.505Z</time>
      </trkpt>
      <trkpt lat="49.3326" lon="2.13316">
        <ele>180.036752</ele>
        <time>2025-06-19T06:36:12.516Z</time>
      </trkpt>
      <trkpt lat="49.33258" lon="2.13331">
        <ele>179.623327</ele>
        <time>2025-06-19T06:36:14.514Z</time>
      </trkpt>
      <trkpt lat="49.33256" lon="2.13346">
        <ele>179.201952</ele>
        <time>2025-06-19T06:36:16.509Z</time>
      </trkpt>
      <trkpt lat="49.33254" lon="2.13362">
        <ele>178.783483</ele>
        <time>2025-06-19T06:36:18.514Z</time>
      </trkpt>
      <trkpt lat="49.33252" lon="2.13376">
        <ele>178.380651</ele>
        <time>2025-06-19T06:36:20.516Z</time>
      </trkpt>
      <trkpt lat="49.3325" lon="2.13392">
        <ele>177.873933</ele>
        <time>2025-06-19T06:36:22.499Z</time>
      </trkpt>
      <trkpt lat="49.33248" lon="2.13406">
        <ele>177.313096</ele>
        <time>2025-06-19T06:36:24.519Z</time>
      </trkpt>
      <trkpt lat="49.33246" lon="2.13422">
        <ele>176.703165</ele>
        <time>2025-06-19T06:36:26.526Z</time>
      </trkpt>
      <trkpt lat="49.33245" lon="2.13438">
        <ele>176.096664</ele>
        <time>2025-06-19T06:36:28.507Z</time>
      </trkpt>
      <trkpt lat="49.33243" lon="2.13454">
        <ele>175.472548</ele>
        <time>2025-06-19T06:36:30.506Z</time>
      </trkpt>
      <trkpt lat="49.33241" lon="2.1347">
        <ele>174.864279</ele>
        <time>2025-06-19T06:36:32.517Z</time>
      </trkpt>
      <trkpt lat="49.3324" lon="2.13487">
        <ele>174.241888</ele>
        <time>2025-06-19T06:36:34.504Z</time>
      </trkpt>
      <trkpt lat="49.33239" lon="2.13503">
        <ele>173.611374</ele>
        <time>2025-06-19T06:36:36.513Z</time>
      </trkpt>
      <trkpt lat="49.33238" lon="2.1352">
        <ele>172.979972</ele>
        <time>2025-06-19T06:36:38.505Z</time>
      </trkpt>
      <trkpt lat="49.33238" lon="2.13536">
        <ele>172.367415</ele>
        <time>2025-06-19T06:36:40.503Z</time>
      </trkpt>
      <trkpt lat="49.33237" lon="2.13552">
        <ele>171.747862</ele>
        <time>2025-06-19T06:36:42.516Z</time>
      </trkpt>
      <trkpt lat="49.33237" lon="2.13569">
        <ele>171.10984</ele>
        <time>2025-06-19T06:36:44.513Z</time>
      </trkpt>
      <trkpt lat="49.33237" lon="2.13587">
        <ele>170.456101</ele>
        <time>2025-06-19T06:36:46.515Z</time>
      </trkpt>
      <trkpt lat="49.33236" lon="2.13604">
        <ele>169.795226</ele>
        <time>2025-06-19T06:36:48.524Z</time>
      </trkpt>
      <trkpt lat="49.33237" lon="2.13623">
        <ele>169.085291</ele>
        <time>2025-06-19T06:36:50.506Z</time>
      </trkpt>
      <trkpt lat="49.33236" lon="2.13642">
        <ele>168.375355</ele>
        <time>2025-06-19T06:36:52.508Z</time>
      </trkpt>
      <trkpt lat="49.33236" lon="2.13661">
        <ele>167.681385</ele>
        <time>2025-06-19T06:36:54.518Z</time>
      </trkpt>
      <trkpt lat="49.33236" lon="2.1368">
        <ele>167.120227</ele>
        <time>2025-06-19T06:36:56.505Z</time>
      </trkpt>
      <trkpt lat="49.33235" lon="2.13699">
        <ele>166.555973</ele>
        <time>2025-06-19T06:36:58.521Z</time>
      </trkpt>
      <trkpt lat="49.33235" lon="2.13719">
        <ele>165.986542</ele>
        <time>2025-06-19T06:37:00.501Z</time>
      </trkpt>
      <trkpt lat="49.33235" lon="2.13739">
        <ele>165.396353</ele>
        <time>2025-06-19T06:37:02.519Z</time>
      </trkpt>
      <trkpt lat="49.33234" lon="2.1376">
        <ele>164.784931</ele>
        <time>2025-06-19T06:37:04.513Z</time>
      </trkpt>
      <trkpt lat="49.33233" lon="2.13782">
        <ele>164.152915</ele>
        <time>2025-06-19T06:37:06.515Z</time>
      </trkpt>
      <trkpt lat="49.33232" lon="2.13805">
        <ele>163.495102</ele>
        <time>2025-06-19T06:37:08.515Z</time>
      </trkpt>
      <trkpt lat="49.3323" lon="2.13828">
        <ele>162.807666</ele>
        <time>2025-06-19T06:37:10.511Z</time>
      </trkpt>
      <trkpt lat="49.33228" lon="2.13852">
        <ele>162.095813</ele>
        <time>2025-06-19T06:37:12.505Z</time>
      </trkpt>
      <trkpt lat="49.33224" lon="2.13877">
        <ele>161.371823</ele>
        <time>2025-06-19T06:37:14.509Z</time>
      </trkpt>
      <trkpt lat="49.3322" lon="2.13902">
        <ele>160.621759</ele>
        <time>2025-06-19T06:37:16.515Z</time>
      </trkpt>
      <trkpt lat="49.33215" lon="2.13927">
        <ele>159.855855</ele>
        <time>2025-06-19T06:37:18.522Z</time>
      </trkpt>
      <trkpt lat="49.33213" lon="2.1394">
        <ele>159.609192</ele>
        <time>2025-06-19T06:37:19.508Z</time>
      </trkpt>
      <trkpt lat="49.3321" lon="2.13954">
        <ele>159.43377</ele>
        <time>2025-06-19T06:37:20.509Z</time>
      </trkpt>
      <trkpt lat="49.33207" lon="2.13967">
        <ele>159.253532</ele>
        <time>2025-06-19T06:37:21.509Z</time>
      </trkpt>
      <trkpt lat="49.33205" lon="2.13981">
        <ele>159.076906</ele>
        <time>2025-06-19T06:37:22.512Z</time>
      </trkpt>
      <trkpt lat="49.33202" lon="2.13995">
        <ele>158.893189</ele>
        <time>2025-06-19T06:37:23.512Z</time>
      </trkpt>
      <trkpt lat="49.33199" lon="2.14009">
        <ele>158.713041</ele>
        <time>2025-06-19T06:37:24.511Z</time>
      </trkpt>
      <trkpt lat="49.33196" lon="2.14023">
        <ele>158.527527</ele>
        <time>2025-06-19T06:37:25.514Z</time>
      </trkpt>
      <trkpt lat="49.33194" lon="2.14036">
        <ele>158.347289</ele>
        <time>2025-06-19T06:37:26.509Z</time>
      </trkpt>
      <trkpt lat="49.3319" lon="2.14051">
        <ele>158.158654</ele>
        <time>2025-06-19T06:37:27.510Z</time>
      </trkpt>
      <trkpt lat="49.33187" lon="2.14065">
        <ele>157.970679</ele>
        <time>2025-06-19T06:37:28.527Z</time>
      </trkpt>
      <trkpt lat="49.33184" lon="2.14079">
        <ele>157.784531</ele>
        <time>2025-06-19T06:37:29.511Z</time>
      </trkpt>
      <trkpt lat="49.3318" lon="2.14092">
        <ele>157.600094</ele>
        <time>2025-06-19T06:37:30.519Z</time>
      </trkpt>
      <trkpt lat="49.33177" lon="2.14107">
        <ele>157.412118</ele>
        <time>2025-06-19T06:37:31.525Z</time>
      </trkpt>
      <trkpt lat="49.33174" lon="2.14121">
        <ele>157.222368</ele>
        <time>2025-06-19T06:37:32.509Z</time>
      </trkpt>
      <trkpt lat="49.33171" lon="2.14136">
        <ele>157.028358</ele>
        <time>2025-06-19T06:37:33.517Z</time>
      </trkpt>
      <trkpt lat="49.33167" lon="2.1415">
        <ele>156.835524</ele>
        <time>2025-06-19T06:37:34.518Z</time>
      </trkpt>
      <trkpt lat="49.33163" lon="2.14165">
        <ele>156.63101</ele>
        <time>2025-06-19T06:37:35.509Z</time>
      </trkpt>
      <trkpt lat="49.3316" lon="2.1418">
        <ele>156.435149</ele>
        <time>2025-06-19T06:37:36.518Z</time>
      </trkpt>
      <trkpt lat="49.33156" lon="2.14195">
        <ele>156.192514</ele>
        <time>2025-06-19T06:37:37.511Z</time>
      </trkpt>
      <trkpt lat="49.33153" lon="2.1421">
        <ele>155.722153</ele>
        <time>2025-06-19T06:37:38.514Z</time>
      </trkpt>
      <trkpt lat="49.3315" lon="2.14224">
        <ele>155.263094</ele>
        <time>2025-06-19T06:37:39.511Z</time>
      </trkpt>
      <trkpt lat="49.33147" lon="2.14239">
        <ele>154.808358</ele>
        <time>2025-06-19T06:37:40.509Z</time>
      </trkpt>
      <trkpt lat="49.33144" lon="2.14253">
        <ele>154.359206</ele>
        <time>2025-06-19T06:37:41.515Z</time>
      </trkpt>
      <trkpt lat="49.33141" lon="2.14267">
        <ele>153.941454</ele>
        <time>2025-06-19T06:37:42.508Z</time>
      </trkpt>
      <trkpt lat="49.33138" lon="2.14281">
        <ele>153.495194</ele>
        <time>2025-06-19T06:37:43.520Z</time>
      </trkpt>
      <trkpt lat="49.33135" lon="2.14295">
        <ele>153.060341</ele>
        <time>2025-06-19T06:37:44.514Z</time>
      </trkpt>
      <trkpt lat="49.33133" lon="2.14308">
        <ele>152.641121</ele>
        <time>2025-06-19T06:37:45.511Z</time>
      </trkpt>
      <trkpt lat="49.3313" lon="2.14321">
        <ele>152.2219</ele>
        <time>2025-06-19T06:37:46.512Z</time>
      </trkpt>
      <trkpt lat="49.33125" lon="2.14348">
        <ele>151.402222</ele>
        <time>2025-06-19T06:37:48.508Z</time>
      </trkpt>
      <trkpt lat="49.33121" lon="2.14374">
        <ele>150.601586</ele>
        <time>2025-06-19T06:37:50.507Z</time>
      </trkpt>
      <trkpt lat="49.33119" lon="2.144">
        <ele>149.820567</ele>
        <time>2025-06-19T06:37:52.511Z</time>
      </trkpt>
      <trkpt lat="49.33117" lon="2.14425">
        <ele>149.050964</ele>
        <time>2025-06-19T06:37:54.510Z</time>
      </trkpt>
      <trkpt lat="49.33115" lon="2.1445">
        <ele>148.313277</ele>
        <time>2025-06-19T06:37:56.516Z</time>
      </trkpt>
      <trkpt lat="49.33115" lon="2.14474">
        <ele>148.10596</ele>
        <time>2025-06-19T06:37:58.520Z</time>
      </trkpt>
      <trkpt lat="49.33115" lon="2.14497">
        <ele>148.25423</ele>
        <time>2025-06-19T06:38:00.506Z</time>
      </trkpt>
      <trkpt lat="49.33114" lon="2.1452">
        <ele>148.398179</ele>
        <time>2025-06-19T06:38:02.519Z</time>
      </trkpt>
      <trkpt lat="49.33113" lon="2.14542">
        <ele>148.539537</ele>
        <time>2025-06-19T06:38:04.515Z</time>
      </trkpt>
      <trkpt lat="49.33113" lon="2.14563">
        <ele>148.675021</ele>
        <time>2025-06-19T06:38:06.507Z</time>
      </trkpt>
      <trkpt lat="49.33112" lon="2.14584">
        <ele>148.804946</ele>
        <time>2025-06-19T06:38:08.513Z</time>
      </trkpt>
      <trkpt lat="49.33112" lon="2.14604">
        <ele>148.931571</ele>
        <time>2025-06-19T06:38:10.506Z</time>
      </trkpt>
      <trkpt lat="49.33112" lon="2.14623">
        <ele>149.054336</ele>
        <time>2025-06-19T06:38:12.503Z</time>
      </trkpt>
      <trkpt lat="49.33111" lon="2.14642">
        <ele>149.17289</ele>
        <time>2025-06-19T06:38:14.502Z</time>
      </trkpt>
      <trkpt lat="49.3311" lon="2.14662">
        <ele>149.300275</ele>
        <time>2025-06-19T06:38:16.502Z</time>
      </trkpt>
      <trkpt lat="49.3311" lon="2.14682">
        <ele>149.428146</ele>
        <time>2025-06-19T06:38:18.511Z</time>
      </trkpt>
      <trkpt lat="49.33109" lon="2.14701">
        <ele>149.552477</ele>
        <time>2025-06-19T06:38:20.509Z</time>
      </trkpt>
      <trkpt lat="49.33108" lon="2.1472">
        <ele>149.673512</ele>
        <time>2025-06-19T06:38:22.497Z</time>
      </trkpt>
      <trkpt lat="49.33108" lon="2.1474">
        <ele>149.783373</ele>
        <time>2025-06-19T06:38:24.514Z</time>
      </trkpt>
      <trkpt lat="49.33107" lon="2.14759">
        <ele>149.838812</ele>
        <time>2025-06-19T06:38:26.516Z</time>
      </trkpt>
      <trkpt lat="49.33106" lon="2.14777">
        <ele>149.89425</ele>
        <time>2025-06-19T06:38:28.515Z</time>
      </trkpt>
      <trkpt lat="49.33105" lon="2.14796">
        <ele>149.949332</ele>
        <time>2025-06-19T06:38:30.505Z</time>
      </trkpt>
      <trkpt lat="49.33104" lon="2.14815">
        <ele>150.004654</ele>
        <time>2025-06-19T06:38:32.502Z</time>
      </trkpt>
      <trkpt lat="49.33102" lon="2.14833">
        <ele>150.058056</ele>
        <time>2025-06-19T06:38:34.516Z</time>
      </trkpt>
      <trkpt lat="49.331" lon="2.14851">
        <ele>150.11173</ele>
        <time>2025-06-19T06:38:36.516Z</time>
      </trkpt>
      <trkpt lat="49.33098" lon="2.14869">
        <ele>150.164494</ele>
        <time>2025-06-19T06:38:38.530Z</time>
      </trkpt>
      <trkpt lat="49.33097" lon="2.14887">
        <ele>150.21658</ele>
        <time>2025-06-19T06:38:40.512Z</time>
      </trkpt>
      <trkpt lat="49.33095" lon="2.14904">
        <ele>150.2691</ele>
        <time>2025-06-19T06:38:42.510Z</time>
      </trkpt>
      <trkpt lat="49.33092" lon="2.14922">
        <ele>150.32092</ele>
        <time>2025-06-19T06:38:44.516Z</time>
      </trkpt>
      <trkpt lat="49.3309" lon="2.1494">
        <ele>150.374017</ele>
        <time>2025-06-19T06:38:46.513Z</time>
      </trkpt>
      <trkpt lat="49.33089" lon="2.14957">
        <ele>150.425237</ele>
        <time>2025-06-19T06:38:48.510Z</time>
      </trkpt>
      <trkpt lat="49.33086" lon="2.14974">
        <ele>150.476949</ele>
        <time>2025-06-19T06:38:50.515Z</time>
      </trkpt>
      <trkpt lat="49.33084" lon="2.14992">
        <ele>150.530335</ele>
        <time>2025-06-19T06:38:52.515Z</time>
      </trkpt>
      <trkpt lat="49.33082" lon="2.15011">
        <ele>150.563419</ele>
        <time>2025-06-19T06:38:54.518Z</time>
      </trkpt>
      <trkpt lat="49.33079" lon="2.1503">
        <ele>150.456231</ele>
        <time>2025-06-19T06:38:56.508Z</time>
      </trkpt>
      <trkpt lat="49.33077" lon="2.15049">
        <ele>150.348543</ele>
        <time>2025-06-19T06:38:58.511Z</time>
      </trkpt>
      <trkpt lat="49.33075" lon="2.15069">
        <ele>150.237682</ele>
        <time>2025-06-19T06:39:00.506Z</time>
      </trkpt>
      <trkpt lat="49.33072" lon="2.15088">
        <ele>150.127051</ele>
        <time>2025-06-19T06:39:02.510Z</time>
      </trkpt>
      <trkpt lat="49.3307" lon="2.15108">
        <ele>150.013449</ele>
        <time>2025-06-19T06:39:04.511Z</time>
      </trkpt>
      <trkpt lat="49.33068" lon="2.15129">
        <ele>149.898053</ele>
        <time>2025-06-19T06:39:06.519Z</time>
      </trkpt>
      <trkpt lat="49.33065" lon="2.15149">
        <ele>149.781822</ele>
        <time>2025-06-19T06:39:08.511Z</time>
      </trkpt>
      <trkpt lat="49.33062" lon="2.15169">
        <ele>149.666271</ele>
        <time>2025-06-19T06:39:10.507Z</time>
      </trkpt>
      <trkpt lat="49.3306" lon="2.15189">
        <ele>149.554001</ele>
        <time>2025-06-19T06:39:12.507Z</time>
      </trkpt>
      <trkpt lat="49.33057" lon="2.15208">
        <ele>149.444838</ele>
        <time>2025-06-19T06:39:14.518Z</time>
      </trkpt>
      <trkpt lat="49.33055" lon="2.15228">
        <ele>149.335462</ele>
        <time>2025-06-19T06:39:16.503Z</time>
      </trkpt>
      <trkpt lat="49.33053" lon="2.15247">
        <ele>149.225575</ele>
        <time>2025-06-19T06:39:18.513Z</time>
      </trkpt>
      <trkpt lat="49.3305" lon="2.15266">
        <ele>149.116411</ele>
        <time>2025-06-19T06:39:20.511Z</time>
      </trkpt>
      <trkpt lat="49.33048" lon="2.15285">
        <ele>149.03716</ele>
        <time>2025-06-19T06:39:22.517Z</time>
      </trkpt>
      <trkpt lat="49.33046" lon="2.15303">
        <ele>149.02219</ele>
        <time>2025-06-19T06:39:24.518Z</time>
      </trkpt>
      <trkpt lat="49.33044" lon="2.15322">
        <ele>149.007085</ele>
        <time>2025-06-19T06:39:26.511Z</time>
      </trkpt>
      <trkpt lat="49.33041" lon="2.1534">
        <ele>148.991994</ele>
        <time>2025-06-19T06:39:28.500Z</time>
      </trkpt>
      <trkpt lat="49.33039" lon="2.15358">
        <ele>148.977231</ele>
        <time>2025-06-19T06:39:30.514Z</time>
      </trkpt>
      <trkpt lat="49.33037" lon="2.15375">
        <ele>148.962882</ele>
        <time>2025-06-19T06:39:32.521Z</time>
      </trkpt>
      <trkpt lat="49.33035" lon="2.15393">
        <ele>148.947985</ele>
        <time>2025-06-19T06:39:34.512Z</time>
      </trkpt>
      <trkpt lat="49.33033" lon="2.15411">
        <ele>148.932792</ele>
        <time>2025-06-19T06:39:36.511Z</time>
      </trkpt>
      <trkpt lat="49.3303" lon="2.15429">
        <ele>148.918134</ele>
        <time>2025-06-19T06:39:38.515Z</time>
      </trkpt>
      <trkpt lat="49.33028" lon="2.15446">
        <ele>148.904002</ele>
        <time>2025-06-19T06:39:40.510Z</time>
      </trkpt>
      <trkpt lat="49.33026" lon="2.15463">
        <ele>148.890006</ele>
        <time>2025-06-19T06:39:42.509Z</time>
      </trkpt>
      <trkpt lat="49.33024" lon="2.15481">
        <ele>148.875497</ele>
        <time>2025-06-19T06:39:44.510Z</time>
      </trkpt>
      <trkpt lat="49.33022" lon="2.15498">
        <ele>148.861261</ele>
        <time>2025-06-19T06:39:46.516Z</time>
      </trkpt>
      <trkpt lat="49.3302" lon="2.15514">
        <ele>148.848165</ele>
        <time>2025-06-19T06:39:48.506Z</time>
      </trkpt>
      <trkpt lat="49.33017" lon="2.15531">
        <ele>148.833666</ele>
        <time>2025-06-19T06:39:50.508Z</time>
      </trkpt>
      <trkpt lat="49.33015" lon="2.15548">
        <ele>148.819511</ele>
        <time>2025-06-19T06:39:52.523Z</time>
      </trkpt>
      <trkpt lat="49.33013" lon="2.15566">
        <ele>148.803322</ele>
        <time>2025-06-19T06:39:54.512Z</time>
      </trkpt>
      <trkpt lat="49.33011" lon="2.15582">
        <ele>148.788052</ele>
        <time>2025-06-19T06:39:56.509Z</time>
      </trkpt>
      <trkpt lat="49.33009" lon="2.15599">
        <ele>148.77231</ele>
        <time>2025-06-19T06:39:58.513Z</time>
      </trkpt>
      <trkpt lat="49.33007" lon="2.15615">
        <ele>148.756544</ele>
        <time>2025-06-19T06:40:00.511Z</time>
      </trkpt>
      <trkpt lat="49.33005" lon="2.15632">
        <ele>148.740549</ele>
        <time>2025-06-19T06:40:02.508Z</time>
      </trkpt>
      <trkpt lat="49.33003" lon="2.15649">
        <ele>148.724704</ele>
        <time>2025-06-19T06:40:04.508Z</time>
      </trkpt>
      <trkpt lat="49.33001" lon="2.15666">
        <ele>148.708704</ele>
        <time>2025-06-19T06:40:06.509Z</time>
      </trkpt>
      <trkpt lat="49.32998" lon="2.15683">
        <ele>148.692338</ele>
        <time>2025-06-19T06:40:08.506Z</time>
      </trkpt>
      <trkpt lat="49.32996" lon="2.157">
        <ele>148.676547</ele>
        <time>2025-06-19T06:40:10.508Z</time>
      </trkpt>
      <trkpt lat="49.32995" lon="2.15717">
        <ele>148.660506</ele>
        <time>2025-06-19T06:40:12.512Z</time>
      </trkpt>
      <trkpt lat="49.32992" lon="2.15733">
        <ele>148.644723</ele>
        <time>2025-06-19T06:40:14.511Z</time>
      </trkpt>
      <trkpt lat="49.3299" lon="2.15751">
        <ele>148.628357</ele>
        <time>2025-06-19T06:40:16.511Z</time>
      </trkpt>
      <trkpt lat="49.32988" lon="2.15768">
        <ele>148.611809</ele>
        <time>2025-06-19T06:40:18.514Z</time>
      </trkpt>
      <trkpt lat="49.32986" lon="2.15786">
        <ele>148.595194</ele>
        <time>2025-06-19T06:40:20.510Z</time>
      </trkpt>
      <trkpt lat="49.32984" lon="2.15803">
        <ele>148.578532</ele>
        <time>2025-06-19T06:40:22.517Z</time>
      </trkpt>
      <trkpt lat="49.32981" lon="2.15821">
        <ele>148.561709</ele>
        <time>2025-06-19T06:40:24.511Z</time>
      </trkpt>
      <trkpt lat="49.32979" lon="2.15839">
        <ele>148.270299</ele>
        <time>2025-06-19T06:40:26.512Z</time>
      </trkpt>
      <trkpt lat="49.32977" lon="2.15856">
        <ele>147.969927</ele>
        <time>2025-06-19T06:40:28.515Z</time>
      </trkpt>
      <trkpt lat="49.32975" lon="2.15873">
        <ele>147.674517</ele>
        <time>2025-06-19T06:40:30.511Z</time>
      </trkpt>
      <trkpt lat="49.32973" lon="2.15891">
        <ele>147.364674</ele>
        <time>2025-06-19T06:40:32.512Z</time>
      </trkpt>
      <trkpt lat="49.3297" lon="2.1591">
        <ele>147.035194</ele>
        <time>2025-06-19T06:40:34.509Z</time>
      </trkpt>
      <trkpt lat="49.32967" lon="2.1593">
        <ele>146.702871</ele>
        <time>2025-06-19T06:40:36.513Z</time>
      </trkpt>
      <trkpt lat="49.32965" lon="2.1595">
        <ele>146.361792</ele>
        <time>2025-06-19T06:40:38.521Z</time>
      </trkpt>
      <trkpt lat="49.32963" lon="2.1597">
        <ele>146.020714</ele>
        <time>2025-06-19T06:40:40.517Z</time>
      </trkpt>
      <trkpt lat="49.3296" lon="2.15991">
        <ele>145.659459</ele>
        <time>2025-06-19T06:40:42.512Z</time>
      </trkpt>
      <trkpt lat="49.32957" lon="2.16012">
        <ele>145.287779</ele>
        <time>2025-06-19T06:40:44.521Z</time>
      </trkpt>
      <trkpt lat="49.32954" lon="2.16033">
        <ele>144.931314</ele>
        <time>2025-06-19T06:40:46.517Z</time>
      </trkpt>
      <trkpt lat="49.32952" lon="2.16055">
        <ele>144.55449</ele>
        <time>2025-06-19T06:40:48.510Z</time>
      </trkpt>
      <trkpt lat="49.32949" lon="2.16078">
        <ele>144.161811</ele>
        <time>2025-06-19T06:40:50.509Z</time>
      </trkpt>
      <trkpt lat="49.32946" lon="2.16101">
        <ele>143.753807</ele>
        <time>2025-06-19T06:40:52.512Z</time>
      </trkpt>
      <trkpt lat="49.32943" lon="2.16124">
        <ele>143.353943</ele>
        <time>2025-06-19T06:40:54.505Z</time>
      </trkpt>
      <trkpt lat="49.3294" lon="2.16147">
        <ele>142.947928</ele>
        <time>2025-06-19T06:40:56.512Z</time>
      </trkpt>
      <trkpt lat="49.32938" lon="2.1617">
        <ele>142.539467</ele>
        <time>2025-06-19T06:40:58.519Z</time>
      </trkpt>
      <trkpt lat="49.32935" lon="2.16194">
        <ele>142.113756</ele>
        <time>2025-06-19T06:41:00.516Z</time>
      </trkpt>
      <trkpt lat="49.32932" lon="2.16218">
        <ele>141.679267</ele>
        <time>2025-06-19T06:41:02.524Z</time>
      </trkpt>
      <trkpt lat="49.32929" lon="2.16243">
        <ele>141.241846</ele>
        <time>2025-06-19T06:41:04.516Z</time>
      </trkpt>
      <trkpt lat="49.32926" lon="2.16267">
        <ele>140.802708</ele>
        <time>2025-06-19T06:41:06.524Z</time>
      </trkpt>
      <trkpt lat="49.32923" lon="2.16291">
        <ele>140.380739</ele>
        <time>2025-06-19T06:41:08.514Z</time>
      </trkpt>
      <trkpt lat="49.32921" lon="2.16315">
        <ele>139.953298</ele>
        <time>2025-06-19T06:41:10.509Z</time>
      </trkpt>
      <trkpt lat="49.32918" lon="2.16341">
        <ele>139.498685</ele>
        <time>2025-06-19T06:41:12.524Z</time>
      </trkpt>
      <trkpt lat="49.32915" lon="2.16367">
        <ele>139.040107</ele>
        <time>2025-06-19T06:41:14.509Z</time>
      </trkpt>
      <trkpt lat="49.32912" lon="2.16393">
        <ele>138.618615</ele>
        <time>2025-06-19T06:41:16.533Z</time>
      </trkpt>
      <trkpt lat="49.3291" lon="2.16407">
        <ele>138.397343</ele>
        <time>2025-06-19T06:41:17.515Z</time>
      </trkpt>
      <trkpt lat="49.32908" lon="2.16421">
        <ele>138.179179</ele>
        <time>2025-06-19T06:41:18.510Z</time>
      </trkpt>
      <trkpt lat="49.32905" lon="2.16447">
        <ele>137.747694</ele>
        <time>2025-06-19T06:41:20.508Z</time>
      </trkpt>
      <trkpt lat="49.32903" lon="2.16461">
        <ele>137.529141</ele>
        <time>2025-06-19T06:41:21.530Z</time>
      </trkpt>
      <trkpt lat="49.32901" lon="2.16475">
        <ele>137.303205</ele>
        <time>2025-06-19T06:41:22.515Z</time>
      </trkpt>
      <trkpt lat="49.329" lon="2.16489">
        <ele>137.081933</ele>
        <time>2025-06-19T06:41:23.510Z</time>
      </trkpt>
      <trkpt lat="49.32898" lon="2.16503">
        <ele>136.852016</ele>
        <time>2025-06-19T06:41:24.519Z</time>
      </trkpt>
      <trkpt lat="49.32896" lon="2.16518">
        <ele>136.620548</ele>
        <time>2025-06-19T06:41:25.512Z</time>
      </trkpt>
      <trkpt lat="49.32894" lon="2.16532">
        <ele>136.389944</ele>
        <time>2025-06-19T06:41:26.513Z</time>
      </trkpt>
      <trkpt lat="49.32893" lon="2.16546">
        <ele>136.157367</ele>
        <time>2025-06-19T06:41:27.526Z</time>
      </trkpt>
      <trkpt lat="49.32891" lon="2.16561">
        <ele>135.920128</ele>
        <time>2025-06-19T06:41:28.522Z</time>
      </trkpt>
      <trkpt lat="49.32889" lon="2.16576">
        <ele>135.687109</ele>
        <time>2025-06-19T06:41:29.536Z</time>
      </trkpt>
      <trkpt lat="49.32888" lon="2.1659">
        <ele>135.456505</ele>
        <time>2025-06-19T06:41:30.526Z</time>
      </trkpt>
      <trkpt lat="49.32886" lon="2.16604">
        <ele>135.232784</ele>
        <time>2025-06-19T06:41:31.518Z</time>
      </trkpt>
      <trkpt lat="49.32884" lon="2.16618">
        <ele>135.005996</ele>
        <time>2025-06-19T06:41:32.512Z</time>
      </trkpt>
      <trkpt lat="49.32883" lon="2.16632">
        <ele>134.776821</ele>
        <time>2025-06-19T06:41:33.524Z</time>
      </trkpt>
      <trkpt lat="49.32882" lon="2.16646">
        <ele>134.972122</ele>
        <time>2025-06-19T06:41:34.523Z</time>
      </trkpt>
      <trkpt lat="49.32879" lon="2.16672">
        <ele>135.549555</ele>
        <time>2025-06-19T06:41:36.520Z</time>
      </trkpt>
      <trkpt lat="49.32877" lon="2.16695">
        <ele>136.051481</ele>
        <time>2025-06-19T06:41:38.515Z</time>
      </trkpt>
      <trkpt lat="49.32877" lon="2.16716">
        <ele>136.522482</ele>
        <time>2025-06-19T06:41:40.511Z</time>
      </trkpt>
      <trkpt lat="49.32877" lon="2.16736">
        <ele>136.960438</ele>
        <time>2025-06-19T06:41:42.518Z</time>
      </trkpt>
      <trkpt lat="49.32878" lon="2.16755">
        <ele>137.365876</ele>
        <time>2025-06-19T06:41:44.516Z</time>
      </trkpt>
      <trkpt lat="49.32879" lon="2.16772">
        <ele>137.742973</ele>
        <time>2025-06-19T06:41:46.523Z</time>
      </trkpt>
      <trkpt lat="49.32881" lon="2.16788">
        <ele>138.093885</ele>
        <time>2025-06-19T06:41:48.525Z</time>
      </trkpt>
      <trkpt lat="49.32881" lon="2.16802">
        <ele>138.422642</ele>
        <time>2025-06-19T06:41:50.512Z</time>
      </trkpt>
      <trkpt lat="49.32883" lon="2.16817">
        <ele>138.744509</ele>
        <time>2025-06-19T06:41:52.524Z</time>
      </trkpt>
      <trkpt lat="49.32885" lon="2.16836">
        <ele>139.172409</ele>
        <time>2025-06-19T06:41:55.527Z</time>
      </trkpt>
      <trkpt lat="49.32888" lon="2.16855">
        <ele>139.607543</ele>
        <time>2025-06-19T06:41:58.527Z</time>
      </trkpt>
      <trkpt lat="49.32891" lon="2.16874">
        <ele>140.02118</ele>
        <time>2025-06-19T06:42:01.521Z</time>
      </trkpt>
      <trkpt lat="49.32893" lon="2.1689">
        <ele>140.398969</ele>
        <time>2025-06-19T06:42:04.518Z</time>
      </trkpt>
      <trkpt lat="49.32896" lon="2.16907">
        <ele>140.781901</ele>
        <time>2025-06-19T06:42:07.521Z</time>
      </trkpt>
      <trkpt lat="49.32899" lon="2.16924">
        <ele>141.344903</ele>
        <time>2025-06-19T06:42:10.520Z</time>
      </trkpt>
      <trkpt lat="49.32903" lon="2.16939">
        <ele>141.908008</ele>
        <time>2025-06-19T06:42:13.524Z</time>
      </trkpt>
      <trkpt lat="49.32908" lon="2.16954">
        <ele>142.461483</ele>
        <time>2025-06-19T06:42:16.507Z</time>
      </trkpt>
      <trkpt lat="49.32912" lon="2.16969">
        <ele>143.016639</ele>
        <time>2025-06-19T06:42:19.511Z</time>
      </trkpt>
      <trkpt lat="49.32917" lon="2.16985">
        <ele>143.609927</ele>
        <time>2025-06-19T06:42:22.518Z</time>
      </trkpt>
      <trkpt lat="49.32922" lon="2.17001">
        <ele>144.176921</ele>
        <time>2025-06-19T06:42:25.520Z</time>
      </trkpt>
      <trkpt lat="49.32926" lon="2.17015">
        <ele>144.696211</ele>
        <time>2025-06-19T06:42:28.513Z</time>
      </trkpt>
      <trkpt lat="49.32921" lon="2.1703">
        <ele>145.26189</ele>
        <time>2025-06-19T06:42:32.510Z</time>
      </trkpt>
      <trkpt lat="49.32912" lon="2.17027">
        <ele>145.758829</ele>
        <time>2025-06-19T06:42:35.500Z</time>
      </trkpt>
      <trkpt lat="49.32902" lon="2.17022">
        <ele>146.281715</ele>
        <time>2025-06-19T06:42:38.514Z</time>
      </trkpt>
      <trkpt lat="49.32893" lon="2.17017">
        <ele>146.764605</ele>
        <time>2025-06-19T06:42:41.516Z</time>
      </trkpt>
      <trkpt lat="49.32883" lon="2.1701">
        <ele>147.326677</ele>
        <time>2025-06-19T06:42:45.510Z</time>
      </trkpt>
      <trkpt lat="49.32875" lon="2.17004">
        <ele>147.795974</ele>
        <time>2025-06-19T06:42:49.518Z</time>
      </trkpt>
      <trkpt lat="49.32865" lon="2.16997">
        <ele>148.376073</ele>
        <time>2025-06-19T06:43:16.516Z</time>
      </trkpt>
      <trkpt lat="49.32856" lon="2.1699">
        <ele>148.846555</ele>
        <time>2025-06-19T06:43:21.516Z</time>
      </trkpt>
      <trkpt lat="49.32848" lon="2.16983">
        <ele>149.344157</ele>
        <time>2025-06-19T06:43:25.514Z</time>
      </trkpt>
      <trkpt lat="49.32838" lon="2.16974">
        <ele>149.927445</ele>
        <time>2025-06-19T06:43:29.523Z</time>
      </trkpt>
      <trkpt lat="49.32829" lon="2.16966">
        <ele>150.216151</ele>
        <time>2025-06-19T06:43:33.514Z</time>
      </trkpt>
      <trkpt lat="49.3282" lon="2.16959">
        <ele>150.430459</ele>
        <time>2025-06-19T06:43:36.520Z</time>
      </trkpt>
      <trkpt lat="49.32811" lon="2.1695">
        <ele>150.656488</ele>
        <time>2025-06-19T06:43:39.519Z</time>
      </trkpt>
      <trkpt lat="49.32802" lon="2.16942">
        <ele>150.884701</ele>
        <time>2025-06-19T06:43:42.518Z</time>
      </trkpt>
      <trkpt lat="49.32793" lon="2.16934">
        <ele>151.12441</ele>
        <time>2025-06-19T06:43:45.519Z</time>
      </trkpt>
      <trkpt lat="49.32783" lon="2.16925">
        <ele>151.375473</ele>
        <time>2025-06-19T06:43:48.524Z</time>
      </trkpt>
      <trkpt lat="49.32772" lon="2.16917">
        <ele>151.637148</ele>
        <time>2025-06-19T06:43:51.520Z</time>
      </trkpt>
      <trkpt lat="49.3276" lon="2.16911">
        <ele>151.901044</ele>
        <time>2025-06-19T06:43:54.515Z</time>
      </trkpt>
      <trkpt lat="49.32747" lon="2.1691">
        <ele>152.178054</ele>
        <time>2025-06-19T06:43:57.521Z</time>
      </trkpt>
      <trkpt lat="49.32738" lon="2.16911">
        <ele>152.373018</ele>
        <time>2025-06-19T06:43:59.510Z</time>
      </trkpt>
      <trkpt lat="49.32729" lon="2.16912">
        <ele>152.568098</ele>
        <time>2025-06-19T06:44:01.514Z</time>
      </trkpt>
      <trkpt lat="49.32717" lon="2.16915">
        <ele>152.838958</ele>
        <time>2025-06-19T06:44:04.518Z</time>
      </trkpt>
      <trkpt lat="49.32705" lon="2.16918">
        <ele>153.102217</ele>
        <time>2025-06-19T06:44:07.525Z</time>
      </trkpt>
      <trkpt lat="49.32693" lon="2.1692">
        <ele>153.357789</ele>
        <time>2025-06-19T06:44:10.511Z</time>
      </trkpt>
      <trkpt lat="49.32681" lon="2.16918">
        <ele>153.613474</ele>
        <time>2025-06-19T06:44:13.516Z</time>
      </trkpt>
      <trkpt lat="49.32671" lon="2.16916">
        <ele>153.838444</ele>
        <time>2025-06-19T06:44:16.509Z</time>
      </trkpt>
      <trkpt lat="49.32661" lon="2.16911">
        <ele>153.689269</ele>
        <time>2025-06-19T06:44:19.519Z</time>
      </trkpt>
      <trkpt lat="49.3265" lon="2.16905">
        <ele>153.318169</ele>
        <time>2025-06-19T06:44:22.506Z</time>
      </trkpt>
      <trkpt lat="49.32639" lon="2.16898">
        <ele>152.943067</ele>
        <time>2025-06-19T06:44:25.516Z</time>
      </trkpt>
      <trkpt lat="49.3263" lon="2.16889">
        <ele>152.579266</ele>
        <time>2025-06-19T06:44:28.507Z</time>
      </trkpt>
      <trkpt lat="49.3262" lon="2.16881">
        <ele>152.211983</ele>
        <time>2025-06-19T06:44:31.512Z</time>
      </trkpt>
      <trkpt lat="49.3261" lon="2.16871">
        <ele>151.836631</ele>
        <time>2025-06-19T06:44:34.520Z</time>
      </trkpt>
      <trkpt lat="49.32599" lon="2.16861">
        <ele>151.421128</ele>
        <time>2025-06-19T06:44:37.521Z</time>
      </trkpt>
      <trkpt lat="49.32591" lon="2.16854">
        <ele>151.117852</ele>
        <time>2025-06-19T06:44:39.530Z</time>
      </trkpt>
      <trkpt lat="49.32582" lon="2.16846">
        <ele>150.786196</ele>
        <time>2025-06-19T06:44:41.510Z</time>
      </trkpt>
      <trkpt lat="49.32573" lon="2.16838">
        <ele>150.441642</ele>
        <time>2025-06-19T06:44:43.517Z</time>
      </trkpt>
      <trkpt lat="49.32563" lon="2.16829">
        <ele>150.085896</ele>
        <time>2025-06-19T06:44:45.518Z</time>
      </trkpt>
      <trkpt lat="49.32553" lon="2.16821">
        <ele>149.727636</ele>
        <time>2025-06-19T06:44:47.527Z</time>
      </trkpt>
      <trkpt lat="49.32544" lon="2.16811">
        <ele>149.373474</ele>
        <time>2025-06-19T06:44:49.519Z</time>
      </trkpt>
      <trkpt lat="49.32536" lon="2.16801">
        <ele>149.041491</ele>
        <time>2025-06-19T06:44:51.512Z</time>
      </trkpt>
      <trkpt lat="49.32529" lon="2.1679">
        <ele>148.711974</ele>
        <time>2025-06-19T06:44:53.510Z</time>
      </trkpt>
      <trkpt lat="49.32522" lon="2.1678">
        <ele>148.39823</ele>
        <time>2025-06-19T06:44:55.521Z</time>
      </trkpt>
      <trkpt lat="49.32516" lon="2.16769">
        <ele>148.112535</ele>
        <time>2025-06-19T06:44:57.513Z</time>
      </trkpt>
      <trkpt lat="49.32509" lon="2.16758">
        <ele>148.207048</ele>
        <time>2025-06-19T06:44:59.518Z</time>
      </trkpt>
      <trkpt lat="49.32502" lon="2.16748">
        <ele>148.292993</ele>
        <time>2025-06-19T06:45:01.512Z</time>
      </trkpt>
      <trkpt lat="49.32494" lon="2.16734">
        <ele>148.414994</ele>
        <time>2025-06-19T06:45:04.518Z</time>
      </trkpt>
      <trkpt lat="49.32485" lon="2.1672">
        <ele>148.533286</ele>
        <time>2025-06-19T06:45:07.513Z</time>
      </trkpt>
      <trkpt lat="49.32476" lon="2.16709">
        <ele>148.639884</ele>
        <time>2025-06-19T06:45:10.515Z</time>
      </trkpt>
      <trkpt lat="49.32468" lon="2.16697">
        <ele>148.746348</ele>
        <time>2025-06-19T06:45:13.507Z</time>
      </trkpt>
      <trkpt lat="49.3246" lon="2.16686">
        <ele>148.849799</ele>
        <time>2025-06-19T06:45:16.505Z</time>
      </trkpt>
      <trkpt lat="49.32451" lon="2.16676">
        <ele>148.947841</ele>
        <time>2025-06-19T06:45:19.516Z</time>
      </trkpt>
      <trkpt lat="49.32442" lon="2.16665">
        <ele>149.056759</ele>
        <time>2025-06-19T06:45:23.504Z</time>
      </trkpt>
      <trkpt lat="49.32434" lon="2.16656">
        <ele>149.155732</ele>
        <time>2025-06-19T06:45:27.512Z</time>
      </trkpt>
      <trkpt lat="49.32423" lon="2.16656">
        <ele>149.254779</ele>
        <time>2025-06-19T06:45:31.513Z</time>
      </trkpt>
      <trkpt lat="49.32414" lon="2.16658">
        <ele>149.346427</ele>
        <time>2025-06-19T06:45:35.508Z</time>
      </trkpt>
      <trkpt lat="49.32404" lon="2.16659">
        <ele>149.438995</ele>
        <time>2025-06-19T06:45:38.511Z</time>
      </trkpt>
      <trkpt lat="49.32393" lon="2.16659">
        <ele>149.542767</ele>
        <time>2025-06-19T06:45:41.511Z</time>
      </trkpt>
      <trkpt lat="49.32382" lon="2.16659">
        <ele>149.646525</ele>
        <time>2025-06-19T06:45:44.514Z</time>
      </trkpt>
      <trkpt lat="49.32371" lon="2.1666">
        <ele>149.751289</ele>
        <time>2025-06-19T06:45:47.525Z</time>
      </trkpt>
      <trkpt lat="49.3236" lon="2.1666">
        <ele>150.104661</ele>
        <time>2025-06-19T06:45:50.510Z</time>
      </trkpt>
      <trkpt lat="49.32349" lon="2.16661">
        <ele>150.725374</ele>
        <time>2025-06-19T06:45:53.515Z</time>
      </trkpt>
      <trkpt lat="49.32338" lon="2.16663">
        <ele>151.381709</ele>
        <time>2025-06-19T06:45:56.512Z</time>
      </trkpt>
      <trkpt lat="49.32327" lon="2.16663">
        <ele>152.042289</ele>
        <time>2025-06-19T06:45:59.509Z</time>
      </trkpt>
      <trkpt lat="49.32315" lon="2.16663">
        <ele>152.702868</ele>
        <time>2025-06-19T06:46:02.510Z</time>
      </trkpt>
      <trkpt lat="49.32304" lon="2.16663">
        <ele>153.346199</ele>
        <time>2025-06-19T06:46:05.510Z</time>
      </trkpt>
      <trkpt lat="49.32292" lon="2.16661">
        <ele>154.046448</ele>
        <time>2025-06-19T06:46:08.509Z</time>
      </trkpt>
      <trkpt lat="49.3228" lon="2.16661">
        <ele>154.730171</ele>
        <time>2025-06-19T06:46:11.506Z</time>
      </trkpt>
      <trkpt lat="49.32269" lon="2.1666">
        <ele>155.373602</ele>
        <time>2025-06-19T06:46:14.506Z</time>
      </trkpt>
      <trkpt lat="49.32258" lon="2.16659">
        <ele>156.046787</ele>
        <time>2025-06-19T06:46:17.508Z</time>
      </trkpt>
      <trkpt lat="49.32246" lon="2.16658">
        <ele>156.716204</ele>
        <time>2025-06-19T06:46:20.516Z</time>
      </trkpt>
      <trkpt lat="49.32235" lon="2.16656">
        <ele>157.392992</ele>
        <time>2025-06-19T06:46:23.516Z</time>
      </trkpt>
      <trkpt lat="49.32223" lon="2.16653">
        <ele>158.043039</ele>
        <time>2025-06-19T06:46:26.509Z</time>
      </trkpt>
      <trkpt lat="49.32213" lon="2.16651">
        <ele>158.68055</ele>
        <time>2025-06-19T06:46:29.515Z</time>
      </trkpt>
      <trkpt lat="49.32201" lon="2.16649">
        <ele>159.345391</ele>
        <time>2025-06-19T06:46:32.508Z</time>
      </trkpt>
      <trkpt lat="49.32191" lon="2.16647">
        <ele>159.964201</ele>
        <time>2025-06-19T06:46:35.527Z</time>
      </trkpt>
      <trkpt lat="49.3218" lon="2.16645">
        <ele>160.48009</ele>
        <time>2025-06-19T06:46:38.508Z</time>
      </trkpt>
      <trkpt lat="49.32169" lon="2.16643">
        <ele>160.965372</ele>
        <time>2025-06-19T06:46:41.508Z</time>
      </trkpt>
      <trkpt lat="49.32159" lon="2.16641">
        <ele>161.430132</ele>
        <time>2025-06-19T06:46:44.505Z</time>
      </trkpt>
      <trkpt lat="49.32149" lon="2.16639">
        <ele>161.868303</ele>
        <time>2025-06-19T06:46:47.508Z</time>
      </trkpt>
      <trkpt lat="49.32139" lon="2.16637">
        <ele>162.305778</ele>
        <time>2025-06-19T06:46:50.510Z</time>
      </trkpt>
      <trkpt lat="49.32128" lon="2.16635">
        <ele>162.756202</ele>
        <time>2025-06-19T06:46:53.521Z</time>
      </trkpt>
      <trkpt lat="49.32118" lon="2.16633">
        <ele>163.199054</ele>
        <time>2025-06-19T06:46:56.515Z</time>
      </trkpt>
      <trkpt lat="49.32108" lon="2.16631">
        <ele>163.6556</ele>
        <time>2025-06-19T06:46:59.519Z</time>
      </trkpt>
      <trkpt lat="49.32097" lon="2.16629">
        <ele>164.118977</ele>
        <time>2025-06-19T06:47:02.512Z</time>
      </trkpt>
      <trkpt lat="49.32087" lon="2.16628">
        <ele>164.550951</ele>
        <time>2025-06-19T06:47:05.509Z</time>
      </trkpt>
      <trkpt lat="49.32077" lon="2.16627">
        <ele>164.977358</ele>
        <time>2025-06-19T06:47:08.507Z</time>
      </trkpt>
      <trkpt lat="49.32068" lon="2.16626">
        <ele>165.400186</ele>
        <time>2025-06-19T06:47:11.507Z</time>
      </trkpt>
      <trkpt lat="49.32058" lon="2.16625">
        <ele>165.809092</ele>
        <time>2025-06-19T06:47:14.515Z</time>
      </trkpt>
      <trkpt lat="49.32049" lon="2.16626">
        <ele>166.231018</ele>
        <time>2025-06-19T06:47:17.518Z</time>
      </trkpt>
      <trkpt lat="49.32039" lon="2.16627">
        <ele>166.645427</ele>
        <time>2025-06-19T06:47:20.510Z</time>
      </trkpt>
      <trkpt lat="49.32027" lon="2.16628">
        <ele>167.158913</ele>
        <time>2025-06-19T06:47:24.513Z</time>
      </trkpt>
      <trkpt lat="49.32016" lon="2.16629">
        <ele>167.659937</ele>
        <time>2025-06-19T06:47:28.506Z</time>
      </trkpt>
      <trkpt lat="49.32004" lon="2.16631">
        <ele>168.153488</ele>
        <time>2025-06-19T06:47:32.507Z</time>
      </trkpt>
      <trkpt lat="49.31993" lon="2.16633">
        <ele>168.59587</ele>
        <time>2025-06-19T06:47:36.511Z</time>
      </trkpt>
      <trkpt lat="49.31982" lon="2.16634">
        <ele>169.025286</ele>
        <time>2025-06-19T06:47:40.519Z</time>
      </trkpt>
      <trkpt lat="49.31971" lon="2.16635">
        <ele>169.449916</ele>
        <time>2025-06-19T06:47:44.514Z</time>
      </trkpt>
      <trkpt lat="49.3196" lon="2.16633">
        <ele>169.867873</ele>
        <time>2025-06-19T06:47:48.512Z</time>
      </trkpt>
      <trkpt lat="49.3195" lon="2.16629">
        <ele>170.289773</ele>
        <time>2025-06-19T06:47:52.506Z</time>
      </trkpt>
      <trkpt lat="49.3194" lon="2.16624">
        <ele>170.705222</ele>
        <time>2025-06-19T06:47:56.526Z</time>
      </trkpt>
      <trkpt lat="49.31929" lon="2.16617">
        <ele>171.143892</ele>
        <time>2025-06-19T06:48:00.511Z</time>
      </trkpt>
      <trkpt lat="49.3192" lon="2.16608">
        <ele>171.587365</ele>
        <time>2025-06-19T06:48:04.523Z</time>
      </trkpt>
      <trkpt lat="49.3191" lon="2.16598">
        <ele>172.048069</ele>
        <time>2025-06-19T06:48:08.515Z</time>
      </trkpt>
      <trkpt lat="49.319" lon="2.1659">
        <ele>172.472954</ele>
        <time>2025-06-19T06:48:12.514Z</time>
      </trkpt>
      <trkpt lat="49.31891" lon="2.1658">
        <ele>172.924804</ele>
        <time>2025-06-19T06:48:16.500Z</time>
      </trkpt>
      <trkpt lat="49.31881" lon="2.1657">
        <ele>173.372926</ele>
        <time>2025-06-19T06:48:20.502Z</time>
      </trkpt>
      <trkpt lat="49.31871" lon="2.1656">
        <ele>173.836363</ele>
        <time>2025-06-19T06:48:24.512Z</time>
      </trkpt>
      <trkpt lat="49.31864" lon="2.16552">
        <ele>174.188623</ele>
        <time>2025-06-19T06:48:27.520Z</time>
      </trkpt>
      <trkpt lat="49.31856" lon="2.16544">
        <ele>174.542884</ele>
        <time>2025-06-19T06:48:30.511Z</time>
      </trkpt>
      <trkpt lat="49.31847" lon="2.16535">
        <ele>174.977063</ele>
        <time>2025-06-19T06:48:34.508Z</time>
      </trkpt>
      <trkpt lat="49.31838" lon="2.16525">
        <ele>175.486796</ele>
        <time>2025-06-19T06:48:38.506Z</time>
      </trkpt>
      <trkpt lat="49.3183" lon="2.16515">
        <ele>175.989067</ele>
        <time>2025-06-19T06:48:42.511Z</time>
      </trkpt>
      <trkpt lat="49.31821" lon="2.16506">
        <ele>176.491123</ele>
        <time>2025-06-19T06:48:46.526Z</time>
      </trkpt>
      <trkpt lat="49.31812" lon="2.16496">
        <ele>176.9952</ele>
        <time>2025-06-19T06:48:50.505Z</time>
      </trkpt>
      <trkpt lat="49.31804" lon="2.16487">
        <ele>177.478299</ele>
        <time>2025-06-19T06:48:54.511Z</time>
      </trkpt>
      <trkpt lat="49.31796" lon="2.16477">
        <ele>177.999131</ele>
        <time>2025-06-19T06:48:58.518Z</time>
      </trkpt>
      <trkpt lat="49.31786" lon="2.16467">
        <ele>178.533656</ele>
        <time>2025-06-19T06:49:02.509Z</time>
      </trkpt>
      <trkpt lat="49.31778" lon="2.16456">
        <ele>179.065844</ele>
        <time>2025-06-19T06:49:06.505Z</time>
      </trkpt>
      <trkpt lat="49.31768" lon="2.16445">
        <ele>179.62066</ele>
        <time>2025-06-19T06:49:10.507Z</time>
      </trkpt>
      <trkpt lat="49.3176" lon="2.16434">
        <ele>180.158643</ele>
        <time>2025-06-19T06:49:14.511Z</time>
      </trkpt>
      <trkpt lat="49.3175" lon="2.16424">
        <ele>180.7081</ele>
        <time>2025-06-19T06:49:18.510Z</time>
      </trkpt>
      <trkpt lat="49.31741" lon="2.16414">
        <ele>181.244766</ele>
        <time>2025-06-19T06:49:22.516Z</time>
      </trkpt>
      <trkpt lat="49.31732" lon="2.16405">
        <ele>181.771817</ele>
        <time>2025-06-19T06:49:26.506Z</time>
      </trkpt>
      <trkpt lat="49.31722" lon="2.16396">
        <ele>182.303755</ele>
        <time>2025-06-19T06:49:30.511Z</time>
      </trkpt>
      <trkpt lat="49.31712" lon="2.16389">
        <ele>182.835256</ele>
        <time>2025-06-19T06:49:34.519Z</time>
      </trkpt>
      <trkpt lat="49.31701" lon="2.16383">
        <ele>183.372671</ele>
        <time>2025-06-19T06:49:38.510Z</time>
      </trkpt>
      <trkpt lat="49.31691" lon="2.16378">
        <ele>184.013202</ele>
        <time>2025-06-19T06:49:42.515Z</time>
      </trkpt>
      <trkpt lat="49.3168" lon="2.16373">
        <ele>184.739162</ele>
        <time>2025-06-19T06:49:46.506Z</time>
      </trkpt>
      <trkpt lat="49.3167" lon="2.16369">
        <ele>185.432721</ele>
        <time>2025-06-19T06:49:50.515Z</time>
      </trkpt>
      <trkpt lat="49.3166" lon="2.16363">
        <ele>186.125076</ele>
        <time>2025-06-19T06:49:54.518Z</time>
      </trkpt>
      <trkpt lat="49.3165" lon="2.16359">
        <ele>186.814439</ele>
        <time>2025-06-19T06:49:58.507Z</time>
      </trkpt>
      <trkpt lat="49.31641" lon="2.16354">
        <ele>187.46636</ele>
        <time>2025-06-19T06:50:02.508Z</time>
      </trkpt>
      <trkpt lat="49.31632" lon="2.16349">
        <ele>188.100755</ele>
        <time>2025-06-19T06:50:06.504Z</time>
      </trkpt>
      <trkpt lat="49.31623" lon="2.16345">
        <ele>188.734242</ele>
        <time>2025-06-19T06:50:10.511Z</time>
      </trkpt>
      <trkpt lat="49.31614" lon="2.16341">
        <ele>189.349643</ele>
        <time>2025-06-19T06:50:14.505Z</time>
      </trkpt>
      <trkpt lat="49.31605" lon="2.16335">
        <ele>189.995399</ele>
        <time>2025-06-19T06:50:18.506Z</time>
      </trkpt>
      <trkpt lat="49.31595" lon="2.1633">
        <ele>190.725424</ele>
        <time>2025-06-19T06:50:23.510Z</time>
      </trkpt>
      <trkpt lat="49.31584" lon="2.16325">
        <ele>191.473028</ele>
        <time>2025-06-19T06:50:28.521Z</time>
      </trkpt>
      <trkpt lat="49.31575" lon="2.16321">
        <ele>192.092548</ele>
        <time>2025-06-19T06:50:32.506Z</time>
      </trkpt>
      <trkpt lat="49.31566" lon="2.16316">
        <ele>192.713541</ele>
        <time>2025-06-19T06:50:36.507Z</time>
      </trkpt>
      <trkpt lat="49.31558" lon="2.16312">
        <ele>193.311055</ele>
        <time>2025-06-19T06:50:40.504Z</time>
      </trkpt>
      <trkpt lat="49.31547" lon="2.16307">
        <ele>194.029366</ele>
        <time>2025-06-19T06:50:45.506Z</time>
      </trkpt>
      <trkpt lat="49.31537" lon="2.16303">
        <ele>194.771243</ele>
        <time>2025-06-19T06:50:50.515Z</time>
      </trkpt>
      <trkpt lat="49.31528" lon="2.16298">
        <ele>195.40967</ele>
        <time>2025-06-19T06:50:54.517Z</time>
      </trkpt>
      <trkpt lat="49.31519" lon="2.16292">
        <ele>195.817847</ele>
        <time>2025-06-19T06:50:58.512Z</time>
      </trkpt>
      <trkpt lat="49.31509" lon="2.16287">
        <ele>196.190989</ele>
        <time>2025-06-19T06:51:03.509Z</time>
      </trkpt>
      <trkpt lat="49.315" lon="2.16281">
        <ele>196.520088</ele>
        <time>2025-06-19T06:51:07.504Z</time>
      </trkpt>
      <trkpt lat="49.31492" lon="2.16275">
        <ele>196.846483</ele>
        <time>2025-06-19T06:51:11.512Z</time>
      </trkpt>
      <trkpt lat="49.31482" lon="2.16267">
        <ele>197.235048</ele>
        <time>2025-06-19T06:51:16.508Z</time>
      </trkpt>
      <trkpt lat="49.31473" lon="2.1626">
        <ele>197.585453</ele>
        <time>2025-06-19T06:51:20.514Z</time>
      </trkpt>
      <trkpt lat="49.31464" lon="2.16253">
        <ele>197.946515</ele>
        <time>2025-06-19T06:51:24.501Z</time>
      </trkpt>
      <trkpt lat="49.31456" lon="2.16246">
        <ele>198.288401</ele>
        <time>2025-06-19T06:51:28.515Z</time>
      </trkpt>
      <trkpt lat="49.31446" lon="2.16239">
        <ele>198.658655</ele>
        <time>2025-06-19T06:51:33.525Z</time>
      </trkpt>
      <trkpt lat="49.31436" lon="2.1623">
        <ele>199.063615</ele>
        <time>2025-06-19T06:51:38.523Z</time>
      </trkpt>
      <trkpt lat="49.31428" lon="2.16222">
        <ele>199.404704</ele>
        <time>2025-06-19T06:51:42.516Z</time>
      </trkpt>
      <trkpt lat="49.31419" lon="2.16213">
        <ele>199.772722</ele>
        <time>2025-06-19T06:51:46.515Z</time>
      </trkpt>
      <trkpt lat="49.31411" lon="2.16206">
        <ele>200.102488</ele>
        <time>2025-06-19T06:51:50.507Z</time>
      </trkpt>
      <trkpt lat="49.31404" lon="2.16199">
        <ele>200.422062</ele>
        <time>2025-06-19T06:51:54.507Z</time>
      </trkpt>
      <trkpt lat="49.31396" lon="2.16191">
        <ele>200.742539</ele>
        <time>2025-06-19T06:51:58.509Z</time>
      </trkpt>
      <trkpt lat="49.31387" lon="2.1618">
        <ele>201.139453</ele>
        <time>2025-06-19T06:52:03.519Z</time>
      </trkpt>
      <trkpt lat="49.31379" lon="2.16171">
        <ele>201.487447</ele>
        <time>2025-06-19T06:52:07.522Z</time>
      </trkpt>
      <trkpt lat="49.31371" lon="2.16162">
        <ele>201.838416</ele>
        <time>2025-06-19T06:52:11.512Z</time>
      </trkpt>
      <trkpt lat="49.31363" lon="2.16153">
        <ele>202.363787</ele>
        <time>2025-06-19T06:52:15.514Z</time>
      </trkpt>
      <trkpt lat="49.31354" lon="2.16144">
        <ele>202.909717</ele>
        <time>2025-06-19T06:52:19.516Z</time>
      </trkpt>
      <trkpt lat="49.31345" lon="2.16135">
        <ele>203.516957</ele>
        <time>2025-06-19T06:52:24.511Z</time>
      </trkpt>
      <trkpt lat="49.31337" lon="2.16126">
        <ele>204.029209</ele>
        <time>2025-06-19T06:52:28.507Z</time>
      </trkpt>
      <trkpt lat="49.31329" lon="2.16113">
        <ele>204.65973</ele>
        <time>2025-06-19T06:52:32.503Z</time>
      </trkpt>
      <trkpt lat="49.3132" lon="2.16104">
        <ele>205.214767</ele>
        <time>2025-06-19T06:52:36.516Z</time>
      </trkpt>
      <trkpt lat="49.31312" lon="2.16096">
        <ele>205.728043</ele>
        <time>2025-06-19T06:52:40.514Z</time>
      </trkpt>
      <trkpt lat="49.31304" lon="2.16086">
        <ele>206.282568</ele>
        <time>2025-06-19T06:52:44.509Z</time>
      </trkpt>
      <trkpt lat="49.31295" lon="2.16077">
        <ele>206.852097</ele>
        <time>2025-06-19T06:52:48.505Z</time>
      </trkpt>
      <trkpt lat="49.31287" lon="2.16068">
        <ele>207.404774</ele>
        <time>2025-06-19T06:52:52.520Z</time>
      </trkpt>
      <trkpt lat="49.31279" lon="2.16059">
        <ele>207.914797</ele>
        <time>2025-06-19T06:52:56.511Z</time>
      </trkpt>
      <trkpt lat="49.31272" lon="2.1605">
        <ele>208.399422</ele>
        <time>2025-06-19T06:53:00.506Z</time>
      </trkpt>
      <trkpt lat="49.31266" lon="2.16038">
        <ele>208.934553</ele>
        <time>2025-06-19T06:53:04.507Z</time>
      </trkpt>
      <trkpt lat="49.31258" lon="2.16027">
        <ele>209.515564</ele>
        <time>2025-06-19T06:53:08.508Z</time>
      </trkpt>
      <trkpt lat="49.3125" lon="2.16016">
        <ele>210.077484</ele>
        <time>2025-06-19T06:53:12.518Z</time>
      </trkpt>
      <trkpt lat="49.31244" lon="2.16004">
        <ele>210.637013</ele>
        <time>2025-06-19T06:53:16.502Z</time>
      </trkpt>
      <trkpt lat="49.31236" lon="2.15991">
        <ele>211.226433</ele>
        <time>2025-06-19T06:53:20.513Z</time>
      </trkpt>
      <trkpt lat="49.3123" lon="2.15981">
        <ele>211.720416</ele>
        <time>2025-06-19T06:53:24.499Z</time>
      </trkpt>
      <trkpt lat="49.31223" lon="2.15968">
        <ele>212.29309</ele>
        <time>2025-06-19T06:53:28.508Z</time>
      </trkpt>
      <trkpt lat="49.31216" lon="2.15957">
        <ele>212.835871</ele>
        <time>2025-06-19T06:53:32.525Z</time>
      </trkpt>
      <trkpt lat="49.31208" lon="2.15947">
        <ele>213.387401</ele>
        <time>2025-06-19T06:53:35.521Z</time>
      </trkpt>
      <trkpt lat="49.31201" lon="2.15935">
        <ele>213.921528</ele>
        <time>2025-06-19T06:53:39.520Z</time>
      </trkpt>
      <trkpt lat="49.31193" lon="2.15924">
        <ele>214.492823</ele>
        <time>2025-06-19T06:53:43.512Z</time>
      </trkpt>
      <trkpt lat="49.31186" lon="2.15913">
        <ele>215.023628</ele>
        <time>2025-06-19T06:53:48.519Z</time>
      </trkpt>
      <trkpt lat="49.31178" lon="2.159">
        <ele>215.642898</ele>
        <time>2025-06-19T06:53:54.514Z</time>
      </trkpt>
      <trkpt lat="49.31171" lon="2.15889">
        <ele>216.143798</ele>
        <time>2025-06-19T06:53:58.510Z</time>
      </trkpt>
      <trkpt lat="49.31165" lon="2.15879">
        <ele>216.621885</ele>
        <time>2025-06-19T06:54:02.512Z</time>
      </trkpt>
      <trkpt lat="49.3116" lon="2.15866">
        <ele>217.132352</ele>
        <time>2025-06-19T06:54:06.518Z</time>
      </trkpt>
      <trkpt lat="49.31153" lon="2.15855">
        <ele>217.662841</ele>
        <time>2025-06-19T06:54:10.510Z</time>
      </trkpt>
      <trkpt lat="49.31147" lon="2.15839">
        <ele>218.314599</ele>
        <time>2025-06-19T06:54:14.522Z</time>
      </trkpt>
      <trkpt lat="49.31142" lon="2.15827">
        <ele>218.811748</ele>
        <time>2025-06-19T06:54:17.515Z</time>
      </trkpt>
      <trkpt lat="49.31138" lon="2.15814">
        <ele>219.308144</ele>
        <time>2025-06-19T06:54:20.502Z</time>
      </trkpt>
      <trkpt lat="49.31133" lon="2.15802">
        <ele>219.801326</ele>
        <time>2025-06-19T06:54:23.506Z</time>
      </trkpt>
      <trkpt lat="49.31126" lon="2.1579">
        <ele>220.341908</ele>
        <time>2025-06-19T06:54:27.517Z</time>
      </trkpt>
      <trkpt lat="49.31116" lon="2.15787">
        <ele>220.862174</ele>
        <time>2025-06-19T06:54:31.509Z</time>
      </trkpt>
      <trkpt lat="49.31108" lon="2.15794">
        <ele>221.160112</ele>
        <time>2025-06-19T06:54:34.505Z</time>
      </trkpt>
      <trkpt lat="49.31104" lon="2.15808">
        <ele>221.376461</ele>
        <time>2025-06-19T06:54:39.520Z</time>
      </trkpt>
      <trkpt lat="49.31109" lon="2.15824">
        <ele>221.623074</ele>
        <time>2025-06-19T06:54:43.501Z</time>
      </trkpt>
      <trkpt lat="49.31114" lon="2.15838">
        <ele>221.847585</ele>
        <time>2025-06-19T06:54:47.506Z</time>
      </trkpt>
      <trkpt lat="49.31119" lon="2.15852">
        <ele>222.090728</ele>
        <time>2025-06-19T06:54:51.520Z</time>
      </trkpt>
      <trkpt lat="49.31125" lon="2.15867">
        <ele>222.33482</ele>
        <time>2025-06-19T06:54:55.509Z</time>
      </trkpt>
      <trkpt lat="49.3113" lon="2.15879">
        <ele>222.549003</ele>
        <time>2025-06-19T06:54:59.508Z</time>
      </trkpt>
      <trkpt lat="49.31137" lon="2.15891">
        <ele>222.773337</ele>
        <time>2025-06-19T06:55:03.506Z</time>
      </trkpt>
      <trkpt lat="49.31142" lon="2.15906">
        <ele>223.012572</ele>
        <time>2025-06-19T06:55:07.520Z</time>
      </trkpt>
      <trkpt lat="49.31146" lon="2.15922">
        <ele>223.262398</ele>
        <time>2025-06-19T06:55:12.521Z</time>
      </trkpt>
      <trkpt lat="49.3115" lon="2.15938">
        <ele>223.5113</ele>
        <time>2025-06-19T06:55:16.516Z</time>
      </trkpt>
      <trkpt lat="49.31156" lon="2.15954">
        <ele>223.774271</ele>
        <time>2025-06-19T06:55:20.502Z</time>
      </trkpt>
      <trkpt lat="49.31162" lon="2.15969">
        <ele>224.01521</ele>
        <time>2025-06-19T06:55:24.514Z</time>
      </trkpt>
      <trkpt lat="49.31167" lon="2.15985">
        <ele>224.275661</ele>
        <time>2025-06-19T06:55:28.518Z</time>
      </trkpt>
      <trkpt lat="49.31171" lon="2.16001">
        <ele>224.524308</ele>
        <time>2025-06-19T06:55:32.509Z</time>
      </trkpt>
      <trkpt lat="49.3117" lon="2.16015">
        <ele>224.723608</ele>
        <time>2025-06-19T06:55:35.507Z</time>
      </trkpt>
      <trkpt lat="49.31163" lon="2.16026">
        <ele>224.952969</ele>
        <time>2025-06-19T06:55:40.509Z</time>
      </trkpt>
      <trkpt lat="49.31153" lon="2.16022">
        <ele>224.661771</ele>
        <time>2025-06-19T06:55:45.508Z</time>
      </trkpt>
      <trkpt lat="49.31145" lon="2.16011">
        <ele>224.320775</ele>
        <time>2025-06-19T06:55:49.514Z</time>
      </trkpt>
      <trkpt lat="49.31138" lon="2.15998">
        <ele>223.934168</ele>
        <time>2025-06-19T06:55:53.510Z</time>
      </trkpt>
      <trkpt lat="49.31131" lon="2.15985">
        <ele>223.553678</ele>
        <time>2025-06-19T06:55:57.515Z</time>
      </trkpt>
      <trkpt lat="49.31124" lon="2.15972">
        <ele>223.193969</ele>
        <time>2025-06-19T06:56:01.516Z</time>
      </trkpt>
      <trkpt lat="49.31117" lon="2.1596">
        <ele>222.820808</ele>
        <time>2025-06-19T06:56:05.512Z</time>
      </trkpt>
      <trkpt lat="49.31111" lon="2.15948">
        <ele>222.47235</ele>
        <time>2025-06-19T06:56:09.525Z</time>
      </trkpt>
      <trkpt lat="49.31104" lon="2.15936">
        <ele>222.112703</ele>
        <time>2025-06-19T06:56:13.505Z</time>
      </trkpt>
      <trkpt lat="49.31097" lon="2.15923">
        <ele>221.759815</ele>
        <time>2025-06-19T06:56:17.517Z</time>
      </trkpt>
      <trkpt lat="49.3109" lon="2.15911">
        <ele>221.392508</ele>
        <time>2025-06-19T06:56:21.522Z</time>
      </trkpt>
      <trkpt lat="49.31083" lon="2.15899">
        <ele>221.042328</ele>
        <time>2025-06-19T06:56:25.510Z</time>
      </trkpt>
      <trkpt lat="49.31077" lon="2.15888">
        <ele>220.695071</ele>
        <time>2025-06-19T06:56:29.509Z</time>
      </trkpt>
      <trkpt lat="49.3107" lon="2.15875">
        <ele>220.322809</ele>
        <time>2025-06-19T06:56:33.510Z</time>
      </trkpt>
      <trkpt lat="49.31062" lon="2.15863">
        <ele>219.956176</ele>
        <time>2025-06-19T06:56:37.525Z</time>
      </trkpt>
      <trkpt lat="49.31056" lon="2.1585">
        <ele>219.599741</ele>
        <time>2025-06-19T06:56:41.509Z</time>
      </trkpt>
      <trkpt lat="49.3105" lon="2.15839">
        <ele>219.260328</ele>
        <time>2025-06-19T06:56:45.519Z</time>
      </trkpt>
      <trkpt lat="49.31042" lon="2.15826">
        <ele>218.884421</ele>
        <time>2025-06-19T06:56:49.507Z</time>
      </trkpt>
      <trkpt lat="49.31036" lon="2.15815">
        <ele>219.457386</ele>
        <time>2025-06-19T06:56:53.505Z</time>
      </trkpt>
      <trkpt lat="49.31029" lon="2.15802">
        <ele>220.283583</ele>
        <time>2025-06-19T06:56:57.514Z</time>
      </trkpt>
      <trkpt lat="49.31022" lon="2.15792">
        <ele>221.034557</ele>
        <time>2025-06-19T06:57:01.513Z</time>
      </trkpt>
      <trkpt lat="49.31015" lon="2.15781">
        <ele>221.845802</ele>
        <time>2025-06-19T06:57:05.511Z</time>
      </trkpt>
      <trkpt lat="49.31009" lon="2.15771">
        <ele>222.560863</ele>
        <time>2025-06-19T06:57:08.522Z</time>
      </trkpt>
      <trkpt lat="49.31003" lon="2.15756">
        <ele>223.45277</ele>
        <time>2025-06-19T06:57:12.511Z</time>
      </trkpt>
      <trkpt lat="49.30995" lon="2.15744">
        <ele>224.337061</ele>
        <time>2025-06-19T06:57:16.509Z</time>
      </trkpt>
      <trkpt lat="49.30987" lon="2.15735">
        <ele>225.106892</ele>
        <time>2025-06-19T06:57:19.510Z</time>
      </trkpt>
      <trkpt lat="49.30977" lon="2.1573">
        <ele>225.921282</ele>
        <time>2025-06-19T06:57:22.499Z</time>
      </trkpt>
      <trkpt lat="49.30967" lon="2.15731">
        <ele>226.741606</ele>
        <time>2025-06-19T06:57:25.510Z</time>
      </trkpt>
      <trkpt lat="49.30956" lon="2.15732">
        <ele>227.565483</ele>
        <time>2025-06-19T06:57:28.521Z</time>
      </trkpt>
      <trkpt lat="49.30946" lon="2.15734">
        <ele>228.405068</ele>
        <time>2025-06-19T06:57:31.512Z</time>
      </trkpt>
      <trkpt lat="49.30935" lon="2.15735">
        <ele>229.242681</ele>
        <time>2025-06-19T06:57:34.515Z</time>
      </trkpt>
      <trkpt lat="49.30925" lon="2.15736">
        <ele>230.089667</ele>
        <time>2025-06-19T06:57:37.507Z</time>
      </trkpt>
      <trkpt lat="49.30914" lon="2.15737">
        <ele>230.94335</ele>
        <time>2025-06-19T06:57:40.506Z</time>
      </trkpt>
      <trkpt lat="49.30903" lon="2.15738">
        <ele>231.766329</ele>
        <time>2025-06-19T06:57:43.516Z</time>
      </trkpt>
      <trkpt lat="49.30893" lon="2.15739">
        <ele>232.563077</ele>
        <time>2025-06-19T06:57:46.518Z</time>
      </trkpt>
      <trkpt lat="49.30883" lon="2.15738">
        <ele>233.412072</ele>
        <time>2025-06-19T06:57:49.510Z</time>
      </trkpt>
      <trkpt lat="49.30872" lon="2.15736">
        <ele>234.301396</ele>
        <time>2025-06-19T06:57:52.524Z</time>
      </trkpt>
      <trkpt lat="49.30862" lon="2.15734">
        <ele>235.202968</ele>
        <time>2025-06-19T06:57:55.513Z</time>
      </trkpt>
      <trkpt lat="49.30852" lon="2.1573">
        <ele>236.095762</ele>
        <time>2025-06-19T06:57:58.507Z</time>
      </trkpt>
      <trkpt lat="49.30841" lon="2.15727">
        <ele>237.027652</ele>
        <time>2025-06-19T06:58:01.509Z</time>
      </trkpt>
      <trkpt lat="49.3083" lon="2.15723">
        <ele>237.971423</ele>
        <time>2025-06-19T06:58:04.507Z</time>
      </trkpt>
      <trkpt lat="49.30819" lon="2.1572">
        <ele>238.968409</ele>
        <time>2025-06-19T06:58:07.509Z</time>
      </trkpt>
      <trkpt lat="49.30807" lon="2.15716">
        <ele>239.961088</ele>
        <time>2025-06-19T06:58:10.505Z</time>
      </trkpt>
      <trkpt lat="49.30795" lon="2.15714">
        <ele>240.972569</ele>
        <time>2025-06-19T06:58:13.512Z</time>
      </trkpt>
      <trkpt lat="49.30784" lon="2.15711">
        <ele>241.969792</ele>
        <time>2025-06-19T06:58:16.516Z</time>
      </trkpt>
      <trkpt lat="49.30772" lon="2.15709">
        <ele>242.944682</ele>
        <time>2025-06-19T06:58:19.503Z</time>
      </trkpt>
      <trkpt lat="49.30762" lon="2.15706">
        <ele>243.865671</ele>
        <time>2025-06-19T06:58:22.505Z</time>
      </trkpt>
      <trkpt lat="49.3075" lon="2.15702">
        <ele>244.859383</ele>
        <time>2025-06-19T06:58:25.504Z</time>
      </trkpt>
      <trkpt lat="49.30738" lon="2.15698">
        <ele>245.871954</ele>
        <time>2025-06-19T06:58:28.510Z</time>
      </trkpt>
      <trkpt lat="49.30727" lon="2.15696">
        <ele>246.823076</ele>
        <time>2025-06-19T06:58:31.512Z</time>
      </trkpt>
      <trkpt lat="49.30717" lon="2.15694">
        <ele>247.720156</ele>
        <time>2025-06-19T06:58:34.504Z</time>
      </trkpt>
      <trkpt lat="49.30705" lon="2.15693">
        <ele>248.396967</ele>
        <time>2025-06-19T06:58:37.508Z</time>
      </trkpt>
      <trkpt lat="49.30693" lon="2.15693">
        <ele>248.718911</ele>
        <time>2025-06-19T06:58:40.516Z</time>
      </trkpt>
      <trkpt lat="49.30681" lon="2.15691">
        <ele>249.033622</ele>
        <time>2025-06-19T06:58:43.505Z</time>
      </trkpt>
      <trkpt lat="49.30669" lon="2.15692">
        <ele>249.337228</ele>
        <time>2025-06-19T06:58:46.508Z</time>
      </trkpt>
      <trkpt lat="49.30657" lon="2.15693">
        <ele>249.662082</ele>
        <time>2025-06-19T06:58:49.509Z</time>
      </trkpt>
      <trkpt lat="49.30644" lon="2.15694">
        <ele>249.994805</ele>
        <time>2025-06-19T06:58:52.526Z</time>
      </trkpt>
      <trkpt lat="49.30631" lon="2.15696">
        <ele>250.329809</ele>
        <time>2025-06-19T06:58:55.506Z</time>
      </trkpt>
      <trkpt lat="49.30619" lon="2.15699">
        <ele>250.646817</ele>
        <time>2025-06-19T06:58:58.514Z</time>
      </trkpt>
      <trkpt lat="49.30607" lon="2.15702">
        <ele>250.972262</ele>
        <time>2025-06-19T06:59:01.512Z</time>
      </trkpt>
      <trkpt lat="49.30596" lon="2.15704">
        <ele>251.26078</ele>
        <time>2025-06-19T06:59:04.512Z</time>
      </trkpt>
      <trkpt lat="49.30584" lon="2.15707">
        <ele>251.570327</ele>
        <time>2025-06-19T06:59:07.506Z</time>
      </trkpt>
      <trkpt lat="49.30572" lon="2.1571">
        <ele>251.876823</ele>
        <time>2025-06-19T06:59:10.511Z</time>
      </trkpt>
      <trkpt lat="49.30562" lon="2.15712">
        <ele>252.132914</ele>
        <time>2025-06-19T06:59:12.507Z</time>
      </trkpt>
      <trkpt lat="49.30553" lon="2.15715">
        <ele>252.389324</ele>
        <time>2025-06-19T06:59:14.504Z</time>
      </trkpt>
      <trkpt lat="49.30543" lon="2.15718">
        <ele>252.643187</ele>
        <time>2025-06-19T06:59:16.511Z</time>
      </trkpt>
      <trkpt lat="49.30534" lon="2.15721">
        <ele>252.882477</ele>
        <time>2025-06-19T06:59:18.500Z</time>
      </trkpt>
      <trkpt lat="49.30525" lon="2.15722">
        <ele>253.218276</ele>
        <time>2025-06-19T06:59:20.504Z</time>
      </trkpt>
      <trkpt lat="49.30515" lon="2.15724">
        <ele>253.61229</ele>
        <time>2025-06-19T06:59:22.509Z</time>
      </trkpt>
      <trkpt lat="49.30505" lon="2.15727">
        <ele>254.033273</ele>
        <time>2025-06-19T06:59:24.514Z</time>
      </trkpt>
      <trkpt lat="49.30496" lon="2.1573">
        <ele>254.397604</ele>
        <time>2025-06-19T06:59:26.510Z</time>
      </trkpt>
      <trkpt lat="49.30487" lon="2.15733">
        <ele>254.766831</ele>
        <time>2025-06-19T06:59:28.513Z</time>
      </trkpt>
      <trkpt lat="49.30477" lon="2.15734">
        <ele>255.134619</ele>
        <time>2025-06-19T06:59:30.506Z</time>
      </trkpt>
      <trkpt lat="49.30468" lon="2.15737">
        <ele>255.522117</ele>
        <time>2025-06-19T06:59:32.510Z</time>
      </trkpt>
      <trkpt lat="49.30458" lon="2.15741">
        <ele>255.912937</ele>
        <time>2025-06-19T06:59:34.509Z</time>
      </trkpt>
      <trkpt lat="49.30449" lon="2.15744">
        <ele>256.306587</ele>
        <time>2025-06-19T06:59:36.509Z</time>
      </trkpt>
      <trkpt lat="49.30438" lon="2.15746">
        <ele>256.721437</ele>
        <time>2025-06-19T06:59:38.520Z</time>
      </trkpt>
      <trkpt lat="49.30427" lon="2.15749">
        <ele>257.168946</ele>
        <time>2025-06-19T06:59:40.511Z</time>
      </trkpt>
      <trkpt lat="49.30416" lon="2.15752">
        <ele>257.626078</ele>
        <time>2025-06-19T06:59:42.514Z</time>
      </trkpt>
      <trkpt lat="49.30405" lon="2.15754">
        <ele>258.059842</ele>
        <time>2025-06-19T06:59:44.509Z</time>
      </trkpt>
      <trkpt lat="49.30394" lon="2.15757">
        <ele>258.527824</ele>
        <time>2025-06-19T06:59:46.508Z</time>
      </trkpt>
      <trkpt lat="49.30382" lon="2.1576">
        <ele>258.984491</ele>
        <time>2025-06-19T06:59:48.518Z</time>
      </trkpt>
      <trkpt lat="49.30371" lon="2.15763">
        <ele>259.422557</ele>
        <time>2025-06-19T06:59:50.510Z</time>
      </trkpt>
      <trkpt lat="49.3036" lon="2.15765">
        <ele>259.892863</ele>
        <time>2025-06-19T06:59:52.519Z</time>
      </trkpt>
      <trkpt lat="49.30348" lon="2.15769">
        <ele>260.032256</ele>
        <time>2025-06-19T06:59:54.514Z</time>
      </trkpt>
      <trkpt lat="49.30335" lon="2.15771">
        <ele>259.933256</ele>
        <time>2025-06-19T06:59:56.509Z</time>
      </trkpt>
      <trkpt lat="49.30322" lon="2.15773">
        <ele>259.825013</ele>
        <time>2025-06-19T06:59:58.504Z</time>
      </trkpt>
      <trkpt lat="49.30309" lon="2.15776">
        <ele>259.723432</ele>
        <time>2025-06-19T07:00:00.503Z</time>
      </trkpt>
      <trkpt lat="49.30294" lon="2.1578">
        <ele>259.602126</ele>
        <time>2025-06-19T07:00:02.505Z</time>
      </trkpt>
      <trkpt lat="49.3028" lon="2.15782">
        <ele>259.491773</ele>
        <time>2025-06-19T07:00:04.508Z</time>
      </trkpt>
      <trkpt lat="49.30267" lon="2.15787">
        <ele>259.378554</ele>
        <time>2025-06-19T07:00:06.510Z</time>
      </trkpt>
      <trkpt lat="49.3025" lon="2.15793">
        <ele>259.242381</ele>
        <time>2025-06-19T07:00:08.514Z</time>
      </trkpt>
      <trkpt lat="49.30234" lon="2.15798">
        <ele>259.111223</ele>
        <time>2025-06-19T07:00:10.519Z</time>
      </trkpt>
      <trkpt lat="49.30218" lon="2.15802">
        <ele>258.984937</ele>
        <time>2025-06-19T07:00:12.520Z</time>
      </trkpt>
      <trkpt lat="49.30203" lon="2.15806">
        <ele>258.860137</ele>
        <time>2025-06-19T07:00:14.509Z</time>
      </trkpt>
      <trkpt lat="49.30189" lon="2.15808">
        <ele>258.745278</ele>
        <time>2025-06-19T07:00:16.515Z</time>
      </trkpt>
      <trkpt lat="49.30173" lon="2.15812">
        <ele>258.6211</ele>
        <time>2025-06-19T07:00:18.525Z</time>
      </trkpt>
      <trkpt lat="49.30156" lon="2.15816">
        <ele>258.489638</ele>
        <time>2025-06-19T07:00:20.511Z</time>
      </trkpt>
      <trkpt lat="49.30139" lon="2.15821">
        <ele>258.354511</ele>
        <time>2025-06-19T07:00:22.508Z</time>
      </trkpt>
      <trkpt lat="49.3013" lon="2.15823">
        <ele>258.281443</ele>
        <time>2025-06-19T07:00:23.512Z</time>
      </trkpt>
      <trkpt lat="49.3012" lon="2.15825">
        <ele>258.206137</ele>
        <time>2025-06-19T07:00:24.500Z</time>
      </trkpt>
      <trkpt lat="49.30111" lon="2.15828">
        <ele>258.130942</ele>
        <time>2025-06-19T07:00:25.521Z</time>
      </trkpt>
      <trkpt lat="49.30093" lon="2.15831">
        <ele>257.992858</ele>
        <time>2025-06-19T07:00:27.514Z</time>
      </trkpt>
      <trkpt lat="49.30084" lon="2.15833">
        <ele>257.917851</ele>
        <time>2025-06-19T07:00:28.519Z</time>
      </trkpt>
      <trkpt lat="49.30075" lon="2.15835">
        <ele>257.845804</ele>
        <time>2025-06-19T07:00:29.510Z</time>
      </trkpt>
      <trkpt lat="49.30065" lon="2.15838">
        <ele>257.773179</ele>
        <time>2025-06-19T07:00:30.517Z</time>
      </trkpt>
      <trkpt lat="49.30056" lon="2.1584">
        <ele>257.702339</ele>
        <time>2025-06-19T07:00:31.522Z</time>
      </trkpt>
      <trkpt lat="49.30047" lon="2.15843">
        <ele>257.625321</ele>
        <time>2025-06-19T07:00:32.510Z</time>
      </trkpt>
      <trkpt lat="49.30038" lon="2.15845">
        <ele>257.55379</ele>
        <time>2025-06-19T07:00:33.511Z</time>
      </trkpt>
      <trkpt lat="49.3002" lon="2.1585">
        <ele>257.418247</ele>
        <time>2025-06-19T07:00:35.498Z</time>
      </trkpt>
      <trkpt lat="49.30004" lon="2.15853">
        <ele>257.293661</ele>
        <time>2025-06-19T07:00:37.521Z</time>
      </trkpt>
      <trkpt lat="49.2999" lon="2.15857">
        <ele>257.362285</ele>
        <time>2025-06-19T07:00:39.521Z</time>
      </trkpt>
      <trkpt lat="49.29976" lon="2.1586">
        <ele>257.505547</ele>
        <time>2025-06-19T07:00:41.513Z</time>
      </trkpt>
      <trkpt lat="49.29963" lon="2.15863">
        <ele>257.633443</ele>
        <time>2025-06-19T07:00:43.496Z</time>
      </trkpt>
      <trkpt lat="49.29954" lon="2.15865">
        <ele>257.733919</ele>
        <time>2025-06-19T07:00:45.505Z</time>
      </trkpt>
      <trkpt lat="49.29942" lon="2.15869">
        <ele>257.859838</ele>
        <time>2025-06-19T07:00:47.498Z</time>
      </trkpt>
      <trkpt lat="49.29927" lon="2.15871">
        <ele>258.01393</ele>
        <time>2025-06-19T07:00:50.505Z</time>
      </trkpt>
      <trkpt lat="49.29915" lon="2.15874">
        <ele>258.132102</ele>
        <time>2025-06-19T07:00:52.505Z</time>
      </trkpt>
      <trkpt lat="49.29903" lon="2.15876">
        <ele>258.252813</ele>
        <time>2025-06-19T07:00:54.504Z</time>
      </trkpt>
      <trkpt lat="49.29892" lon="2.15879">
        <ele>258.373003</ele>
        <time>2025-06-19T07:00:56.509Z</time>
      </trkpt>
      <trkpt lat="49.29881" lon="2.15882">
        <ele>258.480982</ele>
        <time>2025-06-19T07:00:58.510Z</time>
      </trkpt>
      <trkpt lat="49.29871" lon="2.15884">
        <ele>258.587238</ele>
        <time>2025-06-19T07:01:00.504Z</time>
      </trkpt>
      <trkpt lat="49.29861" lon="2.15886">
        <ele>258.687715</ele>
        <time>2025-06-19T07:01:02.501Z</time>
      </trkpt>
      <trkpt lat="49.29852" lon="2.15888">
        <ele>258.786788</ele>
        <time>2025-06-19T07:01:04.497Z</time>
      </trkpt>
      <trkpt lat="49.29843" lon="2.15891">
        <ele>258.879438</ele>
        <time>2025-06-19T07:01:06.505Z</time>
      </trkpt>
      <trkpt lat="49.2983" lon="2.15893">
        <ele>259.015218</ele>
        <time>2025-06-19T07:01:09.506Z</time>
      </trkpt>
      <trkpt lat="49.2982" lon="2.15895">
        <ele>259.099675</ele>
        <time>2025-06-19T07:01:11.506Z</time>
      </trkpt>
      <trkpt lat="49.29812" lon="2.15898">
        <ele>259.1218</ele>
        <time>2025-06-19T07:01:13.515Z</time>
      </trkpt>
      <trkpt lat="49.29803" lon="2.159">
        <ele>259.144207</ele>
        <time>2025-06-19T07:01:15.502Z</time>
      </trkpt>
      <trkpt lat="49.29789" lon="2.15903">
        <ele>259.17747</ele>
        <time>2025-06-19T07:01:18.508Z</time>
      </trkpt>
      <trkpt lat="49.2978" lon="2.15905">
        <ele>259.200537</ele>
        <time>2025-06-19T07:01:20.500Z</time>
      </trkpt>
      <trkpt lat="49.29768" lon="2.15907">
        <ele>259.231012</ele>
        <time>2025-06-19T07:01:23.508Z</time>
      </trkpt>
      <trkpt lat="49.29759" lon="2.15911">
        <ele>259.253579</ele>
        <time>2025-06-19T07:01:25.522Z</time>
      </trkpt>
      <trkpt lat="49.29749" lon="2.15914">
        <ele>259.280081</ele>
        <time>2025-06-19T07:01:27.502Z</time>
      </trkpt>
      <trkpt lat="49.29739" lon="2.15917">
        <ele>259.304611</ele>
        <time>2025-06-19T07:01:29.519Z</time>
      </trkpt>
      <trkpt lat="49.29729" lon="2.1592">
        <ele>259.32995</ele>
        <time>2025-06-19T07:01:31.521Z</time>
      </trkpt>
      <trkpt lat="49.29719" lon="2.15923">
        <ele>259.355137</ele>
        <time>2025-06-19T07:01:33.517Z</time>
      </trkpt>
      <trkpt lat="49.29709" lon="2.15924">
        <ele>259.379643</ele>
        <time>2025-06-19T07:01:35.523Z</time>
      </trkpt>
      <trkpt lat="49.29697" lon="2.15928">
        <ele>259.410168</ele>
        <time>2025-06-19T07:01:38.507Z</time>
      </trkpt>
      <trkpt lat="49.29687" lon="2.15929">
        <ele>259.433431</ele>
        <time>2025-06-19T07:01:40.512Z</time>
      </trkpt>
      <trkpt lat="49.29677" lon="2.15931">
        <ele>259.458105</ele>
        <time>2025-06-19T07:01:42.522Z</time>
      </trkpt>
      <trkpt lat="49.29668" lon="2.15933">
        <ele>259.48158</ele>
        <time>2025-06-19T07:01:44.529Z</time>
      </trkpt>
      <trkpt lat="49.29657" lon="2.15936">
        <ele>259.508622</ele>
        <time>2025-06-19T07:01:46.523Z</time>
      </trkpt>
      <trkpt lat="49.29647" lon="2.1594">
        <ele>259.533704</ele>
        <time>2025-06-19T07:01:48.517Z</time>
      </trkpt>
      <trkpt lat="49.29636" lon="2.15944">
        <ele>259.148706</ele>
        <time>2025-06-19T07:01:50.513Z</time>
      </trkpt>
      <trkpt lat="49.29624" lon="2.15947">
        <ele>258.629444</ele>
        <time>2025-06-19T07:01:53.518Z</time>
      </trkpt>
      <trkpt lat="49.29615" lon="2.15948">
        <ele>258.240037</ele>
        <time>2025-06-19T07:01:57.518Z</time>
      </trkpt>
      <trkpt lat="49.29606" lon="2.15946">
        <ele>257.825649</ele>
        <time>2025-06-19T07:02:09.505Z</time>
      </trkpt>
      <trkpt lat="49.29593" lon="2.15948">
        <ele>257.288165</ele>
        <time>2025-06-19T07:02:13.508Z</time>
      </trkpt>
      <trkpt lat="49.29582" lon="2.15947">
        <ele>256.808589</ele>
        <time>2025-06-19T07:02:16.510Z</time>
      </trkpt>
      <trkpt lat="49.29569" lon="2.15945">
        <ele>256.229483</ele>
        <time>2025-06-19T07:02:19.517Z</time>
      </trkpt>
      <trkpt lat="49.29559" lon="2.15945">
        <ele>255.806344</ele>
        <time>2025-06-19T07:02:21.506Z</time>
      </trkpt>
      <trkpt lat="49.29549" lon="2.15944">
        <ele>255.361662</ele>
        <time>2025-06-19T07:02:23.515Z</time>
      </trkpt>
      <trkpt lat="49.29538" lon="2.15943">
        <ele>254.895435</ele>
        <time>2025-06-19T07:02:25.500Z</time>
      </trkpt>
      <trkpt lat="49.29527" lon="2.15942">
        <ele>254.419989</ele>
        <time>2025-06-19T07:02:27.509Z</time>
      </trkpt>
      <trkpt lat="49.29515" lon="2.1594">
        <ele>253.925404</ele>
        <time>2025-06-19T07:02:29.506Z</time>
      </trkpt>
      <trkpt lat="49.29504" lon="2.15938">
        <ele>253.418514</ele>
        <time>2025-06-19T07:02:31.502Z</time>
      </trkpt>
      <trkpt lat="49.29492" lon="2.15937">
        <ele>252.902768</ele>
        <time>2025-06-19T07:02:33.506Z</time>
      </trkpt>
      <trkpt lat="49.2948" lon="2.15934">
        <ele>252.381514</ele>
        <time>2025-06-19T07:02:35.513Z</time>
      </trkpt>
      <trkpt lat="49.29467" lon="2.15933">
        <ele>251.831153</ele>
        <time>2025-06-19T07:02:37.502Z</time>
      </trkpt>
      <trkpt lat="49.29454" lon="2.15931">
        <ele>251.521304</ele>
        <time>2025-06-19T07:02:39.508Z</time>
      </trkpt>
      <trkpt lat="49.29442" lon="2.15929">
        <ele>251.24789</ele>
        <time>2025-06-19T07:02:41.507Z</time>
      </trkpt>
      <trkpt lat="49.2943" lon="2.15926">
        <ele>250.974921</ele>
        <time>2025-06-19T07:02:43.504Z</time>
      </trkpt>
      <trkpt lat="49.29416" lon="2.15922">
        <ele>250.675495</ele>
        <time>2025-06-19T07:02:45.504Z</time>
      </trkpt>
      <trkpt lat="49.29402" lon="2.15919">
        <ele>250.361919</ele>
        <time>2025-06-19T07:02:47.512Z</time>
      </trkpt>
      <trkpt lat="49.29388" lon="2.15917">
        <ele>250.039228</ele>
        <time>2025-06-19T07:02:49.506Z</time>
      </trkpt>
      <trkpt lat="49.29372" lon="2.15914">
        <ele>249.696623</ele>
        <time>2025-06-19T07:02:51.506Z</time>
      </trkpt>
      <trkpt lat="49.29356" lon="2.15911">
        <ele>249.340514</ele>
        <time>2025-06-19T07:02:53.516Z</time>
      </trkpt>
      <trkpt lat="49.29341" lon="2.15908">
        <ele>248.998237</ele>
        <time>2025-06-19T07:02:55.513Z</time>
      </trkpt>
      <trkpt lat="49.29325" lon="2.15906">
        <ele>248.641012</ele>
        <time>2025-06-19T07:02:57.515Z</time>
      </trkpt>
      <trkpt lat="49.29309" lon="2.15904">
        <ele>248.28026</ele>
        <time>2025-06-19T07:02:59.513Z</time>
      </trkpt>
      <trkpt lat="49.29292" lon="2.15902">
        <ele>247.918359</ele>
        <time>2025-06-19T07:03:01.524Z</time>
      </trkpt>
      <trkpt lat="49.29277" lon="2.15899">
        <ele>247.713317</ele>
        <time>2025-06-19T07:03:03.515Z</time>
      </trkpt>
      <trkpt lat="49.29261" lon="2.15896">
        <ele>247.573269</ele>
        <time>2025-06-19T07:03:05.515Z</time>
      </trkpt>
      <trkpt lat="49.29246" lon="2.15892">
        <ele>247.439236</ele>
        <time>2025-06-19T07:03:07.517Z</time>
      </trkpt>
      <trkpt lat="49.29231" lon="2.15889">
        <ele>247.30498</ele>
        <time>2025-06-19T07:03:09.510Z</time>
      </trkpt>
      <trkpt lat="49.29216" lon="2.15884">
        <ele>247.173989</ele>
        <time>2025-06-19T07:03:11.507Z</time>
      </trkpt>
      <trkpt lat="49.29203" lon="2.15879">
        <ele>247.049477</ele>
        <time>2025-06-19T07:03:13.509Z</time>
      </trkpt>
      <trkpt lat="49.29189" lon="2.15875">
        <ele>246.929194</ele>
        <time>2025-06-19T07:03:15.514Z</time>
      </trkpt>
      <trkpt lat="49.29177" lon="2.1587">
        <ele>246.815786</ele>
        <time>2025-06-19T07:03:17.514Z</time>
      </trkpt>
      <trkpt lat="49.29164" lon="2.15865">
        <ele>246.699255</ele>
        <time>2025-06-19T07:03:19.522Z</time>
      </trkpt>
      <trkpt lat="49.29152" lon="2.1586">
        <ele>246.589411</ele>
        <time>2025-06-19T07:03:21.510Z</time>
      </trkpt>
      <trkpt lat="49.2914" lon="2.15855">
        <ele>246.478703</ele>
        <time>2025-06-19T07:03:23.514Z</time>
      </trkpt>
      <trkpt lat="49.29128" lon="2.15851">
        <ele>246.37381</ele>
        <time>2025-06-19T07:03:25.502Z</time>
      </trkpt>
      <trkpt lat="49.29116" lon="2.15847">
        <ele>246.267318</ele>
        <time>2025-06-19T07:03:27.508Z</time>
      </trkpt>
      <trkpt lat="49.29105" lon="2.15843">
        <ele>246.137241</ele>
        <time>2025-06-19T07:03:29.503Z</time>
      </trkpt>
      <trkpt lat="49.29094" lon="2.15838">
        <ele>245.99158</ele>
        <time>2025-06-19T07:03:31.515Z</time>
      </trkpt>
      <trkpt lat="49.29083" lon="2.15832">
        <ele>245.847103</ele>
        <time>2025-06-19T07:03:33.511Z</time>
      </trkpt>
      <trkpt lat="49.29072" lon="2.15827">
        <ele>245.701255</ele>
        <time>2025-06-19T07:03:35.512Z</time>
      </trkpt>
      <trkpt lat="49.29061" lon="2.15821">
        <ele>245.550085</ele>
        <time>2025-06-19T07:03:37.512Z</time>
      </trkpt>
      <trkpt lat="49.29049" lon="2.15816">
        <ele>245.395231</ele>
        <time>2025-06-19T07:03:39.518Z</time>
      </trkpt>
      <trkpt lat="49.29037" lon="2.15811">
        <ele>245.240437</ele>
        <time>2025-06-19T07:03:41.533Z</time>
      </trkpt>
      <trkpt lat="49.29025" lon="2.15805">
        <ele>245.082738</ele>
        <time>2025-06-19T07:03:43.508Z</time>
      </trkpt>
      <trkpt lat="49.29013" lon="2.15799">
        <ele>244.914882</ele>
        <time>2025-06-19T07:03:45.506Z</time>
      </trkpt>
      <trkpt lat="49.29001" lon="2.15794">
        <ele>244.755007</ele>
        <time>2025-06-19T07:03:47.509Z</time>
      </trkpt>
      <trkpt lat="49.28989" lon="2.15789">
        <ele>244.60345</ele>
        <time>2025-06-19T07:03:49.524Z</time>
      </trkpt>
      <trkpt lat="49.28977" lon="2.15786">
        <ele>244.450483</ele>
        <time>2025-06-19T07:03:51.515Z</time>
      </trkpt>
      <trkpt lat="49.28967" lon="2.15781">
        <ele>244.321546</ele>
        <time>2025-06-19T07:03:53.511Z</time>
      </trkpt>
      <trkpt lat="49.28954" lon="2.15778">
        <ele>244.15181</ele>
        <time>2025-06-19T07:03:56.517Z</time>
      </trkpt>
      <trkpt lat="49.28944" lon="2.15776">
        <ele>244.024866</ele>
        <time>2025-06-19T07:03:58.514Z</time>
      </trkpt>
      <trkpt lat="49.28933" lon="2.15776">
        <ele>243.925193</ele>
        <time>2025-06-19T07:04:00.512Z</time>
      </trkpt>
      <trkpt lat="49.28921" lon="2.15781">
        <ele>243.875405</ele>
        <time>2025-06-19T07:04:02.519Z</time>
      </trkpt>
      <trkpt lat="49.28908" lon="2.15787">
        <ele>243.818478</ele>
        <time>2025-06-19T07:04:04.513Z</time>
      </trkpt>
      <trkpt lat="49.28896" lon="2.15792">
        <ele>243.76434</ele>
        <time>2025-06-19T07:04:06.526Z</time>
      </trkpt>
      <trkpt lat="49.28884" lon="2.15794">
        <ele>243.712152</ele>
        <time>2025-06-19T07:04:08.526Z</time>
      </trkpt>
      <trkpt lat="49.28871" lon="2.15796">
        <ele>243.657896</ele>
        <time>2025-06-19T07:04:10.510Z</time>
      </trkpt>
      <trkpt lat="49.2886" lon="2.15796">
        <ele>243.613189</ele>
        <time>2025-06-19T07:04:12.509Z</time>
      </trkpt>
      <trkpt lat="49.28849" lon="2.15799">
        <ele>243.56312</ele>
        <time>2025-06-19T07:04:15.506Z</time>
      </trkpt>
      <trkpt lat="49.28839" lon="2.15802">
        <ele>243.521446</ele>
        <time>2025-06-19T07:04:19.512Z</time>
      </trkpt>
      <trkpt lat="49.2883" lon="2.15808">
        <ele>243.479889</ele>
        <time>2025-06-19T07:04:22.526Z</time>
      </trkpt>
      <trkpt lat="49.2882" lon="2.15816">
        <ele>243.433442</ele>
        <time>2025-06-19T07:04:25.505Z</time>
      </trkpt>
      <trkpt lat="49.28812" lon="2.15829">
        <ele>243.383477</ele>
        <time>2025-06-19T07:04:28.515Z</time>
      </trkpt>
      <trkpt lat="49.28806" lon="2.15847">
        <ele>243.328442</ele>
        <time>2025-06-19T07:04:31.510Z</time>
      </trkpt>
      <trkpt lat="49.28804" lon="2.15862">
        <ele>243.288299</ele>
        <time>2025-06-19T07:04:33.512Z</time>
      </trkpt>
      <trkpt lat="49.28801" lon="2.15875">
        <ele>243.250248</ele>
        <time>2025-06-19T07:04:35.519Z</time>
      </trkpt>
      <trkpt lat="49.28796" lon="2.15886">
        <ele>243.21176</ele>
        <time>2025-06-19T07:04:37.507Z</time>
      </trkpt>
      <trkpt lat="49.28789" lon="2.15895">
        <ele>243.167513</ele>
        <time>2025-06-19T07:04:39.511Z</time>
      </trkpt>
      <trkpt lat="49.28782" lon="2.15905">
        <ele>243.118574</ele>
        <time>2025-06-19T07:04:41.511Z</time>
      </trkpt>
      <trkpt lat="49.28774" lon="2.15914">
        <ele>243.069413</ele>
        <time>2025-06-19T07:04:43.525Z</time>
      </trkpt>
      <trkpt lat="49.28767" lon="2.15923">
        <ele>243.019485</ele>
        <time>2025-06-19T07:04:45.515Z</time>
      </trkpt>
      <trkpt lat="49.2876" lon="2.15932">
        <ele>242.970607</ele>
        <time>2025-06-19T07:04:47.514Z</time>
      </trkpt>
      <trkpt lat="49.2875" lon="2.15946">
        <ele>242.902063</ele>
        <time>2025-06-19T07:04:50.517Z</time>
      </trkpt>
      <trkpt lat="49.28742" lon="2.1596">
        <ele>242.836213</ele>
        <time>2025-06-19T07:04:53.515Z</time>
      </trkpt>
      <trkpt lat="49.28733" lon="2.15975">
        <ele>242.766822</ele>
        <time>2025-06-19T07:04:56.518Z</time>
      </trkpt>
      <trkpt lat="49.28724" lon="2.15989">
        <ele>242.699874</ele>
        <time>2025-06-19T07:04:59.507Z</time>
      </trkpt>
      <trkpt lat="49.28714" lon="2.16003">
        <ele>242.631195</ele>
        <time>2025-06-19T07:05:02.507Z</time>
      </trkpt>
      <trkpt lat="49.28705" lon="2.16017">
        <ele>242.560572</ele>
        <time>2025-06-19T07:05:05.515Z</time>
      </trkpt>
      <trkpt lat="49.28696" lon="2.16031">
        <ele>242.494107</ele>
        <time>2025-06-19T07:05:08.517Z</time>
      </trkpt>
      <trkpt lat="49.28689" lon="2.16041">
        <ele>242.444262</ele>
        <time>2025-06-19T07:05:10.509Z</time>
      </trkpt>
      <trkpt lat="49.28682" lon="2.16051">
        <ele>242.396667</ele>
        <time>2025-06-19T07:05:12.510Z</time>
      </trkpt>
      <trkpt lat="49.28676" lon="2.1606">
        <ele>242.34899</ele>
        <time>2025-06-19T07:05:14.506Z</time>
      </trkpt>
      <trkpt lat="49.28669" lon="2.1607">
        <ele>242.301711</ele>
        <time>2025-06-19T07:05:16.512Z</time>
      </trkpt>
      <trkpt lat="49.28661" lon="2.16086">
        <ele>242.156253</ele>
        <time>2025-06-19T07:05:19.510Z</time>
      </trkpt>
      <trkpt lat="49.28656" lon="2.16099">
        <ele>241.782675</ele>
        <time>2025-06-19T07:05:21.504Z</time>
      </trkpt>
      <trkpt lat="49.28651" lon="2.16112">
        <ele>241.41375</ele>
        <time>2025-06-19T07:05:23.504Z</time>
      </trkpt>
      <trkpt lat="49.28646" lon="2.16127">
        <ele>241.005712</ele>
        <time>2025-06-19T07:05:25.517Z</time>
      </trkpt>
      <trkpt lat="49.28641" lon="2.16142">
        <ele>240.587434</ele>
        <time>2025-06-19T07:05:27.504Z</time>
      </trkpt>
      <trkpt lat="49.28637" lon="2.16158">
        <ele>240.157381</ele>
        <time>2025-06-19T07:05:29.509Z</time>
      </trkpt>
      <trkpt lat="49.28633" lon="2.16174">
        <ele>239.739746</ele>
        <time>2025-06-19T07:05:31.504Z</time>
      </trkpt>
      <trkpt lat="49.2863" lon="2.1619">
        <ele>239.326164</ele>
        <time>2025-06-19T07:05:33.502Z</time>
      </trkpt>
      <trkpt lat="49.28626" lon="2.16207">
        <ele>238.899766</ele>
        <time>2025-06-19T07:05:35.507Z</time>
      </trkpt>
      <trkpt lat="49.28623" lon="2.16222">
        <ele>238.512927</ele>
        <time>2025-06-19T07:05:37.506Z</time>
      </trkpt>
      <trkpt lat="49.2862" lon="2.16239">
        <ele>238.068849</ele>
        <time>2025-06-19T07:05:39.511Z</time>
      </trkpt>
      <trkpt lat="49.28616" lon="2.16257">
        <ele>237.613346</ele>
        <time>2025-06-19T07:05:41.521Z</time>
      </trkpt>
      <trkpt lat="49.28612" lon="2.16275">
        <ele>237.141469</ele>
        <time>2025-06-19T07:05:43.515Z</time>
      </trkpt>
      <trkpt lat="49.28607" lon="2.16295">
        <ele>236.632545</ele>
        <time>2025-06-19T07:05:45.520Z</time>
      </trkpt>
      <trkpt lat="49.28603" lon="2.16313">
        <ele>236.140465</ele>
        <time>2025-06-19T07:05:47.508Z</time>
      </trkpt>
      <trkpt lat="49.28597" lon="2.16331">
        <ele>235.664406</ele>
        <time>2025-06-19T07:05:49.531Z</time>
      </trkpt>
      <trkpt lat="49.28592" lon="2.16348">
        <ele>235.131715</ele>
        <time>2025-06-19T07:05:51.513Z</time>
      </trkpt>
      <trkpt lat="49.28586" lon="2.16366">
        <ele>234.528329</ele>
        <time>2025-06-19T07:05:53.509Z</time>
      </trkpt>
      <trkpt lat="49.2858" lon="2.16384">
        <ele>233.896874</ele>
        <time>2025-06-19T07:05:55.509Z</time>
      </trkpt>
      <trkpt lat="49.28573" lon="2.16403">
        <ele>233.243022</ele>
        <time>2025-06-19T07:05:57.512Z</time>
      </trkpt>
      <trkpt lat="49.28566" lon="2.16421">
        <ele>232.600238</ele>
        <time>2025-06-19T07:05:59.512Z</time>
      </trkpt>
      <trkpt lat="49.28559" lon="2.16437">
        <ele>232.024908</ele>
        <time>2025-06-19T07:06:01.519Z</time>
      </trkpt>
      <trkpt lat="49.2855" lon="2.1645">
        <ele>231.430224</ele>
        <time>2025-06-19T07:06:03.515Z</time>
      </trkpt>
      <trkpt lat="49.28538" lon="2.16454">
        <ele>230.868314</ele>
        <time>2025-06-19T07:06:05.526Z</time>
      </trkpt>
      <trkpt lat="49.28525" lon="2.16454">
        <ele>230.270272</ele>
        <time>2025-06-19T07:06:07.514Z</time>
      </trkpt>
      <trkpt lat="49.28512" lon="2.16454">
        <ele>229.667716</ele>
        <time>2025-06-19T07:06:09.516Z</time>
      </trkpt>
      <trkpt lat="49.28499" lon="2.16456">
        <ele>229.043622</ele>
        <time>2025-06-19T07:06:11.513Z</time>
      </trkpt>
      <trkpt lat="49.28484" lon="2.16458">
        <ele>228.363734</ele>
        <time>2025-06-19T07:06:13.504Z</time>
      </trkpt>
      <trkpt lat="49.2847" lon="2.16463">
        <ele>227.650098</ele>
        <time>2025-06-19T07:06:15.502Z</time>
      </trkpt>
      <trkpt lat="49.28452" lon="2.1647">
        <ele>226.772516</ele>
        <time>2025-06-19T07:06:17.505Z</time>
      </trkpt>
      <trkpt lat="49.28443" lon="2.16474">
        <ele>226.246485</ele>
        <time>2025-06-19T07:06:18.508Z</time>
      </trkpt>
      <trkpt lat="49.28435" lon="2.16479">
        <ele>225.724757</ele>
        <time>2025-06-19T07:06:19.510Z</time>
      </trkpt>
      <trkpt lat="49.28426" lon="2.16483">
        <ele>225.207946</ele>
        <time>2025-06-19T07:06:20.525Z</time>
      </trkpt>
      <trkpt lat="49.28417" lon="2.16488">
        <ele>224.679554</ele>
        <time>2025-06-19T07:06:21.511Z</time>
      </trkpt>
      <trkpt lat="49.28408" lon="2.16493">
        <ele>224.153746</ele>
        <time>2025-06-19T07:06:22.513Z</time>
      </trkpt>
      <trkpt lat="49.28399" lon="2.16498">
        <ele>223.606868</ele>
        <time>2025-06-19T07:06:23.521Z</time>
      </trkpt>
      <trkpt lat="49.2839" lon="2.16504">
        <ele>223.05187</ele>
        <time>2025-06-19T07:06:24.524Z</time>
      </trkpt>
      <trkpt lat="49.2838" lon="2.1651">
        <ele>222.468536</ele>
        <time>2025-06-19T07:06:25.518Z</time>
      </trkpt>
      <trkpt lat="49.2837" lon="2.16516">
        <ele>221.875942</ele>
        <time>2025-06-19T07:06:26.516Z</time>
      </trkpt>
      <trkpt lat="49.28361" lon="2.16522">
        <ele>221.304271</ele>
        <time>2025-06-19T07:06:27.510Z</time>
      </trkpt>
      <trkpt lat="49.28351" lon="2.16527">
        <ele>220.710483</ele>
        <time>2025-06-19T07:06:28.518Z</time>
      </trkpt>
      <trkpt lat="49.28341" lon="2.16532">
        <ele>220.113755</ele>
        <time>2025-06-19T07:06:29.512Z</time>
      </trkpt>
      <trkpt lat="49.2833" lon="2.16537">
        <ele>219.502919</ele>
        <time>2025-06-19T07:06:30.514Z</time>
      </trkpt>
      <trkpt lat="49.2832" lon="2.16541">
        <ele>218.878294</ele>
        <time>2025-06-19T07:06:31.513Z</time>
      </trkpt>
      <trkpt lat="49.28308" lon="2.16547">
        <ele>218.229067</ele>
        <time>2025-06-19T07:06:32.512Z</time>
      </trkpt>
      <trkpt lat="49.28297" lon="2.16551">
        <ele>217.572111</ele>
        <time>2025-06-19T07:06:33.515Z</time>
      </trkpt>
      <trkpt lat="49.28286" lon="2.16556">
        <ele>216.922474</ele>
        <time>2025-06-19T07:06:34.504Z</time>
      </trkpt>
      <trkpt lat="49.28274" lon="2.16561">
        <ele>216.288111</ele>
        <time>2025-06-19T07:06:35.508Z</time>
      </trkpt>
      <trkpt lat="49.28263" lon="2.16566">
        <ele>215.653336</ele>
        <time>2025-06-19T07:06:36.498Z</time>
      </trkpt>
      <trkpt lat="49.28252" lon="2.1657">
        <ele>215.032361</ele>
        <time>2025-06-19T07:06:37.497Z</time>
      </trkpt>
      <trkpt lat="49.28241" lon="2.16575">
        <ele>214.416286</ele>
        <time>2025-06-19T07:06:38.507Z</time>
      </trkpt>
      <trkpt lat="49.2823" lon="2.16579">
        <ele>213.814223</ele>
        <time>2025-06-19T07:06:39.505Z</time>
      </trkpt>
      <trkpt lat="49.28219" lon="2.16584">
        <ele>213.206101</ele>
        <time>2025-06-19T07:06:40.509Z</time>
      </trkpt>
      <trkpt lat="49.28208" lon="2.16589">
        <ele>212.601239</ele>
        <time>2025-06-19T07:06:41.507Z</time>
      </trkpt>
      <trkpt lat="49.28197" lon="2.16594">
        <ele>212.008697</ele>
        <time>2025-06-19T07:06:42.501Z</time>
      </trkpt>
      <trkpt lat="49.28187" lon="2.16598">
        <ele>211.422068</ele>
        <time>2025-06-19T07:06:43.511Z</time>
      </trkpt>
      <trkpt lat="49.28176" lon="2.16603">
        <ele>210.845713</ele>
        <time>2025-06-19T07:06:44.514Z</time>
      </trkpt>
      <trkpt lat="49.28166" lon="2.16608">
        <ele>210.277651</ele>
        <time>2025-06-19T07:06:45.505Z</time>
      </trkpt>
      <trkpt lat="49.28156" lon="2.16612">
        <ele>209.732479</ele>
        <time>2025-06-19T07:06:46.506Z</time>
      </trkpt>
      <trkpt lat="49.28146" lon="2.16615">
        <ele>209.17697</ele>
        <time>2025-06-19T07:06:47.514Z</time>
      </trkpt>
      <trkpt lat="49.28136" lon="2.1662">
        <ele>208.611824</ele>
        <time>2025-06-19T07:06:48.515Z</time>
      </trkpt>
      <trkpt lat="49.28126" lon="2.16624">
        <ele>208.087288</ele>
        <time>2025-06-19T07:06:49.524Z</time>
      </trkpt>
      <trkpt lat="49.28116" lon="2.16628">
        <ele>207.542648</ele>
        <time>2025-06-19T07:06:50.512Z</time>
      </trkpt>
      <trkpt lat="49.28107" lon="2.16632">
        <ele>207.531611</ele>
        <time>2025-06-19T07:06:51.515Z</time>
      </trkpt>
      <trkpt lat="49.28097" lon="2.16637">
        <ele>207.688074</ele>
        <time>2025-06-19T07:06:52.521Z</time>
      </trkpt>
      <trkpt lat="49.28086" lon="2.16641">
        <ele>207.84968</ele>
        <time>2025-06-19T07:06:53.518Z</time>
      </trkpt>
      <trkpt lat="49.28075" lon="2.16645">
        <ele>208.01531</ele>
        <time>2025-06-19T07:06:54.520Z</time>
      </trkpt>
      <trkpt lat="49.28064" lon="2.16649">
        <ele>208.177559</ele>
        <time>2025-06-19T07:06:55.516Z</time>
      </trkpt>
      <trkpt lat="49.28053" lon="2.16651">
        <ele>208.341203</ele>
        <time>2025-06-19T07:06:56.504Z</time>
      </trkpt>
      <trkpt lat="49.28042" lon="2.16653">
        <ele>208.502434</ele>
        <time>2025-06-19T07:06:57.514Z</time>
      </trkpt>
      <trkpt lat="49.28031" lon="2.16654">
        <ele>208.666257</ele>
        <time>2025-06-19T07:06:58.519Z</time>
      </trkpt>
      <trkpt lat="49.28021" lon="2.16655">
        <ele>208.81941</ele>
        <time>2025-06-19T07:06:59.514Z</time>
      </trkpt>
      <trkpt lat="49.28011" lon="2.16656">
        <ele>208.966822</ele>
        <time>2025-06-19T07:07:00.515Z</time>
      </trkpt>
      <trkpt lat="49.28001" lon="2.16657">
        <ele>209.108645</ele>
        <time>2025-06-19T07:07:01.525Z</time>
      </trkpt>
      <trkpt lat="49.27984" lon="2.16659">
        <ele>209.359286</ele>
        <time>2025-06-19T07:07:03.513Z</time>
      </trkpt>
      <trkpt lat="49.27969" lon="2.16659">
        <ele>209.583042</ele>
        <time>2025-06-19T07:07:05.512Z</time>
      </trkpt>
      <trkpt lat="49.27955" lon="2.16661">
        <ele>209.795439</ele>
        <time>2025-06-19T07:07:07.510Z</time>
      </trkpt>
      <trkpt lat="49.27941" lon="2.16663">
        <ele>209.996405</ele>
        <time>2025-06-19T07:07:09.514Z</time>
      </trkpt>
      <trkpt lat="49.27929" lon="2.16663">
        <ele>210.544394</ele>
        <time>2025-06-19T07:07:11.520Z</time>
      </trkpt>
      <trkpt lat="49.27919" lon="2.16664">
        <ele>211.20787</ele>
        <time>2025-06-19T07:07:13.511Z</time>
      </trkpt>
      <trkpt lat="49.27906" lon="2.16665">
        <ele>212.046273</ele>
        <time>2025-06-19T07:07:16.514Z</time>
      </trkpt>
      <trkpt lat="49.27894" lon="2.16666">
        <ele>212.775978</ele>
        <time>2025-06-19T07:07:19.521Z</time>
      </trkpt>
      <trkpt lat="49.27884" lon="2.16668">
        <ele>213.429408</ele>
        <time>2025-06-19T07:07:22.517Z</time>
      </trkpt>
      <trkpt lat="49.27874" lon="2.16669">
        <ele>214.102069</ele>
        <time>2025-06-19T07:07:25.501Z</time>
      </trkpt>
      <trkpt lat="49.27864" lon="2.1667">
        <ele>214.761159</ele>
        <time>2025-06-19T07:07:28.518Z</time>
      </trkpt>
      <trkpt lat="49.27854" lon="2.16671">
        <ele>215.399785</ele>
        <time>2025-06-19T07:07:31.510Z</time>
      </trkpt>
      <trkpt lat="49.27844" lon="2.16672">
        <ele>216.005807</ele>
        <time>2025-06-19T07:07:34.511Z</time>
      </trkpt>
      <trkpt lat="49.27835" lon="2.16673">
        <ele>216.587925</ele>
        <time>2025-06-19T07:07:37.507Z</time>
      </trkpt>
      <trkpt lat="49.27826" lon="2.16674">
        <ele>217.174457</ele>
        <time>2025-06-19T07:07:40.508Z</time>
      </trkpt>
      <trkpt lat="49.27815" lon="2.16676">
        <ele>217.893225</ele>
        <time>2025-06-19T07:07:44.519Z</time>
      </trkpt>
      <trkpt lat="49.27805" lon="2.16677">
        <ele>218.540246</ele>
        <time>2025-06-19T07:07:48.519Z</time>
      </trkpt>
      <trkpt lat="49.27796" lon="2.16679">
        <ele>219.165304</ele>
        <time>2025-06-19T07:07:52.515Z</time>
      </trkpt>
      <trkpt lat="49.27786" lon="2.1668">
        <ele>219.75167</ele>
        <time>2025-06-19T07:07:56.507Z</time>
      </trkpt>
      <trkpt lat="49.27776" lon="2.1668">
        <ele>220.421386</ele>
        <time>2025-06-19T07:08:00.512Z</time>
      </trkpt>
      <trkpt lat="49.27766" lon="2.16681">
        <ele>221.0667</ele>
        <time>2025-06-19T07:08:04.511Z</time>
      </trkpt>
      <trkpt lat="49.27756" lon="2.16682">
        <ele>221.65629</ele>
        <time>2025-06-19T07:08:08.522Z</time>
      </trkpt>
      <trkpt lat="49.27747" lon="2.16683">
        <ele>221.756048</ele>
        <time>2025-06-19T07:08:12.515Z</time>
      </trkpt>
      <trkpt lat="49.27738" lon="2.16684">
        <ele>221.860161</ele>
        <time>2025-06-19T07:08:16.520Z</time>
      </trkpt>
      <trkpt lat="49.27729" lon="2.16686">
        <ele>221.963735</ele>
        <time>2025-06-19T07:08:20.515Z</time>
      </trkpt>
      <trkpt lat="49.27719" lon="2.16688">
        <ele>222.065027</ele>
        <time>2025-06-19T07:08:24.527Z</time>
      </trkpt>
      <trkpt lat="49.27709" lon="2.16686">
        <ele>222.177079</ele>
        <time>2025-06-19T07:08:29.524Z</time>
      </trkpt>
      <trkpt lat="49.27704" lon="2.16674">
        <ele>222.284571</ele>
        <time>2025-06-19T07:08:35.512Z</time>
      </trkpt>
      <trkpt lat="49.27708" lon="2.16658">
        <ele>222.408644</ele>
        <time>2025-06-19T07:08:40.518Z</time>
      </trkpt>
      <trkpt lat="49.27714" lon="2.16644">
        <ele>222.526377</ele>
        <time>2025-06-19T07:08:44.518Z</time>
      </trkpt>
      <trkpt lat="49.27719" lon="2.1663">
        <ele>222.641661</ele>
        <time>2025-06-19T07:08:48.513Z</time>
      </trkpt>
      <trkpt lat="49.27723" lon="2.16615">
        <ele>222.76175</ele>
        <time>2025-06-19T07:08:52.522Z</time>
      </trkpt>
      <trkpt lat="49.27727" lon="2.166">
        <ele>222.873984</ele>
        <time>2025-06-19T07:08:56.515Z</time>
      </trkpt>
      <trkpt lat="49.2773" lon="2.16586">
        <ele>222.983309</ele>
        <time>2025-06-19T07:09:00.506Z</time>
      </trkpt>
      <trkpt lat="49.27731" lon="2.1657">
        <ele>223.099992</ele>
        <time>2025-06-19T07:09:04.506Z</time>
      </trkpt>
      <trkpt lat="49.27732" lon="2.16553">
        <ele>223.225905</ele>
        <time>2025-06-19T07:09:08.515Z</time>
      </trkpt>
      <trkpt lat="49.27732" lon="2.16534">
        <ele>223.356678</ele>
        <time>2025-06-19T07:09:12.510Z</time>
      </trkpt>
      <trkpt lat="49.2773" lon="2.1652">
        <ele>223.462039</ele>
        <time>2025-06-19T07:09:15.517Z</time>
      </trkpt>
      <trkpt lat="49.27728" lon="2.16506">
        <ele>223.561593</ele>
        <time>2025-06-19T07:09:18.504Z</time>
      </trkpt>
      <trkpt lat="49.27725" lon="2.1649">
        <ele>223.698817</ele>
        <time>2025-06-19T07:09:22.505Z</time>
      </trkpt>
      <trkpt lat="49.27721" lon="2.16477">
        <ele>223.820016</ele>
        <time>2025-06-19T07:09:25.506Z</time>
      </trkpt>
      <trkpt lat="49.27713" lon="2.16463">
        <ele>223.976776</ele>
        <time>2025-06-19T07:09:29.518Z</time>
      </trkpt>
      <trkpt lat="49.27705" lon="2.16451">
        <ele>224.125991</ele>
        <time>2025-06-19T07:09:33.506Z</time>
      </trkpt>
      <trkpt lat="49.27698" lon="2.16442">
        <ele>224.246688</ele>
        <time>2025-06-19T07:09:36.508Z</time>
      </trkpt>
      <trkpt lat="49.27691" lon="2.16433">
        <ele>224.370004</ele>
        <time>2025-06-19T07:09:39.508Z</time>
      </trkpt>
      <trkpt lat="49.27683" lon="2.16426">
        <ele>224.493051</ele>
        <time>2025-06-19T07:09:42.518Z</time>
      </trkpt>
      <trkpt lat="49.27675" lon="2.16419">
        <ele>224.617381</ele>
        <time>2025-06-19T07:09:45.508Z</time>
      </trkpt>
      <trkpt lat="49.27666" lon="2.16411">
        <ele>224.749373</ele>
        <time>2025-06-19T07:09:48.517Z</time>
      </trkpt>
      <trkpt lat="49.27657" lon="2.16404">
        <ele>224.890906</ele>
        <time>2025-06-19T07:09:51.513Z</time>
      </trkpt>
      <trkpt lat="49.27647" lon="2.16397">
        <ele>225.039655</ele>
        <time>2025-06-19T07:09:54.523Z</time>
      </trkpt>
      <trkpt lat="49.27635" lon="2.16391">
        <ele>225.198369</ele>
        <time>2025-06-19T07:09:57.514Z</time>
      </trkpt>
      <trkpt lat="49.27623" lon="2.16385">
        <ele>225.370514</ele>
        <time>2025-06-19T07:10:00.511Z</time>
      </trkpt>
      <trkpt lat="49.27614" lon="2.16382">
        <ele>225.493593</ele>
        <time>2025-06-19T07:10:02.515Z</time>
      </trkpt>
      <trkpt lat="49.27605" lon="2.16379">
        <ele>225.618309</ele>
        <time>2025-06-19T07:10:04.526Z</time>
      </trkpt>
      <trkpt lat="49.27596" lon="2.16376">
        <ele>225.743025</ele>
        <time>2025-06-19T07:10:06.504Z</time>
      </trkpt>
      <trkpt lat="49.27586" lon="2.16372">
        <ele>225.87105</ele>
        <time>2025-06-19T07:10:08.520Z</time>
      </trkpt>
      <trkpt lat="49.27577" lon="2.16368">
        <ele>226.000586</ele>
        <time>2025-06-19T07:10:10.511Z</time>
      </trkpt>
      <trkpt lat="49.27567" lon="2.16366">
        <ele>225.948353</ele>
        <time>2025-06-19T07:10:12.513Z</time>
      </trkpt>
      <trkpt lat="49.27557" lon="2.16362">
        <ele>225.854557</ele>
        <time>2025-06-19T07:10:14.511Z</time>
      </trkpt>
      <trkpt lat="49.27546" lon="2.16359">
        <ele>225.761681</ele>
        <time>2025-06-19T07:10:16.524Z</time>
      </trkpt>
      <trkpt lat="49.27535" lon="2.16356">
        <ele>225.663552</ele>
        <time>2025-06-19T07:10:18.514Z</time>
      </trkpt>
      <trkpt lat="49.27525" lon="2.16352">
        <ele>225.567281</ele>
        <time>2025-06-19T07:10:20.511Z</time>
      </trkpt>
      <trkpt lat="49.27514" lon="2.16349">
        <ele>225.47026</ele>
        <time>2025-06-19T07:10:22.532Z</time>
      </trkpt>
      <trkpt lat="49.27503" lon="2.16345">
        <ele>225.367421</ele>
        <time>2025-06-19T07:10:24.510Z</time>
      </trkpt>
      <trkpt lat="49.27491" lon="2.16342">
        <ele>225.264915</ele>
        <time>2025-06-19T07:10:26.517Z</time>
      </trkpt>
      <trkpt lat="49.2748" lon="2.16338">
        <ele>225.158817</ele>
        <time>2025-06-19T07:10:28.515Z</time>
      </trkpt>
      <trkpt lat="49.27468" lon="2.16333">
        <ele>225.048793</ele>
        <time>2025-06-19T07:10:30.506Z</time>
      </trkpt>
      <trkpt lat="49.27455" lon="2.16329">
        <ele>224.935788</ele>
        <time>2025-06-19T07:10:32.515Z</time>
      </trkpt>
      <trkpt lat="49.27443" lon="2.16325">
        <ele>224.82537</ele>
        <time>2025-06-19T07:10:34.513Z</time>
      </trkpt>
      <trkpt lat="49.27431" lon="2.16321">
        <ele>224.712982</ele>
        <time>2025-06-19T07:10:36.508Z</time>
      </trkpt>
      <trkpt lat="49.27418" lon="2.16318">
        <ele>224.601464</ele>
        <time>2025-06-19T07:10:38.516Z</time>
      </trkpt>
      <trkpt lat="49.27406" lon="2.16313">
        <ele>224.487102</ele>
        <time>2025-06-19T07:10:40.515Z</time>
      </trkpt>
      <trkpt lat="49.27394" lon="2.1631">
        <ele>224.411524</ele>
        <time>2025-06-19T07:10:42.520Z</time>
      </trkpt>
      <trkpt lat="49.27381" lon="2.16306">
        <ele>224.379649</ele>
        <time>2025-06-19T07:10:44.511Z</time>
      </trkpt>
      <trkpt lat="49.27369" lon="2.16303">
        <ele>224.347333</ele>
        <time>2025-06-19T07:10:46.505Z</time>
      </trkpt>
      <trkpt lat="49.27357" lon="2.16299">
        <ele>224.314309</ele>
        <time>2025-06-19T07:10:48.504Z</time>
      </trkpt>
      <trkpt lat="49.27343" lon="2.16294">
        <ele>224.279551</ele>
        <time>2025-06-19T07:10:50.500Z</time>
      </trkpt>
      <trkpt lat="49.2733" lon="2.1629">
        <ele>224.244654</ele>
        <time>2025-06-19T07:10:52.512Z</time>
      </trkpt>
      <trkpt lat="49.27317" lon="2.16285">
        <ele>224.208676</ele>
        <time>2025-06-19T07:10:54.508Z</time>
      </trkpt>
      <trkpt lat="49.27303" lon="2.16281">
        <ele>224.173192</ele>
        <time>2025-06-19T07:10:56.509Z</time>
      </trkpt>
      <trkpt lat="49.2729" lon="2.16277">
        <ele>224.138148</ele>
        <time>2025-06-19T07:10:58.516Z</time>
      </trkpt>
      <trkpt lat="49.27277" lon="2.16273">
        <ele>224.103233</ele>
        <time>2025-06-19T07:11:00.516Z</time>
      </trkpt>
      <trkpt lat="49.27263" lon="2.16269">
        <ele>224.06797</ele>
        <time>2025-06-19T07:11:02.516Z</time>
      </trkpt>
      <trkpt lat="49.2725" lon="2.16265">
        <ele>224.033213</ele>
        <time>2025-06-19T07:11:04.512Z</time>
      </trkpt>
      <trkpt lat="49.27236" lon="2.16261">
        <ele>223.997729</ele>
        <time>2025-06-19T07:11:06.517Z</time>
      </trkpt>
      <trkpt lat="49.27223" lon="2.16257">
        <ele>223.962718</ele>
        <time>2025-06-19T07:11:08.507Z</time>
      </trkpt>
      <trkpt lat="49.2721" lon="2.16253">
        <ele>223.888066</ele>
        <time>2025-06-19T07:11:10.503Z</time>
      </trkpt>
      <trkpt lat="49.27196" lon="2.16249">
        <ele>223.813204</ele>
        <time>2025-06-19T07:11:12.517Z</time>
      </trkpt>
      <trkpt lat="49.27183" lon="2.16245">
        <ele>223.737457</ele>
        <time>2025-06-19T07:11:14.518Z</time>
      </trkpt>
      <trkpt lat="49.2717" lon="2.16241">
        <ele>223.664216</ele>
        <time>2025-06-19T07:11:16.519Z</time>
      </trkpt>
      <trkpt lat="49.27157" lon="2.16237">
        <ele>223.590974</ele>
        <time>2025-06-19T07:11:18.526Z</time>
      </trkpt>
      <trkpt lat="49.27143" lon="2.16233">
        <ele>223.516688</ele>
        <time>2025-06-19T07:11:20.505Z</time>
      </trkpt>
      <trkpt lat="49.2713" lon="2.16229">
        <ele>223.444386</ele>
        <time>2025-06-19T07:11:22.509Z</time>
      </trkpt>
      <trkpt lat="49.27117" lon="2.16224">
        <ele>223.369157</ele>
        <time>2025-06-19T07:11:24.515Z</time>
      </trkpt>
      <trkpt lat="49.27104" lon="2.16219">
        <ele>223.297322</ele>
        <time>2025-06-19T07:11:26.520Z</time>
      </trkpt>
      <trkpt lat="49.27091" lon="2.16216">
        <ele>223.223</ele>
        <time>2025-06-19T07:11:28.524Z</time>
      </trkpt>
      <trkpt lat="49.27078" lon="2.16211">
        <ele>223.146619</ele>
        <time>2025-06-19T07:11:30.511Z</time>
      </trkpt>
      <trkpt lat="49.27065" lon="2.16205">
        <ele>223.072036</ele>
        <time>2025-06-19T07:11:32.514Z</time>
      </trkpt>
      <trkpt lat="49.27051" lon="2.16199">
        <ele>222.997697</ele>
        <time>2025-06-19T07:11:34.524Z</time>
      </trkpt>
      <trkpt lat="49.27039" lon="2.16193">
        <ele>222.731515</ele>
        <time>2025-06-19T07:11:36.520Z</time>
      </trkpt>
      <trkpt lat="49.27026" lon="2.16187">
        <ele>222.368781</ele>
        <time>2025-06-19T07:11:38.524Z</time>
      </trkpt>
      <trkpt lat="49.27013" lon="2.1618">
        <ele>222.013179</ele>
        <time>2025-06-19T07:11:40.516Z</time>
      </trkpt>
      <trkpt lat="49.27002" lon="2.16174">
        <ele>221.685507</ele>
        <time>2025-06-19T07:11:42.528Z</time>
      </trkpt>
      <trkpt lat="49.26991" lon="2.16167">
        <ele>221.365264</ele>
        <time>2025-06-19T07:11:44.515Z</time>
      </trkpt>
      <trkpt lat="49.26981" lon="2.16157">
        <ele>221.042968</ele>
        <time>2025-06-19T07:11:46.524Z</time>
      </trkpt>
      <trkpt lat="49.26975" lon="2.1614">
        <ele>220.711766</ele>
        <time>2025-06-19T07:11:48.521Z</time>
      </trkpt>
      <trkpt lat="49.26969" lon="2.16125">
        <ele>220.400756</ele>
        <time>2025-06-19T07:11:50.512Z</time>
      </trkpt>
      <trkpt lat="49.2696" lon="2.16119">
        <ele>220.130697</ele>
        <time>2025-06-19T07:11:52.522Z</time>
      </trkpt>
      <trkpt lat="49.2695" lon="2.16125">
        <ele>219.844411</ele>
        <time>2025-06-19T07:11:54.508Z</time>
      </trkpt>
      <trkpt lat="49.2694" lon="2.1613">
        <ele>219.570036</ele>
        <time>2025-06-19T07:11:56.525Z</time>
      </trkpt>
      <trkpt lat="49.2693" lon="2.16131">
        <ele>219.301525</ele>
        <time>2025-06-19T07:11:59.506Z</time>
      </trkpt>
      <trkpt lat="49.26921" lon="2.1614">
        <ele>219.016694</ele>
        <time>2025-06-19T07:12:05.502Z</time>
      </trkpt>
      <trkpt lat="49.26916" lon="2.16155">
        <ele>218.724581</ele>
        <time>2025-06-19T07:12:08.508Z</time>
      </trkpt>
      <trkpt lat="49.26911" lon="2.16167">
        <ele>218.47679</ele>
        <time>2025-06-19T07:12:10.513Z</time>
      </trkpt>
      <trkpt lat="49.26903" lon="2.16176">
        <ele>218.209377</ele>
        <time>2025-06-19T07:12:12.510Z</time>
      </trkpt>
      <trkpt lat="49.26895" lon="2.16184">
        <ele>218.049686</ele>
        <time>2025-06-19T07:12:14.519Z</time>
      </trkpt>
      <trkpt lat="49.26887" lon="2.16192">
        <ele>217.922665</ele>
        <time>2025-06-19T07:12:16.520Z</time>
      </trkpt>
      <trkpt lat="49.26878" lon="2.162">
        <ele>217.792568</ele>
        <time>2025-06-19T07:12:18.514Z</time>
      </trkpt>
      <trkpt lat="49.2687" lon="2.16209">
        <ele>217.668163</ele>
        <time>2025-06-19T07:12:20.507Z</time>
      </trkpt>
      <trkpt lat="49.26862" lon="2.16215">
        <ele>217.543441</ele>
        <time>2025-06-19T07:12:22.504Z</time>
      </trkpt>
      <trkpt lat="49.26853" lon="2.16222">
        <ele>217.419065</ele>
        <time>2025-06-19T07:12:24.516Z</time>
      </trkpt>
      <trkpt lat="49.26844" lon="2.16229">
        <ele>217.286686</ele>
        <time>2025-06-19T07:12:26.505Z</time>
      </trkpt>
      <trkpt lat="49.26836" lon="2.16237">
        <ele>217.167855</ele>
        <time>2025-06-19T07:12:28.510Z</time>
      </trkpt>
      <trkpt lat="49.26828" lon="2.16246">
        <ele>217.041428</ele>
        <time>2025-06-19T07:12:30.514Z</time>
      </trkpt>
      <trkpt lat="49.2682" lon="2.16254">
        <ele>216.91417</ele>
        <time>2025-06-19T07:12:32.520Z</time>
      </trkpt>
      <trkpt lat="49.2681" lon="2.16262">
        <ele>216.777003</ele>
        <time>2025-06-19T07:12:34.515Z</time>
      </trkpt>
      <trkpt lat="49.26801" lon="2.16271">
        <ele>216.634597</ele>
        <time>2025-06-19T07:12:36.517Z</time>
      </trkpt>
      <trkpt lat="49.26791" lon="2.16278">
        <ele>216.495321</ele>
        <time>2025-06-19T07:12:38.515Z</time>
      </trkpt>
      <trkpt lat="49.26781" lon="2.16285">
        <ele>216.349874</ele>
        <time>2025-06-19T07:12:40.508Z</time>
      </trkpt>
      <trkpt lat="49.26771" lon="2.16292">
        <ele>216.207823</ele>
        <time>2025-06-19T07:12:42.509Z</time>
      </trkpt>
      <trkpt lat="49.26761" lon="2.16298">
        <ele>216.068515</ele>
        <time>2025-06-19T07:12:44.507Z</time>
      </trkpt>
      <trkpt lat="49.26751" lon="2.16304">
        <ele>215.925155</ele>
        <time>2025-06-19T07:12:46.511Z</time>
      </trkpt>
      <trkpt lat="49.2674" lon="2.1631">
        <ele>215.749411</ele>
        <time>2025-06-19T07:12:48.522Z</time>
      </trkpt>
      <trkpt lat="49.2673" lon="2.16316">
        <ele>215.524318</ele>
        <time>2025-06-19T07:12:50.504Z</time>
      </trkpt>
      <trkpt lat="49.2672" lon="2.16323">
        <ele>215.293355</ele>
        <time>2025-06-19T07:12:52.519Z</time>
      </trkpt>
      <trkpt lat="49.26709" lon="2.16328">
        <ele>215.064176</ele>
        <time>2025-06-19T07:12:54.511Z</time>
      </trkpt>
      <trkpt lat="49.26698" lon="2.16333">
        <ele>214.820307</ele>
        <time>2025-06-19T07:12:56.507Z</time>
      </trkpt>
      <trkpt lat="49.26687" lon="2.16337">
        <ele>214.582916</ele>
        <time>2025-06-19T07:12:58.513Z</time>
      </trkpt>
      <trkpt lat="49.26676" lon="2.16339">
        <ele>214.353394</ele>
        <time>2025-06-19T07:13:00.521Z</time>
      </trkpt>
      <trkpt lat="49.26664" lon="2.16341">
        <ele>214.101576</ele>
        <time>2025-06-19T07:13:02.506Z</time>
      </trkpt>
      <trkpt lat="49.26651" lon="2.16343">
        <ele>213.842752</ele>
        <time>2025-06-19T07:13:04.502Z</time>
      </trkpt>
      <trkpt lat="49.26639" lon="2.16346">
        <ele>213.587924</ele>
        <time>2025-06-19T07:13:06.507Z</time>
      </trkpt>
      <trkpt lat="49.26627" lon="2.16349">
        <ele>213.340931</ele>
        <time>2025-06-19T07:13:08.518Z</time>
      </trkpt>
      <trkpt lat="49.26615" lon="2.16352">
        <ele>213.085361</ele>
        <time>2025-06-19T07:13:10.513Z</time>
      </trkpt>
      <trkpt lat="49.26603" lon="2.16356">
        <ele>212.834118</ele>
        <time>2025-06-19T07:13:12.511Z</time>
      </trkpt>
      <trkpt lat="49.26592" lon="2.16358">
        <ele>212.590022</ele>
        <time>2025-06-19T07:13:14.520Z</time>
      </trkpt>
      <trkpt lat="49.26579" lon="2.1636">
        <ele>212.337532</ele>
        <time>2025-06-19T07:13:16.503Z</time>
      </trkpt>
      <trkpt lat="49.26568" lon="2.16363">
        <ele>212.099946</ele>
        <time>2025-06-19T07:13:18.513Z</time>
      </trkpt>
      <trkpt lat="49.26558" lon="2.16368">
        <ele>211.954559</ele>
        <time>2025-06-19T07:13:20.507Z</time>
      </trkpt>
      <trkpt lat="49.26549" lon="2.16371">
        <ele>211.823957</ele>
        <time>2025-06-19T07:13:22.509Z</time>
      </trkpt>
      <trkpt lat="49.26539" lon="2.16373">
        <ele>211.682358</ele>
        <time>2025-06-19T07:13:24.502Z</time>
      </trkpt>
      <trkpt lat="49.26529" lon="2.16374">
        <ele>211.546865</ele>
        <time>2025-06-19T07:13:26.503Z</time>
      </trkpt>
      <trkpt lat="49.26519" lon="2.16375">
        <ele>211.404283</ele>
        <time>2025-06-19T07:13:28.505Z</time>
      </trkpt>
      <trkpt lat="49.26509" lon="2.16377">
        <ele>211.260218</ele>
        <time>2025-06-19T07:13:30.515Z</time>
      </trkpt>
      <trkpt lat="49.26499" lon="2.16381">
        <ele>211.115936</ele>
        <time>2025-06-19T07:13:32.515Z</time>
      </trkpt>
      <trkpt lat="49.26488" lon="2.16384">
        <ele>210.961</ele>
        <time>2025-06-19T07:13:34.519Z</time>
      </trkpt>
      <trkpt lat="49.26477" lon="2.16387">
        <ele>210.805331</ele>
        <time>2025-06-19T07:13:36.511Z</time>
      </trkpt>
      <trkpt lat="49.26466" lon="2.16391">
        <ele>210.647289</ele>
        <time>2025-06-19T07:13:38.507Z</time>
      </trkpt>
      <trkpt lat="49.26454" lon="2.16393">
        <ele>210.478873</ele>
        <time>2025-06-19T07:13:40.506Z</time>
      </trkpt>
      <trkpt lat="49.26443" lon="2.16397">
        <ele>210.314638</ele>
        <time>2025-06-19T07:13:42.500Z</time>
      </trkpt>
      <trkpt lat="49.26431" lon="2.164">
        <ele>210.142562</ele>
        <time>2025-06-19T07:13:44.509Z</time>
      </trkpt>
      <trkpt lat="49.26418" lon="2.16404">
        <ele>209.970987</ele>
        <time>2025-06-19T07:13:46.506Z</time>
      </trkpt>
      <trkpt lat="49.26407" lon="2.16407">
        <ele>209.802475</ele>
        <time>2025-06-19T07:13:48.516Z</time>
      </trkpt>
      <trkpt lat="49.26394" lon="2.16409">
        <ele>209.631186</ele>
        <time>2025-06-19T07:13:50.504Z</time>
      </trkpt>
      <trkpt lat="49.26382" lon="2.16409">
        <ele>209.27677</ele>
        <time>2025-06-19T07:13:52.505Z</time>
      </trkpt>
      <trkpt lat="49.26369" lon="2.16409">
        <ele>208.866647</ele>
        <time>2025-06-19T07:13:54.506Z</time>
      </trkpt>
      <trkpt lat="49.26357" lon="2.16409">
        <ele>208.456612</ele>
        <time>2025-06-19T07:13:56.510Z</time>
      </trkpt>
      <trkpt lat="49.26344" lon="2.16411">
        <ele>208.05183</ele>
        <time>2025-06-19T07:13:58.512Z</time>
      </trkpt>
      <trkpt lat="49.26331" lon="2.1641">
        <ele>207.635281</ele>
        <time>2025-06-19T07:14:00.505Z</time>
      </trkpt>
      <trkpt lat="49.26319" lon="2.16411">
        <ele>207.218602</ele>
        <time>2025-06-19T07:14:02.508Z</time>
      </trkpt>
      <trkpt lat="49.26306" lon="2.16411">
        <ele>206.821494</ele>
        <time>2025-06-19T07:14:04.503Z</time>
      </trkpt>
      <trkpt lat="49.26294" lon="2.16411">
        <ele>206.421171</ele>
        <time>2025-06-19T07:14:06.506Z</time>
      </trkpt>
      <trkpt lat="49.26281" lon="2.16411">
        <ele>206.011048</ele>
        <time>2025-06-19T07:14:08.506Z</time>
      </trkpt>
      <trkpt lat="49.26269" lon="2.16413">
        <ele>205.60951</ele>
        <time>2025-06-19T07:14:10.512Z</time>
      </trkpt>
      <trkpt lat="49.26257" lon="2.16414">
        <ele>205.214095</ele>
        <time>2025-06-19T07:14:12.510Z</time>
      </trkpt>
      <trkpt lat="49.26245" lon="2.16415">
        <ele>204.83631</ele>
        <time>2025-06-19T07:14:14.520Z</time>
      </trkpt>
      <trkpt lat="49.26234" lon="2.16416">
        <ele>204.468084</ele>
        <time>2025-06-19T07:14:16.510Z</time>
      </trkpt>
      <trkpt lat="49.26223" lon="2.16419">
        <ele>204.109099</ele>
        <time>2025-06-19T07:14:18.508Z</time>
      </trkpt>
      <trkpt lat="49.26213" lon="2.1642">
        <ele>203.766869</ele>
        <time>2025-06-19T07:14:20.516Z</time>
      </trkpt>
      <trkpt lat="49.26202" lon="2.1642">
        <ele>203.686818</ele>
        <time>2025-06-19T07:14:22.510Z</time>
      </trkpt>
      <trkpt lat="49.26192" lon="2.16422">
        <ele>203.63126</ele>
        <time>2025-06-19T07:14:24.511Z</time>
      </trkpt>
      <trkpt lat="49.26182" lon="2.16423">
        <ele>203.579649</ele>
        <time>2025-06-19T07:14:26.526Z</time>
      </trkpt>
      <trkpt lat="49.26171" lon="2.16425">
        <ele>203.522729</ele>
        <time>2025-06-19T07:14:28.512Z</time>
      </trkpt>
      <trkpt lat="49.2616" lon="2.16427">
        <ele>203.467085</ele>
        <time>2025-06-19T07:14:30.505Z</time>
      </trkpt>
      <trkpt lat="49.26149" lon="2.16432">
        <ele>203.409526</ele>
        <time>2025-06-19T07:14:32.509Z</time>
      </trkpt>
      <trkpt lat="49.26139" lon="2.16438">
        <ele>203.351407</ele>
        <time>2025-06-19T07:14:34.512Z</time>
      </trkpt>
      <trkpt lat="49.26129" lon="2.16447">
        <ele>203.293366</ele>
        <time>2025-06-19T07:14:36.519Z</time>
      </trkpt>
      <trkpt lat="49.26119" lon="2.16456">
        <ele>203.23465</ele>
        <time>2025-06-19T07:14:38.517Z</time>
      </trkpt>
      <trkpt lat="49.26109" lon="2.16463">
        <ele>203.17834</ele>
        <time>2025-06-19T07:14:40.514Z</time>
      </trkpt>
      <trkpt lat="49.26099" lon="2.16471">
        <ele>203.120807</ele>
        <time>2025-06-19T07:14:42.504Z</time>
      </trkpt>
      <trkpt lat="49.26089" lon="2.16478">
        <ele>203.064644</ele>
        <time>2025-06-19T07:14:44.513Z</time>
      </trkpt>
      <trkpt lat="49.26079" lon="2.16485">
        <ele>203.007229</ele>
        <time>2025-06-19T07:14:46.505Z</time>
      </trkpt>
      <trkpt lat="49.2607" lon="2.16492">
        <ele>202.955971</ele>
        <time>2025-06-19T07:14:48.510Z</time>
      </trkpt>
      <trkpt lat="49.26061" lon="2.16499">
        <ele>202.902567</ele>
        <time>2025-06-19T07:14:50.506Z</time>
      </trkpt>
      <trkpt lat="49.26052" lon="2.16506">
        <ele>202.85192</ele>
        <time>2025-06-19T07:14:52.515Z</time>
      </trkpt>
      <trkpt lat="49.26044" lon="2.16514">
        <ele>202.821676</ele>
        <time>2025-06-19T07:14:54.504Z</time>
      </trkpt>
      <trkpt lat="49.26036" lon="2.16523">
        <ele>202.892239</ele>
        <time>2025-06-19T07:14:56.506Z</time>
      </trkpt>
      <trkpt lat="49.26029" lon="2.16535">
        <ele>202.964396</ele>
        <time>2025-06-19T07:14:58.503Z</time>
      </trkpt>
      <trkpt lat="49.26024" lon="2.16546">
        <ele>203.03083</ele>
        <time>2025-06-19T07:15:00.506Z</time>
      </trkpt>
      <trkpt lat="49.26017" lon="2.16555">
        <ele>203.095136</ele>
        <time>2025-06-19T07:15:02.515Z</time>
      </trkpt>
      <trkpt lat="49.26006" lon="2.16562">
        <ele>203.182569</ele>
        <time>2025-06-19T07:15:05.508Z</time>
      </trkpt>
      <trkpt lat="49.25994" lon="2.16569">
        <ele>203.275266</ele>
        <time>2025-06-19T07:15:08.524Z</time>
      </trkpt>
      <trkpt lat="49.25981" lon="2.16575">
        <ele>203.370069</ele>
        <time>2025-06-19T07:15:11.504Z</time>
      </trkpt>
      <trkpt lat="49.25972" lon="2.1658">
        <ele>203.436754</ele>
        <time>2025-06-19T07:15:13.506Z</time>
      </trkpt>
      <trkpt lat="49.2596" lon="2.16582">
        <ele>203.524272</ele>
        <time>2025-06-19T07:15:16.510Z</time>
      </trkpt>
      <trkpt lat="49.2595" lon="2.16581">
        <ele>203.59527</ele>
        <time>2025-06-19T07:15:20.512Z</time>
      </trkpt>
      <trkpt lat="49.25944" lon="2.16592">
        <ele>203.664254</ele>
        <time>2025-06-19T07:15:24.507Z</time>
      </trkpt>
      <trkpt lat="49.25944" lon="2.16606">
        <ele>203.729699</ele>
        <time>2025-06-19T07:15:27.521Z</time>
      </trkpt>
      <trkpt lat="49.25942" lon="2.16621">
        <ele>203.801578</ele>
        <time>2025-06-19T07:15:30.519Z</time>
      </trkpt>
      <trkpt lat="49.25936" lon="2.16632">
        <ele>203.870002</ele>
        <time>2025-06-19T07:15:33.503Z</time>
      </trkpt>
      <trkpt lat="49.25926" lon="2.16634">
        <ele>203.940556</ele>
        <time>2025-06-19T07:15:36.525Z</time>
      </trkpt>
      <trkpt lat="49.25916" lon="2.16635">
        <ele>204.01406</ele>
        <time>2025-06-19T07:15:39.508Z</time>
      </trkpt>
      <trkpt lat="49.25904" lon="2.16635">
        <ele>204.096996</ele>
        <time>2025-06-19T07:15:43.506Z</time>
      </trkpt>
      <trkpt lat="49.25895" lon="2.16644">
        <ele>204.107611</ele>
        <time>2025-06-19T07:15:46.519Z</time>
      </trkpt>
      <trkpt lat="49.25888" lon="2.16658">
        <ele>204.119058</ele>
        <time>2025-06-19T07:15:49.505Z</time>
      </trkpt>
      <trkpt lat="49.25882" lon="2.16672">
        <ele>204.130579</ele>
        <time>2025-06-19T07:15:52.512Z</time>
      </trkpt>
      <trkpt lat="49.25874" lon="2.16684">
        <ele>204.142025</ele>
        <time>2025-06-19T07:15:55.508Z</time>
      </trkpt>
      <trkpt lat="49.25866" lon="2.16694">
        <ele>204.152858</ele>
        <time>2025-06-19T07:15:58.508Z</time>
      </trkpt>
      <trkpt lat="49.25858" lon="2.16703">
        <ele>204.162649</ele>
        <time>2025-06-19T07:16:01.524Z</time>
      </trkpt>
      <trkpt lat="49.25849" lon="2.16708">
        <ele>204.171755</ele>
        <time>2025-06-19T07:16:04.512Z</time>
      </trkpt>
      <trkpt lat="49.2584" lon="2.16711">
        <ele>204.181867</ele>
        <time>2025-06-19T07:16:07.521Z</time>
      </trkpt>
      <trkpt lat="49.2583" lon="2.16718">
        <ele>204.193007</ele>
        <time>2025-06-19T07:16:10.510Z</time>
      </trkpt>
      <trkpt lat="49.25819" lon="2.16725">
        <ele>204.204469</ele>
        <time>2025-06-19T07:16:13.507Z</time>
      </trkpt>
      <trkpt lat="49.25808" lon="2.16731">
        <ele>204.216308</ele>
        <time>2025-06-19T07:16:16.509Z</time>
      </trkpt>
      <trkpt lat="49.25797" lon="2.16739">
        <ele>204.229436</ele>
        <time>2025-06-19T07:16:19.517Z</time>
      </trkpt>
      <trkpt lat="49.25788" lon="2.16744">
        <ele>204.238785</ele>
        <time>2025-06-19T07:16:21.510Z</time>
      </trkpt>
      <trkpt lat="49.25779" lon="2.16748">
        <ele>204.248563</ele>
        <time>2025-06-19T07:16:23.514Z</time>
      </trkpt>
      <trkpt lat="49.25769" lon="2.16754">
        <ele>204.25889</ele>
        <time>2025-06-19T07:16:25.516Z</time>
      </trkpt>
      <trkpt lat="49.25761" lon="2.16762">
        <ele>204.269107</ele>
        <time>2025-06-19T07:16:27.505Z</time>
      </trkpt>
      <trkpt lat="49.25752" lon="2.1677">
        <ele>204.279385</ele>
        <time>2025-06-19T07:16:29.517Z</time>
      </trkpt>
      <trkpt lat="49.25744" lon="2.1678">
        <ele>204.075286</ele>
        <time>2025-06-19T07:16:31.504Z</time>
      </trkpt>
      <trkpt lat="49.25734" lon="2.1679">
        <ele>203.843108</ele>
        <time>2025-06-19T07:16:33.509Z</time>
      </trkpt>
      <trkpt lat="49.25725" lon="2.168">
        <ele>203.61612</ele>
        <time>2025-06-19T07:16:35.516Z</time>
      </trkpt>
      <trkpt lat="49.25716" lon="2.16808">
        <ele>203.396568</ele>
        <time>2025-06-19T07:16:37.514Z</time>
      </trkpt>
      <trkpt lat="49.25706" lon="2.16815">
        <ele>203.182494</ele>
        <time>2025-06-19T07:16:39.514Z</time>
      </trkpt>
      <trkpt lat="49.25697" lon="2.16821">
        <ele>202.968639</ele>
        <time>2025-06-19T07:16:41.514Z</time>
      </trkpt>
      <trkpt lat="49.25686" lon="2.16825">
        <ele>202.748591</ele>
        <time>2025-06-19T07:16:43.505Z</time>
      </trkpt>
      <trkpt lat="49.25675" lon="2.16829">
        <ele>202.519341</ele>
        <time>2025-06-19T07:16:45.510Z</time>
      </trkpt>
      <trkpt lat="49.25664" lon="2.16835">
        <ele>202.287107</ele>
        <time>2025-06-19T07:16:47.505Z</time>
      </trkpt>
      <trkpt lat="49.25652" lon="2.16841">
        <ele>202.027303</ele>
        <time>2025-06-19T07:16:49.515Z</time>
      </trkpt>
      <trkpt lat="49.2564" lon="2.16847">
        <ele>201.764996</ele>
        <time>2025-06-19T07:16:51.521Z</time>
      </trkpt>
      <trkpt lat="49.25627" lon="2.16853">
        <ele>201.495874</ele>
        <time>2025-06-19T07:16:53.508Z</time>
      </trkpt>
      <trkpt lat="49.25614" lon="2.1686">
        <ele>201.209211</ele>
        <time>2025-06-19T07:16:55.521Z</time>
      </trkpt>
      <trkpt lat="49.256" lon="2.16865">
        <ele>200.921536</ele>
        <time>2025-06-19T07:16:57.514Z</time>
      </trkpt>
      <trkpt lat="49.25586" lon="2.16869">
        <ele>200.627841</ele>
        <time>2025-06-19T07:16:59.514Z</time>
      </trkpt>
      <trkpt lat="49.25571" lon="2.16873">
        <ele>200.387285</ele>
        <time>2025-06-19T07:17:01.520Z</time>
      </trkpt>
      <trkpt lat="49.25557" lon="2.16878">
        <ele>200.149797</ele>
        <time>2025-06-19T07:17:03.516Z</time>
      </trkpt>
      <trkpt lat="49.25544" lon="2.1688">
        <ele>199.918116</ele>
        <time>2025-06-19T07:17:05.512Z</time>
      </trkpt>
      <trkpt lat="49.25529" lon="2.16882">
        <ele>199.681622</ele>
        <time>2025-06-19T07:17:07.511Z</time>
      </trkpt>
      <trkpt lat="49.25516" lon="2.16885">
        <ele>199.452527</ele>
        <time>2025-06-19T07:17:09.514Z</time>
      </trkpt>
      <trkpt lat="49.25502" lon="2.16889">
        <ele>199.220794</ele>
        <time>2025-06-19T07:17:11.519Z</time>
      </trkpt>
      <trkpt lat="49.25488" lon="2.16892">
        <ele>198.995948</ele>
        <time>2025-06-19T07:17:13.513Z</time>
      </trkpt>
      <trkpt lat="49.25475" lon="2.16896">
        <ele>198.764567</ele>
        <time>2025-06-19T07:17:15.514Z</time>
      </trkpt>
      <trkpt lat="49.25461" lon="2.16899">
        <ele>198.528282</ele>
        <time>2025-06-19T07:17:17.510Z</time>
      </trkpt>
      <trkpt lat="49.25447" lon="2.16903">
        <ele>198.294547</ele>
        <time>2025-06-19T07:17:19.505Z</time>
      </trkpt>
      <trkpt lat="49.25433" lon="2.16906">
        <ele>198.0648</ele>
        <time>2025-06-19T07:17:21.516Z</time>
      </trkpt>
      <trkpt lat="49.2542" lon="2.1691">
        <ele>197.840297</ele>
        <time>2025-06-19T07:17:23.514Z</time>
      </trkpt>
      <trkpt lat="49.25406" lon="2.16912">
        <ele>197.622779</ele>
        <time>2025-06-19T07:17:25.508Z</time>
      </trkpt>
      <trkpt lat="49.25392" lon="2.16917">
        <ele>197.426482</ele>
        <time>2025-06-19T07:17:27.507Z</time>
      </trkpt>
      <trkpt lat="49.25378" lon="2.1692">
        <ele>197.236916</ele>
        <time>2025-06-19T07:17:29.511Z</time>
      </trkpt>
      <trkpt lat="49.25365" lon="2.16923">
        <ele>197.056118</ele>
        <time>2025-06-19T07:17:31.509Z</time>
      </trkpt>
      <trkpt lat="49.25352" lon="2.16926">
        <ele>196.871807</ele>
        <time>2025-06-19T07:17:33.509Z</time>
      </trkpt>
      <trkpt lat="49.25338" lon="2.1693">
        <ele>196.683</ele>
        <time>2025-06-19T07:17:35.522Z</time>
      </trkpt>
      <trkpt lat="49.25325" lon="2.16934">
        <ele>196.495538</ele>
        <time>2025-06-19T07:17:37.517Z</time>
      </trkpt>
      <trkpt lat="49.25312" lon="2.16938">
        <ele>196.30858</ele>
        <time>2025-06-19T07:17:39.520Z</time>
      </trkpt>
      <trkpt lat="49.25298" lon="2.16942">
        <ele>196.120457</ele>
        <time>2025-06-19T07:17:41.513Z</time>
      </trkpt>
      <trkpt lat="49.25285" lon="2.16946">
        <ele>195.931796</ele>
        <time>2025-06-19T07:17:43.517Z</time>
      </trkpt>
      <trkpt lat="49.25271" lon="2.16951">
        <ele>195.735889</ele>
        <time>2025-06-19T07:17:45.504Z</time>
      </trkpt>
      <trkpt lat="49.25257" lon="2.16956">
        <ele>195.541317</ele>
        <time>2025-06-19T07:17:47.510Z</time>
      </trkpt>
      <trkpt lat="49.25242" lon="2.16961">
        <ele>195.340066</ele>
        <time>2025-06-19T07:17:49.515Z</time>
      </trkpt>
      <trkpt lat="49.25228" lon="2.16966">
        <ele>195.172896</ele>
        <time>2025-06-19T07:17:51.515Z</time>
      </trkpt>
      <trkpt lat="49.25214" lon="2.16971">
        <ele>195.096654</ele>
        <time>2025-06-19T07:17:53.512Z</time>
      </trkpt>
      <trkpt lat="49.252" lon="2.16976">
        <ele>195.018885</ele>
        <time>2025-06-19T07:17:55.522Z</time>
      </trkpt>
      <trkpt lat="49.25185" lon="2.1698">
        <ele>194.942835</ele>
        <time>2025-06-19T07:17:57.518Z</time>
      </trkpt>
      <trkpt lat="49.25171" lon="2.16984">
        <ele>194.865757</ele>
        <time>2025-06-19T07:17:59.503Z</time>
      </trkpt>
      <trkpt lat="49.25156" lon="2.16987">
        <ele>194.789127</ele>
        <time>2025-06-19T07:18:01.505Z</time>
      </trkpt>
      <trkpt lat="49.25142" lon="2.1699">
        <ele>194.71389</ele>
        <time>2025-06-19T07:18:03.507Z</time>
      </trkpt>
      <trkpt lat="49.25128" lon="2.16992">
        <ele>194.641461</ele>
        <time>2025-06-19T07:18:05.523Z</time>
      </trkpt>
      <trkpt lat="49.25114" lon="2.16994">
        <ele>194.566853</ele>
        <time>2025-06-19T07:18:07.509Z</time>
      </trkpt>
      <trkpt lat="49.25101" lon="2.16996">
        <ele>194.499199</ele>
        <time>2025-06-19T07:18:09.511Z</time>
      </trkpt>
      <trkpt lat="49.25088" lon="2.16998">
        <ele>194.42882</ele>
        <time>2025-06-19T07:18:11.504Z</time>
      </trkpt>
      <trkpt lat="49.25075" lon="2.16999">
        <ele>194.360644</ele>
        <time>2025-06-19T07:18:13.516Z</time>
      </trkpt>
      <trkpt lat="49.25062" lon="2.17">
        <ele>194.293086</ele>
        <time>2025-06-19T07:18:15.525Z</time>
      </trkpt>
      <trkpt lat="49.25049" lon="2.17003">
        <ele>194.241961</ele>
        <time>2025-06-19T07:18:17.511Z</time>
      </trkpt>
      <trkpt lat="49.25036" lon="2.17007">
        <ele>194.217891</ele>
        <time>2025-06-19T07:18:19.515Z</time>
      </trkpt>
      <trkpt lat="49.25024" lon="2.17011">
        <ele>194.194537</ele>
        <time>2025-06-19T07:18:21.514Z</time>
      </trkpt>
      <trkpt lat="49.25012" lon="2.17016">
        <ele>194.170943</ele>
        <time>2025-06-19T07:18:23.515Z</time>
      </trkpt>
      <trkpt lat="49.25001" lon="2.17022">
        <ele>194.148564</ele>
        <time>2025-06-19T07:18:25.509Z</time>
      </trkpt>
      <trkpt lat="49.2499" lon="2.17027">
        <ele>194.126693</ele>
        <time>2025-06-19T07:18:27.514Z</time>
      </trkpt>
      <trkpt lat="49.24978" lon="2.17033">
        <ele>194.104112</ele>
        <time>2025-06-19T07:18:29.507Z</time>
      </trkpt>
      <trkpt lat="49.24968" lon="2.1704">
        <ele>194.082276</ele>
        <time>2025-06-19T07:18:31.519Z</time>
      </trkpt>
      <trkpt lat="49.24957" lon="2.17047">
        <ele>194.060648</ele>
        <time>2025-06-19T07:18:33.524Z</time>
      </trkpt>
      <trkpt lat="49.24947" lon="2.17054">
        <ele>194.039114</ele>
        <time>2025-06-19T07:18:35.511Z</time>
      </trkpt>
      <trkpt lat="49.24937" lon="2.17062">
        <ele>194.01809</ele>
        <time>2025-06-19T07:18:37.508Z</time>
      </trkpt>
      <trkpt lat="49.24926" lon="2.17069">
        <ele>193.996452</ele>
        <time>2025-06-19T07:18:39.508Z</time>
      </trkpt>
      <trkpt lat="49.24916" lon="2.17077">
        <ele>193.975992</ele>
        <time>2025-06-19T07:18:41.511Z</time>
      </trkpt>
      <trkpt lat="49.24906" lon="2.17084">
        <ele>193.954953</ele>
        <time>2025-06-19T07:18:43.516Z</time>
      </trkpt>
      <trkpt lat="49.24896" lon="2.17092">
        <ele>193.934326</ele>
        <time>2025-06-19T07:18:45.511Z</time>
      </trkpt>
      <trkpt lat="49.24886" lon="2.17099">
        <ele>193.913195</ele>
        <time>2025-06-19T07:18:47.512Z</time>
      </trkpt>
      <trkpt lat="49.24877" lon="2.17106">
        <ele>193.719379</ele>
        <time>2025-06-19T07:18:49.511Z</time>
      </trkpt>
      <trkpt lat="49.24867" lon="2.17114">
        <ele>193.523383</ele>
        <time>2025-06-19T07:18:51.518Z</time>
      </trkpt>
      <trkpt lat="49.24857" lon="2.17121">
        <ele>193.325233</ele>
        <time>2025-06-19T07:18:53.506Z</time>
      </trkpt>
      <trkpt lat="49.24848" lon="2.17128">
        <ele>193.135181</ele>
        <time>2025-06-19T07:18:55.512Z</time>
      </trkpt>
      <trkpt lat="49.24838" lon="2.17135">
        <ele>192.940208</ele>
        <time>2025-06-19T07:18:57.507Z</time>
      </trkpt>
      <trkpt lat="49.24828" lon="2.17142">
        <ele>192.737932</ele>
        <time>2025-06-19T07:18:59.516Z</time>
      </trkpt>
      <trkpt lat="49.24818" lon="2.17149">
        <ele>192.535365</ele>
        <time>2025-06-19T07:19:01.516Z</time>
      </trkpt>
      <trkpt lat="49.24808" lon="2.17156">
        <ele>192.332613</ele>
        <time>2025-06-19T07:19:03.516Z</time>
      </trkpt>
      <trkpt lat="49.24798" lon="2.17162">
        <ele>192.135632</ele>
        <time>2025-06-19T07:19:05.510Z</time>
      </trkpt>
      <trkpt lat="49.24787" lon="2.17168">
        <ele>191.935497</ele>
        <time>2025-06-19T07:19:07.522Z</time>
      </trkpt>
      <trkpt lat="49.24777" lon="2.17175">
        <ele>191.731698</ele>
        <time>2025-06-19T07:19:09.511Z</time>
      </trkpt>
      <trkpt lat="49.24766" lon="2.17182">
        <ele>191.521331</ele>
        <time>2025-06-19T07:19:11.507Z</time>
      </trkpt>
      <trkpt lat="49.24756" lon="2.17189">
        <ele>191.317853</ele>
        <time>2025-06-19T07:19:13.513Z</time>
      </trkpt>
      <trkpt lat="49.24745" lon="2.17195">
        <ele>191.108548</ele>
        <time>2025-06-19T07:19:15.529Z</time>
      </trkpt>
      <trkpt lat="49.24735" lon="2.17202">
        <ele>190.904304</ele>
        <time>2025-06-19T07:19:17.511Z</time>
      </trkpt>
      <trkpt lat="49.24725" lon="2.17208">
        <ele>190.7075</ele>
        <time>2025-06-19T07:19:19.521Z</time>
      </trkpt>
      <trkpt lat="49.24715" lon="2.17215">
        <ele>190.426703</ele>
        <time>2025-06-19T07:19:21.520Z</time>
      </trkpt>
      <trkpt lat="49.24705" lon="2.17221">
        <ele>190.11539</ele>
        <time>2025-06-19T07:19:23.517Z</time>
      </trkpt>
      <trkpt lat="49.24695" lon="2.17227">
        <ele>189.807218</ele>
        <time>2025-06-19T07:19:25.515Z</time>
      </trkpt>
      <trkpt lat="49.24684" lon="2.17235">
        <ele>189.476214</ele>
        <time>2025-06-19T07:19:27.503Z</time>
      </trkpt>
      <trkpt lat="49.24673" lon="2.17242">
        <ele>189.118989</ele>
        <time>2025-06-19T07:19:29.515Z</time>
      </trkpt>
      <trkpt lat="49.24661" lon="2.17251">
        <ele>188.737055</ele>
        <time>2025-06-19T07:19:31.509Z</time>
      </trkpt>
      <trkpt lat="49.24648" lon="2.17259">
        <ele>188.341267</ele>
        <time>2025-06-19T07:19:33.506Z</time>
      </trkpt>
      <trkpt lat="49.24635" lon="2.17268">
        <ele>187.941686</ele>
        <time>2025-06-19T07:19:35.514Z</time>
      </trkpt>
      <trkpt lat="49.24622" lon="2.17277">
        <ele>187.533517</ele>
        <time>2025-06-19T07:19:37.521Z</time>
      </trkpt>
      <trkpt lat="49.24609" lon="2.17286">
        <ele>187.127954</ele>
        <time>2025-06-19T07:19:39.514Z</time>
      </trkpt>
      <trkpt lat="49.24596" lon="2.17293">
        <ele>186.733838</ele>
        <time>2025-06-19T07:19:41.512Z</time>
      </trkpt>
      <trkpt lat="49.24584" lon="2.17302">
        <ele>186.340446</ele>
        <time>2025-06-19T07:19:43.527Z</time>
      </trkpt>
      <trkpt lat="49.24572" lon="2.1731">
        <ele>185.968923</ele>
        <time>2025-06-19T07:19:45.518Z</time>
      </trkpt>
      <trkpt lat="49.24561" lon="2.17319">
        <ele>185.599439</ele>
        <time>2025-06-19T07:19:47.514Z</time>
      </trkpt>
      <trkpt lat="49.24549" lon="2.17328">
        <ele>185.342373</ele>
        <time>2025-06-19T07:19:49.528Z</time>
      </trkpt>
      <trkpt lat="49.24538" lon="2.17336">
        <ele>185.130603</ele>
        <time>2025-06-19T07:19:51.516Z</time>
      </trkpt>
      <trkpt lat="49.24527" lon="2.17344">
        <ele>184.919558</ele>
        <time>2025-06-19T07:19:53.502Z</time>
      </trkpt>
      <trkpt lat="49.24516" lon="2.17351">
        <ele>184.720983</ele>
        <time>2025-06-19T07:19:55.514Z</time>
      </trkpt>
      <trkpt lat="49.24506" lon="2.17358">
        <ele>184.52463</ele>
        <time>2025-06-19T07:19:57.512Z</time>
      </trkpt>
      <trkpt lat="49.24495" lon="2.17365">
        <ele>184.321535</ele>
        <time>2025-06-19T07:19:59.514Z</time>
      </trkpt>
      <trkpt lat="49.24484" lon="2.17372">
        <ele>184.119275</ele>
        <time>2025-06-19T07:20:01.512Z</time>
      </trkpt>
      <trkpt lat="49.24473" lon="2.17378">
        <ele>183.919422</ele>
        <time>2025-06-19T07:20:03.512Z</time>
      </trkpt>
      <trkpt lat="49.24461" lon="2.17384">
        <ele>183.702117</ele>
        <time>2025-06-19T07:20:05.511Z</time>
      </trkpt>
      <trkpt lat="49.24448" lon="2.1739">
        <ele>183.467849</ele>
        <time>2025-06-19T07:20:07.511Z</time>
      </trkpt>
      <trkpt lat="49.24435" lon="2.17397">
        <ele>183.238708</ele>
        <time>2025-06-19T07:20:09.504Z</time>
      </trkpt>
      <trkpt lat="49.24422" lon="2.17403">
        <ele>183.013589</ele>
        <time>2025-06-19T07:20:11.507Z</time>
      </trkpt>
      <trkpt lat="49.24409" lon="2.17409">
        <ele>182.776054</ele>
        <time>2025-06-19T07:20:13.515Z</time>
      </trkpt>
      <trkpt lat="49.24396" lon="2.17416">
        <ele>182.542745</ele>
        <time>2025-06-19T07:20:15.520Z</time>
      </trkpt>
      <trkpt lat="49.24383" lon="2.17423">
        <ele>182.334239</ele>
        <time>2025-06-19T07:20:17.508Z</time>
      </trkpt>
      <trkpt lat="49.2437" lon="2.17431">
        <ele>182.164013</ele>
        <time>2025-06-19T07:20:19.509Z</time>
      </trkpt>
      <trkpt lat="49.24357" lon="2.17439">
        <ele>181.989987</ele>
        <time>2025-06-19T07:20:21.506Z</time>
      </trkpt>
      <trkpt lat="49.24344" lon="2.17447">
        <ele>181.813889</ele>
        <time>2025-06-19T07:20:23.507Z</time>
      </trkpt>
      <trkpt lat="49.24331" lon="2.17456">
        <ele>181.634242</ele>
        <time>2025-06-19T07:20:25.515Z</time>
      </trkpt>
      <trkpt lat="49.24317" lon="2.17465">
        <ele>181.456868</ele>
        <time>2025-06-19T07:20:27.522Z</time>
      </trkpt>
      <trkpt lat="49.24305" lon="2.17474">
        <ele>181.281967</ele>
        <time>2025-06-19T07:20:29.515Z</time>
      </trkpt>
      <trkpt lat="49.24292" lon="2.17483">
        <ele>181.108109</ele>
        <time>2025-06-19T07:20:31.509Z</time>
      </trkpt>
      <trkpt lat="49.2428" lon="2.17493">
        <ele>180.934341</ele>
        <time>2025-06-19T07:20:33.505Z</time>
      </trkpt>
      <trkpt lat="49.24267" lon="2.17504">
        <ele>180.757952</ele>
        <time>2025-06-19T07:20:35.503Z</time>
      </trkpt>
      <trkpt lat="49.24255" lon="2.17515">
        <ele>180.587298</ele>
        <time>2025-06-19T07:20:37.506Z</time>
      </trkpt>
      <trkpt lat="49.24244" lon="2.17526">
        <ele>180.42396</ele>
        <time>2025-06-19T07:20:39.526Z</time>
      </trkpt>
      <trkpt lat="49.24233" lon="2.17538">
        <ele>180.251979</ele>
        <time>2025-06-19T07:20:41.510Z</time>
      </trkpt>
      <trkpt lat="49.24222" lon="2.17552">
        <ele>179.935956</ele>
        <time>2025-06-19T07:20:43.507Z</time>
      </trkpt>
      <trkpt lat="49.2421" lon="2.17565">
        <ele>179.547593</ele>
        <time>2025-06-19T07:20:45.517Z</time>
      </trkpt>
      <trkpt lat="49.24199" lon="2.17579">
        <ele>179.162375</ele>
        <time>2025-06-19T07:20:47.506Z</time>
      </trkpt>
      <trkpt lat="49.24187" lon="2.17594">
        <ele>178.754326</ele>
        <time>2025-06-19T07:20:49.506Z</time>
      </trkpt>
      <trkpt lat="49.24176" lon="2.17608">
        <ele>178.359349</ele>
        <time>2025-06-19T07:20:51.510Z</time>
      </trkpt>
      <trkpt lat="49.24164" lon="2.17622">
        <ele>177.95401</ele>
        <time>2025-06-19T07:20:53.503Z</time>
      </trkpt>
      <trkpt lat="49.24152" lon="2.17635">
        <ele>177.554555</ele>
        <time>2025-06-19T07:20:55.513Z</time>
      </trkpt>
      <trkpt lat="49.24139" lon="2.17649">
        <ele>177.140344</ele>
        <time>2025-06-19T07:20:57.513Z</time>
      </trkpt>
      <trkpt lat="49.24125" lon="2.17662">
        <ele>176.709563</ele>
        <time>2025-06-19T07:20:59.510Z</time>
      </trkpt>
      <trkpt lat="49.24111" lon="2.17675">
        <ele>176.262474</ele>
        <time>2025-06-19T07:21:01.507Z</time>
      </trkpt>
      <trkpt lat="49.24095" lon="2.17686">
        <ele>175.811608</ele>
        <time>2025-06-19T07:21:03.515Z</time>
      </trkpt>
      <trkpt lat="49.24079" lon="2.17698">
        <ele>175.271326</ele>
        <time>2025-06-19T07:21:05.504Z</time>
      </trkpt>
      <trkpt lat="49.24071" lon="2.17704">
        <ele>174.750829</ele>
        <time>2025-06-19T07:21:06.507Z</time>
      </trkpt>
      <trkpt lat="49.24063" lon="2.1771">
        <ele>174.208043</ele>
        <time>2025-06-19T07:21:07.506Z</time>
      </trkpt>
      <trkpt lat="49.24054" lon="2.17717">
        <ele>173.646035</ele>
        <time>2025-06-19T07:21:08.510Z</time>
      </trkpt>
      <trkpt lat="49.24045" lon="2.17723">
        <ele>173.075669</ele>
        <time>2025-06-19T07:21:09.511Z</time>
      </trkpt>
      <trkpt lat="49.24036" lon="2.1773">
        <ele>172.497152</ele>
        <time>2025-06-19T07:21:10.515Z</time>
      </trkpt>
      <trkpt lat="49.24026" lon="2.17737">
        <ele>171.90479</ele>
        <time>2025-06-19T07:21:11.504Z</time>
      </trkpt>
      <trkpt lat="49.24017" lon="2.17744">
        <ele>171.302341</ele>
        <time>2025-06-19T07:21:12.505Z</time>
      </trkpt>
      <trkpt lat="49.24008" lon="2.1775">
        <ele>170.701163</ele>
        <time>2025-06-19T07:21:13.509Z</time>
      </trkpt>
      <trkpt lat="49.23998" lon="2.17757">
        <ele>170.097832</ele>
        <time>2025-06-19T07:21:14.514Z</time>
      </trkpt>
      <trkpt lat="49.23988" lon="2.17763">
        <ele>169.490734</ele>
        <time>2025-06-19T07:21:15.512Z</time>
      </trkpt>
      <trkpt lat="49.23979" lon="2.17769">
        <ele>168.892187</ele>
        <time>2025-06-19T07:21:16.515Z</time>
      </trkpt>
      <trkpt lat="49.23969" lon="2.17775">
        <ele>168.284247</ele>
        <time>2025-06-19T07:21:17.516Z</time>
      </trkpt>
      <trkpt lat="49.23959" lon="2.1778">
        <ele>167.674117</ele>
        <time>2025-06-19T07:21:18.514Z</time>
      </trkpt>
      <trkpt lat="49.23948" lon="2.17785">
        <ele>167.049544</ele>
        <time>2025-06-19T07:21:19.519Z</time>
      </trkpt>
      <trkpt lat="49.23938" lon="2.17791">
        <ele>166.42003</ele>
        <time>2025-06-19T07:21:20.505Z</time>
      </trkpt>
      <trkpt lat="49.23928" lon="2.17796">
        <ele>165.793026</ele>
        <time>2025-06-19T07:21:21.505Z</time>
      </trkpt>
      <trkpt lat="49.23917" lon="2.17802">
        <ele>165.163511</ele>
        <time>2025-06-19T07:21:22.520Z</time>
      </trkpt>
      <trkpt lat="49.23907" lon="2.17808">
        <ele>164.456118</ele>
        <time>2025-06-19T07:21:23.514Z</time>
      </trkpt>
      <trkpt lat="49.23897" lon="2.17813">
        <ele>163.734447</ele>
        <time>2025-06-19T07:21:24.520Z</time>
      </trkpt>
      <trkpt lat="49.23887" lon="2.17818">
        <ele>163.030931</ele>
        <time>2025-06-19T07:21:25.512Z</time>
      </trkpt>
      <trkpt lat="49.23877" lon="2.17823">
        <ele>162.310611</ele>
        <time>2025-06-19T07:21:26.516Z</time>
      </trkpt>
      <trkpt lat="49.23868" lon="2.17828">
        <ele>161.641337</ele>
        <time>2025-06-19T07:21:27.517Z</time>
      </trkpt>
      <trkpt lat="49.23858" lon="2.17834">
        <ele>160.964294</ele>
        <time>2025-06-19T07:21:28.509Z</time>
      </trkpt>
      <trkpt lat="49.23849" lon="2.1784">
        <ele>160.284314</ele>
        <time>2025-06-19T07:21:29.513Z</time>
      </trkpt>
      <trkpt lat="49.23839" lon="2.17845">
        <ele>159.607242</ele>
        <time>2025-06-19T07:21:30.515Z</time>
      </trkpt>
      <trkpt lat="49.2383" lon="2.1785">
        <ele>158.934413</ele>
        <time>2025-06-19T07:21:31.529Z</time>
      </trkpt>
      <trkpt lat="49.2382" lon="2.17855">
        <ele>158.261583</ele>
        <time>2025-06-19T07:21:32.511Z</time>
      </trkpt>
      <trkpt lat="49.23811" lon="2.17859">
        <ele>157.610679</ele>
        <time>2025-06-19T07:21:33.525Z</time>
      </trkpt>
      <trkpt lat="49.23802" lon="2.17862">
        <ele>156.979621</ele>
        <time>2025-06-19T07:21:34.513Z</time>
      </trkpt>
      <trkpt lat="49.23793" lon="2.17865">
        <ele>156.337546</ele>
        <time>2025-06-19T07:21:35.522Z</time>
      </trkpt>
      <trkpt lat="49.23783" lon="2.17869">
        <ele>155.667276</ele>
        <time>2025-06-19T07:21:36.522Z</time>
      </trkpt>
      <trkpt lat="49.23773" lon="2.17871">
        <ele>154.979148</ele>
        <time>2025-06-19T07:21:37.508Z</time>
      </trkpt>
      <trkpt lat="49.23763" lon="2.17873">
        <ele>154.29621</ele>
        <time>2025-06-19T07:21:38.517Z</time>
      </trkpt>
      <trkpt lat="49.23752" lon="2.17874">
        <ele>153.595603</ele>
        <time>2025-06-19T07:21:39.526Z</time>
      </trkpt>
      <trkpt lat="49.23742" lon="2.17874">
        <ele>152.920107</ele>
        <time>2025-06-19T07:21:40.514Z</time>
      </trkpt>
      <trkpt lat="49.23731" lon="2.17873">
        <ele>152.570628</ele>
        <time>2025-06-19T07:21:41.511Z</time>
      </trkpt>
      <trkpt lat="49.23721" lon="2.17869">
        <ele>152.217217</ele>
        <time>2025-06-19T07:21:42.509Z</time>
      </trkpt>
      <trkpt lat="49.2371" lon="2.17864">
        <ele>151.861614</ele>
        <time>2025-06-19T07:21:43.505Z</time>
      </trkpt>
      <trkpt lat="49.237" lon="2.1786">
        <ele>151.510308</ele>
        <time>2025-06-19T07:21:44.507Z</time>
      </trkpt>
      <trkpt lat="49.23689" lon="2.17855">
        <ele>151.16466</ele>
        <time>2025-06-19T07:21:45.499Z</time>
      </trkpt>
      <trkpt lat="49.23679" lon="2.1785">
        <ele>150.808363</ele>
        <time>2025-06-19T07:21:46.510Z</time>
      </trkpt>
      <trkpt lat="49.23669" lon="2.17845">
        <ele>150.460863</ele>
        <time>2025-06-19T07:21:47.524Z</time>
      </trkpt>
      <trkpt lat="49.23658" lon="2.17839">
        <ele>150.102503</ele>
        <time>2025-06-19T07:21:48.511Z</time>
      </trkpt>
      <trkpt lat="49.23648" lon="2.17835">
        <ele>149.757449</ele>
        <time>2025-06-19T07:21:49.513Z</time>
      </trkpt>
      <trkpt lat="49.23638" lon="2.1783">
        <ele>149.403013</ele>
        <time>2025-06-19T07:21:50.516Z</time>
      </trkpt>
      <trkpt lat="49.23627" lon="2.17825">
        <ele>149.05241</ele>
        <time>2025-06-19T07:21:51.510Z</time>
      </trkpt>
      <trkpt lat="49.23617" lon="2.17821">
        <ele>148.699925</ele>
        <time>2025-06-19T07:21:52.517Z</time>
      </trkpt>
      <trkpt lat="49.23607" lon="2.17816">
        <ele>148.345489</ele>
        <time>2025-06-19T07:21:53.512Z</time>
      </trkpt>
      <trkpt lat="49.23596" lon="2.17812">
        <ele>147.980632</ele>
        <time>2025-06-19T07:21:54.523Z</time>
      </trkpt>
      <trkpt lat="49.23585" lon="2.17808">
        <ele>147.617886</ele>
        <time>2025-06-19T07:21:55.513Z</time>
      </trkpt>
      <trkpt lat="49.23574" lon="2.17803">
        <ele>147.248314</ele>
        <time>2025-06-19T07:21:56.513Z</time>
      </trkpt>
      <trkpt lat="49.23563" lon="2.17799">
        <ele>146.831865</ele>
        <time>2025-06-19T07:21:57.522Z</time>
      </trkpt>
      <trkpt lat="49.23551" lon="2.17795">
        <ele>146.366985</ele>
        <time>2025-06-19T07:21:58.510Z</time>
      </trkpt>
      <trkpt lat="49.2354" lon="2.17791">
        <ele>145.909712</ele>
        <time>2025-06-19T07:21:59.521Z</time>
      </trkpt>
      <trkpt lat="49.23528" lon="2.17787">
        <ele>145.446492</ele>
        <time>2025-06-19T07:22:00.511Z</time>
      </trkpt>
      <trkpt lat="49.23517" lon="2.17783">
        <ele>145.005589</ele>
        <time>2025-06-19T07:22:01.506Z</time>
      </trkpt>
      <trkpt lat="49.23507" lon="2.17779">
        <ele>144.578036</ele>
        <time>2025-06-19T07:22:02.505Z</time>
      </trkpt>
      <trkpt lat="49.23496" lon="2.17775">
        <ele>144.14794</ele>
        <time>2025-06-19T07:22:03.518Z</time>
      </trkpt>
      <trkpt lat="49.23485" lon="2.17771">
        <ele>143.707036</ele>
        <time>2025-06-19T07:22:04.508Z</time>
      </trkpt>
      <trkpt lat="49.23474" lon="2.17767">
        <ele>143.275062</ele>
        <time>2025-06-19T07:22:05.519Z</time>
      </trkpt>
      <trkpt lat="49.23463" lon="2.17763">
        <ele>142.841764</ele>
        <time>2025-06-19T07:22:06.503Z</time>
      </trkpt>
      <trkpt lat="49.23453" lon="2.17759">
        <ele>142.4047</ele>
        <time>2025-06-19T07:22:07.504Z</time>
      </trkpt>
      <trkpt lat="49.23441" lon="2.17754">
        <ele>141.949851</ele>
        <time>2025-06-19T07:22:08.504Z</time>
      </trkpt>
      <trkpt lat="49.23431" lon="2.17749">
        <ele>141.511421</ele>
        <time>2025-06-19T07:22:09.506Z</time>
      </trkpt>
      <trkpt lat="49.2342" lon="2.17744">
        <ele>141.064066</ele>
        <time>2025-06-19T07:22:10.516Z</time>
      </trkpt>
      <trkpt lat="49.23409" lon="2.17738">
        <ele>140.63235</ele>
        <time>2025-06-19T07:22:11.519Z</time>
      </trkpt>
      <trkpt lat="49.23399" lon="2.17733">
        <ele>140.20514</ele>
        <time>2025-06-19T07:22:12.503Z</time>
      </trkpt>
      <trkpt lat="49.23388" lon="2.17728">
        <ele>139.865449</ele>
        <time>2025-06-19T07:22:13.506Z</time>
      </trkpt>
      <trkpt lat="49.23378" lon="2.17722">
        <ele>139.56298</ele>
        <time>2025-06-19T07:22:14.507Z</time>
      </trkpt>
      <trkpt lat="49.23368" lon="2.17717">
        <ele>139.265626</ele>
        <time>2025-06-19T07:22:15.514Z</time>
      </trkpt>
      <trkpt lat="49.23358" lon="2.17712">
        <ele>138.969695</ele>
        <time>2025-06-19T07:22:16.528Z</time>
      </trkpt>
      <trkpt lat="49.23349" lon="2.17707">
        <ele>138.679508</ele>
        <time>2025-06-19T07:22:17.508Z</time>
      </trkpt>
      <trkpt lat="49.23339" lon="2.17703">
        <ele>138.389837</ele>
        <time>2025-06-19T07:22:18.518Z</time>
      </trkpt>
      <trkpt lat="49.23329" lon="2.17698">
        <ele>138.099123</ele>
        <time>2025-06-19T07:22:19.511Z</time>
      </trkpt>
      <trkpt lat="49.23319" lon="2.17694">
        <ele>137.815051</ele>
        <time>2025-06-19T07:22:20.520Z</time>
      </trkpt>
      <trkpt lat="49.23309" lon="2.17691">
        <ele>137.526389</ele>
        <time>2025-06-19T07:22:21.509Z</time>
      </trkpt>
      <trkpt lat="49.23299" lon="2.17687">
        <ele>137.239592</ele>
        <time>2025-06-19T07:22:22.509Z</time>
      </trkpt>
      <trkpt lat="49.23289" lon="2.17684">
        <ele>136.942868</ele>
        <time>2025-06-19T07:22:23.519Z</time>
      </trkpt>
      <trkpt lat="49.23278" lon="2.17682">
        <ele>136.652599</ele>
        <time>2025-06-19T07:22:24.511Z</time>
      </trkpt>
      <trkpt lat="49.23268" lon="2.1768">
        <ele>136.367272</ele>
        <time>2025-06-19T07:22:25.517Z</time>
      </trkpt>
      <trkpt lat="49.23258" lon="2.17678">
        <ele>136.084544</ele>
        <time>2025-06-19T07:22:26.512Z</time>
      </trkpt>
      <trkpt lat="49.23248" lon="2.17676">
        <ele>135.793234</ele>
        <time>2025-06-19T07:22:27.511Z</time>
      </trkpt>
      <trkpt lat="49.23238" lon="2.17675">
        <ele>135.502125</ele>
        <time>2025-06-19T07:22:28.509Z</time>
      </trkpt>
      <trkpt lat="49.23228" lon="2.17673">
        <ele>135.225183</ele>
        <time>2025-06-19T07:22:29.505Z</time>
      </trkpt>
      <trkpt lat="49.23218" lon="2.17671">
        <ele>135.020835</ele>
        <time>2025-06-19T07:22:30.504Z</time>
      </trkpt>
      <trkpt lat="49.23208" lon="2.17668">
        <ele>135.008889</ele>
        <time>2025-06-19T07:22:31.508Z</time>
      </trkpt>
      <trkpt lat="49.23199" lon="2.17665">
        <ele>134.997409</ele>
        <time>2025-06-19T07:22:32.513Z</time>
      </trkpt>
      <trkpt lat="49.23191" lon="2.17659">
        <ele>134.986106</ele>
        <time>2025-06-19T07:22:33.518Z</time>
      </trkpt>
      <trkpt lat="49.23175" lon="2.17647">
        <ele>134.964567</ele>
        <time>2025-06-19T07:22:35.508Z</time>
      </trkpt>
      <trkpt lat="49.23161" lon="2.17635">
        <ele>134.945033</ele>
        <time>2025-06-19T07:22:37.519Z</time>
      </trkpt>
      <trkpt lat="49.23147" lon="2.17624">
        <ele>134.925991</ele>
        <time>2025-06-19T07:22:39.516Z</time>
      </trkpt>
      <trkpt lat="49.23133" lon="2.17615">
        <ele>134.907958</ele>
        <time>2025-06-19T07:22:41.508Z</time>
      </trkpt>
      <trkpt lat="49.2312" lon="2.17608">
        <ele>134.890678</ele>
        <time>2025-06-19T07:22:43.507Z</time>
      </trkpt>
      <trkpt lat="49.23106" lon="2.17602">
        <ele>134.872994</ele>
        <time>2025-06-19T07:22:45.508Z</time>
      </trkpt>
      <trkpt lat="49.23092" lon="2.17598">
        <ele>134.855735</ele>
        <time>2025-06-19T07:22:47.515Z</time>
      </trkpt>
      <trkpt lat="49.23078" lon="2.17594">
        <ele>134.838533</ele>
        <time>2025-06-19T07:22:49.516Z</time>
      </trkpt>
      <trkpt lat="49.23065" lon="2.17592">
        <ele>134.82172</ele>
        <time>2025-06-19T07:22:51.524Z</time>
      </trkpt>
      <trkpt lat="49.23052" lon="2.17591">
        <ele>134.80621</ele>
        <time>2025-06-19T07:22:53.513Z</time>
      </trkpt>
      <trkpt lat="49.23039" lon="2.17589">
        <ele>134.714123</ele>
        <time>2025-06-19T07:22:55.521Z</time>
      </trkpt>
      <trkpt lat="49.23026" lon="2.17588">
        <ele>134.612536</ele>
        <time>2025-06-19T07:22:57.505Z</time>
      </trkpt>
      <trkpt lat="49.23013" lon="2.17586">
        <ele>134.513052</ele>
        <time>2025-06-19T07:22:59.510Z</time>
      </trkpt>
      <trkpt lat="49.23" lon="2.17584">
        <ele>134.410953</ele>
        <time>2025-06-19T07:23:01.511Z</time>
      </trkpt>
      <trkpt lat="49.22986" lon="2.17581">
        <ele>134.302461</ele>
        <time>2025-06-19T07:23:03.517Z</time>
      </trkpt>
      <trkpt lat="49.22973" lon="2.17579">
        <ele>134.199649</ele>
        <time>2025-06-19T07:23:05.510Z</time>
      </trkpt>
      <trkpt lat="49.2296" lon="2.17577">
        <ele>134.098902</ele>
        <time>2025-06-19T07:23:07.515Z</time>
      </trkpt>
      <trkpt lat="49.22947" lon="2.17574">
        <ele>133.998854</ele>
        <time>2025-06-19T07:23:09.513Z</time>
      </trkpt>
      <trkpt lat="49.22935" lon="2.17571">
        <ele>133.904939</ele>
        <time>2025-06-19T07:23:11.518Z</time>
      </trkpt>
      <trkpt lat="49.22924" lon="2.17568">
        <ele>133.812401</ele>
        <time>2025-06-19T07:23:13.511Z</time>
      </trkpt>
      <trkpt lat="49.22912" lon="2.17566">
        <ele>133.72155</ele>
        <time>2025-06-19T07:23:15.507Z</time>
      </trkpt>
      <trkpt lat="49.22901" lon="2.17562">
        <ele>133.631211</ele>
        <time>2025-06-19T07:23:17.507Z</time>
      </trkpt>
      <trkpt lat="49.22889" lon="2.17555">
        <ele>133.535939</ele>
        <time>2025-06-19T07:23:19.504Z</time>
      </trkpt>
      <trkpt lat="49.22877" lon="2.17547">
        <ele>133.43581</ele>
        <time>2025-06-19T07:23:21.512Z</time>
      </trkpt>
      <trkpt lat="49.22866" lon="2.17535">
        <ele>133.248903</ele>
        <time>2025-06-19T07:23:23.509Z</time>
      </trkpt>
      <trkpt lat="49.22855" lon="2.17521">
        <ele>133.024191</ele>
        <time>2025-06-19T07:23:25.507Z</time>
      </trkpt>
      <trkpt lat="49.22845" lon="2.17505">
        <ele>132.787458</ele>
        <time>2025-06-19T07:23:27.506Z</time>
      </trkpt>
      <trkpt lat="49.22834" lon="2.17488">
        <ele>132.546967</ele>
        <time>2025-06-19T07:23:29.501Z</time>
      </trkpt>
      <trkpt lat="49.22823" lon="2.1747">
        <ele>132.295426</ele>
        <time>2025-06-19T07:23:31.507Z</time>
      </trkpt>
      <trkpt lat="49.22812" lon="2.17452">
        <ele>132.035593</ele>
        <time>2025-06-19T07:23:33.505Z</time>
      </trkpt>
      <trkpt lat="49.228" lon="2.17434">
        <ele>131.779428</ele>
        <time>2025-06-19T07:23:35.501Z</time>
      </trkpt>
      <trkpt lat="49.22789" lon="2.17418">
        <ele>131.536678</ele>
        <time>2025-06-19T07:23:37.499Z</time>
      </trkpt>
      <trkpt lat="49.22778" lon="2.17402">
        <ele>131.300671</ele>
        <time>2025-06-19T07:23:39.505Z</time>
      </trkpt>
      <trkpt lat="49.22767" lon="2.17387">
        <ele>131.060146</ele>
        <time>2025-06-19T07:23:41.505Z</time>
      </trkpt>
      <trkpt lat="49.22755" lon="2.17372">
        <ele>130.821727</ele>
        <time>2025-06-19T07:23:43.506Z</time>
      </trkpt>
      <trkpt lat="49.22744" lon="2.17357">
        <ele>130.588784</ele>
        <time>2025-06-19T07:23:45.507Z</time>
      </trkpt>
      <trkpt lat="49.22732" lon="2.17344">
        <ele>130.353971</ele>
        <time>2025-06-19T07:23:47.505Z</time>
      </trkpt>
      <trkpt lat="49.22722" lon="2.17331">
        <ele>130.13021</ele>
        <time>2025-06-19T07:23:49.513Z</time>
      </trkpt>
      <trkpt lat="49.22711" lon="2.17319">
        <ele>129.908354</ele>
        <time>2025-06-19T07:23:51.524Z</time>
      </trkpt>
      <trkpt lat="49.227" lon="2.17308">
        <ele>129.690051</ele>
        <time>2025-06-19T07:23:53.527Z</time>
      </trkpt>
      <trkpt lat="49.22688" lon="2.17297">
        <ele>129.463418</ele>
        <time>2025-06-19T07:23:55.517Z</time>
      </trkpt>
      <trkpt lat="49.22676" lon="2.17288">
        <ele>129.247989</ele>
        <time>2025-06-19T07:23:57.514Z</time>
      </trkpt>
      <trkpt lat="49.22665" lon="2.1728">
        <ele>129.036015</ele>
        <time>2025-06-19T07:23:59.527Z</time>
      </trkpt>
      <trkpt lat="49.22651" lon="2.17273">
        <ele>128.804889</ele>
        <time>2025-06-19T07:24:01.516Z</time>
      </trkpt>
      <trkpt lat="49.22638" lon="2.17267">
        <ele>128.567219</ele>
        <time>2025-06-19T07:24:03.521Z</time>
      </trkpt>
      <trkpt lat="49.22624" lon="2.17261">
        <ele>128.327286</ele>
        <time>2025-06-19T07:24:05.514Z</time>
      </trkpt>
      <trkpt lat="49.22609" lon="2.17257">
        <ele>128.086028</ele>
        <time>2025-06-19T07:24:07.513Z</time>
      </trkpt>
      <trkpt lat="49.22595" lon="2.17252">
        <ele>127.839919</ele>
        <time>2025-06-19T07:24:09.514Z</time>
      </trkpt>
      <trkpt lat="49.22581" lon="2.17245">
        <ele>127.609622</ele>
        <time>2025-06-19T07:24:11.514Z</time>
      </trkpt>
      <trkpt lat="49.22567" lon="2.17237">
        <ele>127.543894</ele>
        <time>2025-06-19T07:24:13.509Z</time>
      </trkpt>
      <trkpt lat="49.22554" lon="2.17228">
        <ele>127.479336</ele>
        <time>2025-06-19T07:24:15.521Z</time>
      </trkpt>
      <trkpt lat="49.22541" lon="2.17218">
        <ele>127.4148</ele>
        <time>2025-06-19T07:24:17.517Z</time>
      </trkpt>
      <trkpt lat="49.22529" lon="2.17207">
        <ele>127.34994</ele>
        <time>2025-06-19T07:24:19.523Z</time>
      </trkpt>
      <trkpt lat="49.22516" lon="2.17196">
        <ele>127.28736</ele>
        <time>2025-06-19T07:24:21.512Z</time>
      </trkpt>
      <trkpt lat="49.22504" lon="2.17186">
        <ele>127.224055</ele>
        <time>2025-06-19T07:24:23.509Z</time>
      </trkpt>
      <trkpt lat="49.22492" lon="2.17175">
        <ele>127.162291</ele>
        <time>2025-06-19T07:24:25.508Z</time>
      </trkpt>
      <trkpt lat="49.22481" lon="2.17165">
        <ele>127.103698</ele>
        <time>2025-06-19T07:24:27.520Z</time>
      </trkpt>
      <trkpt lat="49.2247" lon="2.17155">
        <ele>127.04591</ele>
        <time>2025-06-19T07:24:29.521Z</time>
      </trkpt>
      <trkpt lat="49.22459" lon="2.17145">
        <ele>126.989728</ele>
        <time>2025-06-19T07:24:31.504Z</time>
      </trkpt>
      <trkpt lat="49.22448" lon="2.17134">
        <ele>126.933011</ele>
        <time>2025-06-19T07:24:33.504Z</time>
      </trkpt>
      <trkpt lat="49.22438" lon="2.17124">
        <ele>126.876445</ele>
        <time>2025-06-19T07:24:35.508Z</time>
      </trkpt>
      <trkpt lat="49.22427" lon="2.17114">
        <ele>126.820022</ele>
        <time>2025-06-19T07:24:37.507Z</time>
      </trkpt>
      <trkpt lat="49.22416" lon="2.17104">
        <ele>126.77916</ele>
        <time>2025-06-19T07:24:39.507Z</time>
      </trkpt>
      <trkpt lat="49.22405" lon="2.17092">
        <ele>126.741764</ele>
        <time>2025-06-19T07:24:41.516Z</time>
      </trkpt>
      <trkpt lat="49.22394" lon="2.1708">
        <ele>126.704075</ele>
        <time>2025-06-19T07:24:43.517Z</time>
      </trkpt>
      <trkpt lat="49.22384" lon="2.17069">
        <ele>126.6675</ele>
        <time>2025-06-19T07:24:45.516Z</time>
      </trkpt>
      <trkpt lat="49.22373" lon="2.17057">
        <ele>126.631954</ele>
        <time>2025-06-19T07:24:47.513Z</time>
      </trkpt>
      <trkpt lat="49.22364" lon="2.17044">
        <ele>126.595419</ele>
        <time>2025-06-19T07:24:49.521Z</time>
      </trkpt>
      <trkpt lat="49.22355" lon="2.1703">
        <ele>126.560611</ele>
        <time>2025-06-19T07:24:51.509Z</time>
      </trkpt>
      <trkpt lat="49.22346" lon="2.17017">
        <ele>126.52567</ele>
        <time>2025-06-19T07:24:53.516Z</time>
      </trkpt>
      <trkpt lat="49.22338" lon="2.17004">
        <ele>126.49204</ele>
        <time>2025-06-19T07:24:55.516Z</time>
      </trkpt>
      <trkpt lat="49.2233" lon="2.16991">
        <ele>126.458016</ele>
        <time>2025-06-19T07:24:57.510Z</time>
      </trkpt>
      <trkpt lat="49.22321" lon="2.16978">
        <ele>126.423182</ele>
        <time>2025-06-19T07:24:59.517Z</time>
      </trkpt>
      <trkpt lat="49.22311" lon="2.16966">
        <ele>126.388523</ele>
        <time>2025-06-19T07:25:01.514Z</time>
      </trkpt>
      <trkpt lat="49.22301" lon="2.16954">
        <ele>126.352634</ele>
        <time>2025-06-19T07:25:03.503Z</time>
      </trkpt>
      <trkpt lat="49.2229" lon="2.16944">
        <ele>126.317562</ele>
        <time>2025-06-19T07:25:05.499Z</time>
      </trkpt>
      <trkpt lat="49.2228" lon="2.16934">
        <ele>126.275955</ele>
        <time>2025-06-19T07:25:07.505Z</time>
      </trkpt>
      <trkpt lat="49.22269" lon="2.16926">
        <ele>126.229703</ele>
        <time>2025-06-19T07:25:09.505Z</time>
      </trkpt>
      <trkpt lat="49.22258" lon="2.16918">
        <ele>126.18345</ele>
        <time>2025-06-19T07:25:11.506Z</time>
      </trkpt>
      <trkpt lat="49.22247" lon="2.1691">
        <ele>126.137093</ele>
        <time>2025-06-19T07:25:13.504Z</time>
      </trkpt>
      <trkpt lat="49.22236" lon="2.16902">
        <ele>126.091639</ele>
        <time>2025-06-19T07:25:15.498Z</time>
      </trkpt>
      <trkpt lat="49.22226" lon="2.16893">
        <ele>126.047752</ele>
        <time>2025-06-19T07:25:17.517Z</time>
      </trkpt>
      <trkpt lat="49.22217" lon="2.16882">
        <ele>126.003087</ele>
        <time>2025-06-19T07:25:19.502Z</time>
      </trkpt>
      <trkpt lat="49.22208" lon="2.16873">
        <ele>125.960601</ele>
        <time>2025-06-19T07:25:21.507Z</time>
      </trkpt>
      <trkpt lat="49.22197" lon="2.16867">
        <ele>125.918421</ele>
        <time>2025-06-19T07:25:23.509Z</time>
      </trkpt>
      <trkpt lat="49.22186" lon="2.16863">
        <ele>125.874631</ele>
        <time>2025-06-19T07:25:25.500Z</time>
      </trkpt>
      <trkpt lat="49.22175" lon="2.16857">
        <ele>125.827418</ele>
        <time>2025-06-19T07:25:27.510Z</time>
      </trkpt>
      <trkpt lat="49.22164" lon="2.16849">
        <ele>125.78082</ele>
        <time>2025-06-19T07:25:29.512Z</time>
      </trkpt>
      <trkpt lat="49.22152" lon="2.1684">
        <ele>125.732186</ele>
        <time>2025-06-19T07:25:31.511Z</time>
      </trkpt>
      <trkpt lat="49.22142" lon="2.1683">
        <ele>125.684927</ele>
        <time>2025-06-19T07:25:33.507Z</time>
      </trkpt>
      <trkpt lat="49.22132" lon="2.16818">
        <ele>125.635703</ele>
        <time>2025-06-19T07:25:35.522Z</time>
      </trkpt>
      <trkpt lat="49.22122" lon="2.16806">
        <ele>125.326287</ele>
        <time>2025-06-19T07:25:37.507Z</time>
      </trkpt>
      <trkpt lat="49.22112" lon="2.16794">
        <ele>124.802041</ele>
        <time>2025-06-19T07:25:39.519Z</time>
      </trkpt>
      <trkpt lat="49.22102" lon="2.16782">
        <ele>124.277884</ele>
        <time>2025-06-19T07:25:41.515Z</time>
      </trkpt>
      <trkpt lat="49.22091" lon="2.16771">
        <ele>123.770939</ele>
        <time>2025-06-19T07:25:43.505Z</time>
      </trkpt>
      <trkpt lat="49.22081" lon="2.1676">
        <ele>123.275631</ele>
        <time>2025-06-19T07:25:45.513Z</time>
      </trkpt>
      <trkpt lat="49.22071" lon="2.1675">
        <ele>122.770534</ele>
        <time>2025-06-19T07:25:47.518Z</time>
      </trkpt>
      <trkpt lat="49.22061" lon="2.1674">
        <ele>122.275382</ele>
        <time>2025-06-19T07:25:49.519Z</time>
      </trkpt>
      <trkpt lat="49.22051" lon="2.1673">
        <ele>121.782726</ele>
        <time>2025-06-19T07:25:51.515Z</time>
      </trkpt>
      <trkpt lat="49.22042" lon="2.16718">
        <ele>121.299253</ele>
        <time>2025-06-19T07:25:53.511Z</time>
      </trkpt>
      <trkpt lat="49.22032" lon="2.16707">
        <ele>120.786493</ele>
        <time>2025-06-19T07:25:55.519Z</time>
      </trkpt>
      <trkpt lat="49.22022" lon="2.16695">
        <ele>120.268785</ele>
        <time>2025-06-19T07:25:57.524Z</time>
      </trkpt>
      <trkpt lat="49.22012" lon="2.16684">
        <ele>119.771936</ele>
        <time>2025-06-19T07:25:59.521Z</time>
      </trkpt>
      <trkpt lat="49.22003" lon="2.16674">
        <ele>119.307786</ele>
        <time>2025-06-19T07:26:01.517Z</time>
      </trkpt>
      <trkpt lat="49.21994" lon="2.16665">
        <ele>118.854304</ele>
        <time>2025-06-19T07:26:03.520Z</time>
      </trkpt>
      <trkpt lat="49.21984" lon="2.16656">
        <ele>118.398706</ele>
        <time>2025-06-19T07:26:05.517Z</time>
      </trkpt>
      <trkpt lat="49.21974" lon="2.16648">
        <ele>118.027928</ele>
        <time>2025-06-19T07:26:07.506Z</time>
      </trkpt>
      <trkpt lat="49.21964" lon="2.1664">
        <ele>117.686132</ele>
        <time>2025-06-19T07:26:09.511Z</time>
      </trkpt>
      <trkpt lat="49.21954" lon="2.16632">
        <ele>117.336273</ele>
        <time>2025-06-19T07:26:11.521Z</time>
      </trkpt>
      <trkpt lat="49.21944" lon="2.16624">
        <ele>116.987272</ele>
        <time>2025-06-19T07:26:13.515Z</time>
      </trkpt>
      <trkpt lat="49.21933" lon="2.16617">
        <ele>116.647662</ele>
        <time>2025-06-19T07:26:15.516Z</time>
      </trkpt>
      <trkpt lat="49.21923" lon="2.16612">
        <ele>116.309089</ele>
        <time>2025-06-19T07:26:17.506Z</time>
      </trkpt>
      <trkpt lat="49.21912" lon="2.16608">
        <ele>115.971754</ele>
        <time>2025-06-19T07:26:19.514Z</time>
      </trkpt>
      <trkpt lat="49.21901" lon="2.16606">
        <ele>115.631708</ele>
        <time>2025-06-19T07:26:21.507Z</time>
      </trkpt>
      <trkpt lat="49.21889" lon="2.16604">
        <ele>115.270484</ele>
        <time>2025-06-19T07:26:23.519Z</time>
      </trkpt>
      <trkpt lat="49.21877" lon="2.166">
        <ele>114.897466</ele>
        <time>2025-06-19T07:26:25.526Z</time>
      </trkpt>
      <trkpt lat="49.21864" lon="2.16597">
        <ele>114.517833</ele>
        <time>2025-06-19T07:26:27.517Z</time>
      </trkpt>
      <trkpt lat="49.21852" lon="2.16594">
        <ele>114.143084</ele>
        <time>2025-06-19T07:26:29.517Z</time>
      </trkpt>
      <trkpt lat="49.21839" lon="2.16591">
        <ele>113.756407</ele>
        <time>2025-06-19T07:26:31.519Z</time>
      </trkpt>
      <trkpt lat="49.21826" lon="2.16589">
        <ele>113.370006</ele>
        <time>2025-06-19T07:26:33.521Z</time>
      </trkpt>
      <trkpt lat="49.21814" lon="2.16587">
        <ele>112.982455</ele>
        <time>2025-06-19T07:26:35.520Z</time>
      </trkpt>
      <trkpt lat="49.21801" lon="2.16584">
        <ele>112.749763</ele>
        <time>2025-06-19T07:26:37.514Z</time>
      </trkpt>
      <trkpt lat="49.21789" lon="2.16582">
        <ele>112.624953</ele>
        <time>2025-06-19T07:26:39.513Z</time>
      </trkpt>
      <trkpt lat="49.21776" lon="2.16581">
        <ele>112.496484</ele>
        <time>2025-06-19T07:26:41.514Z</time>
      </trkpt>
      <trkpt lat="49.21762" lon="2.16579">
        <ele>112.365019</ele>
        <time>2025-06-19T07:26:43.516Z</time>
      </trkpt>
      <trkpt lat="49.21749" lon="2.16578">
        <ele>112.230691</ele>
        <time>2025-06-19T07:26:45.517Z</time>
      </trkpt>
      <trkpt lat="49.21736" lon="2.16576">
        <ele>112.101759</ele>
        <time>2025-06-19T07:26:47.515Z</time>
      </trkpt>
      <trkpt lat="49.21723" lon="2.16573">
        <ele>111.974472</ele>
        <time>2025-06-19T07:26:49.520Z</time>
      </trkpt>
      <trkpt lat="49.21711" lon="2.16571">
        <ele>111.850029</ele>
        <time>2025-06-19T07:26:51.521Z</time>
      </trkpt>
      <trkpt lat="49.21699" lon="2.16568">
        <ele>111.731439</ele>
        <time>2025-06-19T07:26:53.520Z</time>
      </trkpt>
      <trkpt lat="49.21687" lon="2.16565">
        <ele>111.616546</ele>
        <time>2025-06-19T07:26:55.506Z</time>
      </trkpt>
      <trkpt lat="49.21676" lon="2.16562">
        <ele>111.503019</ele>
        <time>2025-06-19T07:26:57.508Z</time>
      </trkpt>
      <trkpt lat="49.21664" lon="2.1656">
        <ele>111.390559</ele>
        <time>2025-06-19T07:26:59.511Z</time>
      </trkpt>
      <trkpt lat="49.21653" lon="2.16557">
        <ele>111.27761</ele>
        <time>2025-06-19T07:27:01.514Z</time>
      </trkpt>
      <trkpt lat="49.21642" lon="2.16554">
        <ele>111.167789</ele>
        <time>2025-06-19T07:27:03.523Z</time>
      </trkpt>
      <trkpt lat="49.21633" lon="2.16551">
        <ele>111.077667</ele>
        <time>2025-06-19T07:27:05.503Z</time>
      </trkpt>
      <trkpt lat="49.21624" lon="2.16548">
        <ele>111.018011</ele>
        <time>2025-06-19T07:27:08.505Z</time>
      </trkpt>
      <trkpt lat="49.21613" lon="2.16557">
        <ele>110.963553</ele>
        <time>2025-06-19T07:27:12.515Z</time>
      </trkpt>
      <trkpt lat="49.21611" lon="2.1657">
        <ele>110.922441</ele>
        <time>2025-06-19T07:27:14.502Z</time>
      </trkpt>
      <trkpt lat="49.2161" lon="2.16585">
        <ele>110.879318</ele>
        <time>2025-06-19T07:27:16.506Z</time>
      </trkpt>
      <trkpt lat="49.21608" lon="2.166">
        <ele>110.836346</ele>
        <time>2025-06-19T07:27:18.507Z</time>
      </trkpt>
      <trkpt lat="49.21605" lon="2.16618">
        <ele>110.782655</ele>
        <time>2025-06-19T07:27:20.499Z</time>
      </trkpt>
      <trkpt lat="49.21602" lon="2.16634">
        <ele>110.733925</ele>
        <time>2025-06-19T07:27:22.504Z</time>
      </trkpt>
      <trkpt lat="49.21598" lon="2.16651">
        <ele>110.681095</ele>
        <time>2025-06-19T07:27:24.501Z</time>
      </trkpt>
      <trkpt lat="49.21594" lon="2.16668">
        <ele>110.629899</ele>
        <time>2025-06-19T07:27:26.502Z</time>
      </trkpt>
      <trkpt lat="49.2159" lon="2.16685">
        <ele>110.578281</ele>
        <time>2025-06-19T07:27:28.508Z</time>
      </trkpt>
      <trkpt lat="49.21587" lon="2.16702">
        <ele>110.526686</ele>
        <time>2025-06-19T07:27:30.514Z</time>
      </trkpt>
      <trkpt lat="49.21583" lon="2.16718">
        <ele>110.477956</ele>
        <time>2025-06-19T07:27:32.510Z</time>
      </trkpt>
      <trkpt lat="49.21581" lon="2.16735">
        <ele>110.427239</ele>
        <time>2025-06-19T07:27:34.520Z</time>
      </trkpt>
      <trkpt lat="49.21581" lon="2.16753">
        <ele>110.37631</ele>
        <time>2025-06-19T07:27:36.511Z</time>
      </trkpt>
      <trkpt lat="49.21581" lon="2.1677">
        <ele>110.326368</ele>
        <time>2025-06-19T07:27:38.504Z</time>
      </trkpt>
      <trkpt lat="49.21581" lon="2.16787">
        <ele>110.27742</ele>
        <time>2025-06-19T07:27:40.503Z</time>
      </trkpt>
      <trkpt lat="49.21583" lon="2.16804">
        <ele>110.293721</ele>
        <time>2025-06-19T07:27:42.508Z</time>
      </trkpt>
      <trkpt lat="49.21584" lon="2.16822">
        <ele>110.39004</ele>
        <time>2025-06-19T07:27:44.506Z</time>
      </trkpt>
      <trkpt lat="49.21584" lon="2.1684">
        <ele>110.489834</ele>
        <time>2025-06-19T07:27:46.509Z</time>
      </trkpt>
      <trkpt lat="49.21583" lon="2.16856">
        <ele>110.579947</ele>
        <time>2025-06-19T07:27:48.514Z</time>
      </trkpt>
      <trkpt lat="49.21582" lon="2.16874">
        <ele>110.676627</ele>
        <time>2025-06-19T07:27:50.503Z</time>
      </trkpt>
      <trkpt lat="49.21582" lon="2.16891">
        <ele>110.771784</ele>
        <time>2025-06-19T07:27:52.515Z</time>
      </trkpt>
      <trkpt lat="49.21581" lon="2.16907">
        <ele>110.856638</ele>
        <time>2025-06-19T07:27:54.514Z</time>
      </trkpt>
      <trkpt lat="49.21579" lon="2.16923">
        <ele>110.948669</ele>
        <time>2025-06-19T07:27:56.506Z</time>
      </trkpt>
      <trkpt lat="49.21578" lon="2.16939">
        <ele>111.03381</ele>
        <time>2025-06-19T07:27:58.524Z</time>
      </trkpt>
      <trkpt lat="49.21577" lon="2.16953">
        <ele>111.114217</ele>
        <time>2025-06-19T07:28:00.520Z</time>
      </trkpt>
      <trkpt lat="49.21577" lon="2.16969">
        <ele>111.198313</ele>
        <time>2025-06-19T07:28:02.514Z</time>
      </trkpt>
      <trkpt lat="49.21576" lon="2.16989">
        <ele>111.31261</ele>
        <time>2025-06-19T07:28:05.511Z</time>
      </trkpt>
      <trkpt lat="49.21575" lon="2.17004">
        <ele>111.391035</ele>
        <time>2025-06-19T07:28:07.519Z</time>
      </trkpt>
      <trkpt lat="49.21577" lon="2.17023">
        <ele>111.498902</ele>
        <time>2025-06-19T07:28:10.513Z</time>
      </trkpt>
      <trkpt lat="49.21578" lon="2.17041">
        <ele>111.599525</ele>
        <time>2025-06-19T07:28:13.506Z</time>
      </trkpt>
      <trkpt lat="49.21579" lon="2.1706">
        <ele>111.702401</ele>
        <time>2025-06-19T07:28:16.517Z</time>
      </trkpt>
      <trkpt lat="49.21579" lon="2.1708">
        <ele>111.684981</ele>
        <time>2025-06-19T07:28:19.507Z</time>
      </trkpt>
      <trkpt lat="49.21581" lon="2.171">
        <ele>111.513384</ele>
        <time>2025-06-19T07:28:22.515Z</time>
      </trkpt>
      <trkpt lat="49.21583" lon="2.1712">
        <ele>111.347065</ele>
        <time>2025-06-19T07:28:25.509Z</time>
      </trkpt>
      <trkpt lat="49.21585" lon="2.1714">
        <ele>111.175056</ele>
        <time>2025-06-19T07:28:28.510Z</time>
      </trkpt>
      <trkpt lat="49.21587" lon="2.17154">
        <ele>111.055202</ele>
        <time>2025-06-19T07:28:30.519Z</time>
      </trkpt>
      <trkpt lat="49.21589" lon="2.17169">
        <ele>110.928854</ele>
        <time>2025-06-19T07:28:32.520Z</time>
      </trkpt>
      <trkpt lat="49.21591" lon="2.17184">
        <ele>110.799244</ele>
        <time>2025-06-19T07:28:34.514Z</time>
      </trkpt>
      <trkpt lat="49.21592" lon="2.172">
        <ele>110.667378</ele>
        <time>2025-06-19T07:28:36.525Z</time>
      </trkpt>
      <trkpt lat="49.21589" lon="2.17218">
        <ele>110.514637</ele>
        <time>2025-06-19T07:28:38.516Z</time>
      </trkpt>
      <trkpt lat="49.21584" lon="2.17237">
        <ele>110.346375</ele>
        <time>2025-06-19T07:28:40.505Z</time>
      </trkpt>
      <trkpt lat="49.21578" lon="2.17256">
        <ele>110.16545</ele>
        <time>2025-06-19T07:28:42.510Z</time>
      </trkpt>
      <trkpt lat="49.21572" lon="2.17277">
        <ele>109.975472</ele>
        <time>2025-06-19T07:28:44.524Z</time>
      </trkpt>
      <trkpt lat="49.21565" lon="2.17298">
        <ele>109.784618</ele>
        <time>2025-06-19T07:28:46.523Z</time>
      </trkpt>
      <trkpt lat="49.21562" lon="2.1732">
        <ele>109.596016</ele>
        <time>2025-06-19T07:28:48.511Z</time>
      </trkpt>
      <trkpt lat="49.21561" lon="2.17342">
        <ele>109.48508</ele>
        <time>2025-06-19T07:28:50.502Z</time>
      </trkpt>
      <trkpt lat="49.21561" lon="2.17363">
        <ele>109.552069</ele>
        <time>2025-06-19T07:28:52.500Z</time>
      </trkpt>
      <trkpt lat="49.21559" lon="2.17383">
        <ele>109.617773</ele>
        <time>2025-06-19T07:28:54.511Z</time>
      </trkpt>
      <trkpt lat="49.21559" lon="2.17403">
        <ele>109.682526</ele>
        <time>2025-06-19T07:28:56.518Z</time>
      </trkpt>
      <trkpt lat="49.21558" lon="2.17423">
        <ele>109.747765</ele>
        <time>2025-06-19T07:28:58.508Z</time>
      </trkpt>
      <trkpt lat="49.21556" lon="2.17443">
        <ele>109.812771</ele>
        <time>2025-06-19T07:29:00.512Z</time>
      </trkpt>
      <trkpt lat="49.21555" lon="2.17461">
        <ele>109.871211</ele>
        <time>2025-06-19T07:29:02.520Z</time>
      </trkpt>
      <trkpt lat="49.21554" lon="2.17479">
        <ele>109.929974</ele>
        <time>2025-06-19T07:29:04.515Z</time>
      </trkpt>
      <trkpt lat="49.21553" lon="2.17498">
        <ele>109.993639</ele>
        <time>2025-06-19T07:29:06.522Z</time>
      </trkpt>
      <trkpt lat="49.21552" lon="2.17517">
        <ele>110.054765</ele>
        <time>2025-06-19T07:29:08.514Z</time>
      </trkpt>
      <trkpt lat="49.2155" lon="2.17534">
        <ele>110.112274</ele>
        <time>2025-06-19T07:29:10.506Z</time>
      </trkpt>
      <trkpt lat="49.21548" lon="2.17551">
        <ele>110.168746</ele>
        <time>2025-06-19T07:29:12.513Z</time>
      </trkpt>
      <trkpt lat="49.21547" lon="2.17568">
        <ele>110.224574</ele>
        <time>2025-06-19T07:29:14.521Z</time>
      </trkpt>
      <trkpt lat="49.21545" lon="2.17585">
        <ele>110.278548</ele>
        <time>2025-06-19T07:29:16.520Z</time>
      </trkpt>
      <trkpt lat="49.21544" lon="2.17601">
        <ele>110.330376</ele>
        <time>2025-06-19T07:29:18.512Z</time>
      </trkpt>
      <trkpt lat="49.21542" lon="2.17618">
        <ele>110.385874</ele>
        <time>2025-06-19T07:29:20.517Z</time>
      </trkpt>
      <trkpt lat="49.21539" lon="2.17634">
        <ele>110.440571</ele>
        <time>2025-06-19T07:29:22.513Z</time>
      </trkpt>
      <trkpt lat="49.21534" lon="2.1765">
        <ele>110.498228</ele>
        <time>2025-06-19T07:29:24.507Z</time>
      </trkpt>
      <trkpt lat="49.21531" lon="2.17667">
        <ele>110.555074</ele>
        <time>2025-06-19T07:29:26.503Z</time>
      </trkpt>
      <trkpt lat="49.21527" lon="2.17683">
        <ele>110.610568</ele>
        <time>2025-06-19T07:29:28.517Z</time>
      </trkpt>
      <trkpt lat="49.21524" lon="2.177">
        <ele>110.668415</ele>
        <time>2025-06-19T07:29:30.521Z</time>
      </trkpt>
      <trkpt lat="49.21522" lon="2.17718">
        <ele>110.726236</ele>
        <time>2025-06-19T07:29:32.518Z</time>
      </trkpt>
      <trkpt lat="49.21519" lon="2.17735">
        <ele>110.782878</ele>
        <time>2025-06-19T07:29:34.514Z</time>
      </trkpt>
      <trkpt lat="49.21517" lon="2.17752">
        <ele>110.839021</ele>
        <time>2025-06-19T07:29:36.511Z</time>
      </trkpt>
      <trkpt lat="49.21516" lon="2.17769">
        <ele>110.89293</ele>
        <time>2025-06-19T07:29:38.511Z</time>
      </trkpt>
      <trkpt lat="49.21514" lon="2.17785">
        <ele>110.94644</ele>
        <time>2025-06-19T07:29:40.511Z</time>
      </trkpt>
      <trkpt lat="49.21512" lon="2.17802">
        <ele>111.000029</ele>
        <time>2025-06-19T07:29:42.505Z</time>
      </trkpt>
      <trkpt lat="49.21511" lon="2.17818">
        <ele>111.052588</ele>
        <time>2025-06-19T07:29:44.521Z</time>
      </trkpt>
      <trkpt lat="49.21508" lon="2.17834">
        <ele>111.105328</ele>
        <time>2025-06-19T07:29:46.519Z</time>
      </trkpt>
      <trkpt lat="49.21506" lon="2.17849">
        <ele>111.157124</ele>
        <time>2025-06-19T07:29:48.510Z</time>
      </trkpt>
      <trkpt lat="49.21502" lon="2.17864">
        <ele>111.209048</ele>
        <time>2025-06-19T07:29:50.500Z</time>
      </trkpt>
      <trkpt lat="49.21499" lon="2.1788">
        <ele>111.198564</ele>
        <time>2025-06-19T07:29:52.512Z</time>
      </trkpt>
      <trkpt lat="49.21497" lon="2.17895">
        <ele>110.987757</ele>
        <time>2025-06-19T07:29:54.515Z</time>
      </trkpt>
      <trkpt lat="49.21494" lon="2.1791">
        <ele>110.795144</ele>
        <time>2025-06-19T07:29:56.520Z</time>
      </trkpt>
      <trkpt lat="49.21492" lon="2.17925">
        <ele>110.593308</ele>
        <time>2025-06-19T07:29:58.525Z</time>
      </trkpt>
      <trkpt lat="49.21489" lon="2.1794">
        <ele>110.400694</ele>
        <time>2025-06-19T07:30:00.500Z</time>
      </trkpt>
      <trkpt lat="49.21487" lon="2.17953">
        <ele>110.223811</ele>
        <time>2025-06-19T07:30:02.515Z</time>
      </trkpt>
      <trkpt lat="49.21482" lon="2.17972">
        <ele>109.963667</ele>
        <time>2025-06-19T07:30:05.506Z</time>
      </trkpt>
      <trkpt lat="49.21476" lon="2.17991">
        <ele>109.691054</ele>
        <time>2025-06-19T07:30:08.502Z</time>
      </trkpt>
      <trkpt lat="49.21471" lon="2.18003">
        <ele>109.506637</ele>
        <time>2025-06-19T07:30:10.507Z</time>
      </trkpt>
      <trkpt lat="49.21464" lon="2.18014">
        <ele>109.297384</ele>
        <time>2025-06-19T07:30:12.508Z</time>
      </trkpt>
      <trkpt lat="49.21455" lon="2.18025">
        <ele>109.074322</ele>
        <time>2025-06-19T07:30:14.509Z</time>
      </trkpt>
      <trkpt lat="49.21444" lon="2.18036">
        <ele>108.82073</ele>
        <time>2025-06-19T07:30:16.511Z</time>
      </trkpt>
      <trkpt lat="49.21432" lon="2.18046">
        <ele>108.552324</ele>
        <time>2025-06-19T07:30:18.508Z</time>
      </trkpt>
      <trkpt lat="49.2142" lon="2.18058">
        <ele>108.261153</ele>
        <time>2025-06-19T07:30:20.504Z</time>
      </trkpt>
      <trkpt lat="49.21407" lon="2.1807">
        <ele>107.97128</ele>
        <time>2025-06-19T07:30:22.506Z</time>
      </trkpt>
      <trkpt lat="49.21396" lon="2.18084">
        <ele>107.700754</ele>
        <time>2025-06-19T07:30:24.506Z</time>
      </trkpt>
      <trkpt lat="49.21387" lon="2.18101">
        <ele>107.672914</ele>
        <time>2025-06-19T07:30:26.520Z</time>
      </trkpt>
      <trkpt lat="49.21379" lon="2.18118">
        <ele>107.646997</ele>
        <time>2025-06-19T07:30:28.533Z</time>
      </trkpt>
      <trkpt lat="49.21373" lon="2.18136">
        <ele>107.620936</ele>
        <time>2025-06-19T07:30:30.510Z</time>
      </trkpt>
      <trkpt lat="49.21368" lon="2.18155">
        <ele>107.594652</ele>
        <time>2025-06-19T07:30:32.506Z</time>
      </trkpt>
      <trkpt lat="49.21362" lon="2.18174">
        <ele>107.568242</ele>
        <time>2025-06-19T07:30:34.507Z</time>
      </trkpt>
      <trkpt lat="49.21358" lon="2.18193">
        <ele>107.542448</ele>
        <time>2025-06-19T07:30:36.510Z</time>
      </trkpt>
      <trkpt lat="49.21353" lon="2.18211">
        <ele>107.517637</ele>
        <time>2025-06-19T07:30:38.519Z</time>
      </trkpt>
      <trkpt lat="49.21348" lon="2.18228">
        <ele>107.493794</ele>
        <time>2025-06-19T07:30:40.505Z</time>
      </trkpt>
      <trkpt lat="49.21343" lon="2.18246">
        <ele>107.469014</ele>
        <time>2025-06-19T07:30:42.506Z</time>
      </trkpt>
      <trkpt lat="49.21338" lon="2.18264">
        <ele>107.444937</ele>
        <time>2025-06-19T07:30:44.512Z</time>
      </trkpt>
      <trkpt lat="49.21333" lon="2.18282">
        <ele>107.420552</ele>
        <time>2025-06-19T07:30:46.502Z</time>
      </trkpt>
      <trkpt lat="49.21329" lon="2.18298">
        <ele>107.397718</ele>
        <time>2025-06-19T07:30:48.510Z</time>
      </trkpt>
      <trkpt lat="49.21325" lon="2.18314">
        <ele>107.376717</ele>
        <time>2025-06-19T07:30:50.511Z</time>
      </trkpt>
      <trkpt lat="49.21321" lon="2.18329">
        <ele>107.355953</ele>
        <time>2025-06-19T07:30:52.511Z</time>
      </trkpt>
      <trkpt lat="49.21318" lon="2.18345">
        <ele>107.259578</ele>
        <time>2025-06-19T07:30:54.526Z</time>
      </trkpt>
      <trkpt lat="49.21315" lon="2.18362">
        <ele>107.145398</ele>
        <time>2025-06-19T07:30:56.504Z</time>
      </trkpt>
      <trkpt lat="49.21313" lon="2.1838">
        <ele>107.031543</ele>
        <time>2025-06-19T07:30:58.506Z</time>
      </trkpt>
      <trkpt lat="49.21312" lon="2.18398">
        <ele>106.914029</ele>
        <time>2025-06-19T07:31:00.498Z</time>
      </trkpt>
      <trkpt lat="49.21312" lon="2.18416">
        <ele>106.795381</ele>
        <time>2025-06-19T07:31:02.499Z</time>
      </trkpt>
      <trkpt lat="49.2131" lon="2.18434">
        <ele>106.67727</ele>
        <time>2025-06-19T07:31:04.512Z</time>
      </trkpt>
      <trkpt lat="49.21307" lon="2.18452">
        <ele>106.560755</ele>
        <time>2025-06-19T07:31:06.516Z</time>
      </trkpt>
      <trkpt lat="49.21303" lon="2.1847">
        <ele>106.438424</ele>
        <time>2025-06-19T07:31:08.511Z</time>
      </trkpt>
      <trkpt lat="49.21297" lon="2.18487">
        <ele>106.316621</ele>
        <time>2025-06-19T07:31:10.519Z</time>
      </trkpt>
      <trkpt lat="49.21291" lon="2.18504">
        <ele>106.191491</ele>
        <time>2025-06-19T07:31:12.509Z</time>
      </trkpt>
      <trkpt lat="49.21284" lon="2.18519">
        <ele>106.072926</ele>
        <time>2025-06-19T07:31:14.512Z</time>
      </trkpt>
      <trkpt lat="49.21278" lon="2.18534">
        <ele>105.954374</ele>
        <time>2025-06-19T07:31:16.518Z</time>
      </trkpt>
      <trkpt lat="49.21271" lon="2.1855">
        <ele>105.831551</ele>
        <time>2025-06-19T07:31:18.517Z</time>
      </trkpt>
      <trkpt lat="49.21265" lon="2.18566">
        <ele>105.712451</ele>
        <time>2025-06-19T07:31:20.514Z</time>
      </trkpt>
      <trkpt lat="49.21259" lon="2.18581">
        <ele>105.599832</ele>
        <time>2025-06-19T07:31:22.514Z</time>
      </trkpt>
      <trkpt lat="49.21253" lon="2.18597">
        <ele>105.616656</ele>
        <time>2025-06-19T07:31:24.519Z</time>
      </trkpt>
      <trkpt lat="49.21248" lon="2.18611">
        <ele>105.657423</ele>
        <time>2025-06-19T07:31:26.508Z</time>
      </trkpt>
      <trkpt lat="49.21242" lon="2.18627">
        <ele>105.698746</ele>
        <time>2025-06-19T07:31:28.511Z</time>
      </trkpt>
      <trkpt lat="49.21237" lon="2.18642">
        <ele>105.739817</ele>
        <time>2025-06-19T07:31:30.511Z</time>
      </trkpt>
      <trkpt lat="49.21232" lon="2.18658">
        <ele>105.782106</ele>
        <time>2025-06-19T07:31:32.507Z</time>
      </trkpt>
      <trkpt lat="49.21227" lon="2.18673">
        <ele>105.822144</ele>
        <time>2025-06-19T07:31:34.513Z</time>
      </trkpt>
      <trkpt lat="49.21221" lon="2.18687">
        <ele>105.861267</ele>
        <time>2025-06-19T07:31:36.520Z</time>
      </trkpt>
      <trkpt lat="49.21215" lon="2.18703">
        <ele>105.904588</ele>
        <time>2025-06-19T07:31:38.518Z</time>
      </trkpt>
      <trkpt lat="49.21209" lon="2.18718">
        <ele>105.947873</ele>
        <time>2025-06-19T07:31:40.508Z</time>
      </trkpt>
      <trkpt lat="49.21202" lon="2.18733">
        <ele>105.991014</ele>
        <time>2025-06-19T07:31:42.507Z</time>
      </trkpt>
      <trkpt lat="49.21194" lon="2.18748">
        <ele>106.036571</ele>
        <time>2025-06-19T07:31:44.516Z</time>
      </trkpt>
      <trkpt lat="49.21185" lon="2.18761">
        <ele>106.080708</ele>
        <time>2025-06-19T07:31:46.528Z</time>
      </trkpt>
      <trkpt lat="49.21177" lon="2.18774">
        <ele>106.124079</ele>
        <time>2025-06-19T07:31:48.518Z</time>
      </trkpt>
      <trkpt lat="49.21168" lon="2.18787">
        <ele>106.167782</ele>
        <time>2025-06-19T07:31:50.518Z</time>
      </trkpt>
      <trkpt lat="49.2116" lon="2.18799">
        <ele>106.210083</ele>
        <time>2025-06-19T07:31:52.510Z</time>
      </trkpt>
      <trkpt lat="49.21151" lon="2.1881">
        <ele>106.24293</ele>
        <time>2025-06-19T07:31:54.520Z</time>
      </trkpt>
      <trkpt lat="49.21143" lon="2.1882">
        <ele>106.263145</ele>
        <time>2025-06-19T07:31:56.526Z</time>
      </trkpt>
      <trkpt lat="49.21135" lon="2.18829">
        <ele>106.28243</ele>
        <time>2025-06-19T07:31:58.517Z</time>
      </trkpt>
      <trkpt lat="49.21127" lon="2.18838">
        <ele>106.301946</ele>
        <time>2025-06-19T07:32:00.512Z</time>
      </trkpt>
      <trkpt lat="49.21119" lon="2.18847">
        <ele>106.321489</ele>
        <time>2025-06-19T07:32:02.511Z</time>
      </trkpt>
      <trkpt lat="49.21111" lon="2.18857">
        <ele>106.341858</ele>
        <time>2025-06-19T07:32:04.523Z</time>
      </trkpt>
      <trkpt lat="49.21102" lon="2.18867">
        <ele>106.362687</ele>
        <time>2025-06-19T07:32:06.519Z</time>
      </trkpt>
      <trkpt lat="49.21092" lon="2.18877">
        <ele>106.385569</ele>
        <time>2025-06-19T07:32:08.508Z</time>
      </trkpt>
      <trkpt lat="49.21082" lon="2.18887">
        <ele>106.408474</ele>
        <time>2025-06-19T07:32:10.511Z</time>
      </trkpt>
      <trkpt lat="49.21073" lon="2.18898">
        <ele>106.43123</ele>
        <time>2025-06-19T07:32:12.507Z</time>
      </trkpt>
      <trkpt lat="49.21065" lon="2.18912">
        <ele>106.455156</ele>
        <time>2025-06-19T07:32:14.510Z</time>
      </trkpt>
      <trkpt lat="49.21057" lon="2.18926">
        <ele>106.478925</ele>
        <time>2025-06-19T07:32:16.506Z</time>
      </trkpt>
      <trkpt lat="49.21049" lon="2.18941">
        <ele>106.503577</ele>
        <time>2025-06-19T07:32:18.514Z</time>
      </trkpt>
      <trkpt lat="49.21041" lon="2.18956">
        <ele>106.527792</ele>
        <time>2025-06-19T07:32:20.507Z</time>
      </trkpt>
      <trkpt lat="49.21034" lon="2.18969">
        <ele>106.550132</ele>
        <time>2025-06-19T07:32:22.508Z</time>
      </trkpt>
      <trkpt lat="49.21026" lon="2.18984">
        <ele>106.573998</ele>
        <time>2025-06-19T07:32:24.521Z</time>
      </trkpt>
      <trkpt lat="49.21017" lon="2.18999">
        <ele>106.559423</ele>
        <time>2025-06-19T07:32:26.525Z</time>
      </trkpt>
      <trkpt lat="49.21008" lon="2.19012">
        <ele>106.518281</ele>
        <time>2025-06-19T07:32:28.521Z</time>
      </trkpt>
      <trkpt lat="49.21" lon="2.19023">
        <ele>106.481775</ele>
        <time>2025-06-19T07:32:30.514Z</time>
      </trkpt>
      <trkpt lat="49.20991" lon="2.19036">
        <ele>106.443126</ele>
        <time>2025-06-19T07:32:32.524Z</time>
      </trkpt>
      <trkpt lat="49.20982" lon="2.19049">
        <ele>106.40286</ele>
        <time>2025-06-19T07:32:34.520Z</time>
      </trkpt>
      <trkpt lat="49.20972" lon="2.19062">
        <ele>106.361927</ele>
        <time>2025-06-19T07:32:36.521Z</time>
      </trkpt>
      <trkpt lat="49.20963" lon="2.19074">
        <ele>106.321996</ele>
        <time>2025-06-19T07:32:38.528Z</time>
      </trkpt>
      <trkpt lat="49.20952" lon="2.19084">
        <ele>106.282069</ele>
        <time>2025-06-19T07:32:40.505Z</time>
      </trkpt>
      <trkpt lat="49.20942" lon="2.19094">
        <ele>106.243335</ele>
        <time>2025-06-19T07:32:42.509Z</time>
      </trkpt>
      <trkpt lat="49.20932" lon="2.19106">
        <ele>106.204045</ele>
        <time>2025-06-19T07:32:44.505Z</time>
      </trkpt>
      <trkpt lat="49.20923" lon="2.19117">
        <ele>106.165109</ele>
        <time>2025-06-19T07:32:46.508Z</time>
      </trkpt>
      <trkpt lat="49.20914" lon="2.19129">
        <ele>106.12619</ele>
        <time>2025-06-19T07:32:48.507Z</time>
      </trkpt>
      <trkpt lat="49.20905" lon="2.19142">
        <ele>106.087148</ele>
        <time>2025-06-19T07:32:50.511Z</time>
      </trkpt>
      <trkpt lat="49.20897" lon="2.19156">
        <ele>106.047837</ele>
        <time>2025-06-19T07:32:52.516Z</time>
      </trkpt>
      <trkpt lat="49.20891" lon="2.19172">
        <ele>106.008166</ele>
        <time>2025-06-19T07:32:54.509Z</time>
      </trkpt>
      <trkpt lat="49.20884" lon="2.19188">
        <ele>105.982993</ele>
        <time>2025-06-19T07:32:56.527Z</time>
      </trkpt>
      <trkpt lat="49.20878" lon="2.19204">
        <ele>105.960417</ele>
        <time>2025-06-19T07:32:58.511Z</time>
      </trkpt>
      <trkpt lat="49.20873" lon="2.19221">
        <ele>105.93682</ele>
        <time>2025-06-19T07:33:00.517Z</time>
      </trkpt>
      <trkpt lat="49.20866" lon="2.19236">
        <ele>105.914131</ele>
        <time>2025-06-19T07:33:02.506Z</time>
      </trkpt>
      <trkpt lat="49.2086" lon="2.19251">
        <ele>105.891954</ele>
        <time>2025-06-19T07:33:04.523Z</time>
      </trkpt>
      <trkpt lat="49.20853" lon="2.19266">
        <ele>105.868433</ele>
        <time>2025-06-19T07:33:06.514Z</time>
      </trkpt>
      <trkpt lat="49.20846" lon="2.19283">
        <ele>105.844579</ele>
        <time>2025-06-19T07:33:08.512Z</time>
      </trkpt>
      <trkpt lat="49.2084" lon="2.19297">
        <ele>105.82294</ele>
        <time>2025-06-19T07:33:10.515Z</time>
      </trkpt>
      <trkpt lat="49.20834" lon="2.19313">
        <ele>105.799832</ele>
        <time>2025-06-19T07:33:12.506Z</time>
      </trkpt>
      <trkpt lat="49.20827" lon="2.19328">
        <ele>105.777043</ele>
        <time>2025-06-19T07:33:14.504Z</time>
      </trkpt>
      <trkpt lat="49.20821" lon="2.19343">
        <ele>105.755086</ele>
        <time>2025-06-19T07:33:16.513Z</time>
      </trkpt>
      <trkpt lat="49.20815" lon="2.19356">
        <ele>105.735119</ele>
        <time>2025-06-19T07:33:18.519Z</time>
      </trkpt>
      <trkpt lat="49.2081" lon="2.19369">
        <ele>105.716604</ele>
        <time>2025-06-19T07:33:20.523Z</time>
      </trkpt>
      <trkpt lat="49.20803" lon="2.19386">
        <ele>105.691932</ele>
        <time>2025-06-19T07:33:23.515Z</time>
      </trkpt>
      <trkpt lat="49.20798" lon="2.19398">
        <ele>105.673526</ele>
        <time>2025-06-19T07:33:25.510Z</time>
      </trkpt>
      <trkpt lat="49.20792" lon="2.19413">
        <ele>105.754905</ele>
        <time>2025-06-19T07:33:27.511Z</time>
      </trkpt>
      <trkpt lat="49.20787" lon="2.19428">
        <ele>105.973567</ele>
        <time>2025-06-19T07:33:29.507Z</time>
      </trkpt>
      <trkpt lat="49.20782" lon="2.19443">
        <ele>106.189652</ele>
        <time>2025-06-19T07:33:31.522Z</time>
      </trkpt>
      <trkpt lat="49.20777" lon="2.19457">
        <ele>106.407425</ele>
        <time>2025-06-19T07:33:33.510Z</time>
      </trkpt>
      <trkpt lat="49.20773" lon="2.1947">
        <ele>106.600032</ele>
        <time>2025-06-19T07:33:35.510Z</time>
      </trkpt>
      <trkpt lat="49.20768" lon="2.19484">
        <ele>106.805966</ele>
        <time>2025-06-19T07:33:37.512Z</time>
      </trkpt>
      <trkpt lat="49.20763" lon="2.195">
        <ele>107.027167</ele>
        <time>2025-06-19T07:33:39.535Z</time>
      </trkpt>
      <trkpt lat="49.20759" lon="2.19515">
        <ele>107.241438</ele>
        <time>2025-06-19T07:33:41.514Z</time>
      </trkpt>
      <trkpt lat="49.20753" lon="2.19529">
        <ele>107.455666</ele>
        <time>2025-06-19T07:33:43.513Z</time>
      </trkpt>
      <trkpt lat="49.20748" lon="2.19542">
        <ele>107.660898</ele>
        <time>2025-06-19T07:33:45.526Z</time>
      </trkpt>
      <trkpt lat="49.20743" lon="2.19556">
        <ele>107.867788</ele>
        <time>2025-06-19T07:33:47.514Z</time>
      </trkpt>
      <trkpt lat="49.20738" lon="2.19571">
        <ele>108.075063</ele>
        <time>2025-06-19T07:33:49.514Z</time>
      </trkpt>
      <trkpt lat="49.20733" lon="2.19584">
        <ele>108.273013</ele>
        <time>2025-06-19T07:33:51.510Z</time>
      </trkpt>
      <trkpt lat="49.20728" lon="2.19596">
        <ele>108.470584</ele>
        <time>2025-06-19T07:33:53.508Z</time>
      </trkpt>
      <trkpt lat="49.20722" lon="2.19609">
        <ele>108.678216</ele>
        <time>2025-06-19T07:33:55.511Z</time>
      </trkpt>
      <trkpt lat="49.20715" lon="2.19622">
        <ele>108.88777</ele>
        <time>2025-06-19T07:33:57.510Z</time>
      </trkpt>
      <trkpt lat="49.20709" lon="2.19634">
        <ele>109.096864</ele>
        <time>2025-06-19T07:33:59.509Z</time>
      </trkpt>
      <trkpt lat="49.20701" lon="2.19645">
        <ele>109.225775</ele>
        <time>2025-06-19T07:34:01.510Z</time>
      </trkpt>
      <trkpt lat="49.20693" lon="2.19656">
        <ele>109.142099</ele>
        <time>2025-06-19T07:34:03.510Z</time>
      </trkpt>
      <trkpt lat="49.20687" lon="2.19665">
        <ele>109.067827</ele>
        <time>2025-06-19T07:34:05.512Z</time>
      </trkpt>
      <trkpt lat="49.20679" lon="2.19673">
        <ele>108.99141</ele>
        <time>2025-06-19T07:34:07.514Z</time>
      </trkpt>
      <trkpt lat="49.20671" lon="2.19683">
        <ele>108.908004</ele>
        <time>2025-06-19T07:34:09.521Z</time>
      </trkpt>
      <trkpt lat="49.20663" lon="2.19693">
        <ele>108.822023</ele>
        <time>2025-06-19T07:34:11.523Z</time>
      </trkpt>
      <trkpt lat="49.20656" lon="2.19703">
        <ele>108.742068</ele>
        <time>2025-06-19T07:34:13.519Z</time>
      </trkpt>
      <trkpt lat="49.20647" lon="2.19715">
        <ele>108.645917</ele>
        <time>2025-06-19T07:34:15.510Z</time>
      </trkpt>
      <trkpt lat="49.20641" lon="2.19725">
        <ele>108.567354</ele>
        <time>2025-06-19T07:34:17.517Z</time>
      </trkpt>
      <trkpt lat="49.20633" lon="2.19736">
        <ele>108.483578</ele>
        <time>2025-06-19T07:34:19.515Z</time>
      </trkpt>
      <trkpt lat="49.20626" lon="2.19746">
        <ele>108.400526</ele>
        <time>2025-06-19T07:34:21.507Z</time>
      </trkpt>
      <trkpt lat="49.20616" lon="2.19757">
        <ele>108.302853</ele>
        <time>2025-06-19T07:34:23.503Z</time>
      </trkpt>
      <trkpt lat="49.20608" lon="2.19766">
        <ele>108.217135</ele>
        <time>2025-06-19T07:34:25.509Z</time>
      </trkpt>
      <trkpt lat="49.20599" lon="2.19776">
        <ele>108.128659</ele>
        <time>2025-06-19T07:34:27.527Z</time>
      </trkpt>
      <trkpt lat="49.2059" lon="2.1979">
        <ele>108.022185</ele>
        <time>2025-06-19T07:34:29.503Z</time>
      </trkpt>
      <trkpt lat="49.20583" lon="2.19801">
        <ele>107.934905</ele>
        <time>2025-06-19T07:34:31.514Z</time>
      </trkpt>
      <trkpt lat="49.20575" lon="2.19812">
        <ele>107.846779</ele>
        <time>2025-06-19T07:34:33.513Z</time>
      </trkpt>
      <trkpt lat="49.20565" lon="2.19825">
        <ele>107.675546</ele>
        <time>2025-06-19T07:34:35.514Z</time>
      </trkpt>
      <trkpt lat="49.20556" lon="2.19836">
        <ele>107.311529</ele>
        <time>2025-06-19T07:34:37.514Z</time>
      </trkpt>
      <trkpt lat="49.20546" lon="2.19849">
        <ele>106.891439</ele>
        <time>2025-06-19T07:34:39.514Z</time>
      </trkpt>
      <trkpt lat="49.20536" lon="2.19863">
        <ele>106.477689</ele>
        <time>2025-06-19T07:34:41.513Z</time>
      </trkpt>
      <trkpt lat="49.20527" lon="2.19878">
        <ele>106.063845</ele>
        <time>2025-06-19T07:34:43.504Z</time>
      </trkpt>
      <trkpt lat="49.20518" lon="2.19891">
        <ele>105.686924</ele>
        <time>2025-06-19T07:34:45.505Z</time>
      </trkpt>
      <trkpt lat="49.2051" lon="2.19908">
        <ele>105.256543</ele>
        <time>2025-06-19T07:34:47.522Z</time>
      </trkpt>
      <trkpt lat="49.20502" lon="2.19925">
        <ele>104.831648</ele>
        <time>2025-06-19T07:34:49.514Z</time>
      </trkpt>
      <trkpt lat="49.20495" lon="2.19943">
        <ele>104.393389</ele>
        <time>2025-06-19T07:34:51.515Z</time>
      </trkpt>
      <trkpt lat="49.20488" lon="2.19962">
        <ele>103.952152</ele>
        <time>2025-06-19T07:34:53.519Z</time>
      </trkpt>
      <trkpt lat="49.20481" lon="2.19981">
        <ele>103.508113</ele>
        <time>2025-06-19T07:34:55.509Z</time>
      </trkpt>
      <trkpt lat="49.20474" lon="2.2">
        <ele>103.069159</ele>
        <time>2025-06-19T07:34:57.510Z</time>
      </trkpt>
      <trkpt lat="49.20467" lon="2.20019">
        <ele>102.634475</ele>
        <time>2025-06-19T07:34:59.504Z</time>
      </trkpt>
      <trkpt lat="49.2046" lon="2.20037">
        <ele>102.199671</ele>
        <time>2025-06-19T07:35:01.514Z</time>
      </trkpt>
      <trkpt lat="49.20451" lon="2.20054">
        <ele>101.932665</ele>
        <time>2025-06-19T07:35:03.527Z</time>
      </trkpt>
      <trkpt lat="49.20442" lon="2.20069">
        <ele>101.689199</ele>
        <time>2025-06-19T07:35:05.517Z</time>
      </trkpt>
      <trkpt lat="49.20432" lon="2.20083">
        <ele>101.450786</ele>
        <time>2025-06-19T07:35:07.516Z</time>
      </trkpt>
      <trkpt lat="49.20422" lon="2.20095">
        <ele>101.215347</ele>
        <time>2025-06-19T07:35:09.505Z</time>
      </trkpt>
      <trkpt lat="49.20411" lon="2.20108">
        <ele>100.982744</ele>
        <time>2025-06-19T07:35:11.504Z</time>
      </trkpt>
      <trkpt lat="49.20401" lon="2.20121">
        <ele>100.743743</ele>
        <time>2025-06-19T07:35:13.506Z</time>
      </trkpt>
      <trkpt lat="49.2039" lon="2.20132">
        <ele>100.513079</ele>
        <time>2025-06-19T07:35:15.525Z</time>
      </trkpt>
      <trkpt lat="49.2038" lon="2.20144">
        <ele>100.279763</ele>
        <time>2025-06-19T07:35:17.522Z</time>
      </trkpt>
      <trkpt lat="49.2037" lon="2.20156">
        <ele>100.058471</ele>
        <time>2025-06-19T07:35:19.517Z</time>
      </trkpt>
      <trkpt lat="49.2036" lon="2.20168">
        <ele>99.832224</ele>
        <time>2025-06-19T07:35:21.508Z</time>
      </trkpt>
      <trkpt lat="49.20349" lon="2.20179">
        <ele>99.598764</ele>
        <time>2025-06-19T07:35:23.529Z</time>
      </trkpt>
      <trkpt lat="49.20338" lon="2.20191">
        <ele>99.356673</ele>
        <time>2025-06-19T07:35:25.532Z</time>
      </trkpt>
      <trkpt lat="49.20327" lon="2.20203">
        <ele>99.114038</ele>
        <time>2025-06-19T07:35:27.510Z</time>
      </trkpt>
      <trkpt lat="49.20316" lon="2.20216">
        <ele>98.941022</ele>
        <time>2025-06-19T07:35:29.519Z</time>
      </trkpt>
      <trkpt lat="49.20305" lon="2.2023">
        <ele>98.898049</ele>
        <time>2025-06-19T07:35:31.524Z</time>
      </trkpt>
      <trkpt lat="49.20294" lon="2.20243">
        <ele>98.855203</ele>
        <time>2025-06-19T07:35:33.524Z</time>
      </trkpt>
      <trkpt lat="49.20283" lon="2.20255">
        <ele>98.813219</ele>
        <time>2025-06-19T07:35:35.517Z</time>
      </trkpt>
      <trkpt lat="49.20273" lon="2.20268">
        <ele>98.771612</ele>
        <time>2025-06-19T07:35:37.521Z</time>
      </trkpt>
      <trkpt lat="49.20263" lon="2.20279">
        <ele>98.732821</ele>
        <time>2025-06-19T07:35:39.512Z</time>
      </trkpt>
      <trkpt lat="49.20253" lon="2.2029">
        <ele>98.696109</ele>
        <time>2025-06-19T07:35:41.519Z</time>
      </trkpt>
      <trkpt lat="49.20244" lon="2.20302">
        <ele>98.660814</ele>
        <time>2025-06-19T07:35:43.510Z</time>
      </trkpt>
      <trkpt lat="49.20235" lon="2.20312">
        <ele>98.626907</ele>
        <time>2025-06-19T07:35:45.532Z</time>
      </trkpt>
      <trkpt lat="49.20225" lon="2.20321">
        <ele>98.59016</ele>
        <time>2025-06-19T07:35:47.510Z</time>
      </trkpt>
      <trkpt lat="49.20216" lon="2.20332">
        <ele>98.552955</ele>
        <time>2025-06-19T07:35:49.503Z</time>
      </trkpt>
      <trkpt lat="49.20206" lon="2.20344">
        <ele>98.514531</ele>
        <time>2025-06-19T07:35:51.507Z</time>
      </trkpt>
      <trkpt lat="49.20196" lon="2.20355">
        <ele>98.477575</ele>
        <time>2025-06-19T07:35:53.520Z</time>
      </trkpt>
      <trkpt lat="49.20187" lon="2.20366">
        <ele>98.44221</ele>
        <time>2025-06-19T07:35:55.519Z</time>
      </trkpt>
      <trkpt lat="49.20178" lon="2.20376">
        <ele>98.407935</ele>
        <time>2025-06-19T07:35:57.510Z</time>
      </trkpt>
      <trkpt lat="49.20169" lon="2.20386">
        <ele>98.449632</ele>
        <time>2025-06-19T07:35:59.504Z</time>
      </trkpt>
      <trkpt lat="49.2016" lon="2.20397">
        <ele>98.507606</ele>
        <time>2025-06-19T07:36:01.504Z</time>
      </trkpt>
      <trkpt lat="49.20152" lon="2.20407">
        <ele>98.560808</ele>
        <time>2025-06-19T07:36:03.506Z</time>
      </trkpt>
      <trkpt lat="49.20143" lon="2.2042">
        <ele>98.624438</ele>
        <time>2025-06-19T07:36:06.516Z</time>
      </trkpt>
      <trkpt lat="49.20135" lon="2.20432">
        <ele>98.678332</ele>
        <time>2025-06-19T07:36:09.507Z</time>
      </trkpt>
      <trkpt lat="49.2013" lon="2.20443">
        <ele>98.723792</ele>
        <time>2025-06-19T07:36:11.506Z</time>
      </trkpt>
      <trkpt lat="49.20123" lon="2.20455">
        <ele>98.776011</ele>
        <time>2025-06-19T07:36:13.508Z</time>
      </trkpt>
      <trkpt lat="49.20118" lon="2.20467">
        <ele>98.825201</ele>
        <time>2025-06-19T07:36:15.502Z</time>
      </trkpt>
      <trkpt lat="49.20113" lon="2.20479">
        <ele>98.871951</ele>
        <time>2025-06-19T07:36:17.515Z</time>
      </trkpt>
      <trkpt lat="49.20107" lon="2.20492">
        <ele>98.922521</ele>
        <time>2025-06-19T07:36:19.508Z</time>
      </trkpt>
      <trkpt lat="49.20102" lon="2.20505">
        <ele>98.974499</ele>
        <time>2025-06-19T07:36:21.521Z</time>
      </trkpt>
      <trkpt lat="49.20095" lon="2.20518">
        <ele>99.028161</ele>
        <time>2025-06-19T07:36:23.515Z</time>
      </trkpt>
      <trkpt lat="49.20089" lon="2.20531">
        <ele>99.082196</ele>
        <time>2025-06-19T07:36:25.512Z</time>
      </trkpt>
      <trkpt lat="49.20082" lon="2.20545">
        <ele>99.137253</ele>
        <time>2025-06-19T07:36:27.515Z</time>
      </trkpt>
      <trkpt lat="49.20077" lon="2.20558">
        <ele>99.190318</ele>
        <time>2025-06-19T07:36:29.506Z</time>
      </trkpt>
      <trkpt lat="49.2007" lon="2.20572">
        <ele>99.245911</ele>
        <time>2025-06-19T07:36:31.501Z</time>
      </trkpt>
      <trkpt lat="49.20064" lon="2.20585">
        <ele>99.299377</ele>
        <time>2025-06-19T07:36:33.502Z</time>
      </trkpt>
      <trkpt lat="49.20058" lon="2.20597">
        <ele>99.238449</ele>
        <time>2025-06-19T07:36:35.503Z</time>
      </trkpt>
      <trkpt lat="49.20051" lon="2.2061">
        <ele>99.142748</ele>
        <time>2025-06-19T07:36:37.508Z</time>
      </trkpt>
      <trkpt lat="49.20045" lon="2.20623">
        <ele>99.046078</ele>
        <time>2025-06-19T07:36:39.516Z</time>
      </trkpt>
      <trkpt lat="49.20039" lon="2.20636">
        <ele>98.9474</ele>
        <time>2025-06-19T07:36:41.504Z</time>
      </trkpt>
      <trkpt lat="49.20033" lon="2.2065">
        <ele>98.846798</ele>
        <time>2025-06-19T07:36:43.513Z</time>
      </trkpt>
      <trkpt lat="49.20026" lon="2.20663">
        <ele>98.747501</ele>
        <time>2025-06-19T07:36:45.510Z</time>
      </trkpt>
      <trkpt lat="49.2002" lon="2.20677">
        <ele>98.640352</ele>
        <time>2025-06-19T07:36:47.504Z</time>
      </trkpt>
      <trkpt lat="49.20013" lon="2.20691">
        <ele>98.536137</ele>
        <time>2025-06-19T07:36:49.506Z</time>
      </trkpt>
      <trkpt lat="49.20007" lon="2.20705">
        <ele>98.433442</ele>
        <time>2025-06-19T07:36:51.507Z</time>
      </trkpt>
      <trkpt lat="49.2" lon="2.20718">
        <ele>98.333387</ele>
        <time>2025-06-19T07:36:53.507Z</time>
      </trkpt>
      <trkpt lat="49.19992" lon="2.20732">
        <ele>98.226084</ele>
        <time>2025-06-19T07:36:55.502Z</time>
      </trkpt>
      <trkpt lat="49.19985" lon="2.20746">
        <ele>98.117486</ele>
        <time>2025-06-19T07:36:57.506Z</time>
      </trkpt>
      <trkpt lat="49.19977" lon="2.20758">
        <ele>98.008325</ele>
        <time>2025-06-19T07:36:59.499Z</time>
      </trkpt>
      <trkpt lat="49.19966" lon="2.20768">
        <ele>97.895955</ele>
        <time>2025-06-19T07:37:01.508Z</time>
      </trkpt>
      <trkpt lat="49.19957" lon="2.20778">
        <ele>97.791441</ele>
        <time>2025-06-19T07:37:03.499Z</time>
      </trkpt>
      <trkpt lat="49.19947" lon="2.20788">
        <ele>97.679311</ele>
        <time>2025-06-19T07:37:06.508Z</time>
      </trkpt>
      <trkpt lat="49.19938" lon="2.20796">
        <ele>97.661888</ele>
        <time>2025-06-19T07:37:09.509Z</time>
      </trkpt>
      <trkpt lat="49.19928" lon="2.20806">
        <ele>97.683879</ele>
        <time>2025-06-19T07:37:12.501Z</time>
      </trkpt>
      <trkpt lat="49.1992" lon="2.20814">
        <ele>97.701924</ele>
        <time>2025-06-19T07:37:14.508Z</time>
      </trkpt>
      <trkpt lat="49.19911" lon="2.20821">
        <ele>97.720733</ele>
        <time>2025-06-19T07:37:16.502Z</time>
      </trkpt>
      <trkpt lat="49.19901" lon="2.20829">
        <ele>97.741073</ele>
        <time>2025-06-19T07:37:18.511Z</time>
      </trkpt>
      <trkpt lat="49.19892" lon="2.20838">
        <ele>97.762077</ele>
        <time>2025-06-19T07:37:20.515Z</time>
      </trkpt>
      <trkpt lat="49.19881" lon="2.20848">
        <ele>97.785597</ele>
        <time>2025-06-19T07:37:22.519Z</time>
      </trkpt>
      <trkpt lat="49.1987" lon="2.20859">
        <ele>97.808804</ele>
        <time>2025-06-19T07:37:24.507Z</time>
      </trkpt>
      <trkpt lat="49.1986" lon="2.20868">
        <ele>97.831918</ele>
        <time>2025-06-19T07:37:26.524Z</time>
      </trkpt>
      <trkpt lat="49.19849" lon="2.20878">
        <ele>97.85455</ele>
        <time>2025-06-19T07:37:28.510Z</time>
      </trkpt>
      <trkpt lat="49.19839" lon="2.20887">
        <ele>97.875985</ele>
        <time>2025-06-19T07:37:30.510Z</time>
      </trkpt>
      <trkpt lat="49.19829" lon="2.20896">
        <ele>97.897228</ele>
        <time>2025-06-19T07:37:32.509Z</time>
      </trkpt>
      <trkpt lat="49.1982" lon="2.20905">
        <ele>97.91793</ele>
        <time>2025-06-19T07:37:34.514Z</time>
      </trkpt>
      <trkpt lat="49.19811" lon="2.20914">
        <ele>97.938347</ele>
        <time>2025-06-19T07:37:36.524Z</time>
      </trkpt>
      <trkpt lat="49.19802" lon="2.20922">
        <ele>97.956965</ele>
        <time>2025-06-19T07:37:38.525Z</time>
      </trkpt>
      <trkpt lat="49.19795" lon="2.20933">
        <ele>97.974759</ele>
        <time>2025-06-19T07:37:40.506Z</time>
      </trkpt>
      <trkpt lat="49.19788" lon="2.20947">
        <ele>98.196895</ele>
        <time>2025-06-19T07:37:43.506Z</time>
      </trkpt>
      <trkpt lat="49.19782" lon="2.20963">
        <ele>98.534539</ele>
        <time>2025-06-19T07:37:46.502Z</time>
      </trkpt>
      <trkpt lat="49.1978" lon="2.20978">
        <ele>98.807563</ele>
        <time>2025-06-19T07:37:48.505Z</time>
      </trkpt>
      <trkpt lat="49.19779" lon="2.20993">
        <ele>99.093484</ele>
        <time>2025-06-19T07:37:50.511Z</time>
      </trkpt>
      <trkpt lat="49.1978" lon="2.21008">
        <ele>99.359989</ele>
        <time>2025-06-19T07:37:52.501Z</time>
      </trkpt>
      <trkpt lat="49.19786" lon="2.21025">
        <ele>99.719195</ele>
        <time>2025-06-19T07:37:55.507Z</time>
      </trkpt>
      <trkpt lat="49.19791" lon="2.21036">
        <ele>99.973197</ele>
        <time>2025-06-19T07:37:57.514Z</time>
      </trkpt>
      <trkpt lat="49.19799" lon="2.21052">
        <ele>100.340769</ele>
        <time>2025-06-19T07:38:00.510Z</time>
      </trkpt>
      <trkpt lat="49.19806" lon="2.21067">
        <ele>100.695764</ele>
        <time>2025-06-19T07:38:03.515Z</time>
      </trkpt>
      <trkpt lat="49.19813" lon="2.21082">
        <ele>101.035693</ele>
        <time>2025-06-19T07:38:06.527Z</time>
      </trkpt>
      <trkpt lat="49.19821" lon="2.21097">
        <ele>101.369507</ele>
        <time>2025-06-19T07:38:09.507Z</time>
      </trkpt>
      <trkpt lat="49.19828" lon="2.21111">
        <ele>101.706276</ele>
        <time>2025-06-19T07:38:12.526Z</time>
      </trkpt>
      <trkpt lat="49.19833" lon="2.21128">
        <ele>102.046592</ele>
        <time>2025-06-19T07:38:15.504Z</time>
      </trkpt>
      <trkpt lat="49.19836" lon="2.21144">
        <ele>102.36212</ele>
        <time>2025-06-19T07:38:18.511Z</time>
      </trkpt>
      <trkpt lat="49.19838" lon="2.2116">
        <ele>102.665845</ele>
        <time>2025-06-19T07:38:21.504Z</time>
      </trkpt>
      <trkpt lat="49.19839" lon="2.21176">
        <ele>102.954117</ele>
        <time>2025-06-19T07:38:24.504Z</time>
      </trkpt>
      <trkpt lat="49.19841" lon="2.21192">
        <ele>103.097865</ele>
        <time>2025-06-19T07:38:27.514Z</time>
      </trkpt>
      <trkpt lat="49.19844" lon="2.21206">
        <ele>103.161706</ele>
        <time>2025-06-19T07:38:30.521Z</time>
      </trkpt>
      <trkpt lat="49.19848" lon="2.2122">
        <ele>103.227677</ele>
        <time>2025-06-19T07:38:33.511Z</time>
      </trkpt>
      <trkpt lat="49.19853" lon="2.21235">
        <ele>103.293774</ele>
        <time>2025-06-19T07:38:36.514Z</time>
      </trkpt>
      <trkpt lat="49.19856" lon="2.21248">
        <ele>103.355908</ele>
        <time>2025-06-19T07:38:39.513Z</time>
      </trkpt>
      <trkpt lat="49.1986" lon="2.21263">
        <ele>103.420103</ele>
        <time>2025-06-19T07:38:42.508Z</time>
      </trkpt>
      <trkpt lat="49.19866" lon="2.21276">
        <ele>103.487701</ele>
        <time>2025-06-19T07:38:45.501Z</time>
      </trkpt>
      <trkpt lat="49.19873" lon="2.21291">
        <ele>103.562742</ele>
        <time>2025-06-19T07:38:48.518Z</time>
      </trkpt>
      <trkpt lat="49.1988" lon="2.21307">
        <ele>103.644706</ele>
        <time>2025-06-19T07:38:51.507Z</time>
      </trkpt>
      <trkpt lat="49.19888" lon="2.21324">
        <ele>103.729466</ele>
        <time>2025-06-19T07:38:54.511Z</time>
      </trkpt>
      <trkpt lat="49.19895" lon="2.21341">
        <ele>103.81671</ele>
        <time>2025-06-19T07:38:57.511Z</time>
      </trkpt>
      <trkpt lat="49.19901" lon="2.21353">
        <ele>103.879202</ele>
        <time>2025-06-19T07:38:59.506Z</time>
      </trkpt>
      <trkpt lat="49.19907" lon="2.21365">
        <ele>103.941266</ele>
        <time>2025-06-19T07:39:01.513Z</time>
      </trkpt>
      <trkpt lat="49.19913" lon="2.21376">
        <ele>104.001563</ele>
        <time>2025-06-19T07:39:03.514Z</time>
      </trkpt>
      <trkpt lat="49.19918" lon="2.21388">
        <ele>104.062669</ele>
        <time>2025-06-19T07:39:05.510Z</time>
      </trkpt>
      <trkpt lat="49.19924" lon="2.214">
        <ele>104.125041</ele>
        <time>2025-06-19T07:39:07.504Z</time>
      </trkpt>
      <trkpt lat="49.19929" lon="2.21412">
        <ele>104.185998</ele>
        <time>2025-06-19T07:39:09.510Z</time>
      </trkpt>
      <trkpt lat="49.19935" lon="2.21424">
        <ele>104.178638</ele>
        <time>2025-06-19T07:39:11.501Z</time>
      </trkpt>
      <trkpt lat="49.19942" lon="2.21437">
        <ele>104.136327</ele>
        <time>2025-06-19T07:39:13.518Z</time>
      </trkpt>
      <trkpt lat="49.19949" lon="2.21449">
        <ele>104.094663</ele>
        <time>2025-06-19T07:39:15.506Z</time>
      </trkpt>
      <trkpt lat="49.19956" lon="2.21461">
        <ele>104.052999</ele>
        <time>2025-06-19T07:39:17.519Z</time>
      </trkpt>
      <trkpt lat="49.19963" lon="2.21473">
        <ele>104.011981</ele>
        <time>2025-06-19T07:39:19.511Z</time>
      </trkpt>
      <trkpt lat="49.1997" lon="2.21484">
        <ele>103.972364</ele>
        <time>2025-06-19T07:39:21.515Z</time>
      </trkpt>
      <trkpt lat="49.19976" lon="2.21496">
        <ele>103.933394</ele>
        <time>2025-06-19T07:39:23.513Z</time>
      </trkpt>
      <trkpt lat="49.19983" lon="2.21507">
        <ele>103.893741</ele>
        <time>2025-06-19T07:39:25.526Z</time>
      </trkpt>
      <trkpt lat="49.19991" lon="2.21518">
        <ele>103.850451</ele>
        <time>2025-06-19T07:39:27.522Z</time>
      </trkpt>
      <trkpt lat="49.19999" lon="2.21529">
        <ele>103.809997</ele>
        <time>2025-06-19T07:39:29.524Z</time>
      </trkpt>
      <trkpt lat="49.20006" lon="2.2154">
        <ele>103.770467</ele>
        <time>2025-06-19T07:39:31.507Z</time>
      </trkpt>
      <trkpt lat="49.20013" lon="2.2155">
        <ele>103.731584</ele>
        <time>2025-06-19T07:39:33.505Z</time>
      </trkpt>
      <trkpt lat="49.20021" lon="2.2156">
        <ele>103.690241</ele>
        <time>2025-06-19T07:39:35.511Z</time>
      </trkpt>
      <trkpt lat="49.20029" lon="2.21572">
        <ele>103.648518</ele>
        <time>2025-06-19T07:39:37.507Z</time>
      </trkpt>
      <trkpt lat="49.20036" lon="2.21583">
        <ele>103.607069</ele>
        <time>2025-06-19T07:39:39.506Z</time>
      </trkpt>
      <trkpt lat="49.20044" lon="2.21594">
        <ele>103.566507</ele>
        <time>2025-06-19T07:39:41.506Z</time>
      </trkpt>
      <trkpt lat="49.20051" lon="2.21604">
        <ele>103.527244</ele>
        <time>2025-06-19T07:39:43.525Z</time>
      </trkpt>
      <trkpt lat="49.20058" lon="2.21614">
        <ele>103.502877</ele>
        <time>2025-06-19T07:39:45.522Z</time>
      </trkpt>
      <trkpt lat="49.20065" lon="2.21624">
        <ele>103.529904</ele>
        <time>2025-06-19T07:39:47.516Z</time>
      </trkpt>
      <trkpt lat="49.20071" lon="2.21635">
        <ele>103.555849</ele>
        <time>2025-06-19T07:39:49.516Z</time>
      </trkpt>
      <trkpt lat="49.20077" lon="2.21647">
        <ele>103.584601</ele>
        <time>2025-06-19T07:39:51.521Z</time>
      </trkpt>
      <trkpt lat="49.20084" lon="2.21657">
        <ele>103.612478</ele>
        <time>2025-06-19T07:39:53.518Z</time>
      </trkpt>
      <trkpt lat="49.20092" lon="2.21668">
        <ele>103.641818</ele>
        <time>2025-06-19T07:39:55.522Z</time>
      </trkpt>
      <trkpt lat="49.201" lon="2.21679">
        <ele>103.672194</ele>
        <time>2025-06-19T07:39:57.516Z</time>
      </trkpt>
      <trkpt lat="49.20108" lon="2.21692">
        <ele>103.704246</ele>
        <time>2025-06-19T07:39:59.509Z</time>
      </trkpt>
      <trkpt lat="49.20115" lon="2.21703">
        <ele>103.73557</ele>
        <time>2025-06-19T07:40:01.507Z</time>
      </trkpt>
      <trkpt lat="49.20123" lon="2.21715">
        <ele>103.765366</ele>
        <time>2025-06-19T07:40:03.507Z</time>
      </trkpt>
      <trkpt lat="49.20131" lon="2.21727">
        <ele>103.797096</ele>
        <time>2025-06-19T07:40:05.504Z</time>
      </trkpt>
      <trkpt lat="49.20139" lon="2.21739">
        <ele>103.828825</ele>
        <time>2025-06-19T07:40:07.507Z</time>
      </trkpt>
      <trkpt lat="49.20146" lon="2.21751">
        <ele>103.859749</ele>
        <time>2025-06-19T07:40:09.504Z</time>
      </trkpt>
      <trkpt lat="49.20153" lon="2.21762">
        <ele>103.887866</ele>
        <time>2025-06-19T07:40:11.514Z</time>
      </trkpt>
      <trkpt lat="49.20159" lon="2.21775">
        <ele>103.917178</ele>
        <time>2025-06-19T07:40:13.503Z</time>
      </trkpt>
      <trkpt lat="49.20165" lon="2.21788">
        <ele>103.947107</ele>
        <time>2025-06-19T07:40:15.505Z</time>
      </trkpt>
      <trkpt lat="49.20171" lon="2.218">
        <ele>103.974979</ele>
        <time>2025-06-19T07:40:17.505Z</time>
      </trkpt>
      <trkpt lat="49.20176" lon="2.21811">
        <ele>104.001164</ele>
        <time>2025-06-19T07:40:19.512Z</time>
      </trkpt>
      <trkpt lat="49.20182" lon="2.21823">
        <ele>104.094612</ele>
        <time>2025-06-19T07:40:21.508Z</time>
      </trkpt>
      <trkpt lat="49.20188" lon="2.21835">
        <ele>104.219969</ele>
        <time>2025-06-19T07:40:23.517Z</time>
      </trkpt>
      <trkpt lat="49.20193" lon="2.21847">
        <ele>104.343846</ele>
        <time>2025-06-19T07:40:25.508Z</time>
      </trkpt>
      <trkpt lat="49.20199" lon="2.21859">
        <ele>104.465207</ele>
        <time>2025-06-19T07:40:27.503Z</time>
      </trkpt>
      <trkpt lat="49.20205" lon="2.21872">
        <ele>104.594747</ele>
        <time>2025-06-19T07:40:29.513Z</time>
      </trkpt>
      <trkpt lat="49.20211" lon="2.21883">
        <ele>104.719761</ele>
        <time>2025-06-19T07:40:31.518Z</time>
      </trkpt>
      <trkpt lat="49.20216" lon="2.21895">
        <ele>104.841507</ele>
        <time>2025-06-19T07:40:33.515Z</time>
      </trkpt>
      <trkpt lat="49.20222" lon="2.21907">
        <ele>104.964191</ele>
        <time>2025-06-19T07:40:35.521Z</time>
      </trkpt>
      <trkpt lat="49.20228" lon="2.21919">
        <ele>105.085674</ele>
        <time>2025-06-19T07:40:37.509Z</time>
      </trkpt>
      <trkpt lat="49.20234" lon="2.2193">
        <ele>105.208743</ele>
        <time>2025-06-19T07:40:39.521Z</time>
      </trkpt>
      <trkpt lat="49.20241" lon="2.21941">
        <ele>105.332214</ele>
        <time>2025-06-19T07:40:41.518Z</time>
      </trkpt>
      <trkpt lat="49.20249" lon="2.21957">
        <ele>105.500833</ele>
        <time>2025-06-19T07:40:44.517Z</time>
      </trkpt>
      <trkpt lat="49.20257" lon="2.21973">
        <ele>105.663155</ele>
        <time>2025-06-19T07:40:47.511Z</time>
      </trkpt>
      <trkpt lat="49.20265" lon="2.21987">
        <ele>105.816653</ele>
        <time>2025-06-19T07:40:50.503Z</time>
      </trkpt>
      <trkpt lat="49.20273" lon="2.22002">
        <ele>105.979966</ele>
        <time>2025-06-19T07:40:53.504Z</time>
      </trkpt>
      <trkpt lat="49.20281" lon="2.22015">
        <ele>106.126141</ele>
        <time>2025-06-19T07:40:56.508Z</time>
      </trkpt>
      <trkpt lat="49.2029" lon="2.22029">
        <ele>106.28904</ele>
        <time>2025-06-19T07:40:59.506Z</time>
      </trkpt>
      <trkpt lat="49.20297" lon="2.22037">
        <ele>106.41101</ele>
        <time>2025-06-19T07:41:01.511Z</time>
      </trkpt>
      <trkpt lat="49.20305" lon="2.22046">
        <ele>106.543304</ele>
        <time>2025-06-19T07:41:03.514Z</time>
      </trkpt>
      <trkpt lat="49.20312" lon="2.22056">
        <ele>106.670941</ele>
        <time>2025-06-19T07:41:05.521Z</time>
      </trkpt>
      <trkpt lat="49.20321" lon="2.22066">
        <ele>106.8101</ele>
        <time>2025-06-19T07:41:07.516Z</time>
      </trkpt>
      <trkpt lat="49.2033" lon="2.22076">
        <ele>106.960455</ele>
        <time>2025-06-19T07:41:09.507Z</time>
      </trkpt>
      <trkpt lat="49.20339" lon="2.22085">
        <ele>107.110924</ele>
        <time>2025-06-19T07:41:11.509Z</time>
      </trkpt>
      <trkpt lat="49.20349" lon="2.22095">
        <ele>107.266012</ele>
        <time>2025-06-19T07:41:13.517Z</time>
      </trkpt>
      <trkpt lat="49.20359" lon="2.22103">
        <ele>107.416555</ele>
        <time>2025-06-19T07:41:15.509Z</time>
      </trkpt>
      <trkpt lat="49.20369" lon="2.2211">
        <ele>107.566317</ele>
        <time>2025-06-19T07:41:17.524Z</time>
      </trkpt>
      <trkpt lat="49.20379" lon="2.22118">
        <ele>107.714892</ele>
        <time>2025-06-19T07:41:19.518Z</time>
      </trkpt>
      <trkpt lat="49.20389" lon="2.22126">
        <ele>107.864711</ele>
        <time>2025-06-19T07:41:21.511Z</time>
      </trkpt>
      <trkpt lat="49.20398" lon="2.22135">
        <ele>108.005994</ele>
        <time>2025-06-19T07:41:23.512Z</time>
      </trkpt>
      <trkpt lat="49.20407" lon="2.22145">
        <ele>108.15093</ele>
        <time>2025-06-19T07:41:25.513Z</time>
      </trkpt>
      <trkpt lat="49.20414" lon="2.22156">
        <ele>108.281539</ele>
        <time>2025-06-19T07:41:27.512Z</time>
      </trkpt>
      <trkpt lat="49.20421" lon="2.22166">
        <ele>108.412938</ele>
        <time>2025-06-19T07:41:29.515Z</time>
      </trkpt>
      <trkpt lat="49.2043" lon="2.22181">
        <ele>108.588646</ele>
        <time>2025-06-19T07:41:32.506Z</time>
      </trkpt>
      <trkpt lat="49.20439" lon="2.22195">
        <ele>108.7568</ele>
        <time>2025-06-19T07:41:35.512Z</time>
      </trkpt>
      <trkpt lat="49.20447" lon="2.22209">
        <ele>108.928527</ele>
        <time>2025-06-19T07:41:38.512Z</time>
      </trkpt>
      <trkpt lat="49.20456" lon="2.22224">
        <ele>109.100059</ele>
        <time>2025-06-19T07:41:41.512Z</time>
      </trkpt>
      <trkpt lat="49.20464" lon="2.22239">
        <ele>109.267818</ele>
        <time>2025-06-19T07:41:44.520Z</time>
      </trkpt>
      <trkpt lat="49.20472" lon="2.22253">
        <ele>109.436454</ele>
        <time>2025-06-19T07:41:47.520Z</time>
      </trkpt>
      <trkpt lat="49.2048" lon="2.22268">
        <ele>109.605568</ele>
        <time>2025-06-19T07:41:50.511Z</time>
      </trkpt>
      <trkpt lat="49.20488" lon="2.22283">
        <ele>109.781546</ele>
        <time>2025-06-19T07:41:53.506Z</time>
      </trkpt>
      <trkpt lat="49.20496" lon="2.223">
        <ele>109.96632</ele>
        <time>2025-06-19T07:41:56.512Z</time>
      </trkpt>
      <trkpt lat="49.20503" lon="2.22311">
        <ele>110.098634</ele>
        <time>2025-06-19T07:41:58.510Z</time>
      </trkpt>
      <trkpt lat="49.2051" lon="2.22324">
        <ele>110.243715</ele>
        <time>2025-06-19T07:42:00.524Z</time>
      </trkpt>
      <trkpt lat="49.20517" lon="2.22336">
        <ele>110.38682</ele>
        <time>2025-06-19T07:42:02.513Z</time>
      </trkpt>
      <trkpt lat="49.20524" lon="2.22347">
        <ele>110.520679</ele>
        <time>2025-06-19T07:42:04.519Z</time>
      </trkpt>
      <trkpt lat="49.20529" lon="2.22359">
        <ele>110.653432</ele>
        <time>2025-06-19T07:42:06.505Z</time>
      </trkpt>
      <trkpt lat="49.20536" lon="2.22371">
        <ele>110.797212</ele>
        <time>2025-06-19T07:42:08.520Z</time>
      </trkpt>
      <trkpt lat="49.20543" lon="2.22384">
        <ele>110.945844</ele>
        <time>2025-06-19T07:42:10.504Z</time>
      </trkpt>
      <trkpt lat="49.2055" lon="2.22396">
        <ele>111.090986</ele>
        <time>2025-06-19T07:42:12.515Z</time>
      </trkpt>
      <trkpt lat="49.20557" lon="2.2241">
        <ele>110.912051</ele>
        <time>2025-06-19T07:42:14.506Z</time>
      </trkpt>
      <trkpt lat="49.20564" lon="2.22422">
        <ele>110.666741</ele>
        <time>2025-06-19T07:42:16.506Z</time>
      </trkpt>
      <trkpt lat="49.20571" lon="2.22435">
        <ele>110.418847</ele>
        <time>2025-06-19T07:42:18.511Z</time>
      </trkpt>
      <trkpt lat="49.20579" lon="2.22448">
        <ele>110.15918</ele>
        <time>2025-06-19T07:42:20.520Z</time>
      </trkpt>
      <trkpt lat="49.20587" lon="2.22462">
        <ele>109.893232</ele>
        <time>2025-06-19T07:42:22.525Z</time>
      </trkpt>
      <trkpt lat="49.20595" lon="2.22475">
        <ele>109.62611</ele>
        <time>2025-06-19T07:42:24.518Z</time>
      </trkpt>
      <trkpt lat="49.20604" lon="2.22487">
        <ele>109.352747</ele>
        <time>2025-06-19T07:42:26.506Z</time>
      </trkpt>
      <trkpt lat="49.20614" lon="2.225">
        <ele>109.069993</ele>
        <time>2025-06-19T07:42:28.518Z</time>
      </trkpt>
      <trkpt lat="49.20623" lon="2.22513">
        <ele>108.785536</ele>
        <time>2025-06-19T07:42:30.514Z</time>
      </trkpt>
      <trkpt lat="49.20634" lon="2.22526">
        <ele>108.483506</ele>
        <time>2025-06-19T07:42:32.533Z</time>
      </trkpt>
      <trkpt lat="49.20644" lon="2.2254">
        <ele>108.171</ele>
        <time>2025-06-19T07:42:34.515Z</time>
      </trkpt>
      <trkpt lat="49.20654" lon="2.22554">
        <ele>107.854566</ele>
        <time>2025-06-19T07:42:36.510Z</time>
      </trkpt>
      <trkpt lat="49.20666" lon="2.22569">
        <ele>107.523441</ele>
        <time>2025-06-19T07:42:38.508Z</time>
      </trkpt>
      <trkpt lat="49.20677" lon="2.22584">
        <ele>107.186747</ele>
        <time>2025-06-19T07:42:40.518Z</time>
      </trkpt>
      <trkpt lat="49.20689" lon="2.226">
        <ele>107.913688</ele>
        <time>2025-06-19T07:42:42.516Z</time>
      </trkpt>
      <trkpt lat="49.207" lon="2.22617">
        <ele>109.189903</ele>
        <time>2025-06-19T07:42:44.511Z</time>
      </trkpt>
      <trkpt lat="49.20713" lon="2.22634">
        <ele>110.511499</ele>
        <time>2025-06-19T07:42:46.513Z</time>
      </trkpt>
      <trkpt lat="49.20724" lon="2.22651">
        <ele>111.797045</ele>
        <time>2025-06-19T07:42:48.520Z</time>
      </trkpt>
      <trkpt lat="49.20736" lon="2.22667">
        <ele>113.048162</ele>
        <time>2025-06-19T07:42:50.514Z</time>
      </trkpt>
      <trkpt lat="49.20747" lon="2.22684">
        <ele>114.299278</ele>
        <time>2025-06-19T07:42:52.517Z</time>
      </trkpt>
      <trkpt lat="49.20758" lon="2.22699">
        <ele>115.445377</ele>
        <time>2025-06-19T07:42:54.505Z</time>
      </trkpt>
      <trkpt lat="49.20767" lon="2.22715">
        <ele>116.534409</ele>
        <time>2025-06-19T07:42:56.518Z</time>
      </trkpt>
      <trkpt lat="49.20775" lon="2.2273">
        <ele>117.565731</ele>
        <time>2025-06-19T07:42:58.519Z</time>
      </trkpt>
      <trkpt lat="49.20781" lon="2.22745">
        <ele>118.506372</ele>
        <time>2025-06-19T07:43:00.504Z</time>
      </trkpt>
      <trkpt lat="49.20788" lon="2.2276">
        <ele>119.443041</ele>
        <time>2025-06-19T07:43:02.505Z</time>
      </trkpt>
      <trkpt lat="49.20794" lon="2.22775">
        <ele>120.361702</ele>
        <time>2025-06-19T07:43:04.514Z</time>
      </trkpt>
      <trkpt lat="49.20801" lon="2.22789">
        <ele>121.267951</ele>
        <time>2025-06-19T07:43:06.519Z</time>
      </trkpt>
      <trkpt lat="49.20808" lon="2.22803">
        <ele>120.598482</ele>
        <time>2025-06-19T07:43:08.518Z</time>
      </trkpt>
      <trkpt lat="49.20813" lon="2.22818">
        <ele>119.688002</ele>
        <time>2025-06-19T07:43:10.512Z</time>
      </trkpt>
      <trkpt lat="49.20818" lon="2.22832">
        <ele>118.869201</ele>
        <time>2025-06-19T07:43:12.512Z</time>
      </trkpt>
      <trkpt lat="49.20823" lon="2.22846">
        <ele>118.04584</ele>
        <time>2025-06-19T07:43:14.521Z</time>
      </trkpt>
      <trkpt lat="49.20827" lon="2.22859">
        <ele>117.269281</ele>
        <time>2025-06-19T07:43:16.506Z</time>
      </trkpt>
      <trkpt lat="49.20831" lon="2.22878">
        <ele>116.234343</ele>
        <time>2025-06-19T07:43:19.519Z</time>
      </trkpt>
      <trkpt lat="49.20834" lon="2.22896">
        <ele>115.241472</ele>
        <time>2025-06-19T07:43:22.528Z</time>
      </trkpt>
      <trkpt lat="49.20835" lon="2.22913">
        <ele>114.332997</ele>
        <time>2025-06-19T07:43:25.503Z</time>
      </trkpt>
      <trkpt lat="49.20837" lon="2.22931">
        <ele>113.388029</ele>
        <time>2025-06-19T07:43:28.519Z</time>
      </trkpt>
      <trkpt lat="49.2084" lon="2.22945">
        <ele>112.60499</ele>
        <time>2025-06-19T07:43:30.505Z</time>
      </trkpt>
      <trkpt lat="49.20842" lon="2.22962">
        <ele>111.723187</ele>
        <time>2025-06-19T07:43:32.505Z</time>
      </trkpt>
      <trkpt lat="49.20844" lon="2.22979">
        <ele>110.828327</ele>
        <time>2025-06-19T07:43:34.518Z</time>
      </trkpt>
      <trkpt lat="49.20844" lon="2.22996">
        <ele>109.892185</ele>
        <time>2025-06-19T07:43:36.515Z</time>
      </trkpt>
      <trkpt lat="49.20845" lon="2.23014">
        <ele>108.97115</ele>
        <time>2025-06-19T07:43:38.521Z</time>
      </trkpt>
      <trkpt lat="49.20847" lon="2.23031">
        <ele>108.047039</ele>
        <time>2025-06-19T07:43:40.515Z</time>
      </trkpt>
      <trkpt lat="49.20848" lon="2.23049">
        <ele>107.120976</ele>
        <time>2025-06-19T07:43:42.512Z</time>
      </trkpt>
      <trkpt lat="49.20849" lon="2.23065">
        <ele>107.042494</ele>
        <time>2025-06-19T07:43:44.500Z</time>
      </trkpt>
      <trkpt lat="49.2085" lon="2.23081">
        <ele>107.164146</ele>
        <time>2025-06-19T07:43:46.505Z</time>
      </trkpt>
      <trkpt lat="49.20851" lon="2.23097">
        <ele>107.28384</ele>
        <time>2025-06-19T07:43:48.513Z</time>
      </trkpt>
      <trkpt lat="49.20852" lon="2.23114">
        <ele>107.414917</ele>
        <time>2025-06-19T07:43:50.507Z</time>
      </trkpt>
      <trkpt lat="49.20854" lon="2.23131">
        <ele>107.544266</ele>
        <time>2025-06-19T07:43:52.502Z</time>
      </trkpt>
      <trkpt lat="49.20855" lon="2.23147">
        <ele>107.670676</ele>
        <time>2025-06-19T07:43:54.503Z</time>
      </trkpt>
      <trkpt lat="49.20855" lon="2.23163">
        <ele>107.791408</ele>
        <time>2025-06-19T07:43:56.500Z</time>
      </trkpt>
      <trkpt lat="49.20856" lon="2.23178">
        <ele>107.909465</ele>
        <time>2025-06-19T07:43:58.508Z</time>
      </trkpt>
      <trkpt lat="49.20858" lon="2.23193">
        <ele>108.022626</ele>
        <time>2025-06-19T07:44:00.509Z</time>
      </trkpt>
      <trkpt lat="49.20859" lon="2.23207">
        <ele>108.12848</ele>
        <time>2025-06-19T07:44:02.511Z</time>
      </trkpt>
      <trkpt lat="49.20861" lon="2.23221">
        <ele>108.236357</ele>
        <time>2025-06-19T07:44:04.506Z</time>
      </trkpt>
      <trkpt lat="49.20864" lon="2.23234">
        <ele>108.342643</ele>
        <time>2025-06-19T07:44:06.511Z</time>
      </trkpt>
      <trkpt lat="49.20868" lon="2.23247">
        <ele>108.451391</ele>
        <time>2025-06-19T07:44:08.508Z</time>
      </trkpt>
      <trkpt lat="49.20873" lon="2.23259">
        <ele>108.562833</ele>
        <time>2025-06-19T07:44:10.498Z</time>
      </trkpt>
      <trkpt lat="49.20878" lon="2.23272">
        <ele>108.675233</ele>
        <time>2025-06-19T07:44:12.511Z</time>
      </trkpt>
      <trkpt lat="49.20885" lon="2.23283">
        <ele>108.789514</ele>
        <time>2025-06-19T07:44:14.517Z</time>
      </trkpt>
      <trkpt lat="49.20892" lon="2.23293">
        <ele>108.905322</ele>
        <time>2025-06-19T07:44:16.512Z</time>
      </trkpt>
      <trkpt lat="49.20899" lon="2.23303">
        <ele>109.017126</ele>
        <time>2025-06-19T07:44:18.514Z</time>
      </trkpt>
      <trkpt lat="49.20906" lon="2.23314">
        <ele>109.118513</ele>
        <time>2025-06-19T07:44:20.520Z</time>
      </trkpt>
      <trkpt lat="49.20914" lon="2.23323">
        <ele>109.21314</ele>
        <time>2025-06-19T07:44:22.517Z</time>
      </trkpt>
      <trkpt lat="49.20922" lon="2.23333">
        <ele>109.306268</ele>
        <time>2025-06-19T07:44:24.512Z</time>
      </trkpt>
      <trkpt lat="49.2093" lon="2.23342">
        <ele>109.396775</ele>
        <time>2025-06-19T07:44:26.521Z</time>
      </trkpt>
      <trkpt lat="49.20937" lon="2.23351">
        <ele>109.483559</ele>
        <time>2025-06-19T07:44:28.529Z</time>
      </trkpt>
      <trkpt lat="49.20944" lon="2.2336">
        <ele>109.573017</ele>
        <time>2025-06-19T07:44:30.511Z</time>
      </trkpt>
      <trkpt lat="49.20951" lon="2.23369">
        <ele>109.660241</ele>
        <time>2025-06-19T07:44:32.506Z</time>
      </trkpt>
      <trkpt lat="49.20959" lon="2.23379">
        <ele>109.753755</ele>
        <time>2025-06-19T07:44:34.509Z</time>
      </trkpt>
      <trkpt lat="49.20967" lon="2.23388">
        <ele>109.846257</ele>
        <time>2025-06-19T07:44:36.520Z</time>
      </trkpt>
      <trkpt lat="49.20975" lon="2.23395">
        <ele>109.938268</ele>
        <time>2025-06-19T07:44:38.516Z</time>
      </trkpt>
      <trkpt lat="49.20985" lon="2.23399">
        <ele>110.034818</ele>
        <time>2025-06-19T07:44:40.506Z</time>
      </trkpt>
      <trkpt lat="49.20995" lon="2.23403">
        <ele>110.129466</ele>
        <time>2025-06-19T07:44:42.508Z</time>
      </trkpt>
      <trkpt lat="49.21005" lon="2.23405">
        <ele>110.224078</ele>
        <time>2025-06-19T07:44:44.518Z</time>
      </trkpt>
      <trkpt lat="49.21015" lon="2.23408">
        <ele>110.318587</ele>
        <time>2025-06-19T07:44:46.511Z</time>
      </trkpt>
      <trkpt lat="49.21028" lon="2.23412">
        <ele>110.448345</ele>
        <time>2025-06-19T07:44:49.515Z</time>
      </trkpt>
      <trkpt lat="49.21038" lon="2.23415">
        <ele>110.541298</ele>
        <time>2025-06-19T07:44:51.527Z</time>
      </trkpt>
      <trkpt lat="49.21051" lon="2.23419">
        <ele>110.666771</ele>
        <time>2025-06-19T07:44:54.511Z</time>
      </trkpt>
      <trkpt lat="49.2106" lon="2.23421">
        <ele>110.744232</ele>
        <time>2025-06-19T07:44:56.506Z</time>
      </trkpt>
      <trkpt lat="49.21069" lon="2.23424">
        <ele>110.787722</ele>
        <time>2025-06-19T07:44:58.510Z</time>
      </trkpt>
      <trkpt lat="49.21083" lon="2.23427">
        <ele>110.850904</ele>
        <time>2025-06-19T07:45:01.516Z</time>
      </trkpt>
      <trkpt lat="49.21096" lon="2.23431">
        <ele>110.912828</ele>
        <time>2025-06-19T07:45:04.511Z</time>
      </trkpt>
      <trkpt lat="49.21105" lon="2.23433">
        <ele>110.956016</ele>
        <time>2025-06-19T07:45:06.522Z</time>
      </trkpt>
      <trkpt lat="49.21114" lon="2.23435">
        <ele>110.998029</ele>
        <time>2025-06-19T07:45:08.518Z</time>
      </trkpt>
      <trkpt lat="49.21126" lon="2.23439">
        <ele>111.058064</ele>
        <time>2025-06-19T07:45:11.515Z</time>
      </trkpt>
      <trkpt lat="49.2114" lon="2.23443">
        <ele>111.121337</ele>
        <time>2025-06-19T07:45:14.510Z</time>
      </trkpt>
      <trkpt lat="49.21149" lon="2.23445">
        <ele>111.164641</ele>
        <time>2025-06-19T07:45:16.511Z</time>
      </trkpt>
      <trkpt lat="49.21159" lon="2.23448">
        <ele>111.211725</ele>
        <time>2025-06-19T07:45:18.501Z</time>
      </trkpt>
      <trkpt lat="49.21168" lon="2.23451">
        <ele>111.258412</ele>
        <time>2025-06-19T07:45:20.502Z</time>
      </trkpt>
      <trkpt lat="49.21178" lon="2.23454">
        <ele>111.302464</ele>
        <time>2025-06-19T07:45:22.507Z</time>
      </trkpt>
      <trkpt lat="49.21187" lon="2.23458">
        <ele>111.347533</ele>
        <time>2025-06-19T07:45:24.506Z</time>
      </trkpt>
      <trkpt lat="49.21195" lon="2.23465">
        <ele>111.391453</ele>
        <time>2025-06-19T07:45:26.508Z</time>
      </trkpt>
      <trkpt lat="49.21204" lon="2.23473">
        <ele>111.439212</ele>
        <time>2025-06-19T07:45:28.510Z</time>
      </trkpt>
      <trkpt lat="49.21212" lon="2.23483">
        <ele>111.487937</ele>
        <time>2025-06-19T07:45:30.514Z</time>
      </trkpt>
      <trkpt lat="49.21221" lon="2.23492">
        <ele>111.538875</ele>
        <time>2025-06-19T07:45:32.502Z</time>
      </trkpt>
      <trkpt lat="49.2123" lon="2.23502">
        <ele>111.614445</ele>
        <time>2025-06-19T07:45:34.511Z</time>
      </trkpt>
      <trkpt lat="49.2124" lon="2.23511">
        <ele>111.753122</ele>
        <time>2025-06-19T07:45:36.508Z</time>
      </trkpt>
      <trkpt lat="49.21249" lon="2.2352">
        <ele>111.891662</ele>
        <time>2025-06-19T07:45:38.514Z</time>
      </trkpt>
      <trkpt lat="49.21258" lon="2.23529">
        <ele>112.027357</ele>
        <time>2025-06-19T07:45:40.515Z</time>
      </trkpt>
      <trkpt lat="49.21267" lon="2.23539">
        <ele>112.156846</ele>
        <time>2025-06-19T07:45:42.515Z</time>
      </trkpt>
      <trkpt lat="49.21275" lon="2.23548">
        <ele>112.289315</ele>
        <time>2025-06-19T07:45:44.518Z</time>
      </trkpt>
      <trkpt lat="49.21284" lon="2.23557">
        <ele>112.421183</ele>
        <time>2025-06-19T07:45:46.515Z</time>
      </trkpt>
      <trkpt lat="49.21293" lon="2.23566">
        <ele>112.556182</ele>
        <time>2025-06-19T07:45:48.520Z</time>
      </trkpt>
      <trkpt lat="49.21302" lon="2.23576">
        <ele>112.698289</ele>
        <time>2025-06-19T07:45:50.509Z</time>
      </trkpt>
      <trkpt lat="49.21312" lon="2.23585">
        <ele>112.843536</ele>
        <time>2025-06-19T07:45:52.515Z</time>
      </trkpt>
      <trkpt lat="49.21321" lon="2.23594">
        <ele>112.97774</ele>
        <time>2025-06-19T07:45:54.511Z</time>
      </trkpt>
      <trkpt lat="49.2133" lon="2.23603">
        <ele>113.10286</ele>
        <time>2025-06-19T07:45:56.519Z</time>
      </trkpt>
      <trkpt lat="49.21341" lon="2.23614">
        <ele>113.268107</ele>
        <time>2025-06-19T07:45:59.515Z</time>
      </trkpt>
      <trkpt lat="49.21352" lon="2.23626">
        <ele>113.43579</ele>
        <time>2025-06-19T07:46:02.511Z</time>
      </trkpt>
      <trkpt lat="49.2136" lon="2.23633">
        <ele>113.55359</ele>
        <time>2025-06-19T07:46:04.519Z</time>
      </trkpt>
      <trkpt lat="49.21367" lon="2.23642">
        <ele>113.670573</ele>
        <time>2025-06-19T07:46:06.507Z</time>
      </trkpt>
      <trkpt lat="49.21376" lon="2.23657">
        <ele>113.860098</ele>
        <time>2025-06-19T07:46:09.502Z</time>
      </trkpt>
      <trkpt lat="49.21383" lon="2.23671">
        <ele>114.38861</ele>
        <time>2025-06-19T07:46:12.511Z</time>
      </trkpt>
      <trkpt lat="49.21391" lon="2.23683">
        <ele>114.858367</ele>
        <time>2025-06-19T07:46:15.518Z</time>
      </trkpt>
      <trkpt lat="49.21398" lon="2.23695">
        <ele>115.333579</ele>
        <time>2025-06-19T07:46:18.511Z</time>
      </trkpt>
      <trkpt lat="49.21405" lon="2.23706">
        <ele>115.79339</ele>
        <time>2025-06-19T07:46:21.520Z</time>
      </trkpt>
      <trkpt lat="49.21413" lon="2.23717">
        <ele>116.279437</ele>
        <time>2025-06-19T07:46:24.509Z</time>
      </trkpt>
      <trkpt lat="49.21422" lon="2.23727">
        <ele>116.763342</ele>
        <time>2025-06-19T07:46:27.509Z</time>
      </trkpt>
      <trkpt lat="49.21431" lon="2.23736">
        <ele>117.251558</ele>
        <time>2025-06-19T07:46:30.506Z</time>
      </trkpt>
      <trkpt lat="49.21441" lon="2.23743">
        <ele>117.71741</ele>
        <time>2025-06-19T07:46:33.521Z</time>
      </trkpt>
      <trkpt lat="49.21449" lon="2.23748">
        <ele>118.136663</ele>
        <time>2025-06-19T07:46:36.514Z</time>
      </trkpt>
      <trkpt lat="49.21459" lon="2.23753">
        <ele>118.571552</ele>
        <time>2025-06-19T07:46:39.522Z</time>
      </trkpt>
      <trkpt lat="49.21468" lon="2.23758">
        <ele>119.001275</ele>
        <time>2025-06-19T07:46:42.515Z</time>
      </trkpt>
      <trkpt lat="49.21477" lon="2.23761">
        <ele>119.425834</ele>
        <time>2025-06-19T07:46:45.522Z</time>
      </trkpt>
      <trkpt lat="49.21488" lon="2.23761">
        <ele>119.91475</ele>
        <time>2025-06-19T07:46:48.506Z</time>
      </trkpt>
      <trkpt lat="49.215" lon="2.23759">
        <ele>120.427495</ele>
        <time>2025-06-19T07:46:51.505Z</time>
      </trkpt>
      <trkpt lat="49.21511" lon="2.23758">
        <ele>120.939812</ele>
        <time>2025-06-19T07:46:54.506Z</time>
      </trkpt>
      <trkpt lat="49.21523" lon="2.23758">
        <ele>121.450952</ele>
        <time>2025-06-19T07:46:57.515Z</time>
      </trkpt>
      <trkpt lat="49.21534" lon="2.23758">
        <ele>122.053295</ele>
        <time>2025-06-19T07:47:00.518Z</time>
      </trkpt>
      <trkpt lat="49.21546" lon="2.23757">
        <ele>122.828146</ele>
        <time>2025-06-19T07:47:03.506Z</time>
      </trkpt>
      <trkpt lat="49.21555" lon="2.23756">
        <ele>123.481489</ele>
        <time>2025-06-19T07:47:06.526Z</time>
      </trkpt>
      <trkpt lat="49.21567" lon="2.23756">
        <ele>124.269781</ele>
        <time>2025-06-19T07:47:10.512Z</time>
      </trkpt>
      <trkpt lat="49.21578" lon="2.23756">
        <ele>124.9905</ele>
        <time>2025-06-19T07:47:14.517Z</time>
      </trkpt>
      <trkpt lat="49.21588" lon="2.23757">
        <ele>125.704103</ele>
        <time>2025-06-19T07:47:18.529Z</time>
      </trkpt>
      <trkpt lat="49.21598" lon="2.23758">
        <ele>126.39976</ele>
        <time>2025-06-19T07:47:22.514Z</time>
      </trkpt>
      <trkpt lat="49.21608" lon="2.23761">
        <ele>127.060519</ele>
        <time>2025-06-19T07:47:26.514Z</time>
      </trkpt>
      <trkpt lat="49.21617" lon="2.23765">
        <ele>127.705055</ele>
        <time>2025-06-19T07:47:30.503Z</time>
      </trkpt>
      <trkpt lat="49.21625" lon="2.23775">
        <ele>128.411904</ele>
        <time>2025-06-19T07:47:34.506Z</time>
      </trkpt>
      <trkpt lat="49.2163" lon="2.23788">
        <ele>129.092086</ele>
        <time>2025-06-19T07:47:38.507Z</time>
      </trkpt>
      <trkpt lat="49.21633" lon="2.23802">
        <ele>129.725748</ele>
        <time>2025-06-19T07:47:42.508Z</time>
      </trkpt>
      <trkpt lat="49.21636" lon="2.23818">
        <ele>130.474448</ele>
        <time>2025-06-19T07:47:47.513Z</time>
      </trkpt>
      <trkpt lat="49.21639" lon="2.23834">
        <ele>131.206262</ele>
        <time>2025-06-19T07:47:52.519Z</time>
      </trkpt>
      <trkpt lat="49.21643" lon="2.2385">
        <ele>131.950754</ele>
        <time>2025-06-19T07:47:57.514Z</time>
      </trkpt>
      <trkpt lat="49.21647" lon="2.23864">
        <ele>132.649766</ele>
        <time>2025-06-19T07:48:02.510Z</time>
      </trkpt>
      <trkpt lat="49.21651" lon="2.23879">
        <ele>133.349098</ele>
        <time>2025-06-19T07:48:07.510Z</time>
      </trkpt>
      <trkpt lat="49.21655" lon="2.23893">
        <ele>134.028509</ele>
        <time>2025-06-19T07:48:12.507Z</time>
      </trkpt>
      <trkpt lat="49.21658" lon="2.23909">
        <ele>134.736484</ele>
        <time>2025-06-19T07:48:17.503Z</time>
      </trkpt>
      <trkpt lat="49.21662" lon="2.23923">
        <ele>135.411954</ele>
        <time>2025-06-19T07:48:22.505Z</time>
      </trkpt>
      <trkpt lat="49.21666" lon="2.23937">
        <ele>136.091502</ele>
        <time>2025-06-19T07:48:27.501Z</time>
      </trkpt>
      <trkpt lat="49.21671" lon="2.2395">
        <ele>136.704442</ele>
        <time>2025-06-19T07:48:31.503Z</time>
      </trkpt>
      <trkpt lat="49.21676" lon="2.23961">
        <ele>137.312313</ele>
        <time>2025-06-19T07:48:35.507Z</time>
      </trkpt>
      <trkpt lat="49.21683" lon="2.23971">
        <ele>137.920675</ele>
        <time>2025-06-19T07:48:39.513Z</time>
      </trkpt>
      <trkpt lat="49.21691" lon="2.23982">
        <ele>138.64</ele>
        <time>2025-06-19T07:48:44.507Z</time>
      </trkpt>
      <trkpt lat="49.21699" lon="2.2399">
        <ele>139.263575</ele>
        <time>2025-06-19T07:48:48.523Z</time>
      </trkpt>
      <trkpt lat="49.21706" lon="2.23998">
        <ele>139.877544</ele>
        <time>2025-06-19T07:48:52.514Z</time>
      </trkpt>
      <trkpt lat="49.21714" lon="2.24006">
        <ele>140.494359</ele>
        <time>2025-06-19T07:48:56.513Z</time>
      </trkpt>
      <trkpt lat="49.21722" lon="2.24012">
        <ele>141.090902</ele>
        <time>2025-06-19T07:49:00.512Z</time>
      </trkpt>
      <trkpt lat="49.21732" lon="2.24018">
        <ele>141.824391</ele>
        <time>2025-06-19T07:49:05.512Z</time>
      </trkpt>
      <trkpt lat="49.21742" lon="2.24026">
        <ele>142.525738</ele>
        <time>2025-06-19T07:49:10.522Z</time>
      </trkpt>
      <trkpt lat="49.21752" lon="2.24034">
        <ele>143.259565</ele>
        <time>2025-06-19T07:49:15.507Z</time>
      </trkpt>
      <trkpt lat="49.21761" lon="2.24042">
        <ele>143.98604</ele>
        <time>2025-06-19T07:49:20.518Z</time>
      </trkpt>
      <trkpt lat="49.21772" lon="2.24049">
        <ele>144.737787</ele>
        <time>2025-06-19T07:49:25.507Z</time>
      </trkpt>
      <trkpt lat="49.2178" lon="2.24056">
        <ele>145.389308</ele>
        <time>2025-06-19T07:49:29.524Z</time>
      </trkpt>
      <trkpt lat="49.21789" lon="2.24062">
        <ele>145.96913</ele>
        <time>2025-06-19T07:49:33.522Z</time>
      </trkpt>
      <trkpt lat="49.21798" lon="2.24066">
        <ele>146.476347</ele>
        <time>2025-06-19T07:49:37.516Z</time>
      </trkpt>
      <trkpt lat="49.21805" lon="2.24075">
        <ele>146.965733</ele>
        <time>2025-06-19T07:49:41.502Z</time>
      </trkpt>
      <trkpt lat="49.21816" lon="2.24082">
        <ele>147.54191</ele>
        <time>2025-06-19T07:49:46.517Z</time>
      </trkpt>
      <trkpt lat="49.21824" lon="2.24088">
        <ele>148.05116</ele>
        <time>2025-06-19T07:49:50.512Z</time>
      </trkpt>
      <trkpt lat="49.21833" lon="2.24093">
        <ele>148.538449</ele>
        <time>2025-06-19T07:49:54.507Z</time>
      </trkpt>
      <trkpt lat="49.21844" lon="2.241">
        <ele>149.115984</ele>
        <time>2025-06-19T07:49:59.516Z</time>
      </trkpt>
      <trkpt lat="49.21853" lon="2.24108">
        <ele>149.700999</ele>
        <time>2025-06-19T07:50:04.512Z</time>
      </trkpt>
      <trkpt lat="49.21863" lon="2.24115">
        <ele>150.240896</ele>
        <time>2025-06-19T07:50:08.507Z</time>
      </trkpt>
      <trkpt lat="49.21873" lon="2.24124">
        <ele>150.839828</ele>
        <time>2025-06-19T07:50:12.500Z</time>
      </trkpt>
      <trkpt lat="49.21881" lon="2.24132">
        <ele>151.3328</ele>
        <time>2025-06-19T07:50:15.518Z</time>
      </trkpt>
      <trkpt lat="49.2189" lon="2.24142">
        <ele>151.914751</ele>
        <time>2025-06-19T07:50:19.515Z</time>
      </trkpt>
      <trkpt lat="49.21898" lon="2.24154">
        <ele>152.512847</ele>
        <time>2025-06-19T07:50:23.512Z</time>
      </trkpt>
      <trkpt lat="49.21905" lon="2.24163">
        <ele>152.978963</ele>
        <time>2025-06-19T07:50:26.514Z</time>
      </trkpt>
      <trkpt lat="49.21913" lon="2.24172">
        <ele>153.478653</ele>
        <time>2025-06-19T07:50:29.513Z</time>
      </trkpt>
      <trkpt lat="49.21919" lon="2.24183">
        <ele>153.960962</ele>
        <time>2025-06-19T07:50:32.508Z</time>
      </trkpt>
      <trkpt lat="49.21926" lon="2.24192">
        <ele>154.438536</ele>
        <time>2025-06-19T07:50:35.506Z</time>
      </trkpt>
      <trkpt lat="49.21932" lon="2.24203">
        <ele>154.91342</ele>
        <time>2025-06-19T07:50:38.511Z</time>
      </trkpt>
      <trkpt lat="49.21938" lon="2.24213">
        <ele>155.425948</ele>
        <time>2025-06-19T07:50:41.510Z</time>
      </trkpt>
      <trkpt lat="49.21945" lon="2.24224">
        <ele>156.009227</ele>
        <time>2025-06-19T07:50:44.514Z</time>
      </trkpt>
      <trkpt lat="49.21952" lon="2.24237">
        <ele>156.724792</ele>
        <time>2025-06-19T07:50:48.519Z</time>
      </trkpt>
      <trkpt lat="49.21957" lon="2.24249">
        <ele>157.276792</ele>
        <time>2025-06-19T07:50:51.505Z</time>
      </trkpt>
      <trkpt lat="49.21964" lon="2.24264">
        <ele>158.010667</ele>
        <time>2025-06-19T07:50:55.511Z</time>
      </trkpt>
      <trkpt lat="49.2197" lon="2.24279">
        <ele>158.710818</ele>
        <time>2025-06-19T07:50:59.516Z</time>
      </trkpt>
      <trkpt lat="49.21975" lon="2.24294">
        <ele>159.421306</ele>
        <time>2025-06-19T07:51:03.513Z</time>
      </trkpt>
      <trkpt lat="49.21981" lon="2.24311">
        <ele>160.146117</ele>
        <time>2025-06-19T07:51:07.505Z</time>
      </trkpt>
      <trkpt lat="49.21985" lon="2.24323">
        <ele>160.73294</ele>
        <time>2025-06-19T07:51:10.517Z</time>
      </trkpt>
      <trkpt lat="49.2199" lon="2.24337">
        <ele>161.347341</ele>
        <time>2025-06-19T07:51:13.507Z</time>
      </trkpt>
      <trkpt lat="49.21994" lon="2.2435">
        <ele>161.930404</ele>
        <time>2025-06-19T07:51:16.502Z</time>
      </trkpt>
      <trkpt lat="49.22" lon="2.24366">
        <ele>162.664401</ele>
        <time>2025-06-19T07:51:20.504Z</time>
      </trkpt>
      <trkpt lat="49.22003" lon="2.24379">
        <ele>163.237123</ele>
        <time>2025-06-19T07:51:23.502Z</time>
      </trkpt>
      <trkpt lat="49.22008" lon="2.24395">
        <ele>163.937657</ele>
        <time>2025-06-19T07:51:27.507Z</time>
      </trkpt>
      <trkpt lat="49.2201" lon="2.24408">
        <ele>164.49556</ele>
        <time>2025-06-19T07:51:33.510Z</time>
      </trkpt>
      <trkpt lat="49.22017" lon="2.2442">
        <ele>165.093812</ele>
        <time>2025-06-19T07:54:29.500Z</time>
      </trkpt>
      <trkpt lat="49.22022" lon="2.24436">
        <ele>165.841198</ele>
        <time>2025-06-19T07:54:33.509Z</time>
      </trkpt>
      <trkpt lat="49.22027" lon="2.24451">
        <ele>166.348312</ele>
        <time>2025-06-19T07:54:36.506Z</time>
      </trkpt>
      <trkpt lat="49.22032" lon="2.24469">
        <ele>166.493624</ele>
        <time>2025-06-19T07:54:39.495Z</time>
      </trkpt>
      <trkpt lat="49.22037" lon="2.24487">
        <ele>166.64903</ele>
        <time>2025-06-19T07:54:42.516Z</time>
      </trkpt>
      <trkpt lat="49.22043" lon="2.24506">
        <ele>166.804067</ele>
        <time>2025-06-19T07:54:45.528Z</time>
      </trkpt>
      <trkpt lat="49.22047" lon="2.24519">
        <ele>166.918924</ele>
        <time>2025-06-19T07:54:47.509Z</time>
      </trkpt>
      <trkpt lat="49.22051" lon="2.24532">
        <ele>167.030327</ele>
        <time>2025-06-19T07:54:49.507Z</time>
      </trkpt>
      <trkpt lat="49.22055" lon="2.24546">
        <ele>167.144192</ele>
        <time>2025-06-19T07:54:51.502Z</time>
      </trkpt>
      <trkpt lat="49.22059" lon="2.24558">
        <ele>167.254387</ele>
        <time>2025-06-19T07:54:53.506Z</time>
      </trkpt>
      <trkpt lat="49.22063" lon="2.24572">
        <ele>167.369241</ele>
        <time>2025-06-19T07:54:55.510Z</time>
      </trkpt>
      <trkpt lat="49.22068" lon="2.24586">
        <ele>167.491129</ele>
        <time>2025-06-19T07:54:57.513Z</time>
      </trkpt>
      <trkpt lat="49.22072" lon="2.24601">
        <ele>167.612739</ele>
        <time>2025-06-19T07:54:59.510Z</time>
      </trkpt>
      <trkpt lat="49.22076" lon="2.24616">
        <ele>167.74209</ele>
        <time>2025-06-19T07:55:01.515Z</time>
      </trkpt>
      <trkpt lat="49.22081" lon="2.24633">
        <ele>167.878543</ele>
        <time>2025-06-19T07:55:03.509Z</time>
      </trkpt>
      <trkpt lat="49.22085" lon="2.2465">
        <ele>168.018059</ele>
        <time>2025-06-19T07:55:05.511Z</time>
      </trkpt>
      <trkpt lat="49.22088" lon="2.24667">
        <ele>168.158982</ele>
        <time>2025-06-19T07:55:07.508Z</time>
      </trkpt>
      <trkpt lat="49.22092" lon="2.24685">
        <ele>168.303012</ele>
        <time>2025-06-19T07:55:09.513Z</time>
      </trkpt>
      <trkpt lat="49.22095" lon="2.24703">
        <ele>168.431565</ele>
        <time>2025-06-19T07:55:11.508Z</time>
      </trkpt>
      <trkpt lat="49.22098" lon="2.24721">
        <ele>168.490144</ele>
        <time>2025-06-19T07:55:13.511Z</time>
      </trkpt>
      <trkpt lat="49.22102" lon="2.24739">
        <ele>168.550278</ele>
        <time>2025-06-19T07:55:15.501Z</time>
      </trkpt>
      <trkpt lat="49.22105" lon="2.24756">
        <ele>168.609033</ele>
        <time>2025-06-19T07:55:17.507Z</time>
      </trkpt>
      <trkpt lat="49.22108" lon="2.24774">
        <ele>168.669034</ele>
        <time>2025-06-19T07:55:19.511Z</time>
      </trkpt>
      <trkpt lat="49.22111" lon="2.24792">
        <ele>168.730413</ele>
        <time>2025-06-19T07:55:21.515Z</time>
      </trkpt>
      <trkpt lat="49.22115" lon="2.2481">
        <ele>168.790959</ele>
        <time>2025-06-19T07:55:23.508Z</time>
      </trkpt>
      <trkpt lat="49.22118" lon="2.2483">
        <ele>168.856086</ele>
        <time>2025-06-19T07:55:25.516Z</time>
      </trkpt>
      <trkpt lat="49.22122" lon="2.24849">
        <ele>168.919649</ele>
        <time>2025-06-19T07:55:27.516Z</time>
      </trkpt>
      <trkpt lat="49.22125" lon="2.24868">
        <ele>168.985787</ele>
        <time>2025-06-19T07:55:29.510Z</time>
      </trkpt>
      <trkpt lat="49.22129" lon="2.24888">
        <ele>169.053615</ele>
        <time>2025-06-19T07:55:31.510Z</time>
      </trkpt>
      <trkpt lat="49.22133" lon="2.24909">
        <ele>169.121717</ele>
        <time>2025-06-19T07:55:33.515Z</time>
      </trkpt>
      <trkpt lat="49.22137" lon="2.24929">
        <ele>169.189642</ele>
        <time>2025-06-19T07:55:35.506Z</time>
      </trkpt>
      <trkpt lat="49.22141" lon="2.24948">
        <ele>169.256402</ele>
        <time>2025-06-19T07:55:37.503Z</time>
      </trkpt>
      <trkpt lat="49.22144" lon="2.24967">
        <ele>169.337304</ele>
        <time>2025-06-19T07:55:39.503Z</time>
      </trkpt>
      <trkpt lat="49.22148" lon="2.24985">
        <ele>169.515324</ele>
        <time>2025-06-19T07:55:41.498Z</time>
      </trkpt>
      <trkpt lat="49.22151" lon="2.25002">
        <ele>169.683486</ele>
        <time>2025-06-19T07:55:43.496Z</time>
      </trkpt>
      <trkpt lat="49.22154" lon="2.25017">
        <ele>169.840744</ele>
        <time>2025-06-19T07:55:45.509Z</time>
      </trkpt>
      <trkpt lat="49.22157" lon="2.25033">
        <ele>170.000816</ele>
        <time>2025-06-19T07:55:47.514Z</time>
      </trkpt>
      <trkpt lat="49.22159" lon="2.25048">
        <ele>170.153124</ele>
        <time>2025-06-19T07:55:49.505Z</time>
      </trkpt>
      <trkpt lat="49.22162" lon="2.25064">
        <ele>170.314302</ele>
        <time>2025-06-19T07:55:51.514Z</time>
      </trkpt>
      <trkpt lat="49.22165" lon="2.2508">
        <ele>170.482579</ele>
        <time>2025-06-19T07:55:53.514Z</time>
      </trkpt>
      <trkpt lat="49.22168" lon="2.25097">
        <ele>170.647225</ele>
        <time>2025-06-19T07:55:55.516Z</time>
      </trkpt>
      <trkpt lat="49.22171" lon="2.25112">
        <ele>170.799532</ele>
        <time>2025-06-19T07:55:57.505Z</time>
      </trkpt>
      <trkpt lat="49.22174" lon="2.25127">
        <ele>170.951839</ele>
        <time>2025-06-19T07:55:59.504Z</time>
      </trkpt>
      <trkpt lat="49.22176" lon="2.25142">
        <ele>171.102122</ele>
        <time>2025-06-19T07:56:01.513Z</time>
      </trkpt>
      <trkpt lat="49.22179" lon="2.25156">
        <ele>171.248961</ele>
        <time>2025-06-19T07:56:03.510Z</time>
      </trkpt>
      <trkpt lat="49.22182" lon="2.25171">
        <ele>171.403407</ele>
        <time>2025-06-19T07:56:05.505Z</time>
      </trkpt>
      <trkpt lat="49.22184" lon="2.25186">
        <ele>171.550465</ele>
        <time>2025-06-19T07:56:07.502Z</time>
      </trkpt>
      <trkpt lat="49.22187" lon="2.25201">
        <ele>171.699399</ele>
        <time>2025-06-19T07:56:09.516Z</time>
      </trkpt>
      <trkpt lat="49.2219" lon="2.25216">
        <ele>171.853433</ele>
        <time>2025-06-19T07:56:11.507Z</time>
      </trkpt>
      <trkpt lat="49.22193" lon="2.25231">
        <ele>171.991825</ele>
        <time>2025-06-19T07:56:13.506Z</time>
      </trkpt>
      <trkpt lat="49.22196" lon="2.25247">
        <ele>171.932731</ele>
        <time>2025-06-19T07:56:15.516Z</time>
      </trkpt>
      <trkpt lat="49.22199" lon="2.25263">
        <ele>171.875217</ele>
        <time>2025-06-19T07:56:17.512Z</time>
      </trkpt>
      <trkpt lat="49.22202" lon="2.25278">
        <ele>171.819518</ele>
        <time>2025-06-19T07:56:19.518Z</time>
      </trkpt>
      <trkpt lat="49.22204" lon="2.25292">
        <ele>171.765656</ele>
        <time>2025-06-19T07:56:21.516Z</time>
      </trkpt>
      <trkpt lat="49.22207" lon="2.25307">
        <ele>171.710269</ele>
        <time>2025-06-19T07:56:23.503Z</time>
      </trkpt>
      <trkpt lat="49.2221" lon="2.25322">
        <ele>171.655413</ele>
        <time>2025-06-19T07:56:25.514Z</time>
      </trkpt>
      <trkpt lat="49.22213" lon="2.25337">
        <ele>171.598528</ele>
        <time>2025-06-19T07:56:27.509Z</time>
      </trkpt>
      <trkpt lat="49.22216" lon="2.25352">
        <ele>171.544746</ele>
        <time>2025-06-19T07:56:29.514Z</time>
      </trkpt>
      <trkpt lat="49.22219" lon="2.25368">
        <ele>171.48547</ele>
        <time>2025-06-19T07:56:31.511Z</time>
      </trkpt>
      <trkpt lat="49.22222" lon="2.25384">
        <ele>171.424509</ele>
        <time>2025-06-19T07:56:33.512Z</time>
      </trkpt>
      <trkpt lat="49.22225" lon="2.254">
        <ele>171.365192</ele>
        <time>2025-06-19T07:56:35.507Z</time>
      </trkpt>
      <trkpt lat="49.22228" lon="2.25417">
        <ele>171.300074</ele>
        <time>2025-06-19T07:56:37.519Z</time>
      </trkpt>
      <trkpt lat="49.22231" lon="2.25435">
        <ele>171.23653</ele>
        <time>2025-06-19T07:56:39.514Z</time>
      </trkpt>
      <trkpt lat="49.22234" lon="2.25452">
        <ele>171.173553</ele>
        <time>2025-06-19T07:56:41.512Z</time>
      </trkpt>
      <trkpt lat="49.22237" lon="2.25468">
        <ele>171.111877</ele>
        <time>2025-06-19T07:56:43.512Z</time>
      </trkpt>
      <trkpt lat="49.2224" lon="2.25485">
        <ele>171.051182</ele>
        <time>2025-06-19T07:56:45.504Z</time>
      </trkpt>
      <trkpt lat="49.22243" lon="2.25502">
        <ele>171.072475</ele>
        <time>2025-06-19T07:56:47.506Z</time>
      </trkpt>
      <trkpt lat="49.22246" lon="2.25519">
        <ele>171.212385</ele>
        <time>2025-06-19T07:56:49.516Z</time>
      </trkpt>
      <trkpt lat="49.22249" lon="2.25536">
        <ele>171.34309</ele>
        <time>2025-06-19T07:56:51.509Z</time>
      </trkpt>
      <trkpt lat="49.22252" lon="2.25552">
        <ele>171.47725</ele>
        <time>2025-06-19T07:56:53.508Z</time>
      </trkpt>
      <trkpt lat="49.22255" lon="2.25568">
        <ele>171.605838</ele>
        <time>2025-06-19T07:56:55.509Z</time>
      </trkpt>
      <trkpt lat="49.22258" lon="2.25584">
        <ele>171.733124</ele>
        <time>2025-06-19T07:56:57.508Z</time>
      </trkpt>
      <trkpt lat="49.22261" lon="2.256">
        <ele>171.86041</ele>
        <time>2025-06-19T07:56:59.504Z</time>
      </trkpt>
      <trkpt lat="49.22264" lon="2.25615">
        <ele>171.985804</ele>
        <time>2025-06-19T07:57:01.510Z</time>
      </trkpt>
      <trkpt lat="49.22267" lon="2.25631">
        <ele>172.11608</ele>
        <time>2025-06-19T07:57:03.506Z</time>
      </trkpt>
      <trkpt lat="49.2227" lon="2.25647">
        <ele>172.240792</ele>
        <time>2025-06-19T07:57:05.522Z</time>
      </trkpt>
      <trkpt lat="49.22272" lon="2.25662">
        <ele>172.36125</ele>
        <time>2025-06-19T07:57:07.506Z</time>
      </trkpt>
      <trkpt lat="49.22275" lon="2.25676">
        <ele>172.479322</ele>
        <time>2025-06-19T07:57:09.516Z</time>
      </trkpt>
      <trkpt lat="49.22278" lon="2.25691">
        <ele>172.599218</ele>
        <time>2025-06-19T07:57:11.505Z</time>
      </trkpt>
      <trkpt lat="49.22281" lon="2.25706">
        <ele>172.724265</ele>
        <time>2025-06-19T07:57:13.511Z</time>
      </trkpt>
      <trkpt lat="49.22284" lon="2.25722">
        <ele>172.849312</ele>
        <time>2025-06-19T07:57:15.510Z</time>
      </trkpt>
      <trkpt lat="49.22286" lon="2.25737">
        <ele>172.971575</ele>
        <time>2025-06-19T07:57:17.518Z</time>
      </trkpt>
      <trkpt lat="49.22289" lon="2.25752">
        <ele>173.094791</ele>
        <time>2025-06-19T07:57:19.508Z</time>
      </trkpt>
      <trkpt lat="49.22293" lon="2.25767">
        <ele>173.179258</ele>
        <time>2025-06-19T07:57:21.509Z</time>
      </trkpt>
      <trkpt lat="49.22295" lon="2.25783">
        <ele>173.225573</ele>
        <time>2025-06-19T07:57:23.507Z</time>
      </trkpt>
      <trkpt lat="49.22298" lon="2.25799">
        <ele>173.272275</ele>
        <time>2025-06-19T07:57:25.516Z</time>
      </trkpt>
      <trkpt lat="49.22301" lon="2.25814">
        <ele>173.313594</ele>
        <time>2025-06-19T07:57:27.515Z</time>
      </trkpt>
      <trkpt lat="49.22304" lon="2.25832">
        <ele>173.366801</ele>
        <time>2025-06-19T07:57:30.516Z</time>
      </trkpt>
      <trkpt lat="49.22308" lon="2.2585">
        <ele>173.420814</ele>
        <time>2025-06-19T07:57:33.524Z</time>
      </trkpt>
      <trkpt lat="49.22311" lon="2.25867">
        <ele>173.468915</ele>
        <time>2025-06-19T07:57:36.512Z</time>
      </trkpt>
      <trkpt lat="49.22314" lon="2.25883">
        <ele>173.517188</ele>
        <time>2025-06-19T07:57:39.517Z</time>
      </trkpt>
      <trkpt lat="49.22317" lon="2.259">
        <ele>173.566437</ele>
        <time>2025-06-19T07:57:42.496Z</time>
      </trkpt>
      <trkpt lat="49.2232" lon="2.25919">
        <ele>173.620293</ele>
        <time>2025-06-19T07:57:45.511Z</time>
      </trkpt>
      <trkpt lat="49.22324" lon="2.25936">
        <ele>173.672324</ele>
        <time>2025-06-19T07:57:48.518Z</time>
      </trkpt>
      <trkpt lat="49.22327" lon="2.25954">
        <ele>173.723672</ele>
        <time>2025-06-19T07:57:51.507Z</time>
      </trkpt>
      <trkpt lat="49.2233" lon="2.25973">
        <ele>173.777746</ele>
        <time>2025-06-19T07:57:54.509Z</time>
      </trkpt>
      <trkpt lat="49.22334" lon="2.25991">
        <ele>173.830956</ele>
        <time>2025-06-19T07:57:57.508Z</time>
      </trkpt>
      <trkpt lat="49.22338" lon="2.2601">
        <ele>173.887309</ele>
        <time>2025-06-19T07:58:00.510Z</time>
      </trkpt>
      <trkpt lat="49.2234" lon="2.26023">
        <ele>173.926116</ele>
        <time>2025-06-19T07:58:02.516Z</time>
      </trkpt>
      <trkpt lat="49.22343" lon="2.26037">
        <ele>174.031626</ele>
        <time>2025-06-19T07:58:04.508Z</time>
      </trkpt>
      <trkpt lat="49.22345" lon="2.26051">
        <ele>174.14265</ele>
        <time>2025-06-19T07:58:06.515Z</time>
      </trkpt>
      <trkpt lat="49.22348" lon="2.26064">
        <ele>174.255592</ele>
        <time>2025-06-19T07:58:08.516Z</time>
      </trkpt>
      <trkpt lat="49.2235" lon="2.26078">
        <ele>174.367963</ele>
        <time>2025-06-19T07:58:10.503Z</time>
      </trkpt>
      <trkpt lat="49.22353" lon="2.26093">
        <ele>174.488881</ele>
        <time>2025-06-19T07:58:12.513Z</time>
      </trkpt>
      <trkpt lat="49.22356" lon="2.26108">
        <ele>174.6059</ele>
        <time>2025-06-19T07:58:14.507Z</time>
      </trkpt>
      <trkpt lat="49.22358" lon="2.26123">
        <ele>174.726136</ele>
        <time>2025-06-19T07:58:16.507Z</time>
      </trkpt>
      <trkpt lat="49.22361" lon="2.26137">
        <ele>174.843228</ele>
        <time>2025-06-19T07:58:18.506Z</time>
      </trkpt>
      <trkpt lat="49.22363" lon="2.26151">
        <ele>174.956234</ele>
        <time>2025-06-19T07:58:20.500Z</time>
      </trkpt>
      <trkpt lat="49.22366" lon="2.26166">
        <ele>175.077227</ele>
        <time>2025-06-19T07:58:22.498Z</time>
      </trkpt>
      <trkpt lat="49.22369" lon="2.2618">
        <ele>175.191662</ele>
        <time>2025-06-19T07:58:24.499Z</time>
      </trkpt>
      <trkpt lat="49.22371" lon="2.26194">
        <ele>175.308284</ele>
        <time>2025-06-19T07:58:26.499Z</time>
      </trkpt>
      <trkpt lat="49.22374" lon="2.26208">
        <ele>175.420128</ele>
        <time>2025-06-19T07:58:28.502Z</time>
      </trkpt>
      <trkpt lat="49.22377" lon="2.26223">
        <ele>175.540877</ele>
        <time>2025-06-19T07:58:30.503Z</time>
      </trkpt>
      <trkpt lat="49.2238" lon="2.26237">
        <ele>175.65356</ele>
        <time>2025-06-19T07:58:32.505Z</time>
      </trkpt>
      <trkpt lat="49.22382" lon="2.26251">
        <ele>175.766862</ele>
        <time>2025-06-19T07:58:34.500Z</time>
      </trkpt>
      <trkpt lat="49.22385" lon="2.26266">
        <ele>175.890193</ele>
        <time>2025-06-19T07:58:36.507Z</time>
      </trkpt>
      <trkpt lat="49.22388" lon="2.2628">
        <ele>176.01168</ele>
        <time>2025-06-19T07:58:38.511Z</time>
      </trkpt>
      <trkpt lat="49.22391" lon="2.26295">
        <ele>176.126452</ele>
        <time>2025-06-19T07:58:40.514Z</time>
      </trkpt>
      <trkpt lat="49.22393" lon="2.2631">
        <ele>176.23291</ele>
        <time>2025-06-19T07:58:42.521Z</time>
      </trkpt>
      <trkpt lat="49.22396" lon="2.26325">
        <ele>176.344716</ele>
        <time>2025-06-19T07:58:44.500Z</time>
      </trkpt>
      <trkpt lat="49.22399" lon="2.26341">
        <ele>176.461986</ele>
        <time>2025-06-19T07:58:46.507Z</time>
      </trkpt>
      <trkpt lat="49.22402" lon="2.26357">
        <ele>176.575931</ele>
        <time>2025-06-19T07:58:48.512Z</time>
      </trkpt>
      <trkpt lat="49.22405" lon="2.26372">
        <ele>176.687517</ele>
        <time>2025-06-19T07:58:50.511Z</time>
      </trkpt>
      <trkpt lat="49.22408" lon="2.26387">
        <ele>176.799488</ele>
        <time>2025-06-19T07:58:52.502Z</time>
      </trkpt>
      <trkpt lat="49.22411" lon="2.26403">
        <ele>176.911102</ele>
        <time>2025-06-19T07:58:54.514Z</time>
      </trkpt>
      <trkpt lat="49.22413" lon="2.26417">
        <ele>177.018291</ele>
        <time>2025-06-19T07:58:56.504Z</time>
      </trkpt>
      <trkpt lat="49.22416" lon="2.26432">
        <ele>177.127658</ele>
        <time>2025-06-19T07:58:58.507Z</time>
      </trkpt>
      <trkpt lat="49.22419" lon="2.26446">
        <ele>177.231226</ele>
        <time>2025-06-19T07:59:00.507Z</time>
      </trkpt>
      <trkpt lat="49.22421" lon="2.2646">
        <ele>177.328507</ele>
        <time>2025-06-19T07:59:02.504Z</time>
      </trkpt>
      <trkpt lat="49.22424" lon="2.26474">
        <ele>177.431204</ele>
        <time>2025-06-19T07:59:04.506Z</time>
      </trkpt>
      <trkpt lat="49.22426" lon="2.26487">
        <ele>177.530446</ele>
        <time>2025-06-19T07:59:06.507Z</time>
      </trkpt>
      <trkpt lat="49.22429" lon="2.26501">
        <ele>177.629874</ele>
        <time>2025-06-19T07:59:08.517Z</time>
      </trkpt>
      <trkpt lat="49.22431" lon="2.26515">
        <ele>177.732294</ele>
        <time>2025-06-19T07:59:10.512Z</time>
      </trkpt>
      <trkpt lat="49.22434" lon="2.26529">
        <ele>177.832575</ele>
        <time>2025-06-19T07:59:12.512Z</time>
      </trkpt>
      <trkpt lat="49.22436" lon="2.26543">
        <ele>177.935492</ele>
        <time>2025-06-19T07:59:14.510Z</time>
      </trkpt>
      <trkpt lat="49.22439" lon="2.26557">
        <ele>177.993071</ele>
        <time>2025-06-19T07:59:16.505Z</time>
      </trkpt>
      <trkpt lat="49.22442" lon="2.2657">
        <ele>177.868926</ele>
        <time>2025-06-19T07:59:18.530Z</time>
      </trkpt>
      <trkpt lat="49.22444" lon="2.26584">
        <ele>177.741898</ele>
        <time>2025-06-19T07:59:20.515Z</time>
      </trkpt>
      <trkpt lat="49.22447" lon="2.26598">
        <ele>177.617843</ele>
        <time>2025-06-19T07:59:22.510Z</time>
      </trkpt>
      <trkpt lat="49.22449" lon="2.26612">
        <ele>177.49016</ele>
        <time>2025-06-19T07:59:24.513Z</time>
      </trkpt>
      <trkpt lat="49.22452" lon="2.26626">
        <ele>177.362761</ele>
        <time>2025-06-19T07:59:26.511Z</time>
      </trkpt>
      <trkpt lat="49.22455" lon="2.26641">
        <ele>177.229961</ele>
        <time>2025-06-19T07:59:28.518Z</time>
      </trkpt>
      <trkpt lat="49.22457" lon="2.26655">
        <ele>177.098731</ele>
        <time>2025-06-19T07:59:30.512Z</time>
      </trkpt>
      <trkpt lat="49.2246" lon="2.2667">
        <ele>176.967849</ele>
        <time>2025-06-19T07:59:32.510Z</time>
      </trkpt>
      <trkpt lat="49.22462" lon="2.26684">
        <ele>176.840822</ele>
        <time>2025-06-19T07:59:34.511Z</time>
      </trkpt>
      <trkpt lat="49.22465" lon="2.26698">
        <ele>176.713795</ele>
        <time>2025-06-19T07:59:36.504Z</time>
      </trkpt>
      <trkpt lat="49.22469" lon="2.26717">
        <ele>176.539539</ele>
        <time>2025-06-19T07:59:39.521Z</time>
      </trkpt>
      <trkpt lat="49.22471" lon="2.2673">
        <ele>176.416591</ele>
        <time>2025-06-19T07:59:41.509Z</time>
      </trkpt>
      <trkpt lat="49.22474" lon="2.26744">
        <ele>176.291113</ele>
        <time>2025-06-19T07:59:43.514Z</time>
      </trkpt>
      <trkpt lat="49.22476" lon="2.26759">
        <ele>176.160725</ele>
        <time>2025-06-19T07:59:45.511Z</time>
      </trkpt>
      <trkpt lat="49.22479" lon="2.26774">
        <ele>176.027638</ele>
        <time>2025-06-19T07:59:47.515Z</time>
      </trkpt>
      <trkpt lat="49.22481" lon="2.26789">
        <ele>175.891193</ele>
        <time>2025-06-19T07:59:49.510Z</time>
      </trkpt>
      <trkpt lat="49.22483" lon="2.26804">
        <ele>175.755602</ele>
        <time>2025-06-19T07:59:51.515Z</time>
      </trkpt>
      <trkpt lat="49.22485" lon="2.26818">
        <ele>175.627647</ele>
        <time>2025-06-19T07:59:53.508Z</time>
      </trkpt>
      <trkpt lat="49.22486" lon="2.26839">
        <ele>175.530357</ele>
        <time>2025-06-19T07:59:56.523Z</time>
      </trkpt>
      <trkpt lat="49.22487" lon="2.26854">
        <ele>175.466221</ele>
        <time>2025-06-19T07:59:58.516Z</time>
      </trkpt>
      <trkpt lat="49.22488" lon="2.26869">
        <ele>175.399586</ele>
        <time>2025-06-19T08:00:00.512Z</time>
      </trkpt>
      <trkpt lat="49.2249" lon="2.26885">
        <ele>175.331446</ele>
        <time>2025-06-19T08:00:02.511Z</time>
      </trkpt>
      <trkpt lat="49.22491" lon="2.26901">
        <ele>175.263306</ele>
        <time>2025-06-19T08:00:04.514Z</time>
      </trkpt>
      <trkpt lat="49.22493" lon="2.26917">
        <ele>175.193282</ele>
        <time>2025-06-19T08:00:06.508Z</time>
      </trkpt>
      <trkpt lat="49.22494" lon="2.26934">
        <ele>175.119658</ele>
        <time>2025-06-19T08:00:08.514Z</time>
      </trkpt>
      <trkpt lat="49.22496" lon="2.26952">
        <ele>175.042809</ele>
        <time>2025-06-19T08:00:10.508Z</time>
      </trkpt>
      <trkpt lat="49.22497" lon="2.26969">
        <ele>174.966469</ele>
        <time>2025-06-19T08:00:12.515Z</time>
      </trkpt>
      <trkpt lat="49.22499" lon="2.26988">
        <ele>174.886281</ele>
        <time>2025-06-19T08:00:14.506Z</time>
      </trkpt>
      <trkpt lat="49.225" lon="2.27006">
        <ele>174.806093</ele>
        <time>2025-06-19T08:00:16.510Z</time>
      </trkpt>
      <trkpt lat="49.22502" lon="2.27025">
        <ele>174.724034</ele>
        <time>2025-06-19T08:00:18.512Z</time>
      </trkpt>
      <trkpt lat="49.22503" lon="2.27044">
        <ele>174.64283</ele>
        <time>2025-06-19T08:00:20.517Z</time>
      </trkpt>
      <trkpt lat="49.22505" lon="2.27062">
        <ele>174.563243</ele>
        <time>2025-06-19T08:00:22.514Z</time>
      </trkpt>
      <trkpt lat="49.22506" lon="2.2708">
        <ele>174.485621</ele>
        <time>2025-06-19T08:00:24.506Z</time>
      </trkpt>
      <trkpt lat="49.22508" lon="2.27098">
        <ele>174.473736</ele>
        <time>2025-06-19T08:00:26.507Z</time>
      </trkpt>
      <trkpt lat="49.22509" lon="2.27117">
        <ele>174.639217</ele>
        <time>2025-06-19T08:00:28.497Z</time>
      </trkpt>
      <trkpt lat="49.22511" lon="2.27136">
        <ele>174.804526</ele>
        <time>2025-06-19T08:00:30.507Z</time>
      </trkpt>
      <trkpt lat="49.22512" lon="2.27154">
        <ele>174.96896</ele>
        <time>2025-06-19T08:00:32.512Z</time>
      </trkpt>
      <trkpt lat="49.22514" lon="2.27172">
        <ele>175.131817</ele>
        <time>2025-06-19T08:00:34.511Z</time>
      </trkpt>
      <trkpt lat="49.22516" lon="2.2719">
        <ele>175.287876</ele>
        <time>2025-06-19T08:00:36.502Z</time>
      </trkpt>
      <trkpt lat="49.22517" lon="2.27207">
        <ele>175.442826</ele>
        <time>2025-06-19T08:00:38.518Z</time>
      </trkpt>
      <trkpt lat="49.22518" lon="2.27224">
        <ele>175.591339</ele>
        <time>2025-06-19T08:00:40.516Z</time>
      </trkpt>
      <trkpt lat="49.22519" lon="2.27241">
        <ele>175.740726</ele>
        <time>2025-06-19T08:00:42.507Z</time>
      </trkpt>
      <trkpt lat="49.22521" lon="2.27259">
        <ele>175.899403</ele>
        <time>2025-06-19T08:00:44.514Z</time>
      </trkpt>
      <trkpt lat="49.22523" lon="2.27277">
        <ele>176.062961</ele>
        <time>2025-06-19T08:00:46.505Z</time>
      </trkpt>
      <trkpt lat="49.22524" lon="2.27295">
        <ele>176.222322</ele>
        <time>2025-06-19T08:00:48.506Z</time>
      </trkpt>
      <trkpt lat="49.22526" lon="2.27313">
        <ele>176.383254</ele>
        <time>2025-06-19T08:00:50.504Z</time>
      </trkpt>
      <trkpt lat="49.22527" lon="2.27331">
        <ele>176.54052</ele>
        <time>2025-06-19T08:00:52.514Z</time>
      </trkpt>
      <trkpt lat="49.22528" lon="2.27348">
        <ele>176.697628</ele>
        <time>2025-06-19T08:00:54.523Z</time>
      </trkpt>
      <trkpt lat="49.2253" lon="2.27366">
        <ele>176.857125</ele>
        <time>2025-06-19T08:00:56.505Z</time>
      </trkpt>
      <trkpt lat="49.22532" lon="2.27384">
        <ele>176.733417</ele>
        <time>2025-06-19T08:00:58.507Z</time>
      </trkpt>
      <trkpt lat="49.22533" lon="2.27401">
        <ele>176.61477</ele>
        <time>2025-06-19T08:01:00.508Z</time>
      </trkpt>
      <trkpt lat="49.22535" lon="2.27418">
        <ele>176.50021</ele>
        <time>2025-06-19T08:01:02.504Z</time>
      </trkpt>
      <trkpt lat="49.22536" lon="2.27434">
        <ele>176.38741</ele>
        <time>2025-06-19T08:01:04.502Z</time>
      </trkpt>
      <trkpt lat="49.22537" lon="2.2745">
        <ele>176.276534</ele>
        <time>2025-06-19T08:01:06.509Z</time>
      </trkpt>
      <trkpt lat="49.22538" lon="2.27467">
        <ele>176.159515</ele>
        <time>2025-06-19T08:01:08.497Z</time>
      </trkpt>
      <trkpt lat="49.2254" lon="2.27484">
        <ele>176.039504</ele>
        <time>2025-06-19T08:01:10.512Z</time>
      </trkpt>
      <trkpt lat="49.22541" lon="2.27501">
        <ele>175.922712</ele>
        <time>2025-06-19T08:01:12.505Z</time>
      </trkpt>
      <trkpt lat="49.22542" lon="2.27517">
        <ele>175.815605</ele>
        <time>2025-06-19T08:01:14.504Z</time>
      </trkpt>
      <trkpt lat="49.22543" lon="2.27533">
        <ele>175.702407</ele>
        <time>2025-06-19T08:01:16.500Z</time>
      </trkpt>
      <trkpt lat="49.22545" lon="2.27549">
        <ele>175.594261</ele>
        <time>2025-06-19T08:01:18.516Z</time>
      </trkpt>
      <trkpt lat="49.22546" lon="2.27563">
        <ele>175.492785</ele>
        <time>2025-06-19T08:01:20.513Z</time>
      </trkpt>
      <trkpt lat="49.22548" lon="2.27578">
        <ele>175.388587</ele>
        <time>2025-06-19T08:01:22.509Z</time>
      </trkpt>
      <trkpt lat="49.22549" lon="2.27593">
        <ele>175.282874</ele>
        <time>2025-06-19T08:01:24.513Z</time>
      </trkpt>
      <trkpt lat="49.2255" lon="2.27609">
        <ele>175.176342</ele>
        <time>2025-06-19T08:01:26.510Z</time>
      </trkpt>
      <trkpt lat="49.22551" lon="2.27624">
        <ele>175.071738</ele>
        <time>2025-06-19T08:01:28.506Z</time>
      </trkpt>
      <trkpt lat="49.22552" lon="2.27639">
        <ele>174.969306</ele>
        <time>2025-06-19T08:01:30.510Z</time>
      </trkpt>
      <trkpt lat="49.22554" lon="2.27654">
        <ele>174.966974</ele>
        <time>2025-06-19T08:01:32.496Z</time>
      </trkpt>
      <trkpt lat="49.22555" lon="2.27668">
        <ele>174.970592</ele>
        <time>2025-06-19T08:01:34.504Z</time>
      </trkpt>
      <trkpt lat="49.22556" lon="2.27684">
        <ele>174.974494</ele>
        <time>2025-06-19T08:01:36.511Z</time>
      </trkpt>
      <trkpt lat="49.22557" lon="2.27699">
        <ele>174.978426</ele>
        <time>2025-06-19T08:01:38.507Z</time>
      </trkpt>
      <trkpt lat="49.22559" lon="2.27715">
        <ele>174.982405</ele>
        <time>2025-06-19T08:01:40.514Z</time>
      </trkpt>
      <trkpt lat="49.22561" lon="2.27731">
        <ele>174.986381</ele>
        <time>2025-06-19T08:01:42.510Z</time>
      </trkpt>
      <trkpt lat="49.22562" lon="2.27747">
        <ele>174.990299</ele>
        <time>2025-06-19T08:01:44.513Z</time>
      </trkpt>
      <trkpt lat="49.22563" lon="2.27762">
        <ele>174.994242</ele>
        <time>2025-06-19T08:01:46.516Z</time>
      </trkpt>
      <trkpt lat="49.22564" lon="2.27778">
        <ele>174.998115</ele>
        <time>2025-06-19T08:01:48.515Z</time>
      </trkpt>
      <trkpt lat="49.22566" lon="2.27794">
        <ele>175.002138</ele>
        <time>2025-06-19T08:01:50.508Z</time>
      </trkpt>
      <trkpt lat="49.22568" lon="2.2781">
        <ele>175.006227</ele>
        <time>2025-06-19T08:01:52.508Z</time>
      </trkpt>
      <trkpt lat="49.22569" lon="2.27827">
        <ele>175.010442</ele>
        <time>2025-06-19T08:01:54.509Z</time>
      </trkpt>
      <trkpt lat="49.2257" lon="2.27844">
        <ele>175.014649</ele>
        <time>2025-06-19T08:01:56.505Z</time>
      </trkpt>
      <trkpt lat="49.22571" lon="2.27862">
        <ele>175.019101</ele>
        <time>2025-06-19T08:01:58.515Z</time>
      </trkpt>
      <trkpt lat="49.22571" lon="2.27881">
        <ele>175.023766</ele>
        <time>2025-06-19T08:02:00.512Z</time>
      </trkpt>
      <trkpt lat="49.22569" lon="2.279">
        <ele>175.028574</ele>
        <time>2025-06-19T08:02:02.512Z</time>
      </trkpt>
      <trkpt lat="49.22566" lon="2.2792">
        <ele>174.948613</ele>
        <time>2025-06-19T08:02:04.508Z</time>
      </trkpt>
      <trkpt lat="49.22561" lon="2.2794">
        <ele>174.713655</ele>
        <time>2025-06-19T08:02:06.508Z</time>
      </trkpt>
      <trkpt lat="49.22557" lon="2.27957">
        <ele>174.499992</ele>
        <time>2025-06-19T08:02:08.507Z</time>
      </trkpt>
      <trkpt lat="49.22552" lon="2.27976">
        <ele>174.280479</ele>
        <time>2025-06-19T08:02:10.509Z</time>
      </trkpt>
      <trkpt lat="49.22548" lon="2.27995">
        <ele>174.045977</ele>
        <time>2025-06-19T08:02:12.510Z</time>
      </trkpt>
      <trkpt lat="49.22543" lon="2.28015">
        <ele>173.811291</ele>
        <time>2025-06-19T08:02:14.510Z</time>
      </trkpt>
      <trkpt lat="49.22538" lon="2.28034">
        <ele>173.584875</ele>
        <time>2025-06-19T08:02:16.509Z</time>
      </trkpt>
      <trkpt lat="49.22534" lon="2.28053">
        <ele>173.358546</ele>
        <time>2025-06-19T08:02:18.507Z</time>
      </trkpt>
      <trkpt lat="49.22529" lon="2.2807">
        <ele>173.147633</ele>
        <time>2025-06-19T08:02:20.506Z</time>
      </trkpt>
      <trkpt lat="49.22523" lon="2.28086">
        <ele>172.947378</ele>
        <time>2025-06-19T08:02:22.508Z</time>
      </trkpt>
      <trkpt lat="49.22518" lon="2.281">
        <ele>172.763389</ele>
        <time>2025-06-19T08:02:24.504Z</time>
      </trkpt>
      <trkpt lat="49.22512" lon="2.28115">
        <ele>172.572945</ele>
        <time>2025-06-19T08:02:26.511Z</time>
      </trkpt>
      <trkpt lat="49.22508" lon="2.2813">
        <ele>172.389052</ele>
        <time>2025-06-19T08:02:28.510Z</time>
      </trkpt>
      <trkpt lat="49.22503" lon="2.28144">
        <ele>172.20688</ele>
        <time>2025-06-19T08:02:30.511Z</time>
      </trkpt>
      <trkpt lat="49.22498" lon="2.2816">
        <ele>172.013848</ele>
        <time>2025-06-19T08:02:32.518Z</time>
      </trkpt>
      <trkpt lat="49.22492" lon="2.28175">
        <ele>171.864759</ele>
        <time>2025-06-19T08:02:34.517Z</time>
      </trkpt>
      <trkpt lat="49.22487" lon="2.28191">
        <ele>171.737894</ele>
        <time>2025-06-19T08:02:36.505Z</time>
      </trkpt>
      <trkpt lat="49.22481" lon="2.28208">
        <ele>171.609049</ele>
        <time>2025-06-19T08:02:38.507Z</time>
      </trkpt>
      <trkpt lat="49.22476" lon="2.28223">
        <ele>171.489328</ele>
        <time>2025-06-19T08:02:40.515Z</time>
      </trkpt>
      <trkpt lat="49.22471" lon="2.28238">
        <ele>171.372561</ele>
        <time>2025-06-19T08:02:42.516Z</time>
      </trkpt>
      <trkpt lat="49.22466" lon="2.28254">
        <ele>171.24756</ele>
        <time>2025-06-19T08:02:44.510Z</time>
      </trkpt>
      <trkpt lat="49.22463" lon="2.2827">
        <ele>171.134285</ele>
        <time>2025-06-19T08:02:46.516Z</time>
      </trkpt>
      <trkpt lat="49.22461" lon="2.28286">
        <ele>171.022958</ele>
        <time>2025-06-19T08:02:48.514Z</time>
      </trkpt>
      <trkpt lat="49.22462" lon="2.28302">
        <ele>170.909101</ele>
        <time>2025-06-19T08:02:50.514Z</time>
      </trkpt>
      <trkpt lat="49.22463" lon="2.28318">
        <ele>170.797433</ele>
        <time>2025-06-19T08:02:52.505Z</time>
      </trkpt>
      <trkpt lat="49.22464" lon="2.28334">
        <ele>170.684664</ele>
        <time>2025-06-19T08:02:54.518Z</time>
      </trkpt>
      <trkpt lat="49.22464" lon="2.28352">
        <ele>170.565275</ele>
        <time>2025-06-19T08:02:56.518Z</time>
      </trkpt>
      <trkpt lat="49.22464" lon="2.28368">
        <ele>170.454781</ele>
        <time>2025-06-19T08:02:58.510Z</time>
      </trkpt>
      <trkpt lat="49.22463" lon="2.28382">
        <ele>170.353775</ele>
        <time>2025-06-19T08:03:00.506Z</time>
      </trkpt>
      <trkpt lat="49.2246" lon="2.28396">
        <ele>170.252634</ele>
        <time>2025-06-19T08:03:02.512Z</time>
      </trkpt>
      <trkpt lat="49.22455" lon="2.28409">
        <ele>170.145037</ele>
        <time>2025-06-19T08:03:04.505Z</time>
      </trkpt>
      <trkpt lat="49.22449" lon="2.28423">
        <ele>170.033882</ele>
        <time>2025-06-19T08:03:06.511Z</time>
      </trkpt>
      <trkpt lat="49.22443" lon="2.28436">
        <ele>170.01076</ele>
        <time>2025-06-19T08:03:08.509Z</time>
      </trkpt>
      <trkpt lat="49.22439" lon="2.28452">
        <ele>169.985725</ele>
        <time>2025-06-19T08:03:10.515Z</time>
      </trkpt>
      <trkpt lat="49.22434" lon="2.28465">
        <ele>169.963667</ele>
        <time>2025-06-19T08:03:12.516Z</time>
      </trkpt>
      <trkpt lat="49.22429" lon="2.28481">
        <ele>169.937907</ele>
        <time>2025-06-19T08:03:15.517Z</time>
      </trkpt>
      <trkpt lat="49.22422" lon="2.28494">
        <ele>169.91333</ele>
        <time>2025-06-19T08:03:18.514Z</time>
      </trkpt>
      <trkpt lat="49.2242" lon="2.2851">
        <ele>169.889006</ele>
        <time>2025-06-19T08:03:22.513Z</time>
      </trkpt>
      <trkpt lat="49.22428" lon="2.28518">
        <ele>169.86609</ele>
        <time>2025-06-19T08:03:25.503Z</time>
      </trkpt>
      <trkpt lat="49.22439" lon="2.28524">
        <ele>169.840743</ele>
        <time>2025-06-19T08:03:28.518Z</time>
      </trkpt>
      <trkpt lat="49.22445" lon="2.28537">
        <ele>169.817643</ele>
        <time>2025-06-19T08:03:31.508Z</time>
      </trkpt>
      <trkpt lat="49.22441" lon="2.28553">
        <ele>169.791275</ele>
        <time>2025-06-19T08:03:34.517Z</time>
      </trkpt>
      <trkpt lat="49.22432" lon="2.28569">
        <ele>169.761666</ele>
        <time>2025-06-19T08:03:37.518Z</time>
      </trkpt>
      <trkpt lat="49.22424" lon="2.28584">
        <ele>169.732566</ele>
        <time>2025-06-19T08:03:40.515Z</time>
      </trkpt>
      <trkpt lat="49.22417" lon="2.286">
        <ele>169.704381</ele>
        <time>2025-06-19T08:03:43.514Z</time>
      </trkpt>
      <trkpt lat="49.22412" lon="2.28611">
        <ele>169.684088</ele>
        <time>2025-06-19T08:03:45.512Z</time>
      </trkpt>
      <trkpt lat="49.22406" lon="2.28622">
        <ele>169.663091</ele>
        <time>2025-06-19T08:03:47.516Z</time>
      </trkpt>
      <trkpt lat="49.224" lon="2.28633">
        <ele>169.642142</ele>
        <time>2025-06-19T08:03:49.516Z</time>
      </trkpt>
      <trkpt lat="49.22394" lon="2.28645">
        <ele>169.702688</ele>
        <time>2025-06-19T08:03:51.519Z</time>
      </trkpt>
      <trkpt lat="49.22389" lon="2.28657">
        <ele>169.853281</ele>
        <time>2025-06-19T08:03:53.504Z</time>
      </trkpt>
      <trkpt lat="49.22384" lon="2.28669">
        <ele>169.994525</ele>
        <time>2025-06-19T08:03:55.509Z</time>
      </trkpt>
      <trkpt lat="49.22377" lon="2.28684">
        <ele>170.184592</ele>
        <time>2025-06-19T08:03:58.510Z</time>
      </trkpt>
      <trkpt lat="49.2237" lon="2.28699">
        <ele>170.377403</ele>
        <time>2025-06-19T08:04:01.503Z</time>
      </trkpt>
      <trkpt lat="49.22362" lon="2.28714">
        <ele>170.566936</ele>
        <time>2025-06-19T08:04:04.507Z</time>
      </trkpt>
      <trkpt lat="49.22356" lon="2.28729">
        <ele>170.752648</ele>
        <time>2025-06-19T08:04:07.512Z</time>
      </trkpt>
      <trkpt lat="49.22349" lon="2.28743">
        <ele>170.931071</ele>
        <time>2025-06-19T08:04:10.514Z</time>
      </trkpt>
      <trkpt lat="49.22342" lon="2.28757">
        <ele>171.104037</ele>
        <time>2025-06-19T08:04:13.505Z</time>
      </trkpt>
      <trkpt lat="49.22337" lon="2.28768">
        <ele>171.247375</ele>
        <time>2025-06-19T08:04:17.504Z</time>
      </trkpt>
      <trkpt lat="49.22333" lon="2.28783">
        <ele>171.414951</ele>
        <time>2025-06-19T08:04:22.508Z</time>
      </trkpt>
      <trkpt lat="49.2234" lon="2.28797">
        <ele>171.593517</ele>
        <time>2025-06-19T08:04:25.515Z</time>
      </trkpt>
      <trkpt lat="49.22349" lon="2.28807">
        <ele>171.767601</ele>
        <time>2025-06-19T08:04:28.514Z</time>
      </trkpt>
      <trkpt lat="49.22359" lon="2.28816">
        <ele>171.947224</ele>
        <time>2025-06-19T08:04:31.524Z</time>
      </trkpt>
      <trkpt lat="49.22369" lon="2.28826">
        <ele>172.133237</ele>
        <time>2025-06-19T08:04:34.517Z</time>
      </trkpt>
      <trkpt lat="49.2238" lon="2.28836">
        <ele>172.325396</ele>
        <time>2025-06-19T08:04:37.522Z</time>
      </trkpt>
      <trkpt lat="49.22388" lon="2.28845">
        <ele>172.513421</ele>
        <time>2025-06-19T08:04:40.514Z</time>
      </trkpt>
      <trkpt lat="49.22396" lon="2.28853">
        <ele>172.755312</ele>
        <time>2025-06-19T08:04:46.505Z</time>
      </trkpt>
      <trkpt lat="49.2241" lon="2.2887">
        <ele>173.219636</ele>
        <time>2025-06-19T08:05:13.511Z</time>
      </trkpt>
      <trkpt lat="49.22417" lon="2.28885">
        <ele>173.526743</ele>
        <time>2025-06-19T08:05:16.500Z</time>
      </trkpt>
      <trkpt lat="49.22423" lon="2.28901">
        <ele>173.844939</ele>
        <time>2025-06-19T08:05:19.508Z</time>
      </trkpt>
      <trkpt lat="49.22425" lon="2.28921">
        <ele>174.176675</ele>
        <time>2025-06-19T08:05:22.512Z</time>
      </trkpt>
      <trkpt lat="49.22424" lon="2.28941">
        <ele>174.510431</ele>
        <time>2025-06-19T08:05:25.514Z</time>
      </trkpt>
      <trkpt lat="49.2242" lon="2.28954">
        <ele>174.765884</ele>
        <time>2025-06-19T08:05:27.509Z</time>
      </trkpt>
      <trkpt lat="49.22417" lon="2.28967">
        <ele>175.001854</ele>
        <time>2025-06-19T08:05:29.506Z</time>
      </trkpt>
      <trkpt lat="49.22412" lon="2.28987">
        <ele>175.341389</ele>
        <time>2025-06-19T08:05:32.503Z</time>
      </trkpt>
      <trkpt lat="49.22409" lon="2.29006">
        <ele>175.680335</ele>
        <time>2025-06-19T08:05:35.504Z</time>
      </trkpt>
      <trkpt lat="49.22406" lon="2.2902">
        <ele>175.923333</ele>
        <time>2025-06-19T08:05:37.505Z</time>
      </trkpt>
      <trkpt lat="49.22403" lon="2.29033">
        <ele>176.161401</ele>
        <time>2025-06-19T08:05:39.512Z</time>
      </trkpt>
      <trkpt lat="49.22399" lon="2.29052">
        <ele>176.488935</ele>
        <time>2025-06-19T08:05:42.506Z</time>
      </trkpt>
      <trkpt lat="49.22396" lon="2.29071">
        <ele>176.823948</ele>
        <time>2025-06-19T08:05:45.504Z</time>
      </trkpt>
      <trkpt lat="49.22392" lon="2.2909">
        <ele>177.149288</ele>
        <time>2025-06-19T08:05:48.509Z</time>
      </trkpt>
      <trkpt lat="49.22389" lon="2.29103">
        <ele>177.360849</ele>
        <time>2025-06-19T08:05:50.509Z</time>
      </trkpt>
      <trkpt lat="49.22386" lon="2.29117">
        <ele>177.57972</ele>
        <time>2025-06-19T08:05:52.507Z</time>
      </trkpt>
      <trkpt lat="49.22383" lon="2.2913">
        <ele>177.799245</ele>
        <time>2025-06-19T08:05:54.518Z</time>
      </trkpt>
      <trkpt lat="49.2238" lon="2.29144">
        <ele>178.028869</ele>
        <time>2025-06-19T08:05:56.510Z</time>
      </trkpt>
      <trkpt lat="49.22376" lon="2.29159">
        <ele>178.259239</ele>
        <time>2025-06-19T08:05:58.509Z</time>
      </trkpt>
      <trkpt lat="49.22373" lon="2.29174">
        <ele>178.502785</ele>
        <time>2025-06-19T08:06:00.507Z</time>
      </trkpt>
      <trkpt lat="49.2237" lon="2.29188">
        <ele>178.738931</ele>
        <time>2025-06-19T08:06:02.507Z</time>
      </trkpt>
      <trkpt lat="49.22367" lon="2.29203">
        <ele>178.975876</ele>
        <time>2025-06-19T08:06:04.517Z</time>
      </trkpt>
      <trkpt lat="49.22364" lon="2.29218">
        <ele>179.213468</ele>
        <time>2025-06-19T08:06:06.500Z</time>
      </trkpt>
      <trkpt lat="49.22361" lon="2.29232">
        <ele>179.430787</ele>
        <time>2025-06-19T08:06:08.502Z</time>
      </trkpt>
      <trkpt lat="49.22358" lon="2.29247">
        <ele>179.667656</ele>
        <time>2025-06-19T08:06:10.502Z</time>
      </trkpt>
      <trkpt lat="49.22355" lon="2.29261">
        <ele>179.901019</ele>
        <time>2025-06-19T08:06:12.514Z</time>
      </trkpt>
      <trkpt lat="49.22352" lon="2.29276">
        <ele>180.138642</ele>
        <time>2025-06-19T08:06:14.514Z</time>
      </trkpt>
      <trkpt lat="49.22349" lon="2.2929">
        <ele>180.363931</ele>
        <time>2025-06-19T08:06:16.515Z</time>
      </trkpt>
      <trkpt lat="49.22346" lon="2.29305">
        <ele>180.5965</ele>
        <time>2025-06-19T08:06:18.502Z</time>
      </trkpt>
      <trkpt lat="49.22343" lon="2.29319">
        <ele>180.829858</ele>
        <time>2025-06-19T08:06:20.504Z</time>
      </trkpt>
      <trkpt lat="49.2234" lon="2.29334">
        <ele>181.057375</ele>
        <time>2025-06-19T08:06:22.503Z</time>
      </trkpt>
      <trkpt lat="49.22337" lon="2.29348">
        <ele>181.276414</ele>
        <time>2025-06-19T08:06:24.507Z</time>
      </trkpt>
      <trkpt lat="49.22334" lon="2.29362">
        <ele>181.338006</ele>
        <time>2025-06-19T08:06:26.510Z</time>
      </trkpt>
      <trkpt lat="49.22331" lon="2.29377">
        <ele>181.400805</ele>
        <time>2025-06-19T08:06:28.519Z</time>
      </trkpt>
      <trkpt lat="49.22328" lon="2.2939">
        <ele>181.460587</ele>
        <time>2025-06-19T08:06:30.502Z</time>
      </trkpt>
      <trkpt lat="49.22326" lon="2.29405">
        <ele>181.524597</ele>
        <time>2025-06-19T08:06:32.517Z</time>
      </trkpt>
      <trkpt lat="49.22323" lon="2.29418">
        <ele>181.585197</ele>
        <time>2025-06-19T08:06:34.506Z</time>
      </trkpt>
      <trkpt lat="49.2232" lon="2.29432">
        <ele>181.64658</ele>
        <time>2025-06-19T08:06:36.509Z</time>
      </trkpt>
      <trkpt lat="49.22317" lon="2.29446">
        <ele>181.706965</ele>
        <time>2025-06-19T08:06:38.507Z</time>
      </trkpt>
      <trkpt lat="49.22314" lon="2.2946">
        <ele>181.768348</ele>
        <time>2025-06-19T08:06:40.509Z</time>
      </trkpt>
      <trkpt lat="49.22312" lon="2.29474">
        <ele>181.83168</ele>
        <time>2025-06-19T08:06:42.510Z</time>
      </trkpt>
      <trkpt lat="49.22309" lon="2.29488">
        <ele>181.889678</ele>
        <time>2025-06-19T08:06:44.505Z</time>
      </trkpt>
      <trkpt lat="49.22306" lon="2.29502">
        <ele>181.95126</ele>
        <time>2025-06-19T08:06:46.514Z</time>
      </trkpt>
      <trkpt lat="49.22303" lon="2.29515">
        <ele>182.012048</ele>
        <time>2025-06-19T08:06:48.504Z</time>
      </trkpt>
      <trkpt lat="49.22301" lon="2.29529">
        <ele>182.071441</ele>
        <time>2025-06-19T08:06:50.523Z</time>
      </trkpt>
      <trkpt lat="49.22298" lon="2.29543">
        <ele>182.131827</ele>
        <time>2025-06-19T08:06:52.520Z</time>
      </trkpt>
      <trkpt lat="49.22295" lon="2.29557">
        <ele>182.195209</ele>
        <time>2025-06-19T08:06:54.516Z</time>
      </trkpt>
      <trkpt lat="49.22292" lon="2.29571">
        <ele>182.257395</ele>
        <time>2025-06-19T08:06:56.504Z</time>
      </trkpt>
      <trkpt lat="49.22289" lon="2.29585">
        <ele>182.319377</ele>
        <time>2025-06-19T08:06:58.513Z</time>
      </trkpt>
      <trkpt lat="49.22286" lon="2.29598">
        <ele>182.379559</ele>
        <time>2025-06-19T08:07:00.516Z</time>
      </trkpt>
      <trkpt lat="49.22283" lon="2.29612">
        <ele>182.415714</ele>
        <time>2025-06-19T08:07:02.506Z</time>
      </trkpt>
      <trkpt lat="49.22281" lon="2.29626">
        <ele>182.318278</ele>
        <time>2025-06-19T08:07:04.506Z</time>
      </trkpt>
      <trkpt lat="49.22277" lon="2.2964">
        <ele>182.217444</ele>
        <time>2025-06-19T08:07:06.517Z</time>
      </trkpt>
      <trkpt lat="49.22275" lon="2.29655">
        <ele>182.120009</ele>
        <time>2025-06-19T08:07:08.515Z</time>
      </trkpt>
      <trkpt lat="49.22272" lon="2.29669">
        <ele>182.022216</ele>
        <time>2025-06-19T08:07:10.495Z</time>
      </trkpt>
      <trkpt lat="49.22269" lon="2.29683">
        <ele>181.923576</ele>
        <time>2025-06-19T08:07:12.506Z</time>
      </trkpt>
      <trkpt lat="49.22266" lon="2.29696">
        <ele>181.832303</ele>
        <time>2025-06-19T08:07:14.504Z</time>
      </trkpt>
      <trkpt lat="49.22262" lon="2.2971">
        <ele>181.733619</ele>
        <time>2025-06-19T08:07:16.506Z</time>
      </trkpt>
      <trkpt lat="49.22257" lon="2.29723">
        <ele>181.638658</ele>
        <time>2025-06-19T08:07:18.507Z</time>
      </trkpt>
      <trkpt lat="49.22252" lon="2.2974">
        <ele>181.511714</ele>
        <time>2025-06-19T08:07:21.528Z</time>
      </trkpt>
      <trkpt lat="49.22246" lon="2.29757">
        <ele>181.384987</ele>
        <time>2025-06-19T08:07:24.506Z</time>
      </trkpt>
      <trkpt lat="49.22241" lon="2.29771">
        <ele>181.281495</ele>
        <time>2025-06-19T08:07:27.509Z</time>
      </trkpt>
      <trkpt lat="49.22236" lon="2.29783">
        <ele>181.181596</ele>
        <time>2025-06-19T08:07:30.522Z</time>
      </trkpt>
      <trkpt lat="49.22226" lon="2.29798">
        <ele>181.04695</ele>
        <time>2025-06-19T08:07:33.502Z</time>
      </trkpt>
      <trkpt lat="49.22223" lon="2.29811">
        <ele>180.954563</ele>
        <time>2025-06-19T08:07:35.504Z</time>
      </trkpt>
      <trkpt lat="49.22225" lon="2.29825">
        <ele>180.859628</ele>
        <time>2025-06-19T08:07:37.508Z</time>
      </trkpt>
      <trkpt lat="49.22229" lon="2.29838">
        <ele>180.768194</ele>
        <time>2025-06-19T08:07:39.505Z</time>
      </trkpt>
      <trkpt lat="49.22232" lon="2.29851">
        <ele>180.672998</ele>
        <time>2025-06-19T08:07:41.508Z</time>
      </trkpt>
      <trkpt lat="49.22232" lon="2.29867">
        <ele>180.570173</ele>
        <time>2025-06-19T08:07:43.507Z</time>
      </trkpt>
      <trkpt lat="49.2223" lon="2.29883">
        <ele>180.457678</ele>
        <time>2025-06-19T08:07:45.510Z</time>
      </trkpt>
      <trkpt lat="49.22227" lon="2.299">
        <ele>180.335932</ele>
        <time>2025-06-19T08:07:47.509Z</time>
      </trkpt>
      <trkpt lat="49.22223" lon="2.29918">
        <ele>180.199115</ele>
        <time>2025-06-19T08:07:49.514Z</time>
      </trkpt>
      <trkpt lat="49.22218" lon="2.29937">
        <ele>180.059707</ele>
        <time>2025-06-19T08:07:51.507Z</time>
      </trkpt>
      <trkpt lat="49.22214" lon="2.29957">
        <ele>179.918052</ele>
        <time>2025-06-19T08:07:53.511Z</time>
      </trkpt>
      <trkpt lat="49.2221" lon="2.29976">
        <ele>179.777026</ele>
        <time>2025-06-19T08:07:55.513Z</time>
      </trkpt>
      <trkpt lat="49.22206" lon="2.29995">
        <ele>179.639648</ele>
        <time>2025-06-19T08:07:57.512Z</time>
      </trkpt>
      <trkpt lat="49.22202" lon="2.30015">
        <ele>179.500296</ele>
        <time>2025-06-19T08:07:59.515Z</time>
      </trkpt>
      <trkpt lat="49.22198" lon="2.30035">
        <ele>179.351439</ele>
        <time>2025-06-19T08:08:01.509Z</time>
      </trkpt>
      <trkpt lat="49.22194" lon="2.30056">
        <ele>179.202262</ele>
        <time>2025-06-19T08:08:03.510Z</time>
      </trkpt>
      <trkpt lat="49.22189" lon="2.30076">
        <ele>179.052763</ele>
        <time>2025-06-19T08:08:05.508Z</time>
      </trkpt>
      <trkpt lat="49.22184" lon="2.30097">
        <ele>178.902092</ele>
        <time>2025-06-19T08:08:07.516Z</time>
      </trkpt>
      <trkpt lat="49.22179" lon="2.30117">
        <ele>178.749754</ele>
        <time>2025-06-19T08:08:09.510Z</time>
      </trkpt>
      <trkpt lat="49.22174" lon="2.30137">
        <ele>178.699933</ele>
        <time>2025-06-19T08:08:11.509Z</time>
      </trkpt>
      <trkpt lat="49.22168" lon="2.30157">
        <ele>178.680227</ele>
        <time>2025-06-19T08:08:13.510Z</time>
      </trkpt>
      <trkpt lat="49.22163" lon="2.30175">
        <ele>178.660954</ele>
        <time>2025-06-19T08:08:15.515Z</time>
      </trkpt>
      <trkpt lat="49.22158" lon="2.30193">
        <ele>178.642254</ele>
        <time>2025-06-19T08:08:17.512Z</time>
      </trkpt>
      <trkpt lat="49.22152" lon="2.3021">
        <ele>178.625355</ele>
        <time>2025-06-19T08:08:19.513Z</time>
      </trkpt>
      <trkpt lat="49.22147" lon="2.30225">
        <ele>178.608846</ele>
        <time>2025-06-19T08:08:21.503Z</time>
      </trkpt>
      <trkpt lat="49.22142" lon="2.3024">
        <ele>178.59282</ele>
        <time>2025-06-19T08:08:23.505Z</time>
      </trkpt>
      <trkpt lat="49.22136" lon="2.30256">
        <ele>178.575888</ele>
        <time>2025-06-19T08:08:25.515Z</time>
      </trkpt>
      <trkpt lat="49.2213" lon="2.30272">
        <ele>178.558315</ele>
        <time>2025-06-19T08:08:27.507Z</time>
      </trkpt>
      <trkpt lat="49.22124" lon="2.30288">
        <ele>178.541221</ele>
        <time>2025-06-19T08:08:29.510Z</time>
      </trkpt>
      <trkpt lat="49.22117" lon="2.30303">
        <ele>178.524147</ele>
        <time>2025-06-19T08:08:31.508Z</time>
      </trkpt>
      <trkpt lat="49.22111" lon="2.30318">
        <ele>178.506825</ele>
        <time>2025-06-19T08:08:33.504Z</time>
      </trkpt>
      <trkpt lat="49.22105" lon="2.30333">
        <ele>178.490145</ele>
        <time>2025-06-19T08:08:35.508Z</time>
      </trkpt>
      <trkpt lat="49.22098" lon="2.30349">
        <ele>178.472836</ele>
        <time>2025-06-19T08:08:37.511Z</time>
      </trkpt>
      <trkpt lat="49.22091" lon="2.30365">
        <ele>178.446654</ele>
        <time>2025-06-19T08:08:39.515Z</time>
      </trkpt>
      <trkpt lat="49.22084" lon="2.30381">
        <ele>178.333502</ele>
        <time>2025-06-19T08:08:41.507Z</time>
      </trkpt>
      <trkpt lat="49.22077" lon="2.30396">
        <ele>178.225614</ele>
        <time>2025-06-19T08:08:43.510Z</time>
      </trkpt>
      <trkpt lat="49.2207" lon="2.30412">
        <ele>178.113907</ele>
        <time>2025-06-19T08:08:45.517Z</time>
      </trkpt>
      <trkpt lat="49.22062" lon="2.30428">
        <ele>178.004488</ele>
        <time>2025-06-19T08:08:47.507Z</time>
      </trkpt>
      <trkpt lat="49.22055" lon="2.30443">
        <ele>177.894647</ele>
        <time>2025-06-19T08:08:49.511Z</time>
      </trkpt>
      <trkpt lat="49.22048" lon="2.30459">
        <ele>177.781812</ele>
        <time>2025-06-19T08:08:51.523Z</time>
      </trkpt>
      <trkpt lat="49.2204" lon="2.30476">
        <ele>177.662399</ele>
        <time>2025-06-19T08:08:53.516Z</time>
      </trkpt>
      <trkpt lat="49.22032" lon="2.30493">
        <ele>177.546299</ele>
        <time>2025-06-19T08:08:55.507Z</time>
      </trkpt>
      <trkpt lat="49.22025" lon="2.30509">
        <ele>177.434448</ele>
        <time>2025-06-19T08:08:57.511Z</time>
      </trkpt>
      <trkpt lat="49.22018" lon="2.30524">
        <ele>177.324606</ele>
        <time>2025-06-19T08:08:59.512Z</time>
      </trkpt>
      <trkpt lat="49.2201" lon="2.3054">
        <ele>177.214203</ele>
        <time>2025-06-19T08:09:01.506Z</time>
      </trkpt>
      <trkpt lat="49.22003" lon="2.30555">
        <ele>177.105298</ele>
        <time>2025-06-19T08:09:03.509Z</time>
      </trkpt>
      <trkpt lat="49.21996" lon="2.3057">
        <ele>176.99985</ele>
        <time>2025-06-19T08:09:05.510Z</time>
      </trkpt>
      <trkpt lat="49.21989" lon="2.30586">
        <ele>176.890008</ele>
        <time>2025-06-19T08:09:07.520Z</time>
      </trkpt>
      <trkpt lat="49.21982" lon="2.30602">
        <ele>176.830683</ele>
        <time>2025-06-19T08:09:09.515Z</time>
      </trkpt>
      <trkpt lat="49.21976" lon="2.30618">
        <ele>176.781357</ele>
        <time>2025-06-19T08:09:11.502Z</time>
      </trkpt>
      <trkpt lat="49.21969" lon="2.30635">
        <ele>176.729639</ele>
        <time>2025-06-19T08:09:13.504Z</time>
      </trkpt>
      <trkpt lat="49.21961" lon="2.30651">
        <ele>176.677923</ele>
        <time>2025-06-19T08:09:15.507Z</time>
      </trkpt>
      <trkpt lat="49.21955" lon="2.30668">
        <ele>176.626186</ele>
        <time>2025-06-19T08:09:17.506Z</time>
      </trkpt>
      <trkpt lat="49.21948" lon="2.30687">
        <ele>176.571512</ele>
        <time>2025-06-19T08:09:19.511Z</time>
      </trkpt>
      <trkpt lat="49.21942" lon="2.30704">
        <ele>176.520362</ele>
        <time>2025-06-19T08:09:21.506Z</time>
      </trkpt>
      <trkpt lat="49.21935" lon="2.30721">
        <ele>176.469375</ele>
        <time>2025-06-19T08:09:23.502Z</time>
      </trkpt>
      <trkpt lat="49.2193" lon="2.30739">
        <ele>176.418212</ele>
        <time>2025-06-19T08:09:25.502Z</time>
      </trkpt>
      <trkpt lat="49.21924" lon="2.30756">
        <ele>176.367635</ele>
        <time>2025-06-19T08:09:27.505Z</time>
      </trkpt>
      <trkpt lat="49.21918" lon="2.30774">
        <ele>176.315418</ele>
        <time>2025-06-19T08:09:29.509Z</time>
      </trkpt>
      <trkpt lat="49.21912" lon="2.30792">
        <ele>176.264374</ele>
        <time>2025-06-19T08:09:31.505Z</time>
      </trkpt>
      <trkpt lat="49.21907" lon="2.30809">
        <ele>176.215718</ele>
        <time>2025-06-19T08:09:33.518Z</time>
      </trkpt>
      <trkpt lat="49.21902" lon="2.30826">
        <ele>176.166189</ele>
        <time>2025-06-19T08:09:35.518Z</time>
      </trkpt>
      <trkpt lat="49.21896" lon="2.30843">
        <ele>176.108779</ele>
        <time>2025-06-19T08:09:37.512Z</time>
      </trkpt>
      <trkpt lat="49.2189" lon="2.30862">
        <ele>176.045554</ele>
        <time>2025-06-19T08:09:39.516Z</time>
      </trkpt>
      <trkpt lat="49.21884" lon="2.3088">
        <ele>175.98245</ele>
        <time>2025-06-19T08:09:41.508Z</time>
      </trkpt>
      <trkpt lat="49.21878" lon="2.30898">
        <ele>175.919015</ele>
        <time>2025-06-19T08:09:43.515Z</time>
      </trkpt>
      <trkpt lat="49.21872" lon="2.30918">
        <ele>175.854736</ele>
        <time>2025-06-19T08:09:45.496Z</time>
      </trkpt>
      <trkpt lat="49.21866" lon="2.30936">
        <ele>175.792119</ele>
        <time>2025-06-19T08:09:47.504Z</time>
      </trkpt>
      <trkpt lat="49.21859" lon="2.30953">
        <ele>175.73029</ele>
        <time>2025-06-19T08:09:49.510Z</time>
      </trkpt>
      <trkpt lat="49.21852" lon="2.3097">
        <ele>175.668527</ele>
        <time>2025-06-19T08:09:51.510Z</time>
      </trkpt>
      <trkpt lat="49.21845" lon="2.30987">
        <ele>175.605973</ele>
        <time>2025-06-19T08:09:53.504Z</time>
      </trkpt>
      <trkpt lat="49.21838" lon="2.31004">
        <ele>175.543693</ele>
        <time>2025-06-19T08:09:55.508Z</time>
      </trkpt>
      <trkpt lat="49.2183" lon="2.31021">
        <ele>175.479579</ele>
        <time>2025-06-19T08:09:57.507Z</time>
      </trkpt>
      <trkpt lat="49.21822" lon="2.31038">
        <ele>175.416236</ele>
        <time>2025-06-19T08:09:59.506Z</time>
      </trkpt>
      <trkpt lat="49.21814" lon="2.31056">
        <ele>175.350867</ele>
        <time>2025-06-19T08:10:01.506Z</time>
      </trkpt>
      <trkpt lat="49.21806" lon="2.31073">
        <ele>175.292175</ele>
        <time>2025-06-19T08:10:03.508Z</time>
      </trkpt>
      <trkpt lat="49.21799" lon="2.31089">
        <ele>175.238538</ele>
        <time>2025-06-19T08:10:05.508Z</time>
      </trkpt>
      <trkpt lat="49.21791" lon="2.31105">
        <ele>175.187522</ele>
        <time>2025-06-19T08:10:07.514Z</time>
      </trkpt>
      <trkpt lat="49.21783" lon="2.3112">
        <ele>175.136505</ele>
        <time>2025-06-19T08:10:09.511Z</time>
      </trkpt>
      <trkpt lat="49.21775" lon="2.31135">
        <ele>175.084574</ele>
        <time>2025-06-19T08:10:11.513Z</time>
      </trkpt>
      <trkpt lat="49.21767" lon="2.31151">
        <ele>175.032364</ele>
        <time>2025-06-19T08:10:13.510Z</time>
      </trkpt>
      <trkpt lat="49.21759" lon="2.31166">
        <ele>174.982465</ele>
        <time>2025-06-19T08:10:15.519Z</time>
      </trkpt>
      <trkpt lat="49.21751" lon="2.31181">
        <ele>174.93206</ele>
        <time>2025-06-19T08:10:17.514Z</time>
      </trkpt>
      <trkpt lat="49.21743" lon="2.31197">
        <ele>174.879012</ele>
        <time>2025-06-19T08:10:19.516Z</time>
      </trkpt>
      <trkpt lat="49.21736" lon="2.31213">
        <ele>174.82757</ele>
        <time>2025-06-19T08:10:21.512Z</time>
      </trkpt>
      <trkpt lat="49.21728" lon="2.31229">
        <ele>174.774761</ele>
        <time>2025-06-19T08:10:23.508Z</time>
      </trkpt>
      <trkpt lat="49.2172" lon="2.31246">
        <ele>174.720868</ele>
        <time>2025-06-19T08:10:25.515Z</time>
      </trkpt>
      <trkpt lat="49.21713" lon="2.31263">
        <ele>174.666585</ele>
        <time>2025-06-19T08:10:27.514Z</time>
      </trkpt>
      <trkpt lat="49.21705" lon="2.31279">
        <ele>174.613801</ele>
        <time>2025-06-19T08:10:29.508Z</time>
      </trkpt>
      <trkpt lat="49.21697" lon="2.31295">
        <ele>174.499012</ele>
        <time>2025-06-19T08:10:31.515Z</time>
      </trkpt>
      <trkpt lat="49.21689" lon="2.3131">
        <ele>174.349399</ele>
        <time>2025-06-19T08:10:33.512Z</time>
      </trkpt>
      <trkpt lat="49.2168" lon="2.31325">
        <ele>174.194417</ele>
        <time>2025-06-19T08:10:35.518Z</time>
      </trkpt>
      <trkpt lat="49.21671" lon="2.3134">
        <ele>174.035747</ele>
        <time>2025-06-19T08:10:37.510Z</time>
      </trkpt>
      <trkpt lat="49.21661" lon="2.31354">
        <ele>173.876338</ele>
        <time>2025-06-19T08:10:39.506Z</time>
      </trkpt>
      <trkpt lat="49.21651" lon="2.31368">
        <ele>173.719188</ele>
        <time>2025-06-19T08:10:41.503Z</time>
      </trkpt>
      <trkpt lat="49.21641" lon="2.3138">
        <ele>173.566416</ele>
        <time>2025-06-19T08:10:43.521Z</time>
      </trkpt>
      <trkpt lat="49.21632" lon="2.31394">
        <ele>173.412233</ele>
        <time>2025-06-19T08:10:45.507Z</time>
      </trkpt>
      <trkpt lat="49.21623" lon="2.31407">
        <ele>173.26289</ele>
        <time>2025-06-19T08:10:47.520Z</time>
      </trkpt>
      <trkpt lat="49.21614" lon="2.31419">
        <ele>173.129779</ele>
        <time>2025-06-19T08:10:49.519Z</time>
      </trkpt>
      <trkpt lat="49.21606" lon="2.31432">
        <ele>172.98519</ele>
        <time>2025-06-19T08:10:51.512Z</time>
      </trkpt>
      <trkpt lat="49.21597" lon="2.31447">
        <ele>172.830899</ele>
        <time>2025-06-19T08:10:53.517Z</time>
      </trkpt>
      <trkpt lat="49.21589" lon="2.31463">
        <ele>172.674699</ele>
        <time>2025-06-19T08:10:55.503Z</time>
      </trkpt>
      <trkpt lat="49.21579" lon="2.31479">
        <ele>172.511371</ele>
        <time>2025-06-19T08:10:57.513Z</time>
      </trkpt>
      <trkpt lat="49.21571" lon="2.31495">
        <ele>172.391217</ele>
        <time>2025-06-19T08:10:59.514Z</time>
      </trkpt>
      <trkpt lat="49.21562" lon="2.31511">
        <ele>172.29068</ele>
        <time>2025-06-19T08:11:01.515Z</time>
      </trkpt>
      <trkpt lat="49.21553" lon="2.31528">
        <ele>172.186455</ele>
        <time>2025-06-19T08:11:03.525Z</time>
      </trkpt>
      <trkpt lat="49.21544" lon="2.31546">
        <ele>172.080972</ele>
        <time>2025-06-19T08:11:05.511Z</time>
      </trkpt>
      <trkpt lat="49.21536" lon="2.31562">
        <ele>171.981271</ele>
        <time>2025-06-19T08:11:07.510Z</time>
      </trkpt>
      <trkpt lat="49.21528" lon="2.3158">
        <ele>171.876702</ele>
        <time>2025-06-19T08:11:09.508Z</time>
      </trkpt>
      <trkpt lat="49.2152" lon="2.31598">
        <ele>171.776168</ele>
        <time>2025-06-19T08:11:11.504Z</time>
      </trkpt>
      <trkpt lat="49.21513" lon="2.31616">
        <ele>171.676034</ele>
        <time>2025-06-19T08:11:13.522Z</time>
      </trkpt>
      <trkpt lat="49.21505" lon="2.31633">
        <ele>171.577087</ele>
        <time>2025-06-19T08:11:15.516Z</time>
      </trkpt>
      <trkpt lat="49.21498" lon="2.3165">
        <ele>171.476556</ele>
        <time>2025-06-19T08:11:17.513Z</time>
      </trkpt>
      <trkpt lat="49.2149" lon="2.31669">
        <ele>171.369992</ele>
        <time>2025-06-19T08:11:19.509Z</time>
      </trkpt>
      <trkpt lat="49.21483" lon="2.31688">
        <ele>171.263378</ele>
        <time>2025-06-19T08:11:21.518Z</time>
      </trkpt>
      <trkpt lat="49.21476" lon="2.31708">
        <ele>171.157281</ele>
        <time>2025-06-19T08:11:23.513Z</time>
      </trkpt>
      <trkpt lat="49.21469" lon="2.31727">
        <ele>171.150805</ele>
        <time>2025-06-19T08:11:25.506Z</time>
      </trkpt>
      <trkpt lat="49.21463" lon="2.31745">
        <ele>171.153496</ele>
        <time>2025-06-19T08:11:27.507Z</time>
      </trkpt>
      <trkpt lat="49.21457" lon="2.31762">
        <ele>171.156076</ele>
        <time>2025-06-19T08:11:29.507Z</time>
      </trkpt>
      <trkpt lat="49.21452" lon="2.31779">
        <ele>171.158651</ele>
        <time>2025-06-19T08:11:31.505Z</time>
      </trkpt>
      <trkpt lat="49.21446" lon="2.31796">
        <ele>171.161214</ele>
        <time>2025-06-19T08:11:33.510Z</time>
      </trkpt>
      <trkpt lat="49.21441" lon="2.31814">
        <ele>171.163818</ele>
        <time>2025-06-19T08:11:35.509Z</time>
      </trkpt>
      <trkpt lat="49.21436" lon="2.3183">
        <ele>171.166267</ele>
        <time>2025-06-19T08:11:37.510Z</time>
      </trkpt>
      <trkpt lat="49.21432" lon="2.31847">
        <ele>171.168682</ele>
        <time>2025-06-19T08:11:39.516Z</time>
      </trkpt>
      <trkpt lat="49.21427" lon="2.31861">
        <ele>171.17078</ele>
        <time>2025-06-19T08:11:41.511Z</time>
      </trkpt>
      <trkpt lat="49.21423" lon="2.31876">
        <ele>171.172987</ele>
        <time>2025-06-19T08:11:43.508Z</time>
      </trkpt>
      <trkpt lat="49.21418" lon="2.3189">
        <ele>171.175057</ele>
        <time>2025-06-19T08:11:45.510Z</time>
      </trkpt>
      <trkpt lat="49.21413" lon="2.31905">
        <ele>171.177324</ele>
        <time>2025-06-19T08:11:47.498Z</time>
      </trkpt>
      <trkpt lat="49.21409" lon="2.31919">
        <ele>171.179423</ele>
        <time>2025-06-19T08:11:49.500Z</time>
      </trkpt>
      <trkpt lat="49.21405" lon="2.31932">
        <ele>171.18141</ele>
        <time>2025-06-19T08:11:51.519Z</time>
      </trkpt>
      <trkpt lat="49.21402" lon="2.31946">
        <ele>171.18334</ele>
        <time>2025-06-19T08:11:53.508Z</time>
      </trkpt>
      <trkpt lat="49.21396" lon="2.31962">
        <ele>171.179037</ele>
        <time>2025-06-19T08:11:56.506Z</time>
      </trkpt>
      <trkpt lat="49.21391" lon="2.31976">
        <ele>171.158773</ele>
        <time>2025-06-19T08:11:59.514Z</time>
      </trkpt>
      <trkpt lat="49.21386" lon="2.31988">
        <ele>171.139416</ele>
        <time>2025-06-19T08:12:02.505Z</time>
      </trkpt>
      <trkpt lat="49.21384" lon="2.32003">
        <ele>171.119615</ele>
        <time>2025-06-19T08:12:05.508Z</time>
      </trkpt>
      <trkpt lat="49.21393" lon="2.32015">
        <ele>171.094799</ele>
        <time>2025-06-19T08:12:08.513Z</time>
      </trkpt>
      <trkpt lat="49.21405" lon="2.32019">
        <ele>171.071761</ele>
        <time>2025-06-19T08:12:10.521Z</time>
      </trkpt>
      <trkpt lat="49.21415" lon="2.32024">
        <ele>171.050596</ele>
        <time>2025-06-19T08:12:12.502Z</time>
      </trkpt>
      <trkpt lat="49.21424" lon="2.32031">
        <ele>171.029468</ele>
        <time>2025-06-19T08:12:14.499Z</time>
      </trkpt>
      <trkpt lat="49.21433" lon="2.32038">
        <ele>171.009871</ele>
        <time>2025-06-19T08:12:16.512Z</time>
      </trkpt>
      <trkpt lat="49.21442" lon="2.32045">
        <ele>170.990098</ele>
        <time>2025-06-19T08:12:18.506Z</time>
      </trkpt>
      <trkpt lat="49.21451" lon="2.32053">
        <ele>170.96979</ele>
        <time>2025-06-19T08:12:20.501Z</time>
      </trkpt>
      <trkpt lat="49.21459" lon="2.3206">
        <ele>170.949956</ele>
        <time>2025-06-19T08:12:22.507Z</time>
      </trkpt>
      <trkpt lat="49.21468" lon="2.32068">
        <ele>170.930087</ele>
        <time>2025-06-19T08:12:24.513Z</time>
      </trkpt>
      <trkpt lat="49.21475" lon="2.32076">
        <ele>170.911917</ele>
        <time>2025-06-19T08:12:26.512Z</time>
      </trkpt>
      <trkpt lat="49.21486" lon="2.32089">
        <ele>170.884447</ele>
        <time>2025-06-19T08:12:29.508Z</time>
      </trkpt>
      <trkpt lat="49.21494" lon="2.32098">
        <ele>170.865107</ele>
        <time>2025-06-19T08:12:31.515Z</time>
      </trkpt>
      <trkpt lat="49.21501" lon="2.32109">
        <ele>170.844927</ele>
        <time>2025-06-19T08:12:33.506Z</time>
      </trkpt>
      <trkpt lat="49.21509" lon="2.32119">
        <ele>170.834075</ele>
        <time>2025-06-19T08:12:35.519Z</time>
      </trkpt>
      <trkpt lat="49.21515" lon="2.3213">
        <ele>170.893196</ele>
        <time>2025-06-19T08:12:37.515Z</time>
      </trkpt>
      <trkpt lat="49.2152" lon="2.32141">
        <ele>170.94918</ele>
        <time>2025-06-19T08:12:39.515Z</time>
      </trkpt>
      <trkpt lat="49.21526" lon="2.32152">
        <ele>171.004183</ele>
        <time>2025-06-19T08:12:41.519Z</time>
      </trkpt>
      <trkpt lat="49.21532" lon="2.32163">
        <ele>171.059196</ele>
        <time>2025-06-19T08:12:43.518Z</time>
      </trkpt>
      <trkpt lat="49.21538" lon="2.32175">
        <ele>171.119994</ele>
        <time>2025-06-19T08:12:45.510Z</time>
      </trkpt>
      <trkpt lat="49.21544" lon="2.32188">
        <ele>171.183428</ele>
        <time>2025-06-19T08:12:47.511Z</time>
      </trkpt>
      <trkpt lat="49.2155" lon="2.322">
        <ele>171.244131</ele>
        <time>2025-06-19T08:12:49.507Z</time>
      </trkpt>
      <trkpt lat="49.21557" lon="2.32211">
        <ele>171.307075</ele>
        <time>2025-06-19T08:12:51.515Z</time>
      </trkpt>
      <trkpt lat="49.21565" lon="2.32222">
        <ele>171.371314</ele>
        <time>2025-06-19T08:12:53.516Z</time>
      </trkpt>
      <trkpt lat="49.21573" lon="2.32232">
        <ele>171.432803</ele>
        <time>2025-06-19T08:12:55.507Z</time>
      </trkpt>
      <trkpt lat="49.2158" lon="2.32242">
        <ele>171.492455</ele>
        <time>2025-06-19T08:12:57.507Z</time>
      </trkpt>
      <trkpt lat="49.21588" lon="2.32254">
        <ele>171.55697</ele>
        <time>2025-06-19T08:12:59.514Z</time>
      </trkpt>
      <trkpt lat="49.21596" lon="2.32264">
        <ele>171.62212</ele>
        <time>2025-06-19T08:13:01.509Z</time>
      </trkpt>
      <trkpt lat="49.21604" lon="2.32274">
        <ele>171.685707</ele>
        <time>2025-06-19T08:13:03.512Z</time>
      </trkpt>
      <trkpt lat="49.21613" lon="2.32284">
        <ele>171.750521</ele>
        <time>2025-06-19T08:13:05.503Z</time>
      </trkpt>
      <trkpt lat="49.21621" lon="2.32294">
        <ele>171.816044</ele>
        <time>2025-06-19T08:13:07.516Z</time>
      </trkpt>
      <trkpt lat="49.21629" lon="2.32303">
        <ele>171.87674</ele>
        <time>2025-06-19T08:13:09.518Z</time>
      </trkpt>
      <trkpt lat="49.21636" lon="2.32312">
        <ele>171.941371</ele>
        <time>2025-06-19T08:13:11.511Z</time>
      </trkpt>
      <trkpt lat="49.21644" lon="2.3232">
        <ele>172.055619</ele>
        <time>2025-06-19T08:13:13.506Z</time>
      </trkpt>
      <trkpt lat="49.21652" lon="2.32328">
        <ele>172.167352</ele>
        <time>2025-06-19T08:13:15.503Z</time>
      </trkpt>
      <trkpt lat="49.21661" lon="2.32336">
        <ele>172.282689</ele>
        <time>2025-06-19T08:13:17.507Z</time>
      </trkpt>
      <trkpt lat="49.21669" lon="2.32344">
        <ele>172.395439</ele>
        <time>2025-06-19T08:13:19.508Z</time>
      </trkpt>
      <trkpt lat="49.21678" lon="2.3235">
        <ele>172.509513</ele>
        <time>2025-06-19T08:13:21.510Z</time>
      </trkpt>
      <trkpt lat="49.2169" lon="2.32359">
        <ele>172.663228</ele>
        <time>2025-06-19T08:13:24.513Z</time>
      </trkpt>
      <trkpt lat="49.21699" lon="2.32365">
        <ele>172.778045</ele>
        <time>2025-06-19T08:13:26.518Z</time>
      </trkpt>
      <trkpt lat="49.21707" lon="2.32372">
        <ele>172.888238</ele>
        <time>2025-06-19T08:13:28.513Z</time>
      </trkpt>
      <trkpt lat="49.21715" lon="2.32379">
        <ele>172.996201</ele>
        <time>2025-06-19T08:13:30.519Z</time>
      </trkpt>
      <trkpt lat="49.21728" lon="2.32388">
        <ele>173.153833</ele>
        <time>2025-06-19T08:13:33.514Z</time>
      </trkpt>
      <trkpt lat="49.21739" lon="2.32397">
        <ele>173.304446</ele>
        <time>2025-06-19T08:13:36.517Z</time>
      </trkpt>
      <trkpt lat="49.21748" lon="2.32411">
        <ele>173.45426</ele>
        <time>2025-06-19T08:13:39.514Z</time>
      </trkpt>
      <trkpt lat="49.21752" lon="2.32424">
        <ele>173.561323</ele>
        <time>2025-06-19T08:13:41.515Z</time>
      </trkpt>
      <trkpt lat="49.21754" lon="2.32437">
        <ele>173.666266</ele>
        <time>2025-06-19T08:13:43.516Z</time>
      </trkpt>
      <trkpt lat="49.21756" lon="2.32451">
        <ele>173.774696</ele>
        <time>2025-06-19T08:13:45.499Z</time>
      </trkpt>
      <trkpt lat="49.21757" lon="2.32465">
        <ele>173.881851</ele>
        <time>2025-06-19T08:13:47.503Z</time>
      </trkpt>
      <trkpt lat="49.21759" lon="2.32485">
        <ele>174.028692</ele>
        <time>2025-06-19T08:13:50.512Z</time>
      </trkpt>
      <trkpt lat="49.2176" lon="2.32499">
        <ele>174.104842</ele>
        <time>2025-06-19T08:13:52.509Z</time>
      </trkpt>
      <trkpt lat="49.21762" lon="2.32514">
        <ele>174.183887</ele>
        <time>2025-06-19T08:13:54.508Z</time>
      </trkpt>
      <trkpt lat="49.21764" lon="2.32528">
        <ele>174.260927</ele>
        <time>2025-06-19T08:13:56.499Z</time>
      </trkpt>
      <trkpt lat="49.21765" lon="2.32543">
        <ele>174.340027</ele>
        <time>2025-06-19T08:13:58.509Z</time>
      </trkpt>
      <trkpt lat="49.21766" lon="2.32558">
        <ele>174.42029</ele>
        <time>2025-06-19T08:14:00.517Z</time>
      </trkpt>
      <trkpt lat="49.21768" lon="2.32572">
        <ele>174.499097</ele>
        <time>2025-06-19T08:14:02.501Z</time>
      </trkpt>
      <trkpt lat="49.2177" lon="2.32586">
        <ele>174.575654</ele>
        <time>2025-06-19T08:14:04.516Z</time>
      </trkpt>
      <trkpt lat="49.21771" lon="2.32601">
        <ele>174.656344</ele>
        <time>2025-06-19T08:14:06.507Z</time>
      </trkpt>
      <trkpt lat="49.21773" lon="2.32616">
        <ele>174.736878</ele>
        <time>2025-06-19T08:14:08.511Z</time>
      </trkpt>
      <trkpt lat="49.21774" lon="2.3263">
        <ele>174.815264</ele>
        <time>2025-06-19T08:14:10.510Z</time>
      </trkpt>
      <trkpt lat="49.21776" lon="2.32645">
        <ele>174.896057</ele>
        <time>2025-06-19T08:14:12.507Z</time>
      </trkpt>
      <trkpt lat="49.21777" lon="2.3266">
        <ele>174.976961</ele>
        <time>2025-06-19T08:14:14.504Z</time>
      </trkpt>
      <trkpt lat="49.21779" lon="2.32675">
        <ele>175.056145</ele>
        <time>2025-06-19T08:14:16.507Z</time>
      </trkpt>
      <trkpt lat="49.21781" lon="2.32691">
        <ele>175.140203</ele>
        <time>2025-06-19T08:14:18.515Z</time>
      </trkpt>
      <trkpt lat="49.21782" lon="2.32705">
        <ele>175.218879</ele>
        <time>2025-06-19T08:14:20.508Z</time>
      </trkpt>
      <trkpt lat="49.21783" lon="2.32719">
        <ele>175.292663</ele>
        <time>2025-06-19T08:14:22.507Z</time>
      </trkpt>
      <trkpt lat="49.21786" lon="2.32739">
        <ele>175.400567</ele>
        <time>2025-06-19T08:14:25.519Z</time>
      </trkpt>
      <trkpt lat="49.21788" lon="2.32758">
        <ele>175.466068</ele>
        <time>2025-06-19T08:14:28.505Z</time>
      </trkpt>
      <trkpt lat="49.2179" lon="2.32772">
        <ele>175.396605</ele>
        <time>2025-06-19T08:14:30.508Z</time>
      </trkpt>
      <trkpt lat="49.21792" lon="2.32793">
        <ele>175.295974</ele>
        <time>2025-06-19T08:14:33.508Z</time>
      </trkpt>
      <trkpt lat="49.21793" lon="2.32806">
        <ele>175.227397</ele>
        <time>2025-06-19T08:14:35.510Z</time>
      </trkpt>
      <trkpt lat="49.21794" lon="2.32821">
        <ele>175.154292</ele>
        <time>2025-06-19T08:14:37.513Z</time>
      </trkpt>
      <trkpt lat="49.21796" lon="2.32835">
        <ele>175.082923</ele>
        <time>2025-06-19T08:14:39.509Z</time>
      </trkpt>
      <trkpt lat="49.21799" lon="2.32856">
        <ele>174.981315</ele>
        <time>2025-06-19T08:14:42.509Z</time>
      </trkpt>
      <trkpt lat="49.21801" lon="2.32875">
        <ele>174.883124</ele>
        <time>2025-06-19T08:14:45.503Z</time>
      </trkpt>
      <trkpt lat="49.21802" lon="2.3289">
        <ele>174.811164</ele>
        <time>2025-06-19T08:14:47.515Z</time>
      </trkpt>
      <trkpt lat="49.21804" lon="2.32905">
        <ele>174.738344</ele>
        <time>2025-06-19T08:14:49.507Z</time>
      </trkpt>
      <trkpt lat="49.21806" lon="2.3292">
        <ele>174.663445</ele>
        <time>2025-06-19T08:14:51.509Z</time>
      </trkpt>
      <trkpt lat="49.21808" lon="2.32936">
        <ele>174.583247</ele>
        <time>2025-06-19T08:14:53.511Z</time>
      </trkpt>
      <trkpt lat="49.2181" lon="2.32954">
        <ele>174.494445</ele>
        <time>2025-06-19T08:14:55.519Z</time>
      </trkpt>
      <trkpt lat="49.21812" lon="2.32969">
        <ele>174.415254</ele>
        <time>2025-06-19T08:14:57.518Z</time>
      </trkpt>
      <trkpt lat="49.21814" lon="2.32985">
        <ele>174.334919</ele>
        <time>2025-06-19T08:14:59.517Z</time>
      </trkpt>
      <trkpt lat="49.21816" lon="2.33003">
        <ele>174.248315</ele>
        <time>2025-06-19T08:15:01.516Z</time>
      </trkpt>
      <trkpt lat="49.21818" lon="2.3302">
        <ele>174.162443</ele>
        <time>2025-06-19T08:15:03.505Z</time>
      </trkpt>
      <trkpt lat="49.2182" lon="2.33038">
        <ele>174.054227</ele>
        <time>2025-06-19T08:15:05.513Z</time>
      </trkpt>
      <trkpt lat="49.21822" lon="2.33055">
        <ele>173.93702</ele>
        <time>2025-06-19T08:15:07.518Z</time>
      </trkpt>
      <trkpt lat="49.21824" lon="2.33073">
        <ele>173.818512</ele>
        <time>2025-06-19T08:15:09.506Z</time>
      </trkpt>
      <trkpt lat="49.21826" lon="2.3309">
        <ele>173.706118</ele>
        <time>2025-06-19T08:15:11.506Z</time>
      </trkpt>
      <trkpt lat="49.21828" lon="2.33107">
        <ele>173.58843</ele>
        <time>2025-06-19T08:15:13.501Z</time>
      </trkpt>
      <trkpt lat="49.2183" lon="2.33125">
        <ele>173.468622</ele>
        <time>2025-06-19T08:15:15.502Z</time>
      </trkpt>
      <trkpt lat="49.21832" lon="2.33143">
        <ele>173.347182</ele>
        <time>2025-06-19T08:15:17.509Z</time>
      </trkpt>
      <trkpt lat="49.21834" lon="2.33162">
        <ele>173.224936</ele>
        <time>2025-06-19T08:15:19.517Z</time>
      </trkpt>
      <trkpt lat="49.21836" lon="2.3318">
        <ele>173.101148</ele>
        <time>2025-06-19T08:15:21.519Z</time>
      </trkpt>
      <trkpt lat="49.21838" lon="2.33198">
        <ele>172.977437</ele>
        <time>2025-06-19T08:15:23.504Z</time>
      </trkpt>
      <trkpt lat="49.2184" lon="2.33217">
        <ele>172.850777</ele>
        <time>2025-06-19T08:15:25.503Z</time>
      </trkpt>
      <trkpt lat="49.21842" lon="2.33236">
        <ele>172.726575</ele>
        <time>2025-06-19T08:15:27.515Z</time>
      </trkpt>
      <trkpt lat="49.21844" lon="2.33255">
        <ele>172.601037</ele>
        <time>2025-06-19T08:15:29.514Z</time>
      </trkpt>
      <trkpt lat="49.21846" lon="2.33273">
        <ele>172.477157</ele>
        <time>2025-06-19T08:15:31.515Z</time>
      </trkpt>
      <trkpt lat="49.21848" lon="2.33292">
        <ele>172.349044</ele>
        <time>2025-06-19T08:15:33.511Z</time>
      </trkpt>
      <trkpt lat="49.2185" lon="2.33311">
        <ele>172.418312</ele>
        <time>2025-06-19T08:15:35.519Z</time>
      </trkpt>
      <trkpt lat="49.21853" lon="2.33329">
        <ele>172.550522</ele>
        <time>2025-06-19T08:15:37.506Z</time>
      </trkpt>
      <trkpt lat="49.21855" lon="2.33347">
        <ele>172.679984</ele>
        <time>2025-06-19T08:15:39.501Z</time>
      </trkpt>
      <trkpt lat="49.21857" lon="2.33364">
        <ele>172.802927</ele>
        <time>2025-06-19T08:15:41.508Z</time>
      </trkpt>
      <trkpt lat="49.21859" lon="2.3338">
        <ele>172.923606</ele>
        <time>2025-06-19T08:15:43.508Z</time>
      </trkpt>
      <trkpt lat="49.21861" lon="2.33397">
        <ele>173.04309</ele>
        <time>2025-06-19T08:15:45.505Z</time>
      </trkpt>
      <trkpt lat="49.21863" lon="2.33413">
        <ele>173.159577</ele>
        <time>2025-06-19T08:15:47.497Z</time>
      </trkpt>
      <trkpt lat="49.21865" lon="2.3343">
        <ele>173.283222</ele>
        <time>2025-06-19T08:15:49.511Z</time>
      </trkpt>
      <trkpt lat="49.21866" lon="2.33447">
        <ele>173.405303</ele>
        <time>2025-06-19T08:15:51.515Z</time>
      </trkpt>
      <trkpt lat="49.21868" lon="2.33464">
        <ele>173.529292</ele>
        <time>2025-06-19T08:15:53.498Z</time>
      </trkpt>
      <trkpt lat="49.2187" lon="2.33481">
        <ele>173.64978</ele>
        <time>2025-06-19T08:15:55.502Z</time>
      </trkpt>
      <trkpt lat="49.21872" lon="2.33498">
        <ele>173.774294</ele>
        <time>2025-06-19T08:15:57.501Z</time>
      </trkpt>
      <trkpt lat="49.21873" lon="2.33516">
        <ele>173.896928</ele>
        <time>2025-06-19T08:15:59.507Z</time>
      </trkpt>
      <trkpt lat="49.21875" lon="2.33532">
        <ele>174.015831</ele>
        <time>2025-06-19T08:16:01.523Z</time>
      </trkpt>
      <trkpt lat="49.21877" lon="2.3355">
        <ele>174.142288</ele>
        <time>2025-06-19T08:16:03.511Z</time>
      </trkpt>
      <trkpt lat="49.21879" lon="2.33566">
        <ele>174.264293</ele>
        <time>2025-06-19T08:16:05.517Z</time>
      </trkpt>
      <trkpt lat="49.21881" lon="2.33583">
        <ele>174.270311</ele>
        <time>2025-06-19T08:16:07.509Z</time>
      </trkpt>
      <trkpt lat="49.21883" lon="2.336">
        <ele>174.263497</ele>
        <time>2025-06-19T08:16:09.517Z</time>
      </trkpt>
      <trkpt lat="49.21885" lon="2.33614">
        <ele>174.25743</ele>
        <time>2025-06-19T08:16:11.508Z</time>
      </trkpt>
      <trkpt lat="49.21887" lon="2.3363">
        <ele>174.251045</ele>
        <time>2025-06-19T08:16:13.515Z</time>
      </trkpt>
      <trkpt lat="49.21888" lon="2.33645">
        <ele>174.244871</ele>
        <time>2025-06-19T08:16:15.504Z</time>
      </trkpt>
      <trkpt lat="49.2189" lon="2.3366">
        <ele>174.238719</ele>
        <time>2025-06-19T08:16:17.510Z</time>
      </trkpt>
      <trkpt lat="49.21892" lon="2.33674">
        <ele>174.232677</ele>
        <time>2025-06-19T08:16:19.504Z</time>
      </trkpt>
      <trkpt lat="49.21894" lon="2.3369">
        <ele>174.225983</ele>
        <time>2025-06-19T08:16:21.507Z</time>
      </trkpt>
      <trkpt lat="49.21896" lon="2.33707">
        <ele>174.21923</ele>
        <time>2025-06-19T08:16:23.502Z</time>
      </trkpt>
      <trkpt lat="49.21898" lon="2.33722">
        <ele>174.21265</ele>
        <time>2025-06-19T08:16:25.508Z</time>
      </trkpt>
      <trkpt lat="49.21901" lon="2.33738">
        <ele>174.206142</ele>
        <time>2025-06-19T08:16:27.517Z</time>
      </trkpt>
      <trkpt lat="49.21903" lon="2.33754">
        <ele>174.19932</ele>
        <time>2025-06-19T08:16:29.505Z</time>
      </trkpt>
      <trkpt lat="49.21906" lon="2.3377">
        <ele>174.192618</ele>
        <time>2025-06-19T08:16:31.509Z</time>
      </trkpt>
      <trkpt lat="49.21908" lon="2.33787">
        <ele>174.185633</ele>
        <time>2025-06-19T08:16:33.520Z</time>
      </trkpt>
      <trkpt lat="49.21911" lon="2.33804">
        <ele>174.178472</ele>
        <time>2025-06-19T08:16:35.514Z</time>
      </trkpt>
      <trkpt lat="49.21913" lon="2.33821">
        <ele>174.171503</ele>
        <time>2025-06-19T08:16:37.514Z</time>
      </trkpt>
      <trkpt lat="49.21915" lon="2.33837">
        <ele>174.164747</ele>
        <time>2025-06-19T08:16:39.508Z</time>
      </trkpt>
      <trkpt lat="49.21917" lon="2.33854">
        <ele>173.953581</ele>
        <time>2025-06-19T08:16:41.514Z</time>
      </trkpt>
      <trkpt lat="49.21919" lon="2.3387">
        <ele>173.728198</ele>
        <time>2025-06-19T08:16:43.519Z</time>
      </trkpt>
      <trkpt lat="49.21922" lon="2.33888">
        <ele>173.496424</ele>
        <time>2025-06-19T08:16:45.514Z</time>
      </trkpt>
      <trkpt lat="49.21924" lon="2.33905">
        <ele>173.263815</ele>
        <time>2025-06-19T08:16:47.516Z</time>
      </trkpt>
      <trkpt lat="49.21927" lon="2.33923">
        <ele>173.02728</ele>
        <time>2025-06-19T08:16:49.509Z</time>
      </trkpt>
      <trkpt lat="49.2193" lon="2.3394">
        <ele>172.78866</ele>
        <time>2025-06-19T08:16:51.505Z</time>
      </trkpt>
      <trkpt lat="49.21932" lon="2.33958">
        <ele>172.556051</ele>
        <time>2025-06-19T08:16:53.505Z</time>
      </trkpt>
      <trkpt lat="49.21935" lon="2.33976">
        <ele>172.30591</ele>
        <time>2025-06-19T08:16:55.511Z</time>
      </trkpt>
      <trkpt lat="49.21937" lon="2.33995">
        <ele>172.058765</ele>
        <time>2025-06-19T08:16:57.514Z</time>
      </trkpt>
      <trkpt lat="49.2194" lon="2.34014">
        <ele>171.80178</ele>
        <time>2025-06-19T08:16:59.496Z</time>
      </trkpt>
      <trkpt lat="49.21944" lon="2.34032">
        <ele>171.545686</ele>
        <time>2025-06-19T08:17:01.522Z</time>
      </trkpt>
      <trkpt lat="49.21947" lon="2.34052">
        <ele>171.283005</ele>
        <time>2025-06-19T08:17:03.502Z</time>
      </trkpt>
      <trkpt lat="49.2195" lon="2.34072">
        <ele>171.010923</ele>
        <time>2025-06-19T08:17:05.522Z</time>
      </trkpt>
      <trkpt lat="49.21954" lon="2.34092">
        <ele>170.740369</ele>
        <time>2025-06-19T08:17:07.505Z</time>
      </trkpt>
      <trkpt lat="49.21957" lon="2.34108">
        <ele>170.503314</ele>
        <time>2025-06-19T08:17:09.509Z</time>
      </trkpt>
      <trkpt lat="49.2196" lon="2.34125">
        <ele>170.041223</ele>
        <time>2025-06-19T08:17:12.511Z</time>
      </trkpt>
      <trkpt lat="49.21965" lon="2.34144">
        <ele>169.530576</ele>
        <time>2025-06-19T08:17:15.516Z</time>
      </trkpt>
      <trkpt lat="49.21967" lon="2.34159">
        <ele>169.143446</ele>
        <time>2025-06-19T08:17:17.511Z</time>
      </trkpt>
      <trkpt lat="49.21969" lon="2.34176">
        <ele>168.685814</ele>
        <time>2025-06-19T08:17:19.508Z</time>
      </trkpt>
      <trkpt lat="49.21971" lon="2.34195">
        <ele>168.199145</ele>
        <time>2025-06-19T08:17:21.510Z</time>
      </trkpt>
      <trkpt lat="49.21972" lon="2.34215">
        <ele>167.678199</ele>
        <time>2025-06-19T08:17:23.511Z</time>
      </trkpt>
      <trkpt lat="49.21974" lon="2.34237">
        <ele>167.123616</ele>
        <time>2025-06-19T08:17:25.520Z</time>
      </trkpt>
      <trkpt lat="49.21975" lon="2.3426">
        <ele>166.546548</ele>
        <time>2025-06-19T08:17:27.507Z</time>
      </trkpt>
      <trkpt lat="49.21975" lon="2.34283">
        <ele>165.960875</ele>
        <time>2025-06-19T08:17:29.501Z</time>
      </trkpt>
      <trkpt lat="49.21976" lon="2.34306">
        <ele>165.372154</ele>
        <time>2025-06-19T08:17:31.505Z</time>
      </trkpt>
      <trkpt lat="49.21978" lon="2.34329">
        <ele>164.768308</ele>
        <time>2025-06-19T08:17:33.521Z</time>
      </trkpt>
      <trkpt lat="49.2198" lon="2.34352">
        <ele>164.176715</ele>
        <time>2025-06-19T08:17:35.523Z</time>
      </trkpt>
      <trkpt lat="49.21982" lon="2.34376">
        <ele>163.58143</ele>
        <time>2025-06-19T08:17:37.504Z</time>
      </trkpt>
      <trkpt lat="49.21985" lon="2.34399">
        <ele>163.234528</ele>
        <time>2025-06-19T08:17:39.507Z</time>
      </trkpt>
      <trkpt lat="49.21987" lon="2.34421">
        <ele>162.917475</ele>
        <time>2025-06-19T08:17:41.517Z</time>
      </trkpt>
      <trkpt lat="49.21991" lon="2.34442">
        <ele>162.607473</ele>
        <time>2025-06-19T08:17:43.514Z</time>
      </trkpt>
      <trkpt lat="49.21995" lon="2.34463">
        <ele>162.302564</ele>
        <time>2025-06-19T08:17:45.518Z</time>
      </trkpt>
      <trkpt lat="49.21999" lon="2.34483">
        <ele>162.005216</ele>
        <time>2025-06-19T08:17:47.510Z</time>
      </trkpt>
      <trkpt lat="49.22003" lon="2.34502">
        <ele>161.715145</ele>
        <time>2025-06-19T08:17:49.521Z</time>
      </trkpt>
      <trkpt lat="49.22008" lon="2.34522">
        <ele>161.426402</ele>
        <time>2025-06-19T08:17:51.510Z</time>
      </trkpt>
      <trkpt lat="49.22012" lon="2.34541">
        <ele>161.142994</ele>
        <time>2025-06-19T08:17:53.511Z</time>
      </trkpt>
      <trkpt lat="49.22015" lon="2.3456">
        <ele>160.863464</ele>
        <time>2025-06-19T08:17:55.511Z</time>
      </trkpt>
      <trkpt lat="49.22017" lon="2.3458">
        <ele>160.583253</ele>
        <time>2025-06-19T08:17:57.509Z</time>
      </trkpt>
      <trkpt lat="49.22019" lon="2.34599">
        <ele>160.302279</ele>
        <time>2025-06-19T08:17:59.510Z</time>
      </trkpt>
      <trkpt lat="49.22022" lon="2.3462">
        <ele>160.009003</ele>
        <time>2025-06-19T08:18:01.511Z</time>
      </trkpt>
      <trkpt lat="49.22025" lon="2.34641">
        <ele>159.709331</ele>
        <time>2025-06-19T08:18:03.513Z</time>
      </trkpt>
      <trkpt lat="49.22029" lon="2.34661">
        <ele>159.313394</ele>
        <time>2025-06-19T08:18:05.507Z</time>
      </trkpt>
      <trkpt lat="49.22033" lon="2.34681">
        <ele>158.910831</ele>
        <time>2025-06-19T08:18:07.517Z</time>
      </trkpt>
      <trkpt lat="49.22038" lon="2.347">
        <ele>158.515094</ele>
        <time>2025-06-19T08:18:09.512Z</time>
      </trkpt>
      <trkpt lat="49.22042" lon="2.34719">
        <ele>158.130163</ele>
        <time>2025-06-19T08:18:11.511Z</time>
      </trkpt>
      <trkpt lat="49.22048" lon="2.34736">
        <ele>157.754148</ele>
        <time>2025-06-19T08:18:13.510Z</time>
      </trkpt>
      <trkpt lat="49.22053" lon="2.34753">
        <ele>157.392487</ele>
        <time>2025-06-19T08:18:15.504Z</time>
      </trkpt>
      <trkpt lat="49.22058" lon="2.34769">
        <ele>157.044261</ele>
        <time>2025-06-19T08:18:17.512Z</time>
      </trkpt>
      <trkpt lat="49.22064" lon="2.34785">
        <ele>156.704563</ele>
        <time>2025-06-19T08:18:19.505Z</time>
      </trkpt>
      <trkpt lat="49.22069" lon="2.34799">
        <ele>156.375651</ele>
        <time>2025-06-19T08:18:21.507Z</time>
      </trkpt>
      <trkpt lat="49.22076" lon="2.34814">
        <ele>156.033981</ele>
        <time>2025-06-19T08:18:23.502Z</time>
      </trkpt>
      <trkpt lat="49.22083" lon="2.34828">
        <ele>155.688419</ele>
        <time>2025-06-19T08:18:25.508Z</time>
      </trkpt>
      <trkpt lat="49.2209" lon="2.34842">
        <ele>155.343851</ele>
        <time>2025-06-19T08:18:27.509Z</time>
      </trkpt>
      <trkpt lat="49.22097" lon="2.34856">
        <ele>155.019318</ele>
        <time>2025-06-19T08:18:29.516Z</time>
      </trkpt>
      <trkpt lat="49.22103" lon="2.34869">
        <ele>154.6991</ele>
        <time>2025-06-19T08:18:31.522Z</time>
      </trkpt>
      <trkpt lat="49.22111" lon="2.34882">
        <ele>154.362723</ele>
        <time>2025-06-19T08:18:33.513Z</time>
      </trkpt>
      <trkpt lat="49.22118" lon="2.34895">
        <ele>153.520142</ele>
        <time>2025-06-19T08:18:35.507Z</time>
      </trkpt>
      <trkpt lat="49.22126" lon="2.3491">
        <ele>152.570037</ele>
        <time>2025-06-19T08:18:37.509Z</time>
      </trkpt>
      <trkpt lat="49.22133" lon="2.34927">
        <ele>151.549416</ele>
        <time>2025-06-19T08:18:39.516Z</time>
      </trkpt>
      <trkpt lat="49.22141" lon="2.34946">
        <ele>150.432202</ele>
        <time>2025-06-19T08:18:41.517Z</time>
      </trkpt>
      <trkpt lat="49.2215" lon="2.34965">
        <ele>149.264305</ele>
        <time>2025-06-19T08:18:43.507Z</time>
      </trkpt>
      <trkpt lat="49.22159" lon="2.34982">
        <ele>148.150875</ele>
        <time>2025-06-19T08:18:45.521Z</time>
      </trkpt>
      <trkpt lat="49.22168" lon="2.35">
        <ele>147.038246</ele>
        <time>2025-06-19T08:18:47.510Z</time>
      </trkpt>
      <trkpt lat="49.22175" lon="2.35017">
        <ele>146.021738</ele>
        <time>2025-06-19T08:18:49.507Z</time>
      </trkpt>
      <trkpt lat="49.22181" lon="2.35035">
        <ele>144.992316</ele>
        <time>2025-06-19T08:18:51.520Z</time>
      </trkpt>
      <trkpt lat="49.22186" lon="2.35057">
        <ele>143.850215</ele>
        <time>2025-06-19T08:18:53.517Z</time>
      </trkpt>
      <trkpt lat="49.2219" lon="2.3508">
        <ele>142.659739</ele>
        <time>2025-06-19T08:18:55.512Z</time>
      </trkpt>
      <trkpt lat="49.22195" lon="2.35104">
        <ele>141.384086</ele>
        <time>2025-06-19T08:18:57.518Z</time>
      </trkpt>
      <trkpt lat="49.22202" lon="2.35128">
        <ele>140.000044</ele>
        <time>2025-06-19T08:18:59.516Z</time>
      </trkpt>
      <trkpt lat="49.22209" lon="2.3515">
        <ele>138.644409</ele>
        <time>2025-06-19T08:19:01.507Z</time>
      </trkpt>
      <trkpt lat="49.22216" lon="2.35171">
        <ele>137.316513</ele>
        <time>2025-06-19T08:19:03.512Z</time>
      </trkpt>
      <trkpt lat="49.22223" lon="2.35192">
        <ele>135.967993</ele>
        <time>2025-06-19T08:19:05.516Z</time>
      </trkpt>
      <trkpt lat="49.2223" lon="2.35214">
        <ele>134.60074</ele>
        <time>2025-06-19T08:19:07.518Z</time>
      </trkpt>
      <trkpt lat="49.22235" lon="2.35235">
        <ele>133.341353</ele>
        <time>2025-06-19T08:19:09.510Z</time>
      </trkpt>
      <trkpt lat="49.22241" lon="2.35255">
        <ele>132.136881</ele>
        <time>2025-06-19T08:19:11.514Z</time>
      </trkpt>
      <trkpt lat="49.22246" lon="2.35273">
        <ele>131.035148</ele>
        <time>2025-06-19T08:19:13.516Z</time>
      </trkpt>
      <trkpt lat="49.22251" lon="2.35291">
        <ele>129.924691</ele>
        <time>2025-06-19T08:19:15.505Z</time>
      </trkpt>
      <trkpt lat="49.22257" lon="2.3531">
        <ele>128.739067</ele>
        <time>2025-06-19T08:19:17.514Z</time>
      </trkpt>
      <trkpt lat="49.22262" lon="2.35329">
        <ele>127.58083</ele>
        <time>2025-06-19T08:19:19.507Z</time>
      </trkpt>
      <trkpt lat="49.22268" lon="2.35347">
        <ele>126.499423</ele>
        <time>2025-06-19T08:19:21.511Z</time>
      </trkpt>
      <trkpt lat="49.22273" lon="2.35363">
        <ele>125.489771</ele>
        <time>2025-06-19T08:19:23.511Z</time>
      </trkpt>
      <trkpt lat="49.22277" lon="2.35377">
        <ele>124.849756</ele>
        <time>2025-06-19T08:19:25.511Z</time>
      </trkpt>
      <trkpt lat="49.22281" lon="2.35391">
        <ele>124.432023</ele>
        <time>2025-06-19T08:19:27.514Z</time>
      </trkpt>
      <trkpt lat="49.22285" lon="2.35403">
        <ele>124.043577</ele>
        <time>2025-06-19T08:19:29.510Z</time>
      </trkpt>
      <trkpt lat="49.22292" lon="2.35418">
        <ele>123.564039</ele>
        <time>2025-06-19T08:19:32.521Z</time>
      </trkpt>
      <trkpt lat="49.22298" lon="2.35431">
        <ele>123.123394</ele>
        <time>2025-06-19T08:19:36.520Z</time>
      </trkpt>
      <trkpt lat="49.22303" lon="2.35445">
        <ele>122.665707</ele>
        <time>2025-06-19T08:19:43.513Z</time>
      </trkpt>
      <trkpt lat="49.22298" lon="2.35458">
        <ele>122.246123</ele>
        <time>2025-06-19T08:19:46.513Z</time>
      </trkpt>
      <trkpt lat="49.22287" lon="2.35464">
        <ele>121.761274</ele>
        <time>2025-06-19T08:19:48.520Z</time>
      </trkpt>
      <trkpt lat="49.22278" lon="2.35475">
        <ele>121.263354</ele>
        <time>2025-06-19T08:19:50.504Z</time>
      </trkpt>
      <trkpt lat="49.22269" lon="2.35489">
        <ele>120.721607</ele>
        <time>2025-06-19T08:19:52.512Z</time>
      </trkpt>
      <trkpt lat="49.2226" lon="2.35505">
        <ele>120.161499</ele>
        <time>2025-06-19T08:19:54.514Z</time>
      </trkpt>
      <trkpt lat="49.22252" lon="2.35522">
        <ele>119.575007</ele>
        <time>2025-06-19T08:19:56.520Z</time>
      </trkpt>
      <trkpt lat="49.22245" lon="2.35542">
        <ele>118.948324</ele>
        <time>2025-06-19T08:19:58.511Z</time>
      </trkpt>
      <trkpt lat="49.22238" lon="2.35561">
        <ele>118.342662</ele>
        <time>2025-06-19T08:20:00.507Z</time>
      </trkpt>
      <trkpt lat="49.2223" lon="2.3558">
        <ele>117.719513</ele>
        <time>2025-06-19T08:20:02.505Z</time>
      </trkpt>
      <trkpt lat="49.22222" lon="2.35599">
        <ele>117.265816</ele>
        <time>2025-06-19T08:20:04.513Z</time>
      </trkpt>
      <trkpt lat="49.22212" lon="2.35619">
        <ele>116.92008</ele>
        <time>2025-06-19T08:20:06.514Z</time>
      </trkpt>
      <trkpt lat="49.22201" lon="2.35636">
        <ele>116.575482</ele>
        <time>2025-06-19T08:20:08.513Z</time>
      </trkpt>
      <trkpt lat="49.22189" lon="2.35654">
        <ele>116.221154</ele>
        <time>2025-06-19T08:20:10.513Z</time>
      </trkpt>
      <trkpt lat="49.22179" lon="2.35669">
        <ele>115.908474</ele>
        <time>2025-06-19T08:20:12.510Z</time>
      </trkpt>
      <trkpt lat="49.2217" lon="2.35685">
        <ele>115.61575</ele>
        <time>2025-06-19T08:20:14.508Z</time>
      </trkpt>
      <trkpt lat="49.22163" lon="2.35702">
        <ele>115.327475</ele>
        <time>2025-06-19T08:20:16.508Z</time>
      </trkpt>
      <trkpt lat="49.22158" lon="2.35721">
        <ele>115.035661</ele>
        <time>2025-06-19T08:20:18.511Z</time>
      </trkpt>
      <trkpt lat="49.22153" lon="2.3574">
        <ele>114.740743</ele>
        <time>2025-06-19T08:20:20.515Z</time>
      </trkpt>
      <trkpt lat="49.22147" lon="2.3576">
        <ele>114.441588</ele>
        <time>2025-06-19T08:20:22.514Z</time>
      </trkpt>
      <trkpt lat="49.22139" lon="2.35774">
        <ele>114.167696</ele>
        <time>2025-06-19T08:20:24.509Z</time>
      </trkpt>
      <trkpt lat="49.22128" lon="2.35784">
        <ele>113.886927</ele>
        <time>2025-06-19T08:20:26.512Z</time>
      </trkpt>
      <trkpt lat="49.22116" lon="2.35791">
        <ele>113.619045</ele>
        <time>2025-06-19T08:20:28.509Z</time>
      </trkpt>
      <trkpt lat="49.22105" lon="2.35798">
        <ele>113.733293</ele>
        <time>2025-06-19T08:20:30.504Z</time>
      </trkpt>
      <trkpt lat="49.22094" lon="2.35806">
        <ele>113.945721</ele>
        <time>2025-06-19T08:20:32.513Z</time>
      </trkpt>
      <trkpt lat="49.22083" lon="2.35815">
        <ele>114.154934</ele>
        <time>2025-06-19T08:20:34.518Z</time>
      </trkpt>
      <trkpt lat="49.22072" lon="2.35824">
        <ele>114.376786</ele>
        <time>2025-06-19T08:20:36.513Z</time>
      </trkpt>
      <trkpt lat="49.22061" lon="2.35835">
        <ele>114.59711</ele>
        <time>2025-06-19T08:20:38.514Z</time>
      </trkpt>
      <trkpt lat="49.2205" lon="2.35846">
        <ele>114.828661</ele>
        <time>2025-06-19T08:20:40.511Z</time>
      </trkpt>
      <trkpt lat="49.22039" lon="2.35858">
        <ele>115.059414</ele>
        <time>2025-06-19T08:20:42.507Z</time>
      </trkpt>
      <trkpt lat="49.2203" lon="2.35872">
        <ele>115.291672</ele>
        <time>2025-06-19T08:20:44.511Z</time>
      </trkpt>
      <trkpt lat="49.22023" lon="2.35889">
        <ele>115.516696</ele>
        <time>2025-06-19T08:20:46.507Z</time>
      </trkpt>
      <trkpt lat="49.22016" lon="2.35905">
        <ele>115.730234</ele>
        <time>2025-06-19T08:20:48.517Z</time>
      </trkpt>
      <trkpt lat="49.22011" lon="2.3592">
        <ele>115.933908</ele>
        <time>2025-06-19T08:20:50.500Z</time>
      </trkpt>
      <trkpt lat="49.22005" lon="2.35936">
        <ele>116.141261</ele>
        <time>2025-06-19T08:20:52.513Z</time>
      </trkpt>
      <trkpt lat="49.22" lon="2.35952">
        <ele>116.347556</ele>
        <time>2025-06-19T08:20:54.502Z</time>
      </trkpt>
      <trkpt lat="49.21994" lon="2.35968">
        <ele>116.546756</ele>
        <time>2025-06-19T08:20:56.500Z</time>
      </trkpt>
      <trkpt lat="49.21989" lon="2.35983">
        <ele>116.593174</ele>
        <time>2025-06-19T08:20:58.511Z</time>
      </trkpt>
      <trkpt lat="49.21982" lon="2.35999">
        <ele>116.073258</ele>
        <time>2025-06-19T08:21:00.522Z</time>
      </trkpt>
      <trkpt lat="49.21973" lon="2.36013">
        <ele>115.564623</ele>
        <time>2025-06-19T08:21:02.505Z</time>
      </trkpt>
      <trkpt lat="49.21965" lon="2.36026">
        <ele>115.068554</ele>
        <time>2025-06-19T08:21:04.516Z</time>
      </trkpt>
      <trkpt lat="49.21956" lon="2.36037">
        <ele>114.60079</ele>
        <time>2025-06-19T08:21:06.512Z</time>
      </trkpt>
      <trkpt lat="49.21948" lon="2.3605">
        <ele>114.115787</ele>
        <time>2025-06-19T08:21:08.511Z</time>
      </trkpt>
      <trkpt lat="49.21938" lon="2.36063">
        <ele>113.594355</ele>
        <time>2025-06-19T08:21:10.512Z</time>
      </trkpt>
      <trkpt lat="49.21928" lon="2.36076">
        <ele>113.058863</ele>
        <time>2025-06-19T08:21:12.511Z</time>
      </trkpt>
      <trkpt lat="49.21919" lon="2.36089">
        <ele>112.53614</ele>
        <time>2025-06-19T08:21:14.513Z</time>
      </trkpt>
      <trkpt lat="49.21909" lon="2.361">
        <ele>112.0451</ele>
        <time>2025-06-19T08:21:16.515Z</time>
      </trkpt>
      <trkpt lat="49.21898" lon="2.36111">
        <ele>111.50107</ele>
        <time>2025-06-19T08:21:18.508Z</time>
      </trkpt>
      <trkpt lat="49.21887" lon="2.36123">
        <ele>110.942136</ele>
        <time>2025-06-19T08:21:20.510Z</time>
      </trkpt>
      <trkpt lat="49.21875" lon="2.36136">
        <ele>110.339891</ele>
        <time>2025-06-19T08:21:22.516Z</time>
      </trkpt>
      <trkpt lat="49.21863" lon="2.36149">
        <ele>109.749299</ele>
        <time>2025-06-19T08:21:24.516Z</time>
      </trkpt>
      <trkpt lat="49.2185" lon="2.36161">
        <ele>109.27324</ele>
        <time>2025-06-19T08:21:26.508Z</time>
      </trkpt>
      <trkpt lat="49.21839" lon="2.36176">
        <ele>109.079683</ele>
        <time>2025-06-19T08:21:28.507Z</time>
      </trkpt>
      <trkpt lat="49.21828" lon="2.36189">
        <ele>108.893007</ele>
        <time>2025-06-19T08:21:30.507Z</time>
      </trkpt>
      <trkpt lat="49.21817" lon="2.36202">
        <ele>108.712099</ele>
        <time>2025-06-19T08:21:32.513Z</time>
      </trkpt>
      <trkpt lat="49.21806" lon="2.36215">
        <ele>108.533778</ele>
        <time>2025-06-19T08:21:34.508Z</time>
      </trkpt>
      <trkpt lat="49.21796" lon="2.36227">
        <ele>108.364901</ele>
        <time>2025-06-19T08:21:36.517Z</time>
      </trkpt>
      <trkpt lat="49.21787" lon="2.36239">
        <ele>108.205226</ele>
        <time>2025-06-19T08:21:38.520Z</time>
      </trkpt>
      <trkpt lat="49.21779" lon="2.3625">
        <ele>108.061262</ele>
        <time>2025-06-19T08:21:40.514Z</time>
      </trkpt>
      <trkpt lat="49.2177" lon="2.36262">
        <ele>107.910203</ele>
        <time>2025-06-19T08:21:43.508Z</time>
      </trkpt>
      <trkpt lat="49.21764" lon="2.36272">
        <ele>107.785202</ele>
        <time>2025-06-19T08:21:46.510Z</time>
      </trkpt>
      <trkpt lat="49.21756" lon="2.36284">
        <ele>107.643584</ele>
        <time>2025-06-19T08:21:50.506Z</time>
      </trkpt>
      <trkpt lat="49.2175" lon="2.36295">
        <ele>107.514693</ele>
        <time>2025-06-19T08:21:53.516Z</time>
      </trkpt>
      <trkpt lat="49.21743" lon="2.36308">
        <ele>107.370477</ele>
        <time>2025-06-19T08:21:56.512Z</time>
      </trkpt>
      <trkpt lat="49.21733" lon="2.36324">
        <ele>107.18644</ele>
        <time>2025-06-19T08:21:59.511Z</time>
      </trkpt>
      <trkpt lat="49.21726" lon="2.36335">
        <ele>107.052518</ele>
        <time>2025-06-19T08:22:01.510Z</time>
      </trkpt>
      <trkpt lat="49.21719" lon="2.36348">
        <ele>106.943745</ele>
        <time>2025-06-19T08:22:03.525Z</time>
      </trkpt>
      <trkpt lat="49.21711" lon="2.3636">
        <ele>106.88652</ele>
        <time>2025-06-19T08:22:05.520Z</time>
      </trkpt>
      <trkpt lat="49.21703" lon="2.36371">
        <ele>106.831915</ele>
        <time>2025-06-19T08:22:07.516Z</time>
      </trkpt>
      <trkpt lat="49.21695" lon="2.36382">
        <ele>106.777309</ele>
        <time>2025-06-19T08:22:09.510Z</time>
      </trkpt>
      <trkpt lat="49.21687" lon="2.36394">
        <ele>106.723438</ele>
        <time>2025-06-19T08:22:11.507Z</time>
      </trkpt>
      <trkpt lat="49.21679" lon="2.36405">
        <ele>106.666025</ele>
        <time>2025-06-19T08:22:13.518Z</time>
      </trkpt>
      <trkpt lat="49.21671" lon="2.36418">
        <ele>106.606001</ele>
        <time>2025-06-19T08:22:15.510Z</time>
      </trkpt>
      <trkpt lat="49.21662" lon="2.36431">
        <ele>106.544182</ele>
        <time>2025-06-19T08:22:17.509Z</time>
      </trkpt>
      <trkpt lat="49.21653" lon="2.36443">
        <ele>106.482614</ele>
        <time>2025-06-19T08:22:19.511Z</time>
      </trkpt>
      <trkpt lat="49.21643" lon="2.36457">
        <ele>106.415507</ele>
        <time>2025-06-19T08:22:21.504Z</time>
      </trkpt>
      <trkpt lat="49.21633" lon="2.36471">
        <ele>106.347032</ele>
        <time>2025-06-19T08:22:23.507Z</time>
      </trkpt>
      <trkpt lat="49.21623" lon="2.36486">
        <ele>106.274681</ele>
        <time>2025-06-19T08:22:25.509Z</time>
      </trkpt>
      <trkpt lat="49.21613" lon="2.365">
        <ele>106.205844</ele>
        <time>2025-06-19T08:22:27.524Z</time>
      </trkpt>
      <trkpt lat="49.21602" lon="2.36512">
        <ele>106.138404</ele>
        <time>2025-06-19T08:22:29.509Z</time>
      </trkpt>
      <trkpt lat="49.21592" lon="2.36525">
        <ele>106.069559</ele>
        <time>2025-06-19T08:22:31.512Z</time>
      </trkpt>
      <trkpt lat="49.21581" lon="2.36537">
        <ele>105.877323</ele>
        <time>2025-06-19T08:22:33.509Z</time>
      </trkpt>
      <trkpt lat="49.21569" lon="2.36549">
        <ele>105.641758</ele>
        <time>2025-06-19T08:22:35.510Z</time>
      </trkpt>
      <trkpt lat="49.21557" lon="2.3656">
        <ele>105.414137</ele>
        <time>2025-06-19T08:22:37.506Z</time>
      </trkpt>
      <trkpt lat="49.21544" lon="2.36572">
        <ele>105.16568</ele>
        <time>2025-06-19T08:22:39.518Z</time>
      </trkpt>
      <trkpt lat="49.2153" lon="2.36583">
        <ele>104.909345</ele>
        <time>2025-06-19T08:22:41.508Z</time>
      </trkpt>
      <trkpt lat="49.21516" lon="2.36594">
        <ele>104.654465</ele>
        <time>2025-06-19T08:22:43.518Z</time>
      </trkpt>
      <trkpt lat="49.21504" lon="2.36604">
        <ele>104.41707</ele>
        <time>2025-06-19T08:22:45.517Z</time>
      </trkpt>
      <trkpt lat="49.21491" lon="2.36614">
        <ele>104.187613</ele>
        <time>2025-06-19T08:22:47.506Z</time>
      </trkpt>
      <trkpt lat="49.21479" lon="2.36624">
        <ele>103.962577</ele>
        <time>2025-06-19T08:22:49.514Z</time>
      </trkpt>
      <trkpt lat="49.21467" lon="2.36633">
        <ele>103.737392</ele>
        <time>2025-06-19T08:22:51.513Z</time>
      </trkpt>
      <trkpt lat="49.21455" lon="2.36642">
        <ele>103.521149</ele>
        <time>2025-06-19T08:22:53.510Z</time>
      </trkpt>
      <trkpt lat="49.21444" lon="2.36651">
        <ele>103.310311</ele>
        <time>2025-06-19T08:22:55.510Z</time>
      </trkpt>
      <trkpt lat="49.21433" lon="2.3666">
        <ele>103.101832</ele>
        <time>2025-06-19T08:22:57.501Z</time>
      </trkpt>
      <trkpt lat="49.21422" lon="2.36669">
        <ele>102.979811</ele>
        <time>2025-06-19T08:22:59.513Z</time>
      </trkpt>
      <trkpt lat="49.21411" lon="2.36678">
        <ele>102.867738</ele>
        <time>2025-06-19T08:23:01.506Z</time>
      </trkpt>
      <trkpt lat="49.214" lon="2.36688">
        <ele>102.752236</ele>
        <time>2025-06-19T08:23:03.500Z</time>
      </trkpt>
      <trkpt lat="49.21391" lon="2.36698">
        <ele>102.643118</ele>
        <time>2025-06-19T08:23:05.505Z</time>
      </trkpt>
      <trkpt lat="49.21381" lon="2.36708">
        <ele>102.531458</ele>
        <time>2025-06-19T08:23:07.512Z</time>
      </trkpt>
      <trkpt lat="49.2137" lon="2.36718">
        <ele>102.415565</ele>
        <time>2025-06-19T08:23:09.516Z</time>
      </trkpt>
      <trkpt lat="49.2136" lon="2.3673">
        <ele>102.2946</ele>
        <time>2025-06-19T08:23:11.510Z</time>
      </trkpt>
      <trkpt lat="49.21349" lon="2.36742">
        <ele>102.171484</ele>
        <time>2025-06-19T08:23:13.511Z</time>
      </trkpt>
      <trkpt lat="49.21339" lon="2.36756">
        <ele>102.045177</ele>
        <time>2025-06-19T08:23:15.507Z</time>
      </trkpt>
      <trkpt lat="49.21329" lon="2.36769">
        <ele>101.917197</ele>
        <time>2025-06-19T08:23:17.509Z</time>
      </trkpt>
      <trkpt lat="49.21318" lon="2.36783">
        <ele>101.791764</ele>
        <time>2025-06-19T08:23:19.510Z</time>
      </trkpt>
      <trkpt lat="49.21308" lon="2.36796">
        <ele>101.661179</ele>
        <time>2025-06-19T08:23:21.513Z</time>
      </trkpt>
      <trkpt lat="49.21297" lon="2.36809">
        <ele>101.533638</ele>
        <time>2025-06-19T08:23:23.523Z</time>
      </trkpt>
      <trkpt lat="49.21286" lon="2.36822">
        <ele>101.404968</ele>
        <time>2025-06-19T08:23:25.511Z</time>
      </trkpt>
      <trkpt lat="49.21276" lon="2.36836">
        <ele>101.282171</ele>
        <time>2025-06-19T08:23:27.512Z</time>
      </trkpt>
      <trkpt lat="49.21265" lon="2.36849">
        <ele>101.157976</ele>
        <time>2025-06-19T08:23:29.515Z</time>
      </trkpt>
      <trkpt lat="49.21255" lon="2.36863">
        <ele>101.035283</ele>
        <time>2025-06-19T08:23:31.511Z</time>
      </trkpt>
      <trkpt lat="49.21245" lon="2.36876">
        <ele>100.911405</ele>
        <time>2025-06-19T08:23:33.507Z</time>
      </trkpt>
      <trkpt lat="49.21234" lon="2.36889">
        <ele>100.788021</ele>
        <time>2025-06-19T08:23:35.514Z</time>
      </trkpt>
      <trkpt lat="49.21224" lon="2.36903">
        <ele>100.663283</ele>
        <time>2025-06-19T08:23:37.510Z</time>
      </trkpt>
      <trkpt lat="49.21214" lon="2.36915">
        <ele>100.546007</ele>
        <time>2025-06-19T08:23:39.524Z</time>
      </trkpt>
      <trkpt lat="49.21204" lon="2.36929">
        <ele>100.422215</ele>
        <time>2025-06-19T08:23:41.514Z</time>
      </trkpt>
      <trkpt lat="49.21195" lon="2.36944">
        <ele>100.299535</ele>
        <time>2025-06-19T08:23:43.505Z</time>
      </trkpt>
      <trkpt lat="49.21185" lon="2.36959">
        <ele>100.175556</ele>
        <time>2025-06-19T08:23:45.506Z</time>
      </trkpt>
      <trkpt lat="49.21176" lon="2.36975">
        <ele>100.047101</ele>
        <time>2025-06-19T08:23:47.513Z</time>
      </trkpt>
      <trkpt lat="49.21168" lon="2.36991">
        <ele>99.928826</ele>
        <time>2025-06-19T08:23:49.511Z</time>
      </trkpt>
      <trkpt lat="49.2116" lon="2.37006">
        <ele>99.816036</ele>
        <time>2025-06-19T08:23:51.514Z</time>
      </trkpt>
      <trkpt lat="49.21153" lon="2.37021">
        <ele>99.726361</ele>
        <time>2025-06-19T08:23:53.509Z</time>
      </trkpt>
      <trkpt lat="49.21146" lon="2.37037">
        <ele>99.649258</ele>
        <time>2025-06-19T08:23:55.510Z</time>
      </trkpt>
      <trkpt lat="49.21138" lon="2.37054">
        <ele>99.57048</ele>
        <time>2025-06-19T08:23:57.509Z</time>
      </trkpt>
      <trkpt lat="49.2113" lon="2.37069">
        <ele>99.490347</ele>
        <time>2025-06-19T08:23:59.505Z</time>
      </trkpt>
      <trkpt lat="49.21122" lon="2.37086">
        <ele>99.406464</ele>
        <time>2025-06-19T08:24:01.508Z</time>
      </trkpt>
      <trkpt lat="49.21114" lon="2.37101">
        <ele>99.333167</ele>
        <time>2025-06-19T08:24:03.521Z</time>
      </trkpt>
      <trkpt lat="49.21108" lon="2.37114">
        <ele>99.270256</ele>
        <time>2025-06-19T08:24:05.514Z</time>
      </trkpt>
      <trkpt lat="49.21099" lon="2.37122">
        <ele>99.20709</ele>
        <time>2025-06-19T08:24:07.508Z</time>
      </trkpt>
      <trkpt lat="49.21087" lon="2.37122">
        <ele>99.138117</ele>
        <time>2025-06-19T08:24:09.515Z</time>
      </trkpt>
      <trkpt lat="49.21075" lon="2.37121">
        <ele>99.063573</ele>
        <time>2025-06-19T08:24:11.511Z</time>
      </trkpt>
      <trkpt lat="49.21064" lon="2.37118">
        <ele>98.992805</ele>
        <time>2025-06-19T08:24:13.516Z</time>
      </trkpt>
      <trkpt lat="49.21052" lon="2.37116">
        <ele>98.923287</ele>
        <time>2025-06-19T08:24:15.527Z</time>
      </trkpt>
      <trkpt lat="49.21041" lon="2.37114">
        <ele>98.852519</ele>
        <time>2025-06-19T08:24:17.516Z</time>
      </trkpt>
      <trkpt lat="49.21029" lon="2.3711">
        <ele>98.780316</ele>
        <time>2025-06-19T08:24:19.507Z</time>
      </trkpt>
      <trkpt lat="49.21018" lon="2.37106">
        <ele>98.709869</ele>
        <time>2025-06-19T08:24:21.514Z</time>
      </trkpt>
      <trkpt lat="49.21006" lon="2.37102">
        <ele>98.793573</ele>
        <time>2025-06-19T08:24:23.507Z</time>
      </trkpt>
      <trkpt lat="49.20994" lon="2.37097">
        <ele>98.963281</ele>
        <time>2025-06-19T08:24:25.517Z</time>
      </trkpt>
      <trkpt lat="49.20983" lon="2.37094">
        <ele>99.127416</ele>
        <time>2025-06-19T08:24:27.508Z</time>
      </trkpt>
      <trkpt lat="49.20972" lon="2.3709">
        <ele>99.287043</ele>
        <time>2025-06-19T08:24:29.513Z</time>
      </trkpt>
      <trkpt lat="49.20962" lon="2.37085">
        <ele>99.442292</ele>
        <time>2025-06-19T08:24:31.507Z</time>
      </trkpt>
      <trkpt lat="49.20952" lon="2.37078">
        <ele>99.601938</ele>
        <time>2025-06-19T08:24:33.514Z</time>
      </trkpt>
      <trkpt lat="49.20941" lon="2.37072">
        <ele>99.762548</ele>
        <time>2025-06-19T08:24:35.519Z</time>
      </trkpt>
      <trkpt lat="49.20931" lon="2.37064">
        <ele>99.927722</ele>
        <time>2025-06-19T08:24:37.520Z</time>
      </trkpt>
      <trkpt lat="49.20921" lon="2.37057">
        <ele>100.083638</ele>
        <time>2025-06-19T08:24:39.511Z</time>
      </trkpt>
      <trkpt lat="49.20912" lon="2.3705">
        <ele>100.233979</ele>
        <time>2025-06-19T08:24:41.505Z</time>
      </trkpt>
      <trkpt lat="49.20903" lon="2.37043">
        <ele>100.367705</ele>
        <time>2025-06-19T08:24:43.500Z</time>
      </trkpt>
      <trkpt lat="49.20892" lon="2.37037">
        <ele>100.540367</ele>
        <time>2025-06-19T08:24:46.509Z</time>
      </trkpt>
      <trkpt lat="49.20882" lon="2.37049">
        <ele>100.716932</ele>
        <time>2025-06-19T08:24:49.516Z</time>
      </trkpt>
      <trkpt lat="49.20878" lon="2.37065">
        <ele>100.87557</ele>
        <time>2025-06-19T08:24:51.511Z</time>
      </trkpt>
      <trkpt lat="49.20873" lon="2.3708">
        <ele>101.04082</ele>
        <time>2025-06-19T08:24:53.507Z</time>
      </trkpt>
      <trkpt lat="49.20868" lon="2.37096">
        <ele>101.203404</ele>
        <time>2025-06-19T08:24:55.513Z</time>
      </trkpt>
      <trkpt lat="49.20861" lon="2.3711">
        <ele>101.329167</ele>
        <time>2025-06-19T08:24:57.517Z</time>
      </trkpt>
      <trkpt lat="49.20853" lon="2.37126">
        <ele>101.442323</ele>
        <time>2025-06-19T08:24:59.515Z</time>
      </trkpt>
      <trkpt lat="49.20846" lon="2.3714">
        <ele>101.548253</ele>
        <time>2025-06-19T08:25:01.532Z</time>
      </trkpt>
      <trkpt lat="49.20839" lon="2.37154">
        <ele>101.650094</ele>
        <time>2025-06-19T08:25:03.514Z</time>
      </trkpt>
      <trkpt lat="49.20832" lon="2.37166">
        <ele>101.748448</ele>
        <time>2025-06-19T08:25:05.515Z</time>
      </trkpt>
      <trkpt lat="49.20825" lon="2.37179">
        <ele>101.849467</ele>
        <time>2025-06-19T08:25:07.517Z</time>
      </trkpt>
      <trkpt lat="49.20819" lon="2.37194">
        <ele>101.950563</ele>
        <time>2025-06-19T08:25:09.511Z</time>
      </trkpt>
      <trkpt lat="49.20814" lon="2.3721">
        <ele>102.05424</ele>
        <time>2025-06-19T08:25:11.507Z</time>
      </trkpt>
      <trkpt lat="49.20809" lon="2.37225">
        <ele>102.157794</ele>
        <time>2025-06-19T08:25:13.509Z</time>
      </trkpt>
      <trkpt lat="49.20803" lon="2.3724">
        <ele>102.262563</ele>
        <time>2025-06-19T08:25:15.519Z</time>
      </trkpt>
      <trkpt lat="49.20798" lon="2.37256">
        <ele>102.364547</ele>
        <time>2025-06-19T08:25:17.507Z</time>
      </trkpt>
      <trkpt lat="49.20792" lon="2.37271">
        <ele>102.469201</ele>
        <time>2025-06-19T08:25:19.509Z</time>
      </trkpt>
      <trkpt lat="49.20786" lon="2.37285">
        <ele>102.569302</ele>
        <time>2025-06-19T08:25:21.515Z</time>
      </trkpt>
      <trkpt lat="49.20779" lon="2.37299">
        <ele>102.676167</ele>
        <time>2025-06-19T08:25:23.503Z</time>
      </trkpt>
      <trkpt lat="49.20771" lon="2.37313">
        <ele>102.786419</ele>
        <time>2025-06-19T08:25:25.519Z</time>
      </trkpt>
      <trkpt lat="49.20762" lon="2.37327">
        <ele>102.839955</ele>
        <time>2025-06-19T08:25:27.513Z</time>
      </trkpt>
      <trkpt lat="49.20755" lon="2.37341">
        <ele>102.411127</ele>
        <time>2025-06-19T08:25:29.509Z</time>
      </trkpt>
      <trkpt lat="49.20747" lon="2.37355">
        <ele>101.972264</ele>
        <time>2025-06-19T08:25:31.516Z</time>
      </trkpt>
      <trkpt lat="49.20739" lon="2.37367">
        <ele>101.55662</ele>
        <time>2025-06-19T08:25:33.515Z</time>
      </trkpt>
      <trkpt lat="49.20731" lon="2.3738">
        <ele>101.132665</ele>
        <time>2025-06-19T08:25:35.507Z</time>
      </trkpt>
      <trkpt lat="49.20722" lon="2.37393">
        <ele>100.696842</ele>
        <time>2025-06-19T08:25:37.513Z</time>
      </trkpt>
      <trkpt lat="49.20714" lon="2.37405">
        <ele>100.264545</ele>
        <time>2025-06-19T08:25:39.506Z</time>
      </trkpt>
      <trkpt lat="49.20703" lon="2.37414">
        <ele>99.829137</ele>
        <time>2025-06-19T08:25:41.511Z</time>
      </trkpt>
      <trkpt lat="49.20692" lon="2.37418">
        <ele>99.399749</ele>
        <time>2025-06-19T08:25:43.505Z</time>
      </trkpt>
      <trkpt lat="49.2068" lon="2.3742">
        <ele>98.950489</ele>
        <time>2025-06-19T08:25:45.518Z</time>
      </trkpt>
      <trkpt lat="49.20668" lon="2.37421">
        <ele>98.512925</ele>
        <time>2025-06-19T08:25:47.522Z</time>
      </trkpt>
      <trkpt lat="49.20656" lon="2.37422">
        <ele>98.085233</ele>
        <time>2025-06-19T08:25:49.516Z</time>
      </trkpt>
      <trkpt lat="49.20644" lon="2.37425">
        <ele>97.646119</ele>
        <time>2025-06-19T08:25:51.514Z</time>
      </trkpt>
      <trkpt lat="49.20632" lon="2.37427">
        <ele>97.195759</ele>
        <time>2025-06-19T08:25:53.507Z</time>
      </trkpt>
      <trkpt lat="49.20619" lon="2.3743">
        <ele>96.713827</ele>
        <time>2025-06-19T08:25:55.503Z</time>
      </trkpt>
      <trkpt lat="49.20606" lon="2.37437">
        <ele>96.508757</ele>
        <time>2025-06-19T08:25:57.505Z</time>
      </trkpt>
      <trkpt lat="49.20593" lon="2.37448">
        <ele>97.352641</ele>
        <time>2025-06-19T08:25:59.524Z</time>
      </trkpt>
      <trkpt lat="49.20581" lon="2.3746">
        <ele>98.192547</ele>
        <time>2025-06-19T08:26:01.508Z</time>
      </trkpt>
      <trkpt lat="49.20569" lon="2.37471">
        <ele>99.013818</ele>
        <time>2025-06-19T08:26:03.502Z</time>
      </trkpt>
      <trkpt lat="49.20557" lon="2.37485">
        <ele>99.896894</ele>
        <time>2025-06-19T08:26:05.505Z</time>
      </trkpt>
      <trkpt lat="49.20545" lon="2.37499">
        <ele>100.761583</ele>
        <time>2025-06-19T08:26:07.504Z</time>
      </trkpt>
      <trkpt lat="49.20533" lon="2.37513">
        <ele>101.626607</ele>
        <time>2025-06-19T08:26:09.506Z</time>
      </trkpt>
      <trkpt lat="49.20521" lon="2.37527">
        <ele>102.48449</ele>
        <time>2025-06-19T08:26:11.506Z</time>
      </trkpt>
      <trkpt lat="49.20509" lon="2.37539">
        <ele>103.306497</ele>
        <time>2025-06-19T08:26:13.491Z</time>
      </trkpt>
      <trkpt lat="49.20498" lon="2.37554">
        <ele>104.168435</ele>
        <time>2025-06-19T08:26:15.504Z</time>
      </trkpt>
      <trkpt lat="49.20486" lon="2.37564">
        <ele>104.982803</ele>
        <time>2025-06-19T08:26:17.495Z</time>
      </trkpt>
      <trkpt lat="49.20474" lon="2.37577">
        <ele>105.839013</ele>
        <time>2025-06-19T08:26:19.512Z</time>
      </trkpt>
      <trkpt lat="49.20462" lon="2.37589">
        <ele>106.687895</ele>
        <time>2025-06-19T08:26:21.502Z</time>
      </trkpt>
      <trkpt lat="49.2042" lon="2.37523">
        <ele>102.620063</ele>
        <time>2025-06-19T08:26:45.180Z</time>
      </trkpt>
      <trkpt lat="49.20415" lon="2.37506">
        <ele>101.796868</ele>
        <time>2025-06-19T08:26:46.522Z</time>
      </trkpt>
      <trkpt lat="49.20412" lon="2.3749">
        <ele>101.011359</ele>
        <time>2025-06-19T08:26:48.494Z</time>
      </trkpt>
      <trkpt lat="49.20406" lon="2.37474">
        <ele>100.188855</ele>
        <time>2025-06-19T08:26:50.507Z</time>
      </trkpt>
      <trkpt lat="49.20402" lon="2.37459">
        <ele>99.439076</ele>
        <time>2025-06-19T08:26:52.498Z</time>
      </trkpt>
      <trkpt lat="49.20399" lon="2.37445">
        <ele>98.738085</ele>
        <time>2025-06-19T08:26:54.505Z</time>
      </trkpt>
      <trkpt lat="49.20394" lon="2.37428">
        <ele>97.920503</ele>
        <time>2025-06-19T08:26:56.506Z</time>
      </trkpt>
      <trkpt lat="49.20389" lon="2.37413">
        <ele>97.175244</ele>
        <time>2025-06-19T08:26:58.498Z</time>
      </trkpt>
      <trkpt lat="49.20386" lon="2.37399">
        <ele>96.445015</ele>
        <time>2025-06-19T08:27:00.506Z</time>
      </trkpt>
      <trkpt lat="49.20382" lon="2.37385">
        <ele>95.75858</ele>
        <time>2025-06-19T08:27:02.503Z</time>
      </trkpt>
      <trkpt lat="49.20377" lon="2.37366">
        <ele>94.855471</ele>
        <time>2025-06-19T08:27:05.497Z</time>
      </trkpt>
      <trkpt lat="49.20372" lon="2.3735">
        <ele>94.129595</ele>
        <time>2025-06-19T08:27:08.507Z</time>
      </trkpt>
      <trkpt lat="49.20369" lon="2.37333">
        <ele>93.848733</ele>
        <time>2025-06-19T08:27:11.509Z</time>
      </trkpt>
      <trkpt lat="49.20359" lon="2.37322">
        <ele>93.560842</ele>
        <time>2025-06-19T08:27:14.509Z</time>
      </trkpt>
      <trkpt lat="49.2035" lon="2.37323">
        <ele>93.329279</ele>
        <time>2025-06-19T08:27:16.498Z</time>
      </trkpt>
      <trkpt lat="49.20341" lon="2.37327">
        <ele>93.108852</ele>
        <time>2025-06-19T08:27:20.506Z</time>
      </trkpt>
      <trkpt lat="49.2033" lon="2.37323">
        <ele>92.816635</ele>
        <time>2025-06-19T08:27:25.500Z</time>
      </trkpt>
      <trkpt lat="49.20318" lon="2.37321">
        <ele>92.514746</ele>
        <time>2025-06-19T08:27:28.508Z</time>
      </trkpt>
      <trkpt lat="49.20308" lon="2.37329">
        <ele>92.248852</ele>
        <time>2025-06-19T08:27:30.504Z</time>
      </trkpt>
      <trkpt lat="49.20303" lon="2.37342">
        <ele>92.005552</ele>
        <time>2025-06-19T08:27:32.509Z</time>
      </trkpt>
      <trkpt lat="49.20301" lon="2.37357">
        <ele>91.752434</ele>
        <time>2025-06-19T08:27:34.497Z</time>
      </trkpt>
      <trkpt lat="49.20301" lon="2.37373">
        <ele>91.506715</ele>
        <time>2025-06-19T08:27:36.513Z</time>
      </trkpt>
      <trkpt lat="49.20301" lon="2.37388">
        <ele>91.261032</ele>
        <time>2025-06-19T08:27:38.507Z</time>
      </trkpt>
      <trkpt lat="49.20303" lon="2.37403">
        <ele>91.021505</ele>
        <time>2025-06-19T08:27:40.527Z</time>
      </trkpt>
      <trkpt lat="49.20306" lon="2.37416">
        <ele>90.78199</ele>
        <time>2025-06-19T08:27:42.513Z</time>
      </trkpt>
      <trkpt lat="49.20311" lon="2.3743">
        <ele>90.542924</ele>
        <time>2025-06-19T08:27:44.511Z</time>
      </trkpt>
      <trkpt lat="49.20315" lon="2.37443">
        <ele>90.303553</ele>
        <time>2025-06-19T08:27:46.509Z</time>
      </trkpt>
      <trkpt lat="49.20322" lon="2.37461">
        <ele>89.978502</ele>
        <time>2025-06-19T08:27:49.501Z</time>
      </trkpt>
      <trkpt lat="49.20326" lon="2.37477">
        <ele>89.803635</ele>
        <time>2025-06-19T08:27:52.517Z</time>
      </trkpt>
      <trkpt lat="49.20331" lon="2.3749">
        <ele>89.936445</ele>
        <time>2025-06-19T08:27:56.526Z</time>
      </trkpt>
      <trkpt lat="49.20336" lon="2.37515">
        <ele>90.16297</ele>
        <time>2025-06-19T08:28:29.512Z</time>
      </trkpt>
      <trkpt lat="49.20336" lon="2.37531">
        <ele>90.306376</ele>
        <time>2025-06-19T08:28:32.504Z</time>
      </trkpt>
      <trkpt lat="49.20328" lon="2.37547">
        <ele>90.480354</ele>
        <time>2025-06-19T08:28:35.519Z</time>
      </trkpt>
      <trkpt lat="49.20317" lon="2.37555">
        <ele>90.646742</ele>
        <time>2025-06-19T08:28:38.499Z</time>
      </trkpt>
      <trkpt lat="49.20305" lon="2.37563">
        <ele>90.816633</ele>
        <time>2025-06-19T08:28:41.511Z</time>
      </trkpt>
      <trkpt lat="49.20293" lon="2.37571">
        <ele>90.992911</ele>
        <time>2025-06-19T08:28:44.507Z</time>
      </trkpt>
      <trkpt lat="49.20285" lon="2.37578">
        <ele>91.121589</ele>
        <time>2025-06-19T08:28:46.501Z</time>
      </trkpt>
      <trkpt lat="49.20276" lon="2.37583">
        <ele>91.248853</ele>
        <time>2025-06-19T08:28:48.505Z</time>
      </trkpt>
      <trkpt lat="49.20265" lon="2.37591">
        <ele>91.413577</ele>
        <time>2025-06-19T08:28:51.508Z</time>
      </trkpt>
      <trkpt lat="49.20255" lon="2.37599">
        <ele>91.564082</ele>
        <time>2025-06-19T08:28:54.515Z</time>
      </trkpt>
      <trkpt lat="49.20245" lon="2.37606">
        <ele>91.709845</ele>
        <time>2025-06-19T08:28:57.506Z</time>
      </trkpt>
      <trkpt lat="49.20234" lon="2.37614">
        <ele>91.871981</ele>
        <time>2025-06-19T08:29:00.518Z</time>
      </trkpt>
      <trkpt lat="49.20222" lon="2.37622">
        <ele>92.043007</ele>
        <time>2025-06-19T08:29:03.509Z</time>
      </trkpt>
      <trkpt lat="49.20212" lon="2.37629">
        <ele>92.115821</ele>
        <time>2025-06-19T08:29:06.505Z</time>
      </trkpt>
      <trkpt lat="49.20202" lon="2.37634">
        <ele>91.81304</ele>
        <time>2025-06-19T08:29:09.501Z</time>
      </trkpt>
      <trkpt lat="49.20192" lon="2.37643">
        <ele>91.454682</ele>
        <time>2025-06-19T08:29:12.508Z</time>
      </trkpt>
      <trkpt lat="49.20182" lon="2.37649">
        <ele>91.133457</ele>
        <time>2025-06-19T08:29:14.518Z</time>
      </trkpt>
      <trkpt lat="49.20169" lon="2.37657">
        <ele>90.727566</ele>
        <time>2025-06-19T08:29:16.501Z</time>
      </trkpt>
      <trkpt lat="49.20155" lon="2.37667">
        <ele>90.268357</ele>
        <time>2025-06-19T08:29:18.516Z</time>
      </trkpt>
      <trkpt lat="49.20141" lon="2.37676">
        <ele>89.806166</ele>
        <time>2025-06-19T08:29:20.511Z</time>
      </trkpt>
      <trkpt lat="49.20128" lon="2.37687">
        <ele>89.338219</ele>
        <time>2025-06-19T08:29:22.512Z</time>
      </trkpt>
      <trkpt lat="49.20114" lon="2.37697">
        <ele>88.895251</ele>
        <time>2025-06-19T08:29:24.501Z</time>
      </trkpt>
      <trkpt lat="49.20101" lon="2.37706">
        <ele>88.446866</ele>
        <time>2025-06-19T08:29:26.503Z</time>
      </trkpt>
      <trkpt lat="49.20087" lon="2.37715">
        <ele>87.993372</ele>
        <time>2025-06-19T08:29:28.507Z</time>
      </trkpt>
      <trkpt lat="49.20073" lon="2.37725">
        <ele>87.550861</ele>
        <time>2025-06-19T08:29:30.509Z</time>
      </trkpt>
      <trkpt lat="49.2006" lon="2.37734">
        <ele>87.114639</ele>
        <time>2025-06-19T08:29:32.516Z</time>
      </trkpt>
      <trkpt lat="49.20048" lon="2.37741">
        <ele>86.700419</ele>
        <time>2025-06-19T08:29:34.518Z</time>
      </trkpt>
      <trkpt lat="49.20034" lon="2.37751">
        <ele>86.172096</ele>
        <time>2025-06-19T08:29:36.515Z</time>
      </trkpt>
      <trkpt lat="49.2002" lon="2.37761">
        <ele>85.640212</ele>
        <time>2025-06-19T08:29:38.505Z</time>
      </trkpt>
      <trkpt lat="49.20007" lon="2.3777">
        <ele>85.129425</ele>
        <time>2025-06-19T08:29:40.503Z</time>
      </trkpt>
      <trkpt lat="49.19994" lon="2.37778">
        <ele>84.628734</ele>
        <time>2025-06-19T08:29:42.508Z</time>
      </trkpt>
      <trkpt lat="49.19981" lon="2.37787">
        <ele>84.127037</ele>
        <time>2025-06-19T08:29:44.519Z</time>
      </trkpt>
      <trkpt lat="49.19969" lon="2.37795">
        <ele>83.670968</ele>
        <time>2025-06-19T08:29:46.498Z</time>
      </trkpt>
      <trkpt lat="49.19957" lon="2.37803">
        <ele>83.191353</ele>
        <time>2025-06-19T08:29:48.517Z</time>
      </trkpt>
      <trkpt lat="49.19945" lon="2.37812">
        <ele>82.72202</ele>
        <time>2025-06-19T08:29:50.515Z</time>
      </trkpt>
      <trkpt lat="49.19932" lon="2.37821">
        <ele>82.239215</ele>
        <time>2025-06-19T08:29:52.510Z</time>
      </trkpt>
      <trkpt lat="49.1992" lon="2.37829">
        <ele>81.774046</ele>
        <time>2025-06-19T08:29:54.502Z</time>
      </trkpt>
      <trkpt lat="49.19909" lon="2.37837">
        <ele>81.334778</ele>
        <time>2025-06-19T08:29:56.506Z</time>
      </trkpt>
      <trkpt lat="49.19898" lon="2.37843">
        <ele>80.928957</ele>
        <time>2025-06-19T08:29:58.506Z</time>
      </trkpt>
      <trkpt lat="49.19888" lon="2.37851">
        <ele>80.533945</ele>
        <time>2025-06-19T08:30:00.512Z</time>
      </trkpt>
      <trkpt lat="49.19878" lon="2.37857">
        <ele>80.271885</ele>
        <time>2025-06-19T08:30:02.514Z</time>
      </trkpt>
      <trkpt lat="49.19869" lon="2.37864">
        <ele>80.057617</ele>
        <time>2025-06-19T08:30:04.511Z</time>
      </trkpt>
      <trkpt lat="49.19858" lon="2.37872">
        <ele>79.826206</ele>
        <time>2025-06-19T08:30:06.516Z</time>
      </trkpt>
      <trkpt lat="49.19847" lon="2.37879">
        <ele>79.587908</ele>
        <time>2025-06-19T08:30:08.505Z</time>
      </trkpt>
      <trkpt lat="49.19837" lon="2.37887">
        <ele>79.356564</ele>
        <time>2025-06-19T08:30:10.496Z</time>
      </trkpt>
      <trkpt lat="49.19826" lon="2.37895">
        <ele>79.118781</ele>
        <time>2025-06-19T08:30:12.508Z</time>
      </trkpt>
      <trkpt lat="49.19815" lon="2.37903">
        <ele>78.875025</ele>
        <time>2025-06-19T08:30:14.504Z</time>
      </trkpt>
      <trkpt lat="49.19804" lon="2.37911">
        <ele>78.632804</ele>
        <time>2025-06-19T08:30:16.497Z</time>
      </trkpt>
      <trkpt lat="49.19793" lon="2.37918">
        <ele>78.39762</ele>
        <time>2025-06-19T08:30:18.513Z</time>
      </trkpt>
      <trkpt lat="49.19782" lon="2.37924">
        <ele>78.170661</ele>
        <time>2025-06-19T08:30:20.516Z</time>
      </trkpt>
      <trkpt lat="49.19772" lon="2.37932">
        <ele>77.937455</ele>
        <time>2025-06-19T08:30:22.516Z</time>
      </trkpt>
      <trkpt lat="49.19761" lon="2.37939">
        <ele>77.712164</ele>
        <time>2025-06-19T08:30:24.509Z</time>
      </trkpt>
      <trkpt lat="49.19751" lon="2.37946">
        <ele>77.485296</ele>
        <time>2025-06-19T08:30:26.513Z</time>
      </trkpt>
      <trkpt lat="49.19741" lon="2.37953">
        <ele>77.279516</ele>
        <time>2025-06-19T08:30:28.507Z</time>
      </trkpt>
      <trkpt lat="49.19731" lon="2.3796">
        <ele>77.064568</ele>
        <time>2025-06-19T08:30:30.517Z</time>
      </trkpt>
      <trkpt lat="49.19722" lon="2.37967">
        <ele>76.852702</ele>
        <time>2025-06-19T08:30:32.510Z</time>
      </trkpt>
      <trkpt lat="49.19712" lon="2.37974">
        <ele>76.7255</ele>
        <time>2025-06-19T08:30:34.511Z</time>
      </trkpt>
      <trkpt lat="49.19701" lon="2.37981">
        <ele>76.594288</ele>
        <time>2025-06-19T08:30:36.509Z</time>
      </trkpt>
      <trkpt lat="49.1969" lon="2.37989">
        <ele>76.458373</ele>
        <time>2025-06-19T08:30:38.511Z</time>
      </trkpt>
      <trkpt lat="49.1968" lon="2.37996">
        <ele>76.324756</ele>
        <time>2025-06-19T08:30:40.509Z</time>
      </trkpt>
      <trkpt lat="49.19669" lon="2.38004">
        <ele>76.190004</ele>
        <time>2025-06-19T08:30:42.511Z</time>
      </trkpt>
      <trkpt lat="49.19658" lon="2.38012">
        <ele>76.053101</ele>
        <time>2025-06-19T08:30:44.506Z</time>
      </trkpt>
      <trkpt lat="49.19647" lon="2.38019">
        <ele>75.91761</ele>
        <time>2025-06-19T08:30:46.504Z</time>
      </trkpt>
      <trkpt lat="49.19637" lon="2.38026">
        <ele>75.793311</ele>
        <time>2025-06-19T08:30:48.507Z</time>
      </trkpt>
      <trkpt lat="49.19627" lon="2.38033">
        <ele>75.671407</ele>
        <time>2025-06-19T08:30:50.509Z</time>
      </trkpt>
      <trkpt lat="49.19616" lon="2.3804">
        <ele>75.541685</ele>
        <time>2025-06-19T08:30:52.509Z</time>
      </trkpt>
      <trkpt lat="49.19606" lon="2.38047">
        <ele>75.413483</ele>
        <time>2025-06-19T08:30:54.509Z</time>
      </trkpt>
      <trkpt lat="49.19596" lon="2.38054">
        <ele>75.284793</ele>
        <time>2025-06-19T08:30:56.511Z</time>
      </trkpt>
      <trkpt lat="49.19585" lon="2.38062">
        <ele>75.153535</ele>
        <time>2025-06-19T08:30:58.507Z</time>
      </trkpt>
      <trkpt lat="49.19575" lon="2.38069">
        <ele>75.02824</ele>
        <time>2025-06-19T08:31:00.507Z</time>
      </trkpt>
      <trkpt lat="49.19565" lon="2.38076">
        <ele>74.900244</ele>
        <time>2025-06-19T08:31:02.508Z</time>
      </trkpt>
      <trkpt lat="49.19554" lon="2.38084">
        <ele>74.843253</ele>
        <time>2025-06-19T08:31:04.509Z</time>
      </trkpt>
      <trkpt lat="49.19543" lon="2.38092">
        <ele>74.924205</ele>
        <time>2025-06-19T08:31:06.510Z</time>
      </trkpt>
      <trkpt lat="49.19533" lon="2.38099">
        <ele>75.003532</ele>
        <time>2025-06-19T08:31:08.504Z</time>
      </trkpt>
      <trkpt lat="49.19523" lon="2.38106">
        <ele>75.07925</ele>
        <time>2025-06-19T08:31:10.507Z</time>
      </trkpt>
      <trkpt lat="49.19513" lon="2.38113">
        <ele>75.156081</ele>
        <time>2025-06-19T08:31:12.507Z</time>
      </trkpt>
      <trkpt lat="49.19502" lon="2.3812">
        <ele>75.233419</ele>
        <time>2025-06-19T08:31:14.512Z</time>
      </trkpt>
      <trkpt lat="49.19492" lon="2.38127">
        <ele>75.309629</ele>
        <time>2025-06-19T08:31:16.503Z</time>
      </trkpt>
      <trkpt lat="49.19482" lon="2.38134">
        <ele>75.387706</ele>
        <time>2025-06-19T08:31:18.511Z</time>
      </trkpt>
      <trkpt lat="49.19472" lon="2.38141">
        <ele>75.462164</ele>
        <time>2025-06-19T08:31:20.508Z</time>
      </trkpt>
      <trkpt lat="49.19462" lon="2.38148">
        <ele>75.538972</ele>
        <time>2025-06-19T08:31:22.511Z</time>
      </trkpt>
      <trkpt lat="49.19452" lon="2.38154">
        <ele>75.612619</ele>
        <time>2025-06-19T08:31:24.517Z</time>
      </trkpt>
      <trkpt lat="49.19442" lon="2.38161">
        <ele>75.69095</ele>
        <time>2025-06-19T08:31:26.516Z</time>
      </trkpt>
      <trkpt lat="49.19431" lon="2.38168">
        <ele>75.771802</ele>
        <time>2025-06-19T08:31:28.520Z</time>
      </trkpt>
      <trkpt lat="49.1942" lon="2.38175">
        <ele>75.852131</ele>
        <time>2025-06-19T08:31:30.506Z</time>
      </trkpt>
      <trkpt lat="49.1941" lon="2.38183">
        <ele>75.932414</ele>
        <time>2025-06-19T08:31:32.506Z</time>
      </trkpt>
      <trkpt lat="49.19399" lon="2.3819">
        <ele>76.011015</ele>
        <time>2025-06-19T08:31:34.522Z</time>
      </trkpt>
      <trkpt lat="49.1939" lon="2.38197">
        <ele>76.115631</ele>
        <time>2025-06-19T08:31:36.505Z</time>
      </trkpt>
      <trkpt lat="49.1938" lon="2.38204">
        <ele>76.269118</ele>
        <time>2025-06-19T08:31:38.507Z</time>
      </trkpt>
      <trkpt lat="49.19371" lon="2.38212">
        <ele>76.425622</ele>
        <time>2025-06-19T08:31:40.514Z</time>
      </trkpt>
      <trkpt lat="49.19361" lon="2.38223">
        <ele>76.596038</ele>
        <time>2025-06-19T08:31:42.504Z</time>
      </trkpt>
      <trkpt lat="49.19352" lon="2.38234">
        <ele>76.761901</ele>
        <time>2025-06-19T08:31:44.506Z</time>
      </trkpt>
      <trkpt lat="49.19344" lon="2.38245">
        <ele>76.91771</ele>
        <time>2025-06-19T08:31:46.507Z</time>
      </trkpt>
      <trkpt lat="49.19337" lon="2.38257">
        <ele>77.064393</ele>
        <time>2025-06-19T08:31:48.519Z</time>
      </trkpt>
      <trkpt lat="49.1933" lon="2.38269">
        <ele>77.217624</ele>
        <time>2025-06-19T08:31:50.506Z</time>
      </trkpt>
      <trkpt lat="49.19323" lon="2.38281">
        <ele>77.370112</ele>
        <time>2025-06-19T08:31:52.511Z</time>
      </trkpt>
      <trkpt lat="49.19317" lon="2.38293">
        <ele>77.510461</ele>
        <time>2025-06-19T08:31:54.515Z</time>
      </trkpt>
      <trkpt lat="49.19311" lon="2.38304">
        <ele>77.645027</ele>
        <time>2025-06-19T08:31:56.503Z</time>
      </trkpt>
      <trkpt lat="49.19302" lon="2.3832">
        <ele>77.841124</ele>
        <time>2025-06-19T08:31:59.511Z</time>
      </trkpt>
      <trkpt lat="49.19296" lon="2.38332">
        <ele>77.984197</ele>
        <time>2025-06-19T08:32:01.506Z</time>
      </trkpt>
      <trkpt lat="49.19289" lon="2.38344">
        <ele>78.128911</ele>
        <time>2025-06-19T08:32:03.505Z</time>
      </trkpt>
      <trkpt lat="49.19282" lon="2.38357">
        <ele>78.287779</ele>
        <time>2025-06-19T08:32:05.506Z</time>
      </trkpt>
      <trkpt lat="49.19276" lon="2.3837">
        <ele>78.444506</ele>
        <time>2025-06-19T08:32:07.507Z</time>
      </trkpt>
      <trkpt lat="49.19268" lon="2.38383">
        <ele>78.606413</ele>
        <time>2025-06-19T08:32:09.505Z</time>
      </trkpt>
      <trkpt lat="49.19261" lon="2.38396">
        <ele>78.697941</ele>
        <time>2025-06-19T08:32:11.507Z</time>
      </trkpt>
      <trkpt lat="49.19254" lon="2.38409">
        <ele>78.776026</ele>
        <time>2025-06-19T08:32:13.507Z</time>
      </trkpt>
      <trkpt lat="49.19247" lon="2.38422">
        <ele>78.854304</ele>
        <time>2025-06-19T08:32:15.504Z</time>
      </trkpt>
      <trkpt lat="49.1924" lon="2.38435">
        <ele>78.928121</ele>
        <time>2025-06-19T08:32:17.507Z</time>
      </trkpt>
      <trkpt lat="49.19233" lon="2.38446">
        <ele>78.998195</ele>
        <time>2025-06-19T08:32:19.514Z</time>
      </trkpt>
      <trkpt lat="49.19227" lon="2.38458">
        <ele>79.069162</ele>
        <time>2025-06-19T08:32:21.518Z</time>
      </trkpt>
      <trkpt lat="49.1922" lon="2.3847">
        <ele>79.1382</ele>
        <time>2025-06-19T08:32:23.520Z</time>
      </trkpt>
      <trkpt lat="49.19213" lon="2.38481">
        <ele>79.207227</ele>
        <time>2025-06-19T08:32:25.510Z</time>
      </trkpt>
      <trkpt lat="49.19207" lon="2.38493">
        <ele>79.278193</ele>
        <time>2025-06-19T08:32:27.510Z</time>
      </trkpt>
      <trkpt lat="49.19201" lon="2.38504">
        <ele>79.344698</ele>
        <time>2025-06-19T08:32:29.507Z</time>
      </trkpt>
      <trkpt lat="49.19194" lon="2.38516">
        <ele>79.416693</ele>
        <time>2025-06-19T08:32:31.510Z</time>
      </trkpt>
      <trkpt lat="49.19186" lon="2.38527">
        <ele>79.488616</ele>
        <time>2025-06-19T08:32:33.518Z</time>
      </trkpt>
      <trkpt lat="49.19179" lon="2.38536">
        <ele>79.556607</ele>
        <time>2025-06-19T08:32:35.515Z</time>
      </trkpt>
      <trkpt lat="49.19171" lon="2.38547">
        <ele>79.627242</ele>
        <time>2025-06-19T08:32:37.529Z</time>
      </trkpt>
      <trkpt lat="49.19163" lon="2.38558">
        <ele>79.703341</ele>
        <time>2025-06-19T08:32:39.517Z</time>
      </trkpt>
      <trkpt lat="49.19155" lon="2.38567">
        <ele>79.774627</ele>
        <time>2025-06-19T08:32:41.507Z</time>
      </trkpt>
      <trkpt lat="49.19146" lon="2.38575">
        <ele>79.845383</ele>
        <time>2025-06-19T08:32:43.515Z</time>
      </trkpt>
      <trkpt lat="49.19137" lon="2.38585">
        <ele>79.936485</ele>
        <time>2025-06-19T08:32:45.514Z</time>
      </trkpt>
      <trkpt lat="49.19128" lon="2.38592">
        <ele>80.032197</ele>
        <time>2025-06-19T08:32:47.509Z</time>
      </trkpt>
      <trkpt lat="49.19116" lon="2.38601">
        <ele>80.148488</ele>
        <time>2025-06-19T08:32:49.507Z</time>
      </trkpt>
      <trkpt lat="49.19108" lon="2.3861">
        <ele>80.247551</ele>
        <time>2025-06-19T08:32:51.496Z</time>
      </trkpt>
      <trkpt lat="49.19098" lon="2.38621">
        <ele>80.355785</ele>
        <time>2025-06-19T08:32:53.508Z</time>
      </trkpt>
      <trkpt lat="49.19087" lon="2.38629">
        <ele>80.46713</ele>
        <time>2025-06-19T08:32:55.516Z</time>
      </trkpt>
      <trkpt lat="49.19077" lon="2.38638">
        <ele>80.579088</ele>
        <time>2025-06-19T08:32:57.512Z</time>
      </trkpt>
      <trkpt lat="49.19066" lon="2.38647">
        <ele>80.686865</ele>
        <time>2025-06-19T08:32:59.512Z</time>
      </trkpt>
      <trkpt lat="49.19056" lon="2.38657">
        <ele>80.798875</ele>
        <time>2025-06-19T08:33:01.520Z</time>
      </trkpt>
      <trkpt lat="49.19046" lon="2.38667">
        <ele>80.909472</ele>
        <time>2025-06-19T08:33:03.517Z</time>
      </trkpt>
      <trkpt lat="49.19035" lon="2.38677">
        <ele>81.034256</ele>
        <time>2025-06-19T08:33:05.512Z</time>
      </trkpt>
      <trkpt lat="49.19025" lon="2.38689">
        <ele>81.14661</ele>
        <time>2025-06-19T08:33:07.516Z</time>
      </trkpt>
      <trkpt lat="49.19013" lon="2.38698">
        <ele>81.268676</ele>
        <time>2025-06-19T08:33:09.511Z</time>
      </trkpt>
      <trkpt lat="49.19003" lon="2.38709">
        <ele>81.382214</ele>
        <time>2025-06-19T08:33:11.513Z</time>
      </trkpt>
      <trkpt lat="49.18995" lon="2.3872">
        <ele>81.482091</ele>
        <time>2025-06-19T08:33:13.510Z</time>
      </trkpt>
      <trkpt lat="49.18985" lon="2.3873">
        <ele>81.658808</ele>
        <time>2025-06-19T08:33:15.512Z</time>
      </trkpt>
      <trkpt lat="49.18975" lon="2.38738">
        <ele>81.896095</ele>
        <time>2025-06-19T08:33:17.504Z</time>
      </trkpt>
      <trkpt lat="49.18964" lon="2.38746">
        <ele>82.130963</ele>
        <time>2025-06-19T08:33:19.502Z</time>
      </trkpt>
      <trkpt lat="49.18957" lon="2.38755">
        <ele>82.322554</ele>
        <time>2025-06-19T08:33:21.516Z</time>
      </trkpt>
      <trkpt lat="49.18947" lon="2.38762">
        <ele>82.537466</ele>
        <time>2025-06-19T08:33:23.509Z</time>
      </trkpt>
      <trkpt lat="49.18939" lon="2.38769">
        <ele>82.744473</ele>
        <time>2025-06-19T08:33:25.506Z</time>
      </trkpt>
      <trkpt lat="49.18927" lon="2.38777">
        <ele>83.013059</ele>
        <time>2025-06-19T08:33:27.510Z</time>
      </trkpt>
      <trkpt lat="49.18915" lon="2.38787">
        <ele>83.284324</ele>
        <time>2025-06-19T08:33:29.506Z</time>
      </trkpt>
      <trkpt lat="49.18903" lon="2.38795">
        <ele>83.549739</ele>
        <time>2025-06-19T08:33:31.513Z</time>
      </trkpt>
      <trkpt lat="49.18893" lon="2.38804">
        <ele>83.786831</ele>
        <time>2025-06-19T08:33:33.518Z</time>
      </trkpt>
      <trkpt lat="49.18883" lon="2.38814">
        <ele>84.031965</ele>
        <time>2025-06-19T08:33:35.508Z</time>
      </trkpt>
      <trkpt lat="49.18873" lon="2.38824">
        <ele>84.277063</ele>
        <time>2025-06-19T08:33:37.516Z</time>
      </trkpt>
      <trkpt lat="49.18862" lon="2.38835">
        <ele>84.544651</ele>
        <time>2025-06-19T08:33:39.512Z</time>
      </trkpt>
      <trkpt lat="49.18851" lon="2.38843">
        <ele>84.79953</ele>
        <time>2025-06-19T08:33:41.515Z</time>
      </trkpt>
      <trkpt lat="49.18842" lon="2.38855">
        <ele>85.03831</ele>
        <time>2025-06-19T08:33:43.515Z</time>
      </trkpt>
      <trkpt lat="49.18831" lon="2.38864">
        <ele>85.247188</ele>
        <time>2025-06-19T08:33:45.500Z</time>
      </trkpt>
      <trkpt lat="49.18822" lon="2.38871">
        <ele>85.341101</ele>
        <time>2025-06-19T08:33:47.507Z</time>
      </trkpt>
      <trkpt lat="49.18812" lon="2.38881">
        <ele>85.440851</ele>
        <time>2025-06-19T08:33:49.511Z</time>
      </trkpt>
      <trkpt lat="49.18801" lon="2.38892">
        <ele>85.552502</ele>
        <time>2025-06-19T08:33:51.516Z</time>
      </trkpt>
      <trkpt lat="49.1879" lon="2.38902">
        <ele>85.668853</ele>
        <time>2025-06-19T08:33:53.509Z</time>
      </trkpt>
      <trkpt lat="49.18779" lon="2.38912">
        <ele>85.773905</ele>
        <time>2025-06-19T08:33:55.504Z</time>
      </trkpt>
      <trkpt lat="49.18768" lon="2.38922">
        <ele>85.882948</ele>
        <time>2025-06-19T08:33:57.503Z</time>
      </trkpt>
      <trkpt lat="49.18759" lon="2.38929">
        <ele>85.974249</ele>
        <time>2025-06-19T08:33:59.507Z</time>
      </trkpt>
      <trkpt lat="49.18749" lon="2.38937">
        <ele>86.068128</ele>
        <time>2025-06-19T08:34:01.514Z</time>
      </trkpt>
      <trkpt lat="49.1874" lon="2.38946">
        <ele>86.167273</ele>
        <time>2025-06-19T08:34:03.514Z</time>
      </trkpt>
      <trkpt lat="49.1873" lon="2.38955">
        <ele>86.266724</ele>
        <time>2025-06-19T08:34:05.510Z</time>
      </trkpt>
      <trkpt lat="49.18722" lon="2.38964">
        <ele>86.351694</ele>
        <time>2025-06-19T08:34:07.506Z</time>
      </trkpt>
      <trkpt lat="49.18714" lon="2.3897">
        <ele>86.433223</ele>
        <time>2025-06-19T08:34:09.510Z</time>
      </trkpt>
      <trkpt lat="49.18704" lon="2.38979">
        <ele>86.525566</ele>
        <time>2025-06-19T08:34:11.508Z</time>
      </trkpt>
      <trkpt lat="49.18695" lon="2.38986">
        <ele>86.614559</ele>
        <time>2025-06-19T08:34:13.511Z</time>
      </trkpt>
      <trkpt lat="49.18684" lon="2.38995">
        <ele>86.721039</ele>
        <time>2025-06-19T08:34:15.501Z</time>
      </trkpt>
      <trkpt lat="49.18674" lon="2.39003">
        <ele>86.756489</ele>
        <time>2025-06-19T08:34:17.511Z</time>
      </trkpt>
      <trkpt lat="49.18664" lon="2.39012">
        <ele>86.702458</ele>
        <time>2025-06-19T08:34:19.514Z</time>
      </trkpt>
      <trkpt lat="49.18653" lon="2.3902">
        <ele>86.650829</ele>
        <time>2025-06-19T08:34:21.506Z</time>
      </trkpt>
      <trkpt lat="49.18645" lon="2.39029">
        <ele>86.603202</ele>
        <time>2025-06-19T08:34:23.516Z</time>
      </trkpt>
      <trkpt lat="49.18635" lon="2.39039">
        <ele>86.550401</ele>
        <time>2025-06-19T08:34:25.509Z</time>
      </trkpt>
      <trkpt lat="49.18625" lon="2.39047">
        <ele>86.500449</ele>
        <time>2025-06-19T08:34:27.514Z</time>
      </trkpt>
      <trkpt lat="49.18615" lon="2.39057">
        <ele>86.449071</ele>
        <time>2025-06-19T08:34:29.515Z</time>
      </trkpt>
      <trkpt lat="49.18607" lon="2.39067">
        <ele>86.401681</ele>
        <time>2025-06-19T08:34:31.507Z</time>
      </trkpt>
      <trkpt lat="49.18598" lon="2.39075">
        <ele>86.353472</ele>
        <time>2025-06-19T08:34:33.507Z</time>
      </trkpt>
      <trkpt lat="49.18587" lon="2.39082">
        <ele>86.30147</ele>
        <time>2025-06-19T08:34:35.512Z</time>
      </trkpt>
      <trkpt lat="49.18578" lon="2.3909">
        <ele>86.253937</ele>
        <time>2025-06-19T08:34:37.508Z</time>
      </trkpt>
      <trkpt lat="49.18568" lon="2.39098">
        <ele>86.20413</ele>
        <time>2025-06-19T08:34:39.519Z</time>
      </trkpt>
      <trkpt lat="49.18558" lon="2.39106">
        <ele>86.154888</ele>
        <time>2025-06-19T08:34:41.509Z</time>
      </trkpt>
      <trkpt lat="49.18549" lon="2.39114">
        <ele>86.107161</ele>
        <time>2025-06-19T08:34:43.507Z</time>
      </trkpt>
      <trkpt lat="49.1854" lon="2.39123">
        <ele>86.060116</ele>
        <time>2025-06-19T08:34:45.503Z</time>
      </trkpt>
      <trkpt lat="49.18531" lon="2.39131">
        <ele>86.014454</ele>
        <time>2025-06-19T08:34:47.505Z</time>
      </trkpt>
      <trkpt lat="49.18522" lon="2.39139">
        <ele>85.979581</ele>
        <time>2025-06-19T08:34:49.502Z</time>
      </trkpt>
      <trkpt lat="49.18513" lon="2.39147">
        <ele>86.009259</ele>
        <time>2025-06-19T08:34:51.502Z</time>
      </trkpt>
      <trkpt lat="49.18504" lon="2.39155">
        <ele>86.03794</ele>
        <time>2025-06-19T08:34:53.507Z</time>
      </trkpt>
      <trkpt lat="49.18496" lon="2.39162">
        <ele>86.065695</ele>
        <time>2025-06-19T08:34:55.508Z</time>
      </trkpt>
      <trkpt lat="49.18486" lon="2.3917">
        <ele>86.095486</ele>
        <time>2025-06-19T08:34:57.505Z</time>
      </trkpt>
      <trkpt lat="49.18477" lon="2.39179">
        <ele>86.126543</ele>
        <time>2025-06-19T08:34:59.516Z</time>
      </trkpt>
      <trkpt lat="49.18467" lon="2.39187">
        <ele>86.158172</ele>
        <time>2025-06-19T08:35:01.511Z</time>
      </trkpt>
      <trkpt lat="49.18457" lon="2.39194">
        <ele>86.191606</ele>
        <time>2025-06-19T08:35:03.515Z</time>
      </trkpt>
      <trkpt lat="49.18446" lon="2.39198">
        <ele>86.223715</ele>
        <time>2025-06-19T08:35:05.513Z</time>
      </trkpt>
      <trkpt lat="49.18435" lon="2.39199">
        <ele>86.255427</ele>
        <time>2025-06-19T08:35:07.508Z</time>
      </trkpt>
      <trkpt lat="49.18424" lon="2.39197">
        <ele>86.285837</ele>
        <time>2025-06-19T08:35:09.511Z</time>
      </trkpt>
      <trkpt lat="49.18414" lon="2.39193">
        <ele>86.315221</ele>
        <time>2025-06-19T08:35:11.506Z</time>
      </trkpt>
      <trkpt lat="49.18404" lon="2.39187">
        <ele>86.346208</ele>
        <time>2025-06-19T08:35:13.508Z</time>
      </trkpt>
      <trkpt lat="49.18394" lon="2.39181">
        <ele>86.376737</ele>
        <time>2025-06-19T08:35:15.510Z</time>
      </trkpt>
      <trkpt lat="49.18385" lon="2.39173">
        <ele>86.40551</ele>
        <time>2025-06-19T08:35:17.506Z</time>
      </trkpt>
      <trkpt lat="49.18375" lon="2.39165">
        <ele>86.437728</ele>
        <time>2025-06-19T08:35:19.513Z</time>
      </trkpt>
      <trkpt lat="49.18367" lon="2.3916">
        <ele>86.463744</ele>
        <time>2025-06-19T08:35:21.512Z</time>
      </trkpt>
      <trkpt lat="49.18357" lon="2.39156">
        <ele>86.516558</ele>
        <time>2025-06-19T08:35:23.509Z</time>
      </trkpt>
      <trkpt lat="49.18348" lon="2.39149">
        <ele>86.669943</ele>
        <time>2025-06-19T08:35:25.510Z</time>
      </trkpt>
      <trkpt lat="49.18338" lon="2.39139">
        <ele>86.849914</ele>
        <time>2025-06-19T08:35:27.514Z</time>
      </trkpt>
      <trkpt lat="49.18329" lon="2.39133">
        <ele>87.00468</ele>
        <time>2025-06-19T08:35:29.505Z</time>
      </trkpt>
      <trkpt lat="49.18321" lon="2.39126">
        <ele>87.152126</ele>
        <time>2025-06-19T08:35:31.506Z</time>
      </trkpt>
      <trkpt lat="49.18311" lon="2.39118">
        <ele>87.31831</ele>
        <time>2025-06-19T08:35:33.516Z</time>
      </trkpt>
      <trkpt lat="49.18301" lon="2.39112">
        <ele>87.490791</ele>
        <time>2025-06-19T08:35:35.512Z</time>
      </trkpt>
      <trkpt lat="49.18292" lon="2.39105">
        <ele>87.645516</ele>
        <time>2025-06-19T08:35:37.516Z</time>
      </trkpt>
      <trkpt lat="49.18282" lon="2.39099">
        <ele>87.798391</ele>
        <time>2025-06-19T08:35:39.515Z</time>
      </trkpt>
      <trkpt lat="49.18274" lon="2.39091">
        <ele>87.951921</ele>
        <time>2025-06-19T08:35:41.519Z</time>
      </trkpt>
      <trkpt lat="49.18265" lon="2.39086">
        <ele>88.094963</ele>
        <time>2025-06-19T08:35:43.502Z</time>
      </trkpt>
      <trkpt lat="49.18256" lon="2.39078">
        <ele>88.253787</ele>
        <time>2025-06-19T08:35:45.506Z</time>
      </trkpt>
      <trkpt lat="49.18244" lon="2.3907">
        <ele>88.460065</ele>
        <time>2025-06-19T08:35:48.504Z</time>
      </trkpt>
      <trkpt lat="49.18231" lon="2.39063">
        <ele>88.669162</ele>
        <time>2025-06-19T08:35:51.515Z</time>
      </trkpt>
      <trkpt lat="49.18221" lon="2.39057">
        <ele>88.839146</ele>
        <time>2025-06-19T08:35:53.519Z</time>
      </trkpt>
      <trkpt lat="49.18211" lon="2.39051">
        <ele>88.995235</ele>
        <time>2025-06-19T08:35:55.517Z</time>
      </trkpt>
      <trkpt lat="49.18202" lon="2.39045">
        <ele>89.140274</ele>
        <time>2025-06-19T08:35:57.518Z</time>
      </trkpt>
      <trkpt lat="49.18194" lon="2.39041">
        <ele>89.247687</ele>
        <time>2025-06-19T08:35:59.523Z</time>
      </trkpt>
      <trkpt lat="49.18183" lon="2.39036">
        <ele>89.270476</ele>
        <time>2025-06-19T08:36:01.514Z</time>
      </trkpt>
      <trkpt lat="49.18173" lon="2.39031">
        <ele>89.290707</ele>
        <time>2025-06-19T08:36:03.515Z</time>
      </trkpt>
      <trkpt lat="49.18163" lon="2.39027">
        <ele>89.312537</ele>
        <time>2025-06-19T08:36:05.516Z</time>
      </trkpt>
      <trkpt lat="49.18154" lon="2.39022">
        <ele>89.332314</ele>
        <time>2025-06-19T08:36:07.517Z</time>
      </trkpt>
      <trkpt lat="49.18144" lon="2.39016">
        <ele>89.352759</ele>
        <time>2025-06-19T08:36:09.512Z</time>
      </trkpt>
      <trkpt lat="49.18134" lon="2.39012">
        <ele>89.375143</ele>
        <time>2025-06-19T08:36:11.512Z</time>
      </trkpt>
      <trkpt lat="49.18125" lon="2.39006">
        <ele>89.395143</ele>
        <time>2025-06-19T08:36:13.508Z</time>
      </trkpt>
      <trkpt lat="49.18115" lon="2.39002">
        <ele>89.414914</ele>
        <time>2025-06-19T08:36:15.516Z</time>
      </trkpt>
      <trkpt lat="49.18106" lon="2.38998">
        <ele>89.433602</ele>
        <time>2025-06-19T08:36:17.514Z</time>
      </trkpt>
      <trkpt lat="49.18097" lon="2.38993">
        <ele>89.453854</ele>
        <time>2025-06-19T08:36:19.509Z</time>
      </trkpt>
      <trkpt lat="49.18088" lon="2.38986">
        <ele>89.475106</ele>
        <time>2025-06-19T08:36:21.510Z</time>
      </trkpt>
      <trkpt lat="49.18077" lon="2.38981">
        <ele>89.498359</ele>
        <time>2025-06-19T08:36:23.518Z</time>
      </trkpt>
      <trkpt lat="49.18065" lon="2.38974">
        <ele>89.523027</ele>
        <time>2025-06-19T08:36:25.520Z</time>
      </trkpt>
      <trkpt lat="49.18055" lon="2.38967">
        <ele>89.545975</ele>
        <time>2025-06-19T08:36:27.516Z</time>
      </trkpt>
      <trkpt lat="49.18045" lon="2.38963">
        <ele>89.567755</ele>
        <time>2025-06-19T08:36:29.521Z</time>
      </trkpt>
      <trkpt lat="49.18035" lon="2.38961">
        <ele>89.58675</ele>
        <time>2025-06-19T08:36:31.515Z</time>
      </trkpt>
      <trkpt lat="49.18025" lon="2.38956">
        <ele>89.609775</ele>
        <time>2025-06-19T08:36:33.517Z</time>
      </trkpt>
      <trkpt lat="49.18014" lon="2.38953">
        <ele>89.669507</ele>
        <time>2025-06-19T08:36:35.511Z</time>
      </trkpt>
      <trkpt lat="49.18003" lon="2.38947">
        <ele>89.730709</ele>
        <time>2025-06-19T08:36:37.521Z</time>
      </trkpt>
      <trkpt lat="49.17992" lon="2.38943">
        <ele>89.787355</ele>
        <time>2025-06-19T08:36:39.508Z</time>
      </trkpt>
      <trkpt lat="49.17981" lon="2.38939">
        <ele>89.844747</ele>
        <time>2025-06-19T08:36:41.518Z</time>
      </trkpt>
      <trkpt lat="49.17971" lon="2.38936">
        <ele>89.902254</ele>
        <time>2025-06-19T08:36:43.516Z</time>
      </trkpt>
      <trkpt lat="49.17959" lon="2.38933">
        <ele>89.962309</ele>
        <time>2025-06-19T08:36:45.511Z</time>
      </trkpt>
      <trkpt lat="49.17948" lon="2.38931">
        <ele>90.021354</ele>
        <time>2025-06-19T08:36:47.509Z</time>
      </trkpt>
      <trkpt lat="49.17939" lon="2.38929">
        <ele>90.069971</ele>
        <time>2025-06-19T08:36:49.516Z</time>
      </trkpt>
      <trkpt lat="49.17929" lon="2.38925">
        <ele>90.124674</ele>
        <time>2025-06-19T08:36:51.509Z</time>
      </trkpt>
      <trkpt lat="49.17918" lon="2.38922">
        <ele>90.178593</ele>
        <time>2025-06-19T08:36:53.513Z</time>
      </trkpt>
      <trkpt lat="49.17904" lon="2.38919">
        <ele>90.251888</ele>
        <time>2025-06-19T08:36:56.507Z</time>
      </trkpt>
      <trkpt lat="49.17895" lon="2.38916">
        <ele>90.301589</ele>
        <time>2025-06-19T08:36:58.509Z</time>
      </trkpt>
      <trkpt lat="49.17882" lon="2.38912">
        <ele>90.37072</ele>
        <time>2025-06-19T08:37:01.506Z</time>
      </trkpt>
      <trkpt lat="49.17873" lon="2.3891">
        <ele>90.417824</ele>
        <time>2025-06-19T08:37:03.512Z</time>
      </trkpt>
      <trkpt lat="49.17861" lon="2.38906">
        <ele>90.483041</ele>
        <time>2025-06-19T08:37:06.520Z</time>
      </trkpt>
      <trkpt lat="49.17854" lon="2.38897">
        <ele>90.532037</ele>
        <time>2025-06-19T08:37:08.514Z</time>
      </trkpt>
      <trkpt lat="49.17847" lon="2.38884">
        <ele>90.569505</ele>
        <time>2025-06-19T08:37:10.501Z</time>
      </trkpt>
      <trkpt lat="49.17839" lon="2.38873">
        <ele>90.604139</ele>
        <time>2025-06-19T08:37:12.500Z</time>
      </trkpt>
      <trkpt lat="49.1783" lon="2.38868">
        <ele>90.636666</ele>
        <time>2025-06-19T08:37:14.504Z</time>
      </trkpt>
      <trkpt lat="49.1782" lon="2.38872">
        <ele>90.669256</ele>
        <time>2025-06-19T08:37:16.514Z</time>
      </trkpt>
      <trkpt lat="49.1781" lon="2.38881">
        <ele>90.705373</ele>
        <time>2025-06-19T08:37:18.511Z</time>
      </trkpt>
      <trkpt lat="49.17801" lon="2.38891">
        <ele>90.740993</ele>
        <time>2025-06-19T08:37:20.501Z</time>
      </trkpt>
      <trkpt lat="49.17791" lon="2.38895">
        <ele>90.776076</ele>
        <time>2025-06-19T08:37:22.504Z</time>
      </trkpt>
      <trkpt lat="49.1778" lon="2.38895">
        <ele>90.811636</ele>
        <time>2025-06-19T08:37:24.515Z</time>
      </trkpt>
      <trkpt lat="49.17769" lon="2.38895">
        <ele>90.846541</ele>
        <time>2025-06-19T08:37:26.500Z</time>
      </trkpt>
      <trkpt lat="49.17757" lon="2.38896">
        <ele>90.884044</ele>
        <time>2025-06-19T08:37:28.514Z</time>
      </trkpt>
      <trkpt lat="49.17745" lon="2.38895">
        <ele>90.921867</ele>
        <time>2025-06-19T08:37:30.512Z</time>
      </trkpt>
      <trkpt lat="49.17734" lon="2.38893">
        <ele>90.958227</ele>
        <time>2025-06-19T08:37:32.502Z</time>
      </trkpt>
      <trkpt lat="49.17723" lon="2.38893">
        <ele>90.994434</ele>
        <time>2025-06-19T08:37:34.511Z</time>
      </trkpt>
      <trkpt lat="49.17712" lon="2.38892">
        <ele>91.029664</ele>
        <time>2025-06-19T08:37:36.504Z</time>
      </trkpt>
      <trkpt lat="49.177" lon="2.38892">
        <ele>91.065219</ele>
        <time>2025-06-19T08:37:38.509Z</time>
      </trkpt>
      <trkpt lat="49.1769" lon="2.38891">
        <ele>91.099834</ele>
        <time>2025-06-19T08:37:40.508Z</time>
      </trkpt>
      <trkpt lat="49.17678" lon="2.38889">
        <ele>91.125332</ele>
        <time>2025-06-19T08:37:42.507Z</time>
      </trkpt>
      <trkpt lat="49.17666" lon="2.38888">
        <ele>91.139093</ele>
        <time>2025-06-19T08:37:44.514Z</time>
      </trkpt>
      <trkpt lat="49.17653" lon="2.38887">
        <ele>91.153436</ele>
        <time>2025-06-19T08:37:46.507Z</time>
      </trkpt>
      <trkpt lat="49.17641" lon="2.38886">
        <ele>91.167878</ele>
        <time>2025-06-19T08:37:48.506Z</time>
      </trkpt>
      <trkpt lat="49.17628" lon="2.38885">
        <ele>91.182326</ele>
        <time>2025-06-19T08:37:50.505Z</time>
      </trkpt>
      <trkpt lat="49.17615" lon="2.38884">
        <ele>91.196884</ele>
        <time>2025-06-19T08:37:52.519Z</time>
      </trkpt>
      <trkpt lat="49.17602" lon="2.38883">
        <ele>91.212017</ele>
        <time>2025-06-19T08:37:54.507Z</time>
      </trkpt>
      <trkpt lat="49.17589" lon="2.38882">
        <ele>91.226257</ele>
        <time>2025-06-19T08:37:56.516Z</time>
      </trkpt>
      <trkpt lat="49.17578" lon="2.38881">
        <ele>91.239447</ele>
        <time>2025-06-19T08:37:58.506Z</time>
      </trkpt>
      <trkpt lat="49.17566" lon="2.3888">
        <ele>91.252523</ele>
        <time>2025-06-19T08:38:00.510Z</time>
      </trkpt>
      <trkpt lat="49.17555" lon="2.3888">
        <ele>91.265935</ele>
        <time>2025-06-19T08:38:02.508Z</time>
      </trkpt>
      <trkpt lat="49.1754" lon="2.38879">
        <ele>91.282199</ele>
        <time>2025-06-19T08:38:04.509Z</time>
      </trkpt>
      <trkpt lat="49.17527" lon="2.38877">
        <ele>91.29781</ele>
        <time>2025-06-19T08:38:06.509Z</time>
      </trkpt>
      <trkpt lat="49.17512" lon="2.38876">
        <ele>91.314071</ele>
        <time>2025-06-19T08:38:08.516Z</time>
      </trkpt>
      <trkpt lat="49.17498" lon="2.38875">
        <ele>91.27537</ele>
        <time>2025-06-19T08:38:10.514Z</time>
      </trkpt>
      <trkpt lat="49.17484" lon="2.38875">
        <ele>91.159215</ele>
        <time>2025-06-19T08:38:12.511Z</time>
      </trkpt>
      <trkpt lat="49.17471" lon="2.38874">
        <ele>91.048029</ele>
        <time>2025-06-19T08:38:14.512Z</time>
      </trkpt>
      <trkpt lat="49.17457" lon="2.38873">
        <ele>90.937477</ele>
        <time>2025-06-19T08:38:16.503Z</time>
      </trkpt>
      <trkpt lat="49.17444" lon="2.38872">
        <ele>90.825314</ele>
        <time>2025-06-19T08:38:18.515Z</time>
      </trkpt>
      <trkpt lat="49.17431" lon="2.38872">
        <ele>90.716629</ele>
        <time>2025-06-19T08:38:20.509Z</time>
      </trkpt>
      <trkpt lat="49.17417" lon="2.38871">
        <ele>90.607057</ele>
        <time>2025-06-19T08:38:22.510Z</time>
      </trkpt>
      <trkpt lat="49.17405" lon="2.3887">
        <ele>90.507313</ele>
        <time>2025-06-19T08:38:24.511Z</time>
      </trkpt>
      <trkpt lat="49.17392" lon="2.38869">
        <ele>90.39695</ele>
        <time>2025-06-19T08:38:26.508Z</time>
      </trkpt>
      <trkpt lat="49.1738" lon="2.38869">
        <ele>90.29885</ele>
        <time>2025-06-19T08:38:28.517Z</time>
      </trkpt>
      <trkpt lat="49.17366" lon="2.38866">
        <ele>90.183027</ele>
        <time>2025-06-19T08:38:31.528Z</time>
      </trkpt>
      <trkpt lat="49.17354" lon="2.38865">
        <ele>90.082253</ele>
        <time>2025-06-19T08:38:33.514Z</time>
      </trkpt>
      <trkpt lat="49.17344" lon="2.38864">
        <ele>90.001519</ele>
        <time>2025-06-19T08:38:35.517Z</time>
      </trkpt>
      <trkpt lat="49.17332" lon="2.38862">
        <ele>89.901573</ele>
        <time>2025-06-19T08:38:37.508Z</time>
      </trkpt>
      <trkpt lat="49.1732" lon="2.38859">
        <ele>89.761775</ele>
        <time>2025-06-19T08:38:39.516Z</time>
      </trkpt>
      <trkpt lat="49.17309" lon="2.38858">
        <ele>89.556095</ele>
        <time>2025-06-19T08:38:41.508Z</time>
      </trkpt>
      <trkpt lat="49.17298" lon="2.38853">
        <ele>89.34286</ele>
        <time>2025-06-19T08:38:43.504Z</time>
      </trkpt>
      <trkpt lat="49.17286" lon="2.38852">
        <ele>89.134355</ele>
        <time>2025-06-19T08:38:45.508Z</time>
      </trkpt>
      <trkpt lat="49.17273" lon="2.38855">
        <ele>88.884345</ele>
        <time>2025-06-19T08:38:47.514Z</time>
      </trkpt>
      <trkpt lat="49.1726" lon="2.38855">
        <ele>88.647867</ele>
        <time>2025-06-19T08:38:49.505Z</time>
      </trkpt>
      <trkpt lat="49.17247" lon="2.38856">
        <ele>88.413015</ele>
        <time>2025-06-19T08:38:51.504Z</time>
      </trkpt>
      <trkpt lat="49.17235" lon="2.38856">
        <ele>88.192996</ele>
        <time>2025-06-19T08:38:53.512Z</time>
      </trkpt>
      <trkpt lat="49.17222" lon="2.38855">
        <ele>87.96365</ele>
        <time>2025-06-19T08:38:55.504Z</time>
      </trkpt>
      <trkpt lat="49.17209" lon="2.38854">
        <ele>87.719772</ele>
        <time>2025-06-19T08:38:57.505Z</time>
      </trkpt>
      <trkpt lat="49.17195" lon="2.38853">
        <ele>87.464996</ele>
        <time>2025-06-19T08:38:59.507Z</time>
      </trkpt>
      <trkpt lat="49.17181" lon="2.38853">
        <ele>87.208601</ele>
        <time>2025-06-19T08:39:01.511Z</time>
      </trkpt>
      <trkpt lat="49.17167" lon="2.38853">
        <ele>86.954037</ele>
        <time>2025-06-19T08:39:03.509Z</time>
      </trkpt>
      <trkpt lat="49.17153" lon="2.38852">
        <ele>86.71207</ele>
        <time>2025-06-19T08:39:05.517Z</time>
      </trkpt>
      <trkpt lat="49.17141" lon="2.38851">
        <ele>86.561117</ele>
        <time>2025-06-19T08:39:07.516Z</time>
      </trkpt>
      <trkpt lat="49.17128" lon="2.3885">
        <ele>86.532603</ele>
        <time>2025-06-19T08:39:09.515Z</time>
      </trkpt>
      <trkpt lat="49.17114" lon="2.38849">
        <ele>86.504141</ele>
        <time>2025-06-19T08:39:11.507Z</time>
      </trkpt>
      <trkpt lat="49.17102" lon="2.38848">
        <ele>86.47605</ele>
        <time>2025-06-19T08:39:13.505Z</time>
      </trkpt>
      <trkpt lat="49.17088" lon="2.38847">
        <ele>86.447153</ele>
        <time>2025-06-19T08:39:15.504Z</time>
      </trkpt>
      <trkpt lat="49.17075" lon="2.38845">
        <ele>86.419039</ele>
        <time>2025-06-19T08:39:17.500Z</time>
      </trkpt>
      <trkpt lat="49.17063" lon="2.38845">
        <ele>86.39253</ele>
        <time>2025-06-19T08:39:19.518Z</time>
      </trkpt>
      <trkpt lat="49.17051" lon="2.38843">
        <ele>86.365776</ele>
        <time>2025-06-19T08:39:21.510Z</time>
      </trkpt>
      <trkpt lat="49.17039" lon="2.38842">
        <ele>86.339457</ele>
        <time>2025-06-19T08:39:23.513Z</time>
      </trkpt>
      <trkpt lat="49.17026" lon="2.38842">
        <ele>86.312725</ele>
        <time>2025-06-19T08:39:25.511Z</time>
      </trkpt>
      <trkpt lat="49.17014" lon="2.38841">
        <ele>86.284902</ele>
        <time>2025-06-19T08:39:27.505Z</time>
      </trkpt>
      <trkpt lat="49.17" lon="2.3884">
        <ele>86.254704</ele>
        <time>2025-06-19T08:39:29.525Z</time>
      </trkpt>
      <trkpt lat="49.16986" lon="2.38839">
        <ele>86.225124</ele>
        <time>2025-06-19T08:39:31.518Z</time>
      </trkpt>
      <trkpt lat="49.16973" lon="2.38838">
        <ele>86.195794</ele>
        <time>2025-06-19T08:39:33.513Z</time>
      </trkpt>
      <trkpt lat="49.1696" lon="2.38838">
        <ele>86.240124</ele>
        <time>2025-06-19T08:39:35.511Z</time>
      </trkpt>
      <trkpt lat="49.16948" lon="2.38837">
        <ele>86.355691</ele>
        <time>2025-06-19T08:39:37.509Z</time>
      </trkpt>
      <trkpt lat="49.16937" lon="2.38835">
        <ele>86.462853</ele>
        <time>2025-06-19T08:39:39.516Z</time>
      </trkpt>
      <trkpt lat="49.16925" lon="2.38834">
        <ele>86.581561</ele>
        <time>2025-06-19T08:39:41.506Z</time>
      </trkpt>
      <trkpt lat="49.16912" lon="2.38834">
        <ele>86.709765</ele>
        <time>2025-06-19T08:39:43.512Z</time>
      </trkpt>
      <trkpt lat="49.16898" lon="2.38834">
        <ele>86.847767</ele>
        <time>2025-06-19T08:39:45.523Z</time>
      </trkpt>
      <trkpt lat="49.16886" lon="2.38833">
        <ele>86.962383</ele>
        <time>2025-06-19T08:39:47.505Z</time>
      </trkpt>
      <trkpt lat="49.16875" lon="2.38831">
        <ele>87.070355</ele>
        <time>2025-06-19T08:39:49.516Z</time>
      </trkpt>
      <trkpt lat="49.16863" lon="2.3883">
        <ele>87.189957</ele>
        <time>2025-06-19T08:39:51.505Z</time>
      </trkpt>
      <trkpt lat="49.16851" lon="2.3883">
        <ele>87.309435</ele>
        <time>2025-06-19T08:39:53.503Z</time>
      </trkpt>
      <trkpt lat="49.1684" lon="2.38828">
        <ele>87.42062</ele>
        <time>2025-06-19T08:39:55.513Z</time>
      </trkpt>
      <trkpt lat="49.16827" lon="2.38828">
        <ele>87.548848</ele>
        <time>2025-06-19T08:39:57.516Z</time>
      </trkpt>
      <trkpt lat="49.16814" lon="2.38826">
        <ele>87.673729</ele>
        <time>2025-06-19T08:39:59.524Z</time>
      </trkpt>
      <trkpt lat="49.16801" lon="2.38826">
        <ele>87.798059</ele>
        <time>2025-06-19T08:40:01.511Z</time>
      </trkpt>
      <trkpt lat="49.1679" lon="2.38824">
        <ele>87.908567</ele>
        <time>2025-06-19T08:40:03.508Z</time>
      </trkpt>
      <trkpt lat="49.16779" lon="2.38823">
        <ele>87.799213</ele>
        <time>2025-06-19T08:40:05.520Z</time>
      </trkpt>
      <trkpt lat="49.16767" lon="2.38823">
        <ele>87.564573</ele>
        <time>2025-06-19T08:40:07.506Z</time>
      </trkpt>
      <trkpt lat="49.16757" lon="2.38823">
        <ele>87.381079</ele>
        <time>2025-06-19T08:40:09.520Z</time>
      </trkpt>
      <trkpt lat="49.16746" lon="2.38822">
        <ele>87.172903</ele>
        <time>2025-06-19T08:40:11.525Z</time>
      </trkpt>
      <trkpt lat="49.16735" lon="2.38821">
        <ele>86.962353</ele>
        <time>2025-06-19T08:40:13.524Z</time>
      </trkpt>
      <trkpt lat="49.16725" lon="2.3882">
        <ele>86.776506</ele>
        <time>2025-06-19T08:40:15.513Z</time>
      </trkpt>
      <trkpt lat="49.16716" lon="2.3882">
        <ele>86.60061</ele>
        <time>2025-06-19T08:40:17.518Z</time>
      </trkpt>
      <trkpt lat="49.16707" lon="2.38818">
        <ele>86.429099</ele>
        <time>2025-06-19T08:40:19.513Z</time>
      </trkpt>
      <trkpt lat="49.16695" lon="2.38818">
        <ele>86.205705</ele>
        <time>2025-06-19T08:40:22.512Z</time>
      </trkpt>
      <trkpt lat="49.16685" lon="2.38816">
        <ele>86.017549</ele>
        <time>2025-06-19T08:40:25.514Z</time>
      </trkpt>
      <trkpt lat="49.16674" lon="2.38805">
        <ele>85.764574</ele>
        <time>2025-06-19T08:40:28.507Z</time>
      </trkpt>
      <trkpt lat="49.16665" lon="2.38796">
        <ele>85.559614</ele>
        <time>2025-06-19T08:40:30.504Z</time>
      </trkpt>
      <trkpt lat="49.16652" lon="2.38791">
        <ele>85.313418</ele>
        <time>2025-06-19T08:40:32.510Z</time>
      </trkpt>
      <trkpt lat="49.1664" lon="2.38796">
        <ele>85.079737</ele>
        <time>2025-06-19T08:40:34.502Z</time>
      </trkpt>
      <trkpt lat="49.16629" lon="2.38804">
        <ele>84.856757</ele>
        <time>2025-06-19T08:40:36.510Z</time>
      </trkpt>
      <trkpt lat="49.16618" lon="2.38808">
        <ele>84.633974</ele>
        <time>2025-06-19T08:40:38.503Z</time>
      </trkpt>
      <trkpt lat="49.16606" lon="2.38808">
        <ele>84.524641</ele>
        <time>2025-06-19T08:40:40.505Z</time>
      </trkpt>
      <trkpt lat="49.16593" lon="2.38808">
        <ele>84.497077</ele>
        <time>2025-06-19T08:40:42.501Z</time>
      </trkpt>
      <trkpt lat="49.16579" lon="2.38806">
        <ele>84.466763</ele>
        <time>2025-06-19T08:40:44.501Z</time>
      </trkpt>
      <trkpt lat="49.16566" lon="2.38805">
        <ele>84.436796</ele>
        <time>2025-06-19T08:40:46.500Z</time>
      </trkpt>
      <trkpt lat="49.16551" lon="2.38804">
        <ele>84.405931</ele>
        <time>2025-06-19T08:40:48.509Z</time>
      </trkpt>
      <trkpt lat="49.16537" lon="2.38803">
        <ele>84.375072</ele>
        <time>2025-06-19T08:40:50.507Z</time>
      </trkpt>
      <trkpt lat="49.16522" lon="2.38802">
        <ele>84.342286</ele>
        <time>2025-06-19T08:40:52.509Z</time>
      </trkpt>
      <trkpt lat="49.16509" lon="2.38802">
        <ele>84.313854</ele>
        <time>2025-06-19T08:40:54.512Z</time>
      </trkpt>
      <trkpt lat="49.16496" lon="2.38801">
        <ele>84.284921</ele>
        <time>2025-06-19T08:40:56.497Z</time>
      </trkpt>
      <trkpt lat="49.16484" lon="2.38801">
        <ele>84.258654</ele>
        <time>2025-06-19T08:40:58.506Z</time>
      </trkpt>
      <trkpt lat="49.1647" lon="2.38801">
        <ele>84.229783</ele>
        <time>2025-06-19T08:41:00.509Z</time>
      </trkpt>
      <trkpt lat="49.16456" lon="2.38799">
        <ele>84.199757</ele>
        <time>2025-06-19T08:41:02.506Z</time>
      </trkpt>
      <trkpt lat="49.16445" lon="2.38801">
        <ele>84.174047</ele>
        <time>2025-06-19T08:41:04.504Z</time>
      </trkpt>
      <trkpt lat="49.16431" lon="2.388">
        <ele>84.128427</ele>
        <time>2025-06-19T08:41:06.502Z</time>
      </trkpt>
      <trkpt lat="49.16418" lon="2.388">
        <ele>83.99148</ele>
        <time>2025-06-19T08:41:08.507Z</time>
      </trkpt>
      <trkpt lat="49.16403" lon="2.38799">
        <ele>83.848541</ele>
        <time>2025-06-19T08:41:10.499Z</time>
      </trkpt>
      <trkpt lat="49.16389" lon="2.38796">
        <ele>83.701536</ele>
        <time>2025-06-19T08:41:12.505Z</time>
      </trkpt>
      <trkpt lat="49.16375" lon="2.38795">
        <ele>83.563363</ele>
        <time>2025-06-19T08:41:14.505Z</time>
      </trkpt>
      <trkpt lat="49.16362" lon="2.38794">
        <ele>83.436314</ele>
        <time>2025-06-19T08:41:16.497Z</time>
      </trkpt>
      <trkpt lat="49.16349" lon="2.38792">
        <ele>83.299877</ele>
        <time>2025-06-19T08:41:18.515Z</time>
      </trkpt>
      <trkpt lat="49.16334" lon="2.3879">
        <ele>83.154636</ele>
        <time>2025-06-19T08:41:20.510Z</time>
      </trkpt>
      <trkpt lat="49.1632" lon="2.38788">
        <ele>83.015724</ele>
        <time>2025-06-19T08:41:22.510Z</time>
      </trkpt>
      <trkpt lat="49.16308" lon="2.38786">
        <ele>82.8914</ele>
        <time>2025-06-19T08:41:24.513Z</time>
      </trkpt>
      <trkpt lat="49.16296" lon="2.38784">
        <ele>82.771866</ele>
        <time>2025-06-19T08:41:26.505Z</time>
      </trkpt>
      <trkpt lat="49.16284" lon="2.38782">
        <ele>82.656234</ele>
        <time>2025-06-19T08:41:28.502Z</time>
      </trkpt>
      <trkpt lat="49.16273" lon="2.38778">
        <ele>82.543849</ele>
        <time>2025-06-19T08:41:30.502Z</time>
      </trkpt>
      <trkpt lat="49.16264" lon="2.38767">
        <ele>82.423611</ele>
        <time>2025-06-19T08:41:32.502Z</time>
      </trkpt>
      <trkpt lat="49.16254" lon="2.38756">
        <ele>82.2742</ele>
        <time>2025-06-19T08:41:34.508Z</time>
      </trkpt>
      <trkpt lat="49.16242" lon="2.38754">
        <ele>82.090748</ele>
        <time>2025-06-19T08:41:36.515Z</time>
      </trkpt>
      <trkpt lat="49.16229" lon="2.38759">
        <ele>81.899852</ele>
        <time>2025-06-19T08:41:38.503Z</time>
      </trkpt>
      <trkpt lat="49.16216" lon="2.38757">
        <ele>81.708186</ele>
        <time>2025-06-19T08:41:40.510Z</time>
      </trkpt>
      <trkpt lat="49.16203" lon="2.38751">
        <ele>81.506085</ele>
        <time>2025-06-19T08:41:42.507Z</time>
      </trkpt>
      <trkpt lat="49.1619" lon="2.38745">
        <ele>81.302265</ele>
        <time>2025-06-19T08:41:44.505Z</time>
      </trkpt>
      <trkpt lat="49.16178" lon="2.38738">
        <ele>81.11323</ele>
        <time>2025-06-19T08:41:46.512Z</time>
      </trkpt>
      <trkpt lat="49.16167" lon="2.38734">
        <ele>80.929307</ele>
        <time>2025-06-19T08:41:48.508Z</time>
      </trkpt>
      <trkpt lat="49.16155" lon="2.38729">
        <ele>80.754016</ele>
        <time>2025-06-19T08:41:50.508Z</time>
      </trkpt>
      <trkpt lat="49.16144" lon="2.38722">
        <ele>80.566868</ele>
        <time>2025-06-19T08:41:52.502Z</time>
      </trkpt>
      <trkpt lat="49.16131" lon="2.38714">
        <ele>80.364259</ele>
        <time>2025-06-19T08:41:54.504Z</time>
      </trkpt>
      <trkpt lat="49.16118" lon="2.38708">
        <ele>80.161317</ele>
        <time>2025-06-19T08:41:56.498Z</time>
      </trkpt>
      <trkpt lat="49.16105" lon="2.38701">
        <ele>79.961227</ele>
        <time>2025-06-19T08:41:58.503Z</time>
      </trkpt>
      <trkpt lat="49.16093" lon="2.38695">
        <ele>79.762771</ele>
        <time>2025-06-19T08:42:00.507Z</time>
      </trkpt>
      <trkpt lat="49.1608" lon="2.38687">
        <ele>79.551867</ele>
        <time>2025-06-19T08:42:02.508Z</time>
      </trkpt>
      <trkpt lat="49.16067" lon="2.3868">
        <ele>79.323859</ele>
        <time>2025-06-19T08:42:04.505Z</time>
      </trkpt>
      <trkpt lat="49.16053" lon="2.38672">
        <ele>79.079089</ele>
        <time>2025-06-19T08:42:06.504Z</time>
      </trkpt>
      <trkpt lat="49.16039" lon="2.38663">
        <ele>78.835263</ele>
        <time>2025-06-19T08:42:08.501Z</time>
      </trkpt>
      <trkpt lat="49.16025" lon="2.38655">
        <ele>78.595698</ele>
        <time>2025-06-19T08:42:10.500Z</time>
      </trkpt>
      <trkpt lat="49.16011" lon="2.38647">
        <ele>78.358776</ele>
        <time>2025-06-19T08:42:12.508Z</time>
      </trkpt>
      <trkpt lat="49.15998" lon="2.38639">
        <ele>78.126805</ele>
        <time>2025-06-19T08:42:14.503Z</time>
      </trkpt>
      <trkpt lat="49.15985" lon="2.3863">
        <ele>77.899631</ele>
        <time>2025-06-19T08:42:16.510Z</time>
      </trkpt>
      <trkpt lat="49.15972" lon="2.38622">
        <ele>77.682603</ele>
        <time>2025-06-19T08:42:18.507Z</time>
      </trkpt>
      <trkpt lat="49.1596" lon="2.38615">
        <ele>77.470169</ele>
        <time>2025-06-19T08:42:20.509Z</time>
      </trkpt>
      <trkpt lat="49.15948" lon="2.38608">
        <ele>77.268681</ele>
        <time>2025-06-19T08:42:22.510Z</time>
      </trkpt>
      <trkpt lat="49.15937" lon="2.386">
        <ele>77.061574</ele>
        <time>2025-06-19T08:42:24.519Z</time>
      </trkpt>
      <trkpt lat="49.15925" lon="2.38591">
        <ele>76.848573</ele>
        <time>2025-06-19T08:42:26.504Z</time>
      </trkpt>
      <trkpt lat="49.15913" lon="2.38583">
        <ele>76.679119</ele>
        <time>2025-06-19T08:42:28.518Z</time>
      </trkpt>
      <trkpt lat="49.15901" lon="2.38576">
        <ele>76.538429</ele>
        <time>2025-06-19T08:42:30.508Z</time>
      </trkpt>
      <trkpt lat="49.15888" lon="2.38568">
        <ele>76.392092</ele>
        <time>2025-06-19T08:42:32.505Z</time>
      </trkpt>
      <trkpt lat="49.15876" lon="2.38561">
        <ele>76.252418</ele>
        <time>2025-06-19T08:42:34.503Z</time>
      </trkpt>
      <trkpt lat="49.15864" lon="2.38552">
        <ele>76.108674</ele>
        <time>2025-06-19T08:42:36.511Z</time>
      </trkpt>
      <trkpt lat="49.15853" lon="2.38546">
        <ele>75.98121</ele>
        <time>2025-06-19T08:42:38.508Z</time>
      </trkpt>
      <trkpt lat="49.15842" lon="2.38539">
        <ele>75.845038</ele>
        <time>2025-06-19T08:42:40.509Z</time>
      </trkpt>
      <trkpt lat="49.1583" lon="2.38531">
        <ele>75.698152</ele>
        <time>2025-06-19T08:42:42.518Z</time>
      </trkpt>
      <trkpt lat="49.15817" lon="2.38522">
        <ele>75.544275</ele>
        <time>2025-06-19T08:42:44.515Z</time>
      </trkpt>
      <trkpt lat="49.15804" lon="2.38514">
        <ele>75.396542</ele>
        <time>2025-06-19T08:42:46.516Z</time>
      </trkpt>
      <trkpt lat="49.15792" lon="2.38506">
        <ele>75.255375</ele>
        <time>2025-06-19T08:42:48.515Z</time>
      </trkpt>
      <trkpt lat="49.15781" lon="2.38498">
        <ele>75.113211</ele>
        <time>2025-06-19T08:42:50.509Z</time>
      </trkpt>
      <trkpt lat="49.1577" lon="2.38489">
        <ele>74.987041</ele>
        <time>2025-06-19T08:42:52.508Z</time>
      </trkpt>
      <trkpt lat="49.15759" lon="2.38481">
        <ele>74.847162</ele>
        <time>2025-06-19T08:42:54.507Z</time>
      </trkpt>
      <trkpt lat="49.15747" lon="2.38474">
        <ele>74.826475</ele>
        <time>2025-06-19T08:42:56.507Z</time>
      </trkpt>
      <trkpt lat="49.15735" lon="2.38466">
        <ele>74.856135</ele>
        <time>2025-06-19T08:42:58.505Z</time>
      </trkpt>
      <trkpt lat="49.15723" lon="2.38459">
        <ele>74.887182</ele>
        <time>2025-06-19T08:43:00.509Z</time>
      </trkpt>
      <trkpt lat="49.15712" lon="2.38451">
        <ele>74.915206</ele>
        <time>2025-06-19T08:43:02.517Z</time>
      </trkpt>
      <trkpt lat="49.157" lon="2.38444">
        <ele>74.945534</ele>
        <time>2025-06-19T08:43:04.506Z</time>
      </trkpt>
      <trkpt lat="49.15689" lon="2.38437">
        <ele>74.975307</ele>
        <time>2025-06-19T08:43:06.504Z</time>
      </trkpt>
      <trkpt lat="49.15677" lon="2.3843">
        <ele>75.00597</ele>
        <time>2025-06-19T08:43:08.516Z</time>
      </trkpt>
      <trkpt lat="49.15664" lon="2.38422">
        <ele>75.037016</ele>
        <time>2025-06-19T08:43:10.512Z</time>
      </trkpt>
      <trkpt lat="49.15653" lon="2.38415">
        <ele>75.067263</ele>
        <time>2025-06-19T08:43:12.512Z</time>
      </trkpt>
      <trkpt lat="49.15641" lon="2.38407">
        <ele>75.097049</ele>
        <time>2025-06-19T08:43:14.510Z</time>
      </trkpt>
      <trkpt lat="49.1563" lon="2.384">
        <ele>75.125745</ele>
        <time>2025-06-19T08:43:16.514Z</time>
      </trkpt>
      <trkpt lat="49.15619" lon="2.38393">
        <ele>75.154477</ele>
        <time>2025-06-19T08:43:18.505Z</time>
      </trkpt>
      <trkpt lat="49.15608" lon="2.38385">
        <ele>75.183111</ele>
        <time>2025-06-19T08:43:20.502Z</time>
      </trkpt>
      <trkpt lat="49.15598" lon="2.38378">
        <ele>75.20939</ele>
        <time>2025-06-19T08:43:22.509Z</time>
      </trkpt>
      <trkpt lat="49.15587" lon="2.38371">
        <ele>75.238515</ele>
        <time>2025-06-19T08:43:24.507Z</time>
      </trkpt>
      <trkpt lat="49.15575" lon="2.38365">
        <ele>75.271126</ele>
        <time>2025-06-19T08:43:26.514Z</time>
      </trkpt>
      <trkpt lat="49.15565" lon="2.38358">
        <ele>75.303253</ele>
        <time>2025-06-19T08:43:28.517Z</time>
      </trkpt>
      <trkpt lat="49.15554" lon="2.3835">
        <ele>75.334984</ele>
        <time>2025-06-19T08:43:30.511Z</time>
      </trkpt>
      <trkpt lat="49.15543" lon="2.38343">
        <ele>75.368045</ele>
        <time>2025-06-19T08:43:32.511Z</time>
      </trkpt>
      <trkpt lat="49.15531" lon="2.38335">
        <ele>75.402628</ele>
        <time>2025-06-19T08:43:34.509Z</time>
      </trkpt>
      <trkpt lat="49.15518" lon="2.38328">
        <ele>75.439418</ele>
        <time>2025-06-19T08:43:36.516Z</time>
      </trkpt>
      <trkpt lat="49.15506" lon="2.3832">
        <ele>75.474706</ele>
        <time>2025-06-19T08:43:38.522Z</time>
      </trkpt>
      <trkpt lat="49.15494" lon="2.38312">
        <ele>75.511091</ele>
        <time>2025-06-19T08:43:40.510Z</time>
      </trkpt>
      <trkpt lat="49.15481" lon="2.38304">
        <ele>75.549003</ele>
        <time>2025-06-19T08:43:42.522Z</time>
      </trkpt>
      <trkpt lat="49.1547" lon="2.38296">
        <ele>75.58095</ele>
        <time>2025-06-19T08:43:44.508Z</time>
      </trkpt>
      <trkpt lat="49.15457" lon="2.38287">
        <ele>75.620141</ele>
        <time>2025-06-19T08:43:46.514Z</time>
      </trkpt>
      <trkpt lat="49.15446" lon="2.3828">
        <ele>75.652448</ele>
        <time>2025-06-19T08:43:48.516Z</time>
      </trkpt>
      <trkpt lat="49.15436" lon="2.38273">
        <ele>75.682666</ele>
        <time>2025-06-19T08:43:50.519Z</time>
      </trkpt>
      <trkpt lat="49.15423" lon="2.38265">
        <ele>75.71986</ele>
        <time>2025-06-19T08:43:52.509Z</time>
      </trkpt>
      <trkpt lat="49.15412" lon="2.38257">
        <ele>75.750638</ele>
        <time>2025-06-19T08:43:54.503Z</time>
      </trkpt>
      <trkpt lat="49.154" lon="2.38251">
        <ele>75.780744</ele>
        <time>2025-06-19T08:43:56.504Z</time>
      </trkpt>
      <trkpt lat="49.15389" lon="2.38244">
        <ele>75.80922</ele>
        <time>2025-06-19T08:43:58.508Z</time>
      </trkpt>
      <trkpt lat="49.15376" lon="2.38236">
        <ele>75.841273</ele>
        <time>2025-06-19T08:44:00.509Z</time>
      </trkpt>
      <trkpt lat="49.15366" lon="2.38228">
        <ele>75.870074</ele>
        <time>2025-06-19T08:44:02.516Z</time>
      </trkpt>
      <trkpt lat="49.15355" lon="2.38219">
        <ele>75.899159</ele>
        <time>2025-06-19T08:44:04.519Z</time>
      </trkpt>
      <trkpt lat="49.15343" lon="2.38212">
        <ele>75.929989</ele>
        <time>2025-06-19T08:44:06.508Z</time>
      </trkpt>
      <trkpt lat="49.15331" lon="2.38206">
        <ele>75.959474</ele>
        <time>2025-06-19T08:44:08.517Z</time>
      </trkpt>
      <trkpt lat="49.1532" lon="2.38199">
        <ele>75.988847</ele>
        <time>2025-06-19T08:44:10.510Z</time>
      </trkpt>
      <trkpt lat="49.15309" lon="2.38192">
        <ele>76.018617</ele>
        <time>2025-06-19T08:44:12.508Z</time>
      </trkpt>
      <trkpt lat="49.15298" lon="2.38185">
        <ele>76.044983</ele>
        <time>2025-06-19T08:44:14.512Z</time>
      </trkpt>
      <trkpt lat="49.15289" lon="2.38178">
        <ele>76.070444</ele>
        <time>2025-06-19T08:44:16.512Z</time>
      </trkpt>
      <trkpt lat="49.15279" lon="2.38171">
        <ele>76.096748</ele>
        <time>2025-06-19T08:44:18.516Z</time>
      </trkpt>
      <trkpt lat="49.15269" lon="2.38164">
        <ele>76.122736</ele>
        <time>2025-06-19T08:44:20.509Z</time>
      </trkpt>
      <trkpt lat="49.15258" lon="2.38158">
        <ele>76.153194</ele>
        <time>2025-06-19T08:44:22.506Z</time>
      </trkpt>
      <trkpt lat="49.15248" lon="2.3815">
        <ele>76.252572</ele>
        <time>2025-06-19T08:44:24.515Z</time>
      </trkpt>
      <trkpt lat="49.15236" lon="2.38144">
        <ele>76.356057</ele>
        <time>2025-06-19T08:44:26.510Z</time>
      </trkpt>
      <trkpt lat="49.15226" lon="2.38137">
        <ele>76.45679</ele>
        <time>2025-06-19T08:44:28.507Z</time>
      </trkpt>
      <trkpt lat="49.15215" lon="2.3813">
        <ele>76.556878</ele>
        <time>2025-06-19T08:44:30.507Z</time>
      </trkpt>
      <trkpt lat="49.15204" lon="2.38123">
        <ele>76.659294</ele>
        <time>2025-06-19T08:44:32.506Z</time>
      </trkpt>
      <trkpt lat="49.15193" lon="2.38116">
        <ele>76.759018</ele>
        <time>2025-06-19T08:44:34.514Z</time>
      </trkpt>
      <trkpt lat="49.15183" lon="2.38109">
        <ele>76.854494</ele>
        <time>2025-06-19T08:44:36.513Z</time>
      </trkpt>
      <trkpt lat="49.15172" lon="2.38102">
        <ele>76.957248</ele>
        <time>2025-06-19T08:44:38.514Z</time>
      </trkpt>
      <trkpt lat="49.15161" lon="2.38095">
        <ele>77.057315</ele>
        <time>2025-06-19T08:44:40.516Z</time>
      </trkpt>
      <trkpt lat="49.15151" lon="2.38088">
        <ele>77.156187</ele>
        <time>2025-06-19T08:44:42.503Z</time>
      </trkpt>
      <trkpt lat="49.1514" lon="2.38082">
        <ele>77.251083</ele>
        <time>2025-06-19T08:44:44.508Z</time>
      </trkpt>
      <trkpt lat="49.1513" lon="2.38075">
        <ele>77.343962</ele>
        <time>2025-06-19T08:44:46.510Z</time>
      </trkpt>
      <trkpt lat="49.15121" lon="2.38069">
        <ele>77.434464</ele>
        <time>2025-06-19T08:44:48.524Z</time>
      </trkpt>
      <trkpt lat="49.15112" lon="2.38063">
        <ele>77.513384</ele>
        <time>2025-06-19T08:44:50.510Z</time>
      </trkpt>
      <trkpt lat="49.15102" lon="2.38057">
        <ele>77.612051</ele>
        <time>2025-06-19T08:44:52.515Z</time>
      </trkpt>
      <trkpt lat="49.15091" lon="2.3805">
        <ele>77.704609</ele>
        <time>2025-06-19T08:44:54.502Z</time>
      </trkpt>
      <trkpt lat="49.15079" lon="2.38042">
        <ele>77.762922</ele>
        <time>2025-06-19T08:44:56.514Z</time>
      </trkpt>
      <trkpt lat="49.15069" lon="2.38036">
        <ele>77.814901</ele>
        <time>2025-06-19T08:44:58.502Z</time>
      </trkpt>
      <trkpt lat="49.15059" lon="2.3803">
        <ele>77.865534</ele>
        <time>2025-06-19T08:45:00.505Z</time>
      </trkpt>
      <trkpt lat="49.15049" lon="2.38023">
        <ele>77.919845</ele>
        <time>2025-06-19T08:45:02.502Z</time>
      </trkpt>
      <trkpt lat="49.15038" lon="2.38016">
        <ele>77.974659</ele>
        <time>2025-06-19T08:45:04.499Z</time>
      </trkpt>
      <trkpt lat="49.15029" lon="2.38008">
        <ele>78.022463</ele>
        <time>2025-06-19T08:45:06.519Z</time>
      </trkpt>
      <trkpt lat="49.15018" lon="2.38001">
        <ele>78.076934</ele>
        <time>2025-06-19T08:45:08.521Z</time>
      </trkpt>
      <trkpt lat="49.1501" lon="2.37996">
        <ele>78.12037</ele>
        <time>2025-06-19T08:45:10.525Z</time>
      </trkpt>
      <trkpt lat="49.14998" lon="2.37988">
        <ele>78.180432</ele>
        <time>2025-06-19T08:45:13.507Z</time>
      </trkpt>
      <trkpt lat="49.14986" lon="2.37983">
        <ele>78.23672</ele>
        <time>2025-06-19T08:45:16.510Z</time>
      </trkpt>
      <trkpt lat="49.14976" lon="2.3798">
        <ele>78.284839</ele>
        <time>2025-06-19T08:45:19.512Z</time>
      </trkpt>
      <trkpt lat="49.14968" lon="2.37992">
        <ele>78.338966</ele>
        <time>2025-06-19T08:45:22.511Z</time>
      </trkpt>
      <trkpt lat="49.14965" lon="2.38011">
        <ele>78.399392</ele>
        <time>2025-06-19T08:45:25.507Z</time>
      </trkpt>
      <trkpt lat="49.14963" lon="2.38031">
        <ele>78.459663</ele>
        <time>2025-06-19T08:45:28.681Z</time>
      </trkpt>
      <trkpt lat="49.14962" lon="2.38048">
        <ele>78.513727</ele>
        <time>2025-06-19T08:45:31.516Z</time>
      </trkpt>
      <trkpt lat="49.1496" lon="2.38063">
        <ele>78.579978</ele>
        <time>2025-06-19T08:45:34.516Z</time>
      </trkpt>
      <trkpt lat="49.14957" lon="2.38079">
        <ele>78.690725</ele>
        <time>2025-06-19T08:45:37.515Z</time>
      </trkpt>
      <trkpt lat="49.14957" lon="2.38094">
        <ele>78.788423</ele>
        <time>2025-06-19T08:45:39.507Z</time>
      </trkpt>
      <trkpt lat="49.14955" lon="2.3811">
        <ele>78.890436</ele>
        <time>2025-06-19T08:45:41.526Z</time>
      </trkpt>
      <trkpt lat="49.14954" lon="2.38124">
        <ele>78.986227</ele>
        <time>2025-06-19T08:45:43.531Z</time>
      </trkpt>
      <trkpt lat="49.14951" lon="2.38138">
        <ele>79.080573</ele>
        <time>2025-06-19T08:45:45.515Z</time>
      </trkpt>
      <trkpt lat="49.14949" lon="2.38157">
        <ele>79.206145</ele>
        <time>2025-06-19T08:45:48.526Z</time>
      </trkpt>
      <trkpt lat="49.14947" lon="2.38174">
        <ele>79.31746</ele>
        <time>2025-06-19T08:45:51.516Z</time>
      </trkpt>
      <trkpt lat="49.14945" lon="2.3819">
        <ele>79.421445</ele>
        <time>2025-06-19T08:45:55.515Z</time>
      </trkpt>
      <trkpt lat="49.14936" lon="2.38205">
        <ele>79.552806</ele>
        <time>2025-06-19T08:47:11.508Z</time>
      </trkpt>
      <trkpt lat="49.14938" lon="2.38224">
        <ele>79.677761</ele>
        <time>2025-06-19T08:49:48.523Z</time>
      </trkpt>
      <trkpt lat="49.14936" lon="2.38242">
        <ele>79.796783</ele>
        <time>2025-06-19T08:49:51.513Z</time>
      </trkpt>
      <trkpt lat="49.14935" lon="2.38262">
        <ele>79.927253</ele>
        <time>2025-06-19T08:49:54.513Z</time>
      </trkpt>
      <trkpt lat="49.14933" lon="2.38282">
        <ele>80.052961</ele>
        <time>2025-06-19T08:49:57.517Z</time>
      </trkpt>
      <trkpt lat="49.1493" lon="2.38297">
        <ele>80.154996</ele>
        <time>2025-06-19T08:50:00.527Z</time>
      </trkpt>
      <trkpt lat="49.1492" lon="2.38302">
        <ele>80.259979</ele>
        <time>2025-06-19T08:50:04.509Z</time>
      </trkpt>
      <trkpt lat="49.14912" lon="2.38297">
        <ele>80.326763</ele>
        <time>2025-06-19T08:50:15.516Z</time>
      </trkpt>
      <trkpt lat="49.1492" lon="2.38304">
        <ele>80.326551</ele>
        <time>2025-06-19T08:52:46.508Z</time>
      </trkpt>
      <trkpt lat="49.14929" lon="2.38305">
        <ele>80.326355</ele>
        <time>2025-06-19T08:52:53.507Z</time>
      </trkpt>
      <trkpt lat="49.14936" lon="2.38282">
        <ele>80.326007</ele>
        <time>2025-06-19T08:53:44.528Z</time>
      </trkpt>
      <trkpt lat="49.14937" lon="2.38268">
        <ele>80.325812</ele>
        <time>2025-06-19T08:53:47.517Z</time>
      </trkpt>
      <trkpt lat="49.14939" lon="2.38254">
        <ele>80.325617</ele>
        <time>2025-06-19T08:53:50.515Z</time>
      </trkpt>
      <trkpt lat="49.1494" lon="2.38236">
        <ele>80.325365</ele>
        <time>2025-06-19T08:53:53.513Z</time>
      </trkpt>
      <trkpt lat="49.14942" lon="2.38219">
        <ele>80.325117</ele>
        <time>2025-06-19T08:53:56.505Z</time>
      </trkpt>
      <trkpt lat="49.14944" lon="2.38199">
        <ele>80.324846</ele>
        <time>2025-06-19T08:53:59.508Z</time>
      </trkpt>
      <trkpt lat="49.14945" lon="2.38184">
        <ele>80.324636</ele>
        <time>2025-06-19T08:54:01.507Z</time>
      </trkpt>
      <trkpt lat="49.14947" lon="2.3817">
        <ele>80.324426</ele>
        <time>2025-06-19T08:54:03.509Z</time>
      </trkpt>
      <trkpt lat="49.14949" lon="2.38155">
        <ele>80.324213</ele>
        <time>2025-06-19T08:54:05.522Z</time>
      </trkpt>
      <trkpt lat="49.1495" lon="2.38139">
        <ele>80.323992</ele>
        <time>2025-06-19T08:54:07.511Z</time>
      </trkpt>
      <trkpt lat="49.14952" lon="2.38123">
        <ele>80.323768</ele>
        <time>2025-06-19T08:54:09.511Z</time>
      </trkpt>
      <trkpt lat="49.14954" lon="2.38106">
        <ele>80.32353</ele>
        <time>2025-06-19T08:54:11.524Z</time>
      </trkpt>
      <trkpt lat="49.14956" lon="2.38089">
        <ele>80.323294</ele>
        <time>2025-06-19T08:54:13.520Z</time>
      </trkpt>
      <trkpt lat="49.14957" lon="2.38072">
        <ele>80.323054</ele>
        <time>2025-06-19T08:54:15.521Z</time>
      </trkpt>
      <trkpt lat="49.14959" lon="2.38056">
        <ele>80.271231</ele>
        <time>2025-06-19T08:54:17.505Z</time>
      </trkpt>
      <trkpt lat="49.14961" lon="2.38039">
        <ele>80.201875</ele>
        <time>2025-06-19T08:54:19.516Z</time>
      </trkpt>
      <trkpt lat="49.14963" lon="2.38023">
        <ele>80.133882</ele>
        <time>2025-06-19T08:54:21.497Z</time>
      </trkpt>
      <trkpt lat="49.14965" lon="2.38007">
        <ele>80.068388</ele>
        <time>2025-06-19T08:54:23.516Z</time>
      </trkpt>
      <trkpt lat="49.14967" lon="2.37993">
        <ele>80.01031</ele>
        <time>2025-06-19T08:54:25.507Z</time>
      </trkpt>
      <trkpt lat="49.14971" lon="2.3798">
        <ele>79.947872</ele>
        <time>2025-06-19T08:54:29.507Z</time>
      </trkpt>
      <trkpt lat="49.14967" lon="2.37964">
        <ele>79.879314</ele>
        <time>2025-06-19T08:54:33.505Z</time>
      </trkpt>
      <trkpt lat="49.14955" lon="2.37958">
        <ele>79.797425</ele>
        <time>2025-06-19T08:54:36.495Z</time>
      </trkpt>
      <trkpt lat="49.14942" lon="2.37948">
        <ele>79.708989</ele>
        <time>2025-06-19T08:54:39.503Z</time>
      </trkpt>
      <trkpt lat="49.14932" lon="2.37938">
        <ele>79.634279</ele>
        <time>2025-06-19T08:54:41.511Z</time>
      </trkpt>
      <trkpt lat="49.14922" lon="2.37928">
        <ele>79.556802</ele>
        <time>2025-06-19T08:54:43.514Z</time>
      </trkpt>
      <trkpt lat="49.14911" lon="2.37917">
        <ele>79.477073</ele>
        <time>2025-06-19T08:54:45.508Z</time>
      </trkpt>
      <trkpt lat="49.14903" lon="2.37906">
        <ele>79.409349</ele>
        <time>2025-06-19T08:54:47.505Z</time>
      </trkpt>
      <trkpt lat="49.14893" lon="2.37897">
        <ele>79.332703</ele>
        <time>2025-06-19T08:54:49.504Z</time>
      </trkpt>
      <trkpt lat="49.14883" lon="2.37886">
        <ele>79.25834</ele>
        <time>2025-06-19T08:54:51.503Z</time>
      </trkpt>
      <trkpt lat="49.14874" lon="2.37877">
        <ele>79.188148</ele>
        <time>2025-06-19T08:54:53.509Z</time>
      </trkpt>
      <trkpt lat="49.14865" lon="2.37867">
        <ele>79.122373</ele>
        <time>2025-06-19T08:54:55.512Z</time>
      </trkpt>
      <trkpt lat="49.14857" lon="2.37859">
        <ele>79.06336</ele>
        <time>2025-06-19T08:54:57.503Z</time>
      </trkpt>
      <trkpt lat="49.14849" lon="2.3785">
        <ele>79.001047</ele>
        <time>2025-06-19T08:55:00.509Z</time>
      </trkpt>
      <trkpt lat="49.14834" lon="2.37834">
        <ele>78.889609</ele>
        <time>2025-06-19T08:55:57.505Z</time>
      </trkpt>
      <trkpt lat="49.14826" lon="2.37827">
        <ele>78.830536</ele>
        <time>2025-06-19T08:56:00.504Z</time>
      </trkpt>
      <trkpt lat="49.14816" lon="2.37818">
        <ele>78.762159</ele>
        <time>2025-06-19T08:56:03.504Z</time>
      </trkpt>
      <trkpt lat="49.14808" lon="2.3781">
        <ele>78.705392</ele>
        <time>2025-06-19T08:56:05.504Z</time>
      </trkpt>
      <trkpt lat="49.148" lon="2.37802">
        <ele>78.646727</ele>
        <time>2025-06-19T08:56:07.502Z</time>
      </trkpt>
      <trkpt lat="49.14791" lon="2.37794">
        <ele>78.580417</ele>
        <time>2025-06-19T08:56:09.504Z</time>
      </trkpt>
      <trkpt lat="49.14781" lon="2.37784">
        <ele>78.509223</ele>
        <time>2025-06-19T08:56:11.515Z</time>
      </trkpt>
      <trkpt lat="49.14772" lon="2.37775">
        <ele>78.441866</ele>
        <time>2025-06-19T08:56:13.509Z</time>
      </trkpt>
      <trkpt lat="49.14763" lon="2.37766">
        <ele>78.374853</ele>
        <time>2025-06-19T08:56:15.525Z</time>
      </trkpt>
      <trkpt lat="49.14755" lon="2.37756">
        <ele>78.311366</ele>
        <time>2025-06-19T08:56:17.523Z</time>
      </trkpt>
      <trkpt lat="49.14745" lon="2.37747">
        <ele>78.244247</ele>
        <time>2025-06-19T08:56:19.508Z</time>
      </trkpt>
      <trkpt lat="49.14736" lon="2.37737">
        <ele>78.173152</ele>
        <time>2025-06-19T08:56:21.518Z</time>
      </trkpt>
      <trkpt lat="49.14726" lon="2.37726">
        <ele>78.098135</ele>
        <time>2025-06-19T08:56:23.522Z</time>
      </trkpt>
      <trkpt lat="49.14715" lon="2.37716">
        <ele>77.919135</ele>
        <time>2025-06-19T08:56:25.503Z</time>
      </trkpt>
      <trkpt lat="49.14704" lon="2.37707">
        <ele>77.741974</ele>
        <time>2025-06-19T08:56:27.505Z</time>
      </trkpt>
      <trkpt lat="49.14693" lon="2.37696">
        <ele>77.553107</ele>
        <time>2025-06-19T08:56:29.504Z</time>
      </trkpt>
      <trkpt lat="49.14684" lon="2.37686">
        <ele>77.382613</ele>
        <time>2025-06-19T08:56:31.522Z</time>
      </trkpt>
      <trkpt lat="49.14673" lon="2.37675">
        <ele>77.198967</ele>
        <time>2025-06-19T08:56:33.504Z</time>
      </trkpt>
      <trkpt lat="49.14663" lon="2.37664">
        <ele>77.014216</ele>
        <time>2025-06-19T08:56:35.506Z</time>
      </trkpt>
      <trkpt lat="49.14653" lon="2.37652">
        <ele>76.830086</ele>
        <time>2025-06-19T08:56:37.503Z</time>
      </trkpt>
      <trkpt lat="49.14642" lon="2.37643">
        <ele>76.645503</ele>
        <time>2025-06-19T08:56:39.508Z</time>
      </trkpt>
      <trkpt lat="49.1463" lon="2.37637">
        <ele>76.463486</ele>
        <time>2025-06-19T08:56:41.518Z</time>
      </trkpt>
      <trkpt lat="49.14618" lon="2.37633">
        <ele>76.283079</ele>
        <time>2025-06-19T08:56:43.509Z</time>
      </trkpt>
      <trkpt lat="49.14606" lon="2.37628">
        <ele>76.105781</ele>
        <time>2025-06-19T08:56:45.508Z</time>
      </trkpt>
      <trkpt lat="49.14593" lon="2.37622">
        <ele>75.909004</ele>
        <time>2025-06-19T08:56:47.514Z</time>
      </trkpt>
      <trkpt lat="49.1458" lon="2.37618">
        <ele>75.713261</ele>
        <time>2025-06-19T08:56:49.501Z</time>
      </trkpt>
      <trkpt lat="49.14569" lon="2.37613">
        <ele>75.540271</ele>
        <time>2025-06-19T08:56:51.507Z</time>
      </trkpt>
      <trkpt lat="49.14556" lon="2.37608">
        <ele>75.738759</ele>
        <time>2025-06-19T08:56:53.510Z</time>
      </trkpt>
      <trkpt lat="49.14544" lon="2.37604">
        <ele>76.153774</ele>
        <time>2025-06-19T08:56:55.501Z</time>
      </trkpt>
      <trkpt lat="49.14534" lon="2.376">
        <ele>76.508214</ele>
        <time>2025-06-19T08:56:57.500Z</time>
      </trkpt>
      <trkpt lat="49.14524" lon="2.37595">
        <ele>76.867572</ele>
        <time>2025-06-19T08:56:59.501Z</time>
      </trkpt>
      <trkpt lat="49.14514" lon="2.37591">
        <ele>77.21665</ele>
        <time>2025-06-19T08:57:01.499Z</time>
      </trkpt>
      <trkpt lat="49.145" lon="2.37586">
        <ele>77.675077</ele>
        <time>2025-06-19T08:57:04.504Z</time>
      </trkpt>
      <trkpt lat="49.14492" lon="2.37582">
        <ele>77.979842</ele>
        <time>2025-06-19T08:57:06.505Z</time>
      </trkpt>
      <trkpt lat="49.14479" lon="2.37579">
        <ele>78.415664</ele>
        <time>2025-06-19T08:57:09.506Z</time>
      </trkpt>
      <trkpt lat="49.14466" lon="2.37574">
        <ele>78.842694</ele>
        <time>2025-06-19T08:57:12.508Z</time>
      </trkpt>
      <trkpt lat="49.14454" lon="2.3757">
        <ele>79.276756</ele>
        <time>2025-06-19T08:57:15.500Z</time>
      </trkpt>
      <trkpt lat="49.14441" lon="2.37565">
        <ele>79.710818</ele>
        <time>2025-06-19T08:57:18.503Z</time>
      </trkpt>
      <trkpt lat="49.14429" lon="2.37561">
        <ele>80.145899</ele>
        <time>2025-06-19T08:57:21.501Z</time>
      </trkpt>
      <trkpt lat="49.14416" lon="2.37557">
        <ele>80.587455</ele>
        <time>2025-06-19T08:57:24.506Z</time>
      </trkpt>
      <trkpt lat="49.14403" lon="2.37552">
        <ele>81.013304</ele>
        <time>2025-06-19T08:57:27.503Z</time>
      </trkpt>
      <trkpt lat="49.14391" lon="2.37548">
        <ele>81.439363</ele>
        <time>2025-06-19T08:57:30.500Z</time>
      </trkpt>
      <trkpt lat="49.14379" lon="2.37543">
        <ele>81.799816</ele>
        <time>2025-06-19T08:57:33.507Z</time>
      </trkpt>
      <trkpt lat="49.14368" lon="2.37539">
        <ele>82.141291</ele>
        <time>2025-06-19T08:57:36.503Z</time>
      </trkpt>
      <trkpt lat="49.14356" lon="2.37533">
        <ele>82.492398</ele>
        <time>2025-06-19T08:57:39.508Z</time>
      </trkpt>
      <trkpt lat="49.14345" lon="2.37528">
        <ele>82.849353</ele>
        <time>2025-06-19T08:57:42.507Z</time>
      </trkpt>
      <trkpt lat="49.14333" lon="2.37523">
        <ele>83.209121</ele>
        <time>2025-06-19T08:57:45.505Z</time>
      </trkpt>
      <trkpt lat="49.14322" lon="2.37519">
        <ele>83.535769</ele>
        <time>2025-06-19T08:57:48.499Z</time>
      </trkpt>
      <trkpt lat="49.14311" lon="2.37515">
        <ele>83.868961</ele>
        <time>2025-06-19T08:57:51.506Z</time>
      </trkpt>
      <trkpt lat="49.14299" lon="2.37511">
        <ele>84.202153</ele>
        <time>2025-06-19T08:57:54.510Z</time>
      </trkpt>
      <trkpt lat="49.14288" lon="2.37507">
        <ele>84.526021</ele>
        <time>2025-06-19T08:57:57.509Z</time>
      </trkpt>
      <trkpt lat="49.14278" lon="2.37505">
        <ele>84.841623</ele>
        <time>2025-06-19T08:58:00.508Z</time>
      </trkpt>
      <trkpt lat="49.14267" lon="2.375">
        <ele>85.178934</ele>
        <time>2025-06-19T08:58:03.511Z</time>
      </trkpt>
      <trkpt lat="49.14255" lon="2.37496">
        <ele>85.532394</ele>
        <time>2025-06-19T08:58:06.506Z</time>
      </trkpt>
      <trkpt lat="49.14243" lon="2.37491">
        <ele>85.889829</ele>
        <time>2025-06-19T08:58:09.506Z</time>
      </trkpt>
      <trkpt lat="49.1423" lon="2.37487">
        <ele>86.259532</ele>
        <time>2025-06-19T08:58:12.501Z</time>
      </trkpt>
      <trkpt lat="49.14219" lon="2.37483">
        <ele>86.599658</ele>
        <time>2025-06-19T08:58:15.505Z</time>
      </trkpt>
      <trkpt lat="49.14208" lon="2.37479">
        <ele>86.831963</ele>
        <time>2025-06-19T08:58:18.509Z</time>
      </trkpt>
      <trkpt lat="49.14197" lon="2.37476">
        <ele>87.009087</ele>
        <time>2025-06-19T08:58:21.511Z</time>
      </trkpt>
      <trkpt lat="49.14186" lon="2.37472">
        <ele>87.190423</ele>
        <time>2025-06-19T08:58:24.509Z</time>
      </trkpt>
      <trkpt lat="49.14175" lon="2.37468">
        <ele>87.370721</ele>
        <time>2025-06-19T08:58:27.506Z</time>
      </trkpt>
      <trkpt lat="49.14163" lon="2.37464">
        <ele>87.561336</ele>
        <time>2025-06-19T08:58:30.503Z</time>
      </trkpt>
      <trkpt lat="49.1415" lon="2.3746">
        <ele>87.769224</ele>
        <time>2025-06-19T08:58:33.501Z</time>
      </trkpt>
      <trkpt lat="49.14137" lon="2.37455">
        <ele>87.978516</ele>
        <time>2025-06-19T08:58:36.499Z</time>
      </trkpt>
      <trkpt lat="49.14124" lon="2.3745">
        <ele>88.182975</ele>
        <time>2025-06-19T08:58:39.502Z</time>
      </trkpt>
      <trkpt lat="49.14115" lon="2.37445">
        <ele>88.334468</ele>
        <time>2025-06-19T08:58:41.506Z</time>
      </trkpt>
      <trkpt lat="49.14103" lon="2.37441">
        <ele>88.532075</ele>
        <time>2025-06-19T08:58:44.501Z</time>
      </trkpt>
      <trkpt lat="49.14092" lon="2.37437">
        <ele>88.721307</ele>
        <time>2025-06-19T08:58:47.504Z</time>
      </trkpt>
      <trkpt lat="49.1408" lon="2.37433">
        <ele>88.909857</ele>
        <time>2025-06-19T08:58:50.505Z</time>
      </trkpt>
      <trkpt lat="49.14071" lon="2.37429">
        <ele>89.056882</ele>
        <time>2025-06-19T08:58:52.501Z</time>
      </trkpt>
      <trkpt lat="49.14058" lon="2.37425">
        <ele>89.265687</ele>
        <time>2025-06-19T08:58:55.506Z</time>
      </trkpt>
      <trkpt lat="49.14048" lon="2.37421">
        <ele>89.423691</ele>
        <time>2025-06-19T08:58:57.503Z</time>
      </trkpt>
      <trkpt lat="49.14038" lon="2.37418">
        <ele>89.560769</ele>
        <time>2025-06-19T08:58:59.506Z</time>
      </trkpt>
      <trkpt lat="49.14028" lon="2.37414">
        <ele>89.568892</ele>
        <time>2025-06-19T08:59:01.512Z</time>
      </trkpt>
      <trkpt lat="49.14019" lon="2.37412">
        <ele>89.576103</ele>
        <time>2025-06-19T08:59:03.508Z</time>
      </trkpt>
      <trkpt lat="49.1401" lon="2.37409">
        <ele>89.583539</ele>
        <time>2025-06-19T08:59:05.514Z</time>
      </trkpt>
      <trkpt lat="49.14001" lon="2.37406">
        <ele>89.591463</ele>
        <time>2025-06-19T08:59:07.505Z</time>
      </trkpt>
      <trkpt lat="49.1399" lon="2.37402">
        <ele>89.599768</ele>
        <time>2025-06-19T08:59:09.506Z</time>
      </trkpt>
      <trkpt lat="49.13981" lon="2.37398">
        <ele>89.607904</ele>
        <time>2025-06-19T08:59:11.502Z</time>
      </trkpt>
      <trkpt lat="49.13971" lon="2.37395">
        <ele>89.615561</ele>
        <time>2025-06-19T08:59:13.502Z</time>
      </trkpt>
      <trkpt lat="49.13963" lon="2.37392">
        <ele>89.622726</ele>
        <time>2025-06-19T08:59:15.505Z</time>
      </trkpt>
      <trkpt lat="49.13954" lon="2.37388">
        <ele>89.63015</ele>
        <time>2025-06-19T08:59:17.502Z</time>
      </trkpt>
      <trkpt lat="49.13944" lon="2.37386">
        <ele>89.638044</ele>
        <time>2025-06-19T08:59:19.503Z</time>
      </trkpt>
      <trkpt lat="49.13934" lon="2.37382">
        <ele>89.646013</ele>
        <time>2025-06-19T08:59:21.501Z</time>
      </trkpt>
      <trkpt lat="49.13925" lon="2.37379">
        <ele>89.653781</ele>
        <time>2025-06-19T08:59:23.516Z</time>
      </trkpt>
      <trkpt lat="49.13914" lon="2.37376">
        <ele>89.662443</ele>
        <time>2025-06-19T08:59:25.514Z</time>
      </trkpt>
      <trkpt lat="49.13903" lon="2.37372">
        <ele>89.671366</ele>
        <time>2025-06-19T08:59:27.514Z</time>
      </trkpt>
      <trkpt lat="49.13893" lon="2.37368">
        <ele>89.679566</ele>
        <time>2025-06-19T08:59:29.511Z</time>
      </trkpt>
      <trkpt lat="49.13884" lon="2.37364">
        <ele>89.687468</ele>
        <time>2025-06-19T08:59:31.513Z</time>
      </trkpt>
      <trkpt lat="49.13874" lon="2.37361">
        <ele>89.695539</ele>
        <time>2025-06-19T08:59:33.504Z</time>
      </trkpt>
      <trkpt lat="49.13864" lon="2.37357">
        <ele>89.706775</ele>
        <time>2025-06-19T08:59:35.501Z</time>
      </trkpt>
      <trkpt lat="49.13853" lon="2.37354">
        <ele>89.783321</ele>
        <time>2025-06-19T08:59:37.506Z</time>
      </trkpt>
      <trkpt lat="49.13844" lon="2.37348">
        <ele>89.855128</ele>
        <time>2025-06-19T08:59:39.504Z</time>
      </trkpt>
      <trkpt lat="49.13835" lon="2.37345">
        <ele>89.922408</ele>
        <time>2025-06-19T08:59:41.515Z</time>
      </trkpt>
      <trkpt lat="49.13826" lon="2.3734">
        <ele>89.990311</ele>
        <time>2025-06-19T08:59:43.505Z</time>
      </trkpt>
      <trkpt lat="49.13816" lon="2.37336">
        <ele>90.058605</ele>
        <time>2025-06-19T08:59:45.508Z</time>
      </trkpt>
      <trkpt lat="49.13804" lon="2.37328">
        <ele>90.152473</ele>
        <time>2025-06-19T08:59:48.500Z</time>
      </trkpt>
      <trkpt lat="49.13797" lon="2.37318">
        <ele>90.219256</ele>
        <time>2025-06-19T08:59:50.504Z</time>
      </trkpt>
      <trkpt lat="49.13792" lon="2.37305">
        <ele>90.288505</ele>
        <time>2025-06-19T08:59:52.519Z</time>
      </trkpt>
      <trkpt lat="49.13789" lon="2.3729">
        <ele>90.361416</ele>
        <time>2025-06-19T08:59:54.517Z</time>
      </trkpt>
      <trkpt lat="49.13789" lon="2.37273">
        <ele>90.441614</ele>
        <time>2025-06-19T08:59:56.516Z</time>
      </trkpt>
      <trkpt lat="49.13789" lon="2.37254">
        <ele>90.528752</ele>
        <time>2025-06-19T08:59:58.506Z</time>
      </trkpt>
      <trkpt lat="49.13789" lon="2.37236">
        <ele>90.61501</ele>
        <time>2025-06-19T09:00:00.504Z</time>
      </trkpt>
      <trkpt lat="49.1379" lon="2.37216">
        <ele>90.70533</ele>
        <time>2025-06-19T09:00:02.500Z</time>
      </trkpt>
      <trkpt lat="49.13792" lon="2.37197">
        <ele>90.796573</ele>
        <time>2025-06-19T09:00:04.502Z</time>
      </trkpt>
      <trkpt lat="49.13793" lon="2.37177">
        <ele>90.886829</ele>
        <time>2025-06-19T09:00:06.498Z</time>
      </trkpt>
      <trkpt lat="49.13794" lon="2.37159">
        <ele>90.970691</ele>
        <time>2025-06-19T09:00:08.502Z</time>
      </trkpt>
      <trkpt lat="49.13795" lon="2.37143">
        <ele>91.045078</ele>
        <time>2025-06-19T09:00:10.509Z</time>
      </trkpt>
      <trkpt lat="49.13795" lon="2.37126">
        <ele>91.116698</ele>
        <time>2025-06-19T09:00:12.502Z</time>
      </trkpt>
      <trkpt lat="49.13796" lon="2.37112">
        <ele>91.181019</ele>
        <time>2025-06-19T09:00:14.502Z</time>
      </trkpt>
      <trkpt lat="49.13798" lon="2.37098">
        <ele>91.244593</ele>
        <time>2025-06-19T09:00:16.493Z</time>
      </trkpt>
      <trkpt lat="49.13799" lon="2.37081">
        <ele>91.318979</ele>
        <time>2025-06-19T09:00:18.508Z</time>
      </trkpt>
      <trkpt lat="49.138" lon="2.37064">
        <ele>91.392538</ele>
        <time>2025-06-19T09:00:20.504Z</time>
      </trkpt>
      <trkpt lat="49.13801" lon="2.37049">
        <ele>91.462136</ele>
        <time>2025-06-19T09:00:22.506Z</time>
      </trkpt>
      <trkpt lat="49.13801" lon="2.37032">
        <ele>91.536877</ele>
        <time>2025-06-19T09:00:24.515Z</time>
      </trkpt>
      <trkpt lat="49.13802" lon="2.37015">
        <ele>91.611218</ele>
        <time>2025-06-19T09:00:26.511Z</time>
      </trkpt>
      <trkpt lat="49.13802" lon="2.36998">
        <ele>91.685485</ele>
        <time>2025-06-19T09:00:28.502Z</time>
      </trkpt>
      <trkpt lat="49.13803" lon="2.36982">
        <ele>91.75836</ele>
        <time>2025-06-19T09:00:30.500Z</time>
      </trkpt>
      <trkpt lat="49.13804" lon="2.36965">
        <ele>91.831098</ele>
        <time>2025-06-19T09:00:32.506Z</time>
      </trkpt>
      <trkpt lat="49.13805" lon="2.3695">
        <ele>91.897682</ele>
        <time>2025-06-19T09:00:34.506Z</time>
      </trkpt>
      <trkpt lat="49.13806" lon="2.36936">
        <ele>91.960314</ele>
        <time>2025-06-19T09:00:36.499Z</time>
      </trkpt>
      <trkpt lat="49.13806" lon="2.3692">
        <ele>92.034531</ele>
        <time>2025-06-19T09:00:39.504Z</time>
      </trkpt>
      <trkpt lat="49.13808" lon="2.36904">
        <ele>92.105678</ele>
        <time>2025-06-19T09:00:43.503Z</time>
      </trkpt>
      <trkpt lat="49.13793" lon="2.36879">
        <ele>92.082877</ele>
        <time>2025-06-19T09:01:06.514Z</time>
      </trkpt>
      <trkpt lat="49.13785" lon="2.3687">
        <ele>91.964995</ele>
        <time>2025-06-19T09:01:09.505Z</time>
      </trkpt>
      <trkpt lat="49.13777" lon="2.36863">
        <ele>91.853575</ele>
        <time>2025-06-19T09:01:12.502Z</time>
      </trkpt>
      <trkpt lat="49.13769" lon="2.36852">
        <ele>91.73108</ele>
        <time>2025-06-19T09:01:15.500Z</time>
      </trkpt>
      <trkpt lat="49.1376" lon="2.36842">
        <ele>91.599516</ele>
        <time>2025-06-19T09:01:18.502Z</time>
      </trkpt>
      <trkpt lat="49.1375" lon="2.3683">
        <ele>91.450557</ele>
        <time>2025-06-19T09:01:21.502Z</time>
      </trkpt>
      <trkpt lat="49.1374" lon="2.36817">
        <ele>91.300684</ele>
        <time>2025-06-19T09:01:24.506Z</time>
      </trkpt>
      <trkpt lat="49.13733" lon="2.36809">
        <ele>91.189697</ele>
        <time>2025-06-19T09:01:26.498Z</time>
      </trkpt>
      <trkpt lat="49.13725" lon="2.36801">
        <ele>91.08247</ele>
        <time>2025-06-19T09:01:28.506Z</time>
      </trkpt>
      <trkpt lat="49.13715" lon="2.36788">
        <ele>90.931133</ele>
        <time>2025-06-19T09:01:31.499Z</time>
      </trkpt>
      <trkpt lat="49.13705" lon="2.36775">
        <ele>90.775106</ele>
        <time>2025-06-19T09:01:34.510Z</time>
      </trkpt>
      <trkpt lat="49.13694" lon="2.36764">
        <ele>90.619036</ele>
        <time>2025-06-19T09:01:37.508Z</time>
      </trkpt>
      <trkpt lat="49.13684" lon="2.3675">
        <ele>90.461591</ele>
        <time>2025-06-19T09:01:40.505Z</time>
      </trkpt>
      <trkpt lat="49.13677" lon="2.36742">
        <ele>90.354679</ele>
        <time>2025-06-19T09:01:42.505Z</time>
      </trkpt>
      <trkpt lat="49.13669" lon="2.36734">
        <ele>90.241843</ele>
        <time>2025-06-19T09:01:44.508Z</time>
      </trkpt>
      <trkpt lat="49.13659" lon="2.36723">
        <ele>90.094948</ele>
        <time>2025-06-19T09:01:47.500Z</time>
      </trkpt>
      <trkpt lat="49.13648" lon="2.36712">
        <ele>90.031847</ele>
        <time>2025-06-19T09:01:50.505Z</time>
      </trkpt>
      <trkpt lat="49.13641" lon="2.36702">
        <ele>89.997172</ele>
        <time>2025-06-19T09:01:52.508Z</time>
      </trkpt>
      <trkpt lat="49.13633" lon="2.36691">
        <ele>89.958882</ele>
        <time>2025-06-19T09:01:54.507Z</time>
      </trkpt>
      <trkpt lat="49.13625" lon="2.36681">
        <ele>89.920478</ele>
        <time>2025-06-19T09:01:56.497Z</time>
      </trkpt>
      <trkpt lat="49.13617" lon="2.36669">
        <ele>89.880346</ele>
        <time>2025-06-19T09:01:58.501Z</time>
      </trkpt>
      <trkpt lat="49.13608" lon="2.36658">
        <ele>89.840346</ele>
        <time>2025-06-19T09:02:00.499Z</time>
      </trkpt>
      <trkpt lat="49.136" lon="2.36648">
        <ele>89.803066</ele>
        <time>2025-06-19T09:02:02.506Z</time>
      </trkpt>
      <trkpt lat="49.13592" lon="2.36639">
        <ele>89.766794</ele>
        <time>2025-06-19T09:02:04.504Z</time>
      </trkpt>
      <trkpt lat="49.13584" lon="2.36629">
        <ele>89.732215</ele>
        <time>2025-06-19T09:02:06.497Z</time>
      </trkpt>
      <trkpt lat="49.13577" lon="2.36618">
        <ele>89.694849</ele>
        <time>2025-06-19T09:02:08.502Z</time>
      </trkpt>
      <trkpt lat="49.1357" lon="2.36607">
        <ele>89.65831</ele>
        <time>2025-06-19T09:02:10.500Z</time>
      </trkpt>
      <trkpt lat="49.13561" lon="2.36597">
        <ele>89.620605</ele>
        <time>2025-06-19T09:02:12.506Z</time>
      </trkpt>
      <trkpt lat="49.13553" lon="2.36586">
        <ele>89.581696</ele>
        <time>2025-06-19T09:02:14.504Z</time>
      </trkpt>
      <trkpt lat="49.13544" lon="2.36576">
        <ele>89.540586</ele>
        <time>2025-06-19T09:02:16.498Z</time>
      </trkpt>
      <trkpt lat="49.13536" lon="2.36563">
        <ele>89.498789</ele>
        <time>2025-06-19T09:02:18.508Z</time>
      </trkpt>
      <trkpt lat="49.13527" lon="2.36551">
        <ele>89.456938</ele>
        <time>2025-06-19T09:02:20.502Z</time>
      </trkpt>
      <trkpt lat="49.13519" lon="2.36538">
        <ele>89.441701</ele>
        <time>2025-06-19T09:02:22.504Z</time>
      </trkpt>
      <trkpt lat="49.1351" lon="2.36526">
        <ele>89.482504</ele>
        <time>2025-06-19T09:02:24.501Z</time>
      </trkpt>
      <trkpt lat="49.13502" lon="2.36514">
        <ele>89.523726</ele>
        <time>2025-06-19T09:02:26.495Z</time>
      </trkpt>
      <trkpt lat="49.13494" lon="2.36501">
        <ele>89.564368</ele>
        <time>2025-06-19T09:02:28.501Z</time>
      </trkpt>
      <trkpt lat="49.13488" lon="2.36486">
        <ele>89.605855</ele>
        <time>2025-06-19T09:02:30.502Z</time>
      </trkpt>
      <trkpt lat="49.13481" lon="2.36471">
        <ele>89.648316</ele>
        <time>2025-06-19T09:02:32.504Z</time>
      </trkpt>
      <trkpt lat="49.13476" lon="2.36455">
        <ele>89.690219</ele>
        <time>2025-06-19T09:02:34.501Z</time>
      </trkpt>
      <trkpt lat="49.13471" lon="2.36439">
        <ele>89.732062</ele>
        <time>2025-06-19T09:02:36.494Z</time>
      </trkpt>
      <trkpt lat="49.13466" lon="2.36422">
        <ele>89.775527</ele>
        <time>2025-06-19T09:02:38.503Z</time>
      </trkpt>
      <trkpt lat="49.13462" lon="2.36406">
        <ele>89.815635</ele>
        <time>2025-06-19T09:02:40.502Z</time>
      </trkpt>
      <trkpt lat="49.13456" lon="2.36391">
        <ele>89.855109</ele>
        <time>2025-06-19T09:02:42.507Z</time>
      </trkpt>
      <trkpt lat="49.13452" lon="2.36376">
        <ele>89.891951</ele>
        <time>2025-06-19T09:02:44.508Z</time>
      </trkpt>
      <trkpt lat="49.13448" lon="2.36362">
        <ele>89.927487</ele>
        <time>2025-06-19T09:02:46.508Z</time>
      </trkpt>
      <trkpt lat="49.13445" lon="2.36346">
        <ele>89.9662</ele>
        <time>2025-06-19T09:02:48.499Z</time>
      </trkpt>
      <trkpt lat="49.13441" lon="2.36331">
        <ele>90.005762</ele>
        <time>2025-06-19T09:02:50.503Z</time>
      </trkpt>
      <trkpt lat="49.13437" lon="2.36315">
        <ele>90.044384</ele>
        <time>2025-06-19T09:02:52.503Z</time>
      </trkpt>
      <trkpt lat="49.13433" lon="2.36299">
        <ele>90.109083</ele>
        <time>2025-06-19T09:02:54.507Z</time>
      </trkpt>
      <trkpt lat="49.13429" lon="2.36284">
        <ele>90.199393</ele>
        <time>2025-06-19T09:02:56.501Z</time>
      </trkpt>
      <trkpt lat="49.13426" lon="2.3627">
        <ele>90.27946</ele>
        <time>2025-06-19T09:02:58.512Z</time>
      </trkpt>
      <trkpt lat="49.13424" lon="2.36256">
        <ele>90.359611</ele>
        <time>2025-06-19T09:03:00.506Z</time>
      </trkpt>
      <trkpt lat="49.13422" lon="2.36242">
        <ele>90.441323</ele>
        <time>2025-06-19T09:03:02.513Z</time>
      </trkpt>
      <trkpt lat="49.13419" lon="2.36227">
        <ele>90.52586</ele>
        <time>2025-06-19T09:03:04.507Z</time>
      </trkpt>
      <trkpt lat="49.13415" lon="2.36215">
        <ele>90.604052</ele>
        <time>2025-06-19T09:03:06.497Z</time>
      </trkpt>
      <trkpt lat="49.13412" lon="2.36202">
        <ele>90.681276</ele>
        <time>2025-06-19T09:03:08.502Z</time>
      </trkpt>
      <trkpt lat="49.1341" lon="2.36188">
        <ele>90.75845</ele>
        <time>2025-06-19T09:03:10.503Z</time>
      </trkpt>
      <trkpt lat="49.13408" lon="2.36174">
        <ele>90.838546</ele>
        <time>2025-06-19T09:03:12.501Z</time>
      </trkpt>
      <trkpt lat="49.13405" lon="2.36159">
        <ele>90.922689</ele>
        <time>2025-06-19T09:03:14.507Z</time>
      </trkpt>
      <trkpt lat="49.13403" lon="2.36145">
        <ele>91.004049</ele>
        <time>2025-06-19T09:03:16.496Z</time>
      </trkpt>
      <trkpt lat="49.13401" lon="2.36132">
        <ele>91.083581</ele>
        <time>2025-06-19T09:03:18.499Z</time>
      </trkpt>
      <trkpt lat="49.13398" lon="2.36113">
        <ele>91.188436</ele>
        <time>2025-06-19T09:03:21.506Z</time>
      </trkpt>
      <trkpt lat="49.13395" lon="2.36095">
        <ele>91.291576</ele>
        <time>2025-06-19T09:03:24.509Z</time>
      </trkpt>
      <trkpt lat="49.13396" lon="2.36078">
        <ele>91.390235</ele>
        <time>2025-06-19T09:03:27.504Z</time>
      </trkpt>
      <trkpt lat="49.13401" lon="2.36059">
        <ele>91.503791</ele>
        <time>2025-06-19T09:03:30.505Z</time>
      </trkpt>
      <trkpt lat="49.13404" lon="2.36043">
        <ele>91.593444</ele>
        <time>2025-06-19T09:03:32.488Z</time>
      </trkpt>
      <trkpt lat="49.13406" lon="2.36029">
        <ele>91.518103</ele>
        <time>2025-06-19T09:03:34.507Z</time>
      </trkpt>
      <trkpt lat="49.13408" lon="2.36015">
        <ele>91.429684</ele>
        <time>2025-06-19T09:03:36.505Z</time>
      </trkpt>
      <trkpt lat="49.1341" lon="2.35999">
        <ele>91.332157</ele>
        <time>2025-06-19T09:03:38.501Z</time>
      </trkpt>
      <trkpt lat="49.13412" lon="2.35984">
        <ele>91.237151</ele>
        <time>2025-06-19T09:03:40.516Z</time>
      </trkpt>
      <trkpt lat="49.13416" lon="2.35969">
        <ele>91.139294</ele>
        <time>2025-06-19T09:03:42.506Z</time>
      </trkpt>
      <trkpt lat="49.13419" lon="2.35954">
        <ele>91.042581</ele>
        <time>2025-06-19T09:03:44.525Z</time>
      </trkpt>
      <trkpt lat="49.13422" lon="2.35938">
        <ele>90.941512</ele>
        <time>2025-06-19T09:03:46.496Z</time>
      </trkpt>
      <trkpt lat="49.13425" lon="2.35924">
        <ele>90.849022</ele>
        <time>2025-06-19T09:03:48.500Z</time>
      </trkpt>
      <trkpt lat="49.13427" lon="2.35908">
        <ele>90.753019</ele>
        <time>2025-06-19T09:03:50.505Z</time>
      </trkpt>
      <trkpt lat="49.13428" lon="2.35894">
        <ele>90.661692</ele>
        <time>2025-06-19T09:03:52.496Z</time>
      </trkpt>
      <trkpt lat="49.1343" lon="2.3588">
        <ele>90.576656</ele>
        <time>2025-06-19T09:03:54.498Z</time>
      </trkpt>
      <trkpt lat="49.13433" lon="2.35867">
        <ele>90.492174</ele>
        <time>2025-06-19T09:03:56.532Z</time>
      </trkpt>
      <trkpt lat="49.13436" lon="2.35853">
        <ele>90.399987</ele>
        <time>2025-06-19T09:03:58.500Z</time>
      </trkpt>
      <trkpt lat="49.1344" lon="2.35833">
        <ele>90.275558</ele>
        <time>2025-06-19T09:04:01.519Z</time>
      </trkpt>
      <trkpt lat="49.13443" lon="2.3582">
        <ele>90.190101</ele>
        <time>2025-06-19T09:04:03.507Z</time>
      </trkpt>
      <trkpt lat="49.13446" lon="2.35806">
        <ele>90.100913</ele>
        <time>2025-06-19T09:04:05.503Z</time>
      </trkpt>
      <trkpt lat="49.13448" lon="2.35792">
        <ele>90.012444</ele>
        <time>2025-06-19T09:04:07.500Z</time>
      </trkpt>
      <trkpt lat="49.13449" lon="2.35773">
        <ele>89.873734</ele>
        <time>2025-06-19T09:04:10.504Z</time>
      </trkpt>
      <trkpt lat="49.13453" lon="2.35759">
        <ele>89.704538</ele>
        <time>2025-06-19T09:04:13.500Z</time>
      </trkpt>
      <trkpt lat="49.1345" lon="2.35742">
        <ele>89.507233</ele>
        <time>2025-06-19T09:04:20.499Z</time>
      </trkpt>
      <trkpt lat="49.13452" lon="2.35724">
        <ele>89.295153</ele>
        <time>2025-06-19T09:04:23.506Z</time>
      </trkpt>
      <trkpt lat="49.13452" lon="2.35708">
        <ele>89.111268</ele>
        <time>2025-06-19T09:04:25.499Z</time>
      </trkpt>
      <trkpt lat="49.13453" lon="2.35691">
        <ele>88.917859</ele>
        <time>2025-06-19T09:04:27.505Z</time>
      </trkpt>
      <trkpt lat="49.13456" lon="2.35674">
        <ele>88.71866</ele>
        <time>2025-06-19T09:04:29.501Z</time>
      </trkpt>
      <trkpt lat="49.13459" lon="2.35656">
        <ele>88.510123</ele>
        <time>2025-06-19T09:04:31.508Z</time>
      </trkpt>
      <trkpt lat="49.13461" lon="2.35639">
        <ele>88.304938</ele>
        <time>2025-06-19T09:04:33.505Z</time>
      </trkpt>
      <trkpt lat="49.13463" lon="2.35621">
        <ele>88.091722</ele>
        <time>2025-06-19T09:04:35.499Z</time>
      </trkpt>
      <trkpt lat="49.13465" lon="2.35606">
        <ele>87.920736</ele>
        <time>2025-06-19T09:04:37.509Z</time>
      </trkpt>
      <trkpt lat="49.13468" lon="2.35592">
        <ele>87.749522</ele>
        <time>2025-06-19T09:04:39.506Z</time>
      </trkpt>
      <trkpt lat="49.1347" lon="2.35578">
        <ele>87.584574</ele>
        <time>2025-06-19T09:04:41.504Z</time>
      </trkpt>
      <trkpt lat="49.13472" lon="2.35564">
        <ele>87.425166</ele>
        <time>2025-06-19T09:04:43.504Z</time>
      </trkpt>
      <trkpt lat="49.13475" lon="2.3555">
        <ele>87.249783</ele>
        <time>2025-06-19T09:04:45.506Z</time>
      </trkpt>
      <trkpt lat="49.13477" lon="2.35534">
        <ele>87.070776</ele>
        <time>2025-06-19T09:04:47.499Z</time>
      </trkpt>
      <trkpt lat="49.13481" lon="2.3552">
        <ele>86.888478</ele>
        <time>2025-06-19T09:04:49.500Z</time>
      </trkpt>
      <trkpt lat="49.13485" lon="2.35505">
        <ele>86.744973</ele>
        <time>2025-06-19T09:04:51.503Z</time>
      </trkpt>
      <trkpt lat="49.13491" lon="2.35492">
        <ele>86.690554</ele>
        <time>2025-06-19T09:04:53.511Z</time>
      </trkpt>
      <trkpt lat="49.13496" lon="2.35476">
        <ele>86.630793</ele>
        <time>2025-06-19T09:04:55.510Z</time>
      </trkpt>
      <trkpt lat="49.13502" lon="2.35459">
        <ele>86.566293</ele>
        <time>2025-06-19T09:04:57.506Z</time>
      </trkpt>
      <trkpt lat="49.13507" lon="2.35443">
        <ele>86.504997</ele>
        <time>2025-06-19T09:04:59.502Z</time>
      </trkpt>
      <trkpt lat="49.13512" lon="2.35427">
        <ele>86.444157</ele>
        <time>2025-06-19T09:05:01.507Z</time>
      </trkpt>
      <trkpt lat="49.13518" lon="2.35411">
        <ele>86.385351</ele>
        <time>2025-06-19T09:05:03.500Z</time>
      </trkpt>
      <trkpt lat="49.13522" lon="2.35396">
        <ele>86.328298</ele>
        <time>2025-06-19T09:05:05.498Z</time>
      </trkpt>
      <trkpt lat="49.13527" lon="2.3538">
        <ele>86.270107</ele>
        <time>2025-06-19T09:05:07.508Z</time>
      </trkpt>
      <trkpt lat="49.13531" lon="2.35363">
        <ele>86.208183</ele>
        <time>2025-06-19T09:05:09.506Z</time>
      </trkpt>
      <trkpt lat="49.13535" lon="2.35347">
        <ele>86.149472</ele>
        <time>2025-06-19T09:05:11.504Z</time>
      </trkpt>
      <trkpt lat="49.13539" lon="2.3533">
        <ele>86.088385</ele>
        <time>2025-06-19T09:05:13.503Z</time>
      </trkpt>
      <trkpt lat="49.1354" lon="2.35312">
        <ele>86.028346</ele>
        <time>2025-06-19T09:05:15.501Z</time>
      </trkpt>
      <trkpt lat="49.13541" lon="2.35294">
        <ele>85.967575</ele>
        <time>2025-06-19T09:05:17.500Z</time>
      </trkpt>
      <trkpt lat="49.13542" lon="2.35278">
        <ele>85.910292</ele>
        <time>2025-06-19T09:05:19.503Z</time>
      </trkpt>
      <trkpt lat="49.13543" lon="2.35258">
        <ele>85.843862</ele>
        <time>2025-06-19T09:05:22.504Z</time>
      </trkpt>
      <trkpt lat="49.13543" lon="2.35244">
        <ele>85.778764</ele>
        <time>2025-06-19T09:05:24.512Z</time>
      </trkpt>
      <trkpt lat="49.13544" lon="2.35229">
        <ele>85.704091</ele>
        <time>2025-06-19T09:05:26.502Z</time>
      </trkpt>
      <trkpt lat="49.13544" lon="2.35212">
        <ele>85.618899</ele>
        <time>2025-06-19T09:05:28.505Z</time>
      </trkpt>
      <trkpt lat="49.13546" lon="2.35194">
        <ele>85.526282</ele>
        <time>2025-06-19T09:05:30.508Z</time>
      </trkpt>
      <trkpt lat="49.13547" lon="2.35174">
        <ele>85.426073</ele>
        <time>2025-06-19T09:05:32.505Z</time>
      </trkpt>
      <trkpt lat="49.13549" lon="2.35153">
        <ele>85.320071</ele>
        <time>2025-06-19T09:05:34.509Z</time>
      </trkpt>
      <trkpt lat="49.13552" lon="2.35133">
        <ele>85.214272</ele>
        <time>2025-06-19T09:05:36.503Z</time>
      </trkpt>
      <trkpt lat="49.13555" lon="2.35114">
        <ele>85.115042</ele>
        <time>2025-06-19T09:05:38.503Z</time>
      </trkpt>
      <trkpt lat="49.13558" lon="2.35094">
        <ele>85.014482</ele>
        <time>2025-06-19T09:05:40.502Z</time>
      </trkpt>
      <trkpt lat="49.1356" lon="2.35075">
        <ele>84.915583</ele>
        <time>2025-06-19T09:05:42.510Z</time>
      </trkpt>
      <trkpt lat="49.13562" lon="2.35055">
        <ele>84.817181</ele>
        <time>2025-06-19T09:05:44.508Z</time>
      </trkpt>
      <trkpt lat="49.13563" lon="2.35035">
        <ele>84.712917</ele>
        <time>2025-06-19T09:05:46.504Z</time>
      </trkpt>
      <trkpt lat="49.13565" lon="2.35014">
        <ele>84.609151</ele>
        <time>2025-06-19T09:05:48.511Z</time>
      </trkpt>
      <trkpt lat="49.13566" lon="2.34995">
        <ele>84.512158</ele>
        <time>2025-06-19T09:05:50.515Z</time>
      </trkpt>
      <trkpt lat="49.13567" lon="2.34975">
        <ele>84.365524</ele>
        <time>2025-06-19T09:05:52.516Z</time>
      </trkpt>
      <trkpt lat="49.13569" lon="2.34955">
        <ele>84.132686</ele>
        <time>2025-06-19T09:05:54.500Z</time>
      </trkpt>
      <trkpt lat="49.1357" lon="2.34935">
        <ele>83.910632</ele>
        <time>2025-06-19T09:05:56.500Z</time>
      </trkpt>
      <trkpt lat="49.13573" lon="2.34916">
        <ele>83.686388</ele>
        <time>2025-06-19T09:05:58.499Z</time>
      </trkpt>
      <trkpt lat="49.13576" lon="2.34896">
        <ele>83.45588</ele>
        <time>2025-06-19T09:06:00.502Z</time>
      </trkpt>
      <trkpt lat="49.1358" lon="2.34875">
        <ele>83.218017</ele>
        <time>2025-06-19T09:06:02.503Z</time>
      </trkpt>
      <trkpt lat="49.13584" lon="2.34855">
        <ele>82.978772</ele>
        <time>2025-06-19T09:06:04.506Z</time>
      </trkpt>
      <trkpt lat="49.13589" lon="2.34835">
        <ele>82.729327</ele>
        <time>2025-06-19T09:06:06.508Z</time>
      </trkpt>
      <trkpt lat="49.13596" lon="2.34815">
        <ele>82.478774</ele>
        <time>2025-06-19T09:06:08.510Z</time>
      </trkpt>
      <trkpt lat="49.13602" lon="2.34793">
        <ele>82.208208</ele>
        <time>2025-06-19T09:06:10.502Z</time>
      </trkpt>
      <trkpt lat="49.13609" lon="2.34772">
        <ele>81.939157</ele>
        <time>2025-06-19T09:06:12.502Z</time>
      </trkpt>
      <trkpt lat="49.13617" lon="2.3475">
        <ele>81.663738</ele>
        <time>2025-06-19T09:06:14.506Z</time>
      </trkpt>
      <trkpt lat="49.13624" lon="2.34727">
        <ele>81.38121</ele>
        <time>2025-06-19T09:06:16.511Z</time>
      </trkpt>
      <trkpt lat="49.13631" lon="2.34704">
        <ele>81.393189</ele>
        <time>2025-06-19T09:06:18.500Z</time>
      </trkpt>
      <trkpt lat="49.13638" lon="2.34682">
        <ele>81.447668</ele>
        <time>2025-06-19T09:06:20.502Z</time>
      </trkpt>
      <trkpt lat="49.13644" lon="2.34658">
        <ele>81.502729</ele>
        <time>2025-06-19T09:06:22.502Z</time>
      </trkpt>
      <trkpt lat="49.13649" lon="2.34634">
        <ele>81.556226</ele>
        <time>2025-06-19T09:06:24.501Z</time>
      </trkpt>
      <trkpt lat="49.13651" lon="2.34611">
        <ele>81.607545</ele>
        <time>2025-06-19T09:06:26.502Z</time>
      </trkpt>
      <trkpt lat="49.13652" lon="2.34587">
        <ele>81.660156</ele>
        <time>2025-06-19T09:06:28.503Z</time>
      </trkpt>
      <trkpt lat="49.13655" lon="2.34563">
        <ele>81.711155</ele>
        <time>2025-06-19T09:06:30.506Z</time>
      </trkpt>
      <trkpt lat="49.1366" lon="2.34542">
        <ele>81.761255</ele>
        <time>2025-06-19T09:06:32.503Z</time>
      </trkpt>
      <trkpt lat="49.13665" lon="2.34522">
        <ele>81.805875</ele>
        <time>2025-06-19T09:06:34.499Z</time>
      </trkpt>
      <trkpt lat="49.1367" lon="2.34504">
        <ele>81.848995</ele>
        <time>2025-06-19T09:06:36.502Z</time>
      </trkpt>
      <trkpt lat="49.13675" lon="2.34487">
        <ele>81.88994</ele>
        <time>2025-06-19T09:06:38.500Z</time>
      </trkpt>
      <trkpt lat="49.1368" lon="2.34471">
        <ele>81.928138</ele>
        <time>2025-06-19T09:06:40.502Z</time>
      </trkpt>
      <trkpt lat="49.13684" lon="2.34455">
        <ele>82.006601</ele>
        <time>2025-06-19T09:06:42.501Z</time>
      </trkpt>
      <trkpt lat="49.13688" lon="2.34438">
        <ele>82.10293</ele>
        <time>2025-06-19T09:06:44.500Z</time>
      </trkpt>
      <trkpt lat="49.1369" lon="2.3442">
        <ele>82.205531</ele>
        <time>2025-06-19T09:06:46.507Z</time>
      </trkpt>
      <trkpt lat="49.13692" lon="2.34403">
        <ele>82.302154</ele>
        <time>2025-06-19T09:06:48.502Z</time>
      </trkpt>
      <trkpt lat="49.13694" lon="2.34385">
        <ele>82.400248</ele>
        <time>2025-06-19T09:06:50.510Z</time>
      </trkpt>
      <trkpt lat="49.13696" lon="2.34368">
        <ele>82.499424</ele>
        <time>2025-06-19T09:06:52.509Z</time>
      </trkpt>
      <trkpt lat="49.13698" lon="2.34349">
        <ele>82.603242</ele>
        <time>2025-06-19T09:06:54.498Z</time>
      </trkpt>
      <trkpt lat="49.13701" lon="2.34331">
        <ele>82.706749</ele>
        <time>2025-06-19T09:06:56.500Z</time>
      </trkpt>
      <trkpt lat="49.13703" lon="2.34312">
        <ele>82.813681</ele>
        <time>2025-06-19T09:06:58.504Z</time>
      </trkpt>
      <trkpt lat="49.13706" lon="2.34293">
        <ele>82.921753</ele>
        <time>2025-06-19T09:07:00.509Z</time>
      </trkpt>
      <trkpt lat="49.13708" lon="2.34274">
        <ele>83.030685</ele>
        <time>2025-06-19T09:07:02.503Z</time>
      </trkpt>
      <trkpt lat="49.13711" lon="2.34254">
        <ele>83.140139</ele>
        <time>2025-06-19T09:07:04.506Z</time>
      </trkpt>
      <trkpt lat="49.13714" lon="2.34236">
        <ele>83.243116</ele>
        <time>2025-06-19T09:07:06.504Z</time>
      </trkpt>
      <trkpt lat="49.13717" lon="2.34219">
        <ele>83.33964</ele>
        <time>2025-06-19T09:07:08.505Z</time>
      </trkpt>
      <trkpt lat="49.1372" lon="2.34203">
        <ele>83.432803</ele>
        <time>2025-06-19T09:07:10.511Z</time>
      </trkpt>
      <trkpt lat="49.13723" lon="2.34186">
        <ele>83.342528</ele>
        <time>2025-06-19T09:07:12.500Z</time>
      </trkpt>
      <trkpt lat="49.13727" lon="2.34168">
        <ele>83.17073</ele>
        <time>2025-06-19T09:07:14.500Z</time>
      </trkpt>
      <trkpt lat="49.13731" lon="2.3415">
        <ele>82.991036</ele>
        <time>2025-06-19T09:07:16.507Z</time>
      </trkpt>
      <trkpt lat="49.13735" lon="2.34131">
        <ele>82.809084</ele>
        <time>2025-06-19T09:07:18.501Z</time>
      </trkpt>
      <trkpt lat="49.1374" lon="2.34113">
        <ele>82.63187</ele>
        <time>2025-06-19T09:07:20.498Z</time>
      </trkpt>
      <trkpt lat="49.13744" lon="2.34096">
        <ele>82.460358</ele>
        <time>2025-06-19T09:07:22.508Z</time>
      </trkpt>
      <trkpt lat="49.13749" lon="2.34079">
        <ele>82.289201</ele>
        <time>2025-06-19T09:07:24.504Z</time>
      </trkpt>
      <trkpt lat="49.13753" lon="2.34062">
        <ele>82.119579</ele>
        <time>2025-06-19T09:07:26.501Z</time>
      </trkpt>
      <trkpt lat="49.13756" lon="2.34046">
        <ele>81.960153</ele>
        <time>2025-06-19T09:07:28.501Z</time>
      </trkpt>
      <trkpt lat="49.1376" lon="2.34028">
        <ele>81.79185</ele>
        <time>2025-06-19T09:07:30.509Z</time>
      </trkpt>
      <trkpt lat="49.13763" lon="2.34009">
        <ele>81.608769</ele>
        <time>2025-06-19T09:07:32.515Z</time>
      </trkpt>
      <trkpt lat="49.13768" lon="2.3399">
        <ele>81.415682</ele>
        <time>2025-06-19T09:07:34.510Z</time>
      </trkpt>
      <trkpt lat="49.13772" lon="2.3397">
        <ele>81.220558</ele>
        <time>2025-06-19T09:07:36.506Z</time>
      </trkpt>
      <trkpt lat="49.13778" lon="2.33951">
        <ele>81.034804</ele>
        <time>2025-06-19T09:07:38.509Z</time>
      </trkpt>
      <trkpt lat="49.13782" lon="2.33932">
        <ele>80.867883</ele>
        <time>2025-06-19T09:07:40.515Z</time>
      </trkpt>
      <trkpt lat="49.13786" lon="2.33912">
        <ele>80.740855</ele>
        <time>2025-06-19T09:07:42.504Z</time>
      </trkpt>
      <trkpt lat="49.13791" lon="2.33892">
        <ele>80.615462</ele>
        <time>2025-06-19T09:07:44.502Z</time>
      </trkpt>
      <trkpt lat="49.13795" lon="2.33874">
        <ele>80.500718</ele>
        <time>2025-06-19T09:07:46.500Z</time>
      </trkpt>
      <trkpt lat="49.138" lon="2.33856">
        <ele>80.384484</ele>
        <time>2025-06-19T09:07:48.503Z</time>
      </trkpt>
      <trkpt lat="49.13804" lon="2.33838">
        <ele>80.271633</ele>
        <time>2025-06-19T09:07:50.502Z</time>
      </trkpt>
      <trkpt lat="49.13809" lon="2.33823">
        <ele>80.16711</ele>
        <time>2025-06-19T09:07:52.501Z</time>
      </trkpt>
      <trkpt lat="49.13815" lon="2.33806">
        <ele>80.053729</ele>
        <time>2025-06-19T09:07:54.500Z</time>
      </trkpt>
      <trkpt lat="49.1382" lon="2.33789">
        <ele>79.941548</ele>
        <time>2025-06-19T09:07:56.502Z</time>
      </trkpt>
      <trkpt lat="49.13825" lon="2.33772">
        <ele>79.832503</ele>
        <time>2025-06-19T09:07:58.502Z</time>
      </trkpt>
      <trkpt lat="49.1383" lon="2.33756">
        <ele>79.721255</ele>
        <time>2025-06-19T09:08:00.507Z</time>
      </trkpt>
      <trkpt lat="49.13835" lon="2.33738">
        <ele>79.605718</ele>
        <time>2025-06-19T09:08:02.502Z</time>
      </trkpt>
      <trkpt lat="49.13839" lon="2.3372">
        <ele>79.491251</ele>
        <time>2025-06-19T09:08:04.505Z</time>
      </trkpt>
      <trkpt lat="49.13843" lon="2.337">
        <ele>79.364224</ele>
        <time>2025-06-19T09:08:06.504Z</time>
      </trkpt>
      <trkpt lat="49.13846" lon="2.33679">
        <ele>79.222494</ele>
        <time>2025-06-19T09:08:08.501Z</time>
      </trkpt>
      <trkpt lat="49.13849" lon="2.33657">
        <ele>79.04218</ele>
        <time>2025-06-19T09:08:10.507Z</time>
      </trkpt>
      <trkpt lat="49.13851" lon="2.33636">
        <ele>78.867287</ele>
        <time>2025-06-19T09:08:12.502Z</time>
      </trkpt>
      <trkpt lat="49.13855" lon="2.33617">
        <ele>78.70094</ele>
        <time>2025-06-19T09:08:14.500Z</time>
      </trkpt>
      <trkpt lat="49.13856" lon="2.33598">
        <ele>78.542963</ele>
        <time>2025-06-19T09:08:16.503Z</time>
      </trkpt>
      <trkpt lat="49.13857" lon="2.33578">
        <ele>78.379838</ele>
        <time>2025-06-19T09:08:18.505Z</time>
      </trkpt>
      <trkpt lat="49.13857" lon="2.33559">
        <ele>78.220985</ele>
        <time>2025-06-19T09:08:20.501Z</time>
      </trkpt>
      <trkpt lat="49.13858" lon="2.33538">
        <ele>78.052931</ele>
        <time>2025-06-19T09:08:22.506Z</time>
      </trkpt>
      <trkpt lat="49.1386" lon="2.33522">
        <ele>77.915691</ele>
        <time>2025-06-19T09:08:24.499Z</time>
      </trkpt>
      <trkpt lat="49.13861" lon="2.33507">
        <ele>77.788832</ele>
        <time>2025-06-19T09:08:26.503Z</time>
      </trkpt>
      <trkpt lat="49.13864" lon="2.33491">
        <ele>77.654278</ele>
        <time>2025-06-19T09:08:28.505Z</time>
      </trkpt>
      <trkpt lat="49.13867" lon="2.33474">
        <ele>77.513559</ele>
        <time>2025-06-19T09:08:30.508Z</time>
      </trkpt>
      <trkpt lat="49.13871" lon="2.33459">
        <ele>77.381537</ele>
        <time>2025-06-19T09:08:32.510Z</time>
      </trkpt>
      <trkpt lat="49.13874" lon="2.33445">
        <ele>77.255585</ele>
        <time>2025-06-19T09:08:34.510Z</time>
      </trkpt>
      <trkpt lat="49.13877" lon="2.3343">
        <ele>77.126013</ele>
        <time>2025-06-19T09:08:36.510Z</time>
      </trkpt>
      <trkpt lat="49.1388" lon="2.33414">
        <ele>77.004446</ele>
        <time>2025-06-19T09:08:38.503Z</time>
      </trkpt>
      <trkpt lat="49.13883" lon="2.334">
        <ele>77.066129</ele>
        <time>2025-06-19T09:08:40.502Z</time>
      </trkpt>
      <trkpt lat="49.13886" lon="2.33386">
        <ele>77.127589</ele>
        <time>2025-06-19T09:08:42.503Z</time>
      </trkpt>
      <trkpt lat="49.13888" lon="2.33373">
        <ele>77.185098</ele>
        <time>2025-06-19T09:08:44.499Z</time>
      </trkpt>
      <trkpt lat="49.13891" lon="2.33354">
        <ele>77.266168</ele>
        <time>2025-06-19T09:08:47.500Z</time>
      </trkpt>
      <trkpt lat="49.13895" lon="2.33336">
        <ele>77.345737</ele>
        <time>2025-06-19T09:08:50.502Z</time>
      </trkpt>
      <trkpt lat="49.13903" lon="2.33319">
        <ele>77.429396</ele>
        <time>2025-06-19T09:08:53.516Z</time>
      </trkpt>
      <trkpt lat="49.13909" lon="2.33308">
        <ele>77.490094</ele>
        <time>2025-06-19T09:08:55.511Z</time>
      </trkpt>
      <trkpt lat="49.13915" lon="2.33297">
        <ele>77.550408</ele>
        <time>2025-06-19T09:08:57.502Z</time>
      </trkpt>
      <trkpt lat="49.13922" lon="2.33285">
        <ele>77.613779</ele>
        <time>2025-06-19T09:08:59.506Z</time>
      </trkpt>
      <trkpt lat="49.13928" lon="2.33273">
        <ele>77.677322</ele>
        <time>2025-06-19T09:09:01.502Z</time>
      </trkpt>
      <trkpt lat="49.13933" lon="2.33261">
        <ele>77.737002</ele>
        <time>2025-06-19T09:09:03.500Z</time>
      </trkpt>
      <trkpt lat="49.13938" lon="2.33247">
        <ele>77.801895</ele>
        <time>2025-06-19T09:09:05.509Z</time>
      </trkpt>
      <trkpt lat="49.13943" lon="2.33234">
        <ele>77.86624</ele>
        <time>2025-06-19T09:09:07.507Z</time>
      </trkpt>
      <trkpt lat="49.13949" lon="2.33219">
        <ele>77.938046</ele>
        <time>2025-06-19T09:09:09.500Z</time>
      </trkpt>
      <trkpt lat="49.13956" lon="2.33204">
        <ele>78.012262</ele>
        <time>2025-06-19T09:09:11.499Z</time>
      </trkpt>
      <trkpt lat="49.13963" lon="2.33187">
        <ele>78.095859</ele>
        <time>2025-06-19T09:09:13.494Z</time>
      </trkpt>
      <trkpt lat="49.1397" lon="2.33171">
        <ele>78.101395</ele>
        <time>2025-06-19T09:09:15.507Z</time>
      </trkpt>
      <trkpt lat="49.13979" lon="2.33157">
        <ele>78.013325</ele>
        <time>2025-06-19T09:09:17.505Z</time>
      </trkpt>
      <trkpt lat="49.13989" lon="2.33145">
        <ele>77.929919</ele>
        <time>2025-06-19T09:09:19.501Z</time>
      </trkpt>
      <trkpt lat="49.13998" lon="2.33133">
        <ele>77.851325</ele>
        <time>2025-06-19T09:09:22.503Z</time>
      </trkpt>
      <trkpt lat="49.14003" lon="2.33121">
        <ele>77.785892</ele>
        <time>2025-06-19T09:09:25.506Z</time>
      </trkpt>
      <trkpt lat="49.14008" lon="2.33106">
        <ele>77.709777</ele>
        <time>2025-06-19T09:09:28.510Z</time>
      </trkpt>
      <trkpt lat="49.14016" lon="2.33094">
        <ele>77.63822</ele>
        <time>2025-06-19T09:09:30.537Z</time>
      </trkpt>
      <trkpt lat="49.14022" lon="2.33081">
        <ele>77.564976</ele>
        <time>2025-06-19T09:09:32.507Z</time>
      </trkpt>
      <trkpt lat="49.14027" lon="2.33066">
        <ele>77.490423</ele>
        <time>2025-06-19T09:09:34.511Z</time>
      </trkpt>
      <trkpt lat="49.14033" lon="2.33051">
        <ele>77.414225</ele>
        <time>2025-06-19T09:09:36.510Z</time>
      </trkpt>
      <trkpt lat="49.14039" lon="2.33036">
        <ele>77.338122</ele>
        <time>2025-06-19T09:09:38.510Z</time>
      </trkpt>
      <trkpt lat="49.14045" lon="2.33022">
        <ele>77.265679</ele>
        <time>2025-06-19T09:09:40.507Z</time>
      </trkpt>
      <trkpt lat="49.1405" lon="2.33008">
        <ele>77.190584</ele>
        <time>2025-06-19T09:09:42.508Z</time>
      </trkpt>
      <trkpt lat="49.14057" lon="2.32994">
        <ele>77.115514</ele>
        <time>2025-06-19T09:09:44.504Z</time>
      </trkpt>
      <trkpt lat="49.14064" lon="2.32979">
        <ele>77.034174</ele>
        <time>2025-06-19T09:09:46.503Z</time>
      </trkpt>
      <trkpt lat="49.14071" lon="2.32963">
        <ele>76.949573</ele>
        <time>2025-06-19T09:09:48.498Z</time>
      </trkpt>
      <trkpt lat="49.14077" lon="2.32947">
        <ele>76.929834</ele>
        <time>2025-06-19T09:09:50.497Z</time>
      </trkpt>
      <trkpt lat="49.14083" lon="2.3293">
        <ele>76.934258</ele>
        <time>2025-06-19T09:09:52.501Z</time>
      </trkpt>
      <trkpt lat="49.14089" lon="2.32914">
        <ele>76.938485</ele>
        <time>2025-06-19T09:09:54.504Z</time>
      </trkpt>
      <trkpt lat="49.14095" lon="2.32899">
        <ele>76.942281</ele>
        <time>2025-06-19T09:09:56.505Z</time>
      </trkpt>
      <trkpt lat="49.141" lon="2.32885">
        <ele>76.945971</ele>
        <time>2025-06-19T09:09:58.501Z</time>
      </trkpt>
      <trkpt lat="49.14106" lon="2.32871">
        <ele>76.949776</ele>
        <time>2025-06-19T09:10:00.505Z</time>
      </trkpt>
      <trkpt lat="49.14112" lon="2.32857">
        <ele>76.953655</ele>
        <time>2025-06-19T09:10:02.503Z</time>
      </trkpt>
      <trkpt lat="49.14118" lon="2.32842">
        <ele>76.957403</ele>
        <time>2025-06-19T09:10:04.506Z</time>
      </trkpt>
      <trkpt lat="49.14123" lon="2.32829">
        <ele>76.960997</ele>
        <time>2025-06-19T09:10:06.500Z</time>
      </trkpt>
      <trkpt lat="49.14129" lon="2.32817">
        <ele>76.964363</ele>
        <time>2025-06-19T09:10:08.506Z</time>
      </trkpt>
      <trkpt lat="49.14133" lon="2.32802">
        <ele>76.968111</ele>
        <time>2025-06-19T09:10:10.508Z</time>
      </trkpt>
      <trkpt lat="49.14139" lon="2.32788">
        <ele>76.971768</ele>
        <time>2025-06-19T09:10:12.511Z</time>
      </trkpt>
      <trkpt lat="49.14145" lon="2.32775">
        <ele>76.975384</ele>
        <time>2025-06-19T09:10:14.509Z</time>
      </trkpt>
      <trkpt lat="49.1415" lon="2.3276">
        <ele>76.979307</ele>
        <time>2025-06-19T09:10:16.501Z</time>
      </trkpt>
      <trkpt lat="49.14156" lon="2.32746">
        <ele>76.983091</ele>
        <time>2025-06-19T09:10:18.514Z</time>
      </trkpt>
      <trkpt lat="49.14162" lon="2.32731">
        <ele>76.987051</ele>
        <time>2025-06-19T09:10:20.502Z</time>
      </trkpt>
      <trkpt lat="49.14168" lon="2.32717">
        <ele>77.035638</ele>
        <time>2025-06-19T09:10:22.500Z</time>
      </trkpt>
      <trkpt lat="49.14174" lon="2.32705">
        <ele>77.141748</ele>
        <time>2025-06-19T09:10:24.502Z</time>
      </trkpt>
      <trkpt lat="49.14181" lon="2.32692">
        <ele>77.251376</ele>
        <time>2025-06-19T09:10:26.507Z</time>
      </trkpt>
      <trkpt lat="49.14188" lon="2.32679">
        <ele>77.36241</ele>
        <time>2025-06-19T09:10:28.507Z</time>
      </trkpt>
      <trkpt lat="49.14196" lon="2.32667">
        <ele>77.472196</ele>
        <time>2025-06-19T09:10:30.505Z</time>
      </trkpt>
      <trkpt lat="49.14203" lon="2.32654">
        <ele>77.579252</ele>
        <time>2025-06-19T09:10:32.499Z</time>
      </trkpt>
      <trkpt lat="49.14209" lon="2.32641">
        <ele>77.689912</ele>
        <time>2025-06-19T09:10:34.504Z</time>
      </trkpt>
      <trkpt lat="49.14216" lon="2.32627">
        <ele>77.801262</ele>
        <time>2025-06-19T09:10:36.501Z</time>
      </trkpt>
      <trkpt lat="49.14224" lon="2.32615">
        <ele>77.91761</ele>
        <time>2025-06-19T09:10:38.508Z</time>
      </trkpt>
      <trkpt lat="49.14232" lon="2.32603">
        <ele>78.029263</ele>
        <time>2025-06-19T09:10:40.506Z</time>
      </trkpt>
      <trkpt lat="49.14239" lon="2.32591">
        <ele>78.134551</ele>
        <time>2025-06-19T09:10:42.509Z</time>
      </trkpt>
      <trkpt lat="49.14244" lon="2.32578">
        <ele>78.236606</ele>
        <time>2025-06-19T09:10:44.500Z</time>
      </trkpt>
      <trkpt lat="49.14252" lon="2.32566">
        <ele>78.346378</ele>
        <time>2025-06-19T09:10:46.500Z</time>
      </trkpt>
      <trkpt lat="49.1426" lon="2.32555">
        <ele>78.454301</ele>
        <time>2025-06-19T09:10:48.503Z</time>
      </trkpt>
      <trkpt lat="49.14268" lon="2.32545">
        <ele>78.558345</ele>
        <time>2025-06-19T09:10:50.502Z</time>
      </trkpt>
      <trkpt lat="49.14276" lon="2.32534">
        <ele>78.668084</ele>
        <time>2025-06-19T09:10:52.499Z</time>
      </trkpt>
      <trkpt lat="49.14283" lon="2.32523">
        <ele>78.772449</ele>
        <time>2025-06-19T09:10:54.498Z</time>
      </trkpt>
      <trkpt lat="49.14291" lon="2.32513">
        <ele>78.86774</ele>
        <time>2025-06-19T09:10:56.506Z</time>
      </trkpt>
      <trkpt lat="49.14299" lon="2.32503">
        <ele>78.96013</ele>
        <time>2025-06-19T09:10:58.505Z</time>
      </trkpt>
      <trkpt lat="49.14306" lon="2.32491">
        <ele>79.055928</ele>
        <time>2025-06-19T09:11:00.507Z</time>
      </trkpt>
      <trkpt lat="49.14314" lon="2.32481">
        <ele>79.149906</ele>
        <time>2025-06-19T09:11:02.515Z</time>
      </trkpt>
      <trkpt lat="49.14323" lon="2.32471">
        <ele>79.251014</ele>
        <time>2025-06-19T09:11:04.502Z</time>
      </trkpt>
      <trkpt lat="49.14332" lon="2.32462">
        <ele>79.343528</ele>
        <time>2025-06-19T09:11:06.505Z</time>
      </trkpt>
      <trkpt lat="49.14341" lon="2.3245">
        <ele>79.455476</ele>
        <time>2025-06-19T09:11:08.515Z</time>
      </trkpt>
      <trkpt lat="49.14348" lon="2.32437">
        <ele>79.555203</ele>
        <time>2025-06-19T09:11:10.510Z</time>
      </trkpt>
      <trkpt lat="49.14357" lon="2.32425">
        <ele>79.664154</ele>
        <time>2025-06-19T09:11:12.507Z</time>
      </trkpt>
      <trkpt lat="49.14366" lon="2.32412">
        <ele>79.769044</ele>
        <time>2025-06-19T09:11:14.517Z</time>
      </trkpt>
      <trkpt lat="49.14375" lon="2.32399">
        <ele>79.885562</ele>
        <time>2025-06-19T09:11:16.505Z</time>
      </trkpt>
      <trkpt lat="49.14386" lon="2.32385">
        <ele>80.01294</ele>
        <time>2025-06-19T09:11:18.498Z</time>
      </trkpt>
      <trkpt lat="49.14392" lon="2.3237">
        <ele>80.122025</ele>
        <time>2025-06-19T09:11:20.502Z</time>
      </trkpt>
      <trkpt lat="49.144" lon="2.32356">
        <ele>80.228746</ele>
        <time>2025-06-19T09:11:22.508Z</time>
      </trkpt>
      <trkpt lat="49.14408" lon="2.32341">
        <ele>80.344946</ele>
        <time>2025-06-19T09:11:24.504Z</time>
      </trkpt>
      <trkpt lat="49.14416" lon="2.32325">
        <ele>80.420709</ele>
        <time>2025-06-19T09:11:26.501Z</time>
      </trkpt>
      <trkpt lat="49.14421" lon="2.32308">
        <ele>80.388841</ele>
        <time>2025-06-19T09:11:28.508Z</time>
      </trkpt>
      <trkpt lat="49.14426" lon="2.32291">
        <ele>80.357809</ele>
        <time>2025-06-19T09:11:30.501Z</time>
      </trkpt>
      <trkpt lat="49.14429" lon="2.32275">
        <ele>80.328609</ele>
        <time>2025-06-19T09:11:32.504Z</time>
      </trkpt>
      <trkpt lat="49.14433" lon="2.32258">
        <ele>80.298762</ele>
        <time>2025-06-19T09:11:34.501Z</time>
      </trkpt>
      <trkpt lat="49.14437" lon="2.32242">
        <ele>80.269633</ele>
        <time>2025-06-19T09:11:36.500Z</time>
      </trkpt>
      <trkpt lat="49.14442" lon="2.32225">
        <ele>80.237786</ele>
        <time>2025-06-19T09:11:38.501Z</time>
      </trkpt>
      <trkpt lat="49.14446" lon="2.32209">
        <ele>80.209039</ele>
        <time>2025-06-19T09:11:40.515Z</time>
      </trkpt>
      <trkpt lat="49.14451" lon="2.32192">
        <ele>80.178578</ele>
        <time>2025-06-19T09:11:42.507Z</time>
      </trkpt>
      <trkpt lat="49.14456" lon="2.32174">
        <ele>80.146476</ele>
        <time>2025-06-19T09:11:44.510Z</time>
      </trkpt>
      <trkpt lat="49.14461" lon="2.32158">
        <ele>80.116369</ele>
        <time>2025-06-19T09:11:46.505Z</time>
      </trkpt>
      <trkpt lat="49.14466" lon="2.32141">
        <ele>80.085909</ele>
        <time>2025-06-19T09:11:48.508Z</time>
      </trkpt>
      <trkpt lat="49.14471" lon="2.32126">
        <ele>80.056167</ele>
        <time>2025-06-19T09:11:50.513Z</time>
      </trkpt>
      <trkpt lat="49.14475" lon="2.3211">
        <ele>80.028046</ele>
        <time>2025-06-19T09:11:52.509Z</time>
      </trkpt>
      <trkpt lat="49.14479" lon="2.32096">
        <ele>80.001518</ele>
        <time>2025-06-19T09:11:54.504Z</time>
      </trkpt>
      <trkpt lat="49.14483" lon="2.32081">
        <ele>79.975865</ele>
        <time>2025-06-19T09:11:56.508Z</time>
      </trkpt>
      <trkpt lat="49.14488" lon="2.32067">
        <ele>79.941932</ele>
        <time>2025-06-19T09:11:58.501Z</time>
      </trkpt>
      <trkpt lat="49.14493" lon="2.32053">
        <ele>79.903936</ele>
        <time>2025-06-19T09:12:00.515Z</time>
      </trkpt>
      <trkpt lat="49.14498" lon="2.32038">
        <ele>79.866155</ele>
        <time>2025-06-19T09:12:02.502Z</time>
      </trkpt>
      <trkpt lat="49.14503" lon="2.32023">
        <ele>79.827161</ele>
        <time>2025-06-19T09:12:04.501Z</time>
      </trkpt>
      <trkpt lat="49.14507" lon="2.32008">
        <ele>79.789261</ele>
        <time>2025-06-19T09:12:06.504Z</time>
      </trkpt>
      <trkpt lat="49.14512" lon="2.31993">
        <ele>79.752546</ele>
        <time>2025-06-19T09:12:08.506Z</time>
      </trkpt>
      <trkpt lat="49.14516" lon="2.31979">
        <ele>79.716455</ele>
        <time>2025-06-19T09:12:10.503Z</time>
      </trkpt>
      <trkpt lat="49.14521" lon="2.31965">
        <ele>79.680831</ele>
        <time>2025-06-19T09:12:12.499Z</time>
      </trkpt>
      <trkpt lat="49.14526" lon="2.31952">
        <ele>79.645569</ele>
        <time>2025-06-19T09:12:14.506Z</time>
      </trkpt>
      <trkpt lat="49.1453" lon="2.31938">
        <ele>79.609872</ele>
        <time>2025-06-19T09:12:16.502Z</time>
      </trkpt>
      <trkpt lat="49.14538" lon="2.31928">
        <ele>79.575342</ele>
        <time>2025-06-19T09:12:18.508Z</time>
      </trkpt>
      <trkpt lat="49.14546" lon="2.31924">
        <ele>79.543975</ele>
        <time>2025-06-19T09:12:20.503Z</time>
      </trkpt>
      <trkpt lat="49.14555" lon="2.31921">
        <ele>79.510793</ele>
        <time>2025-06-19T09:12:22.502Z</time>
      </trkpt>
      <trkpt lat="49.14567" lon="2.3192">
        <ele>79.471423</ele>
        <time>2025-06-19T09:12:25.506Z</time>
      </trkpt>
      <trkpt lat="49.14576" lon="2.31919">
        <ele>79.439066</ele>
        <time>2025-06-19T09:12:49.502Z</time>
      </trkpt>
      <trkpt lat="49.14586" lon="2.31911">
        <ele>79.399807</ele>
        <time>2025-06-19T09:12:55.511Z</time>
      </trkpt>
      <trkpt lat="49.14588" lon="2.3189">
        <ele>79.351806</ele>
        <time>2025-06-19T09:12:58.504Z</time>
      </trkpt>
      <trkpt lat="49.14589" lon="2.31875">
        <ele>79.261853</ele>
        <time>2025-06-19T09:13:00.507Z</time>
      </trkpt>
      <trkpt lat="49.14589" lon="2.31859">
        <ele>79.115894</ele>
        <time>2025-06-19T09:13:02.502Z</time>
      </trkpt>
      <trkpt lat="49.1459" lon="2.31841">
        <ele>78.959044</ele>
        <time>2025-06-19T09:13:04.512Z</time>
      </trkpt>
      <trkpt lat="49.1459" lon="2.31824">
        <ele>78.808032</ele>
        <time>2025-06-19T09:13:06.498Z</time>
      </trkpt>
      <trkpt lat="49.14592" lon="2.31806">
        <ele>78.64089</ele>
        <time>2025-06-19T09:13:08.508Z</time>
      </trkpt>
      <trkpt lat="49.14592" lon="2.31786">
        <ele>78.463782</ele>
        <time>2025-06-19T09:13:10.498Z</time>
      </trkpt>
      <trkpt lat="49.14593" lon="2.31767">
        <ele>78.293567</ele>
        <time>2025-06-19T09:13:12.499Z</time>
      </trkpt>
      <trkpt lat="49.14594" lon="2.31749">
        <ele>78.134144</ele>
        <time>2025-06-19T09:13:14.499Z</time>
      </trkpt>
      <trkpt lat="49.14595" lon="2.31731">
        <ele>77.971058</ele>
        <time>2025-06-19T09:13:16.506Z</time>
      </trkpt>
      <trkpt lat="49.14596" lon="2.31711">
        <ele>77.794694</ele>
        <time>2025-06-19T09:13:18.504Z</time>
      </trkpt>
      <trkpt lat="49.14596" lon="2.31693">
        <ele>77.627331</ele>
        <time>2025-06-19T09:13:20.504Z</time>
      </trkpt>
      <trkpt lat="49.14597" lon="2.31674">
        <ele>77.460575</ele>
        <time>2025-06-19T09:13:22.503Z</time>
      </trkpt>
      <trkpt lat="49.14598" lon="2.31655">
        <ele>77.294912</ele>
        <time>2025-06-19T09:13:24.505Z</time>
      </trkpt>
      <trkpt lat="49.14598" lon="2.31636">
        <ele>77.12512</ele>
        <time>2025-06-19T09:13:26.504Z</time>
      </trkpt>
      <trkpt lat="49.14599" lon="2.31618">
        <ele>76.957115</ele>
        <time>2025-06-19T09:13:28.504Z</time>
      </trkpt>
      <trkpt lat="49.14599" lon="2.31597">
        <ele>76.96264</ele>
        <time>2025-06-19T09:13:30.504Z</time>
      </trkpt>
      <trkpt lat="49.14599" lon="2.31577">
        <ele>77.107437</ele>
        <time>2025-06-19T09:13:32.509Z</time>
      </trkpt>
      <trkpt lat="49.14599" lon="2.31558">
        <ele>77.248734</ele>
        <time>2025-06-19T09:13:34.510Z</time>
      </trkpt>
      <trkpt lat="49.14598" lon="2.31538">
        <ele>77.389726</ele>
        <time>2025-06-19T09:13:36.517Z</time>
      </trkpt>
      <trkpt lat="49.14597" lon="2.31518">
        <ele>77.532153</ele>
        <time>2025-06-19T09:13:38.515Z</time>
      </trkpt>
      <trkpt lat="49.14596" lon="2.315">
        <ele>77.66731</ele>
        <time>2025-06-19T09:13:40.511Z</time>
      </trkpt>
      <trkpt lat="49.14595" lon="2.31482">
        <ele>77.794984</ele>
        <time>2025-06-19T09:13:42.511Z</time>
      </trkpt>
      <trkpt lat="49.14595" lon="2.31464">
        <ele>77.923284</ele>
        <time>2025-06-19T09:13:44.512Z</time>
      </trkpt>
      <trkpt lat="49.14594" lon="2.31445">
        <ele>78.064276</ele>
        <time>2025-06-19T09:13:46.502Z</time>
      </trkpt>
      <trkpt lat="49.14593" lon="2.31426">
        <ele>78.202607</ele>
        <time>2025-06-19T09:13:48.503Z</time>
      </trkpt>
      <trkpt lat="49.14592" lon="2.31406">
        <ele>78.344864</ele>
        <time>2025-06-19T09:13:50.503Z</time>
      </trkpt>
      <trkpt lat="49.14591" lon="2.31388">
        <ele>78.476764</ele>
        <time>2025-06-19T09:13:52.501Z</time>
      </trkpt>
      <trkpt lat="49.14592" lon="2.31368">
        <ele>78.620903</ele>
        <time>2025-06-19T09:13:54.508Z</time>
      </trkpt>
      <trkpt lat="49.14592" lon="2.31347">
        <ele>78.76884</ele>
        <time>2025-06-19T09:13:56.501Z</time>
      </trkpt>
      <trkpt lat="49.14594" lon="2.31327">
        <ele>78.899477</ele>
        <time>2025-06-19T09:13:58.504Z</time>
      </trkpt>
      <trkpt lat="49.14596" lon="2.31308">
        <ele>79.004983</ele>
        <time>2025-06-19T09:14:00.501Z</time>
      </trkpt>
      <trkpt lat="49.14598" lon="2.31289">
        <ele>79.106433</ele>
        <time>2025-06-19T09:14:02.507Z</time>
      </trkpt>
      <trkpt lat="49.14599" lon="2.31269">
        <ele>79.210345</ele>
        <time>2025-06-19T09:14:04.501Z</time>
      </trkpt>
      <trkpt lat="49.14599" lon="2.31252">
        <ele>79.303752</ele>
        <time>2025-06-19T09:14:06.501Z</time>
      </trkpt>
      <trkpt lat="49.14598" lon="2.31233">
        <ele>79.401708</ele>
        <time>2025-06-19T09:14:08.506Z</time>
      </trkpt>
      <trkpt lat="49.14597" lon="2.31215">
        <ele>79.497904</ele>
        <time>2025-06-19T09:14:10.513Z</time>
      </trkpt>
      <trkpt lat="49.14596" lon="2.31198">
        <ele>79.588988</ele>
        <time>2025-06-19T09:14:12.504Z</time>
      </trkpt>
      <trkpt lat="49.14596" lon="2.3118">
        <ele>79.683955</ele>
        <time>2025-06-19T09:14:14.514Z</time>
      </trkpt>
      <trkpt lat="49.14595" lon="2.31162">
        <ele>79.780106</ele>
        <time>2025-06-19T09:14:16.504Z</time>
      </trkpt>
      <trkpt lat="49.14595" lon="2.31143">
        <ele>79.87948</ele>
        <time>2025-06-19T09:14:18.505Z</time>
      </trkpt>
      <trkpt lat="49.14594" lon="2.31124">
        <ele>79.980312</ele>
        <time>2025-06-19T09:14:20.505Z</time>
      </trkpt>
      <trkpt lat="49.14596" lon="2.31106">
        <ele>80.079426</ele>
        <time>2025-06-19T09:14:22.512Z</time>
      </trkpt>
      <trkpt lat="49.14597" lon="2.31087">
        <ele>80.178756</ele>
        <time>2025-06-19T09:14:24.508Z</time>
      </trkpt>
      <trkpt lat="49.14597" lon="2.31067">
        <ele>80.282755</ele>
        <time>2025-06-19T09:14:26.505Z</time>
      </trkpt>
      <trkpt lat="49.14596" lon="2.31049">
        <ele>80.567707</ele>
        <time>2025-06-19T09:14:28.503Z</time>
      </trkpt>
      <trkpt lat="49.14596" lon="2.31031">
        <ele>80.955305</ele>
        <time>2025-06-19T09:14:30.504Z</time>
      </trkpt>
      <trkpt lat="49.14595" lon="2.31013">
        <ele>81.331539</ele>
        <time>2025-06-19T09:14:32.503Z</time>
      </trkpt>
      <trkpt lat="49.14594" lon="2.30997">
        <ele>81.677108</ele>
        <time>2025-06-19T09:14:34.502Z</time>
      </trkpt>
      <trkpt lat="49.14594" lon="2.30981">
        <ele>81.999409</ele>
        <time>2025-06-19T09:14:36.501Z</time>
      </trkpt>
      <trkpt lat="49.14594" lon="2.30965">
        <ele>82.340379</ele>
        <time>2025-06-19T09:14:38.500Z</time>
      </trkpt>
      <trkpt lat="49.14594" lon="2.30949">
        <ele>82.681471</ele>
        <time>2025-06-19T09:14:40.500Z</time>
      </trkpt>
      <trkpt lat="49.14594" lon="2.30935">
        <ele>82.992794</ele>
        <time>2025-06-19T09:14:42.501Z</time>
      </trkpt>
      <trkpt lat="49.14594" lon="2.30921">
        <ele>83.285058</ele>
        <time>2025-06-19T09:14:44.504Z</time>
      </trkpt>
      <trkpt lat="49.14594" lon="2.30907">
        <ele>83.583676</ele>
        <time>2025-06-19T09:14:46.503Z</time>
      </trkpt>
      <trkpt lat="49.14594" lon="2.30893">
        <ele>83.875994</ele>
        <time>2025-06-19T09:14:48.505Z</time>
      </trkpt>
      <trkpt lat="49.14595" lon="2.30872">
        <ele>84.310176</ele>
        <time>2025-06-19T09:14:51.507Z</time>
      </trkpt>
      <trkpt lat="49.14595" lon="2.30853">
        <ele>84.717411</ele>
        <time>2025-06-19T09:14:54.504Z</time>
      </trkpt>
      <trkpt lat="49.14596" lon="2.30835">
        <ele>85.105172</ele>
        <time>2025-06-19T09:14:57.505Z</time>
      </trkpt>
      <trkpt lat="49.14596" lon="2.30817">
        <ele>85.49072</ele>
        <time>2025-06-19T09:15:00.502Z</time>
      </trkpt>
      <trkpt lat="49.14597" lon="2.30798">
        <ele>85.877016</ele>
        <time>2025-06-19T09:15:03.502Z</time>
      </trkpt>
      <trkpt lat="49.14597" lon="2.30781">
        <ele>86.211832</ele>
        <time>2025-06-19T09:15:06.504Z</time>
      </trkpt>
      <trkpt lat="49.14598" lon="2.30763">
        <ele>86.439491</ele>
        <time>2025-06-19T09:15:09.501Z</time>
      </trkpt>
      <trkpt lat="49.14598" lon="2.30746">
        <ele>86.655244</ele>
        <time>2025-06-19T09:15:12.499Z</time>
      </trkpt>
      <trkpt lat="49.14599" lon="2.30729">
        <ele>86.879972</ele>
        <time>2025-06-19T09:15:15.503Z</time>
      </trkpt>
      <trkpt lat="49.14598" lon="2.30711">
        <ele>87.116194</ele>
        <time>2025-06-19T09:15:18.500Z</time>
      </trkpt>
      <trkpt lat="49.14599" lon="2.30695">
        <ele>87.326465</ele>
        <time>2025-06-19T09:15:21.508Z</time>
      </trkpt>
      <trkpt lat="49.14599" lon="2.30679">
        <ele>87.53022</ele>
        <time>2025-06-19T09:15:24.506Z</time>
      </trkpt>
      <trkpt lat="49.14599" lon="2.30662">
        <ele>87.749573</ele>
        <time>2025-06-19T09:15:27.505Z</time>
      </trkpt>
      <trkpt lat="49.14599" lon="2.30646">
        <ele>87.96508</ele>
        <time>2025-06-19T09:15:30.511Z</time>
      </trkpt>
      <trkpt lat="49.14599" lon="2.30629">
        <ele>88.185696</ele>
        <time>2025-06-19T09:15:33.506Z</time>
      </trkpt>
      <trkpt lat="49.14598" lon="2.30611">
        <ele>88.41677</ele>
        <time>2025-06-19T09:15:36.504Z</time>
      </trkpt>
      <trkpt lat="49.14598" lon="2.30593">
        <ele>88.646684</ele>
        <time>2025-06-19T09:15:39.507Z</time>
      </trkpt>
      <trkpt lat="49.14598" lon="2.30575">
        <ele>88.882873</ele>
        <time>2025-06-19T09:15:42.501Z</time>
      </trkpt>
      <trkpt lat="49.14597" lon="2.30558">
        <ele>89.107522</ele>
        <time>2025-06-19T09:15:45.512Z</time>
      </trkpt>
      <trkpt lat="49.14597" lon="2.3054">
        <ele>89.333363</ele>
        <time>2025-06-19T09:15:48.509Z</time>
      </trkpt>
      <trkpt lat="49.14597" lon="2.30523">
        <ele>89.561774</ele>
        <time>2025-06-19T09:15:51.518Z</time>
      </trkpt>
      <trkpt lat="49.14597" lon="2.30506">
        <ele>89.787062</ele>
        <time>2025-06-19T09:15:54.509Z</time>
      </trkpt>
      <trkpt lat="49.14597" lon="2.30489">
        <ele>90.015089</ele>
        <time>2025-06-19T09:15:57.511Z</time>
      </trkpt>
      <trkpt lat="49.14596" lon="2.30471">
        <ele>90.26383</ele>
        <time>2025-06-19T09:16:00.515Z</time>
      </trkpt>
      <trkpt lat="49.14596" lon="2.30453">
        <ele>90.519432</ele>
        <time>2025-06-19T09:16:03.509Z</time>
      </trkpt>
      <trkpt lat="49.14596" lon="2.30435">
        <ele>90.764395</ele>
        <time>2025-06-19T09:16:06.510Z</time>
      </trkpt>
      <trkpt lat="49.14595" lon="2.30418">
        <ele>91.001226</ele>
        <time>2025-06-19T09:16:09.515Z</time>
      </trkpt>
      <trkpt lat="49.14594" lon="2.304">
        <ele>91.247268</ele>
        <time>2025-06-19T09:16:12.512Z</time>
      </trkpt>
      <trkpt lat="49.14594" lon="2.30383">
        <ele>91.485112</ele>
        <time>2025-06-19T09:16:15.504Z</time>
      </trkpt>
      <trkpt lat="49.14593" lon="2.30364">
        <ele>91.739859</ele>
        <time>2025-06-19T09:16:18.508Z</time>
      </trkpt>
      <trkpt lat="49.14592" lon="2.30345">
        <ele>92.010241</ele>
        <time>2025-06-19T09:16:21.502Z</time>
      </trkpt>
      <trkpt lat="49.14591" lon="2.30325">
        <ele>92.286734</ele>
        <time>2025-06-19T09:16:24.514Z</time>
      </trkpt>
      <trkpt lat="49.14589" lon="2.30305">
        <ele>92.568723</ele>
        <time>2025-06-19T09:16:27.512Z</time>
      </trkpt>
      <trkpt lat="49.14587" lon="2.30285">
        <ele>92.840774</ele>
        <time>2025-06-19T09:16:30.509Z</time>
      </trkpt>
      <trkpt lat="49.14585" lon="2.30266">
        <ele>93.114813</ele>
        <time>2025-06-19T09:16:33.511Z</time>
      </trkpt>
      <trkpt lat="49.14584" lon="2.30247">
        <ele>93.374384</ele>
        <time>2025-06-19T09:16:36.505Z</time>
      </trkpt>
      <trkpt lat="49.14583" lon="2.30228">
        <ele>93.3318</ele>
        <time>2025-06-19T09:16:39.510Z</time>
      </trkpt>
      <trkpt lat="49.14582" lon="2.30208">
        <ele>92.938265</ele>
        <time>2025-06-19T09:16:42.502Z</time>
      </trkpt>
      <trkpt lat="49.14582" lon="2.30193">
        <ele>92.657823</ele>
        <time>2025-06-19T09:16:44.507Z</time>
      </trkpt>
      <trkpt lat="49.14583" lon="2.30178">
        <ele>92.359404</ele>
        <time>2025-06-19T09:16:46.508Z</time>
      </trkpt>
      <trkpt lat="49.14585" lon="2.30162">
        <ele>92.04505</ele>
        <time>2025-06-19T09:16:48.503Z</time>
      </trkpt>
      <trkpt lat="49.14588" lon="2.30145">
        <ele>91.710103</ele>
        <time>2025-06-19T09:16:50.501Z</time>
      </trkpt>
      <trkpt lat="49.14592" lon="2.30127">
        <ele>91.337596</ele>
        <time>2025-06-19T09:16:52.512Z</time>
      </trkpt>
      <trkpt lat="49.14598" lon="2.30109">
        <ele>90.950851</ele>
        <time>2025-06-19T09:16:54.502Z</time>
      </trkpt>
      <trkpt lat="49.14606" lon="2.30092">
        <ele>90.547736</ele>
        <time>2025-06-19T09:16:56.505Z</time>
      </trkpt>
      <trkpt lat="49.14614" lon="2.30075">
        <ele>90.126574</ele>
        <time>2025-06-19T09:16:58.504Z</time>
      </trkpt>
      <trkpt lat="49.14623" lon="2.30057">
        <ele>89.691672</ele>
        <time>2025-06-19T09:17:00.502Z</time>
      </trkpt>
      <trkpt lat="49.14633" lon="2.3004">
        <ele>89.265537</ele>
        <time>2025-06-19T09:17:02.506Z</time>
      </trkpt>
      <trkpt lat="49.14642" lon="2.30022">
        <ele>88.830344</ele>
        <time>2025-06-19T09:17:04.495Z</time>
      </trkpt>
      <trkpt lat="49.14651" lon="2.30005">
        <ele>88.400016</ele>
        <time>2025-06-19T09:17:06.510Z</time>
      </trkpt>
      <trkpt lat="49.14659" lon="2.29988">
        <ele>87.870182</ele>
        <time>2025-06-19T09:17:08.504Z</time>
      </trkpt>
      <trkpt lat="49.14668" lon="2.29971">
        <ele>87.209889</ele>
        <time>2025-06-19T09:17:10.502Z</time>
      </trkpt>
      <trkpt lat="49.14679" lon="2.29954">
        <ele>86.45294</ele>
        <time>2025-06-19T09:17:12.514Z</time>
      </trkpt>
      <trkpt lat="49.14691" lon="2.29933">
        <ele>85.613962</ele>
        <time>2025-06-19T09:17:14.500Z</time>
      </trkpt>
      <trkpt lat="49.14697" lon="2.29922">
        <ele>85.168375</ele>
        <time>2025-06-19T09:17:15.502Z</time>
      </trkpt>
      <trkpt lat="49.14704" lon="2.29912">
        <ele>84.703316</ele>
        <time>2025-06-19T09:17:16.505Z</time>
      </trkpt>
      <trkpt lat="49.14711" lon="2.29901">
        <ele>84.227685</ele>
        <time>2025-06-19T09:17:17.501Z</time>
      </trkpt>
      <trkpt lat="49.14718" lon="2.29891">
        <ele>83.761098</ele>
        <time>2025-06-19T09:17:18.502Z</time>
      </trkpt>
      <trkpt lat="49.14725" lon="2.29881">
        <ele>83.321714</ele>
        <time>2025-06-19T09:17:19.499Z</time>
      </trkpt>
      <trkpt lat="49.14732" lon="2.29872">
        <ele>82.883309</ele>
        <time>2025-06-19T09:17:20.503Z</time>
      </trkpt>
      <trkpt lat="49.14739" lon="2.29863">
        <ele>82.453011</ele>
        <time>2025-06-19T09:17:21.507Z</time>
      </trkpt>
      <trkpt lat="49.14752" lon="2.29845">
        <ele>81.620154</ele>
        <time>2025-06-19T09:17:23.505Z</time>
      </trkpt>
      <trkpt lat="49.14765" lon="2.29828">
        <ele>80.809079</ele>
        <time>2025-06-19T09:17:25.506Z</time>
      </trkpt>
      <trkpt lat="49.14777" lon="2.29813">
        <ele>80.092169</ele>
        <time>2025-06-19T09:17:27.504Z</time>
      </trkpt>
      <trkpt lat="49.14788" lon="2.29802">
        <ele>79.637314</ele>
        <time>2025-06-19T09:17:29.506Z</time>
      </trkpt>
      <trkpt lat="49.14802" lon="2.29795">
        <ele>79.512641</ele>
        <time>2025-06-19T09:17:31.508Z</time>
      </trkpt>
      <trkpt lat="49.14815" lon="2.29788">
        <ele>79.387781</ele>
        <time>2025-06-19T09:17:33.502Z</time>
      </trkpt>
      <trkpt lat="49.14822" lon="2.29774">
        <ele>79.287845</ele>
        <time>2025-06-19T09:17:35.506Z</time>
      </trkpt>
      <trkpt lat="49.14821" lon="2.29759">
        <ele>79.199926</ele>
        <time>2025-06-19T09:17:37.501Z</time>
      </trkpt>
      <trkpt lat="49.14814" lon="2.29749">
        <ele>79.115457</ele>
        <time>2025-06-19T09:17:39.504Z</time>
      </trkpt>
      <trkpt lat="49.14807" lon="2.29738">
        <ele>79.022952</ele>
        <time>2025-06-19T09:17:41.506Z</time>
      </trkpt>
      <trkpt lat="49.14802" lon="2.29722">
        <ele>78.922902</ele>
        <time>2025-06-19T09:17:43.504Z</time>
      </trkpt>
      <trkpt lat="49.14799" lon="2.29705">
        <ele>78.815395</ele>
        <time>2025-06-19T09:17:45.517Z</time>
      </trkpt>
      <trkpt lat="49.14795" lon="2.29686">
        <ele>78.699809</ele>
        <time>2025-06-19T09:17:47.501Z</time>
      </trkpt>
      <trkpt lat="49.14791" lon="2.29666">
        <ele>78.579306</ele>
        <time>2025-06-19T09:17:49.503Z</time>
      </trkpt>
      <trkpt lat="49.14787" lon="2.29646">
        <ele>78.460199</ele>
        <time>2025-06-19T09:17:51.495Z</time>
      </trkpt>
      <trkpt lat="49.14782" lon="2.29627">
        <ele>78.343164</ele>
        <time>2025-06-19T09:17:53.497Z</time>
      </trkpt>
      <trkpt lat="49.14777" lon="2.29606">
        <ele>78.212903</ele>
        <time>2025-06-19T09:17:55.499Z</time>
      </trkpt>
      <trkpt lat="49.14773" lon="2.29588">
        <ele>78.103449</ele>
        <time>2025-06-19T09:17:57.506Z</time>
      </trkpt>
      <trkpt lat="49.1477" lon="2.2957">
        <ele>78.074771</ele>
        <time>2025-06-19T09:17:59.502Z</time>
      </trkpt>
      <trkpt lat="49.14766" lon="2.29553">
        <ele>78.065033</ele>
        <time>2025-06-19T09:18:01.505Z</time>
      </trkpt>
      <trkpt lat="49.14762" lon="2.29536">
        <ele>78.055117</ele>
        <time>2025-06-19T09:18:03.500Z</time>
      </trkpt>
      <trkpt lat="49.14758" lon="2.2952">
        <ele>78.045568</ele>
        <time>2025-06-19T09:18:05.504Z</time>
      </trkpt>
      <trkpt lat="49.14755" lon="2.29504">
        <ele>78.036617</ele>
        <time>2025-06-19T09:18:07.509Z</time>
      </trkpt>
      <trkpt lat="49.14752" lon="2.29489">
        <ele>78.028104</ele>
        <time>2025-06-19T09:18:09.504Z</time>
      </trkpt>
      <trkpt lat="49.14749" lon="2.29475">
        <ele>78.020308</ele>
        <time>2025-06-19T09:18:11.506Z</time>
      </trkpt>
      <trkpt lat="49.14748" lon="2.29459">
        <ele>78.011105</ele>
        <time>2025-06-19T09:18:13.511Z</time>
      </trkpt>
      <trkpt lat="49.14745" lon="2.29445">
        <ele>78.003062</ele>
        <time>2025-06-19T09:18:15.512Z</time>
      </trkpt>
      <trkpt lat="49.1474" lon="2.2943">
        <ele>77.99414</ele>
        <time>2025-06-19T09:18:17.504Z</time>
      </trkpt>
      <trkpt lat="49.14738" lon="2.29413">
        <ele>77.984662</ele>
        <time>2025-06-19T09:18:19.500Z</time>
      </trkpt>
      <trkpt lat="49.14735" lon="2.29396">
        <ele>77.975217</ele>
        <time>2025-06-19T09:18:21.511Z</time>
      </trkpt>
      <trkpt lat="49.14733" lon="2.2938">
        <ele>77.966273</ele>
        <time>2025-06-19T09:18:23.501Z</time>
      </trkpt>
      <trkpt lat="49.14731" lon="2.29364">
        <ele>77.957079</ele>
        <time>2025-06-19T09:18:25.500Z</time>
      </trkpt>
      <trkpt lat="49.14728" lon="2.29347">
        <ele>77.947666</ele>
        <time>2025-06-19T09:18:27.508Z</time>
      </trkpt>
      <trkpt lat="49.14726" lon="2.29329">
        <ele>77.937776</ele>
        <time>2025-06-19T09:18:29.506Z</time>
      </trkpt>
      <trkpt lat="49.14723" lon="2.29312">
        <ele>77.838824</ele>
        <time>2025-06-19T09:18:31.501Z</time>
      </trkpt>
      <trkpt lat="49.14721" lon="2.29297">
        <ele>77.674529</ele>
        <time>2025-06-19T09:18:33.509Z</time>
      </trkpt>
      <trkpt lat="49.14719" lon="2.29283">
        <ele>77.521261</ele>
        <time>2025-06-19T09:18:35.506Z</time>
      </trkpt>
      <trkpt lat="49.14717" lon="2.29267">
        <ele>77.353321</ele>
        <time>2025-06-19T09:18:37.504Z</time>
      </trkpt>
      <trkpt lat="49.14715" lon="2.29251">
        <ele>77.17604</ele>
        <time>2025-06-19T09:18:39.505Z</time>
      </trkpt>
      <trkpt lat="49.14714" lon="2.29235">
        <ele>77.003816</ele>
        <time>2025-06-19T09:18:41.507Z</time>
      </trkpt>
      <trkpt lat="49.14713" lon="2.29218">
        <ele>76.826821</ele>
        <time>2025-06-19T09:18:43.502Z</time>
      </trkpt>
      <trkpt lat="49.14712" lon="2.29201">
        <ele>76.650781</ele>
        <time>2025-06-19T09:18:45.505Z</time>
      </trkpt>
      <trkpt lat="49.14712" lon="2.29185">
        <ele>76.47912</ele>
        <time>2025-06-19T09:18:47.499Z</time>
      </trkpt>
      <trkpt lat="49.14712" lon="2.29169">
        <ele>76.3087</ele>
        <time>2025-06-19T09:18:49.500Z</time>
      </trkpt>
      <trkpt lat="49.14712" lon="2.29151">
        <ele>76.124598</ele>
        <time>2025-06-19T09:18:51.506Z</time>
      </trkpt>
      <trkpt lat="49.14711" lon="2.29134">
        <ele>75.942152</ele>
        <time>2025-06-19T09:18:53.496Z</time>
      </trkpt>
      <trkpt lat="49.14711" lon="2.29117">
        <ele>75.76962</ele>
        <time>2025-06-19T09:18:55.503Z</time>
      </trkpt>
      <trkpt lat="49.1471" lon="2.291">
        <ele>75.585272</ele>
        <time>2025-06-19T09:18:57.498Z</time>
      </trkpt>
      <trkpt lat="49.14708" lon="2.29081">
        <ele>75.386431</ele>
        <time>2025-06-19T09:18:59.507Z</time>
      </trkpt>
      <trkpt lat="49.14706" lon="2.29062">
        <ele>75.176952</ele>
        <time>2025-06-19T09:19:01.502Z</time>
      </trkpt>
      <trkpt lat="49.14703" lon="2.2904">
        <ele>74.98427</ele>
        <time>2025-06-19T09:19:03.513Z</time>
      </trkpt>
      <trkpt lat="49.14699" lon="2.29018">
        <ele>74.83604</ele>
        <time>2025-06-19T09:19:05.501Z</time>
      </trkpt>
      <trkpt lat="49.14693" lon="2.28996">
        <ele>74.682636</ele>
        <time>2025-06-19T09:19:07.512Z</time>
      </trkpt>
      <trkpt lat="49.14684" lon="2.28977">
        <ele>74.535251</ele>
        <time>2025-06-19T09:19:09.511Z</time>
      </trkpt>
      <trkpt lat="49.14674" lon="2.28959">
        <ele>74.387329</ele>
        <time>2025-06-19T09:19:11.509Z</time>
      </trkpt>
      <trkpt lat="49.14664" lon="2.28943">
        <ele>74.243898</ele>
        <time>2025-06-19T09:19:13.499Z</time>
      </trkpt>
      <trkpt lat="49.14654" lon="2.28928">
        <ele>74.103589</ele>
        <time>2025-06-19T09:19:15.498Z</time>
      </trkpt>
      <trkpt lat="49.14644" lon="2.28912">
        <ele>73.966879</ele>
        <time>2025-06-19T09:19:17.502Z</time>
      </trkpt>
      <trkpt lat="49.14635" lon="2.28895">
        <ele>73.82848</ele>
        <time>2025-06-19T09:19:19.508Z</time>
      </trkpt>
      <trkpt lat="49.14627" lon="2.28878">
        <ele>73.693673</ele>
        <time>2025-06-19T09:19:21.508Z</time>
      </trkpt>
      <trkpt lat="49.1462" lon="2.28861">
        <ele>73.559137</ele>
        <time>2025-06-19T09:19:23.511Z</time>
      </trkpt>
      <trkpt lat="49.14611" lon="2.28843">
        <ele>73.41977</ele>
        <time>2025-06-19T09:19:25.506Z</time>
      </trkpt>
      <trkpt lat="49.14604" lon="2.28824">
        <ele>73.29399</ele>
        <time>2025-06-19T09:19:27.500Z</time>
      </trkpt>
      <trkpt lat="49.14597" lon="2.28807">
        <ele>73.548864</ele>
        <time>2025-06-19T09:19:29.500Z</time>
      </trkpt>
      <trkpt lat="49.1459" lon="2.28791">
        <ele>73.797407</ele>
        <time>2025-06-19T09:19:31.503Z</time>
      </trkpt>
      <trkpt lat="49.14584" lon="2.28774">
        <ele>74.040737</ele>
        <time>2025-06-19T09:19:33.499Z</time>
      </trkpt>
      <trkpt lat="49.14577" lon="2.28759">
        <ele>74.276558</ele>
        <time>2025-06-19T09:19:35.501Z</time>
      </trkpt>
      <trkpt lat="49.1457" lon="2.28743">
        <ele>74.51659</ele>
        <time>2025-06-19T09:19:37.500Z</time>
      </trkpt>
      <trkpt lat="49.14563" lon="2.28726">
        <ele>74.772759</ele>
        <time>2025-06-19T09:19:39.507Z</time>
      </trkpt>
      <trkpt lat="49.14556" lon="2.2871">
        <ele>75.027626</ele>
        <time>2025-06-19T09:19:41.504Z</time>
      </trkpt>
      <trkpt lat="49.14548" lon="2.28694">
        <ele>75.275111</ele>
        <time>2025-06-19T09:19:43.515Z</time>
      </trkpt>
      <trkpt lat="49.14541" lon="2.28679">
        <ele>75.514874</ele>
        <time>2025-06-19T09:19:45.499Z</time>
      </trkpt>
      <trkpt lat="49.14532" lon="2.28666">
        <ele>75.743584</ele>
        <time>2025-06-19T09:19:47.513Z</time>
      </trkpt>
      <trkpt lat="49.14525" lon="2.28653">
        <ele>75.952392</ele>
        <time>2025-06-19T09:19:49.506Z</time>
      </trkpt>
      <trkpt lat="49.14519" lon="2.28642">
        <ele>76.150415</ele>
        <time>2025-06-19T09:19:51.504Z</time>
      </trkpt>
      <trkpt lat="49.14511" lon="2.28631">
        <ele>76.346605</ele>
        <time>2025-06-19T09:19:53.505Z</time>
      </trkpt>
      <trkpt lat="49.14503" lon="2.28619">
        <ele>76.573656</ele>
        <time>2025-06-19T09:19:56.514Z</time>
      </trkpt>
      <trkpt lat="49.14496" lon="2.28607">
        <ele>76.774501</ele>
        <time>2025-06-19T09:20:00.512Z</time>
      </trkpt>
      <trkpt lat="49.1449" lon="2.28593">
        <ele>76.609795</ele>
        <time>2025-06-19T09:20:05.509Z</time>
      </trkpt>
      <trkpt lat="49.14483" lon="2.28581">
        <ele>76.453194</ele>
        <time>2025-06-19T09:20:08.507Z</time>
      </trkpt>
      <trkpt lat="49.14473" lon="2.28571">
        <ele>76.271815</ele>
        <time>2025-06-19T09:20:11.505Z</time>
      </trkpt>
      <trkpt lat="49.14467" lon="2.2856">
        <ele>76.13273</ele>
        <time>2025-06-19T09:20:13.507Z</time>
      </trkpt>
      <trkpt lat="49.14461" lon="2.28545">
        <ele>75.959882</ele>
        <time>2025-06-19T09:20:15.504Z</time>
      </trkpt>
      <trkpt lat="49.14455" lon="2.28528">
        <ele>75.774517</ele>
        <time>2025-06-19T09:20:17.506Z</time>
      </trkpt>
      <trkpt lat="49.14449" lon="2.28511">
        <ele>75.58158</ele>
        <time>2025-06-19T09:20:19.502Z</time>
      </trkpt>
      <trkpt lat="49.14442" lon="2.28494">
        <ele>75.386299</ele>
        <time>2025-06-19T09:20:21.500Z</time>
      </trkpt>
      <trkpt lat="49.14435" lon="2.28477">
        <ele>75.187185</ele>
        <time>2025-06-19T09:20:23.504Z</time>
      </trkpt>
      <trkpt lat="49.14428" lon="2.28461">
        <ele>75.002059</ele>
        <time>2025-06-19T09:20:25.503Z</time>
      </trkpt>
      <trkpt lat="49.14422" lon="2.28447">
        <ele>74.830731</ele>
        <time>2025-06-19T09:20:27.504Z</time>
      </trkpt>
      <trkpt lat="49.14414" lon="2.28429">
        <ele>74.619174</ele>
        <time>2025-06-19T09:20:29.508Z</time>
      </trkpt>
      <trkpt lat="49.14406" lon="2.28412">
        <ele>74.411849</ele>
        <time>2025-06-19T09:20:31.502Z</time>
      </trkpt>
      <trkpt lat="49.14398" lon="2.28394">
        <ele>74.199487</ele>
        <time>2025-06-19T09:20:33.505Z</time>
      </trkpt>
      <trkpt lat="49.14391" lon="2.28377">
        <ele>74.029022</ele>
        <time>2025-06-19T09:20:35.503Z</time>
      </trkpt>
      <trkpt lat="49.14384" lon="2.28359">
        <ele>73.904745</ele>
        <time>2025-06-19T09:20:37.504Z</time>
      </trkpt>
      <trkpt lat="49.14377" lon="2.28344">
        <ele>73.791607</ele>
        <time>2025-06-19T09:20:39.503Z</time>
      </trkpt>
      <trkpt lat="49.14371" lon="2.28328">
        <ele>73.68416</ele>
        <time>2025-06-19T09:20:41.501Z</time>
      </trkpt>
      <trkpt lat="49.14365" lon="2.28312">
        <ele>73.570281</ele>
        <time>2025-06-19T09:20:43.503Z</time>
      </trkpt>
      <trkpt lat="49.14361" lon="2.28295">
        <ele>73.459741</ele>
        <time>2025-06-19T09:20:45.515Z</time>
      </trkpt>
      <trkpt lat="49.14354" lon="2.28278">
        <ele>73.343317</ele>
        <time>2025-06-19T09:20:47.503Z</time>
      </trkpt>
      <trkpt lat="49.14348" lon="2.28262">
        <ele>73.231061</ele>
        <time>2025-06-19T09:20:49.500Z</time>
      </trkpt>
      <trkpt lat="49.14343" lon="2.28246">
        <ele>73.125543</ele>
        <time>2025-06-19T09:20:51.500Z</time>
      </trkpt>
      <trkpt lat="49.14338" lon="2.28231">
        <ele>73.020453</ele>
        <time>2025-06-19T09:20:53.505Z</time>
      </trkpt>
      <trkpt lat="49.14332" lon="2.28214">
        <ele>72.907841</ele>
        <time>2025-06-19T09:20:55.507Z</time>
      </trkpt>
      <trkpt lat="49.14327" lon="2.28195">
        <ele>72.785193</ele>
        <time>2025-06-19T09:20:57.500Z</time>
      </trkpt>
      <trkpt lat="49.14321" lon="2.28178">
        <ele>72.670091</ele>
        <time>2025-06-19T09:20:59.501Z</time>
      </trkpt>
      <trkpt lat="49.14316" lon="2.28161">
        <ele>72.557546</ele>
        <time>2025-06-19T09:21:01.511Z</time>
      </trkpt>
      <trkpt lat="49.14311" lon="2.28145">
        <ele>72.448579</ele>
        <time>2025-06-19T09:21:03.510Z</time>
      </trkpt>
      <trkpt lat="49.14305" lon="2.28128">
        <ele>72.46499</ele>
        <time>2025-06-19T09:21:05.514Z</time>
      </trkpt>
      <trkpt lat="49.14299" lon="2.2811">
        <ele>72.522963</ele>
        <time>2025-06-19T09:21:07.508Z</time>
      </trkpt>
      <trkpt lat="49.14294" lon="2.28095">
        <ele>72.576943</ele>
        <time>2025-06-19T09:21:09.510Z</time>
      </trkpt>
      <trkpt lat="49.14289" lon="2.28078">
        <ele>72.632212</ele>
        <time>2025-06-19T09:21:11.505Z</time>
      </trkpt>
      <trkpt lat="49.14283" lon="2.28064">
        <ele>72.681644</ele>
        <time>2025-06-19T09:21:13.505Z</time>
      </trkpt>
      <trkpt lat="49.14278" lon="2.28052">
        <ele>72.727765</ele>
        <time>2025-06-19T09:21:15.507Z</time>
      </trkpt>
      <trkpt lat="49.1427" lon="2.28035">
        <ele>72.788586</ele>
        <time>2025-06-19T09:21:18.499Z</time>
      </trkpt>
      <trkpt lat="49.14264" lon="2.28022">
        <ele>72.838286</ele>
        <time>2025-06-19T09:21:21.497Z</time>
      </trkpt>
      <trkpt lat="49.14258" lon="2.28009">
        <ele>72.88542</ele>
        <time>2025-06-19T09:21:24.507Z</time>
      </trkpt>
      <trkpt lat="49.14252" lon="2.27993">
        <ele>72.940932</ele>
        <time>2025-06-19T09:21:27.502Z</time>
      </trkpt>
      <trkpt lat="49.14244" lon="2.27977">
        <ele>73.001875</ele>
        <time>2025-06-19T09:21:30.503Z</time>
      </trkpt>
      <trkpt lat="49.14238" lon="2.27966">
        <ele>73.044322</ele>
        <time>2025-06-19T09:21:32.499Z</time>
      </trkpt>
      <trkpt lat="49.14232" lon="2.27955">
        <ele>73.089354</ele>
        <time>2025-06-19T09:21:34.504Z</time>
      </trkpt>
      <trkpt lat="49.14226" lon="2.27943">
        <ele>73.136375</ele>
        <time>2025-06-19T09:21:36.495Z</time>
      </trkpt>
      <trkpt lat="49.14218" lon="2.2793">
        <ele>73.187115</ele>
        <time>2025-06-19T09:21:38.506Z</time>
      </trkpt>
      <trkpt lat="49.14211" lon="2.27918">
        <ele>73.237941</ele>
        <time>2025-06-19T09:21:40.505Z</time>
      </trkpt>
      <trkpt lat="49.14203" lon="2.27905">
        <ele>73.349679</ele>
        <time>2025-06-19T09:21:42.499Z</time>
      </trkpt>
      <trkpt lat="49.14196" lon="2.27894">
        <ele>73.476865</ele>
        <time>2025-06-19T09:21:44.500Z</time>
      </trkpt>
      <trkpt lat="49.14188" lon="2.27882">
        <ele>73.604777</ele>
        <time>2025-06-19T09:21:46.500Z</time>
      </trkpt>
      <trkpt lat="49.1418" lon="2.27871">
        <ele>73.728914</ele>
        <time>2025-06-19T09:21:48.500Z</time>
      </trkpt>
      <trkpt lat="49.14173" lon="2.2786">
        <ele>73.854017</ele>
        <time>2025-06-19T09:21:50.501Z</time>
      </trkpt>
      <trkpt lat="49.14166" lon="2.27849">
        <ele>73.975945</ele>
        <time>2025-06-19T09:21:52.502Z</time>
      </trkpt>
      <trkpt lat="49.14158" lon="2.27838">
        <ele>74.10071</ele>
        <time>2025-06-19T09:21:54.506Z</time>
      </trkpt>
      <trkpt lat="49.14151" lon="2.27826">
        <ele>74.227361</ele>
        <time>2025-06-19T09:21:56.497Z</time>
      </trkpt>
      <trkpt lat="49.14144" lon="2.27814">
        <ele>74.355284</ele>
        <time>2025-06-19T09:21:58.501Z</time>
      </trkpt>
      <trkpt lat="49.14137" lon="2.27802">
        <ele>74.477131</ele>
        <time>2025-06-19T09:22:00.503Z</time>
      </trkpt>
      <trkpt lat="49.1413" lon="2.27789">
        <ele>74.602149</ele>
        <time>2025-06-19T09:22:02.502Z</time>
      </trkpt>
      <trkpt lat="49.14124" lon="2.27778">
        <ele>74.721884</ele>
        <time>2025-06-19T09:22:04.504Z</time>
      </trkpt>
      <trkpt lat="49.14117" lon="2.27765">
        <ele>74.852689</ele>
        <time>2025-06-19T09:22:06.501Z</time>
      </trkpt>
      <trkpt lat="49.14111" lon="2.2775">
        <ele>74.991057</ele>
        <time>2025-06-19T09:22:08.500Z</time>
      </trkpt>
      <trkpt lat="49.14103" lon="2.27736">
        <ele>75.129933</ele>
        <time>2025-06-19T09:22:10.499Z</time>
      </trkpt>
      <trkpt lat="49.14096" lon="2.27721">
        <ele>75.271177</ele>
        <time>2025-06-19T09:22:12.504Z</time>
      </trkpt>
      <trkpt lat="49.14089" lon="2.27706">
        <ele>75.397886</ele>
        <time>2025-06-19T09:22:14.503Z</time>
      </trkpt>
      <trkpt lat="49.14081" lon="2.27693">
        <ele>75.400907</ele>
        <time>2025-06-19T09:22:16.505Z</time>
      </trkpt>
      <trkpt lat="49.14073" lon="2.27678">
        <ele>75.403972</ele>
        <time>2025-06-19T09:22:18.504Z</time>
      </trkpt>
      <trkpt lat="49.14066" lon="2.27664">
        <ele>75.407122</ele>
        <time>2025-06-19T09:22:20.500Z</time>
      </trkpt>
      <trkpt lat="49.14058" lon="2.2765">
        <ele>75.410295</ele>
        <time>2025-06-19T09:22:22.506Z</time>
      </trkpt>
      <trkpt lat="49.1405" lon="2.27635">
        <ele>75.413492</ele>
        <time>2025-06-19T09:22:24.501Z</time>
      </trkpt>
      <trkpt lat="49.14042" lon="2.27619">
        <ele>75.416828</ele>
        <time>2025-06-19T09:22:26.505Z</time>
      </trkpt>
      <trkpt lat="49.14034" lon="2.27604">
        <ele>75.420135</ele>
        <time>2025-06-19T09:22:28.505Z</time>
      </trkpt>
      <trkpt lat="49.14026" lon="2.2759">
        <ele>75.423194</ele>
        <time>2025-06-19T09:22:30.513Z</time>
      </trkpt>
      <trkpt lat="49.14019" lon="2.27578">
        <ele>75.425969</ele>
        <time>2025-06-19T09:22:32.519Z</time>
      </trkpt>
      <trkpt lat="49.14013" lon="2.27566">
        <ele>75.428511</ele>
        <time>2025-06-19T09:22:34.511Z</time>
      </trkpt>
      <trkpt lat="49.14007" lon="2.27554">
        <ele>75.431086</ele>
        <time>2025-06-19T09:22:36.509Z</time>
      </trkpt>
      <trkpt lat="49.14" lon="2.27542">
        <ele>75.433739</ele>
        <time>2025-06-19T09:22:38.511Z</time>
      </trkpt>
      <trkpt lat="49.13992" lon="2.27529">
        <ele>75.436813</ele>
        <time>2025-06-19T09:22:40.501Z</time>
      </trkpt>
      <trkpt lat="49.13982" lon="2.27517">
        <ele>75.439998</ele>
        <time>2025-06-19T09:22:42.506Z</time>
      </trkpt>
      <trkpt lat="49.13973" lon="2.27504">
        <ele>75.443308</ele>
        <time>2025-06-19T09:22:44.510Z</time>
      </trkpt>
      <trkpt lat="49.13963" lon="2.27491">
        <ele>75.566656</ele>
        <time>2025-06-19T09:22:46.510Z</time>
      </trkpt>
      <trkpt lat="49.13953" lon="2.27477">
        <ele>75.712335</ele>
        <time>2025-06-19T09:22:48.502Z</time>
      </trkpt>
      <trkpt lat="49.13944" lon="2.27464">
        <ele>75.85303</ele>
        <time>2025-06-19T09:22:50.505Z</time>
      </trkpt>
      <trkpt lat="49.13934" lon="2.27451">
        <ele>75.99381</ele>
        <time>2025-06-19T09:22:52.505Z</time>
      </trkpt>
      <trkpt lat="49.13925" lon="2.27439">
        <ele>76.12934</ele>
        <time>2025-06-19T09:22:54.501Z</time>
      </trkpt>
      <trkpt lat="49.13915" lon="2.27426">
        <ele>76.272498</ele>
        <time>2025-06-19T09:22:56.501Z</time>
      </trkpt>
      <trkpt lat="49.13905" lon="2.27413">
        <ele>76.409834</ele>
        <time>2025-06-19T09:22:58.499Z</time>
      </trkpt>
      <trkpt lat="49.13896" lon="2.27402">
        <ele>76.542819</ele>
        <time>2025-06-19T09:23:00.506Z</time>
      </trkpt>
      <trkpt lat="49.13887" lon="2.2739">
        <ele>76.670127</ele>
        <time>2025-06-19T09:23:02.515Z</time>
      </trkpt>
      <trkpt lat="49.13879" lon="2.27378">
        <ele>76.795184</ele>
        <time>2025-06-19T09:23:04.501Z</time>
      </trkpt>
      <trkpt lat="49.13871" lon="2.27368">
        <ele>76.901711</ele>
        <time>2025-06-19T09:23:06.505Z</time>
      </trkpt>
      <trkpt lat="49.13864" lon="2.27357">
        <ele>77.014194</ele>
        <time>2025-06-19T09:23:08.503Z</time>
      </trkpt>
      <trkpt lat="49.13858" lon="2.27346">
        <ele>77.11968</ele>
        <time>2025-06-19T09:23:10.501Z</time>
      </trkpt>
      <trkpt lat="49.13854" lon="2.27332">
        <ele>77.229176</ele>
        <time>2025-06-19T09:23:12.507Z</time>
      </trkpt>
      <trkpt lat="49.13851" lon="2.27315">
        <ele>77.349443</ele>
        <time>2025-06-19T09:23:14.513Z</time>
      </trkpt>
      <trkpt lat="49.13847" lon="2.273">
        <ele>77.350044</ele>
        <time>2025-06-19T09:23:16.503Z</time>
      </trkpt>
      <trkpt lat="49.13842" lon="2.27284">
        <ele>77.226182</ele>
        <time>2025-06-19T09:23:18.506Z</time>
      </trkpt>
      <trkpt lat="49.13836" lon="2.27269">
        <ele>77.09594</ele>
        <time>2025-06-19T09:23:20.517Z</time>
      </trkpt>
      <trkpt lat="49.13831" lon="2.27256">
        <ele>76.983685</ele>
        <time>2025-06-19T09:23:22.505Z</time>
      </trkpt>
      <trkpt lat="49.13826" lon="2.27244">
        <ele>76.877813</ele>
        <time>2025-06-19T09:23:24.504Z</time>
      </trkpt>
      <trkpt lat="49.13819" lon="2.27228">
        <ele>76.739667</ele>
        <time>2025-06-19T09:23:27.509Z</time>
      </trkpt>
      <trkpt lat="49.13813" lon="2.27214">
        <ele>76.62284</ele>
        <time>2025-06-19T09:23:30.509Z</time>
      </trkpt>
      <trkpt lat="49.13809" lon="2.27195">
        <ele>76.47629</ele>
        <time>2025-06-19T09:23:33.510Z</time>
      </trkpt>
      <trkpt lat="49.1381" lon="2.2718">
        <ele>76.366445</ele>
        <time>2025-06-19T09:23:35.517Z</time>
      </trkpt>
      <trkpt lat="49.13807" lon="2.27165">
        <ele>76.250621</ele>
        <time>2025-06-19T09:23:37.515Z</time>
      </trkpt>
      <trkpt lat="49.13799" lon="2.27152">
        <ele>76.129869</ele>
        <time>2025-06-19T09:23:39.515Z</time>
      </trkpt>
      <trkpt lat="49.13789" lon="2.27147">
        <ele>76.011505</ele>
        <time>2025-06-19T09:23:41.503Z</time>
      </trkpt>
      <trkpt lat="49.13779" lon="2.27145">
        <ele>75.898576</ele>
        <time>2025-06-19T09:23:43.508Z</time>
      </trkpt>
      <trkpt lat="49.13769" lon="2.27139">
        <ele>75.777624</ele>
        <time>2025-06-19T09:23:45.507Z</time>
      </trkpt>
      <trkpt lat="49.13759" lon="2.27128">
        <ele>75.641617</ele>
        <time>2025-06-19T09:23:47.503Z</time>
      </trkpt>
      <trkpt lat="49.13751" lon="2.27114">
        <ele>75.508204</ele>
        <time>2025-06-19T09:23:49.504Z</time>
      </trkpt>
      <trkpt lat="49.13743" lon="2.271">
        <ele>75.390391</ele>
        <time>2025-06-19T09:23:51.503Z</time>
      </trkpt>
      <trkpt lat="49.13735" lon="2.27084">
        <ele>75.322133</ele>
        <time>2025-06-19T09:23:53.503Z</time>
      </trkpt>
      <trkpt lat="49.13726" lon="2.27071">
        <ele>75.253616</ele>
        <time>2025-06-19T09:23:55.506Z</time>
      </trkpt>
      <trkpt lat="49.13715" lon="2.27059">
        <ele>75.17866</ele>
        <time>2025-06-19T09:23:57.504Z</time>
      </trkpt>
      <trkpt lat="49.13704" lon="2.27049">
        <ele>75.107549</ele>
        <time>2025-06-19T09:23:59.497Z</time>
      </trkpt>
      <trkpt lat="49.13692" lon="2.27039">
        <ele>75.036726</ele>
        <time>2025-06-19T09:24:01.504Z</time>
      </trkpt>
      <trkpt lat="49.13681" lon="2.2703">
        <ele>74.967214</ele>
        <time>2025-06-19T09:24:03.504Z</time>
      </trkpt>
      <trkpt lat="49.13669" lon="2.27021">
        <ele>74.897864</ele>
        <time>2025-06-19T09:24:05.501Z</time>
      </trkpt>
      <trkpt lat="49.13658" lon="2.27011">
        <ele>74.826645</ele>
        <time>2025-06-19T09:24:07.501Z</time>
      </trkpt>
      <trkpt lat="49.13646" lon="2.27">
        <ele>74.753269</ele>
        <time>2025-06-19T09:24:09.504Z</time>
      </trkpt>
      <trkpt lat="49.13636" lon="2.26987">
        <ele>74.678759</ele>
        <time>2025-06-19T09:24:11.501Z</time>
      </trkpt>
      <trkpt lat="49.13626" lon="2.26972">
        <ele>74.605136</ele>
        <time>2025-06-19T09:24:13.507Z</time>
      </trkpt>
      <trkpt lat="49.13617" lon="2.26957">
        <ele>74.531943</ele>
        <time>2025-06-19T09:24:15.507Z</time>
      </trkpt>
      <trkpt lat="49.13608" lon="2.26942">
        <ele>74.45971</ele>
        <time>2025-06-19T09:24:17.507Z</time>
      </trkpt>
      <trkpt lat="49.136" lon="2.26926">
        <ele>74.426508</ele>
        <time>2025-06-19T09:24:19.505Z</time>
      </trkpt>
      <trkpt lat="49.13592" lon="2.26911">
        <ele>74.408726</ele>
        <time>2025-06-19T09:24:21.506Z</time>
      </trkpt>
      <trkpt lat="49.13584" lon="2.26896">
        <ele>74.391553</ele>
        <time>2025-06-19T09:24:23.510Z</time>
      </trkpt>
      <trkpt lat="49.13576" lon="2.26882">
        <ele>74.375195</ele>
        <time>2025-06-19T09:24:25.500Z</time>
      </trkpt>
      <trkpt lat="49.13568" lon="2.26868">
        <ele>74.358471</ele>
        <time>2025-06-19T09:24:27.506Z</time>
      </trkpt>
      <trkpt lat="49.13561" lon="2.26854">
        <ele>74.342119</ele>
        <time>2025-06-19T09:24:29.508Z</time>
      </trkpt>
      <trkpt lat="49.13552" lon="2.2684">
        <ele>74.324969</ele>
        <time>2025-06-19T09:24:31.514Z</time>
      </trkpt>
      <trkpt lat="49.13545" lon="2.26827">
        <ele>74.309307</ele>
        <time>2025-06-19T09:24:33.508Z</time>
      </trkpt>
      <trkpt lat="49.13537" lon="2.26815">
        <ele>74.293813</ele>
        <time>2025-06-19T09:24:35.505Z</time>
      </trkpt>
      <trkpt lat="49.1353" lon="2.26803">
        <ele>74.279316</ele>
        <time>2025-06-19T09:24:37.512Z</time>
      </trkpt>
      <trkpt lat="49.13521" lon="2.26791">
        <ele>74.263302</ele>
        <time>2025-06-19T09:24:39.506Z</time>
      </trkpt>
      <trkpt lat="49.13513" lon="2.26779">
        <ele>74.247656</ele>
        <time>2025-06-19T09:24:41.504Z</time>
      </trkpt>
      <trkpt lat="49.13505" lon="2.26768">
        <ele>74.23266</ele>
        <time>2025-06-19T09:24:43.506Z</time>
      </trkpt>
      <trkpt lat="49.13497" lon="2.26757">
        <ele>74.21758</ele>
        <time>2025-06-19T09:24:45.512Z</time>
      </trkpt>
      <trkpt lat="49.13488" lon="2.26746">
        <ele>74.201664</ele>
        <time>2025-06-19T09:24:47.509Z</time>
      </trkpt>
      <trkpt lat="49.13479" lon="2.26734">
        <ele>74.215838</ele>
        <time>2025-06-19T09:24:49.493Z</time>
      </trkpt>
      <trkpt lat="49.1347" lon="2.26723">
        <ele>74.279742</ele>
        <time>2025-06-19T09:24:51.505Z</time>
      </trkpt>
      <trkpt lat="49.1346" lon="2.26711">
        <ele>74.347184</ele>
        <time>2025-06-19T09:24:53.502Z</time>
      </trkpt>
      <trkpt lat="49.13451" lon="2.267">
        <ele>74.414217</ele>
        <time>2025-06-19T09:24:55.506Z</time>
      </trkpt>
      <trkpt lat="49.13441" lon="2.26688">
        <ele>74.481716</ele>
        <time>2025-06-19T09:24:57.514Z</time>
      </trkpt>
      <trkpt lat="49.13432" lon="2.26675">
        <ele>74.55022</ele>
        <time>2025-06-19T09:24:59.499Z</time>
      </trkpt>
      <trkpt lat="49.13423" lon="2.26663">
        <ele>74.617585</ele>
        <time>2025-06-19T09:25:01.502Z</time>
      </trkpt>
      <trkpt lat="49.13414" lon="2.2665">
        <ele>74.687762</ele>
        <time>2025-06-19T09:25:03.509Z</time>
      </trkpt>
      <trkpt lat="49.13406" lon="2.26636">
        <ele>74.754809</ele>
        <time>2025-06-19T09:25:05.507Z</time>
      </trkpt>
      <trkpt lat="49.13398" lon="2.26623">
        <ele>74.820388</ele>
        <time>2025-06-19T09:25:07.507Z</time>
      </trkpt>
      <trkpt lat="49.1339" lon="2.26609">
        <ele>74.88935</ele>
        <time>2025-06-19T09:25:09.512Z</time>
      </trkpt>
      <trkpt lat="49.13382" lon="2.26594">
        <ele>74.958142</ele>
        <time>2025-06-19T09:25:11.514Z</time>
      </trkpt>
      <trkpt lat="49.13374" lon="2.26579">
        <ele>75.026774</ele>
        <time>2025-06-19T09:25:13.503Z</time>
      </trkpt>
      <trkpt lat="49.13367" lon="2.26565">
        <ele>75.091803</ele>
        <time>2025-06-19T09:25:15.505Z</time>
      </trkpt>
      <trkpt lat="49.1336" lon="2.26551">
        <ele>75.1565</ele>
        <time>2025-06-19T09:25:17.505Z</time>
      </trkpt>
      <trkpt lat="49.13354" lon="2.26536">
        <ele>75.19971</ele>
        <time>2025-06-19T09:25:19.514Z</time>
      </trkpt>
      <trkpt lat="49.13348" lon="2.26521">
        <ele>75.216414</ele>
        <time>2025-06-19T09:25:21.508Z</time>
      </trkpt>
      <trkpt lat="49.13341" lon="2.26506">
        <ele>75.233274</ele>
        <time>2025-06-19T09:25:23.511Z</time>
      </trkpt>
      <trkpt lat="49.13334" lon="2.2649">
        <ele>75.250988</ele>
        <time>2025-06-19T09:25:25.515Z</time>
      </trkpt>
      <trkpt lat="49.13328" lon="2.26474">
        <ele>75.268469</ele>
        <time>2025-06-19T09:25:27.507Z</time>
      </trkpt>
      <trkpt lat="49.13321" lon="2.26459">
        <ele>75.285641</ele>
        <time>2025-06-19T09:25:29.506Z</time>
      </trkpt>
      <trkpt lat="49.13314" lon="2.26443">
        <ele>75.303368</ele>
        <time>2025-06-19T09:25:31.507Z</time>
      </trkpt>
      <trkpt lat="49.13308" lon="2.26427">
        <ele>75.320302</ele>
        <time>2025-06-19T09:25:33.508Z</time>
      </trkpt>
      <trkpt lat="49.13301" lon="2.26411">
        <ele>75.338718</ele>
        <time>2025-06-19T09:25:35.506Z</time>
      </trkpt>
      <trkpt lat="49.13294" lon="2.26394">
        <ele>75.356983</ele>
        <time>2025-06-19T09:25:37.510Z</time>
      </trkpt>
      <trkpt lat="49.13287" lon="2.26378">
        <ele>75.375634</ele>
        <time>2025-06-19T09:25:39.508Z</time>
      </trkpt>
      <trkpt lat="49.1328" lon="2.26361">
        <ele>75.393661</ele>
        <time>2025-06-19T09:25:41.504Z</time>
      </trkpt>
      <trkpt lat="49.13273" lon="2.26345">
        <ele>75.412234</ele>
        <time>2025-06-19T09:25:43.505Z</time>
      </trkpt>
      <trkpt lat="49.13266" lon="2.2633">
        <ele>75.429499</ele>
        <time>2025-06-19T09:25:45.502Z</time>
      </trkpt>
      <trkpt lat="49.13259" lon="2.26314">
        <ele>75.447137</ele>
        <time>2025-06-19T09:25:47.500Z</time>
      </trkpt>
      <trkpt lat="49.13251" lon="2.26299">
        <ele>75.713227</ele>
        <time>2025-06-19T09:25:49.504Z</time>
      </trkpt>
      <trkpt lat="49.13245" lon="2.26284">
        <ele>75.993855</ele>
        <time>2025-06-19T09:25:51.503Z</time>
      </trkpt>
      <trkpt lat="49.13238" lon="2.26271">
        <ele>76.24834</ele>
        <time>2025-06-19T09:25:53.520Z</time>
      </trkpt>
      <trkpt lat="49.13231" lon="2.26257">
        <ele>76.51299</ele>
        <time>2025-06-19T09:25:55.505Z</time>
      </trkpt>
      <trkpt lat="49.13224" lon="2.26245">
        <ele>76.767542</ele>
        <time>2025-06-19T09:25:57.505Z</time>
      </trkpt>
      <trkpt lat="49.13217" lon="2.26233">
        <ele>77.010212</ele>
        <time>2025-06-19T09:25:59.504Z</time>
      </trkpt>
      <trkpt lat="49.1321" lon="2.26221">
        <ele>77.250473</ele>
        <time>2025-06-19T09:26:01.501Z</time>
      </trkpt>
      <trkpt lat="49.13204" lon="2.26211">
        <ele>77.476132</ele>
        <time>2025-06-19T09:26:03.501Z</time>
      </trkpt>
      <trkpt lat="49.13198" lon="2.262">
        <ele>77.691317</ele>
        <time>2025-06-19T09:26:05.519Z</time>
      </trkpt>
      <trkpt lat="49.13191" lon="2.26189">
        <ele>77.920185</ele>
        <time>2025-06-19T09:26:07.499Z</time>
      </trkpt>
      <trkpt lat="49.13184" lon="2.26179">
        <ele>78.143045</ele>
        <time>2025-06-19T09:26:09.501Z</time>
      </trkpt>
      <trkpt lat="49.13178" lon="2.26168">
        <ele>78.361691</ele>
        <time>2025-06-19T09:26:11.501Z</time>
      </trkpt>
      <trkpt lat="49.13172" lon="2.26158">
        <ele>78.579934</ele>
        <time>2025-06-19T09:26:13.507Z</time>
      </trkpt>
      <trkpt lat="49.13165" lon="2.26147">
        <ele>78.80822</ele>
        <time>2025-06-19T09:26:15.507Z</time>
      </trkpt>
      <trkpt lat="49.13158" lon="2.26137">
        <ele>79.033236</ele>
        <time>2025-06-19T09:26:17.507Z</time>
      </trkpt>
      <trkpt lat="49.13152" lon="2.26126">
        <ele>79.263223</ele>
        <time>2025-06-19T09:26:19.500Z</time>
      </trkpt>
      <trkpt lat="49.13145" lon="2.26116">
        <ele>79.485015</ele>
        <time>2025-06-19T09:26:21.502Z</time>
      </trkpt>
      <trkpt lat="49.13138" lon="2.26105">
        <ele>79.716097</ele>
        <time>2025-06-19T09:26:23.508Z</time>
      </trkpt>
      <trkpt lat="49.13132" lon="2.26094">
        <ele>79.932648</ele>
        <time>2025-06-19T09:26:25.519Z</time>
      </trkpt>
      <trkpt lat="49.13125" lon="2.26084">
        <ele>80.15244</ele>
        <time>2025-06-19T09:26:27.509Z</time>
      </trkpt>
      <trkpt lat="49.13119" lon="2.26073">
        <ele>80.369579</ele>
        <time>2025-06-19T09:26:29.513Z</time>
      </trkpt>
      <trkpt lat="49.13113" lon="2.26063">
        <ele>80.576821</ele>
        <time>2025-06-19T09:26:31.502Z</time>
      </trkpt>
      <trkpt lat="49.13106" lon="2.26052">
        <ele>80.794448</ele>
        <time>2025-06-19T09:26:33.504Z</time>
      </trkpt>
      <trkpt lat="49.13099" lon="2.26042">
        <ele>81.014205</ele>
        <time>2025-06-19T09:26:35.507Z</time>
      </trkpt>
      <trkpt lat="49.13092" lon="2.26031">
        <ele>81.238231</ele>
        <time>2025-06-19T09:26:37.511Z</time>
      </trkpt>
      <trkpt lat="49.13085" lon="2.26019">
        <ele>81.479872</ele>
        <time>2025-06-19T09:26:39.510Z</time>
      </trkpt>
      <trkpt lat="49.13078" lon="2.26008">
        <ele>81.715624</ele>
        <time>2025-06-19T09:26:41.501Z</time>
      </trkpt>
      <trkpt lat="49.13071" lon="2.25996">
        <ele>81.954608</ele>
        <time>2025-06-19T09:26:43.507Z</time>
      </trkpt>
      <trkpt lat="49.13063" lon="2.25984">
        <ele>82.202818</ele>
        <time>2025-06-19T09:26:45.508Z</time>
      </trkpt>
      <trkpt lat="49.13056" lon="2.25972">
        <ele>82.451942</ele>
        <time>2025-06-19T09:26:47.510Z</time>
      </trkpt>
      <trkpt lat="49.13048" lon="2.2596">
        <ele>82.700494</ele>
        <time>2025-06-19T09:26:49.516Z</time>
      </trkpt>
      <trkpt lat="49.13041" lon="2.25949">
        <ele>82.939982</ele>
        <time>2025-06-19T09:26:51.498Z</time>
      </trkpt>
      <trkpt lat="49.13034" lon="2.25938">
        <ele>83.174164</ele>
        <time>2025-06-19T09:26:53.506Z</time>
      </trkpt>
      <trkpt lat="49.13026" lon="2.25926">
        <ele>83.418022</ele>
        <time>2025-06-19T09:26:55.502Z</time>
      </trkpt>
      <trkpt lat="49.13019" lon="2.25914">
        <ele>83.658736</ele>
        <time>2025-06-19T09:26:57.501Z</time>
      </trkpt>
      <trkpt lat="49.13011" lon="2.25902">
        <ele>83.844734</ele>
        <time>2025-06-19T09:26:59.503Z</time>
      </trkpt>
      <trkpt lat="49.13004" lon="2.2589">
        <ele>83.966103</ele>
        <time>2025-06-19T09:27:01.497Z</time>
      </trkpt>
      <trkpt lat="49.12996" lon="2.25879">
        <ele>84.07789</ele>
        <time>2025-06-19T09:27:03.515Z</time>
      </trkpt>
      <trkpt lat="49.12988" lon="2.25869">
        <ele>84.190692</ele>
        <time>2025-06-19T09:27:05.494Z</time>
      </trkpt>
      <trkpt lat="49.1298" lon="2.2586">
        <ele>84.301165</ele>
        <time>2025-06-19T09:27:07.504Z</time>
      </trkpt>
      <trkpt lat="49.12972" lon="2.25851">
        <ele>84.412945</ele>
        <time>2025-06-19T09:27:09.511Z</time>
      </trkpt>
      <trkpt lat="49.12963" lon="2.25843">
        <ele>84.527238</ele>
        <time>2025-06-19T09:27:11.503Z</time>
      </trkpt>
      <trkpt lat="49.12954" lon="2.25835">
        <ele>84.642117</ele>
        <time>2025-06-19T09:27:13.514Z</time>
      </trkpt>
      <trkpt lat="49.12945" lon="2.25828">
        <ele>84.75425</ele>
        <time>2025-06-19T09:27:15.523Z</time>
      </trkpt>
      <trkpt lat="49.12935" lon="2.2582">
        <ele>84.867356</ele>
        <time>2025-06-19T09:27:17.512Z</time>
      </trkpt>
      <trkpt lat="49.12926" lon="2.25814">
        <ele>84.985548</ele>
        <time>2025-06-19T09:27:19.509Z</time>
      </trkpt>
      <trkpt lat="49.12916" lon="2.25808">
        <ele>85.099316</ele>
        <time>2025-06-19T09:27:21.500Z</time>
      </trkpt>
      <trkpt lat="49.12906" lon="2.25801">
        <ele>85.213926</ele>
        <time>2025-06-19T09:27:23.500Z</time>
      </trkpt>
      <trkpt lat="49.12897" lon="2.25795">
        <ele>85.320372</ele>
        <time>2025-06-19T09:27:25.501Z</time>
      </trkpt>
      <trkpt lat="49.12889" lon="2.25789">
        <ele>85.425359</ele>
        <time>2025-06-19T09:27:27.505Z</time>
      </trkpt>
      <trkpt lat="49.12878" lon="2.25778">
        <ele>85.568044</ele>
        <time>2025-06-19T09:27:30.510Z</time>
      </trkpt>
      <trkpt lat="49.12872" lon="2.25767">
        <ele>85.669462</ele>
        <time>2025-06-19T09:27:32.503Z</time>
      </trkpt>
      <trkpt lat="49.1287" lon="2.25752">
        <ele>85.750566</ele>
        <time>2025-06-19T09:27:34.507Z</time>
      </trkpt>
      <trkpt lat="49.12866" lon="2.25738">
        <ele>85.739663</ele>
        <time>2025-06-19T09:27:36.513Z</time>
      </trkpt>
      <trkpt lat="49.12861" lon="2.25725">
        <ele>85.728421</ele>
        <time>2025-06-19T09:27:38.501Z</time>
      </trkpt>
      <trkpt lat="49.12857" lon="2.2571">
        <ele>85.71644</ele>
        <time>2025-06-19T09:27:40.509Z</time>
      </trkpt>
      <trkpt lat="49.12856" lon="2.25692">
        <ele>85.703785</ele>
        <time>2025-06-19T09:27:42.508Z</time>
      </trkpt>
      <trkpt lat="49.12858" lon="2.25675">
        <ele>85.691241</ele>
        <time>2025-06-19T09:27:44.503Z</time>
      </trkpt>
      <trkpt lat="49.1286" lon="2.25659">
        <ele>85.679265</ele>
        <time>2025-06-19T09:27:46.496Z</time>
      </trkpt>
      <trkpt lat="49.12862" lon="2.25644">
        <ele>85.668211</ele>
        <time>2025-06-19T09:27:48.506Z</time>
      </trkpt>
      <trkpt lat="49.12864" lon="2.25628">
        <ele>85.656896</ele>
        <time>2025-06-19T09:27:50.511Z</time>
      </trkpt>
      <trkpt lat="49.12865" lon="2.25612">
        <ele>85.644834</ele>
        <time>2025-06-19T09:27:52.505Z</time>
      </trkpt>
      <trkpt lat="49.12867" lon="2.25595">
        <ele>85.632113</ele>
        <time>2025-06-19T09:27:54.508Z</time>
      </trkpt>
      <trkpt lat="49.12869" lon="2.25577">
        <ele>85.619639</ele>
        <time>2025-06-19T09:27:56.515Z</time>
      </trkpt>
      <trkpt lat="49.12869" lon="2.25561">
        <ele>85.607567</ele>
        <time>2025-06-19T09:27:58.503Z</time>
      </trkpt>
      <trkpt lat="49.1287" lon="2.25544">
        <ele>85.595682</ele>
        <time>2025-06-19T09:28:00.499Z</time>
      </trkpt>
      <trkpt lat="49.12869" lon="2.25526">
        <ele>85.582718</ele>
        <time>2025-06-19T09:28:02.500Z</time>
      </trkpt>
      <trkpt lat="49.12867" lon="2.25509">
        <ele>85.569694</ele>
        <time>2025-06-19T09:28:04.502Z</time>
      </trkpt>
      <trkpt lat="49.12864" lon="2.2549">
        <ele>85.555912</ele>
        <time>2025-06-19T09:28:06.507Z</time>
      </trkpt>
      <trkpt lat="49.12861" lon="2.25471">
        <ele>85.378877</ele>
        <time>2025-06-19T09:28:08.497Z</time>
      </trkpt>
      <trkpt lat="49.12856" lon="2.25451">
        <ele>85.174195</ele>
        <time>2025-06-19T09:28:10.502Z</time>
      </trkpt>
      <trkpt lat="49.12852" lon="2.25432">
        <ele>84.967959</ele>
        <time>2025-06-19T09:28:12.506Z</time>
      </trkpt>
      <trkpt lat="49.12846" lon="2.25412">
        <ele>84.752161</ele>
        <time>2025-06-19T09:28:14.502Z</time>
      </trkpt>
      <trkpt lat="49.12841" lon="2.25392">
        <ele>84.53832</ele>
        <time>2025-06-19T09:28:16.501Z</time>
      </trkpt>
      <trkpt lat="49.12836" lon="2.25373">
        <ele>84.331448</ele>
        <time>2025-06-19T09:28:18.499Z</time>
      </trkpt>
      <trkpt lat="49.1283" lon="2.25353">
        <ele>84.119129</ele>
        <time>2025-06-19T09:28:20.504Z</time>
      </trkpt>
      <trkpt lat="49.12823" lon="2.25334">
        <ele>83.906347</ele>
        <time>2025-06-19T09:28:22.503Z</time>
      </trkpt>
      <trkpt lat="49.12814" lon="2.25317">
        <ele>83.690832</ele>
        <time>2025-06-19T09:28:24.512Z</time>
      </trkpt>
      <trkpt lat="49.12804" lon="2.25301">
        <ele>83.466141</ele>
        <time>2025-06-19T09:28:26.504Z</time>
      </trkpt>
      <trkpt lat="49.12791" lon="2.25287">
        <ele>83.228717</ele>
        <time>2025-06-19T09:28:28.504Z</time>
      </trkpt>
      <trkpt lat="49.12776" lon="2.25275">
        <ele>82.971666</ele>
        <time>2025-06-19T09:28:30.505Z</time>
      </trkpt>
      <trkpt lat="49.1276" lon="2.25265">
        <ele>82.632729</ele>
        <time>2025-06-19T09:28:32.506Z</time>
      </trkpt>
      <trkpt lat="49.12742" lon="2.25259">
        <ele>82.20612</ele>
        <time>2025-06-19T09:28:34.503Z</time>
      </trkpt>
      <trkpt lat="49.12733" lon="2.25257">
        <ele>81.986186</ele>
        <time>2025-06-19T09:28:35.502Z</time>
      </trkpt>
      <trkpt lat="49.12724" lon="2.25255">
        <ele>81.762722</ele>
        <time>2025-06-19T09:28:36.499Z</time>
      </trkpt>
      <trkpt lat="49.12714" lon="2.25252">
        <ele>81.531291</ele>
        <time>2025-06-19T09:28:37.506Z</time>
      </trkpt>
      <trkpt lat="49.12705" lon="2.2525">
        <ele>81.309974</ele>
        <time>2025-06-19T09:28:38.504Z</time>
      </trkpt>
      <trkpt lat="49.12695" lon="2.25248">
        <ele>81.074289</ele>
        <time>2025-06-19T09:28:39.506Z</time>
      </trkpt>
      <trkpt lat="49.12685" lon="2.25245">
        <ele>80.838585</ele>
        <time>2025-06-19T09:28:40.504Z</time>
      </trkpt>
      <trkpt lat="49.12676" lon="2.25241">
        <ele>80.597399</ele>
        <time>2025-06-19T09:28:41.506Z</time>
      </trkpt>
      <trkpt lat="49.12665" lon="2.25237">
        <ele>80.34455</ele>
        <time>2025-06-19T09:28:42.509Z</time>
      </trkpt>
      <trkpt lat="49.12656" lon="2.25231">
        <ele>80.094197</ele>
        <time>2025-06-19T09:28:43.511Z</time>
      </trkpt>
      <trkpt lat="49.12646" lon="2.25225">
        <ele>79.835988</ele>
        <time>2025-06-19T09:28:44.513Z</time>
      </trkpt>
      <trkpt lat="49.12636" lon="2.25218">
        <ele>79.578472</ele>
        <time>2025-06-19T09:28:45.505Z</time>
      </trkpt>
      <trkpt lat="49.12626" lon="2.25209">
        <ele>79.306697</ele>
        <time>2025-06-19T09:28:46.521Z</time>
      </trkpt>
      <trkpt lat="49.12616" lon="2.252">
        <ele>79.036301</ele>
        <time>2025-06-19T09:28:47.516Z</time>
      </trkpt>
      <trkpt lat="49.12607" lon="2.25189">
        <ele>78.763753</ele>
        <time>2025-06-19T09:28:48.507Z</time>
      </trkpt>
      <trkpt lat="49.12597" lon="2.25179">
        <ele>78.544106</ele>
        <time>2025-06-19T09:28:49.505Z</time>
      </trkpt>
      <trkpt lat="49.12588" lon="2.2517">
        <ele>78.520068</ele>
        <time>2025-06-19T09:28:50.505Z</time>
      </trkpt>
      <trkpt lat="49.12578" lon="2.2516">
        <ele>78.495138</ele>
        <time>2025-06-19T09:28:51.500Z</time>
      </trkpt>
      <trkpt lat="49.12568" lon="2.2515">
        <ele>78.471003</ele>
        <time>2025-06-19T09:28:52.504Z</time>
      </trkpt>
      <trkpt lat="49.12558" lon="2.25141">
        <ele>78.446865</ele>
        <time>2025-06-19T09:28:53.500Z</time>
      </trkpt>
      <trkpt lat="49.12549" lon="2.25132">
        <ele>78.423992</ele>
        <time>2025-06-19T09:28:54.502Z</time>
      </trkpt>
      <trkpt lat="49.1254" lon="2.25123">
        <ele>78.401876</ele>
        <time>2025-06-19T09:28:55.504Z</time>
      </trkpt>
      <trkpt lat="49.12531" lon="2.25115">
        <ele>78.380256</ele>
        <time>2025-06-19T09:28:56.501Z</time>
      </trkpt>
      <trkpt lat="49.12522" lon="2.25106">
        <ele>78.359461</ele>
        <time>2025-06-19T09:28:57.501Z</time>
      </trkpt>
      <trkpt lat="49.12507" lon="2.25092">
        <ele>78.322409</ele>
        <time>2025-06-19T09:28:59.497Z</time>
      </trkpt>
      <trkpt lat="49.12494" lon="2.25078">
        <ele>78.288136</ele>
        <time>2025-06-19T09:29:01.500Z</time>
      </trkpt>
      <trkpt lat="49.12481" lon="2.25063">
        <ele>78.255756</ele>
        <time>2025-06-19T09:29:03.529Z</time>
      </trkpt>
      <trkpt lat="49.1247" lon="2.25049">
        <ele>78.225738</ele>
        <time>2025-06-19T09:29:05.503Z</time>
      </trkpt>
      <trkpt lat="49.12461" lon="2.25034">
        <ele>78.197844</ele>
        <time>2025-06-19T09:29:07.511Z</time>
      </trkpt>
      <trkpt lat="49.12454" lon="2.25019">
        <ele>78.177735</ele>
        <time>2025-06-19T09:29:09.500Z</time>
      </trkpt>
      <trkpt lat="49.1245" lon="2.25005">
        <ele>78.182166</ele>
        <time>2025-06-19T09:29:11.501Z</time>
      </trkpt>
      <trkpt lat="49.12446" lon="2.2499">
        <ele>78.186771</ele>
        <time>2025-06-19T09:29:14.501Z</time>
      </trkpt>
      <trkpt lat="49.12444" lon="2.24975">
        <ele>78.191107</ele>
        <time>2025-06-19T09:29:18.503Z</time>
      </trkpt>
      <trkpt lat="49.12447" lon="2.24958">
        <ele>78.196342</ele>
        <time>2025-06-19T09:29:22.508Z</time>
      </trkpt>
      <trkpt lat="49.1245" lon="2.2494">
        <ele>78.201627</ele>
        <time>2025-06-19T09:29:25.517Z</time>
      </trkpt>
      <trkpt lat="49.12452" lon="2.24923">
        <ele>78.206755</ele>
        <time>2025-06-19T09:29:28.528Z</time>
      </trkpt>
      <trkpt lat="49.12448" lon="2.24909">
        <ele>78.211088</ele>
        <time>2025-06-19T09:29:31.498Z</time>
      </trkpt>
      <trkpt lat="49.12441" lon="2.24897">
        <ele>78.215781</ele>
        <time>2025-06-19T09:29:35.504Z</time>
      </trkpt>
      <trkpt lat="49.12432" lon="2.24887">
        <ele>78.220619</ele>
        <time>2025-06-19T09:29:39.507Z</time>
      </trkpt>
      <trkpt lat="49.12423" lon="2.24881">
        <ele>78.225275</ele>
        <time>2025-06-19T09:29:43.502Z</time>
      </trkpt>
      <trkpt lat="49.12412" lon="2.24882">
        <ele>78.229884</ele>
        <time>2025-06-19T09:29:46.504Z</time>
      </trkpt>
      <trkpt lat="49.124" lon="2.24887">
        <ele>78.235451</ele>
        <time>2025-06-19T09:29:49.510Z</time>
      </trkpt>
      <trkpt lat="49.12388" lon="2.24893">
        <ele>78.24111</ele>
        <time>2025-06-19T09:29:52.508Z</time>
      </trkpt>
      <trkpt lat="49.12375" lon="2.24892">
        <ele>78.247238</ele>
        <time>2025-06-19T09:29:55.512Z</time>
      </trkpt>
      <trkpt lat="49.12367" lon="2.24885">
        <ele>78.251225</ele>
        <time>2025-06-19T09:29:57.504Z</time>
      </trkpt>
      <trkpt lat="49.12356" lon="2.24873">
        <ele>78.256987</ele>
        <time>2025-06-19T09:30:00.512Z</time>
      </trkpt>
      <trkpt lat="49.12347" lon="2.2486">
        <ele>78.640535</ele>
        <time>2025-06-19T09:30:03.502Z</time>
      </trkpt>
      <trkpt lat="49.1234" lon="2.24845">
        <ele>79.003791</ele>
        <time>2025-06-19T09:30:06.507Z</time>
      </trkpt>
      <trkpt lat="49.12336" lon="2.24828">
        <ele>79.359589</ele>
        <time>2025-06-19T09:30:09.500Z</time>
      </trkpt>
      <trkpt lat="49.12331" lon="2.24811">
        <ele>79.726656</ele>
        <time>2025-06-19T09:30:12.509Z</time>
      </trkpt>
      <trkpt lat="49.12327" lon="2.24794">
        <ele>80.080399</ele>
        <time>2025-06-19T09:30:15.508Z</time>
      </trkpt>
      <trkpt lat="49.12325" lon="2.24779">
        <ele>80.373505</ele>
        <time>2025-06-19T09:30:18.508Z</time>
      </trkpt>
      <trkpt lat="49.1232" lon="2.24765">
        <ele>80.688477</ele>
        <time>2025-06-19T09:30:22.510Z</time>
      </trkpt>
      <trkpt lat="49.12313" lon="2.24755">
        <ele>80.982981</ele>
        <time>2025-06-19T09:30:27.503Z</time>
      </trkpt>
      <trkpt lat="49.12311" lon="2.24738">
        <ele>81.332334</ele>
        <time>2025-06-19T09:30:31.503Z</time>
      </trkpt>
      <trkpt lat="49.12309" lon="2.24723">
        <ele>81.62272</ele>
        <time>2025-06-19T09:30:34.501Z</time>
      </trkpt>
      <trkpt lat="49.12304" lon="2.24705">
        <ele>82.003094</ele>
        <time>2025-06-19T09:30:37.505Z</time>
      </trkpt>
      <trkpt lat="49.12301" lon="2.24692">
        <ele>82.277674</ele>
        <time>2025-06-19T09:30:39.503Z</time>
      </trkpt>
      <trkpt lat="49.12295" lon="2.24674">
        <ele>82.665988</ele>
        <time>2025-06-19T09:30:42.510Z</time>
      </trkpt>
      <trkpt lat="49.12292" lon="2.24661">
        <ele>82.953709</ele>
        <time>2025-06-19T09:30:44.507Z</time>
      </trkpt>
      <trkpt lat="49.12288" lon="2.24647">
        <ele>83.253106</ele>
        <time>2025-06-19T09:30:46.506Z</time>
      </trkpt>
      <trkpt lat="49.12284" lon="2.24634">
        <ele>83.539561</ele>
        <time>2025-06-19T09:30:48.499Z</time>
      </trkpt>
      <trkpt lat="49.1228" lon="2.24618">
        <ele>83.635168</ele>
        <time>2025-06-19T09:30:50.504Z</time>
      </trkpt>
      <trkpt lat="49.12276" lon="2.24603">
        <ele>83.606178</ele>
        <time>2025-06-19T09:30:52.501Z</time>
      </trkpt>
      <trkpt lat="49.12273" lon="2.24589">
        <ele>83.580079</ele>
        <time>2025-06-19T09:30:54.512Z</time>
      </trkpt>
      <trkpt lat="49.12269" lon="2.24575">
        <ele>83.552981</ele>
        <time>2025-06-19T09:30:56.507Z</time>
      </trkpt>
      <trkpt lat="49.12266" lon="2.2456">
        <ele>83.524752</ele>
        <time>2025-06-19T09:30:58.508Z</time>
      </trkpt>
      <trkpt lat="49.12262" lon="2.24547">
        <ele>83.500136</ele>
        <time>2025-06-19T09:31:00.499Z</time>
      </trkpt>
      <trkpt lat="49.12261" lon="2.24532">
        <ele>83.473278</ele>
        <time>2025-06-19T09:31:02.503Z</time>
      </trkpt>
      <trkpt lat="49.12259" lon="2.24518">
        <ele>83.447071</ele>
        <time>2025-06-19T09:31:04.496Z</time>
      </trkpt>
      <trkpt lat="49.12254" lon="2.24505">
        <ele>83.420387</ele>
        <time>2025-06-19T09:31:06.509Z</time>
      </trkpt>
      <trkpt lat="49.12251" lon="2.24491">
        <ele>83.394441</ele>
        <time>2025-06-19T09:31:08.504Z</time>
      </trkpt>
      <trkpt lat="49.12246" lon="2.24477">
        <ele>83.366634</ele>
        <time>2025-06-19T09:31:10.492Z</time>
      </trkpt>
      <trkpt lat="49.12243" lon="2.24462">
        <ele>83.339423</ele>
        <time>2025-06-19T09:31:12.506Z</time>
      </trkpt>
      <trkpt lat="49.12239" lon="2.24447">
        <ele>83.310636</ele>
        <time>2025-06-19T09:31:14.495Z</time>
      </trkpt>
      <trkpt lat="49.12237" lon="2.24433">
        <ele>83.283937</ele>
        <time>2025-06-19T09:31:16.500Z</time>
      </trkpt>
      <trkpt lat="49.12233" lon="2.24417">
        <ele>83.254545</ele>
        <time>2025-06-19T09:31:18.505Z</time>
      </trkpt>
      <trkpt lat="49.12229" lon="2.24402">
        <ele>83.224296</ele>
        <time>2025-06-19T09:31:20.500Z</time>
      </trkpt>
      <trkpt lat="49.12225" lon="2.24384">
        <ele>83.191271</ele>
        <time>2025-06-19T09:31:22.504Z</time>
      </trkpt>
      <trkpt lat="49.12221" lon="2.24367">
        <ele>83.25671</ele>
        <time>2025-06-19T09:31:24.497Z</time>
      </trkpt>
      <trkpt lat="49.12217" lon="2.2435">
        <ele>83.71194</ele>
        <time>2025-06-19T09:31:26.501Z</time>
      </trkpt>
      <trkpt lat="49.12213" lon="2.24333">
        <ele>84.162398</ele>
        <time>2025-06-19T09:31:28.513Z</time>
      </trkpt>
      <trkpt lat="49.12209" lon="2.24315">
        <ele>84.63306</ele>
        <time>2025-06-19T09:31:30.513Z</time>
      </trkpt>
      <trkpt lat="49.12205" lon="2.24296">
        <ele>85.121524</ele>
        <time>2025-06-19T09:31:32.500Z</time>
      </trkpt>
      <trkpt lat="49.12201" lon="2.24279">
        <ele>85.592186</ele>
        <time>2025-06-19T09:31:34.504Z</time>
      </trkpt>
      <trkpt lat="49.12197" lon="2.2426">
        <ele>86.099859</ele>
        <time>2025-06-19T09:31:36.503Z</time>
      </trkpt>
      <trkpt lat="49.12191" lon="2.2424">
        <ele>86.620383</ele>
        <time>2025-06-19T09:31:38.507Z</time>
      </trkpt>
      <trkpt lat="49.12187" lon="2.24222">
        <ele>87.104157</ele>
        <time>2025-06-19T09:31:40.506Z</time>
      </trkpt>
      <trkpt lat="49.12182" lon="2.24203">
        <ele>87.617733</ele>
        <time>2025-06-19T09:31:42.501Z</time>
      </trkpt>
      <trkpt lat="49.12177" lon="2.24185">
        <ele>88.112659</ele>
        <time>2025-06-19T09:31:44.516Z</time>
      </trkpt>
      <trkpt lat="49.12172" lon="2.24167">
        <ele>88.580553</ele>
        <time>2025-06-19T09:31:46.493Z</time>
      </trkpt>
      <trkpt lat="49.12168" lon="2.2415">
        <ele>89.037053</ele>
        <time>2025-06-19T09:31:48.519Z</time>
      </trkpt>
      <trkpt lat="49.12164" lon="2.24133">
        <ele>89.498579</ele>
        <time>2025-06-19T09:31:50.508Z</time>
      </trkpt>
      <trkpt lat="49.12159" lon="2.24114">
        <ele>90.014609</ele>
        <time>2025-06-19T09:31:52.508Z</time>
      </trkpt>
      <trkpt lat="49.12155" lon="2.24095">
        <ele>89.991222</ele>
        <time>2025-06-19T09:31:54.510Z</time>
      </trkpt>
      <trkpt lat="49.12151" lon="2.24077">
        <ele>89.942332</ele>
        <time>2025-06-19T09:31:56.505Z</time>
      </trkpt>
      <trkpt lat="49.12147" lon="2.24058">
        <ele>89.892234</ele>
        <time>2025-06-19T09:31:58.501Z</time>
      </trkpt>
      <trkpt lat="49.12143" lon="2.2404">
        <ele>89.843708</ele>
        <time>2025-06-19T09:32:00.496Z</time>
      </trkpt>
      <trkpt lat="49.12139" lon="2.24023">
        <ele>89.797239</ele>
        <time>2025-06-19T09:32:02.508Z</time>
      </trkpt>
      <trkpt lat="49.12135" lon="2.24006">
        <ele>89.751102</ele>
        <time>2025-06-19T09:32:04.504Z</time>
      </trkpt>
      <trkpt lat="49.12131" lon="2.23989">
        <ele>89.70592</ele>
        <time>2025-06-19T09:32:06.494Z</time>
      </trkpt>
      <trkpt lat="49.12126" lon="2.23972">
        <ele>89.657278</ele>
        <time>2025-06-19T09:32:08.500Z</time>
      </trkpt>
      <trkpt lat="49.12122" lon="2.23954">
        <ele>89.60787</ele>
        <time>2025-06-19T09:32:10.490Z</time>
      </trkpt>
      <trkpt lat="49.12118" lon="2.23937">
        <ele>89.562606</ele>
        <time>2025-06-19T09:32:12.493Z</time>
      </trkpt>
      <trkpt lat="49.12114" lon="2.23919">
        <ele>89.514927</ele>
        <time>2025-06-19T09:32:14.492Z</time>
      </trkpt>
      <trkpt lat="49.12112" lon="2.23905">
        <ele>89.477855</ele>
        <time>2025-06-19T09:32:16.502Z</time>
      </trkpt>
      <trkpt lat="49.12107" lon="2.23887">
        <ele>89.429072</ele>
        <time>2025-06-19T09:32:18.505Z</time>
      </trkpt>
      <trkpt lat="49.12103" lon="2.23871">
        <ele>89.385078</ele>
        <time>2025-06-19T09:32:20.506Z</time>
      </trkpt>
      <trkpt lat="49.12099" lon="2.23853">
        <ele>89.303826</ele>
        <time>2025-06-19T09:32:22.506Z</time>
      </trkpt>
      <trkpt lat="49.12096" lon="2.23837">
        <ele>88.806341</ele>
        <time>2025-06-19T09:32:24.511Z</time>
      </trkpt>
      <trkpt lat="49.12092" lon="2.23818">
        <ele>88.223338</ele>
        <time>2025-06-19T09:32:26.494Z</time>
      </trkpt>
      <trkpt lat="49.12088" lon="2.23803">
        <ele>87.738501</ele>
        <time>2025-06-19T09:32:28.504Z</time>
      </trkpt>
      <trkpt lat="49.12083" lon="2.23787">
        <ele>87.2059</ele>
        <time>2025-06-19T09:32:30.506Z</time>
      </trkpt>
      <trkpt lat="49.12078" lon="2.23768">
        <ele>86.588844</ele>
        <time>2025-06-19T09:32:32.500Z</time>
      </trkpt>
      <trkpt lat="49.12074" lon="2.23749">
        <ele>85.981464</ele>
        <time>2025-06-19T09:32:34.505Z</time>
      </trkpt>
      <trkpt lat="49.12069" lon="2.23731">
        <ele>85.388371</ele>
        <time>2025-06-19T09:32:36.501Z</time>
      </trkpt>
      <trkpt lat="49.12064" lon="2.23712">
        <ele>84.794743</ele>
        <time>2025-06-19T09:32:38.508Z</time>
      </trkpt>
      <trkpt lat="49.12059" lon="2.23693">
        <ele>84.165384</ele>
        <time>2025-06-19T09:32:40.525Z</time>
      </trkpt>
      <trkpt lat="49.12055" lon="2.23673">
        <ele>83.527959</ele>
        <time>2025-06-19T09:32:42.499Z</time>
      </trkpt>
      <trkpt lat="49.12051" lon="2.23654">
        <ele>82.950564</ele>
        <time>2025-06-19T09:32:44.502Z</time>
      </trkpt>
      <trkpt lat="49.12046" lon="2.23634">
        <ele>82.298731</ele>
        <time>2025-06-19T09:32:46.496Z</time>
      </trkpt>
      <trkpt lat="49.12042" lon="2.23617">
        <ele>81.745535</ele>
        <time>2025-06-19T09:32:48.506Z</time>
      </trkpt>
      <trkpt lat="49.12038" lon="2.23597">
        <ele>81.123957</ele>
        <time>2025-06-19T09:32:50.506Z</time>
      </trkpt>
      <trkpt lat="49.12032" lon="2.23576">
        <ele>80.629998</ele>
        <time>2025-06-19T09:32:52.505Z</time>
      </trkpt>
      <trkpt lat="49.12029" lon="2.23558">
        <ele>80.212677</ele>
        <time>2025-06-19T09:32:54.506Z</time>
      </trkpt>
      <trkpt lat="49.12024" lon="2.23538">
        <ele>79.749068</ele>
        <time>2025-06-19T09:32:56.495Z</time>
      </trkpt>
      <trkpt lat="49.12019" lon="2.23518">
        <ele>79.289917</ele>
        <time>2025-06-19T09:32:58.518Z</time>
      </trkpt>
      <trkpt lat="49.12014" lon="2.23499">
        <ele>78.839643</ele>
        <time>2025-06-19T09:33:00.506Z</time>
      </trkpt>
      <trkpt lat="49.1201" lon="2.23478">
        <ele>78.371842</ele>
        <time>2025-06-19T09:33:02.507Z</time>
      </trkpt>
      <trkpt lat="49.12005" lon="2.23459">
        <ele>77.927542</ele>
        <time>2025-06-19T09:33:04.511Z</time>
      </trkpt>
      <trkpt lat="49.12001" lon="2.23439">
        <ele>77.457679</ele>
        <time>2025-06-19T09:33:06.490Z</time>
      </trkpt>
      <trkpt lat="49.11995" lon="2.23419">
        <ele>76.997316</ele>
        <time>2025-06-19T09:33:08.505Z</time>
      </trkpt>
      <trkpt lat="49.11991" lon="2.23399">
        <ele>76.544593</ele>
        <time>2025-06-19T09:33:10.505Z</time>
      </trkpt>
      <trkpt lat="49.11986" lon="2.23381">
        <ele>76.109595</ele>
        <time>2025-06-19T09:33:12.502Z</time>
      </trkpt>
      <trkpt lat="49.11982" lon="2.23363">
        <ele>75.70746</ele>
        <time>2025-06-19T09:33:14.501Z</time>
      </trkpt>
      <trkpt lat="49.11978" lon="2.23346">
        <ele>75.301498</ele>
        <time>2025-06-19T09:33:16.507Z</time>
      </trkpt>
      <trkpt lat="49.11974" lon="2.23329">
        <ele>75.136779</ele>
        <time>2025-06-19T09:33:18.504Z</time>
      </trkpt>
      <trkpt lat="49.1197" lon="2.23313">
        <ele>75.162225</ele>
        <time>2025-06-19T09:33:20.502Z</time>
      </trkpt>
      <trkpt lat="49.11966" lon="2.23299">
        <ele>75.185594</ele>
        <time>2025-06-19T09:33:22.502Z</time>
      </trkpt>
      <trkpt lat="49.11963" lon="2.23284">
        <ele>75.209877</ele>
        <time>2025-06-19T09:33:24.503Z</time>
      </trkpt>
      <trkpt lat="49.11959" lon="2.23269">
        <ele>75.234262</ele>
        <time>2025-06-19T09:33:26.502Z</time>
      </trkpt>
      <trkpt lat="49.11955" lon="2.23255">
        <ele>75.258154</ele>
        <time>2025-06-19T09:33:28.502Z</time>
      </trkpt>
      <trkpt lat="49.11952" lon="2.2324">
        <ele>75.28059</ele>
        <time>2025-06-19T09:33:30.510Z</time>
      </trkpt>
      <trkpt lat="49.1195" lon="2.23226">
        <ele>75.302556</ele>
        <time>2025-06-19T09:33:32.520Z</time>
      </trkpt>
      <trkpt lat="49.11949" lon="2.2321">
        <ele>75.327323</ele>
        <time>2025-06-19T09:33:35.499Z</time>
      </trkpt>
      <trkpt lat="49.11947" lon="2.23195">
        <ele>75.350767</ele>
        <time>2025-06-19T09:33:40.501Z</time>
      </trkpt>
      <trkpt lat="49.11953" lon="2.23183">
        <ele>75.37291</ele>
        <time>2025-06-19T09:33:44.502Z</time>
      </trkpt>
      <trkpt lat="49.11959" lon="2.23167">
        <ele>75.401708</ele>
        <time>2025-06-19T09:33:47.514Z</time>
      </trkpt>
      <trkpt lat="49.11961" lon="2.23152">
        <ele>75.424656</ele>
        <time>2025-06-19T09:33:50.502Z</time>
      </trkpt>
      <trkpt lat="49.11962" lon="2.23134">
        <ele>75.451126</ele>
        <time>2025-06-19T09:33:54.510Z</time>
      </trkpt>
      <trkpt lat="49.11958" lon="2.2312">
        <ele>75.474512</ele>
        <time>2025-06-19T09:33:57.504Z</time>
      </trkpt>
      <trkpt lat="49.11951" lon="2.23109">
        <ele>75.498082</ele>
        <time>2025-06-19T09:34:00.511Z</time>
      </trkpt>
      <trkpt lat="49.11943" lon="2.23102">
        <ele>75.519227</ele>
        <time>2025-06-19T09:34:03.508Z</time>
      </trkpt>
      <trkpt lat="49.11933" lon="2.23098">
        <ele>75.535487</ele>
        <time>2025-06-19T09:34:07.515Z</time>
      </trkpt>
      <trkpt lat="49.11921" lon="2.23096">
        <ele>75.51725</ele>
        <time>2025-06-19T09:34:11.512Z</time>
      </trkpt>
      <trkpt lat="49.11913" lon="2.2308">
        <ele>75.496383</ele>
        <time>2025-06-19T09:34:14.508Z</time>
      </trkpt>
      <trkpt lat="49.11909" lon="2.23066">
        <ele>75.480532</ele>
        <time>2025-06-19T09:34:16.516Z</time>
      </trkpt>
      <trkpt lat="49.11904" lon="2.23052">
        <ele>75.464478</ele>
        <time>2025-06-19T09:34:18.503Z</time>
      </trkpt>
      <trkpt lat="49.11901" lon="2.23038">
        <ele>75.449312</ele>
        <time>2025-06-19T09:34:20.503Z</time>
      </trkpt>
      <trkpt lat="49.11895" lon="2.2302">
        <ele>75.428272</ele>
        <time>2025-06-19T09:34:23.503Z</time>
      </trkpt>
      <trkpt lat="49.11893" lon="2.23005">
        <ele>75.413153</ele>
        <time>2025-06-19T09:34:25.515Z</time>
      </trkpt>
      <trkpt lat="49.11892" lon="2.2299">
        <ele>75.397546</ele>
        <time>2025-06-19T09:34:27.504Z</time>
      </trkpt>
      <trkpt lat="49.11891" lon="2.22974">
        <ele>75.381317</ele>
        <time>2025-06-19T09:34:29.505Z</time>
      </trkpt>
      <trkpt lat="49.11892" lon="2.22958">
        <ele>75.364438</ele>
        <time>2025-06-19T09:34:31.505Z</time>
      </trkpt>
      <trkpt lat="49.11893" lon="2.2294">
        <ele>75.346508</ele>
        <time>2025-06-19T09:34:33.507Z</time>
      </trkpt>
      <trkpt lat="49.11895" lon="2.22924">
        <ele>75.329239</ele>
        <time>2025-06-19T09:34:35.504Z</time>
      </trkpt>
      <trkpt lat="49.11897" lon="2.22906">
        <ele>75.311109</ele>
        <time>2025-06-19T09:34:37.506Z</time>
      </trkpt>
      <trkpt lat="49.11898" lon="2.22889">
        <ele>75.293022</ele>
        <time>2025-06-19T09:34:39.500Z</time>
      </trkpt>
      <trkpt lat="49.119" lon="2.22871">
        <ele>75.274802</ele>
        <time>2025-06-19T09:34:41.502Z</time>
      </trkpt>
      <trkpt lat="49.11901" lon="2.22854">
        <ele>75.257404</ele>
        <time>2025-06-19T09:34:43.505Z</time>
      </trkpt>
      <trkpt lat="49.11902" lon="2.22837">
        <ele>75.316822</ele>
        <time>2025-06-19T09:34:45.497Z</time>
      </trkpt>
      <trkpt lat="49.11903" lon="2.22819">
        <ele>75.38092</ele>
        <time>2025-06-19T09:34:47.505Z</time>
      </trkpt>
      <trkpt lat="49.11905" lon="2.22801">
        <ele>75.446793</ele>
        <time>2025-06-19T09:34:49.503Z</time>
      </trkpt>
      <trkpt lat="49.11907" lon="2.22783">
        <ele>75.513745</ele>
        <time>2025-06-19T09:34:51.518Z</time>
      </trkpt>
      <trkpt lat="49.11908" lon="2.22763">
        <ele>75.58337</ele>
        <time>2025-06-19T09:34:53.509Z</time>
      </trkpt>
      <trkpt lat="49.11909" lon="2.22744">
        <ele>75.651379</ele>
        <time>2025-06-19T09:34:55.513Z</time>
      </trkpt>
      <trkpt lat="49.1191" lon="2.22726">
        <ele>75.715921</ele>
        <time>2025-06-19T09:34:57.501Z</time>
      </trkpt>
      <trkpt lat="49.11912" lon="2.22709">
        <ele>75.777844</ele>
        <time>2025-06-19T09:34:59.504Z</time>
      </trkpt>
      <trkpt lat="49.11914" lon="2.22691">
        <ele>75.842415</ele>
        <time>2025-06-19T09:35:01.517Z</time>
      </trkpt>
      <trkpt lat="49.11915" lon="2.22673">
        <ele>75.908423</ele>
        <time>2025-06-19T09:35:03.502Z</time>
      </trkpt>
      <trkpt lat="49.11918" lon="2.22655">
        <ele>75.97328</ele>
        <time>2025-06-19T09:35:05.495Z</time>
      </trkpt>
      <trkpt lat="49.11919" lon="2.22637">
        <ele>76.038892</ele>
        <time>2025-06-19T09:35:07.508Z</time>
      </trkpt>
      <trkpt lat="49.1192" lon="2.22621">
        <ele>76.097467</ele>
        <time>2025-06-19T09:35:09.500Z</time>
      </trkpt>
      <trkpt lat="49.11921" lon="2.22606">
        <ele>76.149655</ele>
        <time>2025-06-19T09:35:11.508Z</time>
      </trkpt>
      <trkpt lat="49.11923" lon="2.22586">
        <ele>76.22305</ele>
        <time>2025-06-19T09:35:14.512Z</time>
      </trkpt>
      <trkpt lat="49.11926" lon="2.22571">
        <ele>76.16007</ele>
        <time>2025-06-19T09:35:16.501Z</time>
      </trkpt>
      <trkpt lat="49.11927" lon="2.22554">
        <ele>76.034404</ele>
        <time>2025-06-19T09:35:18.507Z</time>
      </trkpt>
      <trkpt lat="49.11929" lon="2.22537">
        <ele>75.913198</ele>
        <time>2025-06-19T09:35:20.509Z</time>
      </trkpt>
      <trkpt lat="49.1193" lon="2.22521">
        <ele>75.795394</ele>
        <time>2025-06-19T09:35:22.502Z</time>
      </trkpt>
      <trkpt lat="49.11931" lon="2.22505">
        <ele>75.675527</ele>
        <time>2025-06-19T09:35:24.501Z</time>
      </trkpt>
      <trkpt lat="49.11932" lon="2.22489">
        <ele>75.55934</ele>
        <time>2025-06-19T09:35:26.499Z</time>
      </trkpt>
      <trkpt lat="49.11933" lon="2.22472">
        <ele>75.436574</ele>
        <time>2025-06-19T09:35:28.513Z</time>
      </trkpt>
      <trkpt lat="49.11935" lon="2.22455">
        <ele>75.309423</ele>
        <time>2025-06-19T09:35:30.506Z</time>
      </trkpt>
      <trkpt lat="49.11936" lon="2.22437">
        <ele>75.179498</ele>
        <time>2025-06-19T09:35:32.515Z</time>
      </trkpt>
      <trkpt lat="49.11937" lon="2.2242">
        <ele>75.055178</ele>
        <time>2025-06-19T09:35:34.508Z</time>
      </trkpt>
      <trkpt lat="49.11939" lon="2.22404">
        <ele>74.935919</ele>
        <time>2025-06-19T09:35:36.504Z</time>
      </trkpt>
      <trkpt lat="49.1194" lon="2.22388">
        <ele>74.814974</ele>
        <time>2025-06-19T09:35:38.512Z</time>
      </trkpt>
      <trkpt lat="49.11942" lon="2.22373">
        <ele>74.707772</ele>
        <time>2025-06-19T09:35:40.511Z</time>
      </trkpt>
      <trkpt lat="49.11943" lon="2.22359">
        <ele>74.603985</ele>
        <time>2025-06-19T09:35:42.512Z</time>
      </trkpt>
      <trkpt lat="49.11945" lon="2.22345">
        <ele>74.499308</ele>
        <time>2025-06-19T09:35:44.509Z</time>
      </trkpt>
      <trkpt lat="49.11943" lon="2.22327">
        <ele>74.365091</ele>
        <time>2025-06-19T09:35:47.510Z</time>
      </trkpt>
      <trkpt lat="49.11938" lon="2.22311">
        <ele>74.239404</ele>
        <time>2025-06-19T09:35:50.504Z</time>
      </trkpt>
      <trkpt lat="49.11932" lon="2.22295">
        <ele>74.231281</ele>
        <time>2025-06-19T09:35:53.508Z</time>
      </trkpt>
      <trkpt lat="49.11926" lon="2.22283">
        <ele>74.224825</ele>
        <time>2025-06-19T09:35:55.501Z</time>
      </trkpt>
      <trkpt lat="49.1192" lon="2.22266">
        <ele>74.21618</ele>
        <time>2025-06-19T09:35:58.502Z</time>
      </trkpt>
      <trkpt lat="49.11915" lon="2.22254">
        <ele>74.210015</ele>
        <time>2025-06-19T09:36:00.503Z</time>
      </trkpt>
      <trkpt lat="49.11909" lon="2.22242">
        <ele>74.203954</ele>
        <time>2025-06-19T09:36:02.504Z</time>
      </trkpt>
      <trkpt lat="49.11902" lon="2.22227">
        <ele>74.195793</ele>
        <time>2025-06-19T09:36:05.498Z</time>
      </trkpt>
      <trkpt lat="49.11897" lon="2.22216">
        <ele>74.189828</ele>
        <time>2025-06-19T09:36:07.507Z</time>
      </trkpt>
      <trkpt lat="49.1189" lon="2.22201">
        <ele>74.181914</ele>
        <time>2025-06-19T09:36:10.505Z</time>
      </trkpt>
      <trkpt lat="49.11885" lon="2.22189">
        <ele>74.175708</ele>
        <time>2025-06-19T09:36:12.499Z</time>
      </trkpt>
      <trkpt lat="49.1188" lon="2.22177">
        <ele>74.16965</ele>
        <time>2025-06-19T09:36:14.506Z</time>
      </trkpt>
      <trkpt lat="49.11875" lon="2.22164">
        <ele>74.163231</ele>
        <time>2025-06-19T09:36:16.496Z</time>
      </trkpt>
      <trkpt lat="49.11869" lon="2.22151">
        <ele>74.15645</ele>
        <time>2025-06-19T09:36:18.502Z</time>
      </trkpt>
      <trkpt lat="49.11864" lon="2.22139">
        <ele>74.150177</ele>
        <time>2025-06-19T09:36:20.504Z</time>
      </trkpt>
      <trkpt lat="49.11859" lon="2.22126">
        <ele>74.143612</ele>
        <time>2025-06-19T09:36:22.497Z</time>
      </trkpt>
      <trkpt lat="49.11854" lon="2.22115">
        <ele>74.137517</ele>
        <time>2025-06-19T09:36:24.502Z</time>
      </trkpt>
      <trkpt lat="49.11848" lon="2.22103">
        <ele>74.13135</ele>
        <time>2025-06-19T09:36:26.494Z</time>
      </trkpt>
      <trkpt lat="49.11843" lon="2.22092">
        <ele>74.12536</ele>
        <time>2025-06-19T09:36:28.502Z</time>
      </trkpt>
      <trkpt lat="49.11838" lon="2.2208">
        <ele>74.132067</ele>
        <time>2025-06-19T09:36:30.504Z</time>
      </trkpt>
      <trkpt lat="49.11832" lon="2.22066">
        <ele>74.19053</ele>
        <time>2025-06-19T09:36:32.501Z</time>
      </trkpt>
      <trkpt lat="49.11827" lon="2.22054">
        <ele>74.245912</ele>
        <time>2025-06-19T09:36:34.508Z</time>
      </trkpt>
      <trkpt lat="49.11821" lon="2.22042">
        <ele>74.30007</ele>
        <time>2025-06-19T09:36:36.497Z</time>
      </trkpt>
      <trkpt lat="49.11816" lon="2.22028">
        <ele>74.359466</ele>
        <time>2025-06-19T09:36:38.499Z</time>
      </trkpt>
      <trkpt lat="49.11809" lon="2.22015">
        <ele>74.419186</ele>
        <time>2025-06-19T09:36:40.505Z</time>
      </trkpt>
      <trkpt lat="49.11803" lon="2.22001">
        <ele>74.481041</ele>
        <time>2025-06-19T09:36:42.507Z</time>
      </trkpt>
      <trkpt lat="49.11797" lon="2.21987">
        <ele>74.542886</ele>
        <time>2025-06-19T09:36:44.510Z</time>
      </trkpt>
      <trkpt lat="49.11791" lon="2.21973">
        <ele>74.604438</ele>
        <time>2025-06-19T09:36:46.515Z</time>
      </trkpt>
      <trkpt lat="49.11785" lon="2.21959">
        <ele>74.6669</ele>
        <time>2025-06-19T09:36:48.511Z</time>
      </trkpt>
      <trkpt lat="49.11779" lon="2.21944">
        <ele>74.729763</ele>
        <time>2025-06-19T09:36:50.503Z</time>
      </trkpt>
      <trkpt lat="49.11774" lon="2.21932">
        <ele>74.783922</ele>
        <time>2025-06-19T09:36:52.507Z</time>
      </trkpt>
      <trkpt lat="49.11769" lon="2.2192">
        <ele>74.836245</ele>
        <time>2025-06-19T09:36:54.517Z</time>
      </trkpt>
      <trkpt lat="49.11763" lon="2.21908">
        <ele>74.891041</ele>
        <time>2025-06-19T09:36:56.511Z</time>
      </trkpt>
      <trkpt lat="49.11757" lon="2.21896">
        <ele>74.945536</ele>
        <time>2025-06-19T09:36:58.509Z</time>
      </trkpt>
      <trkpt lat="49.11752" lon="2.21884">
        <ele>74.997657</ele>
        <time>2025-06-19T09:37:00.514Z</time>
      </trkpt>
      <trkpt lat="49.11747" lon="2.21871">
        <ele>75.05434</ele>
        <time>2025-06-19T09:37:02.510Z</time>
      </trkpt>
      <trkpt lat="49.11741" lon="2.21858">
        <ele>75.113438</ele>
        <time>2025-06-19T09:37:04.516Z</time>
      </trkpt>
      <trkpt lat="49.11736" lon="2.21845">
        <ele>75.2098</ele>
        <time>2025-06-19T09:37:06.502Z</time>
      </trkpt>
      <trkpt lat="49.11729" lon="2.21832">
        <ele>75.333678</ele>
        <time>2025-06-19T09:37:08.507Z</time>
      </trkpt>
      <trkpt lat="49.11723" lon="2.21818">
        <ele>75.463868</ele>
        <time>2025-06-19T09:37:10.516Z</time>
      </trkpt>
      <trkpt lat="49.11718" lon="2.21805">
        <ele>75.586262</ele>
        <time>2025-06-19T09:37:12.515Z</time>
      </trkpt>
      <trkpt lat="49.11712" lon="2.21794">
        <ele>75.700441</ele>
        <time>2025-06-19T09:37:14.512Z</time>
      </trkpt>
      <trkpt lat="49.11704" lon="2.21777">
        <ele>75.860809</ele>
        <time>2025-06-19T09:37:17.518Z</time>
      </trkpt>
      <trkpt lat="49.11696" lon="2.2176">
        <ele>76.01909</ele>
        <time>2025-06-19T09:37:20.500Z</time>
      </trkpt>
      <trkpt lat="49.11691" lon="2.21749">
        <ele>76.129829</ele>
        <time>2025-06-19T09:37:22.501Z</time>
      </trkpt>
      <trkpt lat="49.11683" lon="2.21731">
        <ele>76.292582</ele>
        <time>2025-06-19T09:37:25.503Z</time>
      </trkpt>
      <trkpt lat="49.11678" lon="2.21719">
        <ele>76.409964</ele>
        <time>2025-06-19T09:37:27.504Z</time>
      </trkpt>
      <trkpt lat="49.11673" lon="2.21705">
        <ele>76.530166</ele>
        <time>2025-06-19T09:37:29.504Z</time>
      </trkpt>
      <trkpt lat="49.11667" lon="2.21693">
        <ele>76.647332</ele>
        <time>2025-06-19T09:37:31.504Z</time>
      </trkpt>
      <trkpt lat="49.11661" lon="2.2168">
        <ele>76.770508</ele>
        <time>2025-06-19T09:37:33.516Z</time>
      </trkpt>
      <trkpt lat="49.11656" lon="2.21668">
        <ele>76.880539</ele>
        <time>2025-06-19T09:37:35.503Z</time>
      </trkpt>
      <trkpt lat="49.1165" lon="2.21652">
        <ele>77.023246</ele>
        <time>2025-06-19T09:37:38.505Z</time>
      </trkpt>
      <trkpt lat="49.11645" lon="2.21639">
        <ele>77.139785</ele>
        <time>2025-06-19T09:37:41.511Z</time>
      </trkpt>
      <trkpt lat="49.11643" lon="2.21623">
        <ele>77.264317</ele>
        <time>2025-06-19T09:37:45.503Z</time>
      </trkpt>
      <trkpt lat="49.1164" lon="2.21607">
        <ele>77.127947</ele>
        <time>2025-06-19T09:37:49.500Z</time>
      </trkpt>
      <trkpt lat="49.1163" lon="2.21603">
        <ele>76.992876</ele>
        <time>2025-06-19T09:37:52.505Z</time>
      </trkpt>
      <trkpt lat="49.11622" lon="2.21586">
        <ele>76.818277</ele>
        <time>2025-06-19T09:37:55.498Z</time>
      </trkpt>
      <trkpt lat="49.11616" lon="2.21574">
        <ele>76.691489</ele>
        <time>2025-06-19T09:37:57.501Z</time>
      </trkpt>
      <trkpt lat="49.1161" lon="2.21562">
        <ele>76.567795</ele>
        <time>2025-06-19T09:37:59.506Z</time>
      </trkpt>
      <trkpt lat="49.11602" lon="2.21546">
        <ele>76.399586</ele>
        <time>2025-06-19T09:38:02.505Z</time>
      </trkpt>
      <trkpt lat="49.11596" lon="2.21531">
        <ele>76.248689</ele>
        <time>2025-06-19T09:38:05.505Z</time>
      </trkpt>
      <trkpt lat="49.1159" lon="2.21517">
        <ele>76.104873</ele>
        <time>2025-06-19T09:38:08.504Z</time>
      </trkpt>
      <trkpt lat="49.11585" lon="2.21504">
        <ele>75.976669</ele>
        <time>2025-06-19T09:38:11.498Z</time>
      </trkpt>
      <trkpt lat="49.11578" lon="2.21484">
        <ele>75.78588</ele>
        <time>2025-06-19T09:38:35.502Z</time>
      </trkpt>
      <trkpt lat="49.11573" lon="2.21472">
        <ele>75.662589</ele>
        <time>2025-06-19T09:38:43.505Z</time>
      </trkpt>
      <trkpt lat="49.11557" lon="2.21457">
        <ele>75.415125</ele>
        <time>2025-06-19T09:39:26.504Z</time>
      </trkpt>
      <trkpt lat="49.11547" lon="2.21454">
        <ele>75.291721</ele>
        <time>2025-06-19T09:39:29.503Z</time>
      </trkpt>
      <trkpt lat="49.11537" lon="2.21452">
        <ele>75.162775</ele>
        <time>2025-06-19T09:39:32.519Z</time>
      </trkpt>
      <trkpt lat="49.11526" lon="2.21448">
        <ele>75.007623</ele>
        <time>2025-06-19T09:39:35.512Z</time>
      </trkpt>
      <trkpt lat="49.11513" lon="2.21446">
        <ele>74.893137</ele>
        <time>2025-06-19T09:39:38.504Z</time>
      </trkpt>
      <trkpt lat="49.115" lon="2.21444">
        <ele>74.800193</ele>
        <time>2025-06-19T09:39:41.506Z</time>
      </trkpt>
      <trkpt lat="49.1149" lon="2.21441">
        <ele>74.734858</ele>
        <time>2025-06-19T09:39:43.512Z</time>
      </trkpt>
      <trkpt lat="49.11481" lon="2.21439">
        <ele>74.670637</ele>
        <time>2025-06-19T09:39:45.504Z</time>
      </trkpt>
      <trkpt lat="49.11468" lon="2.21437">
        <ele>74.579767</ele>
        <time>2025-06-19T09:39:48.509Z</time>
      </trkpt>
      <trkpt lat="49.11459" lon="2.21434">
        <ele>74.51704</ele>
        <time>2025-06-19T09:39:50.512Z</time>
      </trkpt>
      <trkpt lat="49.11449" lon="2.21431">
        <ele>74.452849</ele>
        <time>2025-06-19T09:39:52.518Z</time>
      </trkpt>
      <trkpt lat="49.11437" lon="2.21423">
        <ele>74.359886</ele>
        <time>2025-06-19T09:39:55.508Z</time>
      </trkpt>
      <trkpt lat="49.11428" lon="2.21417">
        <ele>74.293684</ele>
        <time>2025-06-19T09:39:57.512Z</time>
      </trkpt>
      <trkpt lat="49.11419" lon="2.2141">
        <ele>74.225483</ele>
        <time>2025-06-19T09:39:59.513Z</time>
      </trkpt>
      <trkpt lat="49.11411" lon="2.21402">
        <ele>74.159292</ele>
        <time>2025-06-19T09:40:01.506Z</time>
      </trkpt>
      <trkpt lat="49.11402" lon="2.21395">
        <ele>74.091092</ele>
        <time>2025-06-19T09:40:03.514Z</time>
      </trkpt>
      <trkpt lat="49.11394" lon="2.21388">
        <ele>74.028489</ele>
        <time>2025-06-19T09:40:05.503Z</time>
      </trkpt>
      <trkpt lat="49.11386" lon="2.21382">
        <ele>73.965535</ele>
        <time>2025-06-19T09:40:07.506Z</time>
      </trkpt>
      <trkpt lat="49.11377" lon="2.21375">
        <ele>73.901745</ele>
        <time>2025-06-19T09:40:09.505Z</time>
      </trkpt>
      <trkpt lat="49.11368" lon="2.21369">
        <ele>73.834064</ele>
        <time>2025-06-19T09:40:11.506Z</time>
      </trkpt>
      <trkpt lat="49.11358" lon="2.21364">
        <ele>73.763238</ele>
        <time>2025-06-19T09:40:13.497Z</time>
      </trkpt>
      <trkpt lat="49.11349" lon="2.2136">
        <ele>73.778024</ele>
        <time>2025-06-19T09:40:15.499Z</time>
      </trkpt>
      <trkpt lat="49.11341" lon="2.21356">
        <ele>73.962029</ele>
        <time>2025-06-19T09:40:17.512Z</time>
      </trkpt>
      <trkpt lat="49.11332" lon="2.21351">
        <ele>74.151396</ele>
        <time>2025-06-19T09:40:19.499Z</time>
      </trkpt>
      <trkpt lat="49.1132" lon="2.21347">
        <ele>74.387202</ele>
        <time>2025-06-19T09:40:22.501Z</time>
      </trkpt>
      <trkpt lat="49.11309" lon="2.21344">
        <ele>74.613128</ele>
        <time>2025-06-19T09:40:26.515Z</time>
      </trkpt>
      <trkpt lat="49.11299" lon="2.21343">
        <ele>74.818302</ele>
        <time>2025-06-19T09:40:30.514Z</time>
      </trkpt>
      <trkpt lat="49.11289" lon="2.21347">
        <ele>75.031402</ele>
        <time>2025-06-19T09:40:36.501Z</time>
      </trkpt>
      <trkpt lat="49.11283" lon="2.2136">
        <ele>75.231599</ele>
        <time>2025-06-19T09:40:39.514Z</time>
      </trkpt>
      <trkpt lat="49.11279" lon="2.21373">
        <ele>75.418748</ele>
        <time>2025-06-19T09:40:43.494Z</time>
      </trkpt>
      <trkpt lat="49.11275" lon="2.21389">
        <ele>75.63878</ele>
        <time>2025-06-19T09:40:48.499Z</time>
      </trkpt>
      <trkpt lat="49.11273" lon="2.21402">
        <ele>75.826282</ele>
        <time>2025-06-19T09:40:52.505Z</time>
      </trkpt>
      <trkpt lat="49.1127" lon="2.21419">
        <ele>76.044616</ele>
        <time>2025-06-19T09:40:56.515Z</time>
      </trkpt>
      <trkpt lat="49.11266" lon="2.21433">
        <ele>76.247425</ele>
        <time>2025-06-19T09:41:00.524Z</time>
      </trkpt>
      <trkpt lat="49.11263" lon="2.21447">
        <ele>76.444945</ele>
        <time>2025-06-19T09:41:04.510Z</time>
      </trkpt>
      <trkpt lat="49.11259" lon="2.21463">
        <ele>76.6661</ele>
        <time>2025-06-19T09:41:08.506Z</time>
      </trkpt>
      <trkpt lat="49.11257" lon="2.21477">
        <ele>76.862457</ele>
        <time>2025-06-19T09:41:12.522Z</time>
      </trkpt>
      <trkpt lat="49.11252" lon="2.21491">
        <ele>77.060696</ele>
        <time>2025-06-19T09:41:17.515Z</time>
      </trkpt>
      <trkpt lat="49.11247" lon="2.21504">
        <ele>77.271868</ele>
        <time>2025-06-19T09:41:21.513Z</time>
      </trkpt>
      <trkpt lat="49.11242" lon="2.21517">
        <ele>77.264837</ele>
        <time>2025-06-19T09:41:27.515Z</time>
      </trkpt>
      <trkpt lat="49.11238" lon="2.21535">
        <ele>77.14062</ele>
        <time>2025-06-19T09:41:37.514Z</time>
      </trkpt>
      <trkpt lat="49.11235" lon="2.21551">
        <ele>77.025667</ele>
        <time>2025-06-19T09:41:40.519Z</time>
      </trkpt>
      <trkpt lat="49.11233" lon="2.21567">
        <ele>76.917633</ele>
        <time>2025-06-19T09:41:43.515Z</time>
      </trkpt>
      <trkpt lat="49.11233" lon="2.21584">
        <ele>76.807673</ele>
        <time>2025-06-19T09:41:47.507Z</time>
      </trkpt>
      <trkpt lat="49.11234" lon="2.21602">
        <ele>76.682737</ele>
        <time>2025-06-19T09:41:50.507Z</time>
      </trkpt>
      <trkpt lat="49.11234" lon="2.21616">
        <ele>76.587308</ele>
        <time>2025-06-19T09:41:52.517Z</time>
      </trkpt>
      <trkpt lat="49.11228" lon="2.21632">
        <ele>76.466578</ele>
        <time>2025-06-19T09:41:55.521Z</time>
      </trkpt>
      <trkpt lat="49.11223" lon="2.21646">
        <ele>76.359011</ele>
        <time>2025-06-19T09:41:59.512Z</time>
      </trkpt>
      <trkpt lat="49.1122" lon="2.21661">
        <ele>76.25488</ele>
        <time>2025-06-19T09:42:05.534Z</time>
      </trkpt>
      <trkpt lat="49.11218" lon="2.21676">
        <ele>76.153585</ele>
        <time>2025-06-19T09:42:10.510Z</time>
      </trkpt>
      <trkpt lat="49.11215" lon="2.21721">
        <ele>75.852684</ele>
        <time>2025-06-19T09:43:17.499Z</time>
      </trkpt>
      <trkpt lat="49.11206" lon="2.2173">
        <ele>75.74457</ele>
        <time>2025-06-19T09:43:24.503Z</time>
      </trkpt>
      <trkpt lat="49.11197" lon="2.21735">
        <ele>75.650365</ele>
        <time>2025-06-19T09:43:34.524Z</time>
      </trkpt>
      <trkpt lat="49.11187" lon="2.21727">
        <ele>75.53392</ele>
        <time>2025-06-19T09:43:48.501Z</time>
      </trkpt>
      <trkpt lat="49.11177" lon="2.21724">
        <ele>75.530435</ele>
        <time>2025-06-19T09:43:51.519Z</time>
      </trkpt>
      <trkpt lat="49.11168" lon="2.21722">
        <ele>75.571114</ele>
        <time>2025-06-19T09:43:54.514Z</time>
      </trkpt>
      <trkpt lat="49.11156" lon="2.21719">
        <ele>75.620403</ele>
        <time>2025-06-19T09:43:58.503Z</time>
      </trkpt>
      <trkpt lat="49.11147" lon="2.21721">
        <ele>75.661038</ele>
        <time>2025-06-19T09:44:01.514Z</time>
      </trkpt>
      <trkpt lat="49.11137" lon="2.21725">
        <ele>75.704508</ele>
        <time>2025-06-19T09:44:05.513Z</time>
      </trkpt>
      <trkpt lat="49.11128" lon="2.21728">
        <ele>75.742821</ele>
        <time>2025-06-19T09:44:12.500Z</time>
      </trkpt>
      <trkpt lat="49.11117" lon="2.21727">
        <ele>75.786766</ele>
        <time>2025-06-19T09:44:33.507Z</time>
      </trkpt>
      <trkpt lat="49.11108" lon="2.21732">
        <ele>75.825223</ele>
        <time>2025-06-19T09:44:41.496Z</time>
      </trkpt>
      <trkpt lat="49.11117" lon="2.21726">
        <ele>75.863843</ele>
        <time>2025-06-19T09:46:00.501Z</time>
      </trkpt>
      <trkpt lat="49.11132" lon="2.21723">
        <ele>75.928179</ele>
        <time>2025-06-19T10:44:07.506Z</time>
      </trkpt>
      <trkpt lat="49.11144" lon="2.21718">
        <ele>75.981613</ele>
        <time>2025-06-19T10:44:10.499Z</time>
      </trkpt>
      <trkpt lat="49.11155" lon="2.21715">
        <ele>76.028494</ele>
        <time>2025-06-19T10:44:13.509Z</time>
      </trkpt>
      <trkpt lat="49.11167" lon="2.21716">
        <ele>76.078811</ele>
        <time>2025-06-19T10:44:16.501Z</time>
      </trkpt>
      <trkpt lat="49.11178" lon="2.21718">
        <ele>76.122182</ele>
        <time>2025-06-19T10:44:19.512Z</time>
      </trkpt>
      <trkpt lat="49.11187" lon="2.2172">
        <ele>76.161585</ele>
        <time>2025-06-19T10:44:22.485Z</time>
      </trkpt>
      <trkpt lat="49.11198" lon="2.21723">
        <ele>76.206206</ele>
        <time>2025-06-19T10:44:26.497Z</time>
      </trkpt>
      <trkpt lat="49.11207" lon="2.21725">
        <ele>76.246621</ele>
        <time>2025-06-19T10:44:31.502Z</time>
      </trkpt>
      <trkpt lat="49.11216" lon="2.21733">
        <ele>76.109409</ele>
        <time>2025-06-19T10:44:38.493Z</time>
      </trkpt>
      <trkpt lat="49.11217" lon="2.2175">
        <ele>75.920593</ele>
        <time>2025-06-19T10:44:42.506Z</time>
      </trkpt>
      <trkpt lat="49.11217" lon="2.21766">
        <ele>75.733807</ele>
        <time>2025-06-19T10:44:45.526Z</time>
      </trkpt>
      <trkpt lat="49.11216" lon="2.21783">
        <ele>75.545254</ele>
        <time>2025-06-19T10:44:48.494Z</time>
      </trkpt>
      <trkpt lat="49.11215" lon="2.21799">
        <ele>75.360499</ele>
        <time>2025-06-19T10:44:51.507Z</time>
      </trkpt>
      <trkpt lat="49.11214" lon="2.21813">
        <ele>75.20179</ele>
        <time>2025-06-19T10:44:54.508Z</time>
      </trkpt>
      <trkpt lat="49.11212" lon="2.21829">
        <ele>75.020536</ele>
        <time>2025-06-19T10:44:57.516Z</time>
      </trkpt>
      <trkpt lat="49.11212" lon="2.21846">
        <ele>74.831463</ele>
        <time>2025-06-19T10:45:00.503Z</time>
      </trkpt>
      <trkpt lat="49.11212" lon="2.21861">
        <ele>74.653707</ele>
        <time>2025-06-19T10:45:03.510Z</time>
      </trkpt>
      <trkpt lat="49.11213" lon="2.21876">
        <ele>74.487705</ele>
        <time>2025-06-19T10:45:06.495Z</time>
      </trkpt>
      <trkpt lat="49.11223" lon="2.21881">
        <ele>74.294828</ele>
        <time>2025-06-19T10:45:10.502Z</time>
      </trkpt>
      <trkpt lat="49.11231" lon="2.21872">
        <ele>74.127673</ele>
        <time>2025-06-19T10:45:13.506Z</time>
      </trkpt>
      <trkpt lat="49.11236" lon="2.21858">
        <ele>73.949774</ele>
        <time>2025-06-19T10:45:16.498Z</time>
      </trkpt>
      <trkpt lat="49.11238" lon="2.21843">
        <ele>73.776871</ele>
        <time>2025-06-19T10:45:19.519Z</time>
      </trkpt>
      <trkpt lat="49.11241" lon="2.21829">
        <ele>73.608499</ele>
        <time>2025-06-19T10:45:22.488Z</time>
      </trkpt>
      <trkpt lat="49.11246" lon="2.21815">
        <ele>73.43021</ele>
        <time>2025-06-19T10:45:25.503Z</time>
      </trkpt>
      <trkpt lat="49.11251" lon="2.218">
        <ele>73.237131</ele>
        <time>2025-06-19T10:45:28.487Z</time>
      </trkpt>
      <trkpt lat="49.11255" lon="2.21783">
        <ele>73.140443</ele>
        <time>2025-06-19T10:45:31.504Z</time>
      </trkpt>
      <trkpt lat="49.1126" lon="2.21767">
        <ele>73.134548</ele>
        <time>2025-06-19T10:45:34.502Z</time>
      </trkpt>
      <trkpt lat="49.11264" lon="2.21751">
        <ele>73.128841</ele>
        <time>2025-06-19T10:45:37.515Z</time>
      </trkpt>
      <trkpt lat="49.11267" lon="2.21734">
        <ele>73.123057</ele>
        <time>2025-06-19T10:45:40.507Z</time>
      </trkpt>
      <trkpt lat="49.1127" lon="2.21715">
        <ele>73.116345</ele>
        <time>2025-06-19T10:45:43.507Z</time>
      </trkpt>
      <trkpt lat="49.11274" lon="2.21696">
        <ele>73.109853</ele>
        <time>2025-06-19T10:45:46.497Z</time>
      </trkpt>
      <trkpt lat="49.11279" lon="2.21682">
        <ele>73.104484</ele>
        <time>2025-06-19T10:45:49.518Z</time>
      </trkpt>
      <trkpt lat="49.11283" lon="2.21666">
        <ele>73.098559</ele>
        <time>2025-06-19T10:45:52.512Z</time>
      </trkpt>
      <trkpt lat="49.11289" lon="2.21649">
        <ele>73.092464</ele>
        <time>2025-06-19T10:45:55.510Z</time>
      </trkpt>
      <trkpt lat="49.11295" lon="2.21633">
        <ele>73.086244</ele>
        <time>2025-06-19T10:45:58.498Z</time>
      </trkpt>
      <trkpt lat="49.113" lon="2.21616">
        <ele>73.079935</ele>
        <time>2025-06-19T10:46:01.513Z</time>
      </trkpt>
      <trkpt lat="49.11306" lon="2.21598">
        <ele>73.073202</ele>
        <time>2025-06-19T10:46:04.507Z</time>
      </trkpt>
      <trkpt lat="49.11311" lon="2.21582">
        <ele>73.067216</ele>
        <time>2025-06-19T10:46:07.512Z</time>
      </trkpt>
      <trkpt lat="49.11316" lon="2.21564">
        <ele>73.060872</ele>
        <time>2025-06-19T10:46:10.511Z</time>
      </trkpt>
      <trkpt lat="49.11321" lon="2.21548">
        <ele>73.054695</ele>
        <time>2025-06-19T10:46:13.508Z</time>
      </trkpt>
      <trkpt lat="49.11325" lon="2.2153">
        <ele>73.079966</ele>
        <time>2025-06-19T10:46:16.495Z</time>
      </trkpt>
      <trkpt lat="49.1133" lon="2.21511">
        <ele>73.129966</ele>
        <time>2025-06-19T10:46:19.507Z</time>
      </trkpt>
      <trkpt lat="49.11335" lon="2.21494">
        <ele>73.176729</ele>
        <time>2025-06-19T10:46:22.511Z</time>
      </trkpt>
      <trkpt lat="49.11339" lon="2.21475">
        <ele>73.227572</ele>
        <time>2025-06-19T10:46:25.518Z</time>
      </trkpt>
      <trkpt lat="49.11343" lon="2.21457">
        <ele>73.276835</ele>
        <time>2025-06-19T10:46:28.505Z</time>
      </trkpt>
      <trkpt lat="49.11348" lon="2.21439">
        <ele>73.324912</ele>
        <time>2025-06-19T10:46:31.511Z</time>
      </trkpt>
      <trkpt lat="49.11352" lon="2.21421">
        <ele>73.372601</ele>
        <time>2025-06-19T10:46:34.505Z</time>
      </trkpt>
      <trkpt lat="49.11356" lon="2.21402">
        <ele>73.422873</ele>
        <time>2025-06-19T10:46:37.509Z</time>
      </trkpt>
      <trkpt lat="49.11362" lon="2.21385">
        <ele>73.470351</ele>
        <time>2025-06-19T10:46:40.495Z</time>
      </trkpt>
      <trkpt lat="49.11361" lon="2.21368">
        <ele>73.513726</ele>
        <time>2025-06-19T10:46:43.513Z</time>
      </trkpt>
      <trkpt lat="49.11352" lon="2.21359">
        <ele>73.555024</ele>
        <time>2025-06-19T10:46:46.501Z</time>
      </trkpt>
      <trkpt lat="49.11342" lon="2.21353">
        <ele>73.597759</ele>
        <time>2025-06-19T10:46:49.505Z</time>
      </trkpt>
      <trkpt lat="49.11331" lon="2.21348">
        <ele>73.643155</ele>
        <time>2025-06-19T10:46:52.511Z</time>
      </trkpt>
      <trkpt lat="49.11319" lon="2.21344">
        <ele>73.68908</ele>
        <time>2025-06-19T10:46:55.501Z</time>
      </trkpt>
      <trkpt lat="49.11308" lon="2.21341">
        <ele>73.733684</ele>
        <time>2025-06-19T10:46:58.507Z</time>
      </trkpt>
      <trkpt lat="49.11298" lon="2.21339">
        <ele>73.784372</ele>
        <time>2025-06-19T10:47:01.504Z</time>
      </trkpt>
      <trkpt lat="49.11292" lon="2.21328">
        <ele>73.835751</ele>
        <time>2025-06-19T10:47:04.505Z</time>
      </trkpt>
      <trkpt lat="49.11295" lon="2.21311">
        <ele>73.900526</ele>
        <time>2025-06-19T10:47:07.495Z</time>
      </trkpt>
      <trkpt lat="49.113" lon="2.21293">
        <ele>73.972133</ele>
        <time>2025-06-19T10:47:10.508Z</time>
      </trkpt>
      <trkpt lat="49.11306" lon="2.2128">
        <ele>74.028681</ele>
        <time>2025-06-19T10:47:12.502Z</time>
      </trkpt>
      <trkpt lat="49.1131" lon="2.21267">
        <ele>74.08241</ele>
        <time>2025-06-19T10:47:14.497Z</time>
      </trkpt>
      <trkpt lat="49.11313" lon="2.21253">
        <ele>74.138064</ele>
        <time>2025-06-19T10:47:16.496Z</time>
      </trkpt>
      <trkpt lat="49.11316" lon="2.21239">
        <ele>74.191793</ele>
        <time>2025-06-19T10:47:18.505Z</time>
      </trkpt>
      <trkpt lat="49.11321" lon="2.21224">
        <ele>74.251113</ele>
        <time>2025-06-19T10:47:20.493Z</time>
      </trkpt>
      <trkpt lat="49.11325" lon="2.2121">
        <ele>74.310337</ele>
        <time>2025-06-19T10:47:22.495Z</time>
      </trkpt>
      <trkpt lat="49.1133" lon="2.21192">
        <ele>74.380904</ele>
        <time>2025-06-19T10:47:25.494Z</time>
      </trkpt>
      <trkpt lat="49.11335" lon="2.21174">
        <ele>74.451613</ele>
        <time>2025-06-19T10:47:28.499Z</time>
      </trkpt>
      <trkpt lat="49.11338" lon="2.21157">
        <ele>74.516864</ele>
        <time>2025-06-19T10:47:31.512Z</time>
      </trkpt>
      <trkpt lat="49.11341" lon="2.2114">
        <ele>74.583129</ele>
        <time>2025-06-19T10:47:34.497Z</time>
      </trkpt>
      <trkpt lat="49.11344" lon="2.21122">
        <ele>74.652178</ele>
        <time>2025-06-19T10:47:37.505Z</time>
      </trkpt>
      <trkpt lat="49.11346" lon="2.21102">
        <ele>74.726031</ele>
        <time>2025-06-19T10:47:40.495Z</time>
      </trkpt>
      <trkpt lat="49.11347" lon="2.21088">
        <ele>74.777344</ele>
        <time>2025-06-19T10:47:42.491Z</time>
      </trkpt>
      <trkpt lat="49.11349" lon="2.21073">
        <ele>74.825465</ele>
        <time>2025-06-19T10:47:44.503Z</time>
      </trkpt>
      <trkpt lat="49.11351" lon="2.21059">
        <ele>74.869429</ele>
        <time>2025-06-19T10:47:46.483Z</time>
      </trkpt>
      <trkpt lat="49.11352" lon="2.21045">
        <ele>74.913787</ele>
        <time>2025-06-19T10:47:48.504Z</time>
      </trkpt>
      <trkpt lat="49.11355" lon="2.21028">
        <ele>74.972648</ele>
        <time>2025-06-19T10:47:51.491Z</time>
      </trkpt>
      <trkpt lat="49.11358" lon="2.21009">
        <ele>75.033482</ele>
        <time>2025-06-19T10:47:54.505Z</time>
      </trkpt>
      <trkpt lat="49.11362" lon="2.20994">
        <ele>75.082652</ele>
        <time>2025-06-19T10:47:57.509Z</time>
      </trkpt>
      <trkpt lat="49.11366" lon="2.20982">
        <ele>75.12778</ele>
        <time>2025-06-19T10:48:00.501Z</time>
      </trkpt>
      <trkpt lat="49.1137" lon="2.20967">
        <ele>75.178137</ele>
        <time>2025-06-19T10:48:03.501Z</time>
      </trkpt>
      <trkpt lat="49.11375" lon="2.20952">
        <ele>75.232405</ele>
        <time>2025-06-19T10:48:06.494Z</time>
      </trkpt>
      <trkpt lat="49.11381" lon="2.20938">
        <ele>75.284897</ele>
        <time>2025-06-19T10:48:09.495Z</time>
      </trkpt>
      <trkpt lat="49.11374" lon="2.20926">
        <ele>75.335079</ele>
        <time>2025-06-19T10:48:14.499Z</time>
      </trkpt>
      <trkpt lat="49.11364" lon="2.20927">
        <ele>75.386637</ele>
        <time>2025-06-19T10:48:18.510Z</time>
      </trkpt>
      <trkpt lat="49.11373" lon="2.20924">
        <ele>75.432114</ele>
        <time>2025-06-19T10:48:29.515Z</time>
      </trkpt>
      <trkpt lat="49.11383" lon="2.20923">
        <ele>75.47902</ele>
        <time>2025-06-19T10:48:42.495Z</time>
      </trkpt>
      <trkpt lat="49.11376" lon="2.2091">
        <ele>75.530739</ele>
        <time>2025-06-19T10:48:51.487Z</time>
      </trkpt>
      <trkpt lat="49.11367" lon="2.20903">
        <ele>75.579542</ele>
        <time>2025-06-19T10:49:02.487Z</time>
      </trkpt>
      <trkpt lat="49.11359" lon="2.20895">
        <ele>75.626327</ele>
        <time>2025-06-19T10:49:07.487Z</time>
      </trkpt>
      <trkpt lat="49.11352" lon="2.20884">
        <ele>75.567807</ele>
        <time>2025-06-19T10:49:10.500Z</time>
      </trkpt>
      <trkpt lat="49.1134" lon="2.20884">
        <ele>75.48264</ele>
        <time>2025-06-19T10:49:13.506Z</time>
      </trkpt>
      <trkpt lat="49.11329" lon="2.20879">
        <ele>75.398972</ele>
        <time>2025-06-19T10:49:17.505Z</time>
      </trkpt>
      <trkpt lat="49.11319" lon="2.20877">
        <ele>75.322975</ele>
        <time>2025-06-19T10:49:22.491Z</time>
      </trkpt>
      <trkpt lat="49.11307" lon="2.20881">
        <ele>75.231344</ele>
        <time>2025-06-19T10:49:26.495Z</time>
      </trkpt>
      <trkpt lat="49.11297" lon="2.2088">
        <ele>75.155053</ele>
        <time>2025-06-19T10:49:30.509Z</time>
      </trkpt>
      <trkpt lat="49.11287" lon="2.20887">
        <ele>75.079271</ele>
        <time>2025-06-19T10:49:48.485Z</time>
      </trkpt>
      <trkpt lat="49.11278" lon="2.20885">
        <ele>75.009091</ele>
        <time>2025-06-19T10:49:51.493Z</time>
      </trkpt>
      <trkpt lat="49.11266" lon="2.2088">
        <ele>74.918584</ele>
        <time>2025-06-19T10:49:54.498Z</time>
      </trkpt>
      <trkpt lat="49.11257" lon="2.20876">
        <ele>74.849781</ele>
        <time>2025-06-19T10:49:56.489Z</time>
      </trkpt>
      <trkpt lat="49.11248" lon="2.20872">
        <ele>74.781637</ele>
        <time>2025-06-19T10:49:58.506Z</time>
      </trkpt>
      <trkpt lat="49.11235" lon="2.20866">
        <ele>74.680838</ele>
        <time>2025-06-19T10:50:01.505Z</time>
      </trkpt>
      <trkpt lat="49.11227" lon="2.20862">
        <ele>74.61373</ele>
        <time>2025-06-19T10:50:03.503Z</time>
      </trkpt>
      <trkpt lat="49.11218" lon="2.20858">
        <ele>74.546602</ele>
        <time>2025-06-19T10:50:05.495Z</time>
      </trkpt>
      <trkpt lat="49.11209" lon="2.20853">
        <ele>74.479921</ele>
        <time>2025-06-19T10:50:07.507Z</time>
      </trkpt>
      <trkpt lat="49.112" lon="2.2085">
        <ele>74.409383</ele>
        <time>2025-06-19T10:50:09.514Z</time>
      </trkpt>
      <trkpt lat="49.11191" lon="2.20847">
        <ele>74.341588</ele>
        <time>2025-06-19T10:50:11.502Z</time>
      </trkpt>
      <trkpt lat="49.11182" lon="2.20844">
        <ele>74.260416</ele>
        <time>2025-06-19T10:50:13.500Z</time>
      </trkpt>
      <trkpt lat="49.1117" lon="2.20841">
        <ele>74.112558</ele>
        <time>2025-06-19T10:50:16.502Z</time>
      </trkpt>
      <trkpt lat="49.11157" lon="2.20838">
        <ele>73.969526</ele>
        <time>2025-06-19T10:50:19.500Z</time>
      </trkpt>
      <trkpt lat="49.11145" lon="2.20834">
        <ele>73.824241</ele>
        <time>2025-06-19T10:50:22.502Z</time>
      </trkpt>
      <trkpt lat="49.11132" lon="2.2083">
        <ele>73.678101</ele>
        <time>2025-06-19T10:50:25.504Z</time>
      </trkpt>
      <trkpt lat="49.1112" lon="2.20826">
        <ele>73.538833</ele>
        <time>2025-06-19T10:50:28.506Z</time>
      </trkpt>
      <trkpt lat="49.11112" lon="2.20824">
        <ele>73.435284</ele>
        <time>2025-06-19T10:50:30.499Z</time>
      </trkpt>
      <trkpt lat="49.11098" lon="2.2082">
        <ele>73.27997</ele>
        <time>2025-06-19T10:50:33.487Z</time>
      </trkpt>
      <trkpt lat="49.11085" lon="2.20817">
        <ele>73.132166</ele>
        <time>2025-06-19T10:50:36.496Z</time>
      </trkpt>
      <trkpt lat="49.11073" lon="2.20814">
        <ele>72.983462</ele>
        <time>2025-06-19T10:50:39.501Z</time>
      </trkpt>
      <trkpt lat="49.11059" lon="2.20813">
        <ele>72.82977</ele>
        <time>2025-06-19T10:50:42.501Z</time>
      </trkpt>
      <trkpt lat="49.1105" lon="2.20812">
        <ele>72.719664</ele>
        <time>2025-06-19T10:50:44.501Z</time>
      </trkpt>
      <trkpt lat="49.11038" lon="2.2081">
        <ele>72.585908</ele>
        <time>2025-06-19T10:50:46.506Z</time>
      </trkpt>
      <trkpt lat="49.11027" lon="2.20805">
        <ele>72.456102</ele>
        <time>2025-06-19T10:50:48.502Z</time>
      </trkpt>
      <trkpt lat="49.11016" lon="2.20802">
        <ele>72.323603</ele>
        <time>2025-06-19T10:50:50.502Z</time>
      </trkpt>
      <trkpt lat="49.11006" lon="2.208">
        <ele>72.230405</ele>
        <time>2025-06-19T10:50:52.505Z</time>
      </trkpt>
      <trkpt lat="49.10994" lon="2.208">
        <ele>72.176574</ele>
        <time>2025-06-19T10:50:55.487Z</time>
      </trkpt>
      <trkpt lat="49.10985" lon="2.20795">
        <ele>72.134409</ele>
        <time>2025-06-19T10:50:58.508Z</time>
      </trkpt>
      <trkpt lat="49.10975" lon="2.20791">
        <ele>72.085987</ele>
        <time>2025-06-19T10:51:03.509Z</time>
      </trkpt>
      <trkpt lat="49.10965" lon="2.20795">
        <ele>72.03959</ele>
        <time>2025-06-19T10:51:06.500Z</time>
      </trkpt>
      <trkpt lat="49.10954" lon="2.20801">
        <ele>71.988258</ele>
        <time>2025-06-19T10:51:09.492Z</time>
      </trkpt>
      <trkpt lat="49.10942" lon="2.20799">
        <ele>71.933276</ele>
        <time>2025-06-19T10:51:12.502Z</time>
      </trkpt>
      <trkpt lat="49.10933" lon="2.20801">
        <ele>71.89125</ele>
        <time>2025-06-19T10:51:14.506Z</time>
      </trkpt>
      <trkpt lat="49.10923" lon="2.20803">
        <ele>71.845151</ele>
        <time>2025-06-19T10:51:16.490Z</time>
      </trkpt>
      <trkpt lat="49.10913" lon="2.20804">
        <ele>71.799922</ele>
        <time>2025-06-19T10:51:18.505Z</time>
      </trkpt>
      <trkpt lat="49.10902" lon="2.20802">
        <ele>71.752255</ele>
        <time>2025-06-19T10:51:20.490Z</time>
      </trkpt>
      <trkpt lat="49.1089" lon="2.20801">
        <ele>71.698705</ele>
        <time>2025-06-19T10:51:22.494Z</time>
      </trkpt>
      <trkpt lat="49.10881" lon="2.208">
        <ele>71.654755</ele>
        <time>2025-06-19T10:51:24.504Z</time>
      </trkpt>
      <trkpt lat="49.10872" lon="2.20799">
        <ele>71.612997</ele>
        <time>2025-06-19T10:51:26.499Z</time>
      </trkpt>
      <trkpt lat="49.1086" lon="2.20798">
        <ele>71.562289</ele>
        <time>2025-06-19T10:51:29.502Z</time>
      </trkpt>
      <trkpt lat="49.1085" lon="2.20797">
        <ele>71.516151</ele>
        <time>2025-06-19T10:51:32.508Z</time>
      </trkpt>
      <trkpt lat="49.10839" lon="2.20796">
        <ele>71.464451</ele>
        <time>2025-06-19T10:51:36.499Z</time>
      </trkpt>
      <trkpt lat="49.1083" lon="2.20793">
        <ele>71.45286</ele>
        <time>2025-06-19T10:51:39.487Z</time>
      </trkpt>
      <trkpt lat="49.1082" lon="2.20795">
        <ele>71.564184</ele>
        <time>2025-06-19T10:51:42.501Z</time>
      </trkpt>
      <trkpt lat="49.10808" lon="2.208">
        <ele>71.699996</ele>
        <time>2025-06-19T10:51:45.487Z</time>
      </trkpt>
      <trkpt lat="49.10796" lon="2.20799">
        <ele>71.838091</ele>
        <time>2025-06-19T10:51:48.497Z</time>
      </trkpt>
      <trkpt lat="49.10784" lon="2.20799">
        <ele>71.976173</ele>
        <time>2025-06-19T10:51:51.498Z</time>
      </trkpt>
      <trkpt lat="49.10771" lon="2.20799">
        <ele>72.122175</ele>
        <time>2025-06-19T10:51:54.498Z</time>
      </trkpt>
      <trkpt lat="49.10762" lon="2.20798">
        <ele>72.224049</ele>
        <time>2025-06-19T10:51:56.499Z</time>
      </trkpt>
      <trkpt lat="49.10749" lon="2.20797">
        <ele>72.375873</ele>
        <time>2025-06-19T10:51:59.497Z</time>
      </trkpt>
      <trkpt lat="49.10736" lon="2.2079">
        <ele>72.531862</ele>
        <time>2025-06-19T10:52:02.508Z</time>
      </trkpt>
      <trkpt lat="49.10727" lon="2.20787">
        <ele>72.636781</ele>
        <time>2025-06-19T10:52:04.498Z</time>
      </trkpt>
      <trkpt lat="49.10713" lon="2.20787">
        <ele>72.78619</ele>
        <time>2025-06-19T10:52:07.489Z</time>
      </trkpt>
      <trkpt lat="49.10701" lon="2.20791">
        <ele>72.932366</ele>
        <time>2025-06-19T10:52:10.492Z</time>
      </trkpt>
      <trkpt lat="49.10688" lon="2.2079">
        <ele>73.073894</ele>
        <time>2025-06-19T10:52:13.501Z</time>
      </trkpt>
      <trkpt lat="49.10676" lon="2.20785">
        <ele>73.217933</ele>
        <time>2025-06-19T10:52:16.498Z</time>
      </trkpt>
      <trkpt lat="49.10665" lon="2.20781">
        <ele>73.350468</ele>
        <time>2025-06-19T10:52:19.483Z</time>
      </trkpt>
      <trkpt lat="49.10656" lon="2.2078">
        <ele>73.452415</ele>
        <time>2025-06-19T10:52:21.502Z</time>
      </trkpt>
      <trkpt lat="49.10646" lon="2.2078">
        <ele>73.469196</ele>
        <time>2025-06-19T10:52:23.488Z</time>
      </trkpt>
      <trkpt lat="49.10632" lon="2.2078">
        <ele>73.474203</ele>
        <time>2025-06-19T10:52:26.488Z</time>
      </trkpt>
      <trkpt lat="49.1062" lon="2.20779">
        <ele>73.478833</ele>
        <time>2025-06-19T10:52:29.492Z</time>
      </trkpt>
      <trkpt lat="49.10607" lon="2.20781">
        <ele>73.483585</ele>
        <time>2025-06-19T10:52:32.495Z</time>
      </trkpt>
      <trkpt lat="49.10596" lon="2.20781">
        <ele>73.488069</ele>
        <time>2025-06-19T10:52:35.504Z</time>
      </trkpt>
      <trkpt lat="49.10584" lon="2.20788">
        <ele>73.492817</ele>
        <time>2025-06-19T10:52:38.492Z</time>
      </trkpt>
      <trkpt lat="49.10571" lon="2.20787">
        <ele>73.497526</ele>
        <time>2025-06-19T10:52:41.497Z</time>
      </trkpt>
      <trkpt lat="49.10559" lon="2.20784">
        <ele>73.502121</ele>
        <time>2025-06-19T10:52:44.499Z</time>
      </trkpt>
      <trkpt lat="49.10546" lon="2.20778">
        <ele>73.50723</ele>
        <time>2025-06-19T10:52:47.517Z</time>
      </trkpt>
      <trkpt lat="49.10536" lon="2.20776">
        <ele>73.510934</ele>
        <time>2025-06-19T10:52:49.502Z</time>
      </trkpt>
      <trkpt lat="49.10527" lon="2.20776">
        <ele>73.514361</ele>
        <time>2025-06-19T10:52:51.509Z</time>
      </trkpt>
      <trkpt lat="49.10518" lon="2.20778">
        <ele>73.517817</ele>
        <time>2025-06-19T10:52:53.513Z</time>
      </trkpt>
      <trkpt lat="49.10506" lon="2.20776">
        <ele>73.522538</ele>
        <time>2025-06-19T10:52:56.498Z</time>
      </trkpt>
      <trkpt lat="49.10493" lon="2.20777">
        <ele>73.527248</ele>
        <time>2025-06-19T10:52:59.490Z</time>
      </trkpt>
      <trkpt lat="49.10482" lon="2.20779">
        <ele>73.531521</ele>
        <time>2025-06-19T10:53:02.506Z</time>
      </trkpt>
      <trkpt lat="49.1047" lon="2.20782">
        <ele>73.509176</ele>
        <time>2025-06-19T10:53:05.499Z</time>
      </trkpt>
      <trkpt lat="49.10457" lon="2.20783">
        <ele>73.464909</ele>
        <time>2025-06-19T10:53:08.498Z</time>
      </trkpt>
      <trkpt lat="49.10445" lon="2.20782">
        <ele>73.42274</ele>
        <time>2025-06-19T10:53:11.491Z</time>
      </trkpt>
      <trkpt lat="49.10432" lon="2.2078">
        <ele>73.37936</ele>
        <time>2025-06-19T10:53:14.504Z</time>
      </trkpt>
      <trkpt lat="49.1042" lon="2.20778">
        <ele>73.334572</ele>
        <time>2025-06-19T10:53:17.502Z</time>
      </trkpt>
      <trkpt lat="49.1041" lon="2.20777">
        <ele>73.302829</ele>
        <time>2025-06-19T10:53:19.504Z</time>
      </trkpt>
      <trkpt lat="49.10401" lon="2.20776">
        <ele>73.270321</ele>
        <time>2025-06-19T10:53:21.510Z</time>
      </trkpt>
      <trkpt lat="49.10388" lon="2.20774">
        <ele>73.223476</ele>
        <time>2025-06-19T10:53:24.508Z</time>
      </trkpt>
      <trkpt lat="49.10379" lon="2.2077">
        <ele>73.190784</ele>
        <time>2025-06-19T10:53:26.489Z</time>
      </trkpt>
      <trkpt lat="49.1037" lon="2.20764">
        <ele>73.158917</ele>
        <time>2025-06-19T10:53:28.501Z</time>
      </trkpt>
      <trkpt lat="49.10362" lon="2.20757">
        <ele>73.125499</ele>
        <time>2025-06-19T10:53:30.514Z</time>
      </trkpt>
      <trkpt lat="49.10353" lon="2.20753">
        <ele>73.092408</ele>
        <time>2025-06-19T10:53:32.496Z</time>
      </trkpt>
      <trkpt lat="49.10343" lon="2.20752">
        <ele>73.057239</ele>
        <time>2025-06-19T10:53:34.505Z</time>
      </trkpt>
      <trkpt lat="49.10333" lon="2.20749">
        <ele>73.022257</ele>
        <time>2025-06-19T10:53:36.508Z</time>
      </trkpt>
      <trkpt lat="49.10323" lon="2.20749">
        <ele>72.987429</ele>
        <time>2025-06-19T10:53:38.508Z</time>
      </trkpt>
      <trkpt lat="49.10314" lon="2.20749">
        <ele>72.954669</ele>
        <time>2025-06-19T10:53:40.523Z</time>
      </trkpt>
      <trkpt lat="49.10301" lon="2.20745">
        <ele>72.910553</ele>
        <time>2025-06-19T10:53:43.492Z</time>
      </trkpt>
      <trkpt lat="49.10289" lon="2.20738">
        <ele>72.898884</ele>
        <time>2025-06-19T10:53:46.504Z</time>
      </trkpt>
      <trkpt lat="49.10277" lon="2.20734">
        <ele>72.889455</ele>
        <time>2025-06-19T10:53:49.505Z</time>
      </trkpt>
      <trkpt lat="49.10267" lon="2.2073">
        <ele>72.882519</ele>
        <time>2025-06-19T10:53:51.492Z</time>
      </trkpt>
      <trkpt lat="49.10255" lon="2.20725">
        <ele>72.873108</ele>
        <time>2025-06-19T10:53:54.504Z</time>
      </trkpt>
      <trkpt lat="49.10242" lon="2.20718">
        <ele>72.863517</ele>
        <time>2025-06-19T10:53:57.506Z</time>
      </trkpt>
      <trkpt lat="49.1023" lon="2.20712">
        <ele>72.853825</ele>
        <time>2025-06-19T10:54:00.512Z</time>
      </trkpt>
      <trkpt lat="49.10221" lon="2.20707">
        <ele>72.847122</ele>
        <time>2025-06-19T10:54:02.511Z</time>
      </trkpt>
      <trkpt lat="49.10212" lon="2.20702">
        <ele>72.840266</ele>
        <time>2025-06-19T10:54:04.506Z</time>
      </trkpt>
      <trkpt lat="49.10199" lon="2.20696">
        <ele>72.830289</ele>
        <time>2025-06-19T10:54:07.492Z</time>
      </trkpt>
      <trkpt lat="49.1019" lon="2.20691">
        <ele>72.823533</ele>
        <time>2025-06-19T10:54:09.498Z</time>
      </trkpt>
      <trkpt lat="49.10177" lon="2.20685">
        <ele>72.813528</ele>
        <time>2025-06-19T10:54:12.507Z</time>
      </trkpt>
      <trkpt lat="49.10168" lon="2.2068">
        <ele>72.806671</ele>
        <time>2025-06-19T10:54:14.501Z</time>
      </trkpt>
      <trkpt lat="49.10159" lon="2.20675">
        <ele>72.799738</ele>
        <time>2025-06-19T10:54:16.497Z</time>
      </trkpt>
      <trkpt lat="49.1015" lon="2.2067">
        <ele>72.792901</ele>
        <time>2025-06-19T10:54:18.506Z</time>
      </trkpt>
      <trkpt lat="49.10141" lon="2.20666">
        <ele>72.785785</ele>
        <time>2025-06-19T10:54:20.513Z</time>
      </trkpt>
      <trkpt lat="49.10132" lon="2.20661">
        <ele>72.778844</ele>
        <time>2025-06-19T10:54:22.511Z</time>
      </trkpt>
      <trkpt lat="49.10123" lon="2.20657">
        <ele>72.801829</ele>
        <time>2025-06-19T10:54:24.499Z</time>
      </trkpt>
      <trkpt lat="49.10112" lon="2.20653">
        <ele>72.840561</ele>
        <time>2025-06-19T10:54:26.491Z</time>
      </trkpt>
      <trkpt lat="49.10102" lon="2.20649">
        <ele>72.875962</ele>
        <time>2025-06-19T10:54:28.499Z</time>
      </trkpt>
      <trkpt lat="49.10092" lon="2.20646">
        <ele>72.912178</ele>
        <time>2025-06-19T10:54:30.491Z</time>
      </trkpt>
      <trkpt lat="49.10083" lon="2.2064">
        <ele>72.946295</ele>
        <time>2025-06-19T10:54:32.501Z</time>
      </trkpt>
      <trkpt lat="49.10074" lon="2.20635">
        <ele>72.981717</ele>
        <time>2025-06-19T10:54:34.499Z</time>
      </trkpt>
      <trkpt lat="49.10065" lon="2.2063">
        <ele>73.015939</ele>
        <time>2025-06-19T10:54:36.497Z</time>
      </trkpt>
      <trkpt lat="49.10055" lon="2.20626">
        <ele>73.050966</ele>
        <time>2025-06-19T10:54:38.505Z</time>
      </trkpt>
      <trkpt lat="49.10045" lon="2.20623">
        <ele>73.087486</ele>
        <time>2025-06-19T10:54:40.510Z</time>
      </trkpt>
      <trkpt lat="49.10036" lon="2.2062">
        <ele>73.120694</ele>
        <time>2025-06-19T10:54:42.499Z</time>
      </trkpt>
      <trkpt lat="49.10027" lon="2.20617">
        <ele>73.153643</ele>
        <time>2025-06-19T10:54:44.500Z</time>
      </trkpt>
      <trkpt lat="49.10018" lon="2.20612">
        <ele>73.187386</ele>
        <time>2025-06-19T10:54:46.488Z</time>
      </trkpt>
      <trkpt lat="49.10009" lon="2.20608">
        <ele>73.219754</ele>
        <time>2025-06-19T10:54:48.499Z</time>
      </trkpt>
      <trkpt lat="49.09997" lon="2.206">
        <ele>73.266651</ele>
        <time>2025-06-19T10:54:51.489Z</time>
      </trkpt>
      <trkpt lat="49.09987" lon="2.20596">
        <ele>73.30155</ele>
        <time>2025-06-19T10:54:53.482Z</time>
      </trkpt>
      <trkpt lat="49.09978" lon="2.20594">
        <ele>73.334195</ele>
        <time>2025-06-19T10:54:55.485Z</time>
      </trkpt>
      <trkpt lat="49.09965" lon="2.20587">
        <ele>73.38188</ele>
        <time>2025-06-19T10:54:58.495Z</time>
      </trkpt>
      <trkpt lat="49.09956" lon="2.20582">
        <ele>73.410687</ele>
        <time>2025-06-19T10:55:00.505Z</time>
      </trkpt>
      <trkpt lat="49.09947" lon="2.20577">
        <ele>73.387304</ele>
        <time>2025-06-19T10:55:02.497Z</time>
      </trkpt>
      <trkpt lat="49.09938" lon="2.20572">
        <ele>73.362698</ele>
        <time>2025-06-19T10:55:04.490Z</time>
      </trkpt>
      <trkpt lat="49.09928" lon="2.20568">
        <ele>73.338186</ele>
        <time>2025-06-19T10:55:06.487Z</time>
      </trkpt>
      <trkpt lat="49.09918" lon="2.20564">
        <ele>73.314083</ele>
        <time>2025-06-19T10:55:08.497Z</time>
      </trkpt>
      <trkpt lat="49.09908" lon="2.20559">
        <ele>73.288738</ele>
        <time>2025-06-19T10:55:10.497Z</time>
      </trkpt>
      <trkpt lat="49.09899" lon="2.20555">
        <ele>73.265521</ele>
        <time>2025-06-19T10:55:12.507Z</time>
      </trkpt>
      <trkpt lat="49.09891" lon="2.2055">
        <ele>73.243382</ele>
        <time>2025-06-19T10:55:14.514Z</time>
      </trkpt>
      <trkpt lat="49.09882" lon="2.20545">
        <ele>73.221401</ele>
        <time>2025-06-19T10:55:16.501Z</time>
      </trkpt>
      <trkpt lat="49.09873" lon="2.20541">
        <ele>73.197894</ele>
        <time>2025-06-19T10:55:18.501Z</time>
      </trkpt>
      <trkpt lat="49.09864" lon="2.20535">
        <ele>73.174559</ele>
        <time>2025-06-19T10:55:20.511Z</time>
      </trkpt>
      <trkpt lat="49.09855" lon="2.20529">
        <ele>73.150308</ele>
        <time>2025-06-19T10:55:22.507Z</time>
      </trkpt>
      <trkpt lat="49.09846" lon="2.20522">
        <ele>73.125959</ele>
        <time>2025-06-19T10:55:24.493Z</time>
      </trkpt>
      <trkpt lat="49.09837" lon="2.20515">
        <ele>73.102879</ele>
        <time>2025-06-19T10:55:26.511Z</time>
      </trkpt>
      <trkpt lat="49.09828" lon="2.20511">
        <ele>73.079198</ele>
        <time>2025-06-19T10:55:28.504Z</time>
      </trkpt>
      <trkpt lat="49.09814" lon="2.20508">
        <ele>73.045756</ele>
        <time>2025-06-19T10:55:31.506Z</time>
      </trkpt>
      <trkpt lat="49.09805" lon="2.20506">
        <ele>73.022609</ele>
        <time>2025-06-19T10:55:33.493Z</time>
      </trkpt>
      <trkpt lat="49.09792" lon="2.20497">
        <ele>72.989304</ele>
        <time>2025-06-19T10:55:36.490Z</time>
      </trkpt>
      <trkpt lat="49.09783" lon="2.20493">
        <ele>72.989488</ele>
        <time>2025-06-19T10:55:38.504Z</time>
      </trkpt>
      <trkpt lat="49.09771" lon="2.20487">
        <ele>73.023556</ele>
        <time>2025-06-19T10:55:41.502Z</time>
      </trkpt>
      <trkpt lat="49.09758" lon="2.20481">
        <ele>73.057036</ele>
        <time>2025-06-19T10:55:44.498Z</time>
      </trkpt>
      <trkpt lat="49.09748" lon="2.20478">
        <ele>73.082355</ele>
        <time>2025-06-19T10:55:46.490Z</time>
      </trkpt>
      <trkpt lat="49.09736" lon="2.2047">
        <ele>73.115227</ele>
        <time>2025-06-19T10:55:49.500Z</time>
      </trkpt>
      <trkpt lat="49.09728" lon="2.20463">
        <ele>73.139443</ele>
        <time>2025-06-19T10:55:51.514Z</time>
      </trkpt>
      <trkpt lat="49.0972" lon="2.20456">
        <ele>73.16324</ele>
        <time>2025-06-19T10:55:53.502Z</time>
      </trkpt>
      <trkpt lat="49.09711" lon="2.20451">
        <ele>73.18834</ele>
        <time>2025-06-19T10:55:55.495Z</time>
      </trkpt>
      <trkpt lat="49.09702" lon="2.2045">
        <ele>73.211659</ele>
        <time>2025-06-19T10:55:57.502Z</time>
      </trkpt>
      <trkpt lat="49.09688" lon="2.20447">
        <ele>73.247387</ele>
        <time>2025-06-19T10:56:00.500Z</time>
      </trkpt>
      <trkpt lat="49.09678" lon="2.20445">
        <ele>73.273045</ele>
        <time>2025-06-19T10:56:02.500Z</time>
      </trkpt>
      <trkpt lat="49.0967" lon="2.20437">
        <ele>73.296436</ele>
        <time>2025-06-19T10:56:06.518Z</time>
      </trkpt>
      <trkpt lat="49.09664" lon="2.20427">
        <ele>73.319564</ele>
        <time>2025-06-19T10:56:11.489Z</time>
      </trkpt>
      <trkpt lat="49.09655" lon="2.2043">
        <ele>73.343154</ele>
        <time>2025-06-19T10:56:18.494Z</time>
      </trkpt>
      <trkpt lat="49.09645" lon="2.20426">
        <ele>73.369941</ele>
        <time>2025-06-19T10:56:25.496Z</time>
      </trkpt>
      <trkpt lat="49.09632" lon="2.20424">
        <ele>73.40172</ele>
        <time>2025-06-19T10:56:29.497Z</time>
      </trkpt>
      <trkpt lat="49.09622" lon="2.20418">
        <ele>73.42937</ele>
        <time>2025-06-19T10:56:32.499Z</time>
      </trkpt>
      <trkpt lat="49.09612" lon="2.20411">
        <ele>73.384626</ele>
        <time>2025-06-19T10:56:35.499Z</time>
      </trkpt>
      <trkpt lat="49.09603" lon="2.20404">
        <ele>73.316917</ele>
        <time>2025-06-19T10:56:38.498Z</time>
      </trkpt>
      <trkpt lat="49.09596" lon="2.20392">
        <ele>73.244736</ele>
        <time>2025-06-19T10:56:41.489Z</time>
      </trkpt>
      <trkpt lat="49.09595" lon="2.20375">
        <ele>73.16893</ele>
        <time>2025-06-19T10:56:44.500Z</time>
      </trkpt>
      <trkpt lat="49.09596" lon="2.20358">
        <ele>73.094898</ele>
        <time>2025-06-19T10:56:47.496Z</time>
      </trkpt>
      <trkpt lat="49.09594" lon="2.20372">
        <ele>73.034245</ele>
        <time>2025-06-19T10:57:00.502Z</time>
      </trkpt>
      <trkpt lat="49.09594" lon="2.20389">
        <ele>72.957944</ele>
        <time>2025-06-19T10:57:03.514Z</time>
      </trkpt>
      <trkpt lat="49.09601" lon="2.20404">
        <ele>72.877289</ele>
        <time>2025-06-19T10:57:06.491Z</time>
      </trkpt>
      <trkpt lat="49.09612" lon="2.20413">
        <ele>72.791407</ele>
        <time>2025-06-19T10:57:09.498Z</time>
      </trkpt>
      <trkpt lat="49.09624" lon="2.2042">
        <ele>72.703946</ele>
        <time>2025-06-19T10:57:12.498Z</time>
      </trkpt>
      <trkpt lat="49.09637" lon="2.20425">
        <ele>72.617053</ele>
        <time>2025-06-19T10:57:15.508Z</time>
      </trkpt>
      <trkpt lat="49.09649" lon="2.20426">
        <ele>72.534694</ele>
        <time>2025-06-19T10:57:18.501Z</time>
      </trkpt>
      <trkpt lat="49.09657" lon="2.20434">
        <ele>72.474247</ele>
        <time>2025-06-19T10:57:34.503Z</time>
      </trkpt>
      <trkpt lat="49.09656" lon="2.20449">
        <ele>72.409367</ele>
        <time>2025-06-19T10:57:38.504Z</time>
      </trkpt>
      <trkpt lat="49.09656" lon="2.20463">
        <ele>72.346844</ele>
        <time>2025-06-19T10:57:43.506Z</time>
      </trkpt>
      <trkpt lat="49.09647" lon="2.2047">
        <ele>72.282672</ele>
        <time>2025-06-19T10:58:02.502Z</time>
      </trkpt>
      <trkpt lat="49.09638" lon="2.20465">
        <ele>72.230513</ele>
        <time>2025-06-19T10:58:05.493Z</time>
      </trkpt>
      <trkpt lat="49.09629" lon="2.2046">
        <ele>72.243617</ele>
        <time>2025-06-19T10:58:07.499Z</time>
      </trkpt>
      <trkpt lat="49.0962" lon="2.20454">
        <ele>72.257189</ele>
        <time>2025-06-19T10:58:09.496Z</time>
      </trkpt>
      <trkpt lat="49.09611" lon="2.20449">
        <ele>72.271194</ele>
        <time>2025-06-19T10:58:11.496Z</time>
      </trkpt>
      <trkpt lat="49.09602" lon="2.20443">
        <ele>72.285934</ele>
        <time>2025-06-19T10:58:13.499Z</time>
      </trkpt>
      <trkpt lat="49.09592" lon="2.20438">
        <ele>72.301293</ele>
        <time>2025-06-19T10:58:15.498Z</time>
      </trkpt>
      <trkpt lat="49.09581" lon="2.20433">
        <ele>72.316925</ele>
        <time>2025-06-19T10:58:17.497Z</time>
      </trkpt>
      <trkpt lat="49.09571" lon="2.20428">
        <ele>72.332178</ele>
        <time>2025-06-19T10:58:19.496Z</time>
      </trkpt>
      <trkpt lat="49.0956" lon="2.20423">
        <ele>72.348054</ele>
        <time>2025-06-19T10:58:21.499Z</time>
      </trkpt>
      <trkpt lat="49.0955" lon="2.20417">
        <ele>72.364317</ele>
        <time>2025-06-19T10:58:23.495Z</time>
      </trkpt>
      <trkpt lat="49.09539" lon="2.20412">
        <ele>72.380631</ele>
        <time>2025-06-19T10:58:25.495Z</time>
      </trkpt>
      <trkpt lat="49.09528" lon="2.20407">
        <ele>72.396564</ele>
        <time>2025-06-19T10:58:27.507Z</time>
      </trkpt>
      <trkpt lat="49.09518" lon="2.20402">
        <ele>72.411321</ele>
        <time>2025-06-19T10:58:29.498Z</time>
      </trkpt>
      <trkpt lat="49.09509" lon="2.20397">
        <ele>72.426263</ele>
        <time>2025-06-19T10:58:31.504Z</time>
      </trkpt>
      <trkpt lat="49.09499" lon="2.20393">
        <ele>72.440918</ele>
        <time>2025-06-19T10:58:33.494Z</time>
      </trkpt>
      <trkpt lat="49.09489" lon="2.20388">
        <ele>72.455425</ele>
        <time>2025-06-19T10:58:35.492Z</time>
      </trkpt>
      <trkpt lat="49.09479" lon="2.20383">
        <ele>72.470106</ele>
        <time>2025-06-19T10:58:37.504Z</time>
      </trkpt>
      <trkpt lat="49.09469" lon="2.20379">
        <ele>72.484935</ele>
        <time>2025-06-19T10:58:39.505Z</time>
      </trkpt>
      <trkpt lat="49.09459" lon="2.20374">
        <ele>72.487418</ele>
        <time>2025-06-19T10:58:41.500Z</time>
      </trkpt>
      <trkpt lat="49.09448" lon="2.20369">
        <ele>72.490074</ele>
        <time>2025-06-19T10:58:43.497Z</time>
      </trkpt>
      <trkpt lat="49.09439" lon="2.20365">
        <ele>72.492393</ele>
        <time>2025-06-19T10:58:45.495Z</time>
      </trkpt>
      <trkpt lat="49.09428" lon="2.20356">
        <ele>72.495268</ele>
        <time>2025-06-19T10:58:48.498Z</time>
      </trkpt>
      <trkpt lat="49.09419" lon="2.20353">
        <ele>72.497611</ele>
        <time>2025-06-19T10:58:50.501Z</time>
      </trkpt>
      <trkpt lat="49.09408" lon="2.20349">
        <ele>72.500245</ele>
        <time>2025-06-19T10:58:53.497Z</time>
      </trkpt>
      <trkpt lat="49.09397" lon="2.20342">
        <ele>72.50306</ele>
        <time>2025-06-19T10:58:56.488Z</time>
      </trkpt>
      <trkpt lat="49.09387" lon="2.20336">
        <ele>72.505672</ele>
        <time>2025-06-19T10:58:59.509Z</time>
      </trkpt>
      <trkpt lat="49.09376" lon="2.2033">
        <ele>72.508311</ele>
        <time>2025-06-19T10:59:01.504Z</time>
      </trkpt>
      <trkpt lat="49.09367" lon="2.20324">
        <ele>72.510761</ele>
        <time>2025-06-19T10:59:03.499Z</time>
      </trkpt>
      <trkpt lat="49.09356" lon="2.20319">
        <ele>72.513399</ele>
        <time>2025-06-19T10:59:05.496Z</time>
      </trkpt>
      <trkpt lat="49.09346" lon="2.20316">
        <ele>72.515816</ele>
        <time>2025-06-19T10:59:07.506Z</time>
      </trkpt>
      <trkpt lat="49.09333" lon="2.20309">
        <ele>72.519093</ele>
        <time>2025-06-19T10:59:10.486Z</time>
      </trkpt>
      <trkpt lat="49.09321" lon="2.20302">
        <ele>72.522303</ele>
        <time>2025-06-19T10:59:13.504Z</time>
      </trkpt>
      <trkpt lat="49.09312" lon="2.20298">
        <ele>72.524536</ele>
        <time>2025-06-19T10:59:15.505Z</time>
      </trkpt>
      <trkpt lat="49.09299" lon="2.20291">
        <ele>72.521552</ele>
        <time>2025-06-19T10:59:18.503Z</time>
      </trkpt>
      <trkpt lat="49.09287" lon="2.20285">
        <ele>72.368762</ele>
        <time>2025-06-19T10:59:21.498Z</time>
      </trkpt>
      <trkpt lat="49.09274" lon="2.20278">
        <ele>72.204592</ele>
        <time>2025-06-19T10:59:24.487Z</time>
      </trkpt>
      <trkpt lat="49.09262" lon="2.20271">
        <ele>72.045478</ele>
        <time>2025-06-19T10:59:27.509Z</time>
      </trkpt>
      <trkpt lat="49.09251" lon="2.20266">
        <ele>71.90824</ele>
        <time>2025-06-19T10:59:30.501Z</time>
      </trkpt>
      <trkpt lat="49.0924" lon="2.20269">
        <ele>71.769745</ele>
        <time>2025-06-19T10:59:33.500Z</time>
      </trkpt>
      <trkpt lat="49.09229" lon="2.20271">
        <ele>71.62779</ele>
        <time>2025-06-19T10:59:36.497Z</time>
      </trkpt>
      <trkpt lat="49.09217" lon="2.20274">
        <ele>71.48245</ele>
        <time>2025-06-19T10:59:39.494Z</time>
      </trkpt>
      <trkpt lat="49.0921" lon="2.20282">
        <ele>71.368782</ele>
        <time>2025-06-19T10:59:41.494Z</time>
      </trkpt>
      <trkpt lat="49.09203" lon="2.20292">
        <ele>71.255375</ele>
        <time>2025-06-19T10:59:43.499Z</time>
      </trkpt>
      <trkpt lat="49.09195" lon="2.20301">
        <ele>71.138883</ele>
        <time>2025-06-19T10:59:45.491Z</time>
      </trkpt>
      <trkpt lat="49.09188" lon="2.20309">
        <ele>71.027592</ele>
        <time>2025-06-19T10:59:47.513Z</time>
      </trkpt>
      <trkpt lat="49.0918" lon="2.20318">
        <ele>70.90769</ele>
        <time>2025-06-19T10:59:49.494Z</time>
      </trkpt>
      <trkpt lat="49.09172" lon="2.20325">
        <ele>70.795244</ele>
        <time>2025-06-19T10:59:51.495Z</time>
      </trkpt>
      <trkpt lat="49.09163" lon="2.2033">
        <ele>70.678175</ele>
        <time>2025-06-19T10:59:53.502Z</time>
      </trkpt>
      <trkpt lat="49.09153" lon="2.20327">
        <ele>70.547447</ele>
        <time>2025-06-19T10:59:55.502Z</time>
      </trkpt>
      <trkpt lat="49.09142" lon="2.20321">
        <ele>70.407818</ele>
        <time>2025-06-19T10:59:57.494Z</time>
      </trkpt>
      <trkpt lat="49.09131" lon="2.20315">
        <ele>70.335203</ele>
        <time>2025-06-19T10:59:59.507Z</time>
      </trkpt>
      <trkpt lat="49.09119" lon="2.2031">
        <ele>70.370831</ele>
        <time>2025-06-19T11:00:01.501Z</time>
      </trkpt>
      <trkpt lat="49.09108" lon="2.20304">
        <ele>70.404719</ele>
        <time>2025-06-19T11:00:03.501Z</time>
      </trkpt>
      <trkpt lat="49.09097" lon="2.20299">
        <ele>70.438343</ele>
        <time>2025-06-19T11:00:05.499Z</time>
      </trkpt>
      <trkpt lat="49.09086" lon="2.20294">
        <ele>70.470829</ele>
        <time>2025-06-19T11:00:07.501Z</time>
      </trkpt>
      <trkpt lat="49.09076" lon="2.20289">
        <ele>70.501168</ele>
        <time>2025-06-19T11:00:09.484Z</time>
      </trkpt>
      <trkpt lat="49.09067" lon="2.20286">
        <ele>70.527536</ele>
        <time>2025-06-19T11:00:11.499Z</time>
      </trkpt>
      <trkpt lat="49.09058" lon="2.20282">
        <ele>70.554788</ele>
        <time>2025-06-19T11:00:13.498Z</time>
      </trkpt>
      <trkpt lat="49.09049" lon="2.20277">
        <ele>70.582975</ele>
        <time>2025-06-19T11:00:15.490Z</time>
      </trkpt>
      <trkpt lat="49.09039" lon="2.20274">
        <ele>70.612192</ele>
        <time>2025-06-19T11:00:17.506Z</time>
      </trkpt>
      <trkpt lat="49.09028" lon="2.20269">
        <ele>70.644652</ele>
        <time>2025-06-19T11:00:19.495Z</time>
      </trkpt>
      <trkpt lat="49.09017" lon="2.20265">
        <ele>70.677717</ele>
        <time>2025-06-19T11:00:21.495Z</time>
      </trkpt>
      <trkpt lat="49.09006" lon="2.2026">
        <ele>70.710533</ele>
        <time>2025-06-19T11:00:23.492Z</time>
      </trkpt>
      <trkpt lat="49.08995" lon="2.20256">
        <ele>70.743613</ele>
        <time>2025-06-19T11:00:25.499Z</time>
      </trkpt>
      <trkpt lat="49.08984" lon="2.20252">
        <ele>70.775421</ele>
        <time>2025-06-19T11:00:27.495Z</time>
      </trkpt>
      <trkpt lat="49.08973" lon="2.20248">
        <ele>70.808502</ele>
        <time>2025-06-19T11:00:29.488Z</time>
      </trkpt>
      <trkpt lat="49.08962" lon="2.20244">
        <ele>70.839851</ele>
        <time>2025-06-19T11:00:31.493Z</time>
      </trkpt>
      <trkpt lat="49.0895" lon="2.20241">
        <ele>70.824476</ele>
        <time>2025-06-19T11:00:33.498Z</time>
      </trkpt>
      <trkpt lat="49.0894" lon="2.20237">
        <ele>70.809546</ele>
        <time>2025-06-19T11:00:35.504Z</time>
      </trkpt>
      <trkpt lat="49.08929" lon="2.20234">
        <ele>70.79515</ele>
        <time>2025-06-19T11:00:37.503Z</time>
      </trkpt>
      <trkpt lat="49.08919" lon="2.20231">
        <ele>70.78134</ele>
        <time>2025-06-19T11:00:39.507Z</time>
      </trkpt>
      <trkpt lat="49.08909" lon="2.20228">
        <ele>70.767096</ele>
        <time>2025-06-19T11:00:41.491Z</time>
      </trkpt>
      <trkpt lat="49.08899" lon="2.20226">
        <ele>70.753824</ele>
        <time>2025-06-19T11:00:43.484Z</time>
      </trkpt>
      <trkpt lat="49.0889" lon="2.20223">
        <ele>70.740677</ele>
        <time>2025-06-19T11:00:45.504Z</time>
      </trkpt>
      <trkpt lat="49.08881" lon="2.2022">
        <ele>70.728228</ele>
        <time>2025-06-19T11:00:47.498Z</time>
      </trkpt>
      <trkpt lat="49.08869" lon="2.20215">
        <ele>70.711941</ele>
        <time>2025-06-19T11:00:50.492Z</time>
      </trkpt>
      <trkpt lat="49.08856" lon="2.20211">
        <ele>70.694316</ele>
        <time>2025-06-19T11:00:53.495Z</time>
      </trkpt>
      <trkpt lat="49.08845" lon="2.20208">
        <ele>70.67826</ele>
        <time>2025-06-19T11:00:56.489Z</time>
      </trkpt>
      <trkpt lat="49.08833" lon="2.20204">
        <ele>70.662372</ele>
        <time>2025-06-19T11:00:59.500Z</time>
      </trkpt>
      <trkpt lat="49.08822" lon="2.20201">
        <ele>70.647165</ele>
        <time>2025-06-19T11:01:02.483Z</time>
      </trkpt>
      <trkpt lat="49.08812" lon="2.20198">
        <ele>70.633715</ele>
        <time>2025-06-19T11:01:05.496Z</time>
      </trkpt>
      <trkpt lat="49.08803" lon="2.20193">
        <ele>70.619785</ele>
        <time>2025-06-19T11:01:08.500Z</time>
      </trkpt>
      <trkpt lat="49.08791" lon="2.20189">
        <ele>70.604066</ele>
        <time>2025-06-19T11:01:11.489Z</time>
      </trkpt>
      <trkpt lat="49.08781" lon="2.20185">
        <ele>70.595527</ele>
        <time>2025-06-19T11:01:15.500Z</time>
      </trkpt>
      <trkpt lat="49.08771" lon="2.20183">
        <ele>70.593008</ele>
        <time>2025-06-19T11:01:20.497Z</time>
      </trkpt>
      <trkpt lat="49.08761" lon="2.20182">
        <ele>70.590387</ele>
        <time>2025-06-19T11:01:24.498Z</time>
      </trkpt>
      <trkpt lat="49.0875" lon="2.20176">
        <ele>70.587572</ele>
        <time>2025-06-19T11:01:28.505Z</time>
      </trkpt>
      <trkpt lat="49.0874" lon="2.20171">
        <ele>70.584895</ele>
        <time>2025-06-19T11:01:31.519Z</time>
      </trkpt>
      <trkpt lat="49.08729" lon="2.20167">
        <ele>70.582021</ele>
        <time>2025-06-19T11:01:35.496Z</time>
      </trkpt>
      <trkpt lat="49.08718" lon="2.20164">
        <ele>70.579317</ele>
        <time>2025-06-19T11:01:39.500Z</time>
      </trkpt>
      <trkpt lat="49.08708" lon="2.20162">
        <ele>70.576785</ele>
        <time>2025-06-19T11:01:44.490Z</time>
      </trkpt>
      <trkpt lat="49.08696" lon="2.20149">
        <ele>70.572929</ele>
        <time>2025-06-19T11:02:06.497Z</time>
      </trkpt>
      <trkpt lat="49.08686" lon="2.2014">
        <ele>70.570131</ele>
        <time>2025-06-19T11:02:10.497Z</time>
      </trkpt>
      <trkpt lat="49.08675" lon="2.20144">
        <ele>70.567188</ele>
        <time>2025-06-19T11:02:14.495Z</time>
      </trkpt>
      <trkpt lat="49.08664" lon="2.2015">
        <ele>70.56429</ele>
        <time>2025-06-19T11:02:17.504Z</time>
      </trkpt>
      <trkpt lat="49.08653" lon="2.20158">
        <ele>70.561193</ele>
        <time>2025-06-19T11:02:20.505Z</time>
      </trkpt>
      <trkpt lat="49.08642" lon="2.20168">
        <ele>70.557876</ele>
        <time>2025-06-19T11:02:23.502Z</time>
      </trkpt>
      <trkpt lat="49.08633" lon="2.20174">
        <ele>70.555537</ele>
        <time>2025-06-19T11:02:25.500Z</time>
      </trkpt>
      <trkpt lat="49.08622" lon="2.20184">
        <ele>70.552269</ele>
        <time>2025-06-19T11:02:28.494Z</time>
      </trkpt>
      <trkpt lat="49.08612" lon="2.20194">
        <ele>70.678584</ele>
        <time>2025-06-19T11:02:31.504Z</time>
      </trkpt>
      <trkpt lat="49.086" lon="2.20203">
        <ele>70.862386</ele>
        <time>2025-06-19T11:02:34.497Z</time>
      </trkpt>
      <trkpt lat="49.08591" lon="2.20213">
        <ele>71.021587</ele>
        <time>2025-06-19T11:02:36.485Z</time>
      </trkpt>
      <trkpt lat="49.08582" lon="2.20222">
        <ele>71.172462</ele>
        <time>2025-06-19T11:02:38.509Z</time>
      </trkpt>
      <trkpt lat="49.08574" lon="2.20232">
        <ele>71.322539</ele>
        <time>2025-06-19T11:02:40.498Z</time>
      </trkpt>
      <trkpt lat="49.08566" lon="2.20242">
        <ele>71.46428</ele>
        <time>2025-06-19T11:02:42.495Z</time>
      </trkpt>
      <trkpt lat="49.08557" lon="2.20252">
        <ele>71.616604</ele>
        <time>2025-06-19T11:02:44.505Z</time>
      </trkpt>
      <trkpt lat="49.08548" lon="2.20263">
        <ele>71.771954</ele>
        <time>2025-06-19T11:02:46.494Z</time>
      </trkpt>
      <trkpt lat="49.08541" lon="2.20272">
        <ele>71.908202</ele>
        <time>2025-06-19T11:02:48.505Z</time>
      </trkpt>
      <trkpt lat="49.08534" lon="2.20284">
        <ele>72.052391</ele>
        <time>2025-06-19T11:02:50.503Z</time>
      </trkpt>
      <trkpt lat="49.08527" lon="2.20295">
        <ele>72.193635</ele>
        <time>2025-06-19T11:02:52.502Z</time>
      </trkpt>
      <trkpt lat="49.0852" lon="2.20306">
        <ele>72.33033</ele>
        <time>2025-06-19T11:02:54.499Z</time>
      </trkpt>
      <trkpt lat="49.08513" lon="2.20316">
        <ele>72.465096</ele>
        <time>2025-06-19T11:02:56.488Z</time>
      </trkpt>
      <trkpt lat="49.08506" lon="2.20325">
        <ele>72.591408</ele>
        <time>2025-06-19T11:02:58.498Z</time>
      </trkpt>
      <trkpt lat="49.08499" lon="2.20337">
        <ele>72.733029</ele>
        <time>2025-06-19T11:03:00.505Z</time>
      </trkpt>
      <trkpt lat="49.08492" lon="2.20347">
        <ele>72.866124</ele>
        <time>2025-06-19T11:03:02.496Z</time>
      </trkpt>
      <trkpt lat="49.08484" lon="2.20362">
        <ele>73.049674</ele>
        <time>2025-06-19T11:03:05.499Z</time>
      </trkpt>
      <trkpt lat="49.08475" lon="2.20377">
        <ele>73.179274</ele>
        <time>2025-06-19T11:03:08.480Z</time>
      </trkpt>
      <trkpt lat="49.08468" lon="2.2039">
        <ele>73.294698</ele>
        <time>2025-06-19T11:03:11.499Z</time>
      </trkpt>
      <trkpt lat="49.08461" lon="2.20404">
        <ele>73.412404</ele>
        <time>2025-06-19T11:03:14.496Z</time>
      </trkpt>
      <trkpt lat="49.08454" lon="2.20418">
        <ele>73.526264</ele>
        <time>2025-06-19T11:03:17.492Z</time>
      </trkpt>
      <trkpt lat="49.08447" lon="2.20433">
        <ele>73.649225</ele>
        <time>2025-06-19T11:03:20.491Z</time>
      </trkpt>
      <trkpt lat="49.08439" lon="2.20447">
        <ele>73.770329</ele>
        <time>2025-06-19T11:03:23.502Z</time>
      </trkpt>
      <trkpt lat="49.08431" lon="2.20463">
        <ele>73.899302</ele>
        <time>2025-06-19T11:03:26.498Z</time>
      </trkpt>
      <trkpt lat="49.08424" lon="2.20478">
        <ele>74.024775</ele>
        <time>2025-06-19T11:03:29.493Z</time>
      </trkpt>
      <trkpt lat="49.08418" lon="2.20493">
        <ele>74.138489</ele>
        <time>2025-06-19T11:03:32.511Z</time>
      </trkpt>
      <trkpt lat="49.08412" lon="2.2051">
        <ele>74.269775</ele>
        <time>2025-06-19T11:03:35.487Z</time>
      </trkpt>
      <trkpt lat="49.08406" lon="2.20529">
        <ele>74.406204</ele>
        <time>2025-06-19T11:03:38.490Z</time>
      </trkpt>
      <trkpt lat="49.084" lon="2.20541">
        <ele>74.505663</ele>
        <time>2025-06-19T11:03:40.493Z</time>
      </trkpt>
      <trkpt lat="49.08394" lon="2.20555">
        <ele>74.614327</ele>
        <time>2025-06-19T11:03:42.504Z</time>
      </trkpt>
      <trkpt lat="49.08387" lon="2.20569">
        <ele>74.72941</ele>
        <time>2025-06-19T11:03:44.486Z</time>
      </trkpt>
      <trkpt lat="49.0838" lon="2.20582">
        <ele>74.844595</ele>
        <time>2025-06-19T11:03:46.512Z</time>
      </trkpt>
      <trkpt lat="49.08374" lon="2.20594">
        <ele>74.841698</ele>
        <time>2025-06-19T11:03:48.502Z</time>
      </trkpt>
      <trkpt lat="49.08366" lon="2.20609">
        <ele>74.796446</ele>
        <time>2025-06-19T11:03:51.514Z</time>
      </trkpt>
      <trkpt lat="49.08357" lon="2.20622">
        <ele>74.753419</ele>
        <time>2025-06-19T11:03:54.497Z</time>
      </trkpt>
      <trkpt lat="49.08347" lon="2.2062">
        <ele>74.718609</ele>
        <time>2025-06-19T11:03:56.487Z</time>
      </trkpt>
      <trkpt lat="49.08338" lon="2.20616">
        <ele>74.684722</ele>
        <time>2025-06-19T11:03:58.495Z</time>
      </trkpt>
      <trkpt lat="49.08327" lon="2.20612">
        <ele>74.646203</ele>
        <time>2025-06-19T11:04:00.497Z</time>
      </trkpt>
      <trkpt lat="49.08316" lon="2.2061">
        <ele>74.606801</ele>
        <time>2025-06-19T11:04:02.492Z</time>
      </trkpt>
      <trkpt lat="49.08305" lon="2.2061">
        <ele>74.568644</ele>
        <time>2025-06-19T11:04:04.492Z</time>
      </trkpt>
      <trkpt lat="49.08295" lon="2.2061">
        <ele>74.531911</ele>
        <time>2025-06-19T11:04:06.490Z</time>
      </trkpt>
      <trkpt lat="49.08285" lon="2.20609">
        <ele>74.496579</ele>
        <time>2025-06-19T11:04:08.504Z</time>
      </trkpt>
      <trkpt lat="49.08275" lon="2.20611">
        <ele>74.460407</ele>
        <time>2025-06-19T11:04:10.511Z</time>
      </trkpt>
      <trkpt lat="49.08265" lon="2.20612">
        <ele>74.426084</ele>
        <time>2025-06-19T11:04:12.499Z</time>
      </trkpt>
      <trkpt lat="49.08256" lon="2.20614">
        <ele>74.392301</ele>
        <time>2025-06-19T11:04:14.507Z</time>
      </trkpt>
      <trkpt lat="49.08246" lon="2.20615">
        <ele>74.359003</ele>
        <time>2025-06-19T11:04:16.500Z</time>
      </trkpt>
      <trkpt lat="49.08237" lon="2.20616">
        <ele>74.325436</ele>
        <time>2025-06-19T11:04:18.496Z</time>
      </trkpt>
      <trkpt lat="49.08227" lon="2.20617">
        <ele>74.291044</ele>
        <time>2025-06-19T11:04:20.505Z</time>
      </trkpt>
      <trkpt lat="49.08218" lon="2.20619">
        <ele>74.25834</ele>
        <time>2025-06-19T11:04:22.498Z</time>
      </trkpt>
      <trkpt lat="49.08206" lon="2.2062">
        <ele>74.328508</ele>
        <time>2025-06-19T11:04:25.501Z</time>
      </trkpt>
      <trkpt lat="49.08195" lon="2.20617">
        <ele>74.53913</ele>
        <time>2025-06-19T11:04:28.503Z</time>
      </trkpt>
      <trkpt lat="49.08183" lon="2.20613">
        <ele>74.774665</ele>
        <time>2025-06-19T11:04:31.518Z</time>
      </trkpt>
      <trkpt lat="49.0817" lon="2.20621">
        <ele>75.03389</ele>
        <time>2025-06-19T11:04:34.495Z</time>
      </trkpt>
      <trkpt lat="49.08161" lon="2.20623">
        <ele>75.207505</ele>
        <time>2025-06-19T11:04:36.498Z</time>
      </trkpt>
      <trkpt lat="49.08151" lon="2.20624">
        <ele>75.41203</ele>
        <time>2025-06-19T11:04:38.485Z</time>
      </trkpt>
      <trkpt lat="49.08139" lon="2.20622">
        <ele>75.62476</ele>
        <time>2025-06-19T11:04:40.495Z</time>
      </trkpt>
      <trkpt lat="49.08128" lon="2.20621">
        <ele>75.83616</ele>
        <time>2025-06-19T11:04:42.494Z</time>
      </trkpt>
      <trkpt lat="49.08118" lon="2.20618">
        <ele>76.029046</ele>
        <time>2025-06-19T11:04:44.500Z</time>
      </trkpt>
      <trkpt lat="49.08109" lon="2.20616">
        <ele>76.21018</ele>
        <time>2025-06-19T11:04:46.490Z</time>
      </trkpt>
      <trkpt lat="49.08096" lon="2.20611">
        <ele>76.466762</ele>
        <time>2025-06-19T11:04:49.497Z</time>
      </trkpt>
      <trkpt lat="49.08087" lon="2.20607">
        <ele>76.653231</ele>
        <time>2025-06-19T11:04:51.491Z</time>
      </trkpt>
      <trkpt lat="49.08078" lon="2.20604">
        <ele>76.827128</ele>
        <time>2025-06-19T11:04:53.504Z</time>
      </trkpt>
      <trkpt lat="49.08069" lon="2.20602">
        <ele>77.003385</ele>
        <time>2025-06-19T11:04:55.493Z</time>
      </trkpt>
      <trkpt lat="49.08059" lon="2.20599">
        <ele>77.183416</ele>
        <time>2025-06-19T11:04:57.492Z</time>
      </trkpt>
      <trkpt lat="49.0805" lon="2.20595">
        <ele>77.362437</ele>
        <time>2025-06-19T11:04:59.505Z</time>
      </trkpt>
      <trkpt lat="49.08038" lon="2.2059">
        <ele>77.61522</ele>
        <time>2025-06-19T11:05:02.497Z</time>
      </trkpt>
      <trkpt lat="49.08025" lon="2.20584">
        <ele>77.788401</ele>
        <time>2025-06-19T11:05:05.497Z</time>
      </trkpt>
      <trkpt lat="49.08015" lon="2.2058">
        <ele>77.897786</ele>
        <time>2025-06-19T11:05:07.498Z</time>
      </trkpt>
      <trkpt lat="49.08006" lon="2.20577">
        <ele>78.002828</ele>
        <time>2025-06-19T11:05:09.504Z</time>
      </trkpt>
      <trkpt lat="49.07997" lon="2.20571">
        <ele>78.116691</ele>
        <time>2025-06-19T11:05:11.506Z</time>
      </trkpt>
      <trkpt lat="49.07988" lon="2.20565">
        <ele>78.229932</ele>
        <time>2025-06-19T11:05:13.495Z</time>
      </trkpt>
      <trkpt lat="49.07977" lon="2.2056">
        <ele>78.353036</ele>
        <time>2025-06-19T11:05:15.496Z</time>
      </trkpt>
      <trkpt lat="49.07966" lon="2.20555">
        <ele>78.480953</ele>
        <time>2025-06-19T11:05:17.505Z</time>
      </trkpt>
      <trkpt lat="49.07956" lon="2.20551">
        <ele>78.601469</ele>
        <time>2025-06-19T11:05:19.499Z</time>
      </trkpt>
      <trkpt lat="49.07947" lon="2.20547">
        <ele>78.708847</ele>
        <time>2025-06-19T11:05:21.503Z</time>
      </trkpt>
      <trkpt lat="49.07937" lon="2.20541">
        <ele>78.827611</ele>
        <time>2025-06-19T11:05:24.499Z</time>
      </trkpt>
      <trkpt lat="49.07927" lon="2.20536">
        <ele>78.945097</ele>
        <time>2025-06-19T11:05:27.499Z</time>
      </trkpt>
      <trkpt lat="49.07915" lon="2.20531">
        <ele>79.09056</ele>
        <time>2025-06-19T11:05:30.502Z</time>
      </trkpt>
      <trkpt lat="49.07901" lon="2.20524">
        <ele>79.246447</ele>
        <time>2025-06-19T11:05:33.499Z</time>
      </trkpt>
      <trkpt lat="49.07892" lon="2.2052">
        <ele>79.356624</ele>
        <time>2025-06-19T11:05:35.499Z</time>
      </trkpt>
      <trkpt lat="49.07883" lon="2.20516">
        <ele>79.46423</ele>
        <time>2025-06-19T11:05:37.500Z</time>
      </trkpt>
      <trkpt lat="49.07871" lon="2.20508">
        <ele>79.61434</ele>
        <time>2025-06-19T11:05:40.495Z</time>
      </trkpt>
      <trkpt lat="49.07862" lon="2.20503">
        <ele>79.648691</ele>
        <time>2025-06-19T11:05:42.498Z</time>
      </trkpt>
      <trkpt lat="49.07852" lon="2.20498">
        <ele>79.471955</ele>
        <time>2025-06-19T11:05:44.490Z</time>
      </trkpt>
      <trkpt lat="49.0784" lon="2.20488">
        <ele>79.216282</ele>
        <time>2025-06-19T11:05:47.492Z</time>
      </trkpt>
      <trkpt lat="49.07831" lon="2.20479">
        <ele>79.027493</ele>
        <time>2025-06-19T11:05:49.490Z</time>
      </trkpt>
      <trkpt lat="49.07821" lon="2.20471">
        <ele>78.828956</ele>
        <time>2025-06-19T11:05:51.496Z</time>
      </trkpt>
      <trkpt lat="49.07812" lon="2.20464">
        <ele>78.640479</ele>
        <time>2025-06-19T11:05:53.502Z</time>
      </trkpt>
      <trkpt lat="49.07802" lon="2.20456">
        <ele>78.445681</ele>
        <time>2025-06-19T11:05:55.490Z</time>
      </trkpt>
      <trkpt lat="49.07793" lon="2.20447">
        <ele>78.241158</ele>
        <time>2025-06-19T11:05:57.488Z</time>
      </trkpt>
      <trkpt lat="49.07783" lon="2.20439">
        <ele>78.049513</ele>
        <time>2025-06-19T11:05:59.489Z</time>
      </trkpt>
      <trkpt lat="49.07773" lon="2.20429">
        <ele>77.835783</ele>
        <time>2025-06-19T11:06:01.501Z</time>
      </trkpt>
      <trkpt lat="49.07763" lon="2.20419">
        <ele>77.615612</ele>
        <time>2025-06-19T11:06:03.491Z</time>
      </trkpt>
      <trkpt lat="49.07751" lon="2.20408">
        <ele>77.364998</ele>
        <time>2025-06-19T11:06:05.486Z</time>
      </trkpt>
      <trkpt lat="49.0774" lon="2.20395">
        <ele>77.1149</ele>
        <time>2025-06-19T11:06:07.490Z</time>
      </trkpt>
      <trkpt lat="49.07728" lon="2.20383">
        <ele>76.861298</ele>
        <time>2025-06-19T11:06:09.495Z</time>
      </trkpt>
      <trkpt lat="49.07718" lon="2.20371">
        <ele>76.619947</ele>
        <time>2025-06-19T11:06:11.492Z</time>
      </trkpt>
      <trkpt lat="49.07706" lon="2.20359">
        <ele>76.45394</ele>
        <time>2025-06-19T11:06:13.495Z</time>
      </trkpt>
      <trkpt lat="49.07695" lon="2.20346">
        <ele>76.432779</ele>
        <time>2025-06-19T11:06:15.490Z</time>
      </trkpt>
      <trkpt lat="49.07683" lon="2.20335">
        <ele>76.412215</ele>
        <time>2025-06-19T11:06:17.503Z</time>
      </trkpt>
      <trkpt lat="49.07672" lon="2.20323">
        <ele>76.391583</ele>
        <time>2025-06-19T11:06:19.494Z</time>
      </trkpt>
      <trkpt lat="49.07662" lon="2.20312">
        <ele>76.372293</ele>
        <time>2025-06-19T11:06:21.503Z</time>
      </trkpt>
      <trkpt lat="49.07651" lon="2.20303">
        <ele>76.353795</ele>
        <time>2025-06-19T11:06:23.493Z</time>
      </trkpt>
      <trkpt lat="49.07641" lon="2.20294">
        <ele>76.336101</ele>
        <time>2025-06-19T11:06:25.500Z</time>
      </trkpt>
      <trkpt lat="49.07631" lon="2.20284">
        <ele>76.318246</ele>
        <time>2025-06-19T11:06:27.492Z</time>
      </trkpt>
      <trkpt lat="49.07621" lon="2.20274">
        <ele>76.300559</ele>
        <time>2025-06-19T11:06:29.510Z</time>
      </trkpt>
      <trkpt lat="49.07611" lon="2.20264">
        <ele>76.282013</ele>
        <time>2025-06-19T11:06:31.491Z</time>
      </trkpt>
      <trkpt lat="49.07601" lon="2.20254">
        <ele>76.264643</ele>
        <time>2025-06-19T11:06:33.494Z</time>
      </trkpt>
      <trkpt lat="49.07593" lon="2.20244">
        <ele>76.248241</ele>
        <time>2025-06-19T11:06:35.504Z</time>
      </trkpt>
      <trkpt lat="49.07583" lon="2.20235">
        <ele>76.231151</ele>
        <time>2025-06-19T11:06:37.490Z</time>
      </trkpt>
      <trkpt lat="49.07575" lon="2.20222">
        <ele>76.213849</ele>
        <time>2025-06-19T11:06:39.496Z</time>
      </trkpt>
      <trkpt lat="49.07566" lon="2.20209">
        <ele>76.194989</ele>
        <time>2025-06-19T11:06:41.494Z</time>
      </trkpt>
      <trkpt lat="49.07557" lon="2.20197">
        <ele>76.177333</ele>
        <time>2025-06-19T11:06:43.492Z</time>
      </trkpt>
      <trkpt lat="49.07548" lon="2.20184">
        <ele>76.157864</ele>
        <time>2025-06-19T11:06:45.495Z</time>
      </trkpt>
      <trkpt lat="49.07538" lon="2.2017">
        <ele>76.13786</ele>
        <time>2025-06-19T11:06:47.504Z</time>
      </trkpt>
      <trkpt lat="49.07529" lon="2.20157">
        <ele>76.118637</ele>
        <time>2025-06-19T11:06:49.503Z</time>
      </trkpt>
      <trkpt lat="49.0752" lon="2.20143">
        <ele>76.098633</ele>
        <time>2025-06-19T11:06:51.499Z</time>
      </trkpt>
      <trkpt lat="49.0751" lon="2.20129">
        <ele>76.079232</ele>
        <time>2025-06-19T11:06:53.493Z</time>
      </trkpt>
      <trkpt lat="49.07501" lon="2.20117">
        <ele>76.060345</ele>
        <time>2025-06-19T11:06:55.498Z</time>
      </trkpt>
      <trkpt lat="49.07492" lon="2.20105">
        <ele>76.041886</ele>
        <time>2025-06-19T11:06:57.508Z</time>
      </trkpt>
      <trkpt lat="49.07484" lon="2.20093">
        <ele>76.024832</ele>
        <time>2025-06-19T11:06:59.502Z</time>
      </trkpt>
      <trkpt lat="49.07476" lon="2.20082">
        <ele>76.008655</ele>
        <time>2025-06-19T11:07:01.494Z</time>
      </trkpt>
      <trkpt lat="49.07469" lon="2.20071">
        <ele>75.993757</ele>
        <time>2025-06-19T11:07:03.501Z</time>
      </trkpt>
      <trkpt lat="49.07462" lon="2.2006">
        <ele>75.978005</ele>
        <time>2025-06-19T11:07:05.497Z</time>
      </trkpt>
      <trkpt lat="49.07454" lon="2.20048">
        <ele>75.961307</ele>
        <time>2025-06-19T11:07:07.507Z</time>
      </trkpt>
      <trkpt lat="49.07445" lon="2.20036">
        <ele>75.943854</ele>
        <time>2025-06-19T11:07:09.498Z</time>
      </trkpt>
      <trkpt lat="49.07436" lon="2.20024">
        <ele>75.925282</ele>
        <time>2025-06-19T11:07:11.495Z</time>
      </trkpt>
      <trkpt lat="49.07427" lon="2.20011">
        <ele>75.868768</ele>
        <time>2025-06-19T11:07:13.490Z</time>
      </trkpt>
      <trkpt lat="49.07418" lon="2.2">
        <ele>75.783103</ele>
        <time>2025-06-19T11:07:15.496Z</time>
      </trkpt>
      <trkpt lat="49.07409" lon="2.19987">
        <ele>75.692628</ele>
        <time>2025-06-19T11:07:17.492Z</time>
      </trkpt>
      <trkpt lat="49.07401" lon="2.19975">
        <ele>75.608038</ele>
        <time>2025-06-19T11:07:19.496Z</time>
      </trkpt>
      <trkpt lat="49.07393" lon="2.19964">
        <ele>75.528612</ele>
        <time>2025-06-19T11:07:21.492Z</time>
      </trkpt>
      <trkpt lat="49.07384" lon="2.19953">
        <ele>75.448118</ele>
        <time>2025-06-19T11:07:23.494Z</time>
      </trkpt>
      <trkpt lat="49.07377" lon="2.19941">
        <ele>75.366183</ele>
        <time>2025-06-19T11:07:25.498Z</time>
      </trkpt>
      <trkpt lat="49.07367" lon="2.19929">
        <ele>75.278696</ele>
        <time>2025-06-19T11:07:27.505Z</time>
      </trkpt>
      <trkpt lat="49.07359" lon="2.19917">
        <ele>75.193666</ele>
        <time>2025-06-19T11:07:29.501Z</time>
      </trkpt>
      <trkpt lat="49.07351" lon="2.19905">
        <ele>75.112389</ele>
        <time>2025-06-19T11:07:31.492Z</time>
      </trkpt>
      <trkpt lat="49.07342" lon="2.19894">
        <ele>75.025462</ele>
        <time>2025-06-19T11:07:33.495Z</time>
      </trkpt>
      <trkpt lat="49.07334" lon="2.19883">
        <ele>74.9472</ele>
        <time>2025-06-19T11:07:35.495Z</time>
      </trkpt>
      <trkpt lat="49.07326" lon="2.19871">
        <ele>74.86611</ele>
        <time>2025-06-19T11:07:37.492Z</time>
      </trkpt>
      <trkpt lat="49.07317" lon="2.19859">
        <ele>74.782587</ele>
        <time>2025-06-19T11:07:39.494Z</time>
      </trkpt>
      <trkpt lat="49.07308" lon="2.19848">
        <ele>74.698076</ele>
        <time>2025-06-19T11:07:41.488Z</time>
      </trkpt>
      <trkpt lat="49.073" lon="2.19837">
        <ele>74.619184</ele>
        <time>2025-06-19T11:07:43.493Z</time>
      </trkpt>
      <trkpt lat="49.07292" lon="2.19827">
        <ele>74.647811</ele>
        <time>2025-06-19T11:07:45.501Z</time>
      </trkpt>
      <trkpt lat="49.07283" lon="2.19816">
        <ele>74.704342</ele>
        <time>2025-06-19T11:07:47.500Z</time>
      </trkpt>
      <trkpt lat="49.07274" lon="2.19806">
        <ele>74.75845</ele>
        <time>2025-06-19T11:07:49.508Z</time>
      </trkpt>
      <trkpt lat="49.07266" lon="2.19796">
        <ele>74.812249</ele>
        <time>2025-06-19T11:07:51.495Z</time>
      </trkpt>
      <trkpt lat="49.07257" lon="2.19786">
        <ele>74.867373</ele>
        <time>2025-06-19T11:07:53.489Z</time>
      </trkpt>
      <trkpt lat="49.07249" lon="2.19775">
        <ele>74.923718</ele>
        <time>2025-06-19T11:07:55.491Z</time>
      </trkpt>
      <trkpt lat="49.07241" lon="2.19763">
        <ele>74.981977</ele>
        <time>2025-06-19T11:07:57.494Z</time>
      </trkpt>
      <trkpt lat="49.07232" lon="2.19752">
        <ele>75.041739</ele>
        <time>2025-06-19T11:07:59.489Z</time>
      </trkpt>
      <trkpt lat="49.07223" lon="2.19741">
        <ele>75.099752</ele>
        <time>2025-06-19T11:08:01.503Z</time>
      </trkpt>
      <trkpt lat="49.07214" lon="2.1973">
        <ele>75.156308</ele>
        <time>2025-06-19T11:08:03.495Z</time>
      </trkpt>
      <trkpt lat="49.07204" lon="2.19719">
        <ele>75.220001</ele>
        <time>2025-06-19T11:08:05.495Z</time>
      </trkpt>
      <trkpt lat="49.07194" lon="2.19709">
        <ele>75.281321</ele>
        <time>2025-06-19T11:08:07.491Z</time>
      </trkpt>
      <trkpt lat="49.07183" lon="2.197">
        <ele>75.342702</ele>
        <time>2025-06-19T11:08:09.488Z</time>
      </trkpt>
      <trkpt lat="49.07173" lon="2.19689">
        <ele>75.404342</ele>
        <time>2025-06-19T11:08:11.496Z</time>
      </trkpt>
      <trkpt lat="49.07164" lon="2.1968">
        <ele>75.461838</ele>
        <time>2025-06-19T11:08:13.488Z</time>
      </trkpt>
      <trkpt lat="49.07154" lon="2.19671">
        <ele>75.51595</ele>
        <time>2025-06-19T11:08:15.494Z</time>
      </trkpt>
      <trkpt lat="49.07144" lon="2.19662">
        <ele>75.498111</ele>
        <time>2025-06-19T11:08:17.505Z</time>
      </trkpt>
      <trkpt lat="49.07133" lon="2.19653">
        <ele>75.47885</ele>
        <time>2025-06-19T11:08:19.502Z</time>
      </trkpt>
      <trkpt lat="49.07122" lon="2.19644">
        <ele>75.460035</ele>
        <time>2025-06-19T11:08:21.504Z</time>
      </trkpt>
      <trkpt lat="49.0711" lon="2.19635">
        <ele>75.440952</ele>
        <time>2025-06-19T11:08:23.499Z</time>
      </trkpt>
      <trkpt lat="49.071" lon="2.19627">
        <ele>75.424094</ele>
        <time>2025-06-19T11:08:25.492Z</time>
      </trkpt>
      <trkpt lat="49.07091" lon="2.19621">
        <ele>75.408424</ele>
        <time>2025-06-19T11:08:27.493Z</time>
      </trkpt>
      <trkpt lat="49.07081" lon="2.19615">
        <ele>75.392408</ele>
        <time>2025-06-19T11:08:29.492Z</time>
      </trkpt>
      <trkpt lat="49.07071" lon="2.1961">
        <ele>75.377405</ele>
        <time>2025-06-19T11:08:31.495Z</time>
      </trkpt>
      <trkpt lat="49.0706" lon="2.19606">
        <ele>75.360374</ele>
        <time>2025-06-19T11:08:33.507Z</time>
      </trkpt>
      <trkpt lat="49.0705" lon="2.196">
        <ele>75.343655</ele>
        <time>2025-06-19T11:08:35.508Z</time>
      </trkpt>
      <trkpt lat="49.07039" lon="2.19593">
        <ele>75.326164</ele>
        <time>2025-06-19T11:08:37.499Z</time>
      </trkpt>
      <trkpt lat="49.07028" lon="2.19587">
        <ele>75.309061</ele>
        <time>2025-06-19T11:08:39.499Z</time>
      </trkpt>
      <trkpt lat="49.07017" lon="2.19581">
        <ele>75.291855</ele>
        <time>2025-06-19T11:08:41.512Z</time>
      </trkpt>
      <trkpt lat="49.07007" lon="2.19574">
        <ele>75.274335</ele>
        <time>2025-06-19T11:08:43.501Z</time>
      </trkpt>
      <trkpt lat="49.06996" lon="2.19568">
        <ele>75.256779</ele>
        <time>2025-06-19T11:08:45.505Z</time>
      </trkpt>
      <trkpt lat="49.06985" lon="2.19562">
        <ele>75.241621</ele>
        <time>2025-06-19T11:08:47.499Z</time>
      </trkpt>
      <trkpt lat="49.06974" lon="2.19556">
        <ele>75.229924</ele>
        <time>2025-06-19T11:08:49.491Z</time>
      </trkpt>
      <trkpt lat="49.06964" lon="2.1955">
        <ele>75.218301</ele>
        <time>2025-06-19T11:08:51.512Z</time>
      </trkpt>
      <trkpt lat="49.06954" lon="2.19544">
        <ele>75.206275</ele>
        <time>2025-06-19T11:08:53.492Z</time>
      </trkpt>
      <trkpt lat="49.06943" lon="2.19538">
        <ele>75.194102</ele>
        <time>2025-06-19T11:08:55.500Z</time>
      </trkpt>
      <trkpt lat="49.06932" lon="2.19532">
        <ele>75.181648</ele>
        <time>2025-06-19T11:08:57.504Z</time>
      </trkpt>
      <trkpt lat="49.06921" lon="2.19527">
        <ele>75.169161</ele>
        <time>2025-06-19T11:08:59.504Z</time>
      </trkpt>
      <trkpt lat="49.0691" lon="2.19521">
        <ele>75.156785</ele>
        <time>2025-06-19T11:09:01.504Z</time>
      </trkpt>
      <trkpt lat="49.069" lon="2.19515">
        <ele>75.144788</ele>
        <time>2025-06-19T11:09:03.504Z</time>
      </trkpt>
      <trkpt lat="49.06889" lon="2.19509">
        <ele>75.133165</ele>
        <time>2025-06-19T11:09:05.498Z</time>
      </trkpt>
      <trkpt lat="49.0688" lon="2.19503">
        <ele>75.121714</ele>
        <time>2025-06-19T11:09:07.505Z</time>
      </trkpt>
      <trkpt lat="49.0687" lon="2.19496">
        <ele>75.11074</ele>
        <time>2025-06-19T11:09:09.496Z</time>
      </trkpt>
      <trkpt lat="49.0686" lon="2.1949">
        <ele>75.099242</ele>
        <time>2025-06-19T11:09:11.507Z</time>
      </trkpt>
      <trkpt lat="49.06849" lon="2.19484">
        <ele>75.086895</ele>
        <time>2025-06-19T11:09:13.508Z</time>
      </trkpt>
      <trkpt lat="49.06839" lon="2.19477">
        <ele>75.075054</ele>
        <time>2025-06-19T11:09:15.505Z</time>
      </trkpt>
      <trkpt lat="49.06829" lon="2.1947">
        <ele>75.063311</ele>
        <time>2025-06-19T11:09:17.497Z</time>
      </trkpt>
      <trkpt lat="49.0682" lon="2.19463">
        <ele>75.073335</ele>
        <time>2025-06-19T11:09:19.496Z</time>
      </trkpt>
      <trkpt lat="49.06809" lon="2.19456">
        <ele>75.152612</ele>
        <time>2025-06-19T11:09:21.507Z</time>
      </trkpt>
      <trkpt lat="49.06798" lon="2.19448">
        <ele>75.233327</ele>
        <time>2025-06-19T11:09:23.496Z</time>
      </trkpt>
      <trkpt lat="49.06788" lon="2.19441">
        <ele>75.313857</ele>
        <time>2025-06-19T11:09:25.503Z</time>
      </trkpt>
      <trkpt lat="49.06777" lon="2.19435">
        <ele>75.39171</ele>
        <time>2025-06-19T11:09:27.504Z</time>
      </trkpt>
      <trkpt lat="49.06767" lon="2.19427">
        <ele>75.470743</ele>
        <time>2025-06-19T11:09:29.493Z</time>
      </trkpt>
      <trkpt lat="49.06756" lon="2.1942">
        <ele>75.55091</ele>
        <time>2025-06-19T11:09:31.504Z</time>
      </trkpt>
      <trkpt lat="49.06747" lon="2.19412">
        <ele>75.624818</ele>
        <time>2025-06-19T11:09:33.502Z</time>
      </trkpt>
      <trkpt lat="49.06737" lon="2.19405">
        <ele>75.696682</ele>
        <time>2025-06-19T11:09:35.497Z</time>
      </trkpt>
      <trkpt lat="49.06729" lon="2.19396">
        <ele>75.769625</ele>
        <time>2025-06-19T11:09:37.502Z</time>
      </trkpt>
      <trkpt lat="49.0672" lon="2.19384">
        <ele>75.84533</ele>
        <time>2025-06-19T11:09:39.498Z</time>
      </trkpt>
      <trkpt lat="49.06713" lon="2.19374">
        <ele>75.914064</ele>
        <time>2025-06-19T11:09:41.490Z</time>
      </trkpt>
      <trkpt lat="49.06707" lon="2.19362">
        <ele>75.980859</ele>
        <time>2025-06-19T11:09:43.512Z</time>
      </trkpt>
      <trkpt lat="49.06702" lon="2.19349">
        <ele>76.050914</ele>
        <time>2025-06-19T11:09:45.497Z</time>
      </trkpt>
      <trkpt lat="49.06696" lon="2.19336">
        <ele>76.123979</ele>
        <time>2025-06-19T11:09:47.500Z</time>
      </trkpt>
      <trkpt lat="49.0669" lon="2.19322">
        <ele>76.195254</ele>
        <time>2025-06-19T11:09:49.503Z</time>
      </trkpt>
      <trkpt lat="49.06685" lon="2.19308">
        <ele>76.267759</ele>
        <time>2025-06-19T11:09:51.506Z</time>
      </trkpt>
      <trkpt lat="49.0668" lon="2.19295">
        <ele>76.293867</ele>
        <time>2025-06-19T11:09:53.500Z</time>
      </trkpt>
      <trkpt lat="49.06675" lon="2.19282">
        <ele>76.298531</ele>
        <time>2025-06-19T11:09:55.509Z</time>
      </trkpt>
      <trkpt lat="49.06669" lon="2.19269">
        <ele>76.30376</ele>
        <time>2025-06-19T11:09:57.511Z</time>
      </trkpt>
      <trkpt lat="49.06663" lon="2.19256">
        <ele>76.308689</ele>
        <time>2025-06-19T11:09:59.513Z</time>
      </trkpt>
      <trkpt lat="49.06658" lon="2.19244">
        <ele>76.313243</ele>
        <time>2025-06-19T11:10:01.518Z</time>
      </trkpt>
      <trkpt lat="49.06652" lon="2.19231">
        <ele>76.318385</ele>
        <time>2025-06-19T11:10:03.509Z</time>
      </trkpt>
      <trkpt lat="49.06647" lon="2.19219">
        <ele>76.323126</ele>
        <time>2025-06-19T11:10:05.498Z</time>
      </trkpt>
      <trkpt lat="49.06642" lon="2.19207">
        <ele>76.327605</ele>
        <time>2025-06-19T11:10:07.504Z</time>
      </trkpt>
      <trkpt lat="49.06637" lon="2.19195">
        <ele>76.332001</ele>
        <time>2025-06-19T11:10:09.507Z</time>
      </trkpt>
      <trkpt lat="49.0663" lon="2.19178">
        <ele>76.338563</ele>
        <time>2025-06-19T11:10:12.491Z</time>
      </trkpt>
      <trkpt lat="49.06624" lon="2.19166">
        <ele>76.343223</ele>
        <time>2025-06-19T11:10:14.491Z</time>
      </trkpt>
      <trkpt lat="49.06619" lon="2.19154">
        <ele>76.347939</ele>
        <time>2025-06-19T11:10:16.488Z</time>
      </trkpt>
      <trkpt lat="49.06613" lon="2.19138">
        <ele>76.353751</ele>
        <time>2025-06-19T11:10:19.488Z</time>
      </trkpt>
      <trkpt lat="49.06605" lon="2.19123">
        <ele>76.360024</ele>
        <time>2025-06-19T11:10:22.505Z</time>
      </trkpt>
      <trkpt lat="49.066" lon="2.19111">
        <ele>76.364526</ele>
        <time>2025-06-19T11:10:24.498Z</time>
      </trkpt>
      <trkpt lat="49.06594" lon="2.191">
        <ele>76.369008</ele>
        <time>2025-06-19T11:10:26.492Z</time>
      </trkpt>
      <trkpt lat="49.06589" lon="2.19088">
        <ele>76.373508</ele>
        <time>2025-06-19T11:10:28.517Z</time>
      </trkpt>
      <trkpt lat="49.06584" lon="2.19076">
        <ele>76.378196</ele>
        <time>2025-06-19T11:10:30.496Z</time>
      </trkpt>
      <trkpt lat="49.06578" lon="2.19065">
        <ele>76.409575</ele>
        <time>2025-06-19T11:10:32.502Z</time>
      </trkpt>
      <trkpt lat="49.06573" lon="2.19053">
        <ele>76.440586</ele>
        <time>2025-06-19T11:10:34.493Z</time>
      </trkpt>
      <trkpt lat="49.06567" lon="2.19041">
        <ele>76.47196</ele>
        <time>2025-06-19T11:10:36.489Z</time>
      </trkpt>
      <trkpt lat="49.06562" lon="2.19029">
        <ele>76.504433</ele>
        <time>2025-06-19T11:10:38.495Z</time>
      </trkpt>
      <trkpt lat="49.06557" lon="2.19017">
        <ele>76.536906</ele>
        <time>2025-06-19T11:10:40.505Z</time>
      </trkpt>
      <trkpt lat="49.06552" lon="2.19005">
        <ele>76.568281</ele>
        <time>2025-06-19T11:10:42.488Z</time>
      </trkpt>
      <trkpt lat="49.06547" lon="2.18992">
        <ele>76.600979</ele>
        <time>2025-06-19T11:10:44.497Z</time>
      </trkpt>
      <trkpt lat="49.0654" lon="2.1898">
        <ele>76.636005</ele>
        <time>2025-06-19T11:10:46.483Z</time>
      </trkpt>
      <trkpt lat="49.06534" lon="2.18965">
        <ele>76.673278</ele>
        <time>2025-06-19T11:10:48.489Z</time>
      </trkpt>
      <trkpt lat="49.06528" lon="2.18949">
        <ele>76.714615</ele>
        <time>2025-06-19T11:10:50.514Z</time>
      </trkpt>
      <trkpt lat="49.06521" lon="2.18934">
        <ele>76.755969</ele>
        <time>2025-06-19T11:10:52.495Z</time>
      </trkpt>
      <trkpt lat="49.06514" lon="2.18919">
        <ele>76.797301</ele>
        <time>2025-06-19T11:10:54.494Z</time>
      </trkpt>
      <trkpt lat="49.06506" lon="2.18903">
        <ele>76.839854</ele>
        <time>2025-06-19T11:10:56.495Z</time>
      </trkpt>
      <trkpt lat="49.06498" lon="2.18888">
        <ele>76.883453</ele>
        <time>2025-06-19T11:10:58.505Z</time>
      </trkpt>
      <trkpt lat="49.06491" lon="2.18873">
        <ele>76.923734</ele>
        <time>2025-06-19T11:11:00.499Z</time>
      </trkpt>
      <trkpt lat="49.06484" lon="2.18859">
        <ele>76.963409</ele>
        <time>2025-06-19T11:11:02.497Z</time>
      </trkpt>
      <trkpt lat="49.06476" lon="2.18845">
        <ele>76.882373</ele>
        <time>2025-06-19T11:11:04.509Z</time>
      </trkpt>
      <trkpt lat="49.06469" lon="2.18831">
        <ele>76.687801</ele>
        <time>2025-06-19T11:11:06.488Z</time>
      </trkpt>
      <trkpt lat="49.06463" lon="2.18817">
        <ele>76.498179</ele>
        <time>2025-06-19T11:11:08.500Z</time>
      </trkpt>
      <trkpt lat="49.06458" lon="2.18802">
        <ele>76.312267</ele>
        <time>2025-06-19T11:11:10.504Z</time>
      </trkpt>
      <trkpt lat="49.06453" lon="2.18787">
        <ele>76.123305</ele>
        <time>2025-06-19T11:11:12.501Z</time>
      </trkpt>
      <trkpt lat="49.0645" lon="2.1877">
        <ele>75.93496</ele>
        <time>2025-06-19T11:11:14.501Z</time>
      </trkpt>
      <trkpt lat="49.06447" lon="2.18754">
        <ele>75.743149</ele>
        <time>2025-06-19T11:11:16.498Z</time>
      </trkpt>
      <trkpt lat="49.06444" lon="2.18738">
        <ele>75.554272</ele>
        <time>2025-06-19T11:11:18.489Z</time>
      </trkpt>
      <trkpt lat="49.06439" lon="2.1872">
        <ele>75.346645</ele>
        <time>2025-06-19T11:11:20.504Z</time>
      </trkpt>
      <trkpt lat="49.06435" lon="2.18702">
        <ele>75.133314</ele>
        <time>2025-06-19T11:11:22.495Z</time>
      </trkpt>
      <trkpt lat="49.06431" lon="2.18688">
        <ele>74.958539</ele>
        <time>2025-06-19T11:11:24.500Z</time>
      </trkpt>
      <trkpt lat="49.06427" lon="2.1867">
        <ele>74.746131</ele>
        <time>2025-06-19T11:11:27.492Z</time>
      </trkpt>
      <trkpt lat="49.06423" lon="2.18654">
        <ele>74.556795</ele>
        <time>2025-06-19T11:11:30.509Z</time>
      </trkpt>
      <trkpt lat="49.06417" lon="2.18642">
        <ele>74.384924</ele>
        <time>2025-06-19T11:11:34.500Z</time>
      </trkpt>
      <trkpt lat="49.06411" lon="2.18631">
        <ele>74.227245</ele>
        <time>2025-06-19T11:11:41.493Z</time>
      </trkpt>
      <trkpt lat="49.064" lon="2.18618">
        <ele>73.991853</ele>
        <time>2025-06-19T11:12:28.503Z</time>
      </trkpt>
      <trkpt lat="49.06392" lon="2.18608">
        <ele>73.851297</ele>
        <time>2025-06-19T11:12:32.497Z</time>
      </trkpt>
      <trkpt lat="49.06392" lon="2.18593">
        <ele>73.739302</ele>
        <time>2025-06-19T11:12:36.499Z</time>
      </trkpt>
      <trkpt lat="49.06401" lon="2.18581">
        <ele>73.608658</ele>
        <time>2025-06-19T11:12:39.498Z</time>
      </trkpt>
      <trkpt lat="49.0641" lon="2.18573">
        <ele>73.492546</ele>
        <time>2025-06-19T11:12:41.497Z</time>
      </trkpt>
      <trkpt lat="49.06417" lon="2.18564">
        <ele>73.387545</ele>
        <time>2025-06-19T11:12:43.498Z</time>
      </trkpt>
      <trkpt lat="49.06425" lon="2.18555">
        <ele>73.280329</ele>
        <time>2025-06-19T11:12:45.506Z</time>
      </trkpt>
      <trkpt lat="49.06433" lon="2.18546">
        <ele>73.175769</ele>
        <time>2025-06-19T11:12:47.510Z</time>
      </trkpt>
      <trkpt lat="49.0644" lon="2.18536">
        <ele>73.061851</ele>
        <time>2025-06-19T11:12:49.497Z</time>
      </trkpt>
      <trkpt lat="49.06449" lon="2.18527">
        <ele>72.947126</ele>
        <time>2025-06-19T11:12:51.503Z</time>
      </trkpt>
      <trkpt lat="49.06457" lon="2.18516">
        <ele>72.827853</ele>
        <time>2025-06-19T11:12:53.507Z</time>
      </trkpt>
      <trkpt lat="49.06466" lon="2.18505">
        <ele>72.698137</ele>
        <time>2025-06-19T11:12:55.502Z</time>
      </trkpt>
      <trkpt lat="49.06475" lon="2.18493">
        <ele>72.563047</ele>
        <time>2025-06-19T11:12:57.508Z</time>
      </trkpt>
      <trkpt lat="49.06485" lon="2.18482">
        <ele>72.428876</ele>
        <time>2025-06-19T11:12:59.504Z</time>
      </trkpt>
      <trkpt lat="49.06495" lon="2.1847">
        <ele>72.288554</ele>
        <time>2025-06-19T11:13:01.486Z</time>
      </trkpt>
      <trkpt lat="49.06505" lon="2.18458">
        <ele>72.148965</ele>
        <time>2025-06-19T11:13:03.498Z</time>
      </trkpt>
      <trkpt lat="49.06514" lon="2.18447">
        <ele>72.021022</ele>
        <time>2025-06-19T11:13:05.496Z</time>
      </trkpt>
      <trkpt lat="49.06521" lon="2.18437">
        <ele>71.915842</ele>
        <time>2025-06-19T11:13:07.505Z</time>
      </trkpt>
      <trkpt lat="49.06529" lon="2.18427">
        <ele>71.844842</ele>
        <time>2025-06-19T11:13:09.488Z</time>
      </trkpt>
      <trkpt lat="49.06538" lon="2.18416">
        <ele>71.769591</ele>
        <time>2025-06-19T11:13:11.489Z</time>
      </trkpt>
      <trkpt lat="49.06546" lon="2.18406">
        <ele>71.698308</ele>
        <time>2025-06-19T11:13:13.504Z</time>
      </trkpt>
      <trkpt lat="49.06555" lon="2.18395">
        <ele>71.622236</ele>
        <time>2025-06-19T11:13:15.500Z</time>
      </trkpt>
      <trkpt lat="49.06564" lon="2.18386">
        <ele>71.548036</ele>
        <time>2025-06-19T11:13:17.494Z</time>
      </trkpt>
      <trkpt lat="49.06571" lon="2.18377">
        <ele>71.484309</ele>
        <time>2025-06-19T11:13:19.502Z</time>
      </trkpt>
      <trkpt lat="49.06581" lon="2.18364">
        <ele>71.39681</ele>
        <time>2025-06-19T11:13:22.503Z</time>
      </trkpt>
      <trkpt lat="49.0659" lon="2.18357">
        <ele>71.324875</ele>
        <time>2025-06-19T11:13:25.501Z</time>
      </trkpt>
      <trkpt lat="49.06602" lon="2.18349">
        <ele>71.237311</ele>
        <time>2025-06-19T11:13:28.517Z</time>
      </trkpt>
      <trkpt lat="49.06611" lon="2.18339">
        <ele>71.163944</ele>
        <time>2025-06-19T11:13:30.492Z</time>
      </trkpt>
      <trkpt lat="49.06619" lon="2.18329">
        <ele>71.092186</ele>
        <time>2025-06-19T11:13:32.513Z</time>
      </trkpt>
      <trkpt lat="49.06627" lon="2.18319">
        <ele>71.025202</ele>
        <time>2025-06-19T11:13:34.497Z</time>
      </trkpt>
      <trkpt lat="49.06635" lon="2.1831">
        <ele>70.959356</ele>
        <time>2025-06-19T11:13:36.489Z</time>
      </trkpt>
      <trkpt lat="49.06642" lon="2.18301">
        <ele>70.893771</ele>
        <time>2025-06-19T11:13:38.489Z</time>
      </trkpt>
      <trkpt lat="49.0665" lon="2.18291">
        <ele>70.825414</ele>
        <time>2025-06-19T11:13:40.496Z</time>
      </trkpt>
      <trkpt lat="49.06658" lon="2.18282">
        <ele>70.758493</ele>
        <time>2025-06-19T11:13:42.506Z</time>
      </trkpt>
      <trkpt lat="49.06665" lon="2.18273">
        <ele>70.708084</ele>
        <time>2025-06-19T11:13:44.506Z</time>
      </trkpt>
      <trkpt lat="49.06673" lon="2.18263">
        <ele>70.717981</ele>
        <time>2025-06-19T11:13:46.489Z</time>
      </trkpt>
      <trkpt lat="49.06681" lon="2.18252">
        <ele>70.728389</ele>
        <time>2025-06-19T11:13:48.519Z</time>
      </trkpt>
      <trkpt lat="49.06689" lon="2.18242">
        <ele>70.738512</ele>
        <time>2025-06-19T11:13:50.502Z</time>
      </trkpt>
      <trkpt lat="49.06697" lon="2.18232">
        <ele>70.749176</ele>
        <time>2025-06-19T11:13:52.498Z</time>
      </trkpt>
      <trkpt lat="49.06706" lon="2.18223">
        <ele>70.759566</ele>
        <time>2025-06-19T11:13:54.511Z</time>
      </trkpt>
      <trkpt lat="49.06714" lon="2.18212">
        <ele>70.770117</ele>
        <time>2025-06-19T11:13:56.499Z</time>
      </trkpt>
      <trkpt lat="49.06722" lon="2.18203">
        <ele>70.78035</ele>
        <time>2025-06-19T11:13:58.499Z</time>
      </trkpt>
      <trkpt lat="49.0673" lon="2.18193">
        <ele>70.790825</ele>
        <time>2025-06-19T11:14:00.501Z</time>
      </trkpt>
      <trkpt lat="49.06738" lon="2.18183">
        <ele>70.80094</ele>
        <time>2025-06-19T11:14:02.511Z</time>
      </trkpt>
      <trkpt lat="49.06746" lon="2.18174">
        <ele>70.810743</ele>
        <time>2025-06-19T11:14:04.495Z</time>
      </trkpt>
      <trkpt lat="49.06754" lon="2.18164">
        <ele>70.820701</ele>
        <time>2025-06-19T11:14:06.490Z</time>
      </trkpt>
      <trkpt lat="49.06762" lon="2.18154">
        <ele>70.830897</ele>
        <time>2025-06-19T11:14:08.512Z</time>
      </trkpt>
      <trkpt lat="49.0677" lon="2.18144">
        <ele>70.841379</ele>
        <time>2025-06-19T11:14:10.503Z</time>
      </trkpt>
      <trkpt lat="49.06779" lon="2.18134">
        <ele>70.851847</ele>
        <time>2025-06-19T11:14:12.506Z</time>
      </trkpt>
      <trkpt lat="49.06787" lon="2.18125">
        <ele>70.861612</ele>
        <time>2025-06-19T11:14:14.500Z</time>
      </trkpt>
      <trkpt lat="49.06795" lon="2.18116">
        <ele>70.871258</ele>
        <time>2025-06-19T11:14:16.489Z</time>
      </trkpt>
      <trkpt lat="49.06802" lon="2.18108">
        <ele>70.880199</ele>
        <time>2025-06-19T11:14:18.494Z</time>
      </trkpt>
      <trkpt lat="49.06813" lon="2.18096">
        <ele>70.946654</ele>
        <time>2025-06-19T11:14:21.488Z</time>
      </trkpt>
      <trkpt lat="49.06823" lon="2.18083">
        <ele>71.026669</ele>
        <time>2025-06-19T11:14:24.493Z</time>
      </trkpt>
      <trkpt lat="49.06834" lon="2.18073">
        <ele>71.109405</ele>
        <time>2025-06-19T11:14:27.490Z</time>
      </trkpt>
      <trkpt lat="49.06842" lon="2.18063">
        <ele>71.172885</ele>
        <time>2025-06-19T11:14:29.510Z</time>
      </trkpt>
      <trkpt lat="49.0685" lon="2.18054">
        <ele>71.232861</ele>
        <time>2025-06-19T11:14:31.491Z</time>
      </trkpt>
      <trkpt lat="49.06856" lon="2.18041">
        <ele>71.299189</ele>
        <time>2025-06-19T11:14:33.500Z</time>
      </trkpt>
      <trkpt lat="49.06865" lon="2.18032">
        <ele>71.364646</ele>
        <time>2025-06-19T11:14:35.493Z</time>
      </trkpt>
      <trkpt lat="49.06873" lon="2.18023">
        <ele>71.425211</ele>
        <time>2025-06-19T11:14:37.494Z</time>
      </trkpt>
      <trkpt lat="49.06881" lon="2.18012">
        <ele>71.497001</ele>
        <time>2025-06-19T11:14:39.490Z</time>
      </trkpt>
      <trkpt lat="49.0689" lon="2.18003">
        <ele>71.562575</ele>
        <time>2025-06-19T11:14:41.503Z</time>
      </trkpt>
      <trkpt lat="49.06898" lon="2.17993">
        <ele>71.628275</ele>
        <time>2025-06-19T11:14:43.488Z</time>
      </trkpt>
      <trkpt lat="49.06908" lon="2.17981">
        <ele>71.710207</ele>
        <time>2025-06-19T11:14:46.504Z</time>
      </trkpt>
      <trkpt lat="49.06917" lon="2.17971">
        <ele>71.773925</ele>
        <time>2025-06-19T11:14:48.506Z</time>
      </trkpt>
      <trkpt lat="49.06926" lon="2.17961">
        <ele>71.84787</ele>
        <time>2025-06-19T11:14:51.497Z</time>
      </trkpt>
      <trkpt lat="49.06933" lon="2.17952">
        <ele>71.904571</ele>
        <time>2025-06-19T11:14:54.496Z</time>
      </trkpt>
      <trkpt lat="49.06941" lon="2.17942">
        <ele>71.970767</ele>
        <time>2025-06-19T11:14:59.495Z</time>
      </trkpt>
      <trkpt lat="49.06946" lon="2.17927">
        <ele>72.089547</ele>
        <time>2025-06-19T11:15:12.507Z</time>
      </trkpt>
      <trkpt lat="49.06953" lon="2.17918">
        <ele>72.251179</ele>
        <time>2025-06-19T11:15:15.494Z</time>
      </trkpt>
      <trkpt lat="49.06963" lon="2.17906">
        <ele>72.455971</ele>
        <time>2025-06-19T11:15:18.509Z</time>
      </trkpt>
      <trkpt lat="49.06973" lon="2.17893">
        <ele>72.68301</ele>
        <time>2025-06-19T11:15:21.492Z</time>
      </trkpt>
      <trkpt lat="49.06983" lon="2.1788">
        <ele>72.900974</ele>
        <time>2025-06-19T11:15:24.498Z</time>
      </trkpt>
      <trkpt lat="49.06993" lon="2.17869">
        <ele>73.116525</ele>
        <time>2025-06-19T11:15:27.502Z</time>
      </trkpt>
      <trkpt lat="49.07001" lon="2.1786">
        <ele>73.274127</ele>
        <time>2025-06-19T11:15:29.497Z</time>
      </trkpt>
      <trkpt lat="49.07008" lon="2.17851">
        <ele>73.437232</ele>
        <time>2025-06-19T11:15:31.486Z</time>
      </trkpt>
      <trkpt lat="49.07017" lon="2.17841">
        <ele>73.620485</ele>
        <time>2025-06-19T11:15:33.496Z</time>
      </trkpt>
      <trkpt lat="49.07026" lon="2.1783">
        <ele>73.822515</ele>
        <time>2025-06-19T11:15:35.499Z</time>
      </trkpt>
      <trkpt lat="49.07036" lon="2.17819">
        <ele>74.027243</ele>
        <time>2025-06-19T11:15:37.486Z</time>
      </trkpt>
      <trkpt lat="49.07045" lon="2.17808">
        <ele>74.232733</ele>
        <time>2025-06-19T11:15:39.500Z</time>
      </trkpt>
      <trkpt lat="49.07054" lon="2.17797">
        <ele>74.414783</ele>
        <time>2025-06-19T11:15:41.497Z</time>
      </trkpt>
      <trkpt lat="49.07061" lon="2.17788">
        <ele>74.576589</ele>
        <time>2025-06-19T11:15:43.505Z</time>
      </trkpt>
      <trkpt lat="49.07069" lon="2.17779">
        <ele>74.737824</ele>
        <time>2025-06-19T11:15:45.488Z</time>
      </trkpt>
      <trkpt lat="49.07076" lon="2.17771">
        <ele>74.89947</ele>
        <time>2025-06-19T11:15:47.492Z</time>
      </trkpt>
      <trkpt lat="49.07086" lon="2.17758">
        <ele>75.186975</ele>
        <time>2025-06-19T11:15:50.496Z</time>
      </trkpt>
      <trkpt lat="49.07093" lon="2.17747">
        <ele>75.563986</ele>
        <time>2025-06-19T11:15:53.498Z</time>
      </trkpt>
      <trkpt lat="49.07102" lon="2.1774">
        <ele>75.922264</ele>
        <time>2025-06-19T11:16:25.498Z</time>
      </trkpt>
      <trkpt lat="49.07111" lon="2.17727">
        <ele>76.376931</ele>
        <time>2025-06-19T11:16:29.490Z</time>
      </trkpt>
      <trkpt lat="49.0712" lon="2.17733">
        <ele>76.740021</ele>
        <time>2025-06-19T11:16:31.491Z</time>
      </trkpt>
      <trkpt lat="49.07129" lon="2.17735">
        <ele>77.074475</ele>
        <time>2025-06-19T11:16:35.503Z</time>
      </trkpt>
      <trkpt lat="49.07127" lon="2.17717">
        <ele>77.502059</ele>
        <time>2025-06-19T11:16:38.482Z</time>
      </trkpt>
      <trkpt lat="49.07132" lon="2.17702">
        <ele>77.931764</ele>
        <time>2025-06-19T11:16:41.482Z</time>
      </trkpt>
      <trkpt lat="49.07141" lon="2.17689">
        <ele>78.373314</ele>
        <time>2025-06-19T11:16:44.500Z</time>
      </trkpt>
      <trkpt lat="49.07149" lon="2.17676">
        <ele>78.81533</ele>
        <time>2025-06-19T11:16:47.503Z</time>
      </trkpt>
      <trkpt lat="49.0716" lon="2.17667">
        <ele>79.278552</ele>
        <time>2025-06-19T11:16:50.505Z</time>
      </trkpt>
      <trkpt lat="49.07172" lon="2.1767">
        <ele>79.739185</ele>
        <time>2025-06-19T11:16:53.493Z</time>
      </trkpt>
      <trkpt lat="49.07183" lon="2.17676">
        <ele>80.148281</ele>
        <time>2025-06-19T11:16:56.502Z</time>
      </trkpt>
      <trkpt lat="49.07191" lon="2.17685">
        <ele>80.522935</ele>
        <time>2025-06-19T11:16:59.490Z</time>
      </trkpt>
      <trkpt lat="49.07198" lon="2.17694">
        <ele>80.875442</ele>
        <time>2025-06-19T11:17:02.497Z</time>
      </trkpt>
      <trkpt lat="49.07205" lon="2.17709">
        <ele>81.31453</ele>
        <time>2025-06-19T11:17:06.491Z</time>
      </trkpt>
      <trkpt lat="49.07206" lon="2.17724">
        <ele>81.668873</ele>
        <time>2025-06-19T11:17:09.487Z</time>
      </trkpt>
      <trkpt lat="49.07208" lon="2.1774">
        <ele>81.91628</ele>
        <time>2025-06-19T11:17:12.498Z</time>
      </trkpt>
      <trkpt lat="49.07209" lon="2.17756">
        <ele>82.130027</ele>
        <time>2025-06-19T11:17:15.491Z</time>
      </trkpt>
      <trkpt lat="49.07211" lon="2.17771">
        <ele>82.338813</ele>
        <time>2025-06-19T11:17:18.502Z</time>
      </trkpt>
      <trkpt lat="49.0721" lon="2.17789">
        <ele>82.571836</ele>
        <time>2025-06-19T11:17:21.504Z</time>
      </trkpt>
      <trkpt lat="49.07208" lon="2.17808">
        <ele>82.825947</ele>
        <time>2025-06-19T11:17:24.500Z</time>
      </trkpt>
      <trkpt lat="49.07206" lon="2.17827">
        <ele>83.092518</ele>
        <time>2025-06-19T11:17:27.497Z</time>
      </trkpt>
      <trkpt lat="49.07207" lon="2.17847">
        <ele>83.35941</ele>
        <time>2025-06-19T11:17:30.499Z</time>
      </trkpt>
      <trkpt lat="49.07208" lon="2.17861">
        <ele>83.548506</ele>
        <time>2025-06-19T11:17:32.511Z</time>
      </trkpt>
      <trkpt lat="49.0721" lon="2.17877">
        <ele>83.758931</ele>
        <time>2025-06-19T11:17:34.486Z</time>
      </trkpt>
      <trkpt lat="49.07212" lon="2.17894">
        <ele>83.987299</ele>
        <time>2025-06-19T11:17:36.493Z</time>
      </trkpt>
      <trkpt lat="49.07216" lon="2.17906">
        <ele>84.17121</ele>
        <time>2025-06-19T11:17:38.500Z</time>
      </trkpt>
      <trkpt lat="49.07222" lon="2.17923">
        <ele>84.428149</ele>
        <time>2025-06-19T11:17:41.498Z</time>
      </trkpt>
      <trkpt lat="49.07229" lon="2.17939">
        <ele>84.676363</ele>
        <time>2025-06-19T11:17:44.493Z</time>
      </trkpt>
      <trkpt lat="49.07236" lon="2.17953">
        <ele>84.917</ele>
        <time>2025-06-19T11:17:47.487Z</time>
      </trkpt>
      <trkpt lat="49.07243" lon="2.17967">
        <ele>85.152245</ele>
        <time>2025-06-19T11:17:50.504Z</time>
      </trkpt>
      <trkpt lat="49.07249" lon="2.17982">
        <ele>85.379535</ele>
        <time>2025-06-19T11:17:53.486Z</time>
      </trkpt>
      <trkpt lat="49.07255" lon="2.17994">
        <ele>85.451135</ele>
        <time>2025-06-19T11:17:56.496Z</time>
      </trkpt>
      <trkpt lat="49.07261" lon="2.18008">
        <ele>85.529162</ele>
        <time>2025-06-19T11:17:59.501Z</time>
      </trkpt>
      <trkpt lat="49.07268" lon="2.18022">
        <ele>85.608631</ele>
        <time>2025-06-19T11:18:02.499Z</time>
      </trkpt>
      <trkpt lat="49.07275" lon="2.18035">
        <ele>85.680111</ele>
        <time>2025-06-19T11:18:05.500Z</time>
      </trkpt>
      <trkpt lat="49.07281" lon="2.18049">
        <ele>85.759829</ele>
        <time>2025-06-19T11:18:08.505Z</time>
      </trkpt>
      <trkpt lat="49.07287" lon="2.18064">
        <ele>85.837641</ele>
        <time>2025-06-19T11:18:11.508Z</time>
      </trkpt>
      <trkpt lat="49.07292" lon="2.18077">
        <ele>85.906262</ele>
        <time>2025-06-19T11:18:14.501Z</time>
      </trkpt>
      <trkpt lat="49.07297" lon="2.1809">
        <ele>85.977977</ele>
        <time>2025-06-19T11:18:17.502Z</time>
      </trkpt>
      <trkpt lat="49.07303" lon="2.18106">
        <ele>86.059642</ele>
        <time>2025-06-19T11:18:20.514Z</time>
      </trkpt>
      <trkpt lat="49.07306" lon="2.18123">
        <ele>86.138811</ele>
        <time>2025-06-19T11:18:23.502Z</time>
      </trkpt>
      <trkpt lat="49.07311" lon="2.18139">
        <ele>86.219178</ele>
        <time>2025-06-19T11:18:26.489Z</time>
      </trkpt>
      <trkpt lat="49.07316" lon="2.18151">
        <ele>86.283028</ele>
        <time>2025-06-19T11:18:28.501Z</time>
      </trkpt>
      <trkpt lat="49.0732" lon="2.18164">
        <ele>86.348521</ele>
        <time>2025-06-19T11:18:30.497Z</time>
      </trkpt>
      <trkpt lat="49.07324" lon="2.18177">
        <ele>86.416971</ele>
        <time>2025-06-19T11:18:32.499Z</time>
      </trkpt>
      <trkpt lat="49.07328" lon="2.18191">
        <ele>86.483349</ele>
        <time>2025-06-19T11:18:34.495Z</time>
      </trkpt>
      <trkpt lat="49.07334" lon="2.18209">
        <ele>86.576485</ele>
        <time>2025-06-19T11:18:37.495Z</time>
      </trkpt>
      <trkpt lat="49.07337" lon="2.18223">
        <ele>86.570079</ele>
        <time>2025-06-19T11:18:39.490Z</time>
      </trkpt>
      <trkpt lat="49.07342" lon="2.18235">
        <ele>86.306654</ele>
        <time>2025-06-19T11:18:41.491Z</time>
      </trkpt>
      <trkpt lat="49.07346" lon="2.18248">
        <ele>86.047711</ele>
        <time>2025-06-19T11:18:43.495Z</time>
      </trkpt>
      <trkpt lat="49.07349" lon="2.18261">
        <ele>85.777336</ele>
        <time>2025-06-19T11:18:45.495Z</time>
      </trkpt>
      <trkpt lat="49.07352" lon="2.18276">
        <ele>85.495928</ele>
        <time>2025-06-19T11:18:47.497Z</time>
      </trkpt>
      <trkpt lat="49.07357" lon="2.18292">
        <ele>85.172147</ele>
        <time>2025-06-19T11:18:49.488Z</time>
      </trkpt>
      <trkpt lat="49.0736" lon="2.18309">
        <ele>84.837665</ele>
        <time>2025-06-19T11:18:51.505Z</time>
      </trkpt>
      <trkpt lat="49.07364" lon="2.18325">
        <ele>84.516414</ele>
        <time>2025-06-19T11:18:53.500Z</time>
      </trkpt>
      <trkpt lat="49.07368" lon="2.18343">
        <ele>84.167779</ele>
        <time>2025-06-19T11:18:55.505Z</time>
      </trkpt>
      <trkpt lat="49.07373" lon="2.1836">
        <ele>83.806324</ele>
        <time>2025-06-19T11:18:57.497Z</time>
      </trkpt>
      <trkpt lat="49.07379" lon="2.18377">
        <ele>83.446415</ele>
        <time>2025-06-19T11:18:59.492Z</time>
      </trkpt>
      <trkpt lat="49.07385" lon="2.18396">
        <ele>83.066901</ele>
        <time>2025-06-19T11:19:01.497Z</time>
      </trkpt>
      <trkpt lat="49.07392" lon="2.18414">
        <ele>82.665001</ele>
        <time>2025-06-19T11:19:03.496Z</time>
      </trkpt>
      <trkpt lat="49.074" lon="2.18433">
        <ele>82.244184</ele>
        <time>2025-06-19T11:19:05.500Z</time>
      </trkpt>
      <trkpt lat="49.07405" lon="2.18452">
        <ele>81.878143</ele>
        <time>2025-06-19T11:19:07.502Z</time>
      </trkpt>
      <trkpt lat="49.0741" lon="2.18471">
        <ele>81.481493</ele>
        <time>2025-06-19T11:19:09.506Z</time>
      </trkpt>
      <trkpt lat="49.07422" lon="2.1849">
        <ele>80.732853</ele>
        <time>2025-06-19T11:19:11.517Z</time>
      </trkpt>
      <trkpt lat="49.07431" lon="2.18507">
        <ele>80.069758</ele>
        <time>2025-06-19T11:19:13.514Z</time>
      </trkpt>
      <trkpt lat="49.07438" lon="2.1852">
        <ele>79.596447</ele>
        <time>2025-06-19T11:19:15.504Z</time>
      </trkpt>
      <trkpt lat="49.07444" lon="2.18531">
        <ele>79.172598</ele>
        <time>2025-06-19T11:19:17.498Z</time>
      </trkpt>
      <trkpt lat="49.07453" lon="2.18541">
        <ele>78.688855</ele>
        <time>2025-06-19T11:19:19.514Z</time>
      </trkpt>
      <trkpt lat="49.07459" lon="2.18553">
        <ele>78.239236</ele>
        <time>2025-06-19T11:19:21.492Z</time>
      </trkpt>
      <trkpt lat="49.0746" lon="2.1857">
        <ele>77.760226</ele>
        <time>2025-06-19T11:19:23.484Z</time>
      </trkpt>
      <trkpt lat="49.07458" lon="2.18584">
        <ele>77.337938</ele>
        <time>2025-06-19T11:19:25.491Z</time>
      </trkpt>
      <trkpt lat="49.07454" lon="2.186">
        <ele>76.833736</ele>
        <time>2025-06-19T11:19:28.499Z</time>
      </trkpt>
      <trkpt lat="49.07449" lon="2.18615">
        <ele>76.350884</ele>
        <time>2025-06-19T11:19:32.498Z</time>
      </trkpt>
      <trkpt lat="49.07444" lon="2.18626">
        <ele>75.94649</ele>
        <time>2025-06-19T11:19:45.503Z</time>
      </trkpt>
      <trkpt lat="49.07437" lon="2.1864">
        <ele>75.446222</ele>
        <time>2025-06-19T11:19:50.499Z</time>
      </trkpt>
      <trkpt lat="49.07438" lon="2.18655">
        <ele>75.011833</ele>
        <time>2025-06-19T11:19:53.494Z</time>
      </trkpt>
      <trkpt lat="49.07441" lon="2.18671">
        <ele>74.520054</ele>
        <time>2025-06-19T11:19:56.511Z</time>
      </trkpt>
      <trkpt lat="49.07445" lon="2.18687">
        <ele>74.009121</ele>
        <time>2025-06-19T11:19:59.496Z</time>
      </trkpt>
      <trkpt lat="49.07447" lon="2.18706">
        <ele>73.52312</ele>
        <time>2025-06-19T11:20:02.486Z</time>
      </trkpt>
      <trkpt lat="49.07448" lon="2.18724">
        <ele>73.422097</ele>
        <time>2025-06-19T11:20:05.501Z</time>
      </trkpt>
      <trkpt lat="49.07449" lon="2.18738">
        <ele>73.34399</ele>
        <time>2025-06-19T11:20:07.488Z</time>
      </trkpt>
      <trkpt lat="49.07451" lon="2.18753">
        <ele>73.258364</ele>
        <time>2025-06-19T11:20:09.491Z</time>
      </trkpt>
      <trkpt lat="49.07452" lon="2.18769">
        <ele>73.172187</ele>
        <time>2025-06-19T11:20:11.482Z</time>
      </trkpt>
      <trkpt lat="49.07453" lon="2.18785">
        <ele>73.082301</ele>
        <time>2025-06-19T11:20:13.504Z</time>
      </trkpt>
      <trkpt lat="49.07454" lon="2.18801">
        <ele>72.992741</ele>
        <time>2025-06-19T11:20:15.495Z</time>
      </trkpt>
      <trkpt lat="49.07457" lon="2.18815">
        <ele>72.917395</ele>
        <time>2025-06-19T11:20:17.493Z</time>
      </trkpt>
      <trkpt lat="49.07461" lon="2.18833">
        <ele>72.81119</ele>
        <time>2025-06-19T11:20:20.489Z</time>
      </trkpt>
      <trkpt lat="49.07466" lon="2.18847">
        <ele>72.723682</ele>
        <time>2025-06-19T11:20:23.496Z</time>
      </trkpt>
      <trkpt lat="49.0747" lon="2.1886">
        <ele>72.645436</ele>
        <time>2025-06-19T11:20:26.490Z</time>
      </trkpt>
      <trkpt lat="49.07476" lon="2.18875">
        <ele>72.544976</ele>
        <time>2025-06-19T11:20:30.493Z</time>
      </trkpt>
      <trkpt lat="49.07482" lon="2.18891">
        <ele>72.445156</ele>
        <time>2025-06-19T11:20:33.496Z</time>
      </trkpt>
      <trkpt lat="49.07487" lon="2.18908">
        <ele>72.344533</ele>
        <time>2025-06-19T11:20:36.489Z</time>
      </trkpt>
      <trkpt lat="49.07492" lon="2.18921">
        <ele>72.258826</ele>
        <time>2025-06-19T11:20:39.488Z</time>
      </trkpt>
      <trkpt lat="49.07499" lon="2.18935">
        <ele>72.162704</ele>
        <time>2025-06-19T11:20:42.491Z</time>
      </trkpt>
      <trkpt lat="49.07506" lon="2.18952">
        <ele>72.049309</ele>
        <time>2025-06-19T11:20:45.502Z</time>
      </trkpt>
      <trkpt lat="49.07511" lon="2.18964">
        <ele>72.09507</ele>
        <time>2025-06-19T11:20:47.488Z</time>
      </trkpt>
      <trkpt lat="49.07518" lon="2.18976">
        <ele>72.219062</ele>
        <time>2025-06-19T11:20:49.490Z</time>
      </trkpt>
      <trkpt lat="49.07524" lon="2.18989">
        <ele>72.337615</ele>
        <time>2025-06-19T11:20:51.488Z</time>
      </trkpt>
      <trkpt lat="49.0753" lon="2.19002">
        <ele>72.458003</ele>
        <time>2025-06-19T11:20:53.494Z</time>
      </trkpt>
      <trkpt lat="49.07536" lon="2.19015">
        <ele>72.582484</ele>
        <time>2025-06-19T11:20:55.494Z</time>
      </trkpt>
      <trkpt lat="49.07543" lon="2.19028">
        <ele>72.707666</ele>
        <time>2025-06-19T11:20:57.488Z</time>
      </trkpt>
      <trkpt lat="49.07549" lon="2.19041">
        <ele>72.829036</ele>
        <time>2025-06-19T11:20:59.498Z</time>
      </trkpt>
      <trkpt lat="49.07556" lon="2.19054">
        <ele>72.94921</ele>
        <time>2025-06-19T11:21:01.495Z</time>
      </trkpt>
      <trkpt lat="49.07562" lon="2.19067">
        <ele>73.077501</ele>
        <time>2025-06-19T11:21:03.498Z</time>
      </trkpt>
      <trkpt lat="49.0757" lon="2.19079">
        <ele>73.204479</ele>
        <time>2025-06-19T11:21:05.505Z</time>
      </trkpt>
      <trkpt lat="49.07578" lon="2.19092">
        <ele>73.3382</ele>
        <time>2025-06-19T11:21:07.491Z</time>
      </trkpt>
      <trkpt lat="49.07585" lon="2.19103">
        <ele>73.455172</ele>
        <time>2025-06-19T11:21:09.499Z</time>
      </trkpt>
      <trkpt lat="49.07593" lon="2.19114">
        <ele>73.576795</ele>
        <time>2025-06-19T11:21:11.487Z</time>
      </trkpt>
      <trkpt lat="49.07601" lon="2.19124">
        <ele>73.69918</ele>
        <time>2025-06-19T11:21:13.498Z</time>
      </trkpt>
      <trkpt lat="49.07609" lon="2.19134">
        <ele>73.822389</ele>
        <time>2025-06-19T11:21:15.491Z</time>
      </trkpt>
      <trkpt lat="49.07618" lon="2.19144">
        <ele>73.950172</ele>
        <time>2025-06-19T11:21:17.508Z</time>
      </trkpt>
      <trkpt lat="49.07627" lon="2.19154">
        <ele>74.076574</ele>
        <time>2025-06-19T11:21:19.492Z</time>
      </trkpt>
      <trkpt lat="49.07635" lon="2.19164">
        <ele>74.165873</ele>
        <time>2025-06-19T11:21:21.492Z</time>
      </trkpt>
      <trkpt lat="49.07644" lon="2.19174">
        <ele>74.250153</ele>
        <time>2025-06-19T11:21:23.504Z</time>
      </trkpt>
      <trkpt lat="49.07653" lon="2.19184">
        <ele>74.333834</ele>
        <time>2025-06-19T11:21:25.500Z</time>
      </trkpt>
      <trkpt lat="49.07663" lon="2.19193">
        <ele>74.422972</ele>
        <time>2025-06-19T11:21:27.500Z</time>
      </trkpt>
      <trkpt lat="49.07671" lon="2.19204">
        <ele>74.507554</ele>
        <time>2025-06-19T11:21:29.489Z</time>
      </trkpt>
      <trkpt lat="49.0768" lon="2.19214">
        <ele>74.594274</ele>
        <time>2025-06-19T11:21:31.499Z</time>
      </trkpt>
      <trkpt lat="49.0769" lon="2.19225">
        <ele>74.684643</ele>
        <time>2025-06-19T11:21:33.496Z</time>
      </trkpt>
      <trkpt lat="49.07699" lon="2.19235">
        <ele>74.772695</ele>
        <time>2025-06-19T11:21:35.502Z</time>
      </trkpt>
      <trkpt lat="49.07708" lon="2.19244">
        <ele>74.85489</ele>
        <time>2025-06-19T11:21:37.503Z</time>
      </trkpt>
      <trkpt lat="49.07719" lon="2.19253">
        <ele>74.946653</ele>
        <time>2025-06-19T11:21:39.479Z</time>
      </trkpt>
      <trkpt lat="49.07729" lon="2.19262">
        <ele>75.034603</ele>
        <time>2025-06-19T11:21:41.491Z</time>
      </trkpt>
      <trkpt lat="49.07738" lon="2.1927">
        <ele>75.119928</ele>
        <time>2025-06-19T11:21:43.499Z</time>
      </trkpt>
      <trkpt lat="49.07747" lon="2.19279">
        <ele>75.202905</ele>
        <time>2025-06-19T11:21:45.506Z</time>
      </trkpt>
      <trkpt lat="49.07757" lon="2.19289">
        <ele>75.292313</ele>
        <time>2025-06-19T11:21:47.488Z</time>
      </trkpt>
      <trkpt lat="49.07768" lon="2.19298">
        <ele>75.385833</ele>
        <time>2025-06-19T11:21:49.495Z</time>
      </trkpt>
      <trkpt lat="49.07779" lon="2.19307">
        <ele>75.480088</ele>
        <time>2025-06-19T11:21:51.490Z</time>
      </trkpt>
      <trkpt lat="49.0779" lon="2.19316">
        <ele>75.437905</ele>
        <time>2025-06-19T11:21:53.489Z</time>
      </trkpt>
      <trkpt lat="49.078" lon="2.19325">
        <ele>75.399327</ele>
        <time>2025-06-19T11:21:55.497Z</time>
      </trkpt>
      <trkpt lat="49.07809" lon="2.19333">
        <ele>75.362744</ele>
        <time>2025-06-19T11:21:57.486Z</time>
      </trkpt>
      <trkpt lat="49.07818" lon="2.19342">
        <ele>75.326044</ele>
        <time>2025-06-19T11:21:59.494Z</time>
      </trkpt>
      <trkpt lat="49.07828" lon="2.19351">
        <ele>75.287466</ele>
        <time>2025-06-19T11:22:01.483Z</time>
      </trkpt>
      <trkpt lat="49.07837" lon="2.19358">
        <ele>75.252796</ele>
        <time>2025-06-19T11:22:03.491Z</time>
      </trkpt>
      <trkpt lat="49.07846" lon="2.19366">
        <ele>75.216818</ele>
        <time>2025-06-19T11:22:05.492Z</time>
      </trkpt>
      <trkpt lat="49.07855" lon="2.19374">
        <ele>75.179097</ele>
        <time>2025-06-19T11:22:07.497Z</time>
      </trkpt>
      <trkpt lat="49.07865" lon="2.19382">
        <ele>75.141805</ele>
        <time>2025-06-19T11:22:09.487Z</time>
      </trkpt>
      <trkpt lat="49.07874" lon="2.1939">
        <ele>75.107135</ele>
        <time>2025-06-19T11:22:11.495Z</time>
      </trkpt>
      <trkpt lat="49.07883" lon="2.19398">
        <ele>75.07004</ele>
        <time>2025-06-19T11:22:13.490Z</time>
      </trkpt>
      <trkpt lat="49.07892" lon="2.19405">
        <ele>75.036442</ele>
        <time>2025-06-19T11:22:15.491Z</time>
      </trkpt>
      <trkpt lat="49.07901" lon="2.19413">
        <ele>75.00098</ele>
        <time>2025-06-19T11:22:17.482Z</time>
      </trkpt>
      <trkpt lat="49.07909" lon="2.19422">
        <ele>74.965762</ele>
        <time>2025-06-19T11:22:19.485Z</time>
      </trkpt>
      <trkpt lat="49.07916" lon="2.1943">
        <ele>74.934552</ele>
        <time>2025-06-19T11:22:21.492Z</time>
      </trkpt>
      <trkpt lat="49.07925" lon="2.1944">
        <ele>74.897339</ele>
        <time>2025-06-19T11:22:23.497Z</time>
      </trkpt>
      <trkpt lat="49.07934" lon="2.19449">
        <ele>74.858932</ele>
        <time>2025-06-19T11:22:25.488Z</time>
      </trkpt>
      <trkpt lat="49.07942" lon="2.1946">
        <ele>74.80169</ele>
        <time>2025-06-19T11:22:27.487Z</time>
      </trkpt>
      <trkpt lat="49.0795" lon="2.19471">
        <ele>74.749949</ele>
        <time>2025-06-19T11:22:29.497Z</time>
      </trkpt>
      <trkpt lat="49.07958" lon="2.19482">
        <ele>74.694743</ele>
        <time>2025-06-19T11:22:31.496Z</time>
      </trkpt>
      <trkpt lat="49.07964" lon="2.19493">
        <ele>74.646217</ele>
        <time>2025-06-19T11:22:33.497Z</time>
      </trkpt>
      <trkpt lat="49.07973" lon="2.19504">
        <ele>74.587854</ele>
        <time>2025-06-19T11:22:35.485Z</time>
      </trkpt>
      <trkpt lat="49.0798" lon="2.19516">
        <ele>74.530999</ele>
        <time>2025-06-19T11:22:37.479Z</time>
      </trkpt>
      <trkpt lat="49.07989" lon="2.19528">
        <ele>74.47095</ele>
        <time>2025-06-19T11:22:39.487Z</time>
      </trkpt>
      <trkpt lat="49.07997" lon="2.1954">
        <ele>74.41516</ele>
        <time>2025-06-19T11:22:41.484Z</time>
      </trkpt>
      <trkpt lat="49.08005" lon="2.19552">
        <ele>74.359119</ele>
        <time>2025-06-19T11:22:43.494Z</time>
      </trkpt>
      <trkpt lat="49.08013" lon="2.19562">
        <ele>74.30479</ele>
        <time>2025-06-19T11:22:45.490Z</time>
      </trkpt>
      <trkpt lat="49.08021" lon="2.19573">
        <ele>74.249283</ele>
        <time>2025-06-19T11:22:47.490Z</time>
      </trkpt>
      <trkpt lat="49.0803" lon="2.19583">
        <ele>74.19523</ele>
        <time>2025-06-19T11:22:49.491Z</time>
      </trkpt>
      <trkpt lat="49.08039" lon="2.19593">
        <ele>74.137682</ele>
        <time>2025-06-19T11:22:51.496Z</time>
      </trkpt>
      <trkpt lat="49.08048" lon="2.19602">
        <ele>74.079551</ele>
        <time>2025-06-19T11:22:53.501Z</time>
      </trkpt>
      <trkpt lat="49.08057" lon="2.1961">
        <ele>74.025877</ele>
        <time>2025-06-19T11:22:55.508Z</time>
      </trkpt>
      <trkpt lat="49.08066" lon="2.19619">
        <ele>73.97185</ele>
        <time>2025-06-19T11:22:57.497Z</time>
      </trkpt>
      <trkpt lat="49.08076" lon="2.19626">
        <ele>73.960613</ele>
        <time>2025-06-19T11:22:59.498Z</time>
      </trkpt>
      <trkpt lat="49.08085" lon="2.19633">
        <ele>73.990884</ele>
        <time>2025-06-19T11:23:01.505Z</time>
      </trkpt>
      <trkpt lat="49.08095" lon="2.1964">
        <ele>74.022083</ele>
        <time>2025-06-19T11:23:03.492Z</time>
      </trkpt>
      <trkpt lat="49.08105" lon="2.19647">
        <ele>74.052433</ele>
        <time>2025-06-19T11:23:05.504Z</time>
      </trkpt>
      <trkpt lat="49.08116" lon="2.19654">
        <ele>74.087565</ele>
        <time>2025-06-19T11:23:07.498Z</time>
      </trkpt>
      <trkpt lat="49.08127" lon="2.1966">
        <ele>74.120241</ele>
        <time>2025-06-19T11:23:09.497Z</time>
      </trkpt>
      <trkpt lat="49.08139" lon="2.19666">
        <ele>74.155455</ele>
        <time>2025-06-19T11:23:11.503Z</time>
      </trkpt>
      <trkpt lat="49.0815" lon="2.19672">
        <ele>74.187251</ele>
        <time>2025-06-19T11:23:13.489Z</time>
      </trkpt>
      <trkpt lat="49.08162" lon="2.19678">
        <ele>74.222972</ele>
        <time>2025-06-19T11:23:15.504Z</time>
      </trkpt>
      <trkpt lat="49.08173" lon="2.19682">
        <ele>74.255955</ele>
        <time>2025-06-19T11:23:17.501Z</time>
      </trkpt>
      <trkpt lat="49.08184" lon="2.19685">
        <ele>74.28803</ele>
        <time>2025-06-19T11:23:19.499Z</time>
      </trkpt>
      <trkpt lat="49.08195" lon="2.19688">
        <ele>74.319342</ele>
        <time>2025-06-19T11:23:21.495Z</time>
      </trkpt>
      <trkpt lat="49.08206" lon="2.19692">
        <ele>74.35145</ele>
        <time>2025-06-19T11:23:23.494Z</time>
      </trkpt>
      <trkpt lat="49.08218" lon="2.19694">
        <ele>74.384601</ele>
        <time>2025-06-19T11:23:25.501Z</time>
      </trkpt>
      <trkpt lat="49.08228" lon="2.19697">
        <ele>74.415767</ele>
        <time>2025-06-19T11:23:27.491Z</time>
      </trkpt>
      <trkpt lat="49.0824" lon="2.19701">
        <ele>74.450725</ele>
        <time>2025-06-19T11:23:29.501Z</time>
      </trkpt>
      <trkpt lat="49.08254" lon="2.19704">
        <ele>74.365515</ele>
        <time>2025-06-19T11:23:31.505Z</time>
      </trkpt>
      <trkpt lat="49.08266" lon="2.19706">
        <ele>74.28134</ele>
        <time>2025-06-19T11:23:33.493Z</time>
      </trkpt>
      <trkpt lat="49.08278" lon="2.19707">
        <ele>74.197478</ele>
        <time>2025-06-19T11:23:35.498Z</time>
      </trkpt>
      <trkpt lat="49.08289" lon="2.19709">
        <ele>74.114267</ele>
        <time>2025-06-19T11:23:37.499Z</time>
      </trkpt>
      <trkpt lat="49.08301" lon="2.19711">
        <ele>74.032061</ele>
        <time>2025-06-19T11:23:39.483Z</time>
      </trkpt>
      <trkpt lat="49.0831" lon="2.19711">
        <ele>73.966228</ele>
        <time>2025-06-19T11:23:41.488Z</time>
      </trkpt>
      <trkpt lat="49.08321" lon="2.19712">
        <ele>73.889587</ele>
        <time>2025-06-19T11:23:43.498Z</time>
      </trkpt>
      <trkpt lat="49.0833" lon="2.19713">
        <ele>73.822104</ele>
        <time>2025-06-19T11:23:45.499Z</time>
      </trkpt>
      <trkpt lat="49.08341" lon="2.19715">
        <ele>73.746657</ele>
        <time>2025-06-19T11:23:47.498Z</time>
      </trkpt>
      <trkpt lat="49.08351" lon="2.19718">
        <ele>73.672254</ele>
        <time>2025-06-19T11:23:49.488Z</time>
      </trkpt>
      <trkpt lat="49.08361" lon="2.19721">
        <ele>73.597563</ele>
        <time>2025-06-19T11:23:51.498Z</time>
      </trkpt>
      <trkpt lat="49.08371" lon="2.19724">
        <ele>73.522716</ele>
        <time>2025-06-19T11:23:53.491Z</time>
      </trkpt>
      <trkpt lat="49.08383" lon="2.19726">
        <ele>73.441805</ele>
        <time>2025-06-19T11:23:55.490Z</time>
      </trkpt>
      <trkpt lat="49.08394" lon="2.1973">
        <ele>73.359669</ele>
        <time>2025-06-19T11:23:57.488Z</time>
      </trkpt>
      <trkpt lat="49.08405" lon="2.19733">
        <ele>73.28026</ele>
        <time>2025-06-19T11:23:59.500Z</time>
      </trkpt>
      <trkpt lat="49.08415" lon="2.19736">
        <ele>73.203567</ele>
        <time>2025-06-19T11:24:01.498Z</time>
      </trkpt>
      <trkpt lat="49.08426" lon="2.19739">
        <ele>73.233536</ele>
        <time>2025-06-19T11:24:03.492Z</time>
      </trkpt>
      <trkpt lat="49.08437" lon="2.19742">
        <ele>73.348358</ele>
        <time>2025-06-19T11:24:05.491Z</time>
      </trkpt>
      <trkpt lat="49.08448" lon="2.19745">
        <ele>73.462556</ele>
        <time>2025-06-19T11:24:07.494Z</time>
      </trkpt>
      <trkpt lat="49.08458" lon="2.19748">
        <ele>73.569113</ele>
        <time>2025-06-19T11:24:09.492Z</time>
      </trkpt>
      <trkpt lat="49.08469" lon="2.19751">
        <ele>73.679383</ele>
        <time>2025-06-19T11:24:11.491Z</time>
      </trkpt>
      <trkpt lat="49.08479" lon="2.19753">
        <ele>73.785455</ele>
        <time>2025-06-19T11:24:13.487Z</time>
      </trkpt>
      <trkpt lat="49.08489" lon="2.19756">
        <ele>73.893921</ele>
        <time>2025-06-19T11:24:15.490Z</time>
      </trkpt>
      <trkpt lat="49.08499" lon="2.19759">
        <ele>74.001723</ele>
        <time>2025-06-19T11:24:17.490Z</time>
      </trkpt>
      <trkpt lat="49.08509" lon="2.19761">
        <ele>74.098985</ele>
        <time>2025-06-19T11:24:19.489Z</time>
      </trkpt>
      <trkpt lat="49.08519" lon="2.19761">
        <ele>74.211965</ele>
        <time>2025-06-19T11:24:22.487Z</time>
      </trkpt>
      <trkpt lat="49.0853" lon="2.19757">
        <ele>74.327459</ele>
        <time>2025-06-19T11:24:26.488Z</time>
      </trkpt>
      <trkpt lat="49.08541" lon="2.1975">
        <ele>74.449143</ele>
        <time>2025-06-19T11:24:30.505Z</time>
      </trkpt>
      <trkpt lat="49.08544" lon="2.19733">
        <ele>74.564908</ele>
        <time>2025-06-19T11:24:33.488Z</time>
      </trkpt>
      <trkpt lat="49.08543" lon="2.19714">
        <ele>74.698588</ele>
        <time>2025-06-19T11:24:36.497Z</time>
      </trkpt>
      <trkpt lat="49.08546" lon="2.19695">
        <ele>74.829679</ele>
        <time>2025-06-19T11:24:39.494Z</time>
      </trkpt>
      <trkpt lat="49.0855" lon="2.19682">
        <ele>74.924243</ele>
        <time>2025-06-19T11:24:41.488Z</time>
      </trkpt>
      <trkpt lat="49.08557" lon="2.19668">
        <ele>75.022496</ele>
        <time>2025-06-19T11:24:44.475Z</time>
      </trkpt>
      <trkpt lat="49.08565" lon="2.19658">
        <ele>74.971431</ele>
        <time>2025-06-19T11:24:47.496Z</time>
      </trkpt>
      <trkpt lat="49.08573" lon="2.1965">
        <ele>74.920509</ele>
        <time>2025-06-19T11:24:51.483Z</time>
      </trkpt>
      <trkpt lat="49.08584" lon="2.19647">
        <ele>74.857301</ele>
        <time>2025-06-19T11:24:55.487Z</time>
      </trkpt>
      <trkpt lat="49.08596" lon="2.19651">
        <ele>74.791261</ele>
        <time>2025-06-19T11:24:58.493Z</time>
      </trkpt>
      <trkpt lat="49.08608" lon="2.19655">
        <ele>74.724632</ele>
        <time>2025-06-19T11:25:01.491Z</time>
      </trkpt>
      <trkpt lat="49.08622" lon="2.1966">
        <ele>74.651212</ele>
        <time>2025-06-19T11:25:04.494Z</time>
      </trkpt>
      <trkpt lat="49.08635" lon="2.19663">
        <ele>74.579518</ele>
        <time>2025-06-19T11:25:07.495Z</time>
      </trkpt>
      <trkpt lat="49.08644" lon="2.19665">
        <ele>74.531215</ele>
        <time>2025-06-19T11:25:09.500Z</time>
      </trkpt>
      <trkpt lat="49.08653" lon="2.19668">
        <ele>74.481737</ele>
        <time>2025-06-19T11:25:11.484Z</time>
      </trkpt>
      <trkpt lat="49.08663" lon="2.19669">
        <ele>74.429712</ele>
        <time>2025-06-19T11:25:13.490Z</time>
      </trkpt>
      <trkpt lat="49.08672" lon="2.19671">
        <ele>74.377865</ele>
        <time>2025-06-19T11:25:15.483Z</time>
      </trkpt>
      <trkpt lat="49.08683" lon="2.19671">
        <ele>74.323281</ele>
        <time>2025-06-19T11:25:17.499Z</time>
      </trkpt>
      <trkpt lat="49.08693" lon="2.19672">
        <ele>74.267574</ele>
        <time>2025-06-19T11:25:19.498Z</time>
      </trkpt>
      <trkpt lat="49.08704" lon="2.19671">
        <ele>74.20871</ele>
        <time>2025-06-19T11:25:21.497Z</time>
      </trkpt>
      <trkpt lat="49.08714" lon="2.19673">
        <ele>74.155566</ele>
        <time>2025-06-19T11:25:23.483Z</time>
      </trkpt>
      <trkpt lat="49.08724" lon="2.19673">
        <ele>74.103124</ele>
        <time>2025-06-19T11:25:25.490Z</time>
      </trkpt>
      <trkpt lat="49.08736" lon="2.19674">
        <ele>74.06209</ele>
        <time>2025-06-19T11:25:28.492Z</time>
      </trkpt>
      <trkpt lat="49.08748" lon="2.19676">
        <ele>74.049457</ele>
        <time>2025-06-19T11:25:31.485Z</time>
      </trkpt>
      <trkpt lat="49.08759" lon="2.19681">
        <ele>74.038037</ele>
        <time>2025-06-19T11:25:34.493Z</time>
      </trkpt>
      <trkpt lat="49.08767" lon="2.19687">
        <ele>74.028192</ele>
        <time>2025-06-19T11:25:36.497Z</time>
      </trkpt>
      <trkpt lat="49.08776" lon="2.19691">
        <ele>74.018111</ele>
        <time>2025-06-19T11:25:38.504Z</time>
      </trkpt>
      <trkpt lat="49.08786" lon="2.19698">
        <ele>74.007014</ele>
        <time>2025-06-19T11:25:40.500Z</time>
      </trkpt>
      <trkpt lat="49.08795" lon="2.19702">
        <ele>73.996588</ele>
        <time>2025-06-19T11:25:43.481Z</time>
      </trkpt>
      <trkpt lat="49.08806" lon="2.19707">
        <ele>73.984883</ele>
        <time>2025-06-19T11:25:47.479Z</time>
      </trkpt>
      <trkpt lat="49.08817" lon="2.1971">
        <ele>73.972627</ele>
        <time>2025-06-19T11:25:50.486Z</time>
      </trkpt>
      <trkpt lat="49.08826" lon="2.19713">
        <ele>73.962448</ele>
        <time>2025-06-19T11:25:52.493Z</time>
      </trkpt>
      <trkpt lat="49.08836" lon="2.19716">
        <ele>73.951569</ele>
        <time>2025-06-19T11:25:54.503Z</time>
      </trkpt>
      <trkpt lat="49.08847" lon="2.19719">
        <ele>73.940253</ele>
        <time>2025-06-19T11:25:56.495Z</time>
      </trkpt>
      <trkpt lat="49.08858" lon="2.19723">
        <ele>73.928531</ele>
        <time>2025-06-19T11:25:58.497Z</time>
      </trkpt>
      <trkpt lat="49.08869" lon="2.19724">
        <ele>73.916845</ele>
        <time>2025-06-19T11:26:00.487Z</time>
      </trkpt>
      <trkpt lat="49.08881" lon="2.19722">
        <ele>73.903313</ele>
        <time>2025-06-19T11:26:02.482Z</time>
      </trkpt>
      <trkpt lat="49.08893" lon="2.19721">
        <ele>73.89079</ele>
        <time>2025-06-19T11:26:04.487Z</time>
      </trkpt>
      <trkpt lat="49.08905" lon="2.1972">
        <ele>73.878374</ele>
        <time>2025-06-19T11:26:06.491Z</time>
      </trkpt>
      <trkpt lat="49.08915" lon="2.19721">
        <ele>73.962761</ele>
        <time>2025-06-19T11:26:08.498Z</time>
      </trkpt>
      <trkpt lat="49.08925" lon="2.19721">
        <ele>74.059976</ele>
        <time>2025-06-19T11:26:10.500Z</time>
      </trkpt>
      <trkpt lat="49.08935" lon="2.19723">
        <ele>74.149613</ele>
        <time>2025-06-19T11:26:12.505Z</time>
      </trkpt>
      <trkpt lat="49.08947" lon="2.19728">
        <ele>74.25809</ele>
        <time>2025-06-19T11:26:15.487Z</time>
      </trkpt>
      <trkpt lat="49.08956" lon="2.19727">
        <ele>74.341737</ele>
        <time>2025-06-19T11:26:17.492Z</time>
      </trkpt>
      <trkpt lat="49.08966" lon="2.19729">
        <ele>74.428627</ele>
        <time>2025-06-19T11:26:19.489Z</time>
      </trkpt>
      <trkpt lat="49.08976" lon="2.19731">
        <ele>74.52171</ele>
        <time>2025-06-19T11:26:21.491Z</time>
      </trkpt>
      <trkpt lat="49.08985" lon="2.19733">
        <ele>74.606149</ele>
        <time>2025-06-19T11:26:23.500Z</time>
      </trkpt>
      <trkpt lat="49.08995" lon="2.19736">
        <ele>74.696772</ele>
        <time>2025-06-19T11:26:25.515Z</time>
      </trkpt>
      <trkpt lat="49.09005" lon="2.19742">
        <ele>74.789166</ele>
        <time>2025-06-19T11:26:27.489Z</time>
      </trkpt>
      <trkpt lat="49.09017" lon="2.19746">
        <ele>74.90349</ele>
        <time>2025-06-19T11:26:30.492Z</time>
      </trkpt>
      <trkpt lat="49.09029" lon="2.1975">
        <ele>75.008398</ele>
        <time>2025-06-19T11:26:33.496Z</time>
      </trkpt>
      <trkpt lat="49.09037" lon="2.19754">
        <ele>75.090461</ele>
        <time>2025-06-19T11:26:38.489Z</time>
      </trkpt>
      <trkpt lat="49.09046" lon="2.19757">
        <ele>75.173678</ele>
        <time>2025-06-19T11:26:46.481Z</time>
      </trkpt>
      <trkpt lat="49.09053" lon="2.19745">
        <ele>75.267195</ele>
        <time>2025-06-19T11:26:50.486Z</time>
      </trkpt>
      <trkpt lat="49.09061" lon="2.1973">
        <ele>75.376318</ele>
        <time>2025-06-19T11:26:53.495Z</time>
      </trkpt>
      <trkpt lat="49.09067" lon="2.19719">
        <ele>75.465907</ele>
        <time>2025-06-19T11:26:55.500Z</time>
      </trkpt>
      <trkpt lat="49.09074" lon="2.19709">
        <ele>75.497429</ele>
        <time>2025-06-19T11:26:57.496Z</time>
      </trkpt>
      <trkpt lat="49.09084" lon="2.19696">
        <ele>75.502324</ele>
        <time>2025-06-19T11:27:00.496Z</time>
      </trkpt>
      <trkpt lat="49.09094" lon="2.19685">
        <ele>75.507045</ele>
        <time>2025-06-19T11:27:03.502Z</time>
      </trkpt>
      <trkpt lat="49.09102" lon="2.19678">
        <ele>75.510455</ele>
        <time>2025-06-19T11:27:05.497Z</time>
      </trkpt>
      <trkpt lat="49.09109" lon="2.1967">
        <ele>75.513869</ele>
        <time>2025-06-19T11:27:07.500Z</time>
      </trkpt>
      <trkpt lat="49.09118" lon="2.19664">
        <ele>75.517366</ele>
        <time>2025-06-19T11:27:09.500Z</time>
      </trkpt>
      <trkpt lat="49.09127" lon="2.19659">
        <ele>75.520954</ele>
        <time>2025-06-19T11:27:11.502Z</time>
      </trkpt>
      <trkpt lat="49.09137" lon="2.19654">
        <ele>75.524809</ele>
        <time>2025-06-19T11:27:13.479Z</time>
      </trkpt>
      <trkpt lat="49.09146" lon="2.19647">
        <ele>75.528621</ele>
        <time>2025-06-19T11:27:15.499Z</time>
      </trkpt>
      <trkpt lat="49.09154" lon="2.19637">
        <ele>75.532464</ele>
        <time>2025-06-19T11:27:17.485Z</time>
      </trkpt>
      <trkpt lat="49.09162" lon="2.19627">
        <ele>75.536336</ele>
        <time>2025-06-19T11:27:19.492Z</time>
      </trkpt>
      <trkpt lat="49.0917" lon="2.19615">
        <ele>75.540497</ele>
        <time>2025-06-19T11:27:21.497Z</time>
      </trkpt>
      <trkpt lat="49.09177" lon="2.19603">
        <ele>75.5443</ele>
        <time>2025-06-19T11:27:23.488Z</time>
      </trkpt>
      <trkpt lat="49.09183" lon="2.19591">
        <ele>75.547885</ele>
        <time>2025-06-19T11:27:25.494Z</time>
      </trkpt>
      <trkpt lat="49.09189" lon="2.19578">
        <ele>75.551863</ele>
        <time>2025-06-19T11:27:27.498Z</time>
      </trkpt>
      <trkpt lat="49.09196" lon="2.19566">
        <ele>75.55585</ele>
        <time>2025-06-19T11:27:29.506Z</time>
      </trkpt>
      <trkpt lat="49.09204" lon="2.19557">
        <ele>75.559577</ele>
        <time>2025-06-19T11:27:31.489Z</time>
      </trkpt>
      <trkpt lat="49.09214" lon="2.19549">
        <ele>75.499424</ele>
        <time>2025-06-19T11:27:33.490Z</time>
      </trkpt>
      <trkpt lat="49.09224" lon="2.19539">
        <ele>75.290575</ele>
        <time>2025-06-19T11:27:35.497Z</time>
      </trkpt>
      <trkpt lat="49.09236" lon="2.19529">
        <ele>75.045494</ele>
        <time>2025-06-19T11:27:37.503Z</time>
      </trkpt>
      <trkpt lat="49.0925" lon="2.19518">
        <ele>74.778082</ele>
        <time>2025-06-19T11:27:39.490Z</time>
      </trkpt>
      <trkpt lat="49.09264" lon="2.19508">
        <ele>74.523262</ele>
        <time>2025-06-19T11:27:41.488Z</time>
      </trkpt>
      <trkpt lat="49.09277" lon="2.19499">
        <ele>74.273423</ele>
        <time>2025-06-19T11:27:43.503Z</time>
      </trkpt>
      <trkpt lat="49.09291" lon="2.19495">
        <ele>74.036219</ele>
        <time>2025-06-19T11:27:45.490Z</time>
      </trkpt>
      <trkpt lat="49.09306" lon="2.19499">
        <ele>73.768949</ele>
        <time>2025-06-19T11:27:47.492Z</time>
      </trkpt>
      <trkpt lat="49.0932" lon="2.19504">
        <ele>73.514589</ele>
        <time>2025-06-19T11:27:49.498Z</time>
      </trkpt>
      <trkpt lat="49.09331" lon="2.19509">
        <ele>73.321381</ele>
        <time>2025-06-19T11:27:51.512Z</time>
      </trkpt>
      <trkpt lat="49.09345" lon="2.19503">
        <ele>73.079834</ele>
        <time>2025-06-19T11:27:54.498Z</time>
      </trkpt>
      <trkpt lat="49.09354" lon="2.19492">
        <ele>72.875154</ele>
        <time>2025-06-19T11:27:56.487Z</time>
      </trkpt>
      <trkpt lat="49.09364" lon="2.19481">
        <ele>72.673869</ele>
        <time>2025-06-19T11:27:58.494Z</time>
      </trkpt>
      <trkpt lat="49.09372" lon="2.19468">
        <ele>72.493472</ele>
        <time>2025-06-19T11:28:00.488Z</time>
      </trkpt>
      <trkpt lat="49.09381" lon="2.19455">
        <ele>72.617903</ele>
        <time>2025-06-19T11:28:02.493Z</time>
      </trkpt>
      <trkpt lat="49.09389" lon="2.19441">
        <ele>72.737782</ele>
        <time>2025-06-19T11:28:04.491Z</time>
      </trkpt>
      <trkpt lat="49.09395" lon="2.19424">
        <ele>72.866096</ele>
        <time>2025-06-19T11:28:06.485Z</time>
      </trkpt>
      <trkpt lat="49.094" lon="2.19407">
        <ele>72.987247</ele>
        <time>2025-06-19T11:28:08.490Z</time>
      </trkpt>
      <trkpt lat="49.09403" lon="2.1939">
        <ele>73.10354</ele>
        <time>2025-06-19T11:28:10.492Z</time>
      </trkpt>
      <trkpt lat="49.09406" lon="2.19374">
        <ele>73.215048</ele>
        <time>2025-06-19T11:28:12.489Z</time>
      </trkpt>
      <trkpt lat="49.09407" lon="2.19357">
        <ele>73.329409</ele>
        <time>2025-06-19T11:28:14.498Z</time>
      </trkpt>
      <trkpt lat="49.09406" lon="2.1934">
        <ele>73.442616</ele>
        <time>2025-06-19T11:28:16.486Z</time>
      </trkpt>
      <trkpt lat="49.09405" lon="2.19324">
        <ele>73.547636</ele>
        <time>2025-06-19T11:28:18.483Z</time>
      </trkpt>
      <trkpt lat="49.09405" lon="2.19307">
        <ele>73.654535</ele>
        <time>2025-06-19T11:28:20.500Z</time>
      </trkpt>
      <trkpt lat="49.09406" lon="2.19291">
        <ele>73.761932</ele>
        <time>2025-06-19T11:28:22.486Z</time>
      </trkpt>
      <trkpt lat="49.09411" lon="2.19276">
        <ele>73.870555</ele>
        <time>2025-06-19T11:28:24.480Z</time>
      </trkpt>
      <trkpt lat="49.0942" lon="2.19268">
        <ele>73.981431</ele>
        <time>2025-06-19T11:28:26.501Z</time>
      </trkpt>
      <trkpt lat="49.0943" lon="2.19259">
        <ele>74.09908</ele>
        <time>2025-06-19T11:28:28.489Z</time>
      </trkpt>
      <trkpt lat="49.0944" lon="2.1925">
        <ele>74.214431</ele>
        <time>2025-06-19T11:28:30.481Z</time>
      </trkpt>
      <trkpt lat="49.09451" lon="2.19243">
        <ele>74.357395</ele>
        <time>2025-06-19T11:28:32.488Z</time>
      </trkpt>
      <trkpt lat="49.09461" lon="2.19234">
        <ele>74.55146</ele>
        <time>2025-06-19T11:28:34.500Z</time>
      </trkpt>
      <trkpt lat="49.09472" lon="2.19224">
        <ele>74.749899</ele>
        <time>2025-06-19T11:28:36.494Z</time>
      </trkpt>
      <trkpt lat="49.09482" lon="2.19215">
        <ele>74.938543</ele>
        <time>2025-06-19T11:28:38.501Z</time>
      </trkpt>
      <trkpt lat="49.09493" lon="2.19207">
        <ele>75.129459</ele>
        <time>2025-06-19T11:28:40.494Z</time>
      </trkpt>
      <trkpt lat="49.09505" lon="2.19198">
        <ele>75.348183</ele>
        <time>2025-06-19T11:28:42.488Z</time>
      </trkpt>
      <trkpt lat="49.09515" lon="2.1919">
        <ele>75.531895</ele>
        <time>2025-06-19T11:28:44.487Z</time>
      </trkpt>
      <trkpt lat="49.09525" lon="2.1918">
        <ele>75.723712</ele>
        <time>2025-06-19T11:28:46.478Z</time>
      </trkpt>
      <trkpt lat="49.09536" lon="2.19171">
        <ele>75.917105</ele>
        <time>2025-06-19T11:28:48.492Z</time>
      </trkpt>
      <trkpt lat="49.09547" lon="2.19164">
        <ele>76.118891</ele>
        <time>2025-06-19T11:28:50.484Z</time>
      </trkpt>
      <trkpt lat="49.09557" lon="2.19156">
        <ele>76.300741</ele>
        <time>2025-06-19T11:28:52.504Z</time>
      </trkpt>
      <trkpt lat="49.09568" lon="2.19148">
        <ele>76.49455</ele>
        <time>2025-06-19T11:28:54.495Z</time>
      </trkpt>
      <trkpt lat="49.09577" lon="2.19137">
        <ele>76.677442</ele>
        <time>2025-06-19T11:28:56.479Z</time>
      </trkpt>
      <trkpt lat="49.09585" lon="2.19128">
        <ele>76.845558</ele>
        <time>2025-06-19T11:28:58.487Z</time>
      </trkpt>
      <trkpt lat="49.09591" lon="2.19115">
        <ele>77.004784</ele>
        <time>2025-06-19T11:29:00.482Z</time>
      </trkpt>
      <trkpt lat="49.09593" lon="2.191">
        <ele>77.169131</ele>
        <time>2025-06-19T11:29:02.474Z</time>
      </trkpt>
      <trkpt lat="49.09596" lon="2.19086">
        <ele>77.165556</ele>
        <time>2025-06-19T11:29:04.478Z</time>
      </trkpt>
      <trkpt lat="49.09601" lon="2.19071">
        <ele>77.120787</ele>
        <time>2025-06-19T11:29:06.479Z</time>
      </trkpt>
      <trkpt lat="49.09606" lon="2.19059">
        <ele>77.078802</ele>
        <time>2025-06-19T11:29:08.484Z</time>
      </trkpt>
      <trkpt lat="49.09613" lon="2.19047">
        <ele>77.034267</ele>
        <time>2025-06-19T11:29:10.488Z</time>
      </trkpt>
      <trkpt lat="49.0962" lon="2.19038">
        <ele>76.994095</ele>
        <time>2025-06-19T11:29:12.492Z</time>
      </trkpt>
      <trkpt lat="49.09627" lon="2.19028">
        <ele>76.953837</ele>
        <time>2025-06-19T11:29:14.489Z</time>
      </trkpt>
      <trkpt lat="49.09637" lon="2.19016">
        <ele>76.896863</ele>
        <time>2025-06-19T11:29:17.482Z</time>
      </trkpt>
      <trkpt lat="49.09645" lon="2.19006">
        <ele>76.853318</ele>
        <time>2025-06-19T11:29:19.479Z</time>
      </trkpt>
      <trkpt lat="49.09653" lon="2.18994">
        <ele>76.807047</ele>
        <time>2025-06-19T11:29:21.496Z</time>
      </trkpt>
      <trkpt lat="49.0966" lon="2.18983">
        <ele>76.763016</ele>
        <time>2025-06-19T11:29:23.492Z</time>
      </trkpt>
      <trkpt lat="49.09668" lon="2.18972">
        <ele>76.715856</ele>
        <time>2025-06-19T11:29:25.488Z</time>
      </trkpt>
      <trkpt lat="49.09676" lon="2.18961">
        <ele>76.668697</ele>
        <time>2025-06-19T11:29:27.491Z</time>
      </trkpt>
      <trkpt lat="49.09684" lon="2.18949">
        <ele>76.622253</ele>
        <time>2025-06-19T11:29:29.487Z</time>
      </trkpt>
      <trkpt lat="49.09692" lon="2.1894">
        <ele>76.578627</ele>
        <time>2025-06-19T11:29:31.490Z</time>
      </trkpt>
      <trkpt lat="49.097" lon="2.18931">
        <ele>76.534272</ele>
        <time>2025-06-19T11:29:33.489Z</time>
      </trkpt>
      <trkpt lat="49.09708" lon="2.18922">
        <ele>76.494246</ele>
        <time>2025-06-19T11:29:35.494Z</time>
      </trkpt>
      <trkpt lat="49.09715" lon="2.18913">
        <ele>76.453169</ele>
        <time>2025-06-19T11:29:37.480Z</time>
      </trkpt>
      <trkpt lat="49.09724" lon="2.18907">
        <ele>76.399962</ele>
        <time>2025-06-19T11:29:39.483Z</time>
      </trkpt>
      <trkpt lat="49.09735" lon="2.18901">
        <ele>76.323885</ele>
        <time>2025-06-19T11:29:41.485Z</time>
      </trkpt>
      <trkpt lat="49.09744" lon="2.18893">
        <ele>76.246265</ele>
        <time>2025-06-19T11:29:43.494Z</time>
      </trkpt>
      <trkpt lat="49.09753" lon="2.18885">
        <ele>76.178355</ele>
        <time>2025-06-19T11:29:45.486Z</time>
      </trkpt>
      <trkpt lat="49.09762" lon="2.18877">
        <ele>76.100697</ele>
        <time>2025-06-19T11:29:47.486Z</time>
      </trkpt>
      <trkpt lat="49.09771" lon="2.18867">
        <ele>76.024324</ele>
        <time>2025-06-19T11:29:49.490Z</time>
      </trkpt>
      <trkpt lat="49.0978" lon="2.18858">
        <ele>75.947692</ele>
        <time>2025-06-19T11:29:51.482Z</time>
      </trkpt>
      <trkpt lat="49.0979" lon="2.18847">
        <ele>75.863066</ele>
        <time>2025-06-19T11:29:53.480Z</time>
      </trkpt>
      <trkpt lat="49.09799" lon="2.18834">
        <ele>75.775681</ele>
        <time>2025-06-19T11:29:55.482Z</time>
      </trkpt>
      <trkpt lat="49.09806" lon="2.18821">
        <ele>75.699544</ele>
        <time>2025-06-19T11:29:57.484Z</time>
      </trkpt>
      <trkpt lat="49.09812" lon="2.18809">
        <ele>75.630661</ele>
        <time>2025-06-19T11:29:59.488Z</time>
      </trkpt>
      <trkpt lat="49.09816" lon="2.18795">
        <ele>75.55903</ele>
        <time>2025-06-19T11:30:01.482Z</time>
      </trkpt>
      <trkpt lat="49.09821" lon="2.1878">
        <ele>75.481822</ele>
        <time>2025-06-19T11:30:03.477Z</time>
      </trkpt>
      <trkpt lat="49.09828" lon="2.18765">
        <ele>75.39894</ele>
        <time>2025-06-19T11:30:05.493Z</time>
      </trkpt>
      <trkpt lat="49.09832" lon="2.18748">
        <ele>75.314578</ele>
        <time>2025-06-19T11:30:07.494Z</time>
      </trkpt>
      <trkpt lat="49.09838" lon="2.18731">
        <ele>75.229649</ele>
        <time>2025-06-19T11:30:09.477Z</time>
      </trkpt>
      <trkpt lat="49.09842" lon="2.18715">
        <ele>75.167465</ele>
        <time>2025-06-19T11:30:11.482Z</time>
      </trkpt>
      <trkpt lat="49.09846" lon="2.18698">
        <ele>75.174632</ele>
        <time>2025-06-19T11:30:13.488Z</time>
      </trkpt>
      <trkpt lat="49.0985" lon="2.18681">
        <ele>75.181971</ele>
        <time>2025-06-19T11:30:15.481Z</time>
      </trkpt>
      <trkpt lat="49.09855" lon="2.18665">
        <ele>75.189027</ele>
        <time>2025-06-19T11:30:17.481Z</time>
      </trkpt>
      <trkpt lat="49.09861" lon="2.1865">
        <ele>75.196172</ele>
        <time>2025-06-19T11:30:19.478Z</time>
      </trkpt>
      <trkpt lat="49.09868" lon="2.18634">
        <ele>75.203821</ele>
        <time>2025-06-19T11:30:21.490Z</time>
      </trkpt>
      <trkpt lat="49.09875" lon="2.18618">
        <ele>75.211403</ele>
        <time>2025-06-19T11:30:23.492Z</time>
      </trkpt>
      <trkpt lat="49.09883" lon="2.18604">
        <ele>75.218788</ele>
        <time>2025-06-19T11:30:25.476Z</time>
      </trkpt>
      <trkpt lat="49.09891" lon="2.18589">
        <ele>75.226514</ele>
        <time>2025-06-19T11:30:27.720Z</time>
      </trkpt>
      <trkpt lat="49.09898" lon="2.18575">
        <ele>75.233885</ele>
        <time>2025-06-19T11:30:29.717Z</time>
      </trkpt>
      <trkpt lat="49.09906" lon="2.18561">
        <ele>75.24089</ele>
        <time>2025-06-19T11:30:31.717Z</time>
      </trkpt>
      <trkpt lat="49.09913" lon="2.18548">
        <ele>75.24824</ele>
        <time>2025-06-19T11:30:33.720Z</time>
      </trkpt>
      <trkpt lat="49.09921" lon="2.18534">
        <ele>75.255524</ele>
        <time>2025-06-19T11:30:35.716Z</time>
      </trkpt>
      <trkpt lat="49.09929" lon="2.18521">
        <ele>75.262577</ele>
        <time>2025-06-19T11:30:37.722Z</time>
      </trkpt>
      <trkpt lat="49.09936" lon="2.18507">
        <ele>75.269655</ele>
        <time>2025-06-19T11:30:39.718Z</time>
      </trkpt>
      <trkpt lat="49.09944" lon="2.18495">
        <ele>75.276041</ele>
        <time>2025-06-19T11:30:41.720Z</time>
      </trkpt>
      <trkpt lat="49.09952" lon="2.18482">
        <ele>75.274994</ele>
        <time>2025-06-19T11:30:43.721Z</time>
      </trkpt>
      <trkpt lat="49.09959" lon="2.1847">
        <ele>75.273973</ele>
        <time>2025-06-19T11:30:45.724Z</time>
      </trkpt>
      <trkpt lat="49.09967" lon="2.18458">
        <ele>75.273003</ele>
        <time>2025-06-19T11:30:47.719Z</time>
      </trkpt>
      <trkpt lat="49.09974" lon="2.18446">
        <ele>75.272011</ele>
        <time>2025-06-19T11:30:49.728Z</time>
      </trkpt>
      <trkpt lat="49.09983" lon="2.18435">
        <ele>75.270984</ele>
        <time>2025-06-19T11:30:51.723Z</time>
      </trkpt>
      <trkpt lat="49.09992" lon="2.18423">
        <ele>75.269838</ele>
        <time>2025-06-19T11:30:53.726Z</time>
      </trkpt>
      <trkpt lat="49.1" lon="2.18409">
        <ele>75.268724</ele>
        <time>2025-06-19T11:30:55.730Z</time>
      </trkpt>
      <trkpt lat="49.10008" lon="2.18397">
        <ele>75.267669</ele>
        <time>2025-06-19T11:30:57.718Z</time>
      </trkpt>
      <trkpt lat="49.10016" lon="2.18385">
        <ele>75.266656</ele>
        <time>2025-06-19T11:30:59.720Z</time>
      </trkpt>
      <trkpt lat="49.10024" lon="2.18373">
        <ele>75.265613</ele>
        <time>2025-06-19T11:31:01.718Z</time>
      </trkpt>
      <trkpt lat="49.10032" lon="2.1836">
        <ele>75.264531</ele>
        <time>2025-06-19T11:31:03.720Z</time>
      </trkpt>
      <trkpt lat="49.10041" lon="2.18348">
        <ele>75.26342</ele>
        <time>2025-06-19T11:31:05.722Z</time>
      </trkpt>
      <trkpt lat="49.1005" lon="2.18337">
        <ele>75.262377</ele>
        <time>2025-06-19T11:31:07.719Z</time>
      </trkpt>
      <trkpt lat="49.10059" lon="2.18327">
        <ele>75.26136</ele>
        <time>2025-06-19T11:31:09.720Z</time>
      </trkpt>
      <trkpt lat="49.10068" lon="2.18317">
        <ele>75.260318</ele>
        <time>2025-06-19T11:31:11.721Z</time>
      </trkpt>
      <trkpt lat="49.10077" lon="2.18308">
        <ele>75.289634</ele>
        <time>2025-06-19T11:31:13.721Z</time>
      </trkpt>
      <trkpt lat="49.10086" lon="2.18301">
        <ele>75.463854</ele>
        <time>2025-06-19T11:31:15.722Z</time>
      </trkpt>
      <trkpt lat="49.10094" lon="2.18292">
        <ele>75.628236</ele>
        <time>2025-06-19T11:31:17.725Z</time>
      </trkpt>
      <trkpt lat="49.10102" lon="2.18285">
        <ele>75.79178</ele>
        <time>2025-06-19T11:31:19.734Z</time>
      </trkpt>
      <trkpt lat="49.10111" lon="2.18279">
        <ele>75.952165</ele>
        <time>2025-06-19T11:31:21.729Z</time>
      </trkpt>
      <trkpt lat="49.10119" lon="2.18272">
        <ele>76.109539</ele>
        <time>2025-06-19T11:31:23.721Z</time>
      </trkpt>
      <trkpt lat="49.10127" lon="2.18266">
        <ele>76.27044</ele>
        <time>2025-06-19T11:31:25.720Z</time>
      </trkpt>
      <trkpt lat="49.10136" lon="2.18258">
        <ele>76.441162</ele>
        <time>2025-06-19T11:31:27.718Z</time>
      </trkpt>
      <trkpt lat="49.10144" lon="2.18251">
        <ele>76.60231</ele>
        <time>2025-06-19T11:31:29.728Z</time>
      </trkpt>
      <trkpt lat="49.10154" lon="2.18244">
        <ele>76.779869</ele>
        <time>2025-06-19T11:31:31.723Z</time>
      </trkpt>
      <trkpt lat="49.10163" lon="2.18236">
        <ele>76.962445</ele>
        <time>2025-06-19T11:31:33.717Z</time>
      </trkpt>
      <trkpt lat="49.10173" lon="2.18229">
        <ele>77.138478</ele>
        <time>2025-06-19T11:31:35.719Z</time>
      </trkpt>
      <trkpt lat="49.10183" lon="2.18223">
        <ele>77.328435</ele>
        <time>2025-06-19T11:31:37.727Z</time>
      </trkpt>
      <trkpt lat="49.10193" lon="2.18219">
        <ele>77.509009</ele>
        <time>2025-06-19T11:31:39.719Z</time>
      </trkpt>
      <trkpt lat="49.10203" lon="2.18218">
        <ele>77.677189</ele>
        <time>2025-06-19T11:31:41.721Z</time>
      </trkpt>
      <trkpt lat="49.10213" lon="2.18219">
        <ele>77.843714</ele>
        <time>2025-06-19T11:31:43.720Z</time>
      </trkpt>
      <trkpt lat="49.10222" lon="2.18219">
        <ele>77.996667</ele>
        <time>2025-06-19T11:31:45.725Z</time>
      </trkpt>
      <trkpt lat="49.10232" lon="2.1822">
        <ele>78.163061</ele>
        <time>2025-06-19T11:31:47.728Z</time>
      </trkpt>
      <trkpt lat="49.10241" lon="2.18216">
        <ele>78.318686</ele>
        <time>2025-06-19T11:31:49.717Z</time>
      </trkpt>
      <trkpt lat="49.10248" lon="2.18208">
        <ele>78.43537</ele>
        <time>2025-06-19T11:31:51.717Z</time>
      </trkpt>
      <trkpt lat="49.10257" lon="2.18194">
        <ele>78.587554</ele>
        <time>2025-06-19T11:31:54.713Z</time>
      </trkpt>
      <trkpt lat="49.10264" lon="2.18181">
        <ele>78.733252</ele>
        <time>2025-06-19T11:31:57.721Z</time>
      </trkpt>
      <trkpt lat="49.10275" lon="2.18173">
        <ele>78.882379</ele>
        <time>2025-06-19T11:32:00.719Z</time>
      </trkpt>
      <trkpt lat="49.10288" lon="2.18176">
        <ele>79.044173</ele>
        <time>2025-06-19T11:32:03.723Z</time>
      </trkpt>
      <trkpt lat="49.10297" lon="2.18181">
        <ele>79.159521</ele>
        <time>2025-06-19T11:32:05.714Z</time>
      </trkpt>
      <trkpt lat="49.10305" lon="2.18187">
        <ele>79.273398</ele>
        <time>2025-06-19T11:32:07.717Z</time>
      </trkpt>
      <trkpt lat="49.10314" lon="2.18193">
        <ele>79.392207</ele>
        <time>2025-06-19T11:32:09.728Z</time>
      </trkpt>
      <trkpt lat="49.10322" lon="2.18199">
        <ele>79.511313</ele>
        <time>2025-06-19T11:32:11.723Z</time>
      </trkpt>
      <trkpt lat="49.10331" lon="2.18206">
        <ele>79.637123</ele>
        <time>2025-06-19T11:32:13.725Z</time>
      </trkpt>
      <trkpt lat="49.10339" lon="2.18213">
        <ele>79.754034</ele>
        <time>2025-06-19T11:32:15.725Z</time>
      </trkpt>
      <trkpt lat="49.10348" lon="2.18219">
        <ele>79.869444</ele>
        <time>2025-06-19T11:32:17.725Z</time>
      </trkpt>
      <trkpt lat="49.10357" lon="2.18226">
        <ele>79.994536</ele>
        <time>2025-06-19T11:32:19.728Z</time>
      </trkpt>
      <trkpt lat="49.10366" lon="2.1823">
        <ele>80.12468</ele>
        <time>2025-06-19T11:32:21.722Z</time>
      </trkpt>
      <trkpt lat="49.10376" lon="2.18233">
        <ele>80.250834</ele>
        <time>2025-06-19T11:32:23.724Z</time>
      </trkpt>
      <trkpt lat="49.10386" lon="2.18234">
        <ele>80.372772</ele>
        <time>2025-06-19T11:32:25.728Z</time>
      </trkpt>
      <trkpt lat="49.10397" lon="2.18235">
        <ele>80.507001</ele>
        <time>2025-06-19T11:32:28.724Z</time>
      </trkpt>
      <trkpt lat="49.10408" lon="2.18238">
        <ele>80.682907</ele>
        <time>2025-06-19T11:32:31.723Z</time>
      </trkpt>
      <trkpt lat="49.10422" lon="2.1824">
        <ele>80.917735</ele>
        <time>2025-06-19T11:32:34.726Z</time>
      </trkpt>
      <trkpt lat="49.10431" lon="2.18241">
        <ele>81.076073</ele>
        <time>2025-06-19T11:32:36.722Z</time>
      </trkpt>
      <trkpt lat="49.10444" lon="2.18242">
        <ele>81.291811</ele>
        <time>2025-06-19T11:32:39.721Z</time>
      </trkpt>
      <trkpt lat="49.10456" lon="2.18244">
        <ele>81.493231</ele>
        <time>2025-06-19T11:32:42.726Z</time>
      </trkpt>
      <trkpt lat="49.10467" lon="2.18246">
        <ele>81.677202</ele>
        <time>2025-06-19T11:32:45.716Z</time>
      </trkpt>
      <trkpt lat="49.10478" lon="2.18242">
        <ele>81.871724</ele>
        <time>2025-06-19T11:32:48.719Z</time>
      </trkpt>
      <trkpt lat="49.10488" lon="2.18234">
        <ele>82.070215</ele>
        <time>2025-06-19T11:32:50.722Z</time>
      </trkpt>
      <trkpt lat="49.10497" lon="2.18221">
        <ele>82.280461</ele>
        <time>2025-06-19T11:32:53.714Z</time>
      </trkpt>
      <trkpt lat="49.10505" lon="2.18212">
        <ele>82.437501</ele>
        <time>2025-06-19T11:32:55.714Z</time>
      </trkpt>
      <trkpt lat="49.10515" lon="2.182">
        <ele>82.657809</ele>
        <time>2025-06-19T11:32:58.725Z</time>
      </trkpt>
      <trkpt lat="49.10524" lon="2.18188">
        <ele>82.862697</ele>
        <time>2025-06-19T11:33:01.724Z</time>
      </trkpt>
      <trkpt lat="49.10535" lon="2.18178">
        <ele>83.071326</ele>
        <time>2025-06-19T11:33:04.721Z</time>
      </trkpt>
      <trkpt lat="49.10546" lon="2.18169">
        <ele>83.292993</ele>
        <time>2025-06-19T11:33:07.720Z</time>
      </trkpt>
      <trkpt lat="49.10554" lon="2.18162">
        <ele>83.447841</ele>
        <time>2025-06-19T11:33:09.721Z</time>
      </trkpt>
      <trkpt lat="49.10562" lon="2.18154">
        <ele>83.604963</ele>
        <time>2025-06-19T11:33:11.720Z</time>
      </trkpt>
      <trkpt lat="49.1057" lon="2.18146">
        <ele>83.654349</ele>
        <time>2025-06-19T11:33:13.719Z</time>
      </trkpt>
      <trkpt lat="49.10578" lon="2.18136">
        <ele>83.697433</ele>
        <time>2025-06-19T11:33:15.725Z</time>
      </trkpt>
      <trkpt lat="49.10586" lon="2.18125">
        <ele>83.742355</ele>
        <time>2025-06-19T11:33:17.720Z</time>
      </trkpt>
      <trkpt lat="49.10594" lon="2.18115">
        <ele>83.786925</ele>
        <time>2025-06-19T11:33:19.720Z</time>
      </trkpt>
      <trkpt lat="49.10601" lon="2.18102">
        <ele>83.832378</ele>
        <time>2025-06-19T11:33:21.734Z</time>
      </trkpt>
      <trkpt lat="49.10608" lon="2.18091">
        <ele>83.873857</ele>
        <time>2025-06-19T11:33:23.732Z</time>
      </trkpt>
      <trkpt lat="49.10615" lon="2.1808">
        <ele>83.916138</ele>
        <time>2025-06-19T11:33:25.726Z</time>
      </trkpt>
      <trkpt lat="49.10622" lon="2.18068">
        <ele>83.959308</ele>
        <time>2025-06-19T11:33:27.722Z</time>
      </trkpt>
      <trkpt lat="49.10629" lon="2.18057">
        <ele>83.999186</ele>
        <time>2025-06-19T11:33:29.727Z</time>
      </trkpt>
      <trkpt lat="49.10635" lon="2.18046">
        <ele>84.0379</ele>
        <time>2025-06-19T11:33:31.730Z</time>
      </trkpt>
      <trkpt lat="49.10642" lon="2.18036">
        <ele>84.080066</ele>
        <time>2025-06-19T11:33:33.726Z</time>
      </trkpt>
      <trkpt lat="49.10649" lon="2.18025">
        <ele>84.122508</ele>
        <time>2025-06-19T11:33:35.718Z</time>
      </trkpt>
      <trkpt lat="49.10656" lon="2.18014">
        <ele>84.163788</ele>
        <time>2025-06-19T11:33:37.723Z</time>
      </trkpt>
      <trkpt lat="49.10663" lon="2.18002">
        <ele>84.207009</ele>
        <time>2025-06-19T11:33:39.710Z</time>
      </trkpt>
      <trkpt lat="49.10671" lon="2.17992">
        <ele>84.249536</ele>
        <time>2025-06-19T11:33:41.729Z</time>
      </trkpt>
      <trkpt lat="49.10678" lon="2.17981">
        <ele>84.292762</ele>
        <time>2025-06-19T11:33:43.724Z</time>
      </trkpt>
      <trkpt lat="49.10685" lon="2.1797">
        <ele>84.335397</ele>
        <time>2025-06-19T11:33:45.725Z</time>
      </trkpt>
      <trkpt lat="49.10691" lon="2.17957">
        <ele>84.425676</ele>
        <time>2025-06-19T11:33:47.724Z</time>
      </trkpt>
      <trkpt lat="49.10698" lon="2.17945">
        <ele>84.639571</ele>
        <time>2025-06-19T11:33:49.726Z</time>
      </trkpt>
      <trkpt lat="49.10705" lon="2.17932">
        <ele>84.857826</ele>
        <time>2025-06-19T11:33:51.713Z</time>
      </trkpt>
      <trkpt lat="49.1071" lon="2.1792">
        <ele>85.056502</ele>
        <time>2025-06-19T11:33:53.721Z</time>
      </trkpt>
      <trkpt lat="49.10716" lon="2.17906">
        <ele>85.269858</ele>
        <time>2025-06-19T11:33:55.730Z</time>
      </trkpt>
      <trkpt lat="49.10722" lon="2.17893">
        <ele>85.481943</ele>
        <time>2025-06-19T11:33:57.721Z</time>
      </trkpt>
      <trkpt lat="49.10727" lon="2.17881">
        <ele>85.688344</ele>
        <time>2025-06-19T11:33:59.717Z</time>
      </trkpt>
      <trkpt lat="49.10733" lon="2.17869">
        <ele>85.886354</ele>
        <time>2025-06-19T11:34:01.723Z</time>
      </trkpt>
      <trkpt lat="49.1074" lon="2.17858">
        <ele>86.089198</ele>
        <time>2025-06-19T11:34:03.721Z</time>
      </trkpt>
      <trkpt lat="49.10747" lon="2.17847">
        <ele>86.294423</ele>
        <time>2025-06-19T11:34:05.717Z</time>
      </trkpt>
      <trkpt lat="49.10754" lon="2.17835">
        <ele>86.508229</ele>
        <time>2025-06-19T11:34:07.719Z</time>
      </trkpt>
      <trkpt lat="49.10761" lon="2.17826">
        <ele>86.695803</ele>
        <time>2025-06-19T11:34:09.725Z</time>
      </trkpt>
      <trkpt lat="49.10768" lon="2.17817">
        <ele>86.896001</ele>
        <time>2025-06-19T11:34:11.724Z</time>
      </trkpt>
      <trkpt lat="49.10776" lon="2.17809">
        <ele>87.080899</ele>
        <time>2025-06-19T11:34:13.731Z</time>
      </trkpt>
      <trkpt lat="49.10785" lon="2.17802">
        <ele>87.283977</ele>
        <time>2025-06-19T11:34:15.720Z</time>
      </trkpt>
      <trkpt lat="49.10793" lon="2.17794">
        <ele>87.479805</ele>
        <time>2025-06-19T11:34:17.714Z</time>
      </trkpt>
      <trkpt lat="49.108" lon="2.17784">
        <ele>87.684365</ele>
        <time>2025-06-19T11:34:19.726Z</time>
      </trkpt>
      <trkpt lat="49.10808" lon="2.17774">
        <ele>87.881473</ele>
        <time>2025-06-19T11:34:21.735Z</time>
      </trkpt>
      <trkpt lat="49.1082" lon="2.1776">
        <ele>88.136188</ele>
        <time>2025-06-19T11:34:24.722Z</time>
      </trkpt>
      <trkpt lat="49.10828" lon="2.17753">
        <ele>88.247538</ele>
        <time>2025-06-19T11:34:26.717Z</time>
      </trkpt>
      <trkpt lat="49.10836" lon="2.17743">
        <ele>88.371125</ele>
        <time>2025-06-19T11:34:28.733Z</time>
      </trkpt>
      <trkpt lat="49.10847" lon="2.17731">
        <ele>88.542397</ele>
        <time>2025-06-19T11:34:31.731Z</time>
      </trkpt>
      <trkpt lat="49.10857" lon="2.17726">
        <ele>88.673015</ele>
        <time>2025-06-19T11:34:33.735Z</time>
      </trkpt>
      <trkpt lat="49.10866" lon="2.17718">
        <ele>88.797329</ele>
        <time>2025-06-19T11:34:35.719Z</time>
      </trkpt>
      <trkpt lat="49.10879" lon="2.17708">
        <ele>88.97082</ele>
        <time>2025-06-19T11:34:38.741Z</time>
      </trkpt>
      <trkpt lat="49.10889" lon="2.17698">
        <ele>89.118359</ele>
        <time>2025-06-19T11:34:40.746Z</time>
      </trkpt>
      <trkpt lat="49.10899" lon="2.17687">
        <ele>89.273513</ele>
        <time>2025-06-19T11:34:42.736Z</time>
      </trkpt>
      <trkpt lat="49.1091" lon="2.17676">
        <ele>89.431929</ele>
        <time>2025-06-19T11:34:44.730Z</time>
      </trkpt>
      <trkpt lat="49.10922" lon="2.17667">
        <ele>89.594993</ele>
        <time>2025-06-19T11:34:46.730Z</time>
      </trkpt>
      <trkpt lat="49.10933" lon="2.17659">
        <ele>89.747482</ele>
        <time>2025-06-19T11:34:48.741Z</time>
      </trkpt>
      <trkpt lat="49.10943" lon="2.17649">
        <ele>89.886248</ele>
        <time>2025-06-19T11:34:50.729Z</time>
      </trkpt>
      <trkpt lat="49.10952" lon="2.17641">
        <ele>90.021544</ele>
        <time>2025-06-19T11:34:52.722Z</time>
      </trkpt>
      <trkpt lat="49.10961" lon="2.17631">
        <ele>90.150021</ele>
        <time>2025-06-19T11:34:54.734Z</time>
      </trkpt>
      <trkpt lat="49.10971" lon="2.17623">
        <ele>90.221726</ele>
        <time>2025-06-19T11:34:56.718Z</time>
      </trkpt>
      <trkpt lat="49.1098" lon="2.17614">
        <ele>90.158077</ele>
        <time>2025-06-19T11:34:58.720Z</time>
      </trkpt>
      <trkpt lat="49.10989" lon="2.17607">
        <ele>90.095212</ele>
        <time>2025-06-19T11:35:00.732Z</time>
      </trkpt>
      <trkpt lat="49.10997" lon="2.176">
        <ele>90.03583</ele>
        <time>2025-06-19T11:35:02.732Z</time>
      </trkpt>
      <trkpt lat="49.11007" lon="2.17593">
        <ele>89.972272</ele>
        <time>2025-06-19T11:35:04.735Z</time>
      </trkpt>
      <trkpt lat="49.11017" lon="2.17588">
        <ele>89.904334</ele>
        <time>2025-06-19T11:35:06.741Z</time>
      </trkpt>
      <trkpt lat="49.11029" lon="2.17582">
        <ele>89.826764</ele>
        <time>2025-06-19T11:35:08.733Z</time>
      </trkpt>
      <trkpt lat="49.1104" lon="2.17583">
        <ele>89.760431</ele>
        <time>2025-06-19T11:35:10.713Z</time>
      </trkpt>
      <trkpt lat="49.11055" lon="2.17585">
        <ele>89.66848</ele>
        <time>2025-06-19T11:35:12.716Z</time>
      </trkpt>
      <trkpt lat="49.11069" lon="2.17588">
        <ele>89.583815</ele>
        <time>2025-06-19T11:35:14.725Z</time>
      </trkpt>
      <trkpt lat="49.11079" lon="2.17591">
        <ele>89.520838</ele>
        <time>2025-06-19T11:35:16.717Z</time>
      </trkpt>
      <trkpt lat="49.11089" lon="2.17593">
        <ele>89.455113</ele>
        <time>2025-06-19T11:35:18.722Z</time>
      </trkpt>
      <trkpt lat="49.11101" lon="2.17594">
        <ele>89.387161</ele>
        <time>2025-06-19T11:35:20.716Z</time>
      </trkpt>
      <trkpt lat="49.1111" lon="2.17597">
        <ele>89.327414</ele>
        <time>2025-06-19T11:35:22.725Z</time>
      </trkpt>
      <trkpt lat="49.11123" lon="2.17597">
        <ele>89.249114</ele>
        <time>2025-06-19T11:35:24.736Z</time>
      </trkpt>
      <trkpt lat="49.11135" lon="2.17599">
        <ele>89.177656</ele>
        <time>2025-06-19T11:35:26.727Z</time>
      </trkpt>
      <trkpt lat="49.11146" lon="2.17602">
        <ele>89.05303</ele>
        <time>2025-06-19T11:35:28.723Z</time>
      </trkpt>
      <trkpt lat="49.11159" lon="2.17604">
        <ele>88.863138</ele>
        <time>2025-06-19T11:35:30.725Z</time>
      </trkpt>
      <trkpt lat="49.1117" lon="2.17607">
        <ele>88.696407</ele>
        <time>2025-06-19T11:35:32.724Z</time>
      </trkpt>
      <trkpt lat="49.11181" lon="2.17608">
        <ele>88.533954</ele>
        <time>2025-06-19T11:35:34.729Z</time>
      </trkpt>
      <trkpt lat="49.11194" lon="2.17607">
        <ele>88.349369</ele>
        <time>2025-06-19T11:35:36.723Z</time>
      </trkpt>
      <trkpt lat="49.11204" lon="2.17605">
        <ele>88.195173</ele>
        <time>2025-06-19T11:35:38.721Z</time>
      </trkpt>
      <trkpt lat="49.11215" lon="2.17605">
        <ele>88.03153</ele>
        <time>2025-06-19T11:35:40.717Z</time>
      </trkpt>
      <trkpt lat="49.11226" lon="2.17604">
        <ele>87.873713</ele>
        <time>2025-06-19T11:35:42.721Z</time>
      </trkpt>
      <trkpt lat="49.11237" lon="2.17604">
        <ele>87.711501</ele>
        <time>2025-06-19T11:35:44.727Z</time>
      </trkpt>
      <trkpt lat="49.11248" lon="2.17603">
        <ele>87.548988</ele>
        <time>2025-06-19T11:35:46.721Z</time>
      </trkpt>
      <trkpt lat="49.11259" lon="2.17602">
        <ele>87.389627</ele>
        <time>2025-06-19T11:35:48.737Z</time>
      </trkpt>
      <trkpt lat="49.11269" lon="2.176">
        <ele>87.240946</ele>
        <time>2025-06-19T11:35:50.744Z</time>
      </trkpt>
      <trkpt lat="49.11278" lon="2.176">
        <ele>87.103757</ele>
        <time>2025-06-19T11:35:52.728Z</time>
      </trkpt>
      <trkpt lat="49.11289" lon="2.17599">
        <ele>86.943019</ele>
        <time>2025-06-19T11:35:54.725Z</time>
      </trkpt>
      <trkpt lat="49.11299" lon="2.17599">
        <ele>86.788224</ele>
        <time>2025-06-19T11:35:56.728Z</time>
      </trkpt>
      <trkpt lat="49.1131" lon="2.17601">
        <ele>86.631096</ele>
        <time>2025-06-19T11:35:58.725Z</time>
      </trkpt>
      <trkpt lat="49.1132" lon="2.17603">
        <ele>86.485966</ele>
        <time>2025-06-19T11:36:00.733Z</time>
      </trkpt>
      <trkpt lat="49.11331" lon="2.17604">
        <ele>86.430614</ele>
        <time>2025-06-19T11:36:02.733Z</time>
      </trkpt>
      <trkpt lat="49.11342" lon="2.17606">
        <ele>86.373309</ele>
        <time>2025-06-19T11:36:04.726Z</time>
      </trkpt>
      <trkpt lat="49.11355" lon="2.17609">
        <ele>86.307801</ele>
        <time>2025-06-19T11:36:06.738Z</time>
      </trkpt>
      <trkpt lat="49.11368" lon="2.17613">
        <ele>86.240682</ele>
        <time>2025-06-19T11:36:08.717Z</time>
      </trkpt>
      <trkpt lat="49.11379" lon="2.17619">
        <ele>86.179106</ele>
        <time>2025-06-19T11:36:10.725Z</time>
      </trkpt>
      <trkpt lat="49.11389" lon="2.17624">
        <ele>86.125381</ele>
        <time>2025-06-19T11:36:12.730Z</time>
      </trkpt>
      <trkpt lat="49.114" lon="2.1763">
        <ele>86.065762</ele>
        <time>2025-06-19T11:36:15.738Z</time>
      </trkpt>
      <trkpt lat="49.11412" lon="2.17639">
        <ele>85.999507</ele>
        <time>2025-06-19T11:36:18.727Z</time>
      </trkpt>
      <trkpt lat="49.11421" lon="2.17641">
        <ele>85.951788</ele>
        <time>2025-06-19T11:36:20.714Z</time>
      </trkpt>
      <trkpt lat="49.11431" lon="2.17636">
        <ele>85.899438</ele>
        <time>2025-06-19T11:36:22.718Z</time>
      </trkpt>
      <trkpt lat="49.11441" lon="2.17628">
        <ele>85.839707</ele>
        <time>2025-06-19T11:36:24.724Z</time>
      </trkpt>
      <trkpt lat="49.1145" lon="2.1762">
        <ele>85.788187</ele>
        <time>2025-06-19T11:36:26.719Z</time>
      </trkpt>
      <trkpt lat="49.11458" lon="2.17613">
        <ele>85.739559</ele>
        <time>2025-06-19T11:36:28.724Z</time>
      </trkpt>
      <trkpt lat="49.11468" lon="2.17608">
        <ele>85.686969</ele>
        <time>2025-06-19T11:36:30.729Z</time>
      </trkpt>
      <trkpt lat="49.11478" lon="2.17603">
        <ele>85.632432</ele>
        <time>2025-06-19T11:36:32.721Z</time>
      </trkpt>
      <trkpt lat="49.11487" lon="2.17601">
        <ele>85.584004</ele>
        <time>2025-06-19T11:36:34.734Z</time>
      </trkpt>
      <trkpt lat="49.11497" lon="2.176">
        <ele>85.491209</ele>
        <time>2025-06-19T11:36:36.727Z</time>
      </trkpt>
      <trkpt lat="49.11507" lon="2.17598">
        <ele>85.385349</ele>
        <time>2025-06-19T11:36:38.728Z</time>
      </trkpt>
      <trkpt lat="49.11517" lon="2.17597">
        <ele>85.278809</ele>
        <time>2025-06-19T11:36:40.727Z</time>
      </trkpt>
      <trkpt lat="49.11526" lon="2.17594">
        <ele>85.170964</ele>
        <time>2025-06-19T11:36:42.725Z</time>
      </trkpt>
      <trkpt lat="49.11536" lon="2.17591">
        <ele>85.067117</ele>
        <time>2025-06-19T11:36:44.723Z</time>
      </trkpt>
      <trkpt lat="49.11546" lon="2.17587">
        <ele>84.955391</ele>
        <time>2025-06-19T11:36:46.722Z</time>
      </trkpt>
      <trkpt lat="49.11557" lon="2.1758">
        <ele>84.827467</ele>
        <time>2025-06-19T11:36:48.724Z</time>
      </trkpt>
      <trkpt lat="49.11568" lon="2.17574">
        <ele>84.697817</ele>
        <time>2025-06-19T11:36:50.724Z</time>
      </trkpt>
      <trkpt lat="49.11579" lon="2.17571">
        <ele>84.570802</ele>
        <time>2025-06-19T11:36:52.723Z</time>
      </trkpt>
      <trkpt lat="49.11591" lon="2.17573">
        <ele>84.441998</ele>
        <time>2025-06-19T11:36:54.730Z</time>
      </trkpt>
      <trkpt lat="49.11603" lon="2.1758">
        <ele>84.309252</ele>
        <time>2025-06-19T11:36:56.725Z</time>
      </trkpt>
      <trkpt lat="49.11614" lon="2.17592">
        <ele>84.165416</ele>
        <time>2025-06-19T11:36:58.722Z</time>
      </trkpt>
      <trkpt lat="49.11622" lon="2.17604">
        <ele>84.038968</ele>
        <time>2025-06-19T11:37:00.717Z</time>
      </trkpt>
      <trkpt lat="49.11631" lon="2.17617">
        <ele>83.899879</ele>
        <time>2025-06-19T11:37:02.720Z</time>
      </trkpt>
      <trkpt lat="49.11641" lon="2.17629">
        <ele>83.770548</ele>
        <time>2025-06-19T11:37:04.724Z</time>
      </trkpt>
      <trkpt lat="49.11651" lon="2.17638">
        <ele>83.645281</ele>
        <time>2025-06-19T11:37:06.723Z</time>
      </trkpt>
      <trkpt lat="49.11662" lon="2.17645">
        <ele>83.643037</ele>
        <time>2025-06-19T11:37:08.713Z</time>
      </trkpt>
      <trkpt lat="49.11672" lon="2.17652">
        <ele>83.66827</ele>
        <time>2025-06-19T11:37:10.733Z</time>
      </trkpt>
      <trkpt lat="49.11682" lon="2.1766">
        <ele>83.692371</ele>
        <time>2025-06-19T11:37:12.717Z</time>
      </trkpt>
      <trkpt lat="49.11694" lon="2.17667">
        <ele>83.720332</ele>
        <time>2025-06-19T11:37:14.719Z</time>
      </trkpt>
      <trkpt lat="49.11705" lon="2.17674">
        <ele>83.74783</ele>
        <time>2025-06-19T11:37:16.717Z</time>
      </trkpt>
      <trkpt lat="49.11717" lon="2.1768">
        <ele>83.774759</ele>
        <time>2025-06-19T11:37:18.730Z</time>
      </trkpt>
      <trkpt lat="49.11727" lon="2.17688">
        <ele>83.800826</ele>
        <time>2025-06-19T11:37:20.730Z</time>
      </trkpt>
      <trkpt lat="49.11739" lon="2.17696">
        <ele>83.828226</ele>
        <time>2025-06-19T11:37:22.725Z</time>
      </trkpt>
      <trkpt lat="49.11749" lon="2.17702">
        <ele>83.853818</ele>
        <time>2025-06-19T11:37:24.724Z</time>
      </trkpt>
      <trkpt lat="49.1176" lon="2.1771">
        <ele>83.880417</ele>
        <time>2025-06-19T11:37:26.719Z</time>
      </trkpt>
      <trkpt lat="49.11772" lon="2.17719">
        <ele>83.908446</ele>
        <time>2025-06-19T11:37:28.724Z</time>
      </trkpt>
      <trkpt lat="49.11784" lon="2.17726">
        <ele>83.937591</ele>
        <time>2025-06-19T11:37:30.718Z</time>
      </trkpt>
      <trkpt lat="49.11795" lon="2.17734">
        <ele>83.964048</ele>
        <time>2025-06-19T11:37:32.711Z</time>
      </trkpt>
      <trkpt lat="49.11805" lon="2.17743">
        <ele>83.989301</ele>
        <time>2025-06-19T11:37:34.722Z</time>
      </trkpt>
      <trkpt lat="49.11815" lon="2.17753">
        <ele>84.01573</ele>
        <time>2025-06-19T11:37:36.710Z</time>
      </trkpt>
      <trkpt lat="49.11823" lon="2.17763">
        <ele>84.15215</ele>
        <time>2025-06-19T11:37:38.717Z</time>
      </trkpt>
      <trkpt lat="49.11832" lon="2.17772">
        <ele>84.306348</ele>
        <time>2025-06-19T11:37:40.726Z</time>
      </trkpt>
      <trkpt lat="49.11842" lon="2.17782">
        <ele>84.466362</ele>
        <time>2025-06-19T11:37:42.722Z</time>
      </trkpt>
      <trkpt lat="49.11851" lon="2.17792">
        <ele>84.631122</ele>
        <time>2025-06-19T11:37:44.718Z</time>
      </trkpt>
      <trkpt lat="49.11862" lon="2.17802">
        <ele>84.804674</ele>
        <time>2025-06-19T11:37:46.727Z</time>
      </trkpt>
      <trkpt lat="49.11871" lon="2.17811">
        <ele>84.959886</ele>
        <time>2025-06-19T11:37:48.725Z</time>
      </trkpt>
      <trkpt lat="49.1188" lon="2.17819">
        <ele>85.106593</ele>
        <time>2025-06-19T11:37:50.719Z</time>
      </trkpt>
      <trkpt lat="49.11889" lon="2.17827">
        <ele>85.247319</ele>
        <time>2025-06-19T11:37:52.727Z</time>
      </trkpt>
      <trkpt lat="49.11897" lon="2.17836">
        <ele>85.389284</ele>
        <time>2025-06-19T11:37:54.728Z</time>
      </trkpt>
      <trkpt lat="49.11907" lon="2.17843">
        <ele>85.537678</ele>
        <time>2025-06-19T11:37:56.722Z</time>
      </trkpt>
      <trkpt lat="49.11915" lon="2.1785">
        <ele>85.670088</ele>
        <time>2025-06-19T11:37:58.728Z</time>
      </trkpt>
      <trkpt lat="49.11926" lon="2.17855">
        <ele>85.832121</ele>
        <time>2025-06-19T11:38:00.715Z</time>
      </trkpt>
      <trkpt lat="49.11935" lon="2.17863">
        <ele>85.975019</ele>
        <time>2025-06-19T11:38:02.724Z</time>
      </trkpt>
      <trkpt lat="49.11944" lon="2.17868">
        <ele>86.106485</ele>
        <time>2025-06-19T11:38:04.721Z</time>
      </trkpt>
      <trkpt lat="49.11953" lon="2.17873">
        <ele>86.244629</ele>
        <time>2025-06-19T11:38:06.724Z</time>
      </trkpt>
      <trkpt lat="49.11962" lon="2.17876">
        <ele>86.374632</ele>
        <time>2025-06-19T11:38:08.717Z</time>
      </trkpt>
      <trkpt lat="49.11976" lon="2.17876">
        <ele>86.627936</ele>
        <time>2025-06-19T11:38:11.714Z</time>
      </trkpt>
      <trkpt lat="49.11985" lon="2.17874">
        <ele>87.006101</ele>
        <time>2025-06-19T11:38:13.723Z</time>
      </trkpt>
      <trkpt lat="49.11996" lon="2.17872">
        <ele>87.479308</ele>
        <time>2025-06-19T11:38:16.722Z</time>
      </trkpt>
      <trkpt lat="49.12006" lon="2.17869">
        <ele>87.928992</ele>
        <time>2025-06-19T11:38:19.723Z</time>
      </trkpt>
      <trkpt lat="49.12017" lon="2.17859">
        <ele>88.429998</ele>
        <time>2025-06-19T11:38:23.721Z</time>
      </trkpt>
      <trkpt lat="49.12025" lon="2.17849">
        <ele>88.875758</ele>
        <time>2025-06-19T11:38:26.713Z</time>
      </trkpt>
      <trkpt lat="49.12034" lon="2.17838">
        <ele>89.350275</ele>
        <time>2025-06-19T11:38:29.731Z</time>
      </trkpt>
      <trkpt lat="49.1204" lon="2.17828">
        <ele>89.740588</ele>
        <time>2025-06-19T11:38:32.735Z</time>
      </trkpt>
      <trkpt lat="49.12048" lon="2.17819">
        <ele>90.146025</ele>
        <time>2025-06-19T11:38:35.733Z</time>
      </trkpt>
      <trkpt lat="49.12055" lon="2.17809">
        <ele>90.564022</ele>
        <time>2025-06-19T11:38:38.723Z</time>
      </trkpt>
      <trkpt lat="49.12061" lon="2.17798">
        <ele>90.949618</ele>
        <time>2025-06-19T11:38:41.715Z</time>
      </trkpt>
      <trkpt lat="49.12068" lon="2.17786">
        <ele>91.372048</ele>
        <time>2025-06-19T11:38:44.717Z</time>
      </trkpt>
      <trkpt lat="49.12076" lon="2.17773">
        <ele>91.867339</ele>
        <time>2025-06-19T11:38:48.722Z</time>
      </trkpt>
      <trkpt lat="49.12084" lon="2.1776">
        <ele>92.353759</ele>
        <time>2025-06-19T11:38:52.732Z</time>
      </trkpt>
      <trkpt lat="49.12089" lon="2.17748">
        <ele>92.761258</ele>
        <time>2025-06-19T11:38:55.725Z</time>
      </trkpt>
      <trkpt lat="49.12098" lon="2.17737">
        <ele>93.257882</ele>
        <time>2025-06-19T11:38:59.718Z</time>
      </trkpt>
      <trkpt lat="49.12104" lon="2.17725">
        <ele>93.655746</ele>
        <time>2025-06-19T11:39:02.718Z</time>
      </trkpt>
      <trkpt lat="49.12112" lon="2.17712">
        <ele>94.074581</ele>
        <time>2025-06-19T11:39:06.749Z</time>
      </trkpt>
      <trkpt lat="49.12119" lon="2.177">
        <ele>93.885619</ele>
        <time>2025-06-19T11:39:10.726Z</time>
      </trkpt>
      <trkpt lat="49.12125" lon="2.17686">
        <ele>93.699784</ele>
        <time>2025-06-19T11:39:14.736Z</time>
      </trkpt>
      <trkpt lat="49.12131" lon="2.17674">
        <ele>93.521881</ele>
        <time>2025-06-19T11:39:17.720Z</time>
      </trkpt>
      <trkpt lat="49.12141" lon="2.17664">
        <ele>93.326838</ele>
        <time>2025-06-19T11:39:20.732Z</time>
      </trkpt>
      <trkpt lat="49.1215" lon="2.17651">
        <ele>93.105343</ele>
        <time>2025-06-19T11:39:23.721Z</time>
      </trkpt>
      <trkpt lat="49.12156" lon="2.1764">
        <ele>92.943745</ele>
        <time>2025-06-19T11:39:25.721Z</time>
      </trkpt>
      <trkpt lat="49.12165" lon="2.17624">
        <ele>92.702348</ele>
        <time>2025-06-19T11:39:28.720Z</time>
      </trkpt>
      <trkpt lat="49.12171" lon="2.17612">
        <ele>92.525834</ele>
        <time>2025-06-19T11:39:30.723Z</time>
      </trkpt>
      <trkpt lat="49.12175" lon="2.17598">
        <ele>92.355884</ele>
        <time>2025-06-19T11:39:32.716Z</time>
      </trkpt>
      <trkpt lat="49.12182" lon="2.17585">
        <ele>92.164781</ele>
        <time>2025-06-19T11:39:34.721Z</time>
      </trkpt>
      <trkpt lat="49.12188" lon="2.17572">
        <ele>91.975752</ele>
        <time>2025-06-19T11:39:36.717Z</time>
      </trkpt>
      <trkpt lat="49.12194" lon="2.17556">
        <ele>91.768458</ele>
        <time>2025-06-19T11:39:38.722Z</time>
      </trkpt>
      <trkpt lat="49.12199" lon="2.1754">
        <ele>91.567267</ele>
        <time>2025-06-19T11:39:40.728Z</time>
      </trkpt>
      <trkpt lat="49.12204" lon="2.17522">
        <ele>91.348709</ele>
        <time>2025-06-19T11:39:42.724Z</time>
      </trkpt>
      <trkpt lat="49.12211" lon="2.17505">
        <ele>91.111442</ele>
        <time>2025-06-19T11:39:44.720Z</time>
      </trkpt>
      <trkpt lat="49.12217" lon="2.17488">
        <ele>90.979267</ele>
        <time>2025-06-19T11:39:46.725Z</time>
      </trkpt>
      <trkpt lat="49.12223" lon="2.17471">
        <ele>91.023514</ele>
        <time>2025-06-19T11:39:48.719Z</time>
      </trkpt>
      <trkpt lat="49.12232" lon="2.17455">
        <ele>91.073249</ele>
        <time>2025-06-19T11:39:50.727Z</time>
      </trkpt>
      <trkpt lat="49.12243" lon="2.17439">
        <ele>91.126539</ele>
        <time>2025-06-19T11:39:52.716Z</time>
      </trkpt>
      <trkpt lat="49.12252" lon="2.17423">
        <ele>91.176394</ele>
        <time>2025-06-19T11:39:54.723Z</time>
      </trkpt>
      <trkpt lat="49.12264" lon="2.1741">
        <ele>91.227124</ele>
        <time>2025-06-19T11:39:56.726Z</time>
      </trkpt>
      <trkpt lat="49.12275" lon="2.17401">
        <ele>91.272508</ele>
        <time>2025-06-19T11:39:58.714Z</time>
      </trkpt>
      <trkpt lat="49.12287" lon="2.17392">
        <ele>91.320007</ele>
        <time>2025-06-19T11:40:00.725Z</time>
      </trkpt>
      <trkpt lat="49.12297" lon="2.17382">
        <ele>91.362918</ele>
        <time>2025-06-19T11:40:02.734Z</time>
      </trkpt>
      <trkpt lat="49.12307" lon="2.17373">
        <ele>91.406918</ele>
        <time>2025-06-19T11:40:04.720Z</time>
      </trkpt>
      <trkpt lat="49.12317" lon="2.17365">
        <ele>91.444308</ele>
        <time>2025-06-19T11:40:06.729Z</time>
      </trkpt>
      <trkpt lat="49.12326" lon="2.17356">
        <ele>91.482902</ele>
        <time>2025-06-19T11:40:08.726Z</time>
      </trkpt>
      <trkpt lat="49.12334" lon="2.17347">
        <ele>91.518141</ele>
        <time>2025-06-19T11:40:10.711Z</time>
      </trkpt>
      <trkpt lat="49.12341" lon="2.17338">
        <ele>91.552814</ele>
        <time>2025-06-19T11:40:12.722Z</time>
      </trkpt>
      <trkpt lat="49.12349" lon="2.17328">
        <ele>91.589298</ele>
        <time>2025-06-19T11:40:14.721Z</time>
      </trkpt>
      <trkpt lat="49.12355" lon="2.17318">
        <ele>91.578358</ele>
        <time>2025-06-19T11:40:16.719Z</time>
      </trkpt>
      <trkpt lat="49.12363" lon="2.17307">
        <ele>91.507805</ele>
        <time>2025-06-19T11:40:18.719Z</time>
      </trkpt>
      <trkpt lat="49.12372" lon="2.17296">
        <ele>91.427804</ele>
        <time>2025-06-19T11:40:20.722Z</time>
      </trkpt>
      <trkpt lat="49.12383" lon="2.17285">
        <ele>91.339956</ele>
        <time>2025-06-19T11:40:22.720Z</time>
      </trkpt>
      <trkpt lat="49.12393" lon="2.17273">
        <ele>91.249722</ele>
        <time>2025-06-19T11:40:24.724Z</time>
      </trkpt>
      <trkpt lat="49.12404" lon="2.17259">
        <ele>91.154029</ele>
        <time>2025-06-19T11:40:26.725Z</time>
      </trkpt>
      <trkpt lat="49.12414" lon="2.17244">
        <ele>91.060688</ele>
        <time>2025-06-19T11:40:28.721Z</time>
      </trkpt>
      <trkpt lat="49.12423" lon="2.1723">
        <ele>90.971475</ele>
        <time>2025-06-19T11:40:30.727Z</time>
      </trkpt>
      <trkpt lat="49.12431" lon="2.17216">
        <ele>90.885253</ele>
        <time>2025-06-19T11:40:32.723Z</time>
      </trkpt>
      <trkpt lat="49.12438" lon="2.17201">
        <ele>90.807561</ele>
        <time>2025-06-19T11:40:34.731Z</time>
      </trkpt>
      <trkpt lat="49.12445" lon="2.17188">
        <ele>90.727741</ele>
        <time>2025-06-19T11:40:36.746Z</time>
      </trkpt>
      <trkpt lat="49.1245" lon="2.17173">
        <ele>90.652515</ele>
        <time>2025-06-19T11:40:38.728Z</time>
      </trkpt>
      <trkpt lat="49.12457" lon="2.1716">
        <ele>90.577376</ele>
        <time>2025-06-19T11:40:40.734Z</time>
      </trkpt>
      <trkpt lat="49.12463" lon="2.17145">
        <ele>90.500065</ele>
        <time>2025-06-19T11:40:42.732Z</time>
      </trkpt>
      <trkpt lat="49.12467" lon="2.17128">
        <ele>90.421729</ele>
        <time>2025-06-19T11:40:44.729Z</time>
      </trkpt>
      <trkpt lat="49.12467" lon="2.17112">
        <ele>90.426061</ele>
        <time>2025-06-19T11:40:46.719Z</time>
      </trkpt>
      <trkpt lat="49.12467" lon="2.17095">
        <ele>90.550878</ele>
        <time>2025-06-19T11:40:48.737Z</time>
      </trkpt>
      <trkpt lat="49.12467" lon="2.17077">
        <ele>90.671536</ele>
        <time>2025-06-19T11:40:50.727Z</time>
      </trkpt>
      <trkpt lat="49.12464" lon="2.17061">
        <ele>90.79446</ele>
        <time>2025-06-19T11:40:52.722Z</time>
      </trkpt>
      <trkpt lat="49.12461" lon="2.17042">
        <ele>90.927531</ele>
        <time>2025-06-19T11:40:54.723Z</time>
      </trkpt>
      <trkpt lat="49.12457" lon="2.17024">
        <ele>91.058455</ele>
        <time>2025-06-19T11:40:56.732Z</time>
      </trkpt>
      <trkpt lat="49.12452" lon="2.1701">
        <ele>91.172823</ele>
        <time>2025-06-19T11:40:58.727Z</time>
      </trkpt>
      <trkpt lat="49.12449" lon="2.16997">
        <ele>91.270887</ele>
        <time>2025-06-19T11:41:00.734Z</time>
      </trkpt>
      <trkpt lat="49.12443" lon="2.16982">
        <ele>91.387806</ele>
        <time>2025-06-19T11:41:03.727Z</time>
      </trkpt>
      <trkpt lat="49.12443" lon="2.16964">
        <ele>91.519667</ele>
        <time>2025-06-19T11:41:07.724Z</time>
      </trkpt>
      <trkpt lat="49.12445" lon="2.16946">
        <ele>91.646132</ele>
        <time>2025-06-19T11:41:10.724Z</time>
      </trkpt>
      <trkpt lat="49.12449" lon="2.16933">
        <ele>91.743982</ele>
        <time>2025-06-19T11:41:12.738Z</time>
      </trkpt>
      <trkpt lat="49.1245" lon="2.16919">
        <ele>91.845875</ele>
        <time>2025-06-19T11:41:14.731Z</time>
      </trkpt>
      <trkpt lat="49.12452" lon="2.16905">
        <ele>91.942908</ele>
        <time>2025-06-19T11:41:16.730Z</time>
      </trkpt>
      <trkpt lat="49.12453" lon="2.16891">
        <ele>92.0423</ele>
        <time>2025-06-19T11:41:18.721Z</time>
      </trkpt>
      <trkpt lat="49.12455" lon="2.16878">
        <ele>92.138864</ele>
        <time>2025-06-19T11:41:20.731Z</time>
      </trkpt>
      <trkpt lat="49.12457" lon="2.16864">
        <ele>92.237477</ele>
        <time>2025-06-19T11:41:22.732Z</time>
      </trkpt>
      <trkpt lat="49.1246" lon="2.16844">
        <ele>92.410846</ele>
        <time>2025-06-19T11:41:25.727Z</time>
      </trkpt>
      <trkpt lat="49.12465" lon="2.16828">
        <ele>92.592541</ele>
        <time>2025-06-19T11:41:28.724Z</time>
      </trkpt>
      <trkpt lat="49.12471" lon="2.16809">
        <ele>92.796076</ele>
        <time>2025-06-19T11:41:31.724Z</time>
      </trkpt>
      <trkpt lat="49.12478" lon="2.16794">
        <ele>92.985857</ele>
        <time>2025-06-19T11:41:34.718Z</time>
      </trkpt>
      <trkpt lat="49.12487" lon="2.16781">
        <ele>93.167902</ele>
        <time>2025-06-19T11:41:37.722Z</time>
      </trkpt>
      <trkpt lat="49.12496" lon="2.16768">
        <ele>93.354276</ele>
        <time>2025-06-19T11:41:40.723Z</time>
      </trkpt>
      <trkpt lat="49.12505" lon="2.16754">
        <ele>93.550544</ele>
        <time>2025-06-19T11:41:43.721Z</time>
      </trkpt>
      <trkpt lat="49.12515" lon="2.1674">
        <ele>93.756527</ele>
        <time>2025-06-19T11:41:46.722Z</time>
      </trkpt>
      <trkpt lat="49.12524" lon="2.1673">
        <ele>93.932663</ele>
        <time>2025-06-19T11:41:49.721Z</time>
      </trkpt>
      <trkpt lat="49.12534" lon="2.16719">
        <ele>94.111673</ele>
        <time>2025-06-19T11:41:52.724Z</time>
      </trkpt>
      <trkpt lat="49.12544" lon="2.16709">
        <ele>94.302037</ele>
        <time>2025-06-19T11:41:55.722Z</time>
      </trkpt>
      <trkpt lat="49.12554" lon="2.16698">
        <ele>94.475642</ele>
        <time>2025-06-19T11:41:58.723Z</time>
      </trkpt>
      <trkpt lat="49.12562" lon="2.16687">
        <ele>94.649919</ele>
        <time>2025-06-19T11:42:01.725Z</time>
      </trkpt>
      <trkpt lat="49.12572" lon="2.16677">
        <ele>94.825061</ele>
        <time>2025-06-19T11:42:04.727Z</time>
      </trkpt>
      <trkpt lat="49.12582" lon="2.16669">
        <ele>94.998807</ele>
        <time>2025-06-19T11:42:07.720Z</time>
      </trkpt>
      <trkpt lat="49.12591" lon="2.16659">
        <ele>94.772547</ele>
        <time>2025-06-19T11:42:10.720Z</time>
      </trkpt>
      <trkpt lat="49.12601" lon="2.1665">
        <ele>94.422781</ele>
        <time>2025-06-19T11:42:13.720Z</time>
      </trkpt>
      <trkpt lat="49.12612" lon="2.16642">
        <ele>94.047234</ele>
        <time>2025-06-19T11:42:16.717Z</time>
      </trkpt>
      <trkpt lat="49.12625" lon="2.16634">
        <ele>93.627136</ele>
        <time>2025-06-19T11:42:19.726Z</time>
      </trkpt>
      <trkpt lat="49.12634" lon="2.16629">
        <ele>93.333141</ele>
        <time>2025-06-19T11:42:21.727Z</time>
      </trkpt>
      <trkpt lat="49.12644" lon="2.16624">
        <ele>93.007661</ele>
        <time>2025-06-19T11:42:23.731Z</time>
      </trkpt>
      <trkpt lat="49.12654" lon="2.1662">
        <ele>92.679656</ele>
        <time>2025-06-19T11:42:25.731Z</time>
      </trkpt>
      <trkpt lat="49.12665" lon="2.16616">
        <ele>92.339094</ele>
        <time>2025-06-19T11:42:27.726Z</time>
      </trkpt>
      <trkpt lat="49.12678" lon="2.16614">
        <ele>91.944756</ele>
        <time>2025-06-19T11:42:29.725Z</time>
      </trkpt>
      <trkpt lat="49.12689" lon="2.16611">
        <ele>91.600158</ele>
        <time>2025-06-19T11:42:31.723Z</time>
      </trkpt>
      <trkpt lat="49.12701" lon="2.16608">
        <ele>91.22826</ele>
        <time>2025-06-19T11:42:33.724Z</time>
      </trkpt>
      <trkpt lat="49.12712" lon="2.16605">
        <ele>90.891909</ele>
        <time>2025-06-19T11:42:35.723Z</time>
      </trkpt>
      <trkpt lat="49.12722" lon="2.16604">
        <ele>90.594168</ele>
        <time>2025-06-19T11:42:37.723Z</time>
      </trkpt>
      <trkpt lat="49.12733" lon="2.16602">
        <ele>90.250639</ele>
        <time>2025-06-19T11:42:39.728Z</time>
      </trkpt>
      <trkpt lat="49.12745" lon="2.16601">
        <ele>89.871196</ele>
        <time>2025-06-19T11:42:42.720Z</time>
      </trkpt>
      <trkpt lat="49.12755" lon="2.166">
        <ele>89.571587</ele>
        <time>2025-06-19T11:42:45.723Z</time>
      </trkpt>
      <trkpt lat="49.12762" lon="2.16591">
        <ele>89.644405</ele>
        <time>2025-06-19T11:42:48.730Z</time>
      </trkpt>
      <trkpt lat="49.12762" lon="2.16574">
        <ele>89.774011</ele>
        <time>2025-06-19T11:42:51.728Z</time>
      </trkpt>
      <trkpt lat="49.12762" lon="2.16557">
        <ele>89.907494</ele>
        <time>2025-06-19T11:42:54.731Z</time>
      </trkpt>
      <trkpt lat="49.12764" lon="2.16539">
        <ele>90.047726</ele>
        <time>2025-06-19T11:42:57.731Z</time>
      </trkpt>
      <trkpt lat="49.12768" lon="2.16523">
        <ele>90.180748</ele>
        <time>2025-06-19T11:43:00.727Z</time>
      </trkpt>
      <trkpt lat="49.12773" lon="2.16508">
        <ele>90.307082</ele>
        <time>2025-06-19T11:43:03.726Z</time>
      </trkpt>
      <trkpt lat="49.12777" lon="2.16492">
        <ele>90.44195</ele>
        <time>2025-06-19T11:43:06.732Z</time>
      </trkpt>
      <trkpt lat="49.1278" lon="2.16476">
        <ele>90.572147</ele>
        <time>2025-06-19T11:43:09.731Z</time>
      </trkpt>
      <trkpt lat="49.12784" lon="2.16462">
        <ele>90.689392</ele>
        <time>2025-06-19T11:43:12.726Z</time>
      </trkpt>
      <trkpt lat="49.12788" lon="2.16448">
        <ele>90.806395</ele>
        <time>2025-06-19T11:43:15.710Z</time>
      </trkpt>
      <trkpt lat="49.12794" lon="2.16437">
        <ele>90.923113</ele>
        <time>2025-06-19T11:43:18.724Z</time>
      </trkpt>
      <trkpt lat="49.12803" lon="2.16424">
        <ele>91.062371</ele>
        <time>2025-06-19T11:43:21.721Z</time>
      </trkpt>
      <trkpt lat="49.12812" lon="2.16411">
        <ele>91.211338</ele>
        <time>2025-06-19T11:43:24.746Z</time>
      </trkpt>
      <trkpt lat="49.12819" lon="2.16396">
        <ele>91.355219</ele>
        <time>2025-06-19T11:43:27.733Z</time>
      </trkpt>
      <trkpt lat="49.12824" lon="2.16384">
        <ele>91.463638</ele>
        <time>2025-06-19T11:43:29.726Z</time>
      </trkpt>
      <trkpt lat="49.12834" lon="2.1637">
        <ele>91.626745</ele>
        <time>2025-06-19T11:43:32.727Z</time>
      </trkpt>
      <trkpt lat="49.12844" lon="2.16364">
        <ele>91.775069</ele>
        <time>2025-06-19T11:43:34.734Z</time>
      </trkpt>
      <trkpt lat="49.12853" lon="2.16362">
        <ele>91.916424</ele>
        <time>2025-06-19T11:43:36.730Z</time>
      </trkpt>
      <trkpt lat="49.12867" lon="2.16358">
        <ele>92.131884</ele>
        <time>2025-06-19T11:43:39.740Z</time>
      </trkpt>
      <trkpt lat="49.12876" lon="2.16358">
        <ele>92.281202</ele>
        <time>2025-06-19T11:43:41.737Z</time>
      </trkpt>
      <trkpt lat="49.12889" lon="2.16356">
        <ele>92.476271</ele>
        <time>2025-06-19T11:43:44.727Z</time>
      </trkpt>
      <trkpt lat="49.129" lon="2.16355">
        <ele>92.645865</ele>
        <time>2025-06-19T11:43:47.725Z</time>
      </trkpt>
      <trkpt lat="49.12909" lon="2.16354">
        <ele>92.790591</ele>
        <time>2025-06-19T11:43:49.739Z</time>
      </trkpt>
      <trkpt lat="49.12922" lon="2.16354">
        <ele>92.987629</ele>
        <time>2025-06-19T11:43:52.740Z</time>
      </trkpt>
      <trkpt lat="49.12934" lon="2.16354">
        <ele>93.170778</ele>
        <time>2025-06-19T11:43:55.729Z</time>
      </trkpt>
      <trkpt lat="49.12946" lon="2.16352">
        <ele>93.354631</ele>
        <time>2025-06-19T11:43:58.716Z</time>
      </trkpt>
      <trkpt lat="49.12958" lon="2.16347">
        <ele>93.548633</ele>
        <time>2025-06-19T11:44:01.716Z</time>
      </trkpt>
      <trkpt lat="49.12968" lon="2.1634">
        <ele>93.71938</ele>
        <time>2025-06-19T11:44:04.722Z</time>
      </trkpt>
      <trkpt lat="49.12977" lon="2.16332">
        <ele>93.877484</ele>
        <time>2025-06-19T11:44:07.730Z</time>
      </trkpt>
      <trkpt lat="49.12987" lon="2.16324">
        <ele>94.052744</ele>
        <time>2025-06-19T11:44:10.724Z</time>
      </trkpt>
      <trkpt lat="49.12999" lon="2.16317">
        <ele>94.246119</ele>
        <time>2025-06-19T11:44:13.731Z</time>
      </trkpt>
      <trkpt lat="49.1301" lon="2.16314">
        <ele>94.42975</ele>
        <time>2025-06-19T11:44:16.722Z</time>
      </trkpt>
      <trkpt lat="49.13022" lon="2.16314">
        <ele>94.389551</ele>
        <time>2025-06-19T11:44:19.722Z</time>
      </trkpt>
      <trkpt lat="49.13034" lon="2.16314">
        <ele>94.330376</ele>
        <time>2025-06-19T11:44:22.728Z</time>
      </trkpt>
      <trkpt lat="49.13045" lon="2.16314">
        <ele>94.279437</ele>
        <time>2025-06-19T11:44:25.727Z</time>
      </trkpt>
      <trkpt lat="49.13057" lon="2.16316">
        <ele>94.222219</ele>
        <time>2025-06-19T11:44:28.734Z</time>
      </trkpt>
      <trkpt lat="49.13068" lon="2.16319">
        <ele>94.168554</ele>
        <time>2025-06-19T11:44:31.725Z</time>
      </trkpt>
      <trkpt lat="49.13079" lon="2.16321">
        <ele>94.113895</ele>
        <time>2025-06-19T11:44:34.729Z</time>
      </trkpt>
      <trkpt lat="49.1309" lon="2.16323">
        <ele>94.057372</ele>
        <time>2025-06-19T11:44:37.727Z</time>
      </trkpt>
      <trkpt lat="49.13103" lon="2.16326">
        <ele>93.993648</ele>
        <time>2025-06-19T11:44:40.727Z</time>
      </trkpt>
      <trkpt lat="49.13114" lon="2.16327">
        <ele>93.942466</ele>
        <time>2025-06-19T11:44:42.725Z</time>
      </trkpt>
      <trkpt lat="49.13125" lon="2.16329">
        <ele>93.885999</ele>
        <time>2025-06-19T11:44:44.742Z</time>
      </trkpt>
      <trkpt lat="49.13137" lon="2.16331">
        <ele>93.827692</ele>
        <time>2025-06-19T11:44:46.731Z</time>
      </trkpt>
      <trkpt lat="49.1315" lon="2.16334">
        <ele>93.767066</ele>
        <time>2025-06-19T11:44:48.732Z</time>
      </trkpt>
      <trkpt lat="49.13163" lon="2.16336">
        <ele>93.701587</ele>
        <time>2025-06-19T11:44:50.720Z</time>
      </trkpt>
      <trkpt lat="49.13175" lon="2.16339">
        <ele>93.641795</ele>
        <time>2025-06-19T11:44:52.726Z</time>
      </trkpt>
      <trkpt lat="49.13188" lon="2.16343">
        <ele>93.580731</ele>
        <time>2025-06-19T11:44:54.743Z</time>
      </trkpt>
      <trkpt lat="49.13201" lon="2.16344">
        <ele>93.300132</ele>
        <time>2025-06-19T11:44:56.728Z</time>
      </trkpt>
      <trkpt lat="49.13214" lon="2.16341">
        <ele>92.98505</ele>
        <time>2025-06-19T11:44:58.720Z</time>
      </trkpt>
      <trkpt lat="49.13228" lon="2.16336">
        <ele>92.639036</ele>
        <time>2025-06-19T11:45:00.735Z</time>
      </trkpt>
      <trkpt lat="49.13243" lon="2.16327">
        <ele>92.238875</ele>
        <time>2025-06-19T11:45:02.720Z</time>
      </trkpt>
      <trkpt lat="49.13258" lon="2.16317">
        <ele>91.848886</ele>
        <time>2025-06-19T11:45:04.725Z</time>
      </trkpt>
      <trkpt lat="49.13273" lon="2.16307">
        <ele>91.449112</ele>
        <time>2025-06-19T11:45:06.724Z</time>
      </trkpt>
      <trkpt lat="49.13289" lon="2.16297">
        <ele>91.03085</ele>
        <time>2025-06-19T11:45:08.721Z</time>
      </trkpt>
      <trkpt lat="49.13305" lon="2.16286">
        <ele>90.61274</ele>
        <time>2025-06-19T11:45:10.718Z</time>
      </trkpt>
      <trkpt lat="49.13321" lon="2.16277">
        <ele>90.184372</ele>
        <time>2025-06-19T11:45:12.733Z</time>
      </trkpt>
      <trkpt lat="49.13336" lon="2.16265">
        <ele>89.774801</ele>
        <time>2025-06-19T11:45:14.721Z</time>
      </trkpt>
      <trkpt lat="49.13351" lon="2.16255">
        <ele>89.378759</ele>
        <time>2025-06-19T11:45:16.715Z</time>
      </trkpt>
      <trkpt lat="49.13366" lon="2.16244">
        <ele>89.329349</ele>
        <time>2025-06-19T11:45:18.725Z</time>
      </trkpt>
      <trkpt lat="49.13381" lon="2.16233">
        <ele>89.529091</ele>
        <time>2025-06-19T11:45:20.723Z</time>
      </trkpt>
      <trkpt lat="49.13396" lon="2.16223">
        <ele>89.728479</ele>
        <time>2025-06-19T11:45:22.726Z</time>
      </trkpt>
      <trkpt lat="49.13411" lon="2.16213">
        <ele>89.917162</ele>
        <time>2025-06-19T11:45:24.722Z</time>
      </trkpt>
      <trkpt lat="49.13423" lon="2.16204">
        <ele>90.083322</ele>
        <time>2025-06-19T11:45:26.718Z</time>
      </trkpt>
      <trkpt lat="49.13435" lon="2.16196">
        <ele>90.23721</ele>
        <time>2025-06-19T11:45:28.718Z</time>
      </trkpt>
      <trkpt lat="49.13446" lon="2.16187">
        <ele>90.395353</ele>
        <time>2025-06-19T11:45:30.730Z</time>
      </trkpt>
      <trkpt lat="49.13456" lon="2.1618">
        <ele>90.526979</ele>
        <time>2025-06-19T11:45:32.740Z</time>
      </trkpt>
      <trkpt lat="49.13467" lon="2.16172">
        <ele>90.668007</ele>
        <time>2025-06-19T11:45:34.728Z</time>
      </trkpt>
      <trkpt lat="49.13476" lon="2.16166">
        <ele>90.789723</ele>
        <time>2025-06-19T11:45:36.734Z</time>
      </trkpt>
      <trkpt lat="49.13486" lon="2.1616">
        <ele>90.917185</ele>
        <time>2025-06-19T11:45:38.724Z</time>
      </trkpt>
      <trkpt lat="49.13494" lon="2.16153">
        <ele>91.036261</ele>
        <time>2025-06-19T11:45:40.738Z</time>
      </trkpt>
      <trkpt lat="49.13504" lon="2.16144">
        <ele>91.173893</ele>
        <time>2025-06-19T11:45:42.722Z</time>
      </trkpt>
      <trkpt lat="49.13512" lon="2.16136">
        <ele>91.285762</ele>
        <time>2025-06-19T11:45:44.726Z</time>
      </trkpt>
      <trkpt lat="49.13518" lon="2.16122">
        <ele>91.418275</ele>
        <time>2025-06-19T11:45:46.727Z</time>
      </trkpt>
      <trkpt lat="49.13527" lon="2.16108">
        <ele>91.586358</ele>
        <time>2025-06-19T11:45:49.726Z</time>
      </trkpt>
      <trkpt lat="49.13534" lon="2.16094">
        <ele>91.73455</ele>
        <time>2025-06-19T11:45:52.727Z</time>
      </trkpt>
      <trkpt lat="49.13541" lon="2.16082">
        <ele>91.866402</ele>
        <time>2025-06-19T11:45:55.730Z</time>
      </trkpt>
      <trkpt lat="49.13548" lon="2.16069">
        <ele>91.997016</ele>
        <time>2025-06-19T11:45:58.727Z</time>
      </trkpt>
      <trkpt lat="49.13554" lon="2.16056">
        <ele>92.13652</ele>
        <time>2025-06-19T11:46:01.719Z</time>
      </trkpt>
      <trkpt lat="49.13563" lon="2.16041">
        <ele>92.297251</ele>
        <time>2025-06-19T11:46:04.720Z</time>
      </trkpt>
      <trkpt lat="49.13571" lon="2.16025">
        <ele>92.462632</ele>
        <time>2025-06-19T11:46:07.723Z</time>
      </trkpt>
      <trkpt lat="49.13577" lon="2.16015">
        <ele>92.585822</ele>
        <time>2025-06-19T11:46:09.729Z</time>
      </trkpt>
      <trkpt lat="49.13583" lon="2.16003">
        <ele>92.703738</ele>
        <time>2025-06-19T11:46:11.723Z</time>
      </trkpt>
      <trkpt lat="49.13589" lon="2.15992">
        <ele>92.828533</ele>
        <time>2025-06-19T11:46:13.719Z</time>
      </trkpt>
      <trkpt lat="49.13596" lon="2.15979">
        <ele>92.960059</ele>
        <time>2025-06-19T11:46:15.720Z</time>
      </trkpt>
      <trkpt lat="49.13602" lon="2.15967">
        <ele>93.092379</ele>
        <time>2025-06-19T11:46:17.718Z</time>
      </trkpt>
      <trkpt lat="49.13609" lon="2.15954">
        <ele>93.234471</ele>
        <time>2025-06-19T11:46:19.730Z</time>
      </trkpt>
      <trkpt lat="49.13617" lon="2.15939">
        <ele>93.385813</ele>
        <time>2025-06-19T11:46:21.722Z</time>
      </trkpt>
      <trkpt lat="49.13624" lon="2.15924">
        <ele>93.53848</ele>
        <time>2025-06-19T11:46:23.734Z</time>
      </trkpt>
      <trkpt lat="49.13631" lon="2.15909">
        <ele>93.693423</ele>
        <time>2025-06-19T11:46:25.729Z</time>
      </trkpt>
      <trkpt lat="49.13638" lon="2.15892">
        <ele>93.845996</ele>
        <time>2025-06-19T11:46:27.722Z</time>
      </trkpt>
      <trkpt lat="49.13644" lon="2.15876">
        <ele>93.999917</ele>
        <time>2025-06-19T11:46:29.718Z</time>
      </trkpt>
      <trkpt lat="49.1365" lon="2.1586">
        <ele>94.146093</ele>
        <time>2025-06-19T11:46:31.727Z</time>
      </trkpt>
      <trkpt lat="49.13656" lon="2.15843">
        <ele>94.293593</ele>
        <time>2025-06-19T11:46:33.723Z</time>
      </trkpt>
      <trkpt lat="49.13661" lon="2.15827">
        <ele>94.436747</ele>
        <time>2025-06-19T11:46:35.721Z</time>
      </trkpt>
      <trkpt lat="49.13667" lon="2.15812">
        <ele>94.570264</ele>
        <time>2025-06-19T11:46:37.728Z</time>
      </trkpt>
      <trkpt lat="49.13671" lon="2.15797">
        <ele>94.703348</ele>
        <time>2025-06-19T11:46:39.719Z</time>
      </trkpt>
      <trkpt lat="49.13677" lon="2.15782">
        <ele>94.839691</ele>
        <time>2025-06-19T11:46:41.724Z</time>
      </trkpt>
      <trkpt lat="49.13682" lon="2.15766">
        <ele>94.981582</ele>
        <time>2025-06-19T11:46:43.729Z</time>
      </trkpt>
      <trkpt lat="49.13688" lon="2.1575">
        <ele>95.126477</ele>
        <time>2025-06-19T11:46:45.732Z</time>
      </trkpt>
      <trkpt lat="49.13693" lon="2.15733">
        <ele>95.270615</ele>
        <time>2025-06-19T11:46:47.724Z</time>
      </trkpt>
      <trkpt lat="49.13699" lon="2.15717">
        <ele>95.413204</ele>
        <time>2025-06-19T11:46:49.726Z</time>
      </trkpt>
      <trkpt lat="49.13705" lon="2.15701">
        <ele>95.558317</ele>
        <time>2025-06-19T11:46:51.725Z</time>
      </trkpt>
      <trkpt lat="49.1371" lon="2.15685">
        <ele>95.704125</ele>
        <time>2025-06-19T11:46:53.721Z</time>
      </trkpt>
      <trkpt lat="49.13716" lon="2.15669">
        <ele>95.829528</ele>
        <time>2025-06-19T11:46:55.721Z</time>
      </trkpt>
      <trkpt lat="49.13722" lon="2.15652">
        <ele>95.838516</ele>
        <time>2025-06-19T11:46:57.726Z</time>
      </trkpt>
      <trkpt lat="49.13728" lon="2.15637">
        <ele>95.847229</ele>
        <time>2025-06-19T11:46:59.730Z</time>
      </trkpt>
      <trkpt lat="49.13733" lon="2.15621">
        <ele>95.856002</ele>
        <time>2025-06-19T11:47:01.722Z</time>
      </trkpt>
      <trkpt lat="49.13739" lon="2.15605">
        <ele>95.86489</ele>
        <time>2025-06-19T11:47:03.718Z</time>
      </trkpt>
      <trkpt lat="49.13745" lon="2.1559">
        <ele>95.873603</ele>
        <time>2025-06-19T11:47:05.721Z</time>
      </trkpt>
      <trkpt lat="49.13751" lon="2.15574">
        <ele>95.882369</ele>
        <time>2025-06-19T11:47:07.720Z</time>
      </trkpt>
      <trkpt lat="49.13757" lon="2.15558">
        <ele>95.891458</ele>
        <time>2025-06-19T11:47:09.725Z</time>
      </trkpt>
      <trkpt lat="49.13763" lon="2.15542">
        <ele>95.900504</ele>
        <time>2025-06-19T11:47:11.721Z</time>
      </trkpt>
      <trkpt lat="49.13769" lon="2.15526">
        <ele>95.909667</ele>
        <time>2025-06-19T11:47:13.720Z</time>
      </trkpt>
      <trkpt lat="49.13775" lon="2.15509">
        <ele>95.918788</ele>
        <time>2025-06-19T11:47:15.722Z</time>
      </trkpt>
      <trkpt lat="49.13781" lon="2.15493">
        <ele>95.927768</ele>
        <time>2025-06-19T11:47:17.738Z</time>
      </trkpt>
      <trkpt lat="49.13787" lon="2.15478">
        <ele>95.936435</ele>
        <time>2025-06-19T11:47:19.734Z</time>
      </trkpt>
      <trkpt lat="49.13793" lon="2.15462">
        <ele>95.945359</ele>
        <time>2025-06-19T11:47:21.733Z</time>
      </trkpt>
      <trkpt lat="49.13799" lon="2.15447">
        <ele>95.954149</ele>
        <time>2025-06-19T11:47:23.742Z</time>
      </trkpt>
      <trkpt lat="49.13805" lon="2.15431">
        <ele>95.959024</ele>
        <time>2025-06-19T11:47:25.735Z</time>
      </trkpt>
      <trkpt lat="49.1381" lon="2.15417">
        <ele>95.906839</ele>
        <time>2025-06-19T11:47:27.724Z</time>
      </trkpt>
      <trkpt lat="49.13815" lon="2.15401">
        <ele>95.855171</ele>
        <time>2025-06-19T11:47:29.718Z</time>
      </trkpt>
      <trkpt lat="49.1382" lon="2.15386">
        <ele>95.804102</ele>
        <time>2025-06-19T11:47:31.721Z</time>
      </trkpt>
      <trkpt lat="49.13826" lon="2.15372">
        <ele>95.753033</ele>
        <time>2025-06-19T11:47:33.717Z</time>
      </trkpt>
      <trkpt lat="49.1383" lon="2.15356">
        <ele>95.70302</ele>
        <time>2025-06-19T11:47:35.726Z</time>
      </trkpt>
      <trkpt lat="49.13833" lon="2.15342">
        <ele>95.655798</ele>
        <time>2025-06-19T11:47:37.731Z</time>
      </trkpt>
      <trkpt lat="49.13837" lon="2.15327">
        <ele>95.608861</ele>
        <time>2025-06-19T11:47:39.721Z</time>
      </trkpt>
      <trkpt lat="49.1384" lon="2.15314">
        <ele>95.564837</ele>
        <time>2025-06-19T11:47:41.730Z</time>
      </trkpt>
      <trkpt lat="49.13842" lon="2.15299">
        <ele>95.520297</ele>
        <time>2025-06-19T11:47:43.729Z</time>
      </trkpt>
      <trkpt lat="49.13846" lon="2.1528">
        <ele>95.457716</ele>
        <time>2025-06-19T11:47:46.722Z</time>
      </trkpt>
      <trkpt lat="49.13847" lon="2.15266">
        <ele>95.415798</ele>
        <time>2025-06-19T11:47:48.723Z</time>
      </trkpt>
      <trkpt lat="49.13849" lon="2.15246">
        <ele>95.353646</ele>
        <time>2025-06-19T11:47:51.728Z</time>
      </trkpt>
      <trkpt lat="49.13849" lon="2.15231">
        <ele>95.308917</ele>
        <time>2025-06-19T11:47:53.728Z</time>
      </trkpt>
      <trkpt lat="49.13849" lon="2.15215">
        <ele>95.26002</ele>
        <time>2025-06-19T11:47:55.726Z</time>
      </trkpt>
      <trkpt lat="49.13849" lon="2.15198">
        <ele>95.207777</ele>
        <time>2025-06-19T11:47:57.726Z</time>
      </trkpt>
      <trkpt lat="49.13848" lon="2.1518">
        <ele>95.153177</ele>
        <time>2025-06-19T11:47:59.734Z</time>
      </trkpt>
      <trkpt lat="49.13847" lon="2.1516">
        <ele>94.938187</ele>
        <time>2025-06-19T11:48:01.726Z</time>
      </trkpt>
      <trkpt lat="49.13846" lon="2.1514">
        <ele>94.583186</ele>
        <time>2025-06-19T11:48:03.741Z</time>
      </trkpt>
      <trkpt lat="49.13845" lon="2.1512">
        <ele>94.235955</ele>
        <time>2025-06-19T11:48:05.720Z</time>
      </trkpt>
      <trkpt lat="49.13843" lon="2.151">
        <ele>93.883049</ele>
        <time>2025-06-19T11:48:07.729Z</time>
      </trkpt>
      <trkpt lat="49.13842" lon="2.1508">
        <ele>93.524915</ele>
        <time>2025-06-19T11:48:09.713Z</time>
      </trkpt>
      <trkpt lat="49.13841" lon="2.15059">
        <ele>93.158981</ele>
        <time>2025-06-19T11:48:11.727Z</time>
      </trkpt>
      <trkpt lat="49.1384" lon="2.15037">
        <ele>92.777371</ele>
        <time>2025-06-19T11:48:13.738Z</time>
      </trkpt>
      <trkpt lat="49.1384" lon="2.15016">
        <ele>92.407163</ele>
        <time>2025-06-19T11:48:15.717Z</time>
      </trkpt>
      <trkpt lat="49.1384" lon="2.14997">
        <ele>92.071719</ele>
        <time>2025-06-19T11:48:17.726Z</time>
      </trkpt>
      <trkpt lat="49.13839" lon="2.1498">
        <ele>91.771926</ele>
        <time>2025-06-19T11:48:19.732Z</time>
      </trkpt>
      <trkpt lat="49.13837" lon="2.14963">
        <ele>91.473347</ele>
        <time>2025-06-19T11:48:22.723Z</time>
      </trkpt>
      <trkpt lat="49.13841" lon="2.14944">
        <ele>91.133918</ele>
        <time>2025-06-19T11:48:26.727Z</time>
      </trkpt>
      <trkpt lat="49.13848" lon="2.14934">
        <ele>90.872142</ele>
        <time>2025-06-19T11:48:28.726Z</time>
      </trkpt>
      <trkpt lat="49.13856" lon="2.14922">
        <ele>90.570514</ele>
        <time>2025-06-19T11:48:30.744Z</time>
      </trkpt>
      <trkpt lat="49.13865" lon="2.14908">
        <ele>90.342524</ele>
        <time>2025-06-19T11:48:32.739Z</time>
      </trkpt>
      <trkpt lat="49.13874" lon="2.14893">
        <ele>90.409058</ele>
        <time>2025-06-19T11:48:34.722Z</time>
      </trkpt>
      <trkpt lat="49.13884" lon="2.14878">
        <ele>90.478012</ele>
        <time>2025-06-19T11:48:36.731Z</time>
      </trkpt>
      <trkpt lat="49.13893" lon="2.14865">
        <ele>90.539258</ele>
        <time>2025-06-19T11:48:38.734Z</time>
      </trkpt>
      <trkpt lat="49.139" lon="2.14854">
        <ele>90.590456</ele>
        <time>2025-06-19T11:48:40.735Z</time>
      </trkpt>
      <trkpt lat="49.13908" lon="2.14844">
        <ele>90.63874</ele>
        <time>2025-06-19T11:48:42.725Z</time>
      </trkpt>
      <trkpt lat="49.13916" lon="2.14829">
        <ele>90.702372</ele>
        <time>2025-06-19T11:48:45.725Z</time>
      </trkpt>
      <trkpt lat="49.1392" lon="2.14816">
        <ele>90.74851</ele>
        <time>2025-06-19T11:48:47.724Z</time>
      </trkpt>
      <trkpt lat="49.13924" lon="2.14803">
        <ele>90.797068</ele>
        <time>2025-06-19T11:48:49.729Z</time>
      </trkpt>
      <trkpt lat="49.13928" lon="2.14789">
        <ele>90.8459</ele>
        <time>2025-06-19T11:48:51.726Z</time>
      </trkpt>
      <trkpt lat="49.13929" lon="2.14773">
        <ele>90.896207</ele>
        <time>2025-06-19T11:48:53.736Z</time>
      </trkpt>
      <trkpt lat="49.1393" lon="2.14758">
        <ele>90.947019</ele>
        <time>2025-06-19T11:48:55.730Z</time>
      </trkpt>
      <trkpt lat="49.13932" lon="2.14743">
        <ele>90.996207</ele>
        <time>2025-06-19T11:48:57.721Z</time>
      </trkpt>
      <trkpt lat="49.13933" lon="2.14729">
        <ele>91.041576</ele>
        <time>2025-06-19T11:48:59.720Z</time>
      </trkpt>
      <trkpt lat="49.13937" lon="2.14715">
        <ele>91.08689</ele>
        <time>2025-06-19T11:49:01.718Z</time>
      </trkpt>
      <trkpt lat="49.13941" lon="2.14698">
        <ele>91.147607</ele>
        <time>2025-06-19T11:49:04.720Z</time>
      </trkpt>
      <trkpt lat="49.13945" lon="2.1468">
        <ele>91.207661</ele>
        <time>2025-06-19T11:49:07.737Z</time>
      </trkpt>
      <trkpt lat="49.13949" lon="2.14665">
        <ele>91.798631</ele>
        <time>2025-06-19T11:49:10.748Z</time>
      </trkpt>
      <trkpt lat="49.13953" lon="2.14648">
        <ele>92.464447</ele>
        <time>2025-06-19T11:49:13.727Z</time>
      </trkpt>
      <trkpt lat="49.13955" lon="2.14633">
        <ele>93.093743</ele>
        <time>2025-06-19T11:49:16.736Z</time>
      </trkpt>
      <trkpt lat="49.13958" lon="2.14619">
        <ele>93.655758</ele>
        <time>2025-06-19T11:49:19.730Z</time>
      </trkpt>
      <trkpt lat="49.1396" lon="2.14605">
        <ele>94.199997</ele>
        <time>2025-06-19T11:49:22.722Z</time>
      </trkpt>
      <trkpt lat="49.13962" lon="2.14589">
        <ele>94.842474</ele>
        <time>2025-06-19T11:49:26.721Z</time>
      </trkpt>
      <trkpt lat="49.13966" lon="2.14574">
        <ele>95.487885</ele>
        <time>2025-06-19T11:49:31.732Z</time>
      </trkpt>
      <trkpt lat="49.13974" lon="2.14566">
        <ele>96.049283</ele>
        <time>2025-06-19T11:49:35.723Z</time>
      </trkpt>
      <trkpt lat="49.13984" lon="2.14576">
        <ele>96.769968</ele>
        <time>2025-06-19T11:49:39.725Z</time>
      </trkpt>
      <trkpt lat="49.13991" lon="2.14586">
        <ele>97.367896</ele>
        <time>2025-06-19T11:49:42.725Z</time>
      </trkpt>
      <trkpt lat="49.14" lon="2.14598">
        <ele>98.038017</ele>
        <time>2025-06-19T11:49:46.734Z</time>
      </trkpt>
      <trkpt lat="49.14008" lon="2.14606">
        <ele>98.642287</ele>
        <time>2025-06-19T11:49:50.722Z</time>
      </trkpt>
      <trkpt lat="49.14017" lon="2.14613">
        <ele>99.216479</ele>
        <time>2025-06-19T11:49:53.712Z</time>
      </trkpt>
      <trkpt lat="49.14027" lon="2.1462">
        <ele>99.882148</ele>
        <time>2025-06-19T11:49:57.723Z</time>
      </trkpt>
      <trkpt lat="49.14036" lon="2.14614">
        <ele>100.482994</ele>
        <time>2025-06-19T11:50:01.723Z</time>
      </trkpt>
      <trkpt lat="49.14042" lon="2.14602">
        <ele>101.058011</ele>
        <time>2025-06-19T11:50:05.725Z</time>
      </trkpt>
      <trkpt lat="49.14049" lon="2.14592">
        <ele>101.620917</ele>
        <time>2025-06-19T11:50:09.719Z</time>
      </trkpt>
      <trkpt lat="49.14057" lon="2.14586">
        <ele>102.038548</ele>
        <time>2025-06-19T11:50:13.731Z</time>
      </trkpt>
      <trkpt lat="49.14068" lon="2.14582">
        <ele>102.227563</ele>
        <time>2025-06-19T11:50:17.717Z</time>
      </trkpt>
      <trkpt lat="49.14077" lon="2.14578">
        <ele>102.395979</ele>
        <time>2025-06-19T11:50:20.730Z</time>
      </trkpt>
      <trkpt lat="49.14087" lon="2.14575">
        <ele>102.568052</ele>
        <time>2025-06-19T11:50:23.723Z</time>
      </trkpt>
      <trkpt lat="49.14096" lon="2.14572">
        <ele>102.73422</ele>
        <time>2025-06-19T11:50:26.717Z</time>
      </trkpt>
      <trkpt lat="49.14105" lon="2.14569">
        <ele>102.898677</ele>
        <time>2025-06-19T11:50:29.733Z</time>
      </trkpt>
      <trkpt lat="49.14114" lon="2.14564">
        <ele>103.066164</ele>
        <time>2025-06-19T11:50:32.720Z</time>
      </trkpt>
      <trkpt lat="49.14123" lon="2.1456">
        <ele>103.229334</ele>
        <time>2025-06-19T11:50:35.722Z</time>
      </trkpt>
      <trkpt lat="49.14134" lon="2.14554">
        <ele>103.432663</ele>
        <time>2025-06-19T11:50:39.734Z</time>
      </trkpt>
      <trkpt lat="49.14144" lon="2.14548">
        <ele>103.630636</ele>
        <time>2025-06-19T11:50:43.720Z</time>
      </trkpt>
      <trkpt lat="49.14155" lon="2.14543">
        <ele>103.820322</ele>
        <time>2025-06-19T11:50:47.725Z</time>
      </trkpt>
      <trkpt lat="49.14164" lon="2.14539">
        <ele>103.98516</ele>
        <time>2025-06-19T11:50:51.724Z</time>
      </trkpt>
      <trkpt lat="49.14173" lon="2.14534">
        <ele>104.158041</ele>
        <time>2025-06-19T11:50:55.733Z</time>
      </trkpt>
      <trkpt lat="49.14182" lon="2.1453">
        <ele>104.330428</ele>
        <time>2025-06-19T11:50:59.728Z</time>
      </trkpt>
      <trkpt lat="49.1421" lon="2.14525">
        <ele>104.817266</ele>
        <time>2025-06-19T11:51:52.724Z</time>
      </trkpt>
      <trkpt lat="49.1422" lon="2.14521">
        <ele>105.005841</ele>
        <time>2025-06-19T11:51:54.722Z</time>
      </trkpt>
      <trkpt lat="49.1423" lon="2.14517">
        <ele>105.022511</ele>
        <time>2025-06-19T11:51:56.724Z</time>
      </trkpt>
      <trkpt lat="49.1424" lon="2.14511">
        <ele>104.528519</ele>
        <time>2025-06-19T11:51:58.722Z</time>
      </trkpt>
      <trkpt lat="49.14253" lon="2.14502">
        <ele>103.898331</ele>
        <time>2025-06-19T11:52:00.729Z</time>
      </trkpt>
      <trkpt lat="49.14267" lon="2.14491">
        <ele>103.213638</ele>
        <time>2025-06-19T11:52:02.725Z</time>
      </trkpt>
      <trkpt lat="49.14281" lon="2.14479">
        <ele>102.490484</ele>
        <time>2025-06-19T11:52:04.721Z</time>
      </trkpt>
      <trkpt lat="49.14297" lon="2.14467">
        <ele>101.738876</ele>
        <time>2025-06-19T11:52:06.716Z</time>
      </trkpt>
      <trkpt lat="49.14313" lon="2.14457">
        <ele>100.936307</ele>
        <time>2025-06-19T11:52:08.716Z</time>
      </trkpt>
      <trkpt lat="49.14322" lon="2.14453">
        <ele>100.524001</ele>
        <time>2025-06-19T11:52:09.718Z</time>
      </trkpt>
      <trkpt lat="49.1434" lon="2.1445">
        <ele>99.737608</ele>
        <time>2025-06-19T11:52:11.719Z</time>
      </trkpt>
      <trkpt lat="49.14349" lon="2.1445">
        <ele>99.326895</ele>
        <time>2025-06-19T11:52:12.718Z</time>
      </trkpt>
      <trkpt lat="49.14359" lon="2.14451">
        <ele>98.923562</ele>
        <time>2025-06-19T11:52:13.717Z</time>
      </trkpt>
      <trkpt lat="49.14375" lon="2.14458">
        <ele>98.178214</ele>
        <time>2025-06-19T11:52:15.725Z</time>
      </trkpt>
      <trkpt lat="49.1439" lon="2.14469">
        <ele>97.442312</ele>
        <time>2025-06-19T11:52:17.726Z</time>
      </trkpt>
      <trkpt lat="49.14403" lon="2.14481">
        <ele>97.217665</ele>
        <time>2025-06-19T11:52:19.725Z</time>
      </trkpt>
      <trkpt lat="49.14415" lon="2.14494">
        <ele>97.251213</ele>
        <time>2025-06-19T11:52:21.722Z</time>
      </trkpt>
      <trkpt lat="49.14426" lon="2.14507">
        <ele>97.282727</ele>
        <time>2025-06-19T11:52:23.720Z</time>
      </trkpt>
      <trkpt lat="49.14436" lon="2.14518">
        <ele>97.311785</ele>
        <time>2025-06-19T11:52:25.714Z</time>
      </trkpt>
      <trkpt lat="49.14445" lon="2.14529">
        <ele>97.337932</ele>
        <time>2025-06-19T11:52:27.715Z</time>
      </trkpt>
      <trkpt lat="49.14455" lon="2.1454">
        <ele>97.364711</ele>
        <time>2025-06-19T11:52:29.721Z</time>
      </trkpt>
      <trkpt lat="49.14463" lon="2.1455">
        <ele>97.389044</ele>
        <time>2025-06-19T11:52:31.721Z</time>
      </trkpt>
      <trkpt lat="49.14471" lon="2.14561">
        <ele>97.414372</ele>
        <time>2025-06-19T11:52:33.722Z</time>
      </trkpt>
      <trkpt lat="49.14479" lon="2.14572">
        <ele>97.438037</ele>
        <time>2025-06-19T11:52:35.719Z</time>
      </trkpt>
      <trkpt lat="49.14486" lon="2.14583">
        <ele>97.46266</ele>
        <time>2025-06-19T11:52:37.716Z</time>
      </trkpt>
      <trkpt lat="49.14494" lon="2.14593">
        <ele>97.485478</ele>
        <time>2025-06-19T11:52:39.716Z</time>
      </trkpt>
      <trkpt lat="49.14501" lon="2.14605">
        <ele>97.509836</ele>
        <time>2025-06-19T11:52:41.721Z</time>
      </trkpt>
      <trkpt lat="49.14508" lon="2.14615">
        <ele>97.532241</ele>
        <time>2025-06-19T11:52:43.727Z</time>
      </trkpt>
      <trkpt lat="49.14515" lon="2.14627">
        <ele>97.555957</ele>
        <time>2025-06-19T11:52:45.734Z</time>
      </trkpt>
      <trkpt lat="49.14522" lon="2.14639">
        <ele>97.580032</ele>
        <time>2025-06-19T11:52:47.728Z</time>
      </trkpt>
      <trkpt lat="49.14529" lon="2.14651">
        <ele>97.602906</ele>
        <time>2025-06-19T11:52:49.733Z</time>
      </trkpt>
      <trkpt lat="49.14534" lon="2.14662">
        <ele>97.475443</ele>
        <time>2025-06-19T11:52:51.722Z</time>
      </trkpt>
      <trkpt lat="49.14541" lon="2.14671">
        <ele>97.309751</ele>
        <time>2025-06-19T11:52:54.722Z</time>
      </trkpt>
      <trkpt lat="49.1455" lon="2.14691">
        <ele>97.037397</ele>
        <time>2025-06-19T11:54:02.735Z</time>
      </trkpt>
      <trkpt lat="49.14558" lon="2.14706">
        <ele>96.815703</ele>
        <time>2025-06-19T11:54:05.733Z</time>
      </trkpt>
      <trkpt lat="49.14566" lon="2.14721">
        <ele>96.581503</ele>
        <time>2025-06-19T11:54:08.724Z</time>
      </trkpt>
      <trkpt lat="49.14572" lon="2.14733">
        <ele>96.414806</ele>
        <time>2025-06-19T11:54:10.736Z</time>
      </trkpt>
      <trkpt lat="49.14578" lon="2.14744">
        <ele>96.24077</ele>
        <time>2025-06-19T11:54:12.719Z</time>
      </trkpt>
      <trkpt lat="49.14586" lon="2.14757">
        <ele>96.046173</ele>
        <time>2025-06-19T11:54:14.721Z</time>
      </trkpt>
      <trkpt lat="49.14595" lon="2.1477">
        <ele>95.826199</ele>
        <time>2025-06-19T11:54:16.714Z</time>
      </trkpt>
      <trkpt lat="49.14606" lon="2.14781">
        <ele>95.585178</ele>
        <time>2025-06-19T11:54:18.709Z</time>
      </trkpt>
      <trkpt lat="49.1462" lon="2.1479">
        <ele>95.322591</ele>
        <time>2025-06-19T11:54:20.718Z</time>
      </trkpt>
      <trkpt lat="49.14634" lon="2.14796">
        <ele>95.064718</ele>
        <time>2025-06-19T11:54:22.710Z</time>
      </trkpt>
      <trkpt lat="49.14648" lon="2.14799">
        <ele>94.804108</ele>
        <time>2025-06-19T11:54:24.731Z</time>
      </trkpt>
      <trkpt lat="49.14663" lon="2.14799">
        <ele>94.540349</ele>
        <time>2025-06-19T11:54:26.712Z</time>
      </trkpt>
      <trkpt lat="49.14678" lon="2.14797">
        <ele>94.425415</ele>
        <time>2025-06-19T11:54:28.718Z</time>
      </trkpt>
      <trkpt lat="49.14694" lon="2.14797">
        <ele>94.429389</ele>
        <time>2025-06-19T11:54:30.718Z</time>
      </trkpt>
      <trkpt lat="49.14709" lon="2.14804">
        <ele>94.433375</ele>
        <time>2025-06-19T11:54:32.712Z</time>
      </trkpt>
      <trkpt lat="49.1472" lon="2.14821">
        <ele>94.43742</ele>
        <time>2025-06-19T11:54:34.714Z</time>
      </trkpt>
      <trkpt lat="49.14728" lon="2.14841">
        <ele>94.441353</ele>
        <time>2025-06-19T11:54:36.720Z</time>
      </trkpt>
      <trkpt lat="49.14735" lon="2.1486">
        <ele>94.444924</ele>
        <time>2025-06-19T11:54:38.726Z</time>
      </trkpt>
      <trkpt lat="49.1474" lon="2.14877">
        <ele>94.448139</ele>
        <time>2025-06-19T11:54:40.712Z</time>
      </trkpt>
      <trkpt lat="49.14746" lon="2.14892">
        <ele>94.451007</ele>
        <time>2025-06-19T11:54:42.723Z</time>
      </trkpt>
      <trkpt lat="49.14752" lon="2.14905">
        <ele>94.453701</ele>
        <time>2025-06-19T11:54:44.732Z</time>
      </trkpt>
      <trkpt lat="49.14757" lon="2.14918">
        <ele>94.456284</ele>
        <time>2025-06-19T11:54:46.732Z</time>
      </trkpt>
      <trkpt lat="49.14762" lon="2.1493">
        <ele>94.458613</ele>
        <time>2025-06-19T11:54:48.721Z</time>
      </trkpt>
      <trkpt lat="49.14766" lon="2.14942">
        <ele>94.46096</ele>
        <time>2025-06-19T11:54:50.731Z</time>
      </trkpt>
      <trkpt lat="49.14772" lon="2.14954">
        <ele>94.463373</ele>
        <time>2025-06-19T11:54:52.715Z</time>
      </trkpt>
      <trkpt lat="49.14777" lon="2.14967">
        <ele>94.465885</ele>
        <time>2025-06-19T11:54:54.721Z</time>
      </trkpt>
      <trkpt lat="49.14783" lon="2.14984">
        <ele>94.469133</ele>
        <time>2025-06-19T11:54:57.734Z</time>
      </trkpt>
      <trkpt lat="49.14788" lon="2.14996">
        <ele>94.718729</ele>
        <time>2025-06-19T11:54:59.728Z</time>
      </trkpt>
      <trkpt lat="49.14795" lon="2.15011">
        <ele>95.073029</ele>
        <time>2025-06-19T11:55:02.736Z</time>
      </trkpt>
      <trkpt lat="49.14806" lon="2.15022">
        <ele>95.44741</ele>
        <time>2025-06-19T11:55:05.719Z</time>
      </trkpt>
      <trkpt lat="49.14815" lon="2.1502">
        <ele>95.707758</ele>
        <time>2025-06-19T11:55:07.721Z</time>
      </trkpt>
      <trkpt lat="49.14828" lon="2.15016">
        <ele>96.087441</ele>
        <time>2025-06-19T11:55:10.731Z</time>
      </trkpt>
      <trkpt lat="49.1484" lon="2.15016">
        <ele>96.438283</ele>
        <time>2025-06-19T11:55:13.719Z</time>
      </trkpt>
      <trkpt lat="49.1485" lon="2.1502">
        <ele>96.737396</ele>
        <time>2025-06-19T11:55:16.731Z</time>
      </trkpt>
      <trkpt lat="49.14859" lon="2.15025">
        <ele>97.009589</ele>
        <time>2025-06-19T11:55:19.731Z</time>
      </trkpt>
      <trkpt lat="49.14867" lon="2.15032">
        <ele>97.271006</ele>
        <time>2025-06-19T11:55:22.735Z</time>
      </trkpt>
      <trkpt lat="49.14877" lon="2.15041">
        <ele>97.61062</ele>
        <time>2025-06-19T11:55:26.720Z</time>
      </trkpt>
      <trkpt lat="49.14888" lon="2.15048">
        <ele>97.952539</ele>
        <time>2025-06-19T11:55:30.723Z</time>
      </trkpt>
      <trkpt lat="49.14898" lon="2.15046">
        <ele>98.228573</ele>
        <time>2025-06-19T11:55:33.727Z</time>
      </trkpt>
      <trkpt lat="49.14907" lon="2.15038">
        <ele>98.539201</ele>
        <time>2025-06-19T11:55:36.716Z</time>
      </trkpt>
      <trkpt lat="49.14915" lon="2.1503">
        <ele>98.804827</ele>
        <time>2025-06-19T11:55:39.727Z</time>
      </trkpt>
      <trkpt lat="49.14924" lon="2.15019">
        <ele>99.140674</ele>
        <time>2025-06-19T11:55:43.720Z</time>
      </trkpt>
      <trkpt lat="49.14934" lon="2.15009">
        <ele>99.483734</ele>
        <time>2025-06-19T11:55:47.724Z</time>
      </trkpt>
      <trkpt lat="49.14942" lon="2.15002">
        <ele>99.61305</ele>
        <time>2025-06-19T11:55:50.725Z</time>
      </trkpt>
      <trkpt lat="49.1495" lon="2.14996">
        <ele>99.541691</ele>
        <time>2025-06-19T11:55:53.721Z</time>
      </trkpt>
      <trkpt lat="49.14961" lon="2.1499">
        <ele>99.45234</ele>
        <time>2025-06-19T11:55:57.718Z</time>
      </trkpt>
      <trkpt lat="49.1497" lon="2.14989">
        <ele>99.380601</ele>
        <time>2025-06-19T11:56:00.716Z</time>
      </trkpt>
      <trkpt lat="49.14979" lon="2.1499">
        <ele>99.305339</ele>
        <time>2025-06-19T11:56:03.716Z</time>
      </trkpt>
      <trkpt lat="49.14991" lon="2.1499">
        <ele>99.213733</ele>
        <time>2025-06-19T11:56:07.731Z</time>
      </trkpt>
      <trkpt lat="49.15" lon="2.14991">
        <ele>99.140779</ele>
        <time>2025-06-19T11:56:10.719Z</time>
      </trkpt>
      <trkpt lat="49.15012" lon="2.14993">
        <ele>99.05164</ele>
        <time>2025-06-19T11:56:13.714Z</time>
      </trkpt>
      <trkpt lat="49.15026" lon="2.14995">
        <ele>98.943261</ele>
        <time>2025-06-19T11:56:16.724Z</time>
      </trkpt>
      <trkpt lat="49.15037" lon="2.14993">
        <ele>98.854689</ele>
        <time>2025-06-19T11:56:18.717Z</time>
      </trkpt>
      <trkpt lat="49.15048" lon="2.14989">
        <ele>98.761407</ele>
        <time>2025-06-19T11:56:20.724Z</time>
      </trkpt>
      <trkpt lat="49.15061" lon="2.1498">
        <ele>98.652085</ele>
        <time>2025-06-19T11:56:22.728Z</time>
      </trkpt>
      <trkpt lat="49.15075" lon="2.14973">
        <ele>98.538421</ele>
        <time>2025-06-19T11:56:24.724Z</time>
      </trkpt>
      <trkpt lat="49.15087" lon="2.14962">
        <ele>98.429295</ele>
        <time>2025-06-19T11:56:26.721Z</time>
      </trkpt>
      <trkpt lat="49.15098" lon="2.14949">
        <ele>98.317703</ele>
        <time>2025-06-19T11:56:28.721Z</time>
      </trkpt>
      <trkpt lat="49.15108" lon="2.14934">
        <ele>98.230115</ele>
        <time>2025-06-19T11:56:30.726Z</time>
      </trkpt>
      <trkpt lat="49.15116" lon="2.14919">
        <ele>98.208482</ele>
        <time>2025-06-19T11:56:32.734Z</time>
      </trkpt>
      <trkpt lat="49.15126" lon="2.14902">
        <ele>98.184595</ele>
        <time>2025-06-19T11:56:34.731Z</time>
      </trkpt>
      <trkpt lat="49.15135" lon="2.14884">
        <ele>98.160646</ele>
        <time>2025-06-19T11:56:36.722Z</time>
      </trkpt>
      <trkpt lat="49.15143" lon="2.14865">
        <ele>98.136268</ele>
        <time>2025-06-19T11:56:38.728Z</time>
      </trkpt>
      <trkpt lat="49.15154" lon="2.1485">
        <ele>98.111941</ele>
        <time>2025-06-19T11:56:40.715Z</time>
      </trkpt>
      <trkpt lat="49.15167" lon="2.1484">
        <ele>98.089004</ele>
        <time>2025-06-19T11:56:42.720Z</time>
      </trkpt>
      <trkpt lat="49.15178" lon="2.14832">
        <ele>98.069163</ele>
        <time>2025-06-19T11:56:44.730Z</time>
      </trkpt>
      <trkpt lat="49.15188" lon="2.14826">
        <ele>98.05044</ele>
        <time>2025-06-19T11:56:46.728Z</time>
      </trkpt>
      <trkpt lat="49.15199" lon="2.1482">
        <ele>98.032861</ele>
        <time>2025-06-19T11:56:48.722Z</time>
      </trkpt>
      <trkpt lat="49.15208" lon="2.14814">
        <ele>98.01543</ele>
        <time>2025-06-19T11:56:50.719Z</time>
      </trkpt>
      <trkpt lat="49.15218" lon="2.14809">
        <ele>97.99863</ele>
        <time>2025-06-19T11:56:52.723Z</time>
      </trkpt>
      <trkpt lat="49.15228" lon="2.14805">
        <ele>97.982546</ele>
        <time>2025-06-19T11:56:54.718Z</time>
      </trkpt>
      <trkpt lat="49.15237" lon="2.148">
        <ele>97.967027</ele>
        <time>2025-06-19T11:56:56.726Z</time>
      </trkpt>
      <trkpt lat="49.15245" lon="2.14795">
        <ele>97.951997</ele>
        <time>2025-06-19T11:56:58.727Z</time>
      </trkpt>
      <trkpt lat="49.15258" lon="2.14788">
        <ele>97.974401</ele>
        <time>2025-06-19T11:57:01.736Z</time>
      </trkpt>
      <trkpt lat="49.15267" lon="2.14784">
        <ele>98.018532</ele>
        <time>2025-06-19T11:57:03.717Z</time>
      </trkpt>
      <trkpt lat="49.15279" lon="2.14777">
        <ele>98.081314</ele>
        <time>2025-06-19T11:57:06.715Z</time>
      </trkpt>
      <trkpt lat="49.15289" lon="2.1477">
        <ele>98.138142</ele>
        <time>2025-06-19T11:57:09.718Z</time>
      </trkpt>
      <trkpt lat="49.153" lon="2.14763">
        <ele>98.194879</ele>
        <time>2025-06-19T11:57:12.727Z</time>
      </trkpt>
      <trkpt lat="49.15309" lon="2.14757">
        <ele>98.244969</ele>
        <time>2025-06-19T11:57:15.735Z</time>
      </trkpt>
      <trkpt lat="49.15319" lon="2.1475">
        <ele>98.298338</ele>
        <time>2025-06-19T11:57:18.718Z</time>
      </trkpt>
      <trkpt lat="49.15331" lon="2.14742">
        <ele>98.358554</ele>
        <time>2025-06-19T11:57:21.731Z</time>
      </trkpt>
      <trkpt lat="49.15342" lon="2.14732">
        <ele>98.422215</ele>
        <time>2025-06-19T11:57:24.719Z</time>
      </trkpt>
      <trkpt lat="49.15351" lon="2.14725">
        <ele>98.472735</ele>
        <time>2025-06-19T11:57:26.722Z</time>
      </trkpt>
      <trkpt lat="49.1536" lon="2.14717">
        <ele>98.52278</ele>
        <time>2025-06-19T11:57:28.718Z</time>
      </trkpt>
      <trkpt lat="49.1537" lon="2.14711">
        <ele>98.575527</ele>
        <time>2025-06-19T11:57:30.716Z</time>
      </trkpt>
      <trkpt lat="49.15381" lon="2.14705">
        <ele>98.632404</ele>
        <time>2025-06-19T11:57:32.720Z</time>
      </trkpt>
      <trkpt lat="49.15393" lon="2.14701">
        <ele>98.693743</ele>
        <time>2025-06-19T11:57:34.722Z</time>
      </trkpt>
      <trkpt lat="49.15405" lon="2.147">
        <ele>98.753201</ele>
        <time>2025-06-19T11:57:36.725Z</time>
      </trkpt>
      <trkpt lat="49.15417" lon="2.147">
        <ele>98.811929</ele>
        <time>2025-06-19T11:57:38.718Z</time>
      </trkpt>
      <trkpt lat="49.1543" lon="2.14702">
        <ele>99.060358</ele>
        <time>2025-06-19T11:57:40.723Z</time>
      </trkpt>
      <trkpt lat="49.15442" lon="2.14704">
        <ele>99.296226</ele>
        <time>2025-06-19T11:57:42.724Z</time>
      </trkpt>
      <trkpt lat="49.15453" lon="2.14706">
        <ele>99.531228</ele>
        <time>2025-06-19T11:57:44.728Z</time>
      </trkpt>
      <trkpt lat="49.15463" lon="2.14708">
        <ele>99.742925</ele>
        <time>2025-06-19T11:57:46.720Z</time>
      </trkpt>
      <trkpt lat="49.15472" lon="2.14709">
        <ele>99.949891</ele>
        <time>2025-06-19T11:57:48.722Z</time>
      </trkpt>
      <trkpt lat="49.15482" lon="2.1471">
        <ele>100.15057</ele>
        <time>2025-06-19T11:57:50.725Z</time>
      </trkpt>
      <trkpt lat="49.15495" lon="2.14713">
        <ele>100.425612</ele>
        <time>2025-06-19T11:57:53.733Z</time>
      </trkpt>
      <trkpt lat="49.15508" lon="2.14715">
        <ele>100.695025</ele>
        <time>2025-06-19T11:57:56.728Z</time>
      </trkpt>
      <trkpt lat="49.15518" lon="2.14717">
        <ele>100.904956</ele>
        <time>2025-06-19T11:57:58.718Z</time>
      </trkpt>
      <trkpt lat="49.15527" lon="2.14717">
        <ele>101.098602</ele>
        <time>2025-06-19T11:58:00.726Z</time>
      </trkpt>
      <trkpt lat="49.15536" lon="2.14717">
        <ele>101.298487</ele>
        <time>2025-06-19T11:58:02.723Z</time>
      </trkpt>
      <trkpt lat="49.15549" lon="2.14719">
        <ele>101.574783</ele>
        <time>2025-06-19T11:58:05.727Z</time>
      </trkpt>
      <trkpt lat="49.1556" lon="2.14719">
        <ele>101.789461</ele>
        <time>2025-06-19T11:58:07.731Z</time>
      </trkpt>
      <trkpt lat="49.15569" lon="2.14718">
        <ele>101.996025</ele>
        <time>2025-06-19T11:58:09.729Z</time>
      </trkpt>
      <trkpt lat="49.15579" lon="2.14718">
        <ele>102.208689</ele>
        <time>2025-06-19T11:58:11.726Z</time>
      </trkpt>
      <trkpt lat="49.1559" lon="2.14717">
        <ele>102.42568</ele>
        <time>2025-06-19T11:58:13.715Z</time>
      </trkpt>
      <trkpt lat="49.15602" lon="2.14717">
        <ele>102.589534</ele>
        <time>2025-06-19T11:58:15.724Z</time>
      </trkpt>
      <trkpt lat="49.15613" lon="2.14716">
        <ele>102.539005</ele>
        <time>2025-06-19T11:58:17.726Z</time>
      </trkpt>
      <trkpt lat="49.15625" lon="2.14714">
        <ele>102.486408</ele>
        <time>2025-06-19T11:58:19.734Z</time>
      </trkpt>
      <trkpt lat="49.15636" lon="2.14712">
        <ele>102.433396</ele>
        <time>2025-06-19T11:58:21.725Z</time>
      </trkpt>
      <trkpt lat="49.15648" lon="2.14711">
        <ele>102.38302</ele>
        <time>2025-06-19T11:58:23.734Z</time>
      </trkpt>
      <trkpt lat="49.1566" lon="2.14706">
        <ele>102.327553</ele>
        <time>2025-06-19T11:58:25.721Z</time>
      </trkpt>
      <trkpt lat="49.15671" lon="2.14701">
        <ele>102.276936</ele>
        <time>2025-06-19T11:58:27.719Z</time>
      </trkpt>
      <trkpt lat="49.15681" lon="2.14693">
        <ele>102.22542</ele>
        <time>2025-06-19T11:58:29.726Z</time>
      </trkpt>
      <trkpt lat="49.1569" lon="2.14684">
        <ele>102.175767</ele>
        <time>2025-06-19T11:58:31.729Z</time>
      </trkpt>
      <trkpt lat="49.157" lon="2.14675">
        <ele>102.124648</ele>
        <time>2025-06-19T11:58:33.720Z</time>
      </trkpt>
      <trkpt lat="49.15709" lon="2.14665">
        <ele>102.076342</ele>
        <time>2025-06-19T11:58:35.725Z</time>
      </trkpt>
      <trkpt lat="49.15718" lon="2.14656">
        <ele>102.027947</ele>
        <time>2025-06-19T11:58:37.735Z</time>
      </trkpt>
      <trkpt lat="49.15726" lon="2.14646">
        <ele>101.979825</ele>
        <time>2025-06-19T11:58:39.719Z</time>
      </trkpt>
      <trkpt lat="49.15735" lon="2.14637">
        <ele>101.931911</ele>
        <time>2025-06-19T11:58:41.716Z</time>
      </trkpt>
      <trkpt lat="49.15743" lon="2.14627">
        <ele>101.885738</ele>
        <time>2025-06-19T11:58:43.718Z</time>
      </trkpt>
      <trkpt lat="49.15751" lon="2.14617">
        <ele>101.838946</ele>
        <time>2025-06-19T11:58:45.728Z</time>
      </trkpt>
      <trkpt lat="49.15758" lon="2.14605">
        <ele>101.791199</ele>
        <time>2025-06-19T11:58:47.711Z</time>
      </trkpt>
      <trkpt lat="49.15762" lon="2.14591">
        <ele>101.746241</ele>
        <time>2025-06-19T11:58:49.713Z</time>
      </trkpt>
      <trkpt lat="49.15764" lon="2.14576">
        <ele>101.698067</ele>
        <time>2025-06-19T11:58:51.707Z</time>
      </trkpt>
      <trkpt lat="49.15764" lon="2.14559">
        <ele>101.647491</ele>
        <time>2025-06-19T11:58:53.727Z</time>
      </trkpt>
      <trkpt lat="49.15762" lon="2.14543">
        <ele>101.597946</ele>
        <time>2025-06-19T11:58:55.715Z</time>
      </trkpt>
      <trkpt lat="49.15761" lon="2.14527">
        <ele>101.547654</ele>
        <time>2025-06-19T11:58:57.725Z</time>
      </trkpt>
      <trkpt lat="49.15758" lon="2.14511">
        <ele>101.496242</ele>
        <time>2025-06-19T11:58:59.716Z</time>
      </trkpt>
      <trkpt lat="49.15756" lon="2.14494">
        <ele>101.444926</ele>
        <time>2025-06-19T11:59:01.736Z</time>
      </trkpt>
      <trkpt lat="49.15754" lon="2.14479">
        <ele>101.396672</ele>
        <time>2025-06-19T11:59:03.726Z</time>
      </trkpt>
      <trkpt lat="49.15753" lon="2.14463">
        <ele>101.346824</ele>
        <time>2025-06-19T11:59:05.718Z</time>
      </trkpt>
      <trkpt lat="49.15752" lon="2.14446">
        <ele>101.294681</ele>
        <time>2025-06-19T11:59:07.734Z</time>
      </trkpt>
      <trkpt lat="49.15752" lon="2.14428">
        <ele>101.239505</ele>
        <time>2025-06-19T11:59:09.731Z</time>
      </trkpt>
      <trkpt lat="49.15754" lon="2.1441">
        <ele>101.184447</ele>
        <time>2025-06-19T11:59:11.723Z</time>
      </trkpt>
      <trkpt lat="49.15758" lon="2.14394">
        <ele>101.13374</ele>
        <time>2025-06-19T11:59:13.729Z</time>
      </trkpt>
      <trkpt lat="49.15762" lon="2.14379">
        <ele>101.082318</ele>
        <time>2025-06-19T11:59:15.724Z</time>
      </trkpt>
      <trkpt lat="49.15768" lon="2.14365">
        <ele>101.033549</ele>
        <time>2025-06-19T11:59:17.717Z</time>
      </trkpt>
      <trkpt lat="49.15774" lon="2.14352">
        <ele>100.984777</ele>
        <time>2025-06-19T11:59:19.728Z</time>
      </trkpt>
      <trkpt lat="49.15781" lon="2.14338">
        <ele>101.000715</ele>
        <time>2025-06-19T11:59:21.736Z</time>
      </trkpt>
      <trkpt lat="49.15788" lon="2.14327">
        <ele>101.074252</ele>
        <time>2025-06-19T11:59:23.718Z</time>
      </trkpt>
      <trkpt lat="49.15795" lon="2.14315">
        <ele>101.147813</ele>
        <time>2025-06-19T11:59:25.726Z</time>
      </trkpt>
      <trkpt lat="49.15802" lon="2.14304">
        <ele>101.218885</ele>
        <time>2025-06-19T11:59:27.731Z</time>
      </trkpt>
      <trkpt lat="49.15809" lon="2.14293">
        <ele>101.290879</ele>
        <time>2025-06-19T11:59:29.725Z</time>
      </trkpt>
      <trkpt lat="49.15815" lon="2.14282">
        <ele>101.358408</ele>
        <time>2025-06-19T11:59:31.720Z</time>
      </trkpt>
      <trkpt lat="49.15821" lon="2.1427">
        <ele>101.427473</ele>
        <time>2025-06-19T11:59:33.716Z</time>
      </trkpt>
      <trkpt lat="49.15827" lon="2.14259">
        <ele>101.497357</ele>
        <time>2025-06-19T11:59:35.723Z</time>
      </trkpt>
      <trkpt lat="49.15833" lon="2.14248">
        <ele>101.561759</ele>
        <time>2025-06-19T11:59:37.720Z</time>
      </trkpt>
      <trkpt lat="49.15839" lon="2.14237">
        <ele>101.632002</ele>
        <time>2025-06-19T11:59:39.727Z</time>
      </trkpt>
      <trkpt lat="49.15848" lon="2.14222">
        <ele>101.726112</ele>
        <time>2025-06-19T11:59:42.716Z</time>
      </trkpt>
      <trkpt lat="49.15856" lon="2.14208">
        <ele>101.811551</ele>
        <time>2025-06-19T11:59:45.726Z</time>
      </trkpt>
      <trkpt lat="49.15863" lon="2.14195">
        <ele>101.893398</ele>
        <time>2025-06-19T11:59:48.715Z</time>
      </trkpt>
      <trkpt lat="49.1587" lon="2.1418">
        <ele>101.979148</ele>
        <time>2025-06-19T11:59:51.711Z</time>
      </trkpt>
      <trkpt lat="49.15878" lon="2.14166">
        <ele>102.064907</ele>
        <time>2025-06-19T11:59:54.721Z</time>
      </trkpt>
      <trkpt lat="49.15885" lon="2.14153">
        <ele>102.146836</ele>
        <time>2025-06-19T11:59:57.717Z</time>
      </trkpt>
      <trkpt lat="49.15893" lon="2.14139">
        <ele>102.230033</ele>
        <time>2025-06-19T12:00:00.721Z</time>
      </trkpt>
      <trkpt lat="49.159" lon="2.14126">
        <ele>102.350586</ele>
        <time>2025-06-19T12:00:03.719Z</time>
      </trkpt>
      <trkpt lat="49.15909" lon="2.14113">
        <ele>102.488404</ele>
        <time>2025-06-19T12:00:06.718Z</time>
      </trkpt>
      <trkpt lat="49.15918" lon="2.14101">
        <ele>102.627879</ele>
        <time>2025-06-19T12:00:09.718Z</time>
      </trkpt>
      <trkpt lat="49.15928" lon="2.1409">
        <ele>102.765634</ele>
        <time>2025-06-19T12:00:12.724Z</time>
      </trkpt>
      <trkpt lat="49.15937" lon="2.14079">
        <ele>102.902055</ele>
        <time>2025-06-19T12:00:15.734Z</time>
      </trkpt>
      <trkpt lat="49.15947" lon="2.1407">
        <ele>103.03455</ele>
        <time>2025-06-19T12:00:18.721Z</time>
      </trkpt>
      <trkpt lat="49.15958" lon="2.14062">
        <ele>103.169267</ele>
        <time>2025-06-19T12:00:21.719Z</time>
      </trkpt>
      <trkpt lat="49.15969" lon="2.14055">
        <ele>103.308213</ele>
        <time>2025-06-19T12:00:24.740Z</time>
      </trkpt>
      <trkpt lat="49.1598" lon="2.14047">
        <ele>103.445656</ele>
        <time>2025-06-19T12:00:27.731Z</time>
      </trkpt>
      <trkpt lat="49.1599" lon="2.14039">
        <ele>103.585156</ele>
        <time>2025-06-19T12:00:30.728Z</time>
      </trkpt>
      <trkpt lat="49.16002" lon="2.1403">
        <ele>103.729788</ele>
        <time>2025-06-19T12:00:33.718Z</time>
      </trkpt>
      <trkpt lat="49.1601" lon="2.14023">
        <ele>103.842335</ele>
        <time>2025-06-19T12:00:35.720Z</time>
      </trkpt>
      <trkpt lat="49.16019" lon="2.14016">
        <ele>103.958977</ele>
        <time>2025-06-19T12:00:37.714Z</time>
      </trkpt>
      <trkpt lat="49.16028" lon="2.14007">
        <ele>104.077134</ele>
        <time>2025-06-19T12:00:39.728Z</time>
      </trkpt>
      <trkpt lat="49.16038" lon="2.13999">
        <ele>104.205519</ele>
        <time>2025-06-19T12:00:41.717Z</time>
      </trkpt>
      <trkpt lat="49.16048" lon="2.1399">
        <ele>104.300159</ele>
        <time>2025-06-19T12:00:43.727Z</time>
      </trkpt>
      <trkpt lat="49.16061" lon="2.13981">
        <ele>104.251832</ele>
        <time>2025-06-19T12:00:45.727Z</time>
      </trkpt>
      <trkpt lat="49.16073" lon="2.13973">
        <ele>104.203149</ele>
        <time>2025-06-19T12:00:47.726Z</time>
      </trkpt>
      <trkpt lat="49.16088" lon="2.13967">
        <ele>104.151324</ele>
        <time>2025-06-19T12:00:49.710Z</time>
      </trkpt>
      <trkpt lat="49.16101" lon="2.1397">
        <ele>104.102735</ele>
        <time>2025-06-19T12:00:51.714Z</time>
      </trkpt>
      <trkpt lat="49.16115" lon="2.13976">
        <ele>104.051717</ele>
        <time>2025-06-19T12:00:53.718Z</time>
      </trkpt>
      <trkpt lat="49.16127" lon="2.13983">
        <ele>104.006015</ele>
        <time>2025-06-19T12:00:55.723Z</time>
      </trkpt>
      <trkpt lat="49.16138" lon="2.1399">
        <ele>103.963449</ele>
        <time>2025-06-19T12:00:57.728Z</time>
      </trkpt>
      <trkpt lat="49.16148" lon="2.13996">
        <ele>103.925844</ele>
        <time>2025-06-19T12:00:59.722Z</time>
      </trkpt>
      <trkpt lat="49.16157" lon="2.14002">
        <ele>103.88958</ele>
        <time>2025-06-19T12:01:01.728Z</time>
      </trkpt>
      <trkpt lat="49.16167" lon="2.14008">
        <ele>103.853817</ele>
        <time>2025-06-19T12:01:03.723Z</time>
      </trkpt>
      <trkpt lat="49.16176" lon="2.14012">
        <ele>103.82093</ele>
        <time>2025-06-19T12:01:05.710Z</time>
      </trkpt>
      <trkpt lat="49.16185" lon="2.14018">
        <ele>103.783895</ele>
        <time>2025-06-19T12:01:07.709Z</time>
      </trkpt>
      <trkpt lat="49.16195" lon="2.14025">
        <ele>103.74555</ele>
        <time>2025-06-19T12:01:09.734Z</time>
      </trkpt>
      <trkpt lat="49.16205" lon="2.1403">
        <ele>103.708323</ele>
        <time>2025-06-19T12:01:11.720Z</time>
      </trkpt>
      <trkpt lat="49.16214" lon="2.14035">
        <ele>103.673316</ele>
        <time>2025-06-19T12:01:13.714Z</time>
      </trkpt>
      <trkpt lat="49.16224" lon="2.1404">
        <ele>103.693861</ele>
        <time>2025-06-19T12:01:15.717Z</time>
      </trkpt>
      <trkpt lat="49.16234" lon="2.14043">
        <ele>103.715466</ele>
        <time>2025-06-19T12:01:17.732Z</time>
      </trkpt>
      <trkpt lat="49.16244" lon="2.14045">
        <ele>103.736311</ele>
        <time>2025-06-19T12:01:19.719Z</time>
      </trkpt>
      <trkpt lat="49.16254" lon="2.14046">
        <ele>103.756677</ele>
        <time>2025-06-19T12:01:21.720Z</time>
      </trkpt>
      <trkpt lat="49.16264" lon="2.14047">
        <ele>103.777612</ele>
        <time>2025-06-19T12:01:23.714Z</time>
      </trkpt>
      <trkpt lat="49.16273" lon="2.1405">
        <ele>103.797024</ele>
        <time>2025-06-19T12:01:25.727Z</time>
      </trkpt>
      <trkpt lat="49.16282" lon="2.14053">
        <ele>103.815957</ele>
        <time>2025-06-19T12:01:27.720Z</time>
      </trkpt>
      <trkpt lat="49.16295" lon="2.14056">
        <ele>103.844448</ele>
        <time>2025-06-19T12:01:30.723Z</time>
      </trkpt>
      <trkpt lat="49.16309" lon="2.14059">
        <ele>103.873054</ele>
        <time>2025-06-19T12:01:33.727Z</time>
      </trkpt>
      <trkpt lat="49.16319" lon="2.1406">
        <ele>103.893851</ele>
        <time>2025-06-19T12:01:35.717Z</time>
      </trkpt>
      <trkpt lat="49.16329" lon="2.14057">
        <ele>103.914428</ele>
        <time>2025-06-19T12:01:37.730Z</time>
      </trkpt>
      <trkpt lat="49.16339" lon="2.14051">
        <ele>103.936987</ele>
        <time>2025-06-19T12:01:39.724Z</time>
      </trkpt>
      <trkpt lat="49.16347" lon="2.1404">
        <ele>103.959612</ele>
        <time>2025-06-19T12:01:41.712Z</time>
      </trkpt>
      <trkpt lat="49.16352" lon="2.14022">
        <ele>103.986054</ele>
        <time>2025-06-19T12:01:43.717Z</time>
      </trkpt>
      <trkpt lat="49.16356" lon="2.14003">
        <ele>104.013042</ele>
        <time>2025-06-19T12:01:45.713Z</time>
      </trkpt>
      <trkpt lat="49.1636" lon="2.13984">
        <ele>104.040326</ele>
        <time>2025-06-19T12:01:47.725Z</time>
      </trkpt>
      <trkpt lat="49.16364" lon="2.13967">
        <ele>104.248706</ele>
        <time>2025-06-19T12:01:49.715Z</time>
      </trkpt>
      <trkpt lat="49.16368" lon="2.13951">
        <ele>104.486432</ele>
        <time>2025-06-19T12:01:51.714Z</time>
      </trkpt>
      <trkpt lat="49.16373" lon="2.13939">
        <ele>104.701385</ele>
        <time>2025-06-19T12:01:53.728Z</time>
      </trkpt>
      <trkpt lat="49.1638" lon="2.13928">
        <ele>104.916101</ele>
        <time>2025-06-19T12:01:55.726Z</time>
      </trkpt>
      <trkpt lat="49.1639" lon="2.13915">
        <ele>105.20452</ele>
        <time>2025-06-19T12:01:58.728Z</time>
      </trkpt>
      <trkpt lat="49.164" lon="2.13905">
        <ele>105.467776</ele>
        <time>2025-06-19T12:02:01.717Z</time>
      </trkpt>
      <trkpt lat="49.16409" lon="2.13897">
        <ele>105.712243</ele>
        <time>2025-06-19T12:02:04.727Z</time>
      </trkpt>
      <trkpt lat="49.1642" lon="2.13893">
        <ele>105.954592</ele>
        <time>2025-06-19T12:02:07.721Z</time>
      </trkpt>
      <trkpt lat="49.1643" lon="2.13891">
        <ele>106.182587</ele>
        <time>2025-06-19T12:02:10.724Z</time>
      </trkpt>
      <trkpt lat="49.1644" lon="2.13891">
        <ele>106.393397</ele>
        <time>2025-06-19T12:02:13.728Z</time>
      </trkpt>
      <trkpt lat="49.1645" lon="2.13893">
        <ele>106.625271</ele>
        <time>2025-06-19T12:02:16.730Z</time>
      </trkpt>
      <trkpt lat="49.1646" lon="2.13896">
        <ele>106.853832</ele>
        <time>2025-06-19T12:02:19.715Z</time>
      </trkpt>
      <trkpt lat="49.1647" lon="2.13899">
        <ele>107.084617</ele>
        <time>2025-06-19T12:02:22.728Z</time>
      </trkpt>
      <trkpt lat="49.1648" lon="2.13902">
        <ele>107.294655</ele>
        <time>2025-06-19T12:02:25.718Z</time>
      </trkpt>
      <trkpt lat="49.16489" lon="2.13905">
        <ele>107.500353</ele>
        <time>2025-06-19T12:02:28.733Z</time>
      </trkpt>
      <trkpt lat="49.16498" lon="2.13909">
        <ele>107.707867</ele>
        <time>2025-06-19T12:02:31.722Z</time>
      </trkpt>
      <trkpt lat="49.16509" lon="2.13912">
        <ele>107.963126</ele>
        <time>2025-06-19T12:02:35.721Z</time>
      </trkpt>
      <trkpt lat="49.1652" lon="2.13915">
        <ele>108.559997</ele>
        <time>2025-06-19T12:02:39.718Z</time>
      </trkpt>
      <trkpt lat="49.16529" lon="2.13918">
        <ele>109.189772</ele>
        <time>2025-06-19T12:02:42.732Z</time>
      </trkpt>
      <trkpt lat="49.16539" lon="2.1392">
        <ele>109.90369</ele>
        <time>2025-06-19T12:02:46.731Z</time>
      </trkpt>
      <trkpt lat="49.16549" lon="2.13923">
        <ele>110.550359</ele>
        <time>2025-06-19T12:02:49.731Z</time>
      </trkpt>
      <trkpt lat="49.16558" lon="2.13925">
        <ele>111.220433</ele>
        <time>2025-06-19T12:02:52.725Z</time>
      </trkpt>
      <trkpt lat="49.16568" lon="2.13926">
        <ele>111.876045</ele>
        <time>2025-06-19T12:02:55.716Z</time>
      </trkpt>
      <trkpt lat="49.1658" lon="2.13928">
        <ele>112.670737</ele>
        <time>2025-06-19T12:02:59.733Z</time>
      </trkpt>
      <trkpt lat="49.1659" lon="2.13932">
        <ele>113.400847</ele>
        <time>2025-06-19T12:03:03.729Z</time>
      </trkpt>
      <trkpt lat="49.16602" lon="2.13937">
        <ele>114.224643</ele>
        <time>2025-06-19T12:03:07.731Z</time>
      </trkpt>
      <trkpt lat="49.16613" lon="2.13941">
        <ele>115.03726</ele>
        <time>2025-06-19T12:03:11.723Z</time>
      </trkpt>
      <trkpt lat="49.16623" lon="2.13944">
        <ele>115.672091</ele>
        <time>2025-06-19T12:03:14.713Z</time>
      </trkpt>
      <trkpt lat="49.16632" lon="2.13946">
        <ele>116.297337</ele>
        <time>2025-06-19T12:03:17.719Z</time>
      </trkpt>
      <trkpt lat="49.16641" lon="2.13949">
        <ele>116.915568</ele>
        <time>2025-06-19T12:03:20.733Z</time>
      </trkpt>
      <trkpt lat="49.1665" lon="2.13951">
        <ele>117.53282</ele>
        <time>2025-06-19T12:03:23.726Z</time>
      </trkpt>
      <trkpt lat="49.16659" lon="2.13954">
        <ele>118.211831</ele>
        <time>2025-06-19T12:03:26.712Z</time>
      </trkpt>
      <trkpt lat="49.16669" lon="2.13957">
        <ele>118.87936</ele>
        <time>2025-06-19T12:03:29.712Z</time>
      </trkpt>
      <trkpt lat="49.16679" lon="2.1396">
        <ele>119.548837</ele>
        <time>2025-06-19T12:03:32.720Z</time>
      </trkpt>
      <trkpt lat="49.16688" lon="2.13963">
        <ele>120.204076</ele>
        <time>2025-06-19T12:03:35.711Z</time>
      </trkpt>
      <trkpt lat="49.16697" lon="2.13968">
        <ele>120.598997</ele>
        <time>2025-06-19T12:03:38.710Z</time>
      </trkpt>
      <trkpt lat="49.16706" lon="2.13971">
        <ele>120.971978</ele>
        <time>2025-06-19T12:03:41.717Z</time>
      </trkpt>
      <trkpt lat="49.16715" lon="2.13974">
        <ele>121.328795</ele>
        <time>2025-06-19T12:03:44.732Z</time>
      </trkpt>
      <trkpt lat="49.16724" lon="2.13977">
        <ele>121.685888</ele>
        <time>2025-06-19T12:03:47.718Z</time>
      </trkpt>
      <trkpt lat="49.16733" lon="2.1398">
        <ele>122.038613</ele>
        <time>2025-06-19T12:03:50.716Z</time>
      </trkpt>
      <trkpt lat="49.16742" lon="2.13983">
        <ele>122.406218</ele>
        <time>2025-06-19T12:03:53.720Z</time>
      </trkpt>
      <trkpt lat="49.16751" lon="2.13986">
        <ele>122.769405</ele>
        <time>2025-06-19T12:03:56.722Z</time>
      </trkpt>
      <trkpt lat="49.1676" lon="2.13989">
        <ele>123.146226</ele>
        <time>2025-06-19T12:03:59.724Z</time>
      </trkpt>
      <trkpt lat="49.1677" lon="2.13993">
        <ele>123.543843</ele>
        <time>2025-06-19T12:04:02.727Z</time>
      </trkpt>
      <trkpt lat="49.1678" lon="2.13996">
        <ele>123.926138</ele>
        <time>2025-06-19T12:04:05.715Z</time>
      </trkpt>
      <trkpt lat="49.16789" lon="2.13999">
        <ele>124.296384</ele>
        <time>2025-06-19T12:04:08.722Z</time>
      </trkpt>
      <trkpt lat="49.16799" lon="2.14002">
        <ele>124.689096</ele>
        <time>2025-06-19T12:04:11.723Z</time>
      </trkpt>
      <trkpt lat="49.16809" lon="2.14005">
        <ele>125.076949</ele>
        <time>2025-06-19T12:04:14.729Z</time>
      </trkpt>
      <trkpt lat="49.16818" lon="2.14008">
        <ele>125.460462</ele>
        <time>2025-06-19T12:04:17.722Z</time>
      </trkpt>
      <trkpt lat="49.16829" lon="2.14009">
        <ele>125.877976</ele>
        <time>2025-06-19T12:04:20.710Z</time>
      </trkpt>
      <trkpt lat="49.16838" lon="2.1401">
        <ele>126.243072</ele>
        <time>2025-06-19T12:04:23.729Z</time>
      </trkpt>
      <trkpt lat="49.16848" lon="2.14008">
        <ele>126.645187</ele>
        <time>2025-06-19T12:04:26.735Z</time>
      </trkpt>
      <trkpt lat="49.16859" lon="2.14006">
        <ele>127.054849</ele>
        <time>2025-06-19T12:04:29.727Z</time>
      </trkpt>
      <trkpt lat="49.16869" lon="2.14003">
        <ele>127.429655</ele>
        <time>2025-06-19T12:04:32.723Z</time>
      </trkpt>
      <trkpt lat="49.16879" lon="2.13999">
        <ele>127.757346</ele>
        <time>2025-06-19T12:04:35.730Z</time>
      </trkpt>
      <trkpt lat="49.16889" lon="2.13995">
        <ele>128.084572</ele>
        <time>2025-06-19T12:04:38.722Z</time>
      </trkpt>
      <trkpt lat="49.169" lon="2.13991">
        <ele>128.424264</ele>
        <time>2025-06-19T12:04:41.724Z</time>
      </trkpt>
      <trkpt lat="49.16911" lon="2.13986">
        <ele>128.795923</ele>
        <time>2025-06-19T12:04:44.727Z</time>
      </trkpt>
      <trkpt lat="49.16924" lon="2.13981">
        <ele>129.195521</ele>
        <time>2025-06-19T12:04:47.722Z</time>
      </trkpt>
      <trkpt lat="49.16937" lon="2.13976">
        <ele>129.599636</ele>
        <time>2025-06-19T12:04:50.718Z</time>
      </trkpt>
      <trkpt lat="49.1695" lon="2.13972">
        <ele>130.007126</ele>
        <time>2025-06-19T12:04:53.716Z</time>
      </trkpt>
      <trkpt lat="49.16958" lon="2.13969">
        <ele>130.287744</ele>
        <time>2025-06-19T12:04:55.722Z</time>
      </trkpt>
      <trkpt lat="49.16967" lon="2.13966">
        <ele>130.573064</ele>
        <time>2025-06-19T12:04:57.721Z</time>
      </trkpt>
      <trkpt lat="49.16977" lon="2.13964">
        <ele>130.857396</ele>
        <time>2025-06-19T12:04:59.718Z</time>
      </trkpt>
      <trkpt lat="49.16986" lon="2.13961">
        <ele>131.149195</ele>
        <time>2025-06-19T12:05:01.719Z</time>
      </trkpt>
      <trkpt lat="49.16999" lon="2.13958">
        <ele>131.560139</ele>
        <time>2025-06-19T12:05:04.736Z</time>
      </trkpt>
      <trkpt lat="49.17012" lon="2.13957">
        <ele>131.971973</ele>
        <time>2025-06-19T12:05:07.734Z</time>
      </trkpt>
      <trkpt lat="49.17021" lon="2.13956">
        <ele>132.254002</ele>
        <time>2025-06-19T12:05:09.722Z</time>
      </trkpt>
      <trkpt lat="49.1703" lon="2.13954">
        <ele>132.533998</ele>
        <time>2025-06-19T12:05:11.732Z</time>
      </trkpt>
      <trkpt lat="49.17044" lon="2.13952">
        <ele>133.054713</ele>
        <time>2025-06-19T12:05:14.712Z</time>
      </trkpt>
      <trkpt lat="49.17057" lon="2.13951">
        <ele>133.863554</ele>
        <time>2025-06-19T12:05:17.709Z</time>
      </trkpt>
      <trkpt lat="49.1707" lon="2.1395">
        <ele>134.693333</ele>
        <time>2025-06-19T12:05:20.724Z</time>
      </trkpt>
      <trkpt lat="49.17079" lon="2.13949">
        <ele>135.297642</ele>
        <time>2025-06-19T12:05:22.732Z</time>
      </trkpt>
      <trkpt lat="49.17088" lon="2.13949">
        <ele>135.894723</ele>
        <time>2025-06-19T12:05:24.714Z</time>
      </trkpt>
      <trkpt lat="49.17102" lon="2.13947">
        <ele>136.762908</ele>
        <time>2025-06-19T12:05:27.727Z</time>
      </trkpt>
      <trkpt lat="49.17115" lon="2.13946">
        <ele>137.610892</ele>
        <time>2025-06-19T12:05:30.716Z</time>
      </trkpt>
      <trkpt lat="49.17127" lon="2.13945">
        <ele>138.415729</ele>
        <time>2025-06-19T12:05:33.727Z</time>
      </trkpt>
      <trkpt lat="49.1714" lon="2.13941">
        <ele>139.254242</ele>
        <time>2025-06-19T12:05:36.715Z</time>
      </trkpt>
      <trkpt lat="49.17154" lon="2.13938">
        <ele>140.109881</ele>
        <time>2025-06-19T12:05:39.729Z</time>
      </trkpt>
      <trkpt lat="49.17163" lon="2.13937">
        <ele>140.70908</ele>
        <time>2025-06-19T12:05:41.724Z</time>
      </trkpt>
      <trkpt lat="49.17172" lon="2.13935">
        <ele>141.303059</ele>
        <time>2025-06-19T12:05:43.724Z</time>
      </trkpt>
      <trkpt lat="49.17181" lon="2.13933">
        <ele>141.883092</ele>
        <time>2025-06-19T12:05:45.726Z</time>
      </trkpt>
      <trkpt lat="49.17194" lon="2.13931">
        <ele>142.70365</ele>
        <time>2025-06-19T12:05:48.726Z</time>
      </trkpt>
      <trkpt lat="49.17206" lon="2.13925">
        <ele>143.544376</ele>
        <time>2025-06-19T12:05:51.725Z</time>
      </trkpt>
      <trkpt lat="49.17215" lon="2.13921">
        <ele>144.139566</ele>
        <time>2025-06-19T12:05:53.730Z</time>
      </trkpt>
      <trkpt lat="49.17224" lon="2.13917">
        <ele>144.536088</ele>
        <time>2025-06-19T12:05:55.725Z</time>
      </trkpt>
      <trkpt lat="49.17232" lon="2.13911">
        <ele>144.748716</ele>
        <time>2025-06-19T12:05:57.722Z</time>
      </trkpt>
      <trkpt lat="49.1724" lon="2.13905">
        <ele>144.962169</ele>
        <time>2025-06-19T12:05:59.709Z</time>
      </trkpt>
      <trkpt lat="49.17252" lon="2.13895">
        <ele>145.276119</ele>
        <time>2025-06-19T12:06:02.724Z</time>
      </trkpt>
      <trkpt lat="49.17264" lon="2.13886">
        <ele>145.587269</ele>
        <time>2025-06-19T12:06:05.715Z</time>
      </trkpt>
      <trkpt lat="49.17276" lon="2.13877">
        <ele>145.899922</ele>
        <time>2025-06-19T12:06:08.727Z</time>
      </trkpt>
      <trkpt lat="49.17285" lon="2.13871">
        <ele>146.124544</ele>
        <time>2025-06-19T12:06:10.726Z</time>
      </trkpt>
      <trkpt lat="49.17294" lon="2.13864">
        <ele>146.363148</ele>
        <time>2025-06-19T12:06:12.711Z</time>
      </trkpt>
      <trkpt lat="49.17304" lon="2.13857">
        <ele>146.604352</ele>
        <time>2025-06-19T12:06:14.726Z</time>
      </trkpt>
      <trkpt lat="49.17312" lon="2.13851">
        <ele>146.832342</ele>
        <time>2025-06-19T12:06:16.725Z</time>
      </trkpt>
      <trkpt lat="49.17325" lon="2.13843">
        <ele>147.154384</ele>
        <time>2025-06-19T12:06:19.728Z</time>
      </trkpt>
      <trkpt lat="49.17334" lon="2.13837">
        <ele>147.382596</ele>
        <time>2025-06-19T12:06:21.725Z</time>
      </trkpt>
      <trkpt lat="49.17343" lon="2.13831">
        <ele>147.601312</ele>
        <time>2025-06-19T12:06:23.710Z</time>
      </trkpt>
      <trkpt lat="49.17351" lon="2.13825">
        <ele>147.82126</ele>
        <time>2025-06-19T12:06:25.726Z</time>
      </trkpt>
      <trkpt lat="49.1736" lon="2.1382">
        <ele>148.03105</ele>
        <time>2025-06-19T12:06:27.731Z</time>
      </trkpt>
      <trkpt lat="49.17368" lon="2.13814">
        <ele>148.242437</ele>
        <time>2025-06-19T12:06:29.725Z</time>
      </trkpt>
      <trkpt lat="49.17376" lon="2.13808">
        <ele>148.463651</ele>
        <time>2025-06-19T12:06:31.717Z</time>
      </trkpt>
      <trkpt lat="49.17385" lon="2.13802">
        <ele>148.713656</ele>
        <time>2025-06-19T12:06:33.716Z</time>
      </trkpt>
      <trkpt lat="49.17394" lon="2.13795">
        <ele>149.013214</ele>
        <time>2025-06-19T12:06:35.724Z</time>
      </trkpt>
      <trkpt lat="49.17402" lon="2.1379">
        <ele>149.301424</ele>
        <time>2025-06-19T12:06:37.724Z</time>
      </trkpt>
      <trkpt lat="49.17414" lon="2.13782">
        <ele>149.715939</ele>
        <time>2025-06-19T12:06:40.719Z</time>
      </trkpt>
      <trkpt lat="49.17423" lon="2.13774">
        <ele>150.010567</ele>
        <time>2025-06-19T12:06:42.715Z</time>
      </trkpt>
      <trkpt lat="49.17435" lon="2.13767">
        <ele>150.421836</ele>
        <time>2025-06-19T12:06:45.722Z</time>
      </trkpt>
      <trkpt lat="49.17447" lon="2.13758">
        <ele>150.842186</ele>
        <time>2025-06-19T12:06:48.723Z</time>
      </trkpt>
      <trkpt lat="49.17459" lon="2.13751">
        <ele>151.259341</ele>
        <time>2025-06-19T12:06:51.716Z</time>
      </trkpt>
      <trkpt lat="49.17469" lon="2.13745">
        <ele>151.56799</ele>
        <time>2025-06-19T12:06:53.725Z</time>
      </trkpt>
      <trkpt lat="49.17477" lon="2.13739">
        <ele>151.856437</ele>
        <time>2025-06-19T12:06:55.720Z</time>
      </trkpt>
      <trkpt lat="49.17485" lon="2.13732">
        <ele>152.146699</ele>
        <time>2025-06-19T12:06:57.718Z</time>
      </trkpt>
      <trkpt lat="49.17494" lon="2.13725">
        <ele>152.452118</ele>
        <time>2025-06-19T12:06:59.729Z</time>
      </trkpt>
      <trkpt lat="49.17502" lon="2.13719">
        <ele>152.745316</ele>
        <time>2025-06-19T12:07:01.714Z</time>
      </trkpt>
      <trkpt lat="49.17511" lon="2.13716">
        <ele>153.03989</ele>
        <time>2025-06-19T12:07:03.724Z</time>
      </trkpt>
      <trkpt lat="49.17521" lon="2.13711">
        <ele>153.347473</ele>
        <time>2025-06-19T12:07:05.722Z</time>
      </trkpt>
      <trkpt lat="49.1753" lon="2.13708">
        <ele>153.631416</ele>
        <time>2025-06-19T12:07:07.720Z</time>
      </trkpt>
      <trkpt lat="49.17539" lon="2.13703">
        <ele>153.93602</ele>
        <time>2025-06-19T12:07:09.715Z</time>
      </trkpt>
      <trkpt lat="49.17548" lon="2.137">
        <ele>154.230206</ele>
        <time>2025-06-19T12:07:11.710Z</time>
      </trkpt>
      <trkpt lat="49.17557" lon="2.13697">
        <ele>154.136683</ele>
        <time>2025-06-19T12:07:13.732Z</time>
      </trkpt>
      <trkpt lat="49.17567" lon="2.13695">
        <ele>154.03263</ele>
        <time>2025-06-19T12:07:15.730Z</time>
      </trkpt>
      <trkpt lat="49.17576" lon="2.1369">
        <ele>153.92893</ele>
        <time>2025-06-19T12:07:17.722Z</time>
      </trkpt>
      <trkpt lat="49.17586" lon="2.13687">
        <ele>153.824737</ele>
        <time>2025-06-19T12:07:19.729Z</time>
      </trkpt>
      <trkpt lat="49.17595" lon="2.13683">
        <ele>153.723643</ele>
        <time>2025-06-19T12:07:21.723Z</time>
      </trkpt>
      <trkpt lat="49.17604" lon="2.13679">
        <ele>153.625794</ele>
        <time>2025-06-19T12:07:23.725Z</time>
      </trkpt>
      <trkpt lat="49.17613" lon="2.13673">
        <ele>153.518849</ele>
        <time>2025-06-19T12:07:25.732Z</time>
      </trkpt>
      <trkpt lat="49.17622" lon="2.13666">
        <ele>153.416253</ele>
        <time>2025-06-19T12:07:27.724Z</time>
      </trkpt>
      <trkpt lat="49.1763" lon="2.13657">
        <ele>153.307327</ele>
        <time>2025-06-19T12:07:29.724Z</time>
      </trkpt>
      <trkpt lat="49.17637" lon="2.13646">
        <ele>153.203509</ele>
        <time>2025-06-19T12:07:31.721Z</time>
      </trkpt>
      <trkpt lat="49.17643" lon="2.13635">
        <ele>153.101764</ele>
        <time>2025-06-19T12:07:33.731Z</time>
      </trkpt>
      <trkpt lat="49.17648" lon="2.13623">
        <ele>153.000361</ele>
        <time>2025-06-19T12:07:35.723Z</time>
      </trkpt>
      <trkpt lat="49.17654" lon="2.1361">
        <ele>152.893739</ele>
        <time>2025-06-19T12:07:37.728Z</time>
      </trkpt>
      <trkpt lat="49.17659" lon="2.13598">
        <ele>152.793485</ele>
        <time>2025-06-19T12:07:39.717Z</time>
      </trkpt>
      <trkpt lat="49.17664" lon="2.13584">
        <ele>152.686074</ele>
        <time>2025-06-19T12:07:41.724Z</time>
      </trkpt>
      <trkpt lat="49.17669" lon="2.13571">
        <ele>152.577006</ele>
        <time>2025-06-19T12:07:43.713Z</time>
      </trkpt>
      <trkpt lat="49.17674" lon="2.13557">
        <ele>152.465962</ele>
        <time>2025-06-19T12:07:45.715Z</time>
      </trkpt>
      <trkpt lat="49.17679" lon="2.13543">
        <ele>152.357749</ele>
        <time>2025-06-19T12:07:47.723Z</time>
      </trkpt>
      <trkpt lat="49.17684" lon="2.13528">
        <ele>152.235443</ele>
        <time>2025-06-19T12:07:49.717Z</time>
      </trkpt>
      <trkpt lat="49.17688" lon="2.13514">
        <ele>152.114901</ele>
        <time>2025-06-19T12:07:51.717Z</time>
      </trkpt>
      <trkpt lat="49.17693" lon="2.13501">
        <ele>151.993308</ele>
        <time>2025-06-19T12:07:53.707Z</time>
      </trkpt>
      <trkpt lat="49.17697" lon="2.13486">
        <ele>151.865427</ele>
        <time>2025-06-19T12:07:55.719Z</time>
      </trkpt>
      <trkpt lat="49.17701" lon="2.1347">
        <ele>151.737015</ele>
        <time>2025-06-19T12:07:57.715Z</time>
      </trkpt>
      <trkpt lat="49.17705" lon="2.13455">
        <ele>151.610198</ele>
        <time>2025-06-19T12:07:59.715Z</time>
      </trkpt>
      <trkpt lat="49.1771" lon="2.1344">
        <ele>151.482561</ele>
        <time>2025-06-19T12:08:01.723Z</time>
      </trkpt>
      <trkpt lat="49.17714" lon="2.13425">
        <ele>151.351528</ele>
        <time>2025-06-19T12:08:03.726Z</time>
      </trkpt>
      <trkpt lat="49.17719" lon="2.13411">
        <ele>151.228028</ele>
        <time>2025-06-19T12:08:05.717Z</time>
      </trkpt>
      <trkpt lat="49.17723" lon="2.13397">
        <ele>151.106075</ele>
        <time>2025-06-19T12:08:07.714Z</time>
      </trkpt>
      <trkpt lat="49.17727" lon="2.13382">
        <ele>150.98343</ele>
        <time>2025-06-19T12:08:09.726Z</time>
      </trkpt>
      <trkpt lat="49.17732" lon="2.13369">
        <ele>150.86378</ele>
        <time>2025-06-19T12:08:11.722Z</time>
      </trkpt>
      <trkpt lat="49.17736" lon="2.13356">
        <ele>150.749895</ele>
        <time>2025-06-19T12:08:13.721Z</time>
      </trkpt>
      <trkpt lat="49.1774" lon="2.13341">
        <ele>150.62985</ele>
        <time>2025-06-19T12:08:15.727Z</time>
      </trkpt>
      <trkpt lat="49.17743" lon="2.13327">
        <ele>150.513616</ele>
        <time>2025-06-19T12:08:17.734Z</time>
      </trkpt>
      <trkpt lat="49.17747" lon="2.13313">
        <ele>150.397539</ele>
        <time>2025-06-19T12:08:19.729Z</time>
      </trkpt>
      <trkpt lat="49.17751" lon="2.133">
        <ele>150.283654</ele>
        <time>2025-06-19T12:08:21.744Z</time>
      </trkpt>
      <trkpt lat="49.17755" lon="2.13287">
        <ele>150.209834</ele>
        <time>2025-06-19T12:08:23.725Z</time>
      </trkpt>
      <trkpt lat="49.17758" lon="2.13272">
        <ele>150.425621</ele>
        <time>2025-06-19T12:08:25.729Z</time>
      </trkpt>
      <trkpt lat="49.17762" lon="2.13259">
        <ele>150.631724</ele>
        <time>2025-06-19T12:08:27.727Z</time>
      </trkpt>
      <trkpt lat="49.17767" lon="2.13245">
        <ele>150.845669</ele>
        <time>2025-06-19T12:08:29.724Z</time>
      </trkpt>
      <trkpt lat="49.17771" lon="2.13229">
        <ele>151.079184</ele>
        <time>2025-06-19T12:08:31.719Z</time>
      </trkpt>
      <trkpt lat="49.17775" lon="2.13213">
        <ele>151.316006</ele>
        <time>2025-06-19T12:08:33.721Z</time>
      </trkpt>
      <trkpt lat="49.1778" lon="2.13198">
        <ele>151.54738</ele>
        <time>2025-06-19T12:08:35.723Z</time>
      </trkpt>
      <trkpt lat="49.17785" lon="2.13183">
        <ele>151.778787</ele>
        <time>2025-06-19T12:08:37.730Z</time>
      </trkpt>
      <trkpt lat="49.1779" lon="2.13168">
        <ele>152.017399</ele>
        <time>2025-06-19T12:08:39.726Z</time>
      </trkpt>
      <trkpt lat="49.17796" lon="2.13153">
        <ele>152.256228</ele>
        <time>2025-06-19T12:08:41.723Z</time>
      </trkpt>
      <trkpt lat="49.17802" lon="2.13137">
        <ele>152.507066</ele>
        <time>2025-06-19T12:08:43.720Z</time>
      </trkpt>
      <trkpt lat="49.17808" lon="2.13121">
        <ele>152.759982</ele>
        <time>2025-06-19T12:08:45.729Z</time>
      </trkpt>
      <trkpt lat="49.17814" lon="2.13106">
        <ele>153.014072</ele>
        <time>2025-06-19T12:08:47.722Z</time>
      </trkpt>
      <trkpt lat="49.17822" lon="2.13091">
        <ele>153.273077</ele>
        <time>2025-06-19T12:08:49.722Z</time>
      </trkpt>
      <trkpt lat="49.17829" lon="2.13075">
        <ele>153.535145</ele>
        <time>2025-06-19T12:08:51.724Z</time>
      </trkpt>
      <trkpt lat="49.17835" lon="2.13059">
        <ele>153.803128</ele>
        <time>2025-06-19T12:08:53.722Z</time>
      </trkpt>
      <trkpt lat="49.17842" lon="2.13042">
        <ele>153.974392</ele>
        <time>2025-06-19T12:08:55.721Z</time>
      </trkpt>
      <trkpt lat="49.17849" lon="2.13025">
        <ele>153.959263</ele>
        <time>2025-06-19T12:08:57.724Z</time>
      </trkpt>
      <trkpt lat="49.17856" lon="2.13008">
        <ele>153.944193</ele>
        <time>2025-06-19T12:08:59.719Z</time>
      </trkpt>
      <trkpt lat="49.17864" lon="2.12991">
        <ele>153.929189</ele>
        <time>2025-06-19T12:09:01.724Z</time>
      </trkpt>
      <trkpt lat="49.17871" lon="2.12973">
        <ele>153.913932</ele>
        <time>2025-06-19T12:09:03.715Z</time>
      </trkpt>
      <trkpt lat="49.17877" lon="2.12955">
        <ele>153.898469</ele>
        <time>2025-06-19T12:09:05.720Z</time>
      </trkpt>
      <trkpt lat="49.17884" lon="2.12938">
        <ele>153.883651</ele>
        <time>2025-06-19T12:09:07.724Z</time>
      </trkpt>
      <trkpt lat="49.17891" lon="2.12922">
        <ele>153.868955</ele>
        <time>2025-06-19T12:09:09.715Z</time>
      </trkpt>
      <trkpt lat="49.17898" lon="2.12905">
        <ele>153.854511</ele>
        <time>2025-06-19T12:09:11.724Z</time>
      </trkpt>
      <trkpt lat="49.17905" lon="2.12889">
        <ele>153.840049</ele>
        <time>2025-06-19T12:09:13.720Z</time>
      </trkpt>
      <trkpt lat="49.17912" lon="2.12872">
        <ele>153.825231</ele>
        <time>2025-06-19T12:09:15.721Z</time>
      </trkpt>
      <trkpt lat="49.17919" lon="2.12855">
        <ele>153.810352</ele>
        <time>2025-06-19T12:09:17.715Z</time>
      </trkpt>
      <trkpt lat="49.17926" lon="2.12838">
        <ele>153.795528</ele>
        <time>2025-06-19T12:09:19.709Z</time>
      </trkpt>
      <trkpt lat="49.17931" lon="2.12822">
        <ele>153.781844</ele>
        <time>2025-06-19T12:09:21.711Z</time>
      </trkpt>
      <trkpt lat="49.17938" lon="2.12807">
        <ele>153.810849</ele>
        <time>2025-06-19T12:09:23.720Z</time>
      </trkpt>
      <trkpt lat="49.17944" lon="2.12791">
        <ele>153.885023</ele>
        <time>2025-06-19T12:09:25.725Z</time>
      </trkpt>
      <trkpt lat="49.1795" lon="2.12775">
        <ele>153.958105</ele>
        <time>2025-06-19T12:09:27.716Z</time>
      </trkpt>
      <trkpt lat="49.17955" lon="2.1276">
        <ele>154.028943</ele>
        <time>2025-06-19T12:09:29.727Z</time>
      </trkpt>
      <trkpt lat="49.17961" lon="2.12745">
        <ele>154.099781</ele>
        <time>2025-06-19T12:09:31.731Z</time>
      </trkpt>
      <trkpt lat="49.17966" lon="2.12729">
        <ele>154.171467</ele>
        <time>2025-06-19T12:09:33.725Z</time>
      </trkpt>
      <trkpt lat="49.17972" lon="2.12714">
        <ele>154.241506</ele>
        <time>2025-06-19T12:09:35.735Z</time>
      </trkpt>
      <trkpt lat="49.17976" lon="2.127">
        <ele>154.306722</ele>
        <time>2025-06-19T12:09:37.731Z</time>
      </trkpt>
      <trkpt lat="49.17981" lon="2.12685">
        <ele>154.372661</ele>
        <time>2025-06-19T12:09:39.716Z</time>
      </trkpt>
      <trkpt lat="49.17986" lon="2.12671">
        <ele>154.437413</ele>
        <time>2025-06-19T12:09:41.714Z</time>
      </trkpt>
      <trkpt lat="49.17991" lon="2.12657">
        <ele>154.501908</ele>
        <time>2025-06-19T12:09:43.724Z</time>
      </trkpt>
      <trkpt lat="49.17996" lon="2.12643">
        <ele>154.565919</ele>
        <time>2025-06-19T12:09:45.713Z</time>
      </trkpt>
      <trkpt lat="49.18" lon="2.12629">
        <ele>154.627118</ele>
        <time>2025-06-19T12:09:47.720Z</time>
      </trkpt>
      <trkpt lat="49.18005" lon="2.12617">
        <ele>154.685932</ele>
        <time>2025-06-19T12:09:49.716Z</time>
      </trkpt>
      <trkpt lat="49.18011" lon="2.126">
        <ele>154.763369</ele>
        <time>2025-06-19T12:09:52.712Z</time>
      </trkpt>
      <trkpt lat="49.18016" lon="2.12583">
        <ele>154.839958</ele>
        <time>2025-06-19T12:09:55.707Z</time>
      </trkpt>
      <trkpt lat="49.18022" lon="2.12566">
        <ele>154.799605</ele>
        <time>2025-06-19T12:09:58.711Z</time>
      </trkpt>
      <trkpt lat="49.18029" lon="2.12549">
        <ele>154.532291</ele>
        <time>2025-06-19T12:10:01.726Z</time>
      </trkpt>
      <trkpt lat="49.18035" lon="2.12533">
        <ele>154.268483</ele>
        <time>2025-06-19T12:10:04.735Z</time>
      </trkpt>
      <trkpt lat="49.18041" lon="2.12517">
        <ele>154.024892</ele>
        <time>2025-06-19T12:10:07.725Z</time>
      </trkpt>
      <trkpt lat="49.18047" lon="2.12501">
        <ele>153.775379</ele>
        <time>2025-06-19T12:10:10.721Z</time>
      </trkpt>
      <trkpt lat="49.18048" lon="2.12486">
        <ele>153.565966</ele>
        <time>2025-06-19T12:10:14.709Z</time>
      </trkpt>
      <trkpt lat="49.18045" lon="2.12471">
        <ele>153.362634</ele>
        <time>2025-06-19T12:10:17.724Z</time>
      </trkpt>
      <trkpt lat="49.18043" lon="2.12456">
        <ele>153.143805</ele>
        <time>2025-06-19T12:10:20.722Z</time>
      </trkpt>
      <trkpt lat="49.18049" lon="2.12434">
        <ele>152.822757</ele>
        <time>2025-06-19T12:10:52.718Z</time>
      </trkpt>
      <trkpt lat="49.18059" lon="2.12427">
        <ele>152.59063</ele>
        <time>2025-06-19T12:10:55.720Z</time>
      </trkpt>
      <trkpt lat="49.18072" lon="2.12428">
        <ele>152.312062</ele>
        <time>2025-06-19T12:10:58.724Z</time>
      </trkpt>
      <trkpt lat="49.18084" lon="2.12422">
        <ele>152.057913</ele>
        <time>2025-06-19T12:11:01.725Z</time>
      </trkpt>
      <trkpt lat="49.18091" lon="2.12412">
        <ele>151.854744</ele>
        <time>2025-06-19T12:11:03.724Z</time>
      </trkpt>
      <trkpt lat="49.18098" lon="2.124">
        <ele>151.631337</ele>
        <time>2025-06-19T12:11:05.728Z</time>
      </trkpt>
      <trkpt lat="49.18105" lon="2.12385">
        <ele>151.389122</ele>
        <time>2025-06-19T12:11:07.714Z</time>
      </trkpt>
      <trkpt lat="49.18112" lon="2.12369">
        <ele>151.09149</ele>
        <time>2025-06-19T12:11:09.721Z</time>
      </trkpt>
      <trkpt lat="49.18121" lon="2.12352">
        <ele>150.60467</ele>
        <time>2025-06-19T12:11:11.727Z</time>
      </trkpt>
      <trkpt lat="49.18131" lon="2.12335">
        <ele>150.09234</ele>
        <time>2025-06-19T12:11:13.727Z</time>
      </trkpt>
      <trkpt lat="49.18141" lon="2.12317">
        <ele>149.568233</ele>
        <time>2025-06-19T12:11:15.718Z</time>
      </trkpt>
      <trkpt lat="49.1815" lon="2.123">
        <ele>149.070393</ele>
        <time>2025-06-19T12:11:17.725Z</time>
      </trkpt>
      <trkpt lat="49.18159" lon="2.12283">
        <ele>148.560935</ele>
        <time>2025-06-19T12:11:19.721Z</time>
      </trkpt>
      <trkpt lat="49.18169" lon="2.12264">
        <ele>148.018748</ele>
        <time>2025-06-19T12:11:21.712Z</time>
      </trkpt>
      <trkpt lat="49.1818" lon="2.12243">
        <ele>147.416324</ele>
        <time>2025-06-19T12:11:23.711Z</time>
      </trkpt>
      <trkpt lat="49.18191" lon="2.12223">
        <ele>146.833623</ele>
        <time>2025-06-19T12:11:25.717Z</time>
      </trkpt>
      <trkpt lat="49.18199" lon="2.12201">
        <ele>146.252174</ele>
        <time>2025-06-19T12:11:27.719Z</time>
      </trkpt>
      <trkpt lat="49.18206" lon="2.12178">
        <ele>145.680288</ele>
        <time>2025-06-19T12:11:29.713Z</time>
      </trkpt>
      <trkpt lat="49.18208" lon="2.12154">
        <ele>145.14549</ele>
        <time>2025-06-19T12:11:31.717Z</time>
      </trkpt>
      <trkpt lat="49.18204" lon="2.1213">
        <ele>144.392726</ele>
        <time>2025-06-19T12:11:33.740Z</time>
      </trkpt>
      <trkpt lat="49.18194" lon="2.12107">
        <ele>143.478443</ele>
        <time>2025-06-19T12:11:35.711Z</time>
      </trkpt>
      <trkpt lat="49.18188" lon="2.12095">
        <ele>142.981894</ele>
        <time>2025-06-19T12:11:36.716Z</time>
      </trkpt>
      <trkpt lat="49.18182" lon="2.12084">
        <ele>142.489966</ele>
        <time>2025-06-19T12:11:37.720Z</time>
      </trkpt>
      <trkpt lat="49.18176" lon="2.12073">
        <ele>141.99545</ele>
        <time>2025-06-19T12:11:38.718Z</time>
      </trkpt>
      <trkpt lat="49.18169" lon="2.1206">
        <ele>141.471045</ele>
        <time>2025-06-19T12:11:39.727Z</time>
      </trkpt>
      <trkpt lat="49.18163" lon="2.12048">
        <ele>140.947104</ele>
        <time>2025-06-19T12:11:40.721Z</time>
      </trkpt>
      <trkpt lat="49.18157" lon="2.12035">
        <ele>140.415908</ele>
        <time>2025-06-19T12:11:41.718Z</time>
      </trkpt>
      <trkpt lat="49.18151" lon="2.12021">
        <ele>139.873563</ele>
        <time>2025-06-19T12:11:42.723Z</time>
      </trkpt>
      <trkpt lat="49.18146" lon="2.12008">
        <ele>139.339728</ele>
        <time>2025-06-19T12:11:43.708Z</time>
      </trkpt>
      <trkpt lat="49.1814" lon="2.11993">
        <ele>138.768357</ele>
        <time>2025-06-19T12:11:44.717Z</time>
      </trkpt>
      <trkpt lat="49.18135" lon="2.11978">
        <ele>138.200173</ele>
        <time>2025-06-19T12:11:45.711Z</time>
      </trkpt>
      <trkpt lat="49.1813" lon="2.11962">
        <ele>137.612479</ele>
        <time>2025-06-19T12:11:46.734Z</time>
      </trkpt>
      <trkpt lat="49.18126" lon="2.11947">
        <ele>137.074015</ele>
        <time>2025-06-19T12:11:47.713Z</time>
      </trkpt>
      <trkpt lat="49.18123" lon="2.11933">
        <ele>136.587169</ele>
        <time>2025-06-19T12:11:48.702Z</time>
      </trkpt>
      <trkpt lat="49.18116" lon="2.11908">
        <ele>135.688155</ele>
        <time>2025-06-19T12:11:50.716Z</time>
      </trkpt>
      <trkpt lat="49.1811" lon="2.11885">
        <ele>134.985574</ele>
        <time>2025-06-19T12:11:52.720Z</time>
      </trkpt>
      <trkpt lat="49.18105" lon="2.11865">
        <ele>134.327695</ele>
        <time>2025-06-19T12:11:54.725Z</time>
      </trkpt>
      <trkpt lat="49.18099" lon="2.11842">
        <ele>133.604552</ele>
        <time>2025-06-19T12:11:56.715Z</time>
      </trkpt>
      <trkpt lat="49.18094" lon="2.11818">
        <ele>132.877166</ele>
        <time>2025-06-19T12:11:58.720Z</time>
      </trkpt>
      <trkpt lat="49.1809" lon="2.11803">
        <ele>132.43049</ele>
        <time>2025-06-19T12:11:59.779Z</time>
      </trkpt>
      <trkpt lat="49.18088" lon="2.11789">
        <ele>132.01617</ele>
        <time>2025-06-19T12:12:00.723Z</time>
      </trkpt>
      <trkpt lat="49.18085" lon="2.11775">
        <ele>131.59302</ele>
        <time>2025-06-19T12:12:01.724Z</time>
      </trkpt>
      <trkpt lat="49.18083" lon="2.11761">
        <ele>131.164305</ele>
        <time>2025-06-19T12:12:02.719Z</time>
      </trkpt>
      <trkpt lat="49.1808" lon="2.11748">
        <ele>130.750499</ele>
        <time>2025-06-19T12:12:03.720Z</time>
      </trkpt>
      <trkpt lat="49.18077" lon="2.11734">
        <ele>130.335474</ele>
        <time>2025-06-19T12:12:04.725Z</time>
      </trkpt>
      <trkpt lat="49.18075" lon="2.11708">
        <ele>129.568873</ele>
        <time>2025-06-19T12:12:06.722Z</time>
      </trkpt>
      <trkpt lat="49.18076" lon="2.11685">
        <ele>128.897957</ele>
        <time>2025-06-19T12:12:08.722Z</time>
      </trkpt>
      <trkpt lat="49.18081" lon="2.11662">
        <ele>128.190923</ele>
        <time>2025-06-19T12:12:10.713Z</time>
      </trkpt>
      <trkpt lat="49.18088" lon="2.11639">
        <ele>127.802484</ele>
        <time>2025-06-19T12:12:12.718Z</time>
      </trkpt>
      <trkpt lat="49.18096" lon="2.11616">
        <ele>127.905627</ele>
        <time>2025-06-19T12:12:14.731Z</time>
      </trkpt>
      <trkpt lat="49.18099" lon="2.1159">
        <ele>128.009125</ele>
        <time>2025-06-19T12:12:16.721Z</time>
      </trkpt>
      <trkpt lat="49.18099" lon="2.11569">
        <ele>128.092193</ele>
        <time>2025-06-19T12:12:18.707Z</time>
      </trkpt>
      <trkpt lat="49.18094" lon="2.11548">
        <ele>128.182913</ele>
        <time>2025-06-19T12:12:20.713Z</time>
      </trkpt>
      <trkpt lat="49.18088" lon="2.11529">
        <ele>128.268327</ele>
        <time>2025-06-19T12:12:22.720Z</time>
      </trkpt>
      <trkpt lat="49.18083" lon="2.1151">
        <ele>128.350921</ele>
        <time>2025-06-19T12:12:24.717Z</time>
      </trkpt>
      <trkpt lat="49.18078" lon="2.11489">
        <ele>128.437519</ele>
        <time>2025-06-19T12:12:26.723Z</time>
      </trkpt>
      <trkpt lat="49.18075" lon="2.1147">
        <ele>128.516061</ele>
        <time>2025-06-19T12:12:28.714Z</time>
      </trkpt>
      <trkpt lat="49.18072" lon="2.11452">
        <ele>128.588669</ele>
        <time>2025-06-19T12:12:30.724Z</time>
      </trkpt>
      <trkpt lat="49.18069" lon="2.11436">
        <ele>128.656568</ele>
        <time>2025-06-19T12:12:32.720Z</time>
      </trkpt>
      <trkpt lat="49.18065" lon="2.11421">
        <ele>128.723433</ele>
        <time>2025-06-19T12:12:34.728Z</time>
      </trkpt>
      <trkpt lat="49.18065" lon="2.11401">
        <ele>128.802159</ele>
        <time>2025-06-19T12:12:37.718Z</time>
      </trkpt>
      <trkpt lat="49.18076" lon="2.11395">
        <ele>128.861643</ele>
        <time>2025-06-19T12:12:40.722Z</time>
      </trkpt>
      <trkpt lat="49.18088" lon="2.11396">
        <ele>128.880163</ele>
        <time>2025-06-19T12:12:43.771Z</time>
      </trkpt>
      <trkpt lat="49.18097" lon="2.11396">
        <ele>128.895924</ele>
        <time>2025-06-19T12:12:46.725Z</time>
      </trkpt>
      <trkpt lat="49.18106" lon="2.11392">
        <ele>128.911112</ele>
        <time>2025-06-19T12:12:49.713Z</time>
      </trkpt>
      <trkpt lat="49.18116" lon="2.11388">
        <ele>128.927477</ele>
        <time>2025-06-19T12:12:52.726Z</time>
      </trkpt>
      <trkpt lat="49.18127" lon="2.11381">
        <ele>128.946139</ele>
        <time>2025-06-19T12:12:56.728Z</time>
      </trkpt>
      <trkpt lat="49.18136" lon="2.11373">
        <ele>128.963833</ele>
        <time>2025-06-19T12:13:00.719Z</time>
      </trkpt>
      <trkpt lat="49.18145" lon="2.11362">
        <ele>128.982885</ele>
        <time>2025-06-19T12:13:04.723Z</time>
      </trkpt>
      <trkpt lat="49.18151" lon="2.11349">
        <ele>128.999507</ele>
        <time>2025-06-19T12:13:08.712Z</time>
      </trkpt>
      <trkpt lat="49.18155" lon="2.11334">
        <ele>129.016167</ele>
        <time>2025-06-19T12:13:12.725Z</time>
      </trkpt>
      <trkpt lat="49.18156" lon="2.1132">
        <ele>129.031801</ele>
        <time>2025-06-19T12:13:15.729Z</time>
      </trkpt>
      <trkpt lat="49.18156" lon="2.11304">
        <ele>129.048466</ele>
        <time>2025-06-19T12:13:18.721Z</time>
      </trkpt>
      <trkpt lat="49.18156" lon="2.11283">
        <ele>129.070668</ele>
        <time>2025-06-19T12:13:21.727Z</time>
      </trkpt>
      <trkpt lat="49.18156" lon="2.11266">
        <ele>129.088925</ele>
        <time>2025-06-19T12:13:23.734Z</time>
      </trkpt>
      <trkpt lat="49.18156" lon="2.11247">
        <ele>129.108894</ele>
        <time>2025-06-19T12:13:25.739Z</time>
      </trkpt>
      <trkpt lat="49.18159" lon="2.11228">
        <ele>129.129564</ele>
        <time>2025-06-19T12:13:27.727Z</time>
      </trkpt>
      <trkpt lat="49.18164" lon="2.1121">
        <ele>129.141425</ele>
        <time>2025-06-19T12:13:29.726Z</time>
      </trkpt>
      <trkpt lat="49.1817" lon="2.11192">
        <ele>128.637409</ele>
        <time>2025-06-19T12:13:31.719Z</time>
      </trkpt>
      <trkpt lat="49.18177" lon="2.11173">
        <ele>128.112225</ele>
        <time>2025-06-19T12:13:33.721Z</time>
      </trkpt>
      <trkpt lat="49.18183" lon="2.11153">
        <ele>127.572518</ele>
        <time>2025-06-19T12:13:35.727Z</time>
      </trkpt>
      <trkpt lat="49.18191" lon="2.11135">
        <ele>127.047839</ele>
        <time>2025-06-19T12:13:37.720Z</time>
      </trkpt>
      <trkpt lat="49.18198" lon="2.11117">
        <ele>126.536036</ele>
        <time>2025-06-19T12:13:39.711Z</time>
      </trkpt>
      <trkpt lat="49.18206" lon="2.111">
        <ele>126.02828</ele>
        <time>2025-06-19T12:13:41.718Z</time>
      </trkpt>
      <trkpt lat="49.18211" lon="2.11083">
        <ele>125.553215</ele>
        <time>2025-06-19T12:13:43.724Z</time>
      </trkpt>
      <trkpt lat="49.18213" lon="2.11063">
        <ele>125.069325</ele>
        <time>2025-06-19T12:13:45.705Z</time>
      </trkpt>
      <trkpt lat="49.18212" lon="2.11043">
        <ele>124.566271</ele>
        <time>2025-06-19T12:13:47.726Z</time>
      </trkpt>
      <trkpt lat="49.1821" lon="2.1102">
        <ele>124.004599</ele>
        <time>2025-06-19T12:13:49.727Z</time>
      </trkpt>
      <trkpt lat="49.18209" lon="2.10998">
        <ele>123.470793</ele>
        <time>2025-06-19T12:13:51.721Z</time>
      </trkpt>
      <trkpt lat="49.18208" lon="2.10976">
        <ele>122.922331</ele>
        <time>2025-06-19T12:13:53.722Z</time>
      </trkpt>
      <trkpt lat="49.18208" lon="2.10952">
        <ele>122.34861</ele>
        <time>2025-06-19T12:13:55.720Z</time>
      </trkpt>
      <trkpt lat="49.18208" lon="2.10927">
        <ele>121.822275</ele>
        <time>2025-06-19T12:13:57.721Z</time>
      </trkpt>
      <trkpt lat="49.1821" lon="2.10902">
        <ele>121.294714</ele>
        <time>2025-06-19T12:13:59.722Z</time>
      </trkpt>
      <trkpt lat="49.18213" lon="2.10877">
        <ele>120.752019</ele>
        <time>2025-06-19T12:14:01.718Z</time>
      </trkpt>
      <trkpt lat="49.18216" lon="2.10851">
        <ele>120.204599</ele>
        <time>2025-06-19T12:14:03.720Z</time>
      </trkpt>
      <trkpt lat="49.18219" lon="2.10825">
        <ele>119.651497</ele>
        <time>2025-06-19T12:14:05.715Z</time>
      </trkpt>
      <trkpt lat="49.18222" lon="2.10799">
        <ele>119.092517</ele>
        <time>2025-06-19T12:14:07.717Z</time>
      </trkpt>
      <trkpt lat="49.18224" lon="2.10786">
        <ele>118.801115</ele>
        <time>2025-06-19T12:14:08.723Z</time>
      </trkpt>
      <trkpt lat="49.18226" lon="2.10759">
        <ele>118.230774</ele>
        <time>2025-06-19T12:14:10.721Z</time>
      </trkpt>
      <trkpt lat="49.18228" lon="2.10745">
        <ele>117.938287</ele>
        <time>2025-06-19T12:14:11.727Z</time>
      </trkpt>
      <trkpt lat="49.18229" lon="2.10732">
        <ele>117.64009</ele>
        <time>2025-06-19T12:14:12.713Z</time>
      </trkpt>
      <trkpt lat="49.18232" lon="2.10705">
        <ele>117.06975</ele>
        <time>2025-06-19T12:14:14.722Z</time>
      </trkpt>
      <trkpt lat="49.18234" lon="2.1068">
        <ele>116.604958</ele>
        <time>2025-06-19T12:14:16.721Z</time>
      </trkpt>
      <trkpt lat="49.18233" lon="2.10659">
        <ele>116.59481</ele>
        <time>2025-06-19T12:14:18.711Z</time>
      </trkpt>
      <trkpt lat="49.18228" lon="2.10639">
        <ele>116.584837</ele>
        <time>2025-06-19T12:14:20.717Z</time>
      </trkpt>
      <trkpt lat="49.18221" lon="2.10619">
        <ele>116.574102</ele>
        <time>2025-06-19T12:14:22.706Z</time>
      </trkpt>
      <trkpt lat="49.18214" lon="2.10597">
        <ele>116.562841</ele>
        <time>2025-06-19T12:14:24.718Z</time>
      </trkpt>
      <trkpt lat="49.18209" lon="2.10575">
        <ele>116.551999</ele>
        <time>2025-06-19T12:14:26.705Z</time>
      </trkpt>
      <trkpt lat="49.18204" lon="2.10553">
        <ele>116.541184</ele>
        <time>2025-06-19T12:14:28.731Z</time>
      </trkpt>
      <trkpt lat="49.18199" lon="2.10533">
        <ele>116.531437</ele>
        <time>2025-06-19T12:14:30.720Z</time>
      </trkpt>
      <trkpt lat="49.18194" lon="2.10516">
        <ele>116.522406</ele>
        <time>2025-06-19T12:14:32.725Z</time>
      </trkpt>
      <trkpt lat="49.18187" lon="2.105">
        <ele>116.513871</ele>
        <time>2025-06-19T12:14:34.717Z</time>
      </trkpt>
      <trkpt lat="49.18181" lon="2.10486">
        <ele>116.506035</ele>
        <time>2025-06-19T12:14:36.719Z</time>
      </trkpt>
      <trkpt lat="49.18175" lon="2.10473">
        <ele>116.498199</ele>
        <time>2025-06-19T12:14:38.728Z</time>
      </trkpt>
      <trkpt lat="49.18169" lon="2.1046">
        <ele>116.491183</ele>
        <time>2025-06-19T12:14:40.725Z</time>
      </trkpt>
      <trkpt lat="49.18163" lon="2.1045">
        <ele>116.484502</ele>
        <time>2025-06-19T12:14:42.719Z</time>
      </trkpt>
      <trkpt lat="49.18162" lon="2.10435">
        <ele>116.494422</ele>
        <time>2025-06-19T12:14:45.710Z</time>
      </trkpt>
      <trkpt lat="49.1817" lon="2.10423">
        <ele>116.826939</ele>
        <time>2025-06-19T12:14:48.715Z</time>
      </trkpt>
      <trkpt lat="49.18178" lon="2.10406">
        <ele>117.224678</ele>
        <time>2025-06-19T12:14:51.723Z</time>
      </trkpt>
      <trkpt lat="49.18184" lon="2.10388">
        <ele>117.622083</ele>
        <time>2025-06-19T12:14:54.725Z</time>
      </trkpt>
      <trkpt lat="49.18187" lon="2.10367">
        <ele>118.03161</ele>
        <time>2025-06-19T12:14:57.723Z</time>
      </trkpt>
      <trkpt lat="49.18188" lon="2.10353">
        <ele>118.307029</ele>
        <time>2025-06-19T12:14:59.715Z</time>
      </trkpt>
      <trkpt lat="49.18189" lon="2.10334">
        <ele>118.669363</ele>
        <time>2025-06-19T12:15:02.728Z</time>
      </trkpt>
      <trkpt lat="49.1819" lon="2.10316">
        <ele>119.026768</ele>
        <time>2025-06-19T12:15:05.703Z</time>
      </trkpt>
      <trkpt lat="49.18192" lon="2.103">
        <ele>119.335093</ele>
        <time>2025-06-19T12:15:08.723Z</time>
      </trkpt>
      <trkpt lat="49.18193" lon="2.10279">
        <ele>119.746585</ele>
        <time>2025-06-19T12:15:11.723Z</time>
      </trkpt>
      <trkpt lat="49.18195" lon="2.10263">
        <ele>120.041539</ele>
        <time>2025-06-19T12:15:13.727Z</time>
      </trkpt>
      <trkpt lat="49.18197" lon="2.10248">
        <ele>120.354793</ele>
        <time>2025-06-19T12:15:15.727Z</time>
      </trkpt>
      <trkpt lat="49.182" lon="2.10232">
        <ele>120.665931</ele>
        <time>2025-06-19T12:15:17.727Z</time>
      </trkpt>
      <trkpt lat="49.18205" lon="2.10216">
        <ele>121.009419</ele>
        <time>2025-06-19T12:15:19.709Z</time>
      </trkpt>
      <trkpt lat="49.18211" lon="2.10202">
        <ele>121.333</ele>
        <time>2025-06-19T12:15:21.723Z</time>
      </trkpt>
      <trkpt lat="49.18218" lon="2.10188">
        <ele>121.6781</ele>
        <time>2025-06-19T12:15:23.723Z</time>
      </trkpt>
      <trkpt lat="49.18228" lon="2.10182">
        <ele>121.89538</ele>
        <time>2025-06-19T12:15:25.708Z</time>
      </trkpt>
      <trkpt lat="49.18236" lon="2.10174">
        <ele>122.053456</ele>
        <time>2025-06-19T12:15:27.715Z</time>
      </trkpt>
      <trkpt lat="49.18245" lon="2.10169">
        <ele>122.21496</ele>
        <time>2025-06-19T12:15:29.724Z</time>
      </trkpt>
      <trkpt lat="49.18254" lon="2.10162">
        <ele>122.366962</ele>
        <time>2025-06-19T12:15:31.725Z</time>
      </trkpt>
      <trkpt lat="49.18266" lon="2.10157">
        <ele>122.579493</ele>
        <time>2025-06-19T12:15:34.716Z</time>
      </trkpt>
      <trkpt lat="49.18275" lon="2.10151">
        <ele>122.731973</ele>
        <time>2025-06-19T12:15:36.723Z</time>
      </trkpt>
      <trkpt lat="49.18284" lon="2.10147">
        <ele>122.886013</ele>
        <time>2025-06-19T12:15:38.724Z</time>
      </trkpt>
      <trkpt lat="49.18294" lon="2.10141">
        <ele>123.060757</ele>
        <time>2025-06-19T12:15:41.719Z</time>
      </trkpt>
      <trkpt lat="49.18305" lon="2.10135">
        <ele>123.243596</ele>
        <time>2025-06-19T12:15:44.709Z</time>
      </trkpt>
      <trkpt lat="49.18314" lon="2.10129">
        <ele>123.401133</ele>
        <time>2025-06-19T12:15:47.720Z</time>
      </trkpt>
      <trkpt lat="49.18323" lon="2.10123">
        <ele>123.567192</ele>
        <time>2025-06-19T12:15:50.725Z</time>
      </trkpt>
      <trkpt lat="49.18331" lon="2.10113">
        <ele>123.734463</ele>
        <time>2025-06-19T12:15:53.721Z</time>
      </trkpt>
      <trkpt lat="49.18339" lon="2.10103">
        <ele>123.901761</ele>
        <time>2025-06-19T12:15:56.716Z</time>
      </trkpt>
      <trkpt lat="49.18347" lon="2.10091">
        <ele>124.071955</ele>
        <time>2025-06-19T12:15:59.718Z</time>
      </trkpt>
      <trkpt lat="49.18353" lon="2.10077">
        <ele>124.257237</ele>
        <time>2025-06-19T12:16:02.717Z</time>
      </trkpt>
      <trkpt lat="49.1836" lon="2.10058">
        <ele>124.481312</ele>
        <time>2025-06-19T12:16:05.726Z</time>
      </trkpt>
      <trkpt lat="49.18366" lon="2.10045">
        <ele>124.65059</ele>
        <time>2025-06-19T12:16:07.723Z</time>
      </trkpt>
      <trkpt lat="49.18371" lon="2.10031">
        <ele>124.613532</ele>
        <time>2025-06-19T12:16:09.723Z</time>
      </trkpt>
      <trkpt lat="49.18376" lon="2.10016">
        <ele>124.475733</ele>
        <time>2025-06-19T12:16:11.717Z</time>
      </trkpt>
      <trkpt lat="49.18382" lon="2.10001">
        <ele>124.331658</ele>
        <time>2025-06-19T12:16:13.726Z</time>
      </trkpt>
      <trkpt lat="49.18388" lon="2.09985">
        <ele>124.180299</ele>
        <time>2025-06-19T12:16:15.711Z</time>
      </trkpt>
      <trkpt lat="49.18393" lon="2.09969">
        <ele>124.032579</ele>
        <time>2025-06-19T12:16:17.716Z</time>
      </trkpt>
      <trkpt lat="49.184" lon="2.09954">
        <ele>123.880072</ele>
        <time>2025-06-19T12:16:19.725Z</time>
      </trkpt>
      <trkpt lat="49.18407" lon="2.09939">
        <ele>123.728529</ele>
        <time>2025-06-19T12:16:21.723Z</time>
      </trkpt>
      <trkpt lat="49.18415" lon="2.09926">
        <ele>123.576597</ele>
        <time>2025-06-19T12:16:23.724Z</time>
      </trkpt>
      <trkpt lat="49.18424" lon="2.09912">
        <ele>123.415875</ele>
        <time>2025-06-19T12:16:25.722Z</time>
      </trkpt>
      <trkpt lat="49.18432" lon="2.09899">
        <ele>123.270178</ele>
        <time>2025-06-19T12:16:27.717Z</time>
      </trkpt>
      <trkpt lat="49.1844" lon="2.09887">
        <ele>123.129185</ele>
        <time>2025-06-19T12:16:29.718Z</time>
      </trkpt>
      <trkpt lat="49.18448" lon="2.09875">
        <ele>122.984344</ele>
        <time>2025-06-19T12:16:31.724Z</time>
      </trkpt>
      <trkpt lat="49.18456" lon="2.09862">
        <ele>122.840931</ele>
        <time>2025-06-19T12:16:33.726Z</time>
      </trkpt>
      <trkpt lat="49.18463" lon="2.09847">
        <ele>122.690153</ele>
        <time>2025-06-19T12:16:35.717Z</time>
      </trkpt>
      <trkpt lat="49.1847" lon="2.09833">
        <ele>122.542207</ele>
        <time>2025-06-19T12:16:37.718Z</time>
      </trkpt>
      <trkpt lat="49.18476" lon="2.09818">
        <ele>122.469434</ele>
        <time>2025-06-19T12:16:39.724Z</time>
      </trkpt>
      <trkpt lat="49.18482" lon="2.09803">
        <ele>122.595627</ele>
        <time>2025-06-19T12:16:41.711Z</time>
      </trkpt>
      <trkpt lat="49.18488" lon="2.09787">
        <ele>122.718321</ele>
        <time>2025-06-19T12:16:43.724Z</time>
      </trkpt>
      <trkpt lat="49.18493" lon="2.09771">
        <ele>122.843403</ele>
        <time>2025-06-19T12:16:45.720Z</time>
      </trkpt>
      <trkpt lat="49.18498" lon="2.09756">
        <ele>122.962089</ele>
        <time>2025-06-19T12:16:47.720Z</time>
      </trkpt>
      <trkpt lat="49.18504" lon="2.09742">
        <ele>123.07918</ele>
        <time>2025-06-19T12:16:49.725Z</time>
      </trkpt>
      <trkpt lat="49.18508" lon="2.09729">
        <ele>123.186549</ele>
        <time>2025-06-19T12:16:51.716Z</time>
      </trkpt>
      <trkpt lat="49.18514" lon="2.09717">
        <ele>123.28719</ele>
        <time>2025-06-19T12:16:53.713Z</time>
      </trkpt>
      <trkpt lat="49.1852" lon="2.09706">
        <ele>123.395437</ele>
        <time>2025-06-19T12:16:55.707Z</time>
      </trkpt>
      <trkpt lat="49.18528" lon="2.09694">
        <ele>123.506845</ele>
        <time>2025-06-19T12:16:57.712Z</time>
      </trkpt>
      <trkpt lat="49.18535" lon="2.09684">
        <ele>123.609018</ele>
        <time>2025-06-19T12:16:59.722Z</time>
      </trkpt>
      <trkpt lat="49.18542" lon="2.09675">
        <ele>123.711487</ele>
        <time>2025-06-19T12:17:01.726Z</time>
      </trkpt>
      <trkpt lat="49.18551" lon="2.09666">
        <ele>123.825181</ele>
        <time>2025-06-19T12:17:03.737Z</time>
      </trkpt>
      <trkpt lat="49.18559" lon="2.09657">
        <ele>123.930209</ele>
        <time>2025-06-19T12:17:05.724Z</time>
      </trkpt>
      <trkpt lat="49.18566" lon="2.09648">
        <ele>124.029255</ele>
        <time>2025-06-19T12:17:07.711Z</time>
      </trkpt>
      <trkpt lat="49.18574" lon="2.09638">
        <ele>124.138403</ele>
        <time>2025-06-19T12:17:09.719Z</time>
      </trkpt>
      <trkpt lat="49.18583" lon="2.09623">
        <ele>124.285435</ele>
        <time>2025-06-19T12:17:12.723Z</time>
      </trkpt>
      <trkpt lat="49.18591" lon="2.09606">
        <ele>124.42942</ele>
        <time>2025-06-19T12:17:15.718Z</time>
      </trkpt>
      <trkpt lat="49.18599" lon="2.09593">
        <ele>124.534027</ele>
        <time>2025-06-19T12:17:17.725Z</time>
      </trkpt>
      <trkpt lat="49.18606" lon="2.0958">
        <ele>124.63911</ele>
        <time>2025-06-19T12:17:19.722Z</time>
      </trkpt>
      <trkpt lat="49.18614" lon="2.09569">
        <ele>124.746373</ele>
        <time>2025-06-19T12:17:21.720Z</time>
      </trkpt>
      <trkpt lat="49.18619" lon="2.09557">
        <ele>124.83401</ele>
        <time>2025-06-19T12:17:23.722Z</time>
      </trkpt>
      <trkpt lat="49.18625" lon="2.09545">
        <ele>124.929643</ele>
        <time>2025-06-19T12:17:25.731Z</time>
      </trkpt>
      <trkpt lat="49.18633" lon="2.09532">
        <ele>125.038498</ele>
        <time>2025-06-19T12:17:27.849Z</time>
      </trkpt>
      <trkpt lat="49.18639" lon="2.09521">
        <ele>125.130571</ele>
        <time>2025-06-19T12:17:29.715Z</time>
      </trkpt>
      <trkpt lat="49.18646" lon="2.0951">
        <ele>125.222038</ele>
        <time>2025-06-19T12:17:31.732Z</time>
      </trkpt>
      <trkpt lat="49.18653" lon="2.09499">
        <ele>125.319258</ele>
        <time>2025-06-19T12:17:33.738Z</time>
      </trkpt>
      <trkpt lat="49.1866" lon="2.09489">
        <ele>125.406465</ele>
        <time>2025-06-19T12:17:35.720Z</time>
      </trkpt>
      <trkpt lat="49.18669" lon="2.09475">
        <ele>125.529492</ele>
        <time>2025-06-19T12:17:38.719Z</time>
      </trkpt>
      <trkpt lat="49.18676" lon="2.09466">
        <ele>125.619611</ele>
        <time>2025-06-19T12:17:40.725Z</time>
      </trkpt>
      <trkpt lat="49.18688" lon="2.09455">
        <ele>125.749907</ele>
        <time>2025-06-19T12:17:43.709Z</time>
      </trkpt>
      <trkpt lat="49.18698" lon="2.09442">
        <ele>125.876373</ele>
        <time>2025-06-19T12:17:46.726Z</time>
      </trkpt>
      <trkpt lat="49.18706" lon="2.09435">
        <ele>125.965494</ele>
        <time>2025-06-19T12:17:48.714Z</time>
      </trkpt>
      <trkpt lat="49.18713" lon="2.09426">
        <ele>126.051824</ele>
        <time>2025-06-19T12:17:50.752Z</time>
      </trkpt>
      <trkpt lat="49.18724" lon="2.09414">
        <ele>126.114398</ele>
        <time>2025-06-19T12:17:53.726Z</time>
      </trkpt>
      <trkpt lat="49.18731" lon="2.09404">
        <ele>126.143422</ele>
        <time>2025-06-19T12:17:55.728Z</time>
      </trkpt>
      <trkpt lat="49.18738" lon="2.09388">
        <ele>126.180773</ele>
        <time>2025-06-19T12:17:58.723Z</time>
      </trkpt>
      <trkpt lat="49.18744" lon="2.09377">
        <ele>126.210158</ele>
        <time>2025-06-19T12:18:00.702Z</time>
      </trkpt>
      <trkpt lat="49.1875" lon="2.09365">
        <ele>126.238459</ele>
        <time>2025-06-19T12:18:02.730Z</time>
      </trkpt>
      <trkpt lat="49.18756" lon="2.09354">
        <ele>126.267096</ele>
        <time>2025-06-19T12:18:04.709Z</time>
      </trkpt>
      <trkpt lat="49.18763" lon="2.09338">
        <ele>126.304937</ele>
        <time>2025-06-19T12:18:07.724Z</time>
      </trkpt>
      <trkpt lat="49.18767" lon="2.09325">
        <ele>126.332458</ele>
        <time>2025-06-19T12:18:09.731Z</time>
      </trkpt>
      <trkpt lat="49.18772" lon="2.09313">
        <ele>126.359292</ele>
        <time>2025-06-19T12:18:11.723Z</time>
      </trkpt>
      <trkpt lat="49.18776" lon="2.09296">
        <ele>126.394988</ele>
        <time>2025-06-19T12:18:14.711Z</time>
      </trkpt>
      <trkpt lat="49.18779" lon="2.09281">
        <ele>126.426026</ele>
        <time>2025-06-19T12:18:16.718Z</time>
      </trkpt>
      <trkpt lat="49.18781" lon="2.09265">
        <ele>126.4575</ele>
        <time>2025-06-19T12:18:18.723Z</time>
      </trkpt>
      <trkpt lat="49.18782" lon="2.09249">
        <ele>126.488918</ele>
        <time>2025-06-19T12:18:20.722Z</time>
      </trkpt>
      <trkpt lat="49.18782" lon="2.09232">
        <ele>126.5211</ele>
        <time>2025-06-19T12:18:22.725Z</time>
      </trkpt>
      <trkpt lat="49.18783" lon="2.09215">
        <ele>126.554676</ele>
        <time>2025-06-19T12:18:24.715Z</time>
      </trkpt>
      <trkpt lat="49.18784" lon="2.09197">
        <ele>126.589791</ele>
        <time>2025-06-19T12:18:26.722Z</time>
      </trkpt>
      <trkpt lat="49.18785" lon="2.09177">
        <ele>126.589674</ele>
        <time>2025-06-19T12:18:28.723Z</time>
      </trkpt>
      <trkpt lat="49.18787" lon="2.09155">
        <ele>126.436093</ele>
        <time>2025-06-19T12:18:30.713Z</time>
      </trkpt>
      <trkpt lat="49.1879" lon="2.09133">
        <ele>126.277557</ele>
        <time>2025-06-19T12:18:32.717Z</time>
      </trkpt>
      <trkpt lat="49.18793" lon="2.09111">
        <ele>126.115567</ele>
        <time>2025-06-19T12:18:34.729Z</time>
      </trkpt>
      <trkpt lat="49.18797" lon="2.09088">
        <ele>125.948818</ele>
        <time>2025-06-19T12:18:36.718Z</time>
      </trkpt>
      <trkpt lat="49.18802" lon="2.09067">
        <ele>125.786746</ele>
        <time>2025-06-19T12:18:38.718Z</time>
      </trkpt>
      <trkpt lat="49.18806" lon="2.09046">
        <ele>125.631758</ele>
        <time>2025-06-19T12:18:40.720Z</time>
      </trkpt>
      <trkpt lat="49.1881" lon="2.09026">
        <ele>125.483978</ele>
        <time>2025-06-19T12:18:42.720Z</time>
      </trkpt>
      <trkpt lat="49.18814" lon="2.09007">
        <ele>125.345542</ele>
        <time>2025-06-19T12:18:44.724Z</time>
      </trkpt>
      <trkpt lat="49.18817" lon="2.0899">
        <ele>125.214165</ele>
        <time>2025-06-19T12:18:46.714Z</time>
      </trkpt>
      <trkpt lat="49.18821" lon="2.08972">
        <ele>125.081342</ele>
        <time>2025-06-19T12:18:48.733Z</time>
      </trkpt>
      <trkpt lat="49.18826" lon="2.08955">
        <ele>124.949312</ele>
        <time>2025-06-19T12:18:50.718Z</time>
      </trkpt>
      <trkpt lat="49.1883" lon="2.08936">
        <ele>124.810876</ele>
        <time>2025-06-19T12:18:52.725Z</time>
      </trkpt>
      <trkpt lat="49.18834" lon="2.08916">
        <ele>124.65743</ele>
        <time>2025-06-19T12:18:54.728Z</time>
      </trkpt>
      <trkpt lat="49.1884" lon="2.08896">
        <ele>124.395871</ele>
        <time>2025-06-19T12:18:56.727Z</time>
      </trkpt>
      <trkpt lat="49.18844" lon="2.08874">
        <ele>124.122739</ele>
        <time>2025-06-19T12:18:58.721Z</time>
      </trkpt>
      <trkpt lat="49.18849" lon="2.08851">
        <ele>123.832105</ele>
        <time>2025-06-19T12:19:00.713Z</time>
      </trkpt>
      <trkpt lat="49.18854" lon="2.08827">
        <ele>123.538661</ele>
        <time>2025-06-19T12:19:02.719Z</time>
      </trkpt>
      <trkpt lat="49.1886" lon="2.08804">
        <ele>123.246244</ele>
        <time>2025-06-19T12:19:04.720Z</time>
      </trkpt>
      <trkpt lat="49.18866" lon="2.08781">
        <ele>122.951763</ele>
        <time>2025-06-19T12:19:06.721Z</time>
      </trkpt>
      <trkpt lat="49.18873" lon="2.08758">
        <ele>122.644304</ele>
        <time>2025-06-19T12:19:08.719Z</time>
      </trkpt>
      <trkpt lat="49.18883" lon="2.08736">
        <ele>122.334189</ele>
        <time>2025-06-19T12:19:10.714Z</time>
      </trkpt>
      <trkpt lat="49.18893" lon="2.08715">
        <ele>122.024335</ele>
        <time>2025-06-19T12:19:12.722Z</time>
      </trkpt>
      <trkpt lat="49.18903" lon="2.08694">
        <ele>121.710544</ele>
        <time>2025-06-19T12:19:14.732Z</time>
      </trkpt>
      <trkpt lat="49.18913" lon="2.08674">
        <ele>121.41292</ele>
        <time>2025-06-19T12:19:16.724Z</time>
      </trkpt>
      <trkpt lat="49.18922" lon="2.08652">
        <ele>120.913898</ele>
        <time>2025-06-19T12:19:18.717Z</time>
      </trkpt>
      <trkpt lat="49.1893" lon="2.0863">
        <ele>120.421471</ele>
        <time>2025-06-19T12:19:20.723Z</time>
      </trkpt>
      <trkpt lat="49.18938" lon="2.08606">
        <ele>119.89759</ele>
        <time>2025-06-19T12:19:22.725Z</time>
      </trkpt>
      <trkpt lat="49.18945" lon="2.08582">
        <ele>119.369123</ele>
        <time>2025-06-19T12:19:24.718Z</time>
      </trkpt>
      <trkpt lat="49.18949" lon="2.08569">
        <ele>119.095995</ele>
        <time>2025-06-19T12:19:25.723Z</time>
      </trkpt>
      <trkpt lat="49.18952" lon="2.08556">
        <ele>118.818209</ele>
        <time>2025-06-19T12:19:26.722Z</time>
      </trkpt>
      <trkpt lat="49.18956" lon="2.08543">
        <ele>118.534359</ele>
        <time>2025-06-19T12:19:27.719Z</time>
      </trkpt>
      <trkpt lat="49.1896" lon="2.08531">
        <ele>118.257668</ele>
        <time>2025-06-19T12:19:28.714Z</time>
      </trkpt>
      <trkpt lat="49.18964" lon="2.08517">
        <ele>117.966843</ele>
        <time>2025-06-19T12:19:29.710Z</time>
      </trkpt>
      <trkpt lat="49.18969" lon="2.08505">
        <ele>117.682483</ele>
        <time>2025-06-19T12:19:30.716Z</time>
      </trkpt>
      <trkpt lat="49.18974" lon="2.08493">
        <ele>117.401534</ele>
        <time>2025-06-19T12:19:31.724Z</time>
      </trkpt>
      <trkpt lat="49.18979" lon="2.08481">
        <ele>117.121901</ele>
        <time>2025-06-19T12:19:32.717Z</time>
      </trkpt>
      <trkpt lat="49.18985" lon="2.0847">
        <ele>116.840435</ele>
        <time>2025-06-19T12:19:33.723Z</time>
      </trkpt>
      <trkpt lat="49.18991" lon="2.0846">
        <ele>116.56739</ele>
        <time>2025-06-19T12:19:34.724Z</time>
      </trkpt>
      <trkpt lat="49.19003" lon="2.08439">
        <ele>116.025632</ele>
        <time>2025-06-19T12:19:36.722Z</time>
      </trkpt>
      <trkpt lat="49.19014" lon="2.0842">
        <ele>116.256636</ele>
        <time>2025-06-19T12:19:38.714Z</time>
      </trkpt>
      <trkpt lat="49.19024" lon="2.084">
        <ele>116.565135</ele>
        <time>2025-06-19T12:19:40.731Z</time>
      </trkpt>
      <trkpt lat="49.19032" lon="2.08379">
        <ele>116.855611</ele>
        <time>2025-06-19T12:19:42.717Z</time>
      </trkpt>
      <trkpt lat="49.19039" lon="2.0836">
        <ele>117.126975</ele>
        <time>2025-06-19T12:19:44.721Z</time>
      </trkpt>
      <trkpt lat="49.19044" lon="2.08342">
        <ele>117.3737</ele>
        <time>2025-06-19T12:19:46.708Z</time>
      </trkpt>
      <trkpt lat="49.1905" lon="2.08325">
        <ele>117.611009</ele>
        <time>2025-06-19T12:19:48.713Z</time>
      </trkpt>
      <trkpt lat="49.19055" lon="2.08308">
        <ele>117.838387</ele>
        <time>2025-06-19T12:19:50.707Z</time>
      </trkpt>
      <trkpt lat="49.19059" lon="2.08292">
        <ele>118.052118</ele>
        <time>2025-06-19T12:19:52.727Z</time>
      </trkpt>
      <trkpt lat="49.19064" lon="2.08277">
        <ele>118.254928</ele>
        <time>2025-06-19T12:19:54.714Z</time>
      </trkpt>
      <trkpt lat="49.19068" lon="2.08263">
        <ele>118.448679</ele>
        <time>2025-06-19T12:19:56.718Z</time>
      </trkpt>
      <trkpt lat="49.19071" lon="2.08249">
        <ele>118.625316</ele>
        <time>2025-06-19T12:19:58.710Z</time>
      </trkpt>
      <trkpt lat="49.19075" lon="2.08236">
        <ele>118.808898</ele>
        <time>2025-06-19T12:20:00.711Z</time>
      </trkpt>
      <trkpt lat="49.19079" lon="2.08223">
        <ele>118.980072</ele>
        <time>2025-06-19T12:20:02.708Z</time>
      </trkpt>
      <trkpt lat="49.19082" lon="2.0821">
        <ele>119.151426</ele>
        <time>2025-06-19T12:20:04.729Z</time>
      </trkpt>
      <trkpt lat="49.19087" lon="2.08191">
        <ele>119.396305</ele>
        <time>2025-06-19T12:20:07.721Z</time>
      </trkpt>
      <trkpt lat="49.1909" lon="2.08178">
        <ele>119.534468</ele>
        <time>2025-06-19T12:20:09.722Z</time>
      </trkpt>
      <trkpt lat="49.19092" lon="2.08164">
        <ele>119.676897</ele>
        <time>2025-06-19T12:20:11.723Z</time>
      </trkpt>
      <trkpt lat="49.19095" lon="2.0815">
        <ele>119.823002</ele>
        <time>2025-06-19T12:20:13.712Z</time>
      </trkpt>
      <trkpt lat="49.19099" lon="2.08129">
        <ele>120.041755</ele>
        <time>2025-06-19T12:20:16.712Z</time>
      </trkpt>
      <trkpt lat="49.19101" lon="2.08115">
        <ele>120.19019</ele>
        <time>2025-06-19T12:20:18.719Z</time>
      </trkpt>
      <trkpt lat="49.19103" lon="2.08099">
        <ele>120.348391</ele>
        <time>2025-06-19T12:20:20.715Z</time>
      </trkpt>
      <trkpt lat="49.19106" lon="2.08084">
        <ele>120.507281</ele>
        <time>2025-06-19T12:20:22.720Z</time>
      </trkpt>
      <trkpt lat="49.19108" lon="2.08069">
        <ele>120.659909</ele>
        <time>2025-06-19T12:20:24.718Z</time>
      </trkpt>
      <trkpt lat="49.1911" lon="2.08055">
        <ele>120.80732</ele>
        <time>2025-06-19T12:20:26.735Z</time>
      </trkpt>
      <trkpt lat="49.19112" lon="2.0804">
        <ele>120.956373</ele>
        <time>2025-06-19T12:20:28.738Z</time>
      </trkpt>
      <trkpt lat="49.19114" lon="2.08024">
        <ele>121.117238</ele>
        <time>2025-06-19T12:20:30.724Z</time>
      </trkpt>
      <trkpt lat="49.19116" lon="2.0801">
        <ele>121.267588</ele>
        <time>2025-06-19T12:20:32.720Z</time>
      </trkpt>
      <trkpt lat="49.19118" lon="2.07995">
        <ele>121.420028</ele>
        <time>2025-06-19T12:20:34.720Z</time>
      </trkpt>
      <trkpt lat="49.1912" lon="2.07981">
        <ele>121.564956</ele>
        <time>2025-06-19T12:20:36.717Z</time>
      </trkpt>
      <trkpt lat="49.19122" lon="2.07967">
        <ele>121.707473</ele>
        <time>2025-06-19T12:20:38.733Z</time>
      </trkpt>
      <trkpt lat="49.19124" lon="2.07953">
        <ele>121.850057</ele>
        <time>2025-06-19T12:20:40.719Z</time>
      </trkpt>
      <trkpt lat="49.19127" lon="2.07933">
        <ele>122.055844</ele>
        <time>2025-06-19T12:20:43.735Z</time>
      </trkpt>
      <trkpt lat="49.19129" lon="2.07912">
        <ele>122.189591</ele>
        <time>2025-06-19T12:20:46.707Z</time>
      </trkpt>
      <trkpt lat="49.19131" lon="2.07897">
        <ele>122.260388</ele>
        <time>2025-06-19T12:20:48.722Z</time>
      </trkpt>
      <trkpt lat="49.19134" lon="2.07883">
        <ele>122.331249</ele>
        <time>2025-06-19T12:20:50.715Z</time>
      </trkpt>
      <trkpt lat="49.19137" lon="2.07869">
        <ele>122.398522</ele>
        <time>2025-06-19T12:20:52.723Z</time>
      </trkpt>
      <trkpt lat="49.19141" lon="2.07856">
        <ele>122.468102</ele>
        <time>2025-06-19T12:20:54.720Z</time>
      </trkpt>
      <trkpt lat="49.19145" lon="2.07842">
        <ele>122.538806</ele>
        <time>2025-06-19T12:20:56.720Z</time>
      </trkpt>
      <trkpt lat="49.1915" lon="2.0783">
        <ele>122.606216</ele>
        <time>2025-06-19T12:20:58.711Z</time>
      </trkpt>
      <trkpt lat="49.19154" lon="2.07816">
        <ele>122.678076</ele>
        <time>2025-06-19T12:21:00.723Z</time>
      </trkpt>
      <trkpt lat="49.19159" lon="2.07804">
        <ele>122.745445</ele>
        <time>2025-06-19T12:21:02.729Z</time>
      </trkpt>
      <trkpt lat="49.19163" lon="2.07786">
        <ele>122.837987</ele>
        <time>2025-06-19T12:21:05.713Z</time>
      </trkpt>
      <trkpt lat="49.19167" lon="2.0777">
        <ele>122.917851</ele>
        <time>2025-06-19T12:21:08.719Z</time>
      </trkpt>
      <trkpt lat="49.19168" lon="2.07755">
        <ele>122.987983</ele>
        <time>2025-06-19T12:21:11.741Z</time>
      </trkpt>
      <trkpt lat="49.19162" lon="2.07745">
        <ele>123.053833</ele>
        <time>2025-06-19T12:21:14.719Z</time>
      </trkpt>
      <trkpt lat="49.19153" lon="2.07738">
        <ele>123.128208</ele>
        <time>2025-06-19T12:21:17.706Z</time>
      </trkpt>
      <trkpt lat="49.19147" lon="2.07725">
        <ele>123.20001</ele>
        <time>2025-06-19T12:21:20.718Z</time>
      </trkpt>
      <trkpt lat="49.19148" lon="2.07709">
        <ele>123.277168</ele>
        <time>2025-06-19T12:21:23.712Z</time>
      </trkpt>
      <trkpt lat="49.19152" lon="2.07694">
        <ele>123.350702</ele>
        <time>2025-06-19T12:21:26.720Z</time>
      </trkpt>
      <trkpt lat="49.19156" lon="2.0768">
        <ele>123.444135</ele>
        <time>2025-06-19T12:21:29.717Z</time>
      </trkpt>
      <trkpt lat="49.19162" lon="2.07667">
        <ele>123.708521</ele>
        <time>2025-06-19T12:21:32.718Z</time>
      </trkpt>
      <trkpt lat="49.19168" lon="2.07654">
        <ele>123.97471</ele>
        <time>2025-06-19T12:21:35.730Z</time>
      </trkpt>
      <trkpt lat="49.19176" lon="2.0764">
        <ele>124.273554</ele>
        <time>2025-06-19T12:21:38.716Z</time>
      </trkpt>
      <trkpt lat="49.19181" lon="2.07624">
        <ele>124.572659</ele>
        <time>2025-06-19T12:21:41.716Z</time>
      </trkpt>
      <trkpt lat="49.19181" lon="2.07606">
        <ele>124.872043</ele>
        <time>2025-06-19T12:21:44.720Z</time>
      </trkpt>
      <trkpt lat="49.19175" lon="2.07588">
        <ele>125.201161</ele>
        <time>2025-06-19T12:21:47.712Z</time>
      </trkpt>
      <trkpt lat="49.19166" lon="2.07576">
        <ele>125.491576</ele>
        <time>2025-06-19T12:21:50.709Z</time>
      </trkpt>
      <trkpt lat="49.19157" lon="2.07567">
        <ele>125.775406</ele>
        <time>2025-06-19T12:21:53.721Z</time>
      </trkpt>
      <trkpt lat="49.19147" lon="2.07559">
        <ele>126.048539</ele>
        <time>2025-06-19T12:21:56.721Z</time>
      </trkpt>
      <trkpt lat="49.19138" lon="2.0755">
        <ele>126.316492</ele>
        <time>2025-06-19T12:21:59.723Z</time>
      </trkpt>
      <trkpt lat="49.19128" lon="2.07544">
        <ele>126.585013</ele>
        <time>2025-06-19T12:22:02.723Z</time>
      </trkpt>
      <trkpt lat="49.19118" lon="2.07539">
        <ele>126.845524</ele>
        <time>2025-06-19T12:22:05.731Z</time>
      </trkpt>
      <trkpt lat="49.19108" lon="2.07533">
        <ele>127.116101</ele>
        <time>2025-06-19T12:22:08.726Z</time>
      </trkpt>
      <trkpt lat="49.19099" lon="2.07529">
        <ele>127.354842</ele>
        <time>2025-06-19T12:22:11.712Z</time>
      </trkpt>
      <trkpt lat="49.19088" lon="2.07525">
        <ele>127.652779</ele>
        <time>2025-06-19T12:22:15.724Z</time>
      </trkpt>
      <trkpt lat="49.19079" lon="2.07521">
        <ele>127.880935</ele>
        <time>2025-06-19T12:22:18.727Z</time>
      </trkpt>
      <trkpt lat="49.19071" lon="2.07516">
        <ele>128.308891</ele>
        <time>2025-06-19T12:22:21.719Z</time>
      </trkpt>
      <trkpt lat="49.19064" lon="2.07507">
        <ele>128.814393</ele>
        <time>2025-06-19T12:22:24.726Z</time>
      </trkpt>
      <trkpt lat="49.1906" lon="2.07494">
        <ele>129.321217</ele>
        <time>2025-06-19T12:22:27.730Z</time>
      </trkpt>
      <trkpt lat="49.19059" lon="2.0748">
        <ele>129.827132</ele>
        <time>2025-06-19T12:22:30.721Z</time>
      </trkpt>
      <trkpt lat="49.1906" lon="2.07466">
        <ele>130.352568</ele>
        <time>2025-06-19T12:22:33.710Z</time>
      </trkpt>
      <trkpt lat="49.1906" lon="2.07451">
        <ele>130.899381</ele>
        <time>2025-06-19T12:22:36.718Z</time>
      </trkpt>
      <trkpt lat="49.1906" lon="2.07436">
        <ele>131.446394</ele>
        <time>2025-06-19T12:22:39.726Z</time>
      </trkpt>
      <trkpt lat="49.19061" lon="2.07421">
        <ele>131.99685</ele>
        <time>2025-06-19T12:22:42.718Z</time>
      </trkpt>
      <trkpt lat="49.19061" lon="2.07407">
        <ele>132.510735</ele>
        <time>2025-06-19T12:22:45.715Z</time>
      </trkpt>
      <trkpt lat="49.1906" lon="2.07388">
        <ele>133.201224</ele>
        <time>2025-06-19T12:22:49.721Z</time>
      </trkpt>
      <trkpt lat="49.1906" lon="2.07373">
        <ele>133.740609</ele>
        <time>2025-06-19T12:22:52.717Z</time>
      </trkpt>
      <trkpt lat="49.19059" lon="2.07359">
        <ele>134.256818</ele>
        <time>2025-06-19T12:22:55.731Z</time>
      </trkpt>
      <trkpt lat="49.19059" lon="2.07344">
        <ele>134.814753</ele>
        <time>2025-06-19T12:22:58.712Z</time>
      </trkpt>
      <trkpt lat="49.19057" lon="2.07329">
        <ele>135.35388</ele>
        <time>2025-06-19T12:23:01.725Z</time>
      </trkpt>
      <trkpt lat="49.19055" lon="2.07315">
        <ele>135.879606</ele>
        <time>2025-06-19T12:23:04.733Z</time>
      </trkpt>
      <trkpt lat="49.19053" lon="2.07301">
        <ele>136.412668</ele>
        <time>2025-06-19T12:23:07.708Z</time>
      </trkpt>
      <trkpt lat="49.1905" lon="2.07286">
        <ele>136.958531</ele>
        <time>2025-06-19T12:23:10.719Z</time>
      </trkpt>
      <trkpt lat="49.19048" lon="2.07272">
        <ele>137.503553</ele>
        <time>2025-06-19T12:23:13.722Z</time>
      </trkpt>
      <trkpt lat="49.19044" lon="2.07258">
        <ele>138.022468</ele>
        <time>2025-06-19T12:23:16.718Z</time>
      </trkpt>
      <trkpt lat="49.19041" lon="2.07245">
        <ele>138.381246</ele>
        <time>2025-06-19T12:23:19.718Z</time>
      </trkpt>
      <trkpt lat="49.19038" lon="2.07231">
        <ele>138.740804</ele>
        <time>2025-06-19T12:23:22.722Z</time>
      </trkpt>
      <trkpt lat="49.19036" lon="2.07217">
        <ele>139.103872</ele>
        <time>2025-06-19T12:23:25.718Z</time>
      </trkpt>
      <trkpt lat="49.19034" lon="2.07203">
        <ele>139.473471</ele>
        <time>2025-06-19T12:23:28.717Z</time>
      </trkpt>
      <trkpt lat="49.19032" lon="2.07188">
        <ele>139.855637</ele>
        <time>2025-06-19T12:23:31.715Z</time>
      </trkpt>
      <trkpt lat="49.19031" lon="2.07174">
        <ele>140.227577</ele>
        <time>2025-06-19T12:23:34.725Z</time>
      </trkpt>
      <trkpt lat="49.1903" lon="2.07157">
        <ele>140.660557</ele>
        <time>2025-06-19T12:23:38.718Z</time>
      </trkpt>
      <trkpt lat="49.19031" lon="2.07143">
        <ele>141.021525</ele>
        <time>2025-06-19T12:23:41.721Z</time>
      </trkpt>
      <trkpt lat="49.19037" lon="2.07132">
        <ele>141.37281</ele>
        <time>2025-06-19T12:23:44.718Z</time>
      </trkpt>
      <trkpt lat="49.19046" lon="2.07121">
        <ele>141.821831</ele>
        <time>2025-06-19T12:23:47.722Z</time>
      </trkpt>
      <trkpt lat="49.19055" lon="2.07115">
        <ele>142.194628</ele>
        <time>2025-06-19T12:23:49.710Z</time>
      </trkpt>
      <trkpt lat="49.19066" lon="2.07106">
        <ele>142.678168</ele>
        <time>2025-06-19T12:23:52.716Z</time>
      </trkpt>
      <trkpt lat="49.19077" lon="2.07096">
        <ele>143.189081</ele>
        <time>2025-06-19T12:23:55.723Z</time>
      </trkpt>
      <trkpt lat="49.19089" lon="2.07085">
        <ele>143.715954</ele>
        <time>2025-06-19T12:23:58.718Z</time>
      </trkpt>
      <trkpt lat="49.19097" lon="2.07078">
        <ele>144.079825</ele>
        <time>2025-06-19T12:24:00.721Z</time>
      </trkpt>
      <trkpt lat="49.19107" lon="2.07069">
        <ele>144.552933</ele>
        <time>2025-06-19T12:24:03.727Z</time>
      </trkpt>
      <trkpt lat="49.19116" lon="2.07058">
        <ele>145.0818</ele>
        <time>2025-06-19T12:24:06.720Z</time>
      </trkpt>
      <trkpt lat="49.19123" lon="2.07046">
        <ele>146.240062</ele>
        <time>2025-06-19T12:24:09.704Z</time>
      </trkpt>
      <trkpt lat="49.1913" lon="2.07033">
        <ele>147.373837</ele>
        <time>2025-06-19T12:24:12.730Z</time>
      </trkpt>
      <trkpt lat="49.19136" lon="2.07021">
        <ele>148.444454</ele>
        <time>2025-06-19T12:24:15.722Z</time>
      </trkpt>
      <trkpt lat="49.19141" lon="2.0701">
        <ele>149.44722</ele>
        <time>2025-06-19T12:24:18.718Z</time>
      </trkpt>
      <trkpt lat="49.19147" lon="2.06998">
        <ele>150.504723</ele>
        <time>2025-06-19T12:24:21.721Z</time>
      </trkpt>
      <trkpt lat="49.19152" lon="2.06986">
        <ele>151.524811</ele>
        <time>2025-06-19T12:24:24.717Z</time>
      </trkpt>
      <trkpt lat="49.19157" lon="2.06973">
        <ele>152.597034</ele>
        <time>2025-06-19T12:24:27.719Z</time>
      </trkpt>
      <trkpt lat="49.19159" lon="2.06958">
        <ele>153.688569</ele>
        <time>2025-06-19T12:24:30.723Z</time>
      </trkpt>
      <trkpt lat="49.19161" lon="2.06944">
        <ele>154.760422</ele>
        <time>2025-06-19T12:24:33.730Z</time>
      </trkpt>
      <trkpt lat="49.19162" lon="2.0693">
        <ele>155.771105</ele>
        <time>2025-06-19T12:24:36.721Z</time>
      </trkpt>
      <trkpt lat="49.19163" lon="2.06912">
        <ele>157.037353</ele>
        <time>2025-06-19T12:24:40.736Z</time>
      </trkpt>
      <trkpt lat="49.19165" lon="2.06894">
        <ele>158.344906</ele>
        <time>2025-06-19T12:24:44.723Z</time>
      </trkpt>
      <trkpt lat="49.19168" lon="2.0688">
        <ele>159.394119</ele>
        <time>2025-06-19T12:24:47.717Z</time>
      </trkpt>
      <trkpt lat="49.19169" lon="2.06865">
        <ele>160.495936</ele>
        <time>2025-06-19T12:24:50.724Z</time>
      </trkpt>
      <trkpt lat="49.19171" lon="2.0685">
        <ele>161.585293</ele>
        <time>2025-06-19T12:24:53.728Z</time>
      </trkpt>
      <trkpt lat="49.19172" lon="2.06834">
        <ele>162.755154</ele>
        <time>2025-06-19T12:24:56.730Z</time>
      </trkpt>
      <trkpt lat="49.19173" lon="2.06815">
        <ele>164.086625</ele>
        <time>2025-06-19T12:24:59.735Z</time>
      </trkpt>
      <trkpt lat="49.19174" lon="2.06801">
        <ele>164.332131</ele>
        <time>2025-06-19T12:25:01.736Z</time>
      </trkpt>
      <trkpt lat="49.19178" lon="2.06785">
        <ele>163.404632</ele>
        <time>2025-06-19T12:25:03.720Z</time>
      </trkpt>
      <trkpt lat="49.19181" lon="2.06766">
        <ele>162.329376</ele>
        <time>2025-06-19T12:25:05.719Z</time>
      </trkpt>
      <trkpt lat="49.19184" lon="2.06747">
        <ele>161.240991</ele>
        <time>2025-06-19T12:25:07.717Z</time>
      </trkpt>
      <trkpt lat="49.19189" lon="2.06726">
        <ele>160.002156</ele>
        <time>2025-06-19T12:25:09.721Z</time>
      </trkpt>
      <trkpt lat="49.19192" lon="2.06702">
        <ele>158.654154</ele>
        <time>2025-06-19T12:25:11.727Z</time>
      </trkpt>
      <trkpt lat="49.19193" lon="2.06688">
        <ele>157.875984</ele>
        <time>2025-06-19T12:25:12.712Z</time>
      </trkpt>
      <trkpt lat="49.19194" lon="2.0666">
        <ele>156.284195</ele>
        <time>2025-06-19T12:25:14.719Z</time>
      </trkpt>
      <trkpt lat="49.19194" lon="2.06644">
        <ele>155.409601</ele>
        <time>2025-06-19T12:25:15.731Z</time>
      </trkpt>
      <trkpt lat="49.19195" lon="2.06628">
        <ele>154.503529</ele>
        <time>2025-06-19T12:25:16.725Z</time>
      </trkpt>
      <trkpt lat="49.19196" lon="2.06612">
        <ele>153.637014</ele>
        <time>2025-06-19T12:25:17.713Z</time>
      </trkpt>
      <trkpt lat="49.19197" lon="2.06598">
        <ele>152.827515</ele>
        <time>2025-06-19T12:25:18.725Z</time>
      </trkpt>
      <trkpt lat="49.19198" lon="2.06583">
        <ele>152.011052</ele>
        <time>2025-06-19T12:25:19.733Z</time>
      </trkpt>
      <trkpt lat="49.192" lon="2.06569">
        <ele>151.199768</ele>
        <time>2025-06-19T12:25:20.728Z</time>
      </trkpt>
      <trkpt lat="49.19201" lon="2.06553">
        <ele>150.328758</ele>
        <time>2025-06-19T12:25:21.719Z</time>
      </trkpt>
      <trkpt lat="49.19203" lon="2.06538">
        <ele>149.46158</ele>
        <time>2025-06-19T12:25:22.720Z</time>
      </trkpt>
      <trkpt lat="49.19205" lon="2.06524">
        <ele>148.953935</ele>
        <time>2025-06-19T12:25:23.720Z</time>
      </trkpt>
      <trkpt lat="49.19209" lon="2.065">
        <ele>148.126767</ele>
        <time>2025-06-19T12:25:25.717Z</time>
      </trkpt>
      <trkpt lat="49.19216" lon="2.06478">
        <ele>147.320829</ele>
        <time>2025-06-19T12:25:27.721Z</time>
      </trkpt>
      <trkpt lat="49.19226" lon="2.06456">
        <ele>146.45032</ele>
        <time>2025-06-19T12:25:29.715Z</time>
      </trkpt>
      <trkpt lat="49.19237" lon="2.06435">
        <ele>145.539583</ele>
        <time>2025-06-19T12:25:31.723Z</time>
      </trkpt>
      <trkpt lat="49.1925" lon="2.06416">
        <ele>144.634615</ele>
        <time>2025-06-19T12:25:33.718Z</time>
      </trkpt>
      <trkpt lat="49.19259" lon="2.06395">
        <ele>143.777933</ele>
        <time>2025-06-19T12:25:35.731Z</time>
      </trkpt>
      <trkpt lat="49.19268" lon="2.06372">
        <ele>142.906419</ele>
        <time>2025-06-19T12:25:37.731Z</time>
      </trkpt>
      <trkpt lat="49.19274" lon="2.06351">
        <ele>142.162287</ele>
        <time>2025-06-19T12:25:39.725Z</time>
      </trkpt>
      <trkpt lat="49.19277" lon="2.06328">
        <ele>141.360578</ele>
        <time>2025-06-19T12:25:41.708Z</time>
      </trkpt>
      <trkpt lat="49.19279" lon="2.06304">
        <ele>140.578636</ele>
        <time>2025-06-19T12:25:43.725Z</time>
      </trkpt>
      <trkpt lat="49.19282" lon="2.06282">
        <ele>139.86081</ele>
        <time>2025-06-19T12:25:45.717Z</time>
      </trkpt>
      <trkpt lat="49.19287" lon="2.06261">
        <ele>139.137036</ele>
        <time>2025-06-19T12:25:47.714Z</time>
      </trkpt>
      <trkpt lat="49.19295" lon="2.06239">
        <ele>138.369181</ele>
        <time>2025-06-19T12:25:49.705Z</time>
      </trkpt>
      <trkpt lat="49.19304" lon="2.06216">
        <ele>137.561303</ele>
        <time>2025-06-19T12:25:51.725Z</time>
      </trkpt>
      <trkpt lat="49.19309" lon="2.06205">
        <ele>137.113486</ele>
        <time>2025-06-19T12:25:52.716Z</time>
      </trkpt>
      <trkpt lat="49.19313" lon="2.06192">
        <ele>136.680679</ele>
        <time>2025-06-19T12:25:53.703Z</time>
      </trkpt>
      <trkpt lat="49.19318" lon="2.06179">
        <ele>136.213232</ele>
        <time>2025-06-19T12:25:54.702Z</time>
      </trkpt>
      <trkpt lat="49.19322" lon="2.06166">
        <ele>135.778312</ele>
        <time>2025-06-19T12:25:55.704Z</time>
      </trkpt>
      <trkpt lat="49.19334" lon="2.06143">
        <ele>134.848459</ele>
        <time>2025-06-19T12:25:57.730Z</time>
      </trkpt>
      <trkpt lat="49.1934" lon="2.06133">
        <ele>134.409868</ele>
        <time>2025-06-19T12:25:58.706Z</time>
      </trkpt>
      <trkpt lat="49.19353" lon="2.06118">
        <ele>133.657729</ele>
        <time>2025-06-19T12:26:00.723Z</time>
      </trkpt>
      <trkpt lat="49.19362" lon="2.06106">
        <ele>133.078869</ele>
        <time>2025-06-19T12:26:02.721Z</time>
      </trkpt>
      <trkpt lat="49.19371" lon="2.06095">
        <ele>132.533848</ele>
        <time>2025-06-19T12:26:04.718Z</time>
      </trkpt>
      <trkpt lat="49.1938" lon="2.06087">
        <ele>132.040318</ele>
        <time>2025-06-19T12:26:06.725Z</time>
      </trkpt>
      <trkpt lat="49.19389" lon="2.06079">
        <ele>131.73538</ele>
        <time>2025-06-19T12:26:08.723Z</time>
      </trkpt>
      <trkpt lat="49.19399" lon="2.06075">
        <ele>131.881683</ele>
        <time>2025-06-19T12:26:10.715Z</time>
      </trkpt>
      <trkpt lat="49.1941" lon="2.06068">
        <ele>132.068887</ele>
        <time>2025-06-19T12:26:13.725Z</time>
      </trkpt>
      <trkpt lat="49.19422" lon="2.06061">
        <ele>132.244013</ele>
        <time>2025-06-19T12:26:16.729Z</time>
      </trkpt>
      <trkpt lat="49.19432" lon="2.06054">
        <ele>132.411195</ele>
        <time>2025-06-19T12:26:19.722Z</time>
      </trkpt>
      <trkpt lat="49.19441" lon="2.06047">
        <ele>132.558061</ele>
        <time>2025-06-19T12:26:22.727Z</time>
      </trkpt>
      <trkpt lat="49.19449" lon="2.06041">
        <ele>132.696599</ele>
        <time>2025-06-19T12:26:25.727Z</time>
      </trkpt>
      <trkpt lat="49.19459" lon="2.06036">
        <ele>132.849736</ele>
        <time>2025-06-19T12:26:28.726Z</time>
      </trkpt>
      <trkpt lat="49.19468" lon="2.06031">
        <ele>132.995149</ele>
        <time>2025-06-19T12:26:31.713Z</time>
      </trkpt>
      <trkpt lat="49.1948" lon="2.06026">
        <ele>133.169085</ele>
        <time>2025-06-19T12:26:35.709Z</time>
      </trkpt>
      <trkpt lat="49.19489" lon="2.06023">
        <ele>133.312699</ele>
        <time>2025-06-19T12:26:39.720Z</time>
      </trkpt>
      <trkpt lat="49.195" lon="2.06018">
        <ele>133.481847</ele>
        <time>2025-06-19T12:26:43.712Z</time>
      </trkpt>
      <trkpt lat="49.1951" lon="2.06014">
        <ele>133.637212</ele>
        <time>2025-06-19T12:26:47.705Z</time>
      </trkpt>
      <trkpt lat="49.19522" lon="2.06019">
        <ele>133.809192</ele>
        <time>2025-06-19T12:26:52.743Z</time>
      </trkpt>
      <trkpt lat="49.19526" lon="2.06035">
        <ele>133.974049</ele>
        <time>2025-06-19T12:26:56.712Z</time>
      </trkpt>
      <trkpt lat="49.19528" lon="2.06049">
        <ele>134.110219</ele>
        <time>2025-06-19T12:26:59.728Z</time>
      </trkpt>
      <trkpt lat="49.1953" lon="2.06065">
        <ele>134.274581</ele>
        <time>2025-06-19T12:27:02.725Z</time>
      </trkpt>
      <trkpt lat="49.19532" lon="2.06079">
        <ele>134.297759</ele>
        <time>2025-06-19T12:27:04.725Z</time>
      </trkpt>
      <trkpt lat="49.19535" lon="2.06095">
        <ele>134.183007</ele>
        <time>2025-06-19T12:27:06.710Z</time>
      </trkpt>
      <trkpt lat="49.1954" lon="2.06112">
        <ele>134.052217</ele>
        <time>2025-06-19T12:27:08.718Z</time>
      </trkpt>
      <trkpt lat="49.19546" lon="2.06131">
        <ele>133.910721</ele>
        <time>2025-06-19T12:27:10.717Z</time>
      </trkpt>
      <trkpt lat="49.19554" lon="2.06149">
        <ele>133.763745</ele>
        <time>2025-06-19T12:27:12.722Z</time>
      </trkpt>
      <trkpt lat="49.19563" lon="2.06166">
        <ele>133.6094</ele>
        <time>2025-06-19T12:27:14.724Z</time>
      </trkpt>
      <trkpt lat="49.19573" lon="2.06184">
        <ele>133.446862</ele>
        <time>2025-06-19T12:27:16.718Z</time>
      </trkpt>
      <trkpt lat="49.19585" lon="2.06201">
        <ele>133.280291</ele>
        <time>2025-06-19T12:27:18.724Z</time>
      </trkpt>
      <trkpt lat="49.19596" lon="2.06219">
        <ele>133.107164</ele>
        <time>2025-06-19T12:27:20.716Z</time>
      </trkpt>
      <trkpt lat="49.19608" lon="2.06238">
        <ele>132.931063</ele>
        <time>2025-06-19T12:27:22.719Z</time>
      </trkpt>
      <trkpt lat="49.1962" lon="2.06256">
        <ele>132.7497</ele>
        <time>2025-06-19T12:27:24.720Z</time>
      </trkpt>
      <trkpt lat="49.19633" lon="2.06268">
        <ele>132.586794</ele>
        <time>2025-06-19T12:27:26.726Z</time>
      </trkpt>
      <trkpt lat="49.19647" lon="2.06272">
        <ele>132.508319</ele>
        <time>2025-06-19T12:27:28.713Z</time>
      </trkpt>
      <trkpt lat="49.1966" lon="2.06266">
        <ele>133.016726</ele>
        <time>2025-06-19T12:27:30.715Z</time>
      </trkpt>
      <trkpt lat="49.19672" lon="2.06257">
        <ele>133.488589</ele>
        <time>2025-06-19T12:27:32.723Z</time>
      </trkpt>
      <trkpt lat="49.19679" lon="2.06245">
        <ele>133.896776</ele>
        <time>2025-06-19T12:27:34.727Z</time>
      </trkpt>
      <trkpt lat="49.19687" lon="2.06233">
        <ele>134.294426</ele>
        <time>2025-06-19T12:27:36.715Z</time>
      </trkpt>
      <trkpt lat="49.19694" lon="2.06222">
        <ele>134.679089</ele>
        <time>2025-06-19T12:27:38.715Z</time>
      </trkpt>
      <trkpt lat="49.19702" lon="2.06211">
        <ele>135.056505</ele>
        <time>2025-06-19T12:27:40.716Z</time>
      </trkpt>
      <trkpt lat="49.19709" lon="2.06201">
        <ele>135.421897</ele>
        <time>2025-06-19T12:27:42.730Z</time>
      </trkpt>
      <trkpt lat="49.19716" lon="2.06192">
        <ele>135.76705</ele>
        <time>2025-06-19T12:27:44.729Z</time>
      </trkpt>
      <trkpt lat="49.19724" lon="2.06176">
        <ele>136.26464</ele>
        <time>2025-06-19T12:27:47.719Z</time>
      </trkpt>
      <trkpt lat="49.19731" lon="2.0616">
        <ele>136.724592</ele>
        <time>2025-06-19T12:27:50.715Z</time>
      </trkpt>
      <trkpt lat="49.19734" lon="2.06141">
        <ele>137.178568</ele>
        <time>2025-06-19T12:27:53.725Z</time>
      </trkpt>
      <trkpt lat="49.19738" lon="2.06124">
        <ele>137.615703</ele>
        <time>2025-06-19T12:27:56.730Z</time>
      </trkpt>
      <trkpt lat="49.19741" lon="2.06107">
        <ele>138.043916</ele>
        <time>2025-06-19T12:27:59.723Z</time>
      </trkpt>
      <trkpt lat="49.19743" lon="2.06089">
        <ele>138.492835</ele>
        <time>2025-06-19T12:28:02.726Z</time>
      </trkpt>
      <trkpt lat="49.19746" lon="2.0607">
        <ele>138.966428</ele>
        <time>2025-06-19T12:28:05.726Z</time>
      </trkpt>
      <trkpt lat="49.19749" lon="2.06054">
        <ele>139.549429</ele>
        <time>2025-06-19T12:28:08.712Z</time>
      </trkpt>
      <trkpt lat="49.19752" lon="2.06038">
        <ele>140.245251</ele>
        <time>2025-06-19T12:28:11.724Z</time>
      </trkpt>
      <trkpt lat="49.19755" lon="2.06023">
        <ele>140.877004</ele>
        <time>2025-06-19T12:28:14.718Z</time>
      </trkpt>
      <trkpt lat="49.19756" lon="2.06008">
        <ele>141.531285</ele>
        <time>2025-06-19T12:28:17.724Z</time>
      </trkpt>
      <trkpt lat="49.1976" lon="2.05994">
        <ele>142.176436</ele>
        <time>2025-06-19T12:28:20.712Z</time>
      </trkpt>
      <trkpt lat="49.19765" lon="2.05981">
        <ele>142.766931</ele>
        <time>2025-06-19T12:28:23.712Z</time>
      </trkpt>
      <trkpt lat="49.19768" lon="2.05967">
        <ele>143.413018</ele>
        <time>2025-06-19T12:28:26.715Z</time>
      </trkpt>
      <trkpt lat="49.19769" lon="2.05952">
        <ele>144.03653</ele>
        <time>2025-06-19T12:28:29.711Z</time>
      </trkpt>
      <trkpt lat="49.19772" lon="2.05938">
        <ele>144.654802</ele>
        <time>2025-06-19T12:28:32.715Z</time>
      </trkpt>
      <trkpt lat="49.19774" lon="2.05922">
        <ele>145.341938</ele>
        <time>2025-06-19T12:28:35.733Z</time>
      </trkpt>
      <trkpt lat="49.19776" lon="2.05904">
        <ele>146.086775</ele>
        <time>2025-06-19T12:28:39.709Z</time>
      </trkpt>
      <trkpt lat="49.1978" lon="2.0589">
        <ele>146.711759</ele>
        <time>2025-06-19T12:28:42.721Z</time>
      </trkpt>
      <trkpt lat="49.19782" lon="2.05875">
        <ele>147.348817</ele>
        <time>2025-06-19T12:28:45.712Z</time>
      </trkpt>
      <trkpt lat="49.19784" lon="2.05859">
        <ele>148.029252</ele>
        <time>2025-06-19T12:28:48.717Z</time>
      </trkpt>
      <trkpt lat="49.19788" lon="2.05843">
        <ele>148.735737</ele>
        <time>2025-06-19T12:28:51.728Z</time>
      </trkpt>
      <trkpt lat="49.19791" lon="2.05827">
        <ele>149.433776</ele>
        <time>2025-06-19T12:28:54.716Z</time>
      </trkpt>
      <trkpt lat="49.19794" lon="2.05812">
        <ele>150.097994</ele>
        <time>2025-06-19T12:28:57.723Z</time>
      </trkpt>
      <trkpt lat="49.19798" lon="2.05797">
        <ele>150.57559</ele>
        <time>2025-06-19T12:29:00.714Z</time>
      </trkpt>
      <trkpt lat="49.19802" lon="2.05782">
        <ele>150.417577</ele>
        <time>2025-06-19T12:29:03.724Z</time>
      </trkpt>
      <trkpt lat="49.19805" lon="2.05766">
        <ele>150.266476</ele>
        <time>2025-06-19T12:29:06.713Z</time>
      </trkpt>
      <trkpt lat="49.19808" lon="2.05751">
        <ele>150.116285</ele>
        <time>2025-06-19T12:29:09.722Z</time>
      </trkpt>
      <trkpt lat="49.19812" lon="2.05734">
        <ele>149.945881</ele>
        <time>2025-06-19T12:29:12.720Z</time>
      </trkpt>
      <trkpt lat="49.19815" lon="2.05716">
        <ele>149.76407</ele>
        <time>2025-06-19T12:29:15.728Z</time>
      </trkpt>
      <trkpt lat="49.19816" lon="2.05691">
        <ele>149.533312</ele>
        <time>2025-06-19T12:29:18.704Z</time>
      </trkpt>
      <trkpt lat="49.19813" lon="2.05676">
        <ele>149.381679</ele>
        <time>2025-06-19T12:29:21.744Z</time>
      </trkpt>
      <trkpt lat="49.19813" lon="2.05662">
        <ele>149.247326</ele>
        <time>2025-06-19T12:29:23.731Z</time>
      </trkpt>
      <trkpt lat="49.19814" lon="2.05647">
        <ele>149.109168</ele>
        <time>2025-06-19T12:29:25.728Z</time>
      </trkpt>
      <trkpt lat="49.19816" lon="2.05628">
        <ele>148.928828</ele>
        <time>2025-06-19T12:29:28.715Z</time>
      </trkpt>
      <trkpt lat="49.19824" lon="2.0562">
        <ele>148.780762</ele>
        <time>2025-06-19T12:29:30.716Z</time>
      </trkpt>
      <trkpt lat="49.19834" lon="2.05615">
        <ele>148.638558</ele>
        <time>2025-06-19T12:29:32.718Z</time>
      </trkpt>
      <trkpt lat="49.19845" lon="2.0561">
        <ele>148.462867</ele>
        <time>2025-06-19T12:29:34.708Z</time>
      </trkpt>
      <trkpt lat="49.19859" lon="2.05603">
        <ele>148.259182</ele>
        <time>2025-06-19T12:29:36.713Z</time>
      </trkpt>
      <trkpt lat="49.1987" lon="2.05596">
        <ele>148.082115</ele>
        <time>2025-06-19T12:29:38.717Z</time>
      </trkpt>
      <trkpt lat="49.19883" lon="2.0559">
        <ele>147.910609</ele>
        <time>2025-06-19T12:29:40.712Z</time>
      </trkpt>
      <trkpt lat="49.19896" lon="2.05581">
        <ele>147.761205</ele>
        <time>2025-06-19T12:29:42.713Z</time>
      </trkpt>
      <trkpt lat="49.19911" lon="2.05571">
        <ele>147.582955</ele>
        <time>2025-06-19T12:29:44.706Z</time>
      </trkpt>
      <trkpt lat="49.19924" lon="2.05561">
        <ele>147.419143</ele>
        <time>2025-06-19T12:29:46.720Z</time>
      </trkpt>
      <trkpt lat="49.19938" lon="2.05555">
        <ele>147.267156</ele>
        <time>2025-06-19T12:29:48.716Z</time>
      </trkpt>
      <trkpt lat="49.19951" lon="2.05546">
        <ele>147.107454</ele>
        <time>2025-06-19T12:29:50.711Z</time>
      </trkpt>
      <trkpt lat="49.19965" lon="2.05539">
        <ele>146.952959</ele>
        <time>2025-06-19T12:29:52.723Z</time>
      </trkpt>
      <trkpt lat="49.19978" lon="2.05535">
        <ele>146.801871</ele>
        <time>2025-06-19T12:29:54.725Z</time>
      </trkpt>
      <trkpt lat="49.1999" lon="2.05526">
        <ele>146.654899</ele>
        <time>2025-06-19T12:29:56.717Z</time>
      </trkpt>
      <trkpt lat="49.20003" lon="2.05517">
        <ele>146.50692</ele>
        <time>2025-06-19T12:29:58.711Z</time>
      </trkpt>
      <trkpt lat="49.20014" lon="2.05515">
        <ele>146.379864</ele>
        <time>2025-06-19T12:30:00.705Z</time>
      </trkpt>
      <trkpt lat="49.20025" lon="2.0551">
        <ele>146.262789</ele>
        <time>2025-06-19T12:30:02.723Z</time>
      </trkpt>
      <trkpt lat="49.20035" lon="2.05507">
        <ele>146.151418</ele>
        <time>2025-06-19T12:30:04.712Z</time>
      </trkpt>
      <trkpt lat="49.20044" lon="2.05504">
        <ele>146.046363</ele>
        <time>2025-06-19T12:30:06.719Z</time>
      </trkpt>
      <trkpt lat="49.20055" lon="2.055">
        <ele>146.001494</ele>
        <time>2025-06-19T12:30:08.714Z</time>
      </trkpt>
      <trkpt lat="49.20066" lon="2.05495">
        <ele>145.954871</ele>
        <time>2025-06-19T12:30:10.714Z</time>
      </trkpt>
      <trkpt lat="49.20076" lon="2.0549">
        <ele>145.911613</ele>
        <time>2025-06-19T12:30:12.715Z</time>
      </trkpt>
      <trkpt lat="49.20085" lon="2.05486">
        <ele>145.871112</ele>
        <time>2025-06-19T12:30:14.713Z</time>
      </trkpt>
      <trkpt lat="49.20094" lon="2.0548">
        <ele>145.830675</ele>
        <time>2025-06-19T12:30:16.740Z</time>
      </trkpt>
      <trkpt lat="49.20104" lon="2.05473">
        <ele>145.787149</ele>
        <time>2025-06-19T12:30:18.713Z</time>
      </trkpt>
      <trkpt lat="49.20113" lon="2.05465">
        <ele>145.743463</ele>
        <time>2025-06-19T12:30:20.725Z</time>
      </trkpt>
      <trkpt lat="49.2012" lon="2.05454">
        <ele>145.702593</ele>
        <time>2025-06-19T12:30:22.715Z</time>
      </trkpt>
      <trkpt lat="49.20127" lon="2.05444">
        <ele>145.663219</ele>
        <time>2025-06-19T12:30:24.703Z</time>
      </trkpt>
      <trkpt lat="49.20133" lon="2.05432">
        <ele>145.624061</ele>
        <time>2025-06-19T12:30:26.705Z</time>
      </trkpt>
      <trkpt lat="49.20139" lon="2.05421">
        <ele>145.584699</ele>
        <time>2025-06-19T12:30:28.711Z</time>
      </trkpt>
      <trkpt lat="49.20145" lon="2.05408">
        <ele>145.542492</ele>
        <time>2025-06-19T12:30:30.714Z</time>
      </trkpt>
      <trkpt lat="49.20151" lon="2.05397">
        <ele>145.502796</ele>
        <time>2025-06-19T12:30:32.718Z</time>
      </trkpt>
      <trkpt lat="49.20158" lon="2.05385">
        <ele>145.461518</ele>
        <time>2025-06-19T12:30:34.714Z</time>
      </trkpt>
      <trkpt lat="49.20164" lon="2.05373">
        <ele>145.41982</ele>
        <time>2025-06-19T12:30:36.717Z</time>
      </trkpt>
      <trkpt lat="49.20172" lon="2.05362">
        <ele>145.374992</ele>
        <time>2025-06-19T12:30:38.715Z</time>
      </trkpt>
      <trkpt lat="49.20182" lon="2.05353">
        <ele>145.329978</ele>
        <time>2025-06-19T12:30:40.712Z</time>
      </trkpt>
      <trkpt lat="49.20191" lon="2.05345">
        <ele>145.334151</ele>
        <time>2025-06-19T12:30:42.709Z</time>
      </trkpt>
      <trkpt lat="49.202" lon="2.05338">
        <ele>145.377147</ele>
        <time>2025-06-19T12:30:44.713Z</time>
      </trkpt>
      <trkpt lat="49.20209" lon="2.05331">
        <ele>145.420206</ele>
        <time>2025-06-19T12:30:46.712Z</time>
      </trkpt>
      <trkpt lat="49.20218" lon="2.05331">
        <ele>145.458782</ele>
        <time>2025-06-19T12:30:48.712Z</time>
      </trkpt>
      <trkpt lat="49.20226" lon="2.0534">
        <ele>145.498972</ele>
        <time>2025-06-19T12:30:50.716Z</time>
      </trkpt>
      <trkpt lat="49.20233" lon="2.05351">
        <ele>145.542263</ele>
        <time>2025-06-19T12:30:52.717Z</time>
      </trkpt>
      <trkpt lat="49.20242" lon="2.05357">
        <ele>145.58567</ele>
        <time>2025-06-19T12:30:54.724Z</time>
      </trkpt>
      <trkpt lat="49.20252" lon="2.05356">
        <ele>145.628098</ele>
        <time>2025-06-19T12:30:56.715Z</time>
      </trkpt>
      <trkpt lat="49.20263" lon="2.05353">
        <ele>145.672437</ele>
        <time>2025-06-19T12:30:58.700Z</time>
      </trkpt>
      <trkpt lat="49.20273" lon="2.05351">
        <ele>145.716663</ele>
        <time>2025-06-19T12:31:00.717Z</time>
      </trkpt>
      <trkpt lat="49.20283" lon="2.05347">
        <ele>145.760354</ele>
        <time>2025-06-19T12:31:02.711Z</time>
      </trkpt>
      <trkpt lat="49.20293" lon="2.05345">
        <ele>145.800614</ele>
        <time>2025-06-19T12:31:04.711Z</time>
      </trkpt>
      <trkpt lat="49.20302" lon="2.05342">
        <ele>145.84069</ele>
        <time>2025-06-19T12:31:06.712Z</time>
      </trkpt>
      <trkpt lat="49.20316" lon="2.05339">
        <ele>145.900287</ele>
        <time>2025-06-19T12:31:09.708Z</time>
      </trkpt>
      <trkpt lat="49.20326" lon="2.05334">
        <ele>145.944338</ele>
        <time>2025-06-19T12:31:12.715Z</time>
      </trkpt>
      <trkpt lat="49.20332" lon="2.05319">
        <ele>145.993664</ele>
        <time>2025-06-19T12:31:16.719Z</time>
      </trkpt>
      <trkpt lat="49.2033" lon="2.05302">
        <ele>146.041997</ele>
        <time>2025-06-19T12:31:19.711Z</time>
      </trkpt>
      <trkpt lat="49.20331" lon="2.05283">
        <ele>146.212337</ele>
        <time>2025-06-19T12:31:22.714Z</time>
      </trkpt>
      <trkpt lat="49.20336" lon="2.05267">
        <ele>146.52614</ele>
        <time>2025-06-19T12:31:25.719Z</time>
      </trkpt>
      <trkpt lat="49.20345" lon="2.05256">
        <ele>146.854445</ele>
        <time>2025-06-19T12:31:28.707Z</time>
      </trkpt>
      <trkpt lat="49.20354" lon="2.05245">
        <ele>147.177399</ele>
        <time>2025-06-19T12:31:31.706Z</time>
      </trkpt>
      <trkpt lat="49.20363" lon="2.05233">
        <ele>147.483916</ele>
        <time>2025-06-19T12:31:34.709Z</time>
      </trkpt>
      <trkpt lat="49.20371" lon="2.05222">
        <ele>147.799556</ele>
        <time>2025-06-19T12:31:37.727Z</time>
      </trkpt>
      <trkpt lat="49.20381" lon="2.05212">
        <ele>148.110572</ele>
        <time>2025-06-19T12:31:40.717Z</time>
      </trkpt>
      <trkpt lat="49.20389" lon="2.05201">
        <ele>148.414002</ele>
        <time>2025-06-19T12:31:43.727Z</time>
      </trkpt>
      <trkpt lat="49.20398" lon="2.05191">
        <ele>148.705352</ele>
        <time>2025-06-19T12:31:46.713Z</time>
      </trkpt>
      <trkpt lat="49.20405" lon="2.05181">
        <ele>148.979524</ele>
        <time>2025-06-19T12:31:49.717Z</time>
      </trkpt>
      <trkpt lat="49.20415" lon="2.05172">
        <ele>149.285378</ele>
        <time>2025-06-19T12:31:53.722Z</time>
      </trkpt>
      <trkpt lat="49.20425" lon="2.05163">
        <ele>149.599231</ele>
        <time>2025-06-19T12:31:57.710Z</time>
      </trkpt>
      <trkpt lat="49.20434" lon="2.05159">
        <ele>149.866828</ele>
        <time>2025-06-19T12:32:01.715Z</time>
      </trkpt>
      <trkpt lat="49.20445" lon="2.05155">
        <ele>150.185874</ele>
        <time>2025-06-19T12:32:06.715Z</time>
      </trkpt>
      <trkpt lat="49.20455" lon="2.05153">
        <ele>150.440805</ele>
        <time>2025-06-19T12:32:10.719Z</time>
      </trkpt>
      <trkpt lat="49.20464" lon="2.0515">
        <ele>150.705672</ele>
        <time>2025-06-19T12:32:14.720Z</time>
      </trkpt>
      <trkpt lat="49.20474" lon="2.05145">
        <ele>150.985892</ele>
        <time>2025-06-19T12:32:18.705Z</time>
      </trkpt>
      <trkpt lat="49.20482" lon="2.05138">
        <ele>150.665995</ele>
        <time>2025-06-19T12:32:22.707Z</time>
      </trkpt>
      <trkpt lat="49.20489" lon="2.05123">
        <ele>150.278414</ele>
        <time>2025-06-19T12:32:25.714Z</time>
      </trkpt>
      <trkpt lat="49.20497" lon="2.0511">
        <ele>149.867178</ele>
        <time>2025-06-19T12:32:28.714Z</time>
      </trkpt>
      <trkpt lat="49.20502" lon="2.05098">
        <ele>149.539437</ele>
        <time>2025-06-19T12:32:31.709Z</time>
      </trkpt>
      <trkpt lat="49.20512" lon="2.05092">
        <ele>149.173206</ele>
        <time>2025-06-19T12:32:35.714Z</time>
      </trkpt>
      <trkpt lat="49.20523" lon="2.05104">
        <ele>148.692343</ele>
        <time>2025-06-19T12:32:37.718Z</time>
      </trkpt>
      <trkpt lat="49.20535" lon="2.05114">
        <ele>148.241943</ele>
        <time>2025-06-19T12:32:39.713Z</time>
      </trkpt>
      <trkpt lat="49.20547" lon="2.05122">
        <ele>147.775542</ele>
        <time>2025-06-19T12:32:41.726Z</time>
      </trkpt>
      <trkpt lat="49.2056" lon="2.05131">
        <ele>147.30158</ele>
        <time>2025-06-19T12:32:43.718Z</time>
      </trkpt>
      <trkpt lat="49.20573" lon="2.05141">
        <ele>146.801052</ele>
        <time>2025-06-19T12:32:45.710Z</time>
      </trkpt>
      <trkpt lat="49.20584" lon="2.0515">
        <ele>146.374005</ele>
        <time>2025-06-19T12:32:47.728Z</time>
      </trkpt>
      <trkpt lat="49.20594" lon="2.05157">
        <ele>146.009802</ele>
        <time>2025-06-19T12:32:49.714Z</time>
      </trkpt>
      <trkpt lat="49.20602" lon="2.05162">
        <ele>145.6869</ele>
        <time>2025-06-19T12:32:51.720Z</time>
      </trkpt>
      <trkpt lat="49.20612" lon="2.05164">
        <ele>145.36048</ele>
        <time>2025-06-19T12:33:02.711Z</time>
      </trkpt>
      <trkpt lat="49.2062" lon="2.05173">
        <ele>145.009096</ele>
        <time>2025-06-19T13:05:21.707Z</time>
      </trkpt>
      <trkpt lat="49.20631" lon="2.0518">
        <ele>144.605131</ele>
        <time>2025-06-19T13:05:25.715Z</time>
      </trkpt>
      <trkpt lat="49.20643" lon="2.0519">
        <ele>144.138047</ele>
        <time>2025-06-19T13:05:28.710Z</time>
      </trkpt>
      <trkpt lat="49.20652" lon="2.05196">
        <ele>143.796923</ele>
        <time>2025-06-19T13:05:30.712Z</time>
      </trkpt>
      <trkpt lat="49.20662" lon="2.05203">
        <ele>143.419407</ele>
        <time>2025-06-19T13:05:32.710Z</time>
      </trkpt>
      <trkpt lat="49.20672" lon="2.05212">
        <ele>143.005069</ele>
        <time>2025-06-19T13:05:34.721Z</time>
      </trkpt>
      <trkpt lat="49.20681" lon="2.05228">
        <ele>142.556865</ele>
        <time>2025-06-19T13:05:36.698Z</time>
      </trkpt>
      <trkpt lat="49.20688" lon="2.05241">
        <ele>142.167359</ele>
        <time>2025-06-19T13:05:38.702Z</time>
      </trkpt>
      <trkpt lat="49.20695" lon="2.05253">
        <ele>141.797851</ele>
        <time>2025-06-19T13:05:40.704Z</time>
      </trkpt>
      <trkpt lat="49.20703" lon="2.05266">
        <ele>141.41346</ele>
        <time>2025-06-19T13:05:42.718Z</time>
      </trkpt>
      <trkpt lat="49.2071" lon="2.05279">
        <ele>141.0478</ele>
        <time>2025-06-19T13:05:44.702Z</time>
      </trkpt>
      <trkpt lat="49.20717" lon="2.05291">
        <ele>140.680412</ele>
        <time>2025-06-19T13:05:46.704Z</time>
      </trkpt>
      <trkpt lat="49.20723" lon="2.05306">
        <ele>140.288804</ele>
        <time>2025-06-19T13:05:48.712Z</time>
      </trkpt>
      <trkpt lat="49.2073" lon="2.0532">
        <ele>139.894644</ele>
        <time>2025-06-19T13:05:50.718Z</time>
      </trkpt>
      <trkpt lat="49.20736" lon="2.05334">
        <ele>139.512512</ele>
        <time>2025-06-19T13:05:52.693Z</time>
      </trkpt>
      <trkpt lat="49.20743" lon="2.05348">
        <ele>139.13204</ele>
        <time>2025-06-19T13:05:54.719Z</time>
      </trkpt>
      <trkpt lat="49.20748" lon="2.05363">
        <ele>138.744925</ele>
        <time>2025-06-19T13:05:56.707Z</time>
      </trkpt>
      <trkpt lat="49.20752" lon="2.05379">
        <ele>138.205653</ele>
        <time>2025-06-19T13:05:58.708Z</time>
      </trkpt>
      <trkpt lat="49.20754" lon="2.05396">
        <ele>137.629022</ele>
        <time>2025-06-19T13:06:00.729Z</time>
      </trkpt>
      <trkpt lat="49.20756" lon="2.05412">
        <ele>137.072536</ele>
        <time>2025-06-19T13:06:02.717Z</time>
      </trkpt>
      <trkpt lat="49.20758" lon="2.05429">
        <ele>136.492597</ele>
        <time>2025-06-19T13:06:04.703Z</time>
      </trkpt>
      <trkpt lat="49.20759" lon="2.05447">
        <ele>135.88423</ele>
        <time>2025-06-19T13:06:06.698Z</time>
      </trkpt>
      <trkpt lat="49.20762" lon="2.05465">
        <ele>135.265499</ele>
        <time>2025-06-19T13:06:08.706Z</time>
      </trkpt>
      <trkpt lat="49.20765" lon="2.05482">
        <ele>134.652775</ele>
        <time>2025-06-19T13:06:10.718Z</time>
      </trkpt>
      <trkpt lat="49.20769" lon="2.05498">
        <ele>134.068992</ele>
        <time>2025-06-19T13:06:12.705Z</time>
      </trkpt>
      <trkpt lat="49.20773" lon="2.05515">
        <ele>133.451971</ele>
        <time>2025-06-19T13:06:14.703Z</time>
      </trkpt>
      <trkpt lat="49.20778" lon="2.05533">
        <ele>132.799985</ele>
        <time>2025-06-19T13:06:16.703Z</time>
      </trkpt>
      <trkpt lat="49.20783" lon="2.0555">
        <ele>132.171869</ele>
        <time>2025-06-19T13:06:18.736Z</time>
      </trkpt>
      <trkpt lat="49.20788" lon="2.05566">
        <ele>131.582094</ele>
        <time>2025-06-19T13:06:20.705Z</time>
      </trkpt>
      <trkpt lat="49.20792" lon="2.05582">
        <ele>130.996447</ele>
        <time>2025-06-19T13:06:22.710Z</time>
      </trkpt>
      <trkpt lat="49.20796" lon="2.05596">
        <ele>130.454349</ele>
        <time>2025-06-19T13:06:24.712Z</time>
      </trkpt>
      <trkpt lat="49.208" lon="2.0561">
        <ele>129.954682</ele>
        <time>2025-06-19T13:06:26.713Z</time>
      </trkpt>
      <trkpt lat="49.20806" lon="2.05625">
        <ele>129.33779</ele>
        <time>2025-06-19T13:06:29.709Z</time>
      </trkpt>
      <trkpt lat="49.20814" lon="2.05635">
        <ele>129.339551</ele>
        <time>2025-06-19T13:06:32.705Z</time>
      </trkpt>
      <trkpt lat="49.20825" lon="2.05624">
        <ele>129.374163</ele>
        <time>2025-06-19T13:06:35.708Z</time>
      </trkpt>
      <trkpt lat="49.20831" lon="2.05611">
        <ele>129.403849</ele>
        <time>2025-06-19T13:06:37.713Z</time>
      </trkpt>
      <trkpt lat="49.20837" lon="2.05597">
        <ele>129.436102</ele>
        <time>2025-06-19T13:06:39.714Z</time>
      </trkpt>
      <trkpt lat="49.20844" lon="2.05581">
        <ele>129.470036</ele>
        <time>2025-06-19T13:06:41.716Z</time>
      </trkpt>
      <trkpt lat="49.20851" lon="2.05566">
        <ele>129.50351</ele>
        <time>2025-06-19T13:06:43.702Z</time>
      </trkpt>
      <trkpt lat="49.20857" lon="2.05551">
        <ele>129.536368</ele>
        <time>2025-06-19T13:06:45.703Z</time>
      </trkpt>
      <trkpt lat="49.20863" lon="2.05537">
        <ele>129.567385</ele>
        <time>2025-06-19T13:06:47.708Z</time>
      </trkpt>
      <trkpt lat="49.20869" lon="2.05523">
        <ele>129.596713</ele>
        <time>2025-06-19T13:06:49.700Z</time>
      </trkpt>
      <trkpt lat="49.20874" lon="2.0551">
        <ele>129.624967</ele>
        <time>2025-06-19T13:06:51.717Z</time>
      </trkpt>
      <trkpt lat="49.20881" lon="2.05498">
        <ele>129.65384</ele>
        <time>2025-06-19T13:06:53.697Z</time>
      </trkpt>
      <trkpt lat="49.20889" lon="2.05485">
        <ele>129.687404</ele>
        <time>2025-06-19T13:06:56.707Z</time>
      </trkpt>
      <trkpt lat="49.20898" lon="2.05474">
        <ele>129.719062</ele>
        <time>2025-06-19T13:06:59.711Z</time>
      </trkpt>
      <trkpt lat="49.2091" lon="2.05468">
        <ele>129.756007</ele>
        <time>2025-06-19T13:07:02.703Z</time>
      </trkpt>
      <trkpt lat="49.2092" lon="2.05467">
        <ele>129.783593</ele>
        <time>2025-06-19T13:07:04.709Z</time>
      </trkpt>
      <trkpt lat="49.20931" lon="2.05465">
        <ele>129.814352</ele>
        <time>2025-06-19T13:07:06.704Z</time>
      </trkpt>
      <trkpt lat="49.20944" lon="2.05458">
        <ele>129.833926</ele>
        <time>2025-06-19T13:07:09.701Z</time>
      </trkpt>
      <trkpt lat="49.20952" lon="2.05452">
        <ele>129.846919</ele>
        <time>2025-06-19T13:07:11.708Z</time>
      </trkpt>
      <trkpt lat="49.20962" lon="2.05446">
        <ele>129.860655</ele>
        <time>2025-06-19T13:07:13.710Z</time>
      </trkpt>
      <trkpt lat="49.2097" lon="2.0544">
        <ele>129.873195</ele>
        <time>2025-06-19T13:07:15.708Z</time>
      </trkpt>
      <trkpt lat="49.20979" lon="2.05435">
        <ele>129.885886</ele>
        <time>2025-06-19T13:07:17.707Z</time>
      </trkpt>
      <trkpt lat="49.2099" lon="2.05427">
        <ele>129.902312</ele>
        <time>2025-06-19T13:07:20.700Z</time>
      </trkpt>
      <trkpt lat="49.20998" lon="2.05421">
        <ele>129.914741</ele>
        <time>2025-06-19T13:07:22.699Z</time>
      </trkpt>
      <trkpt lat="49.21007" lon="2.05416">
        <ele>129.927655</ele>
        <time>2025-06-19T13:07:24.755Z</time>
      </trkpt>
      <trkpt lat="49.21016" lon="2.05412">
        <ele>129.940242</ele>
        <time>2025-06-19T13:07:26.706Z</time>
      </trkpt>
      <trkpt lat="49.21029" lon="2.05406">
        <ele>129.957553</ele>
        <time>2025-06-19T13:07:29.704Z</time>
      </trkpt>
      <trkpt lat="49.21041" lon="2.05402">
        <ele>129.974543</ele>
        <time>2025-06-19T13:07:32.710Z</time>
      </trkpt>
      <trkpt lat="49.2105" lon="2.05404">
        <ele>129.987321</ele>
        <time>2025-06-19T13:07:34.700Z</time>
      </trkpt>
      <trkpt lat="49.2106" lon="2.05409">
        <ele>130.00053</ele>
        <time>2025-06-19T13:07:36.702Z</time>
      </trkpt>
      <trkpt lat="49.21069" lon="2.05417">
        <ele>130.01484</ele>
        <time>2025-06-19T13:07:38.706Z</time>
      </trkpt>
      <trkpt lat="49.21077" lon="2.05427">
        <ele>130.028765</ele>
        <time>2025-06-19T13:07:40.724Z</time>
      </trkpt>
      <trkpt lat="49.21084" lon="2.05437">
        <ele>130.042104</ele>
        <time>2025-06-19T13:07:42.697Z</time>
      </trkpt>
      <trkpt lat="49.21091" lon="2.05446">
        <ele>130.054388</ele>
        <time>2025-06-19T13:07:44.709Z</time>
      </trkpt>
      <trkpt lat="49.21098" lon="2.05455">
        <ele>130.124311</ele>
        <time>2025-06-19T13:07:46.710Z</time>
      </trkpt>
      <trkpt lat="49.21105" lon="2.05465">
        <ele>130.238521</ele>
        <time>2025-06-19T13:07:48.709Z</time>
      </trkpt>
      <trkpt lat="49.21112" lon="2.05475">
        <ele>130.358454</ele>
        <time>2025-06-19T13:07:50.698Z</time>
      </trkpt>
      <trkpt lat="49.21118" lon="2.05487">
        <ele>130.47596</ele>
        <time>2025-06-19T13:07:52.696Z</time>
      </trkpt>
      <trkpt lat="49.21124" lon="2.05498">
        <ele>130.589891</ele>
        <time>2025-06-19T13:07:54.703Z</time>
      </trkpt>
      <trkpt lat="49.2113" lon="2.0551">
        <ele>130.708369</ele>
        <time>2025-06-19T13:07:56.704Z</time>
      </trkpt>
      <trkpt lat="49.21135" lon="2.05523">
        <ele>130.83152</ele>
        <time>2025-06-19T13:07:58.714Z</time>
      </trkpt>
      <trkpt lat="49.21141" lon="2.05536">
        <ele>130.955987</ele>
        <time>2025-06-19T13:08:00.711Z</time>
      </trkpt>
      <trkpt lat="49.21146" lon="2.0555">
        <ele>131.082457</ele>
        <time>2025-06-19T13:08:02.711Z</time>
      </trkpt>
      <trkpt lat="49.21151" lon="2.05562">
        <ele>131.198281</ele>
        <time>2025-06-19T13:08:04.707Z</time>
      </trkpt>
      <trkpt lat="49.21157" lon="2.05573">
        <ele>131.309154</ele>
        <time>2025-06-19T13:08:06.698Z</time>
      </trkpt>
      <trkpt lat="49.21164" lon="2.05589">
        <ele>131.463574</ele>
        <time>2025-06-19T13:08:09.723Z</time>
      </trkpt>
      <trkpt lat="49.21169" lon="2.05601">
        <ele>131.573415</ele>
        <time>2025-06-19T13:08:11.702Z</time>
      </trkpt>
      <trkpt lat="49.21173" lon="2.05613">
        <ele>131.686095</ele>
        <time>2025-06-19T13:08:13.698Z</time>
      </trkpt>
      <trkpt lat="49.21179" lon="2.05624">
        <ele>131.800637</ele>
        <time>2025-06-19T13:08:15.713Z</time>
      </trkpt>
      <trkpt lat="49.21185" lon="2.05637">
        <ele>131.922467</ele>
        <time>2025-06-19T13:08:17.695Z</time>
      </trkpt>
      <trkpt lat="49.2119" lon="2.05651">
        <ele>132.045077</ele>
        <time>2025-06-19T13:08:19.701Z</time>
      </trkpt>
      <trkpt lat="49.21195" lon="2.05663">
        <ele>132.160975</ele>
        <time>2025-06-19T13:08:21.717Z</time>
      </trkpt>
      <trkpt lat="49.212" lon="2.05676">
        <ele>132.24764</ele>
        <time>2025-06-19T13:08:23.707Z</time>
      </trkpt>
      <trkpt lat="49.21206" lon="2.05694">
        <ele>132.241884</ele>
        <time>2025-06-19T13:08:26.711Z</time>
      </trkpt>
      <trkpt lat="49.21212" lon="2.05713">
        <ele>132.236039</ele>
        <time>2025-06-19T13:08:29.709Z</time>
      </trkpt>
      <trkpt lat="49.21219" lon="2.0573">
        <ele>132.23036</ele>
        <time>2025-06-19T13:08:32.715Z</time>
      </trkpt>
      <trkpt lat="49.21225" lon="2.05749">
        <ele>132.224476</ele>
        <time>2025-06-19T13:08:35.703Z</time>
      </trkpt>
      <trkpt lat="49.2123" lon="2.05761">
        <ele>132.220519</ele>
        <time>2025-06-19T13:08:37.713Z</time>
      </trkpt>
      <trkpt lat="49.21235" lon="2.05773">
        <ele>132.216538</ele>
        <time>2025-06-19T13:08:39.712Z</time>
      </trkpt>
      <trkpt lat="49.21241" lon="2.05791">
        <ele>132.210884</ele>
        <time>2025-06-19T13:08:42.713Z</time>
      </trkpt>
      <trkpt lat="49.21246" lon="2.05803">
        <ele>132.206829</ele>
        <time>2025-06-19T13:08:44.709Z</time>
      </trkpt>
      <trkpt lat="49.21253" lon="2.05821">
        <ele>132.20095</ele>
        <time>2025-06-19T13:08:47.710Z</time>
      </trkpt>
      <trkpt lat="49.21261" lon="2.05838">
        <ele>132.195136</ele>
        <time>2025-06-19T13:08:50.715Z</time>
      </trkpt>
      <trkpt lat="49.21267" lon="2.05849">
        <ele>132.191143</ele>
        <time>2025-06-19T13:08:52.731Z</time>
      </trkpt>
      <trkpt lat="49.21274" lon="2.05859">
        <ele>132.187148</ele>
        <time>2025-06-19T13:08:54.708Z</time>
      </trkpt>
      <trkpt lat="49.2128" lon="2.05869">
        <ele>132.183143</ele>
        <time>2025-06-19T13:08:56.779Z</time>
      </trkpt>
      <trkpt lat="49.21287" lon="2.05879">
        <ele>132.17905</ele>
        <time>2025-06-19T13:08:58.708Z</time>
      </trkpt>
      <trkpt lat="49.21298" lon="2.05892">
        <ele>132.17335</ele>
        <time>2025-06-19T13:09:01.714Z</time>
      </trkpt>
      <trkpt lat="49.21305" lon="2.05902">
        <ele>132.284646</ele>
        <time>2025-06-19T13:09:03.704Z</time>
      </trkpt>
      <trkpt lat="49.21312" lon="2.05911">
        <ele>132.477906</ele>
        <time>2025-06-19T13:09:05.713Z</time>
      </trkpt>
      <trkpt lat="49.21319" lon="2.05921">
        <ele>132.664557</ele>
        <time>2025-06-19T13:09:07.698Z</time>
      </trkpt>
      <trkpt lat="49.21327" lon="2.0593">
        <ele>132.853741</ele>
        <time>2025-06-19T13:09:09.707Z</time>
      </trkpt>
      <trkpt lat="49.21338" lon="2.05943">
        <ele>133.121431</ele>
        <time>2025-06-19T13:09:12.727Z</time>
      </trkpt>
      <trkpt lat="49.21345" lon="2.05952">
        <ele>133.302139</ele>
        <time>2025-06-19T13:09:14.729Z</time>
      </trkpt>
      <trkpt lat="49.21352" lon="2.05961">
        <ele>133.486023</ele>
        <time>2025-06-19T13:09:16.710Z</time>
      </trkpt>
      <trkpt lat="49.21358" lon="2.05971">
        <ele>133.668687</ele>
        <time>2025-06-19T13:09:18.712Z</time>
      </trkpt>
      <trkpt lat="49.21365" lon="2.05981">
        <ele>133.851873</ele>
        <time>2025-06-19T13:09:20.715Z</time>
      </trkpt>
      <trkpt lat="49.21371" lon="2.05992">
        <ele>134.033416</ele>
        <time>2025-06-19T13:09:22.710Z</time>
      </trkpt>
      <trkpt lat="49.21377" lon="2.06002">
        <ele>134.213334</ele>
        <time>2025-06-19T13:09:24.694Z</time>
      </trkpt>
      <trkpt lat="49.21385" lon="2.06019">
        <ele>134.477295</ele>
        <time>2025-06-19T13:09:27.714Z</time>
      </trkpt>
      <trkpt lat="49.21391" lon="2.0603">
        <ele>134.667858</ele>
        <time>2025-06-19T13:09:29.713Z</time>
      </trkpt>
      <trkpt lat="49.21396" lon="2.06041">
        <ele>134.849699</ele>
        <time>2025-06-19T13:09:31.706Z</time>
      </trkpt>
      <trkpt lat="49.21402" lon="2.06053">
        <ele>135.033251</ele>
        <time>2025-06-19T13:09:33.699Z</time>
      </trkpt>
      <trkpt lat="49.21408" lon="2.06063">
        <ele>135.217948</ele>
        <time>2025-06-19T13:09:35.714Z</time>
      </trkpt>
      <trkpt lat="49.21416" lon="2.06079">
        <ele>135.477307</ele>
        <time>2025-06-19T13:09:38.705Z</time>
      </trkpt>
      <trkpt lat="49.21424" lon="2.06095">
        <ele>135.724885</ele>
        <time>2025-06-19T13:09:41.708Z</time>
      </trkpt>
      <trkpt lat="49.2143" lon="2.06106">
        <ele>135.637685</ele>
        <time>2025-06-19T13:09:43.715Z</time>
      </trkpt>
      <trkpt lat="49.21437" lon="2.06117">
        <ele>135.549753</ele>
        <time>2025-06-19T13:09:45.715Z</time>
      </trkpt>
      <trkpt lat="49.21443" lon="2.06128">
        <ele>135.463714</ele>
        <time>2025-06-19T13:09:47.714Z</time>
      </trkpt>
      <trkpt lat="49.21449" lon="2.06139">
        <ele>135.379064</ele>
        <time>2025-06-19T13:09:49.708Z</time>
      </trkpt>
      <trkpt lat="49.21458" lon="2.06154">
        <ele>135.253699</ele>
        <time>2025-06-19T13:09:52.721Z</time>
      </trkpt>
      <trkpt lat="49.21465" lon="2.06164">
        <ele>135.167128</ele>
        <time>2025-06-19T13:09:54.698Z</time>
      </trkpt>
      <trkpt lat="49.21472" lon="2.06173">
        <ele>135.080114</ele>
        <time>2025-06-19T13:09:56.743Z</time>
      </trkpt>
      <trkpt lat="49.2148" lon="2.06181">
        <ele>134.993608</ele>
        <time>2025-06-19T13:09:58.697Z</time>
      </trkpt>
      <trkpt lat="49.21488" lon="2.06189">
        <ele>134.908194</ele>
        <time>2025-06-19T13:10:00.710Z</time>
      </trkpt>
      <trkpt lat="49.21496" lon="2.06196">
        <ele>134.823045</ele>
        <time>2025-06-19T13:10:02.708Z</time>
      </trkpt>
      <trkpt lat="49.21508" lon="2.06204">
        <ele>134.701421</ele>
        <time>2025-06-19T13:10:05.717Z</time>
      </trkpt>
      <trkpt lat="49.21517" lon="2.0621">
        <ele>134.617649</ele>
        <time>2025-06-19T13:10:07.718Z</time>
      </trkpt>
      <trkpt lat="49.21525" lon="2.06215">
        <ele>134.531298</ele>
        <time>2025-06-19T13:10:09.704Z</time>
      </trkpt>
      <trkpt lat="49.21538" lon="2.06223">
        <ele>134.408575</ele>
        <time>2025-06-19T13:10:12.707Z</time>
      </trkpt>
      <trkpt lat="49.2155" lon="2.06231">
        <ele>134.290308</ele>
        <time>2025-06-19T13:10:15.719Z</time>
      </trkpt>
      <trkpt lat="49.21562" lon="2.06239">
        <ele>134.163969</ele>
        <time>2025-06-19T13:10:18.727Z</time>
      </trkpt>
      <trkpt lat="49.21571" lon="2.06245">
        <ele>134.084087</ele>
        <time>2025-06-19T13:10:20.720Z</time>
      </trkpt>
      <trkpt lat="49.2158" lon="2.0625">
        <ele>134.142698</ele>
        <time>2025-06-19T13:10:22.707Z</time>
      </trkpt>
      <trkpt lat="49.21592" lon="2.06258">
        <ele>134.226056</ele>
        <time>2025-06-19T13:10:25.701Z</time>
      </trkpt>
      <trkpt lat="49.21605" lon="2.06266">
        <ele>134.309824</ele>
        <time>2025-06-19T13:10:28.708Z</time>
      </trkpt>
      <trkpt lat="49.21617" lon="2.06274">
        <ele>134.39091</ele>
        <time>2025-06-19T13:10:31.706Z</time>
      </trkpt>
      <trkpt lat="49.21626" lon="2.0628">
        <ele>134.451406</ele>
        <time>2025-06-19T13:10:33.707Z</time>
      </trkpt>
      <trkpt lat="49.21634" lon="2.06286">
        <ele>134.511206</ele>
        <time>2025-06-19T13:10:35.715Z</time>
      </trkpt>
      <trkpt lat="49.21643" lon="2.06291">
        <ele>134.570841</ele>
        <time>2025-06-19T13:10:37.720Z</time>
      </trkpt>
      <trkpt lat="49.21653" lon="2.06297">
        <ele>134.633392</ele>
        <time>2025-06-19T13:10:39.723Z</time>
      </trkpt>
      <trkpt lat="49.21661" lon="2.06303">
        <ele>134.690252</ele>
        <time>2025-06-19T13:10:41.711Z</time>
      </trkpt>
      <trkpt lat="49.21669" lon="2.0631">
        <ele>134.750417</ele>
        <time>2025-06-19T13:10:43.690Z</time>
      </trkpt>
      <trkpt lat="49.21678" lon="2.06318">
        <ele>134.813196</ele>
        <time>2025-06-19T13:10:45.708Z</time>
      </trkpt>
      <trkpt lat="49.21687" lon="2.06326">
        <ele>134.875723</ele>
        <time>2025-06-19T13:10:47.706Z</time>
      </trkpt>
      <trkpt lat="49.21695" lon="2.06333">
        <ele>134.9352</ele>
        <time>2025-06-19T13:10:49.711Z</time>
      </trkpt>
      <trkpt lat="49.21704" lon="2.06341">
        <ele>134.998793</ele>
        <time>2025-06-19T13:10:51.714Z</time>
      </trkpt>
      <trkpt lat="49.21712" lon="2.06349">
        <ele>135.056983</ele>
        <time>2025-06-19T13:10:53.716Z</time>
      </trkpt>
      <trkpt lat="49.2172" lon="2.06357">
        <ele>135.115614</ele>
        <time>2025-06-19T13:10:55.718Z</time>
      </trkpt>
      <trkpt lat="49.21728" lon="2.06365">
        <ele>135.174467</ele>
        <time>2025-06-19T13:10:57.700Z</time>
      </trkpt>
      <trkpt lat="49.21736" lon="2.06373">
        <ele>135.365293</ele>
        <time>2025-06-19T13:10:59.705Z</time>
      </trkpt>
      <trkpt lat="49.21744" lon="2.06381">
        <ele>135.639596</ele>
        <time>2025-06-19T13:11:01.696Z</time>
      </trkpt>
      <trkpt lat="49.21752" lon="2.0639">
        <ele>135.918529</ele>
        <time>2025-06-19T13:11:03.712Z</time>
      </trkpt>
      <trkpt lat="49.2176" lon="2.06397">
        <ele>136.18357</ele>
        <time>2025-06-19T13:11:05.715Z</time>
      </trkpt>
      <trkpt lat="49.21767" lon="2.06406">
        <ele>136.445431</ele>
        <time>2025-06-19T13:11:07.703Z</time>
      </trkpt>
      <trkpt lat="49.21775" lon="2.06414">
        <ele>136.714483</ele>
        <time>2025-06-19T13:11:09.717Z</time>
      </trkpt>
      <trkpt lat="49.21784" lon="2.06423">
        <ele>137.003552</ele>
        <time>2025-06-19T13:11:11.711Z</time>
      </trkpt>
      <trkpt lat="49.21792" lon="2.06432">
        <ele>137.295999</ele>
        <time>2025-06-19T13:11:13.695Z</time>
      </trkpt>
      <trkpt lat="49.218" lon="2.06441">
        <ele>137.578129</ele>
        <time>2025-06-19T13:11:15.702Z</time>
      </trkpt>
      <trkpt lat="49.21808" lon="2.06451">
        <ele>137.866904</ele>
        <time>2025-06-19T13:11:17.702Z</time>
      </trkpt>
      <trkpt lat="49.21816" lon="2.06459">
        <ele>138.143363</ele>
        <time>2025-06-19T13:11:19.703Z</time>
      </trkpt>
      <trkpt lat="49.21824" lon="2.06469">
        <ele>138.417528</ele>
        <time>2025-06-19T13:11:21.709Z</time>
      </trkpt>
      <trkpt lat="49.21832" lon="2.06478">
        <ele>138.707403</ele>
        <time>2025-06-19T13:11:23.716Z</time>
      </trkpt>
      <trkpt lat="49.2184" lon="2.06487">
        <ele>138.991647</ele>
        <time>2025-06-19T13:11:25.710Z</time>
      </trkpt>
      <trkpt lat="49.21848" lon="2.06497">
        <ele>139.279262</ele>
        <time>2025-06-19T13:11:27.709Z</time>
      </trkpt>
      <trkpt lat="49.21856" lon="2.06506">
        <ele>139.563525</ele>
        <time>2025-06-19T13:11:29.713Z</time>
      </trkpt>
      <trkpt lat="49.21864" lon="2.06515">
        <ele>139.83338</ele>
        <time>2025-06-19T13:11:31.700Z</time>
      </trkpt>
      <trkpt lat="49.21871" lon="2.06523">
        <ele>140.09516</ele>
        <time>2025-06-19T13:11:33.699Z</time>
      </trkpt>
      <trkpt lat="49.21878" lon="2.06532">
        <ele>140.255568</ele>
        <time>2025-06-19T13:11:35.698Z</time>
      </trkpt>
      <trkpt lat="49.21886" lon="2.0654">
        <ele>140.12613</ele>
        <time>2025-06-19T13:11:37.700Z</time>
      </trkpt>
      <trkpt lat="49.21894" lon="2.06547">
        <ele>139.998145</ele>
        <time>2025-06-19T13:11:39.707Z</time>
      </trkpt>
      <trkpt lat="49.21905" lon="2.06557">
        <ele>139.818986</ele>
        <time>2025-06-19T13:11:42.699Z</time>
      </trkpt>
      <trkpt lat="49.21916" lon="2.06566">
        <ele>139.63626</ele>
        <time>2025-06-19T13:11:45.720Z</time>
      </trkpt>
      <trkpt lat="49.21928" lon="2.06575">
        <ele>139.456027</ele>
        <time>2025-06-19T13:11:48.711Z</time>
      </trkpt>
      <trkpt lat="49.2194" lon="2.06583">
        <ele>139.273441</ele>
        <time>2025-06-19T13:11:51.703Z</time>
      </trkpt>
      <trkpt lat="49.21952" lon="2.06589">
        <ele>139.089937</ele>
        <time>2025-06-19T13:11:54.705Z</time>
      </trkpt>
      <trkpt lat="49.21961" lon="2.06592">
        <ele>138.962853</ele>
        <time>2025-06-19T13:11:56.722Z</time>
      </trkpt>
      <trkpt lat="49.2197" lon="2.06595">
        <ele>138.832973</ele>
        <time>2025-06-19T13:11:58.707Z</time>
      </trkpt>
      <trkpt lat="49.2198" lon="2.06599">
        <ele>138.696011</ele>
        <time>2025-06-19T13:12:00.710Z</time>
      </trkpt>
      <trkpt lat="49.21989" lon="2.06603">
        <ele>138.563195</ele>
        <time>2025-06-19T13:12:02.717Z</time>
      </trkpt>
      <trkpt lat="49.21998" lon="2.06607">
        <ele>138.435056</ele>
        <time>2025-06-19T13:12:04.713Z</time>
      </trkpt>
      <trkpt lat="49.22007" lon="2.06611">
        <ele>138.301036</ele>
        <time>2025-06-19T13:12:06.705Z</time>
      </trkpt>
      <trkpt lat="49.22015" lon="2.06615">
        <ele>138.174742</ele>
        <time>2025-06-19T13:12:08.714Z</time>
      </trkpt>
      <trkpt lat="49.22028" lon="2.06621">
        <ele>137.989373</ele>
        <time>2025-06-19T13:12:11.710Z</time>
      </trkpt>
      <trkpt lat="49.22041" lon="2.06626">
        <ele>137.801669</ele>
        <time>2025-06-19T13:12:14.698Z</time>
      </trkpt>
      <trkpt lat="49.22054" lon="2.06632">
        <ele>137.776845</ele>
        <time>2025-06-19T13:12:17.706Z</time>
      </trkpt>
      <trkpt lat="49.22063" lon="2.06637">
        <ele>137.780613</ele>
        <time>2025-06-19T13:12:19.704Z</time>
      </trkpt>
      <trkpt lat="49.22071" lon="2.06642">
        <ele>137.784446</ele>
        <time>2025-06-19T13:12:21.704Z</time>
      </trkpt>
      <trkpt lat="49.2208" lon="2.06647">
        <ele>137.788365</ele>
        <time>2025-06-19T13:12:23.706Z</time>
      </trkpt>
      <trkpt lat="49.22089" lon="2.06652">
        <ele>137.792313</ele>
        <time>2025-06-19T13:12:25.702Z</time>
      </trkpt>
      <trkpt lat="49.22098" lon="2.06657">
        <ele>137.796175</ele>
        <time>2025-06-19T13:12:27.708Z</time>
      </trkpt>
      <trkpt lat="49.22107" lon="2.06662">
        <ele>137.799885</ele>
        <time>2025-06-19T13:12:29.712Z</time>
      </trkpt>
      <trkpt lat="49.22119" lon="2.0667">
        <ele>137.805201</ele>
        <time>2025-06-19T13:12:32.705Z</time>
      </trkpt>
      <trkpt lat="49.22131" lon="2.06677">
        <ele>137.810668</ele>
        <time>2025-06-19T13:12:35.706Z</time>
      </trkpt>
      <trkpt lat="49.2214" lon="2.06683">
        <ele>137.81454</ele>
        <time>2025-06-19T13:12:37.708Z</time>
      </trkpt>
      <trkpt lat="49.22149" lon="2.06688">
        <ele>137.818459</ele>
        <time>2025-06-19T13:12:39.706Z</time>
      </trkpt>
      <trkpt lat="49.22157" lon="2.06693">
        <ele>137.822253</ele>
        <time>2025-06-19T13:12:41.719Z</time>
      </trkpt>
      <trkpt lat="49.2217" lon="2.06701">
        <ele>137.827799</ele>
        <time>2025-06-19T13:12:44.708Z</time>
      </trkpt>
      <trkpt lat="49.22179" lon="2.06707">
        <ele>137.831701</ele>
        <time>2025-06-19T13:12:46.703Z</time>
      </trkpt>
      <trkpt lat="49.22188" lon="2.06712">
        <ele>137.835727</ele>
        <time>2025-06-19T13:12:48.711Z</time>
      </trkpt>
      <trkpt lat="49.22197" lon="2.06716">
        <ele>137.839542</ele>
        <time>2025-06-19T13:12:50.704Z</time>
      </trkpt>
      <trkpt lat="49.22205" lon="2.06721">
        <ele>137.843365</ele>
        <time>2025-06-19T13:12:52.700Z</time>
      </trkpt>
      <trkpt lat="49.22214" lon="2.06727">
        <ele>137.919935</ele>
        <time>2025-06-19T13:12:54.706Z</time>
      </trkpt>
      <trkpt lat="49.22223" lon="2.06733">
        <ele>138.121033</ele>
        <time>2025-06-19T13:12:56.718Z</time>
      </trkpt>
      <trkpt lat="49.22232" lon="2.06738">
        <ele>138.32837</ele>
        <time>2025-06-19T13:12:58.709Z</time>
      </trkpt>
      <trkpt lat="49.22242" lon="2.06743">
        <ele>138.542829</ele>
        <time>2025-06-19T13:13:00.712Z</time>
      </trkpt>
      <trkpt lat="49.22251" lon="2.06749">
        <ele>138.744266</ele>
        <time>2025-06-19T13:13:02.718Z</time>
      </trkpt>
      <trkpt lat="49.22259" lon="2.06754">
        <ele>138.939832</ele>
        <time>2025-06-19T13:13:04.704Z</time>
      </trkpt>
      <trkpt lat="49.22268" lon="2.06759">
        <ele>139.138467</ele>
        <time>2025-06-19T13:13:06.704Z</time>
      </trkpt>
      <trkpt lat="49.22276" lon="2.06765">
        <ele>139.330385</ele>
        <time>2025-06-19T13:13:08.710Z</time>
      </trkpt>
      <trkpt lat="49.22284" lon="2.0677">
        <ele>139.52097</ele>
        <time>2025-06-19T13:13:10.697Z</time>
      </trkpt>
      <trkpt lat="49.22293" lon="2.06775">
        <ele>139.71299</ele>
        <time>2025-06-19T13:13:12.709Z</time>
      </trkpt>
      <trkpt lat="49.22301" lon="2.06781">
        <ele>139.907495</ele>
        <time>2025-06-19T13:13:14.697Z</time>
      </trkpt>
      <trkpt lat="49.2231" lon="2.06786">
        <ele>140.103451</ele>
        <time>2025-06-19T13:13:16.705Z</time>
      </trkpt>
      <trkpt lat="49.22318" lon="2.06791">
        <ele>140.296427</ele>
        <time>2025-06-19T13:13:18.700Z</time>
      </trkpt>
      <trkpt lat="49.22331" lon="2.06798">
        <ele>140.57701</ele>
        <time>2025-06-19T13:13:21.707Z</time>
      </trkpt>
      <trkpt lat="49.22343" lon="2.06806">
        <ele>140.858824</ele>
        <time>2025-06-19T13:13:24.695Z</time>
      </trkpt>
      <trkpt lat="49.22351" lon="2.06811">
        <ele>141.050825</ele>
        <time>2025-06-19T13:13:26.720Z</time>
      </trkpt>
      <trkpt lat="49.22363" lon="2.06818">
        <ele>141.322481</ele>
        <time>2025-06-19T13:13:29.714Z</time>
      </trkpt>
      <trkpt lat="49.22376" lon="2.06826">
        <ele>141.602139</ele>
        <time>2025-06-19T13:13:32.703Z</time>
      </trkpt>
      <trkpt lat="49.22388" lon="2.06834">
        <ele>141.675046</ele>
        <time>2025-06-19T13:13:35.712Z</time>
      </trkpt>
      <trkpt lat="49.22396" lon="2.06839">
        <ele>141.689754</ele>
        <time>2025-06-19T13:13:37.715Z</time>
      </trkpt>
      <trkpt lat="49.22409" lon="2.06847">
        <ele>141.711713</ele>
        <time>2025-06-19T13:13:40.721Z</time>
      </trkpt>
      <trkpt lat="49.22421" lon="2.06854">
        <ele>141.733965</ele>
        <time>2025-06-19T13:13:43.709Z</time>
      </trkpt>
      <trkpt lat="49.22431" lon="2.06859">
        <ele>141.750475</ele>
        <time>2025-06-19T13:13:45.709Z</time>
      </trkpt>
      <trkpt lat="49.22439" lon="2.06864">
        <ele>141.765619</ele>
        <time>2025-06-19T13:13:47.719Z</time>
      </trkpt>
      <trkpt lat="49.22451" lon="2.06873">
        <ele>141.786722</ele>
        <time>2025-06-19T13:13:50.703Z</time>
      </trkpt>
      <trkpt lat="49.22463" lon="2.0688">
        <ele>141.807984</ele>
        <time>2025-06-19T13:13:53.761Z</time>
      </trkpt>
      <trkpt lat="49.22475" lon="2.06888">
        <ele>141.828625</ele>
        <time>2025-06-19T13:13:56.698Z</time>
      </trkpt>
      <trkpt lat="49.22486" lon="2.06897">
        <ele>141.849511</ele>
        <time>2025-06-19T13:13:59.703Z</time>
      </trkpt>
      <trkpt lat="49.22498" lon="2.06907">
        <ele>141.870652</ele>
        <time>2025-06-19T13:14:02.705Z</time>
      </trkpt>
      <trkpt lat="49.22509" lon="2.06917">
        <ele>141.892784</ele>
        <time>2025-06-19T13:14:05.707Z</time>
      </trkpt>
      <trkpt lat="49.22521" lon="2.06927">
        <ele>141.91504</ele>
        <time>2025-06-19T13:14:08.707Z</time>
      </trkpt>
      <trkpt lat="49.22532" lon="2.06938">
        <ele>141.935877</ele>
        <time>2025-06-19T13:14:11.709Z</time>
      </trkpt>
      <trkpt lat="49.22543" lon="2.06948">
        <ele>141.976865</ele>
        <time>2025-06-19T13:14:14.709Z</time>
      </trkpt>
      <trkpt lat="49.22553" lon="2.06958">
        <ele>142.069169</ele>
        <time>2025-06-19T13:14:17.699Z</time>
      </trkpt>
      <trkpt lat="49.22561" lon="2.06965">
        <ele>142.136586</ele>
        <time>2025-06-19T13:14:19.702Z</time>
      </trkpt>
      <trkpt lat="49.22572" lon="2.06976">
        <ele>142.235469</ele>
        <time>2025-06-19T13:14:22.704Z</time>
      </trkpt>
      <trkpt lat="49.22583" lon="2.06988">
        <ele>142.332713</ele>
        <time>2025-06-19T13:14:25.708Z</time>
      </trkpt>
      <trkpt lat="49.22594" lon="2.06999">
        <ele>142.431952</ele>
        <time>2025-06-19T13:14:28.702Z</time>
      </trkpt>
      <trkpt lat="49.22601" lon="2.07007">
        <ele>142.4992</ele>
        <time>2025-06-19T13:14:30.710Z</time>
      </trkpt>
      <trkpt lat="49.22609" lon="2.07015">
        <ele>142.572876</ele>
        <time>2025-06-19T13:14:32.713Z</time>
      </trkpt>
      <trkpt lat="49.22617" lon="2.07022">
        <ele>142.641717</ele>
        <time>2025-06-19T13:14:34.708Z</time>
      </trkpt>
      <trkpt lat="49.22628" lon="2.07033">
        <ele>142.740161</ele>
        <time>2025-06-19T13:14:37.707Z</time>
      </trkpt>
      <trkpt lat="49.22639" lon="2.07044">
        <ele>142.835923</ele>
        <time>2025-06-19T13:14:40.698Z</time>
      </trkpt>
      <trkpt lat="49.2265" lon="2.07055">
        <ele>142.935162</ele>
        <time>2025-06-19T13:14:43.691Z</time>
      </trkpt>
      <trkpt lat="49.22661" lon="2.07066">
        <ele>143.032975</ele>
        <time>2025-06-19T13:14:46.709Z</time>
      </trkpt>
      <trkpt lat="49.22669" lon="2.07073">
        <ele>143.101544</ele>
        <time>2025-06-19T13:14:48.710Z</time>
      </trkpt>
      <trkpt lat="49.22677" lon="2.07081">
        <ele>143.173067</ele>
        <time>2025-06-19T13:14:50.707Z</time>
      </trkpt>
      <trkpt lat="49.22685" lon="2.07088">
        <ele>143.240905</ele>
        <time>2025-06-19T13:14:52.700Z</time>
      </trkpt>
      <trkpt lat="49.22697" lon="2.07098">
        <ele>143.570508</ele>
        <time>2025-06-19T13:14:55.702Z</time>
      </trkpt>
      <trkpt lat="49.22708" lon="2.07108">
        <ele>144.148543</ele>
        <time>2025-06-19T13:14:58.704Z</time>
      </trkpt>
      <trkpt lat="49.22718" lon="2.07119">
        <ele>144.721181</ele>
        <time>2025-06-19T13:15:01.702Z</time>
      </trkpt>
      <trkpt lat="49.2273" lon="2.07128">
        <ele>145.30903</ele>
        <time>2025-06-19T13:15:04.716Z</time>
      </trkpt>
      <trkpt lat="49.2274" lon="2.07139">
        <ele>145.880091</ele>
        <time>2025-06-19T13:15:07.698Z</time>
      </trkpt>
      <trkpt lat="49.22748" lon="2.07146">
        <ele>146.301801</ele>
        <time>2025-06-19T13:15:09.696Z</time>
      </trkpt>
      <trkpt lat="49.2276" lon="2.07155">
        <ele>146.876074</ele>
        <time>2025-06-19T13:15:12.696Z</time>
      </trkpt>
      <trkpt lat="49.22771" lon="2.07165">
        <ele>147.453538</ele>
        <time>2025-06-19T13:15:15.703Z</time>
      </trkpt>
      <trkpt lat="49.22782" lon="2.07175">
        <ele>148.047725</ele>
        <time>2025-06-19T13:15:18.702Z</time>
      </trkpt>
      <trkpt lat="49.22793" lon="2.07185">
        <ele>148.630575</ele>
        <time>2025-06-19T13:15:21.701Z</time>
      </trkpt>
      <trkpt lat="49.22805" lon="2.07195">
        <ele>149.241088</ele>
        <time>2025-06-19T13:15:24.700Z</time>
      </trkpt>
      <trkpt lat="49.22813" lon="2.07202">
        <ele>149.651846</ele>
        <time>2025-06-19T13:15:26.709Z</time>
      </trkpt>
      <trkpt lat="49.22824" lon="2.07213">
        <ele>150.24676</ele>
        <time>2025-06-19T13:15:29.704Z</time>
      </trkpt>
      <trkpt lat="49.22832" lon="2.07219">
        <ele>150.65624</ele>
        <time>2025-06-19T13:15:31.711Z</time>
      </trkpt>
      <trkpt lat="49.2284" lon="2.07227">
        <ele>151.077948</ele>
        <time>2025-06-19T13:15:33.707Z</time>
      </trkpt>
      <trkpt lat="49.22849" lon="2.07234">
        <ele>151.416663</ele>
        <time>2025-06-19T13:15:35.703Z</time>
      </trkpt>
      <trkpt lat="49.22859" lon="2.07241">
        <ele>151.375629</ele>
        <time>2025-06-19T13:15:37.702Z</time>
      </trkpt>
      <trkpt lat="49.22868" lon="2.07247">
        <ele>151.337114</ele>
        <time>2025-06-19T13:15:39.707Z</time>
      </trkpt>
      <trkpt lat="49.22878" lon="2.07253">
        <ele>151.297564</ele>
        <time>2025-06-19T13:15:41.716Z</time>
      </trkpt>
      <trkpt lat="49.22887" lon="2.07258">
        <ele>151.25959</ele>
        <time>2025-06-19T13:15:43.700Z</time>
      </trkpt>
      <trkpt lat="49.22897" lon="2.07261">
        <ele>151.222239</ele>
        <time>2025-06-19T13:15:45.702Z</time>
      </trkpt>
      <trkpt lat="49.22907" lon="2.07265">
        <ele>151.183973</ele>
        <time>2025-06-19T13:15:47.710Z</time>
      </trkpt>
      <trkpt lat="49.22917" lon="2.07269">
        <ele>151.144737</ele>
        <time>2025-06-19T13:15:49.705Z</time>
      </trkpt>
      <trkpt lat="49.22927" lon="2.07273">
        <ele>151.104604</ele>
        <time>2025-06-19T13:15:51.704Z</time>
      </trkpt>
      <trkpt lat="49.22938" lon="2.07277">
        <ele>151.064595</ele>
        <time>2025-06-19T13:15:53.706Z</time>
      </trkpt>
      <trkpt lat="49.22947" lon="2.07281">
        <ele>151.027908</ele>
        <time>2025-06-19T13:15:55.708Z</time>
      </trkpt>
      <trkpt lat="49.22956" lon="2.07284">
        <ele>150.993018</ele>
        <time>2025-06-19T13:15:57.696Z</time>
      </trkpt>
      <trkpt lat="49.22969" lon="2.07289">
        <ele>150.94257</ele>
        <time>2025-06-19T13:16:00.692Z</time>
      </trkpt>
      <trkpt lat="49.22979" lon="2.07293">
        <ele>150.906105</ele>
        <time>2025-06-19T13:16:02.707Z</time>
      </trkpt>
      <trkpt lat="49.22988" lon="2.07295">
        <ele>150.871485</ele>
        <time>2025-06-19T13:16:04.701Z</time>
      </trkpt>
      <trkpt lat="49.22999" lon="2.073">
        <ele>150.828447</ele>
        <time>2025-06-19T13:16:06.697Z</time>
      </trkpt>
      <trkpt lat="49.23009" lon="2.07304">
        <ele>150.790378</ele>
        <time>2025-06-19T13:16:08.704Z</time>
      </trkpt>
      <trkpt lat="49.23019" lon="2.07307">
        <ele>150.751339</ele>
        <time>2025-06-19T13:16:10.707Z</time>
      </trkpt>
      <trkpt lat="49.23029" lon="2.07311">
        <ele>150.5049</ele>
        <time>2025-06-19T13:16:12.699Z</time>
      </trkpt>
      <trkpt lat="49.23039" lon="2.07315">
        <ele>150.258048</ele>
        <time>2025-06-19T13:16:14.701Z</time>
      </trkpt>
      <trkpt lat="49.23049" lon="2.07319">
        <ele>150.012434</ele>
        <time>2025-06-19T13:16:16.693Z</time>
      </trkpt>
      <trkpt lat="49.23058" lon="2.07323">
        <ele>149.77025</ele>
        <time>2025-06-19T13:16:18.702Z</time>
      </trkpt>
      <trkpt lat="49.23068" lon="2.07327">
        <ele>149.528147</ele>
        <time>2025-06-19T13:16:20.699Z</time>
      </trkpt>
      <trkpt lat="49.23078" lon="2.07331">
        <ele>149.28405</ele>
        <time>2025-06-19T13:16:22.697Z</time>
      </trkpt>
      <trkpt lat="49.23088" lon="2.07334">
        <ele>149.040653</ele>
        <time>2025-06-19T13:16:24.701Z</time>
      </trkpt>
      <trkpt lat="49.23097" lon="2.07337">
        <ele>148.793832</ele>
        <time>2025-06-19T13:16:26.696Z</time>
      </trkpt>
      <trkpt lat="49.23107" lon="2.07342">
        <ele>148.542305</ele>
        <time>2025-06-19T13:16:28.705Z</time>
      </trkpt>
      <trkpt lat="49.23117" lon="2.07346">
        <ele>148.293116</ele>
        <time>2025-06-19T13:16:30.713Z</time>
      </trkpt>
      <trkpt lat="49.23127" lon="2.07349">
        <ele>148.052426</ele>
        <time>2025-06-19T13:16:32.699Z</time>
      </trkpt>
      <trkpt lat="49.23137" lon="2.07353">
        <ele>147.805605</ele>
        <time>2025-06-19T13:16:34.706Z</time>
      </trkpt>
      <trkpt lat="49.23147" lon="2.07357">
        <ele>147.556835</ele>
        <time>2025-06-19T13:16:36.695Z</time>
      </trkpt>
      <trkpt lat="49.23156" lon="2.0736">
        <ele>147.322546</ele>
        <time>2025-06-19T13:16:38.701Z</time>
      </trkpt>
      <trkpt lat="49.23165" lon="2.07364">
        <ele>147.092213</ele>
        <time>2025-06-19T13:16:40.698Z</time>
      </trkpt>
      <trkpt lat="49.23175" lon="2.07368">
        <ele>146.843443</ele>
        <time>2025-06-19T13:16:42.706Z</time>
      </trkpt>
      <trkpt lat="49.23185" lon="2.07372">
        <ele>146.589986</ele>
        <time>2025-06-19T13:16:44.703Z</time>
      </trkpt>
      <trkpt lat="49.23196" lon="2.07377">
        <ele>146.34542</ele>
        <time>2025-06-19T13:16:46.720Z</time>
      </trkpt>
      <trkpt lat="49.23207" lon="2.07381">
        <ele>146.162544</ele>
        <time>2025-06-19T13:16:48.703Z</time>
      </trkpt>
      <trkpt lat="49.23217" lon="2.07385">
        <ele>145.99066</ele>
        <time>2025-06-19T13:16:50.702Z</time>
      </trkpt>
      <trkpt lat="49.23226" lon="2.07388">
        <ele>145.832155</ele>
        <time>2025-06-19T13:16:52.703Z</time>
      </trkpt>
      <trkpt lat="49.23236" lon="2.07392">
        <ele>145.664035</ele>
        <time>2025-06-19T13:16:54.696Z</time>
      </trkpt>
      <trkpt lat="49.23245" lon="2.07396">
        <ele>145.49857</ele>
        <time>2025-06-19T13:16:56.700Z</time>
      </trkpt>
      <trkpt lat="49.23255" lon="2.07398">
        <ele>145.3412</ele>
        <time>2025-06-19T13:16:58.693Z</time>
      </trkpt>
      <trkpt lat="49.23264" lon="2.07403">
        <ele>145.171013</ele>
        <time>2025-06-19T13:17:00.702Z</time>
      </trkpt>
      <trkpt lat="49.23274" lon="2.07406">
        <ele>145.012508</ele>
        <time>2025-06-19T13:17:02.740Z</time>
      </trkpt>
      <trkpt lat="49.23283" lon="2.0741">
        <ele>144.852385</ele>
        <time>2025-06-19T13:17:04.892Z</time>
      </trkpt>
      <trkpt lat="49.23292" lon="2.07413">
        <ele>144.699265</ele>
        <time>2025-06-19T13:17:06.694Z</time>
      </trkpt>
      <trkpt lat="49.23301" lon="2.07417">
        <ele>144.538896</ele>
        <time>2025-06-19T13:17:08.711Z</time>
      </trkpt>
      <trkpt lat="49.23315" lon="2.07422">
        <ele>144.310439</ele>
        <time>2025-06-19T13:17:11.827Z</time>
      </trkpt>
      <trkpt lat="49.23324" lon="2.07425">
        <ele>144.155167</ele>
        <time>2025-06-19T13:17:13.806Z</time>
      </trkpt>
      <trkpt lat="49.23333" lon="2.07429">
        <ele>144.002601</ele>
        <time>2025-06-19T13:17:15.719Z</time>
      </trkpt>
      <trkpt lat="49.23342" lon="2.07432">
        <ele>143.849669</ele>
        <time>2025-06-19T13:17:17.726Z</time>
      </trkpt>
      <trkpt lat="49.23351" lon="2.07435">
        <ele>143.693262</ele>
        <time>2025-06-19T13:17:19.689Z</time>
      </trkpt>
      <trkpt lat="49.23364" lon="2.07441">
        <ele>143.464239</ele>
        <time>2025-06-19T13:17:22.725Z</time>
      </trkpt>
      <trkpt lat="49.23373" lon="2.07443">
        <ele>143.398357</ele>
        <time>2025-06-19T13:17:24.701Z</time>
      </trkpt>
      <trkpt lat="49.23387" lon="2.07448">
        <ele>143.393617</ele>
        <time>2025-06-19T13:17:27.707Z</time>
      </trkpt>
      <trkpt lat="49.23401" lon="2.07453">
        <ele>143.389045</ele>
        <time>2025-06-19T13:17:30.765Z</time>
      </trkpt>
      <trkpt lat="49.23411" lon="2.07456">
        <ele>143.38582</ele>
        <time>2025-06-19T13:17:32.704Z</time>
      </trkpt>
      <trkpt lat="49.2342" lon="2.07458">
        <ele>143.382671</ele>
        <time>2025-06-19T13:17:34.824Z</time>
      </trkpt>
      <trkpt lat="49.23434" lon="2.07464">
        <ele>143.378136</ele>
        <time>2025-06-19T13:17:37.721Z</time>
      </trkpt>
      <trkpt lat="49.23443" lon="2.07468">
        <ele>143.375102</ele>
        <time>2025-06-19T13:17:39.706Z</time>
      </trkpt>
      <trkpt lat="49.2346" lon="2.07475">
        <ele>143.369264</ele>
        <time>2025-06-19T13:17:43.705Z</time>
      </trkpt>
      <trkpt lat="49.23469" lon="2.0748">
        <ele>143.366303</ele>
        <time>2025-06-19T13:17:45.708Z</time>
      </trkpt>
      <trkpt lat="49.23477" lon="2.07484">
        <ele>143.363305</ele>
        <time>2025-06-19T13:17:47.688Z</time>
      </trkpt>
      <trkpt lat="49.23486" lon="2.07489">
        <ele>143.360289</ele>
        <time>2025-06-19T13:17:49.747Z</time>
      </trkpt>
      <trkpt lat="49.23496" lon="2.07489">
        <ele>143.357103</ele>
        <time>2025-06-19T13:17:51.921Z</time>
      </trkpt>
      <trkpt lat="49.23505" lon="2.07493">
        <ele>143.354106</ele>
        <time>2025-06-19T13:17:54.177Z</time>
      </trkpt>
      <trkpt lat="49.23517" lon="2.07499">
        <ele>143.350021</ele>
        <time>2025-06-19T13:17:56.940Z</time>
      </trkpt>
      <trkpt lat="49.23534" lon="2.07507">
        <ele>143.344259</ele>
        <time>2025-06-19T13:18:00.942Z</time>
      </trkpt>
      <trkpt lat="49.23545" lon="2.07515">
        <ele>143.443175</ele>
        <time>2025-06-19T13:18:03.814Z</time>
      </trkpt>
      <trkpt lat="49.23555" lon="2.07522">
        <ele>143.688626</ele>
        <time>2025-06-19T13:18:05.925Z</time>
      </trkpt>
      <trkpt lat="49.23565" lon="2.07529">
        <ele>143.948808</ele>
        <time>2025-06-19T13:18:08.716Z</time>
      </trkpt>
      <trkpt lat="49.2358" lon="2.07537">
        <ele>144.311952</ele>
        <time>2025-06-19T13:18:12.733Z</time>
      </trkpt>
      <trkpt lat="49.23594" lon="2.07545">
        <ele>144.652714</ele>
        <time>2025-06-19T13:18:16.703Z</time>
      </trkpt>
      <trkpt lat="49.23604" lon="2.07552">
        <ele>144.906562</ele>
        <time>2025-06-19T13:18:19.700Z</time>
      </trkpt>
      <trkpt lat="49.23616" lon="2.0756">
        <ele>145.211912</ele>
        <time>2025-06-19T13:18:22.693Z</time>
      </trkpt>
      <trkpt lat="49.23625" lon="2.07565">
        <ele>145.421202</ele>
        <time>2025-06-19T13:18:24.713Z</time>
      </trkpt>
      <trkpt lat="49.23637" lon="2.07574">
        <ele>145.726869</ele>
        <time>2025-06-19T13:18:27.714Z</time>
      </trkpt>
      <trkpt lat="49.23648" lon="2.07582">
        <ele>146.020198</ele>
        <time>2025-06-19T13:18:30.775Z</time>
      </trkpt>
      <trkpt lat="49.23658" lon="2.07589">
        <ele>146.258752</ele>
        <time>2025-06-19T13:18:33.748Z</time>
      </trkpt>
      <trkpt lat="49.23667" lon="2.07595">
        <ele>146.496516</ele>
        <time>2025-06-19T13:18:36.731Z</time>
      </trkpt>
      <trkpt lat="49.23678" lon="2.07604">
        <ele>146.786842</ele>
        <time>2025-06-19T13:18:39.700Z</time>
      </trkpt>
      <trkpt lat="49.2369" lon="2.07612">
        <ele>147.069927</ele>
        <time>2025-06-19T13:18:42.783Z</time>
      </trkpt>
      <trkpt lat="49.23703" lon="2.07621">
        <ele>147.402778</ele>
        <time>2025-06-19T13:18:46.887Z</time>
      </trkpt>
      <trkpt lat="49.23713" lon="2.07628">
        <ele>147.605433</ele>
        <time>2025-06-19T13:18:49.704Z</time>
      </trkpt>
      <trkpt lat="49.23722" lon="2.07634">
        <ele>147.783668</ele>
        <time>2025-06-19T13:18:53.197Z</time>
      </trkpt>
      <trkpt lat="49.23732" lon="2.07642">
        <ele>147.975018</ele>
        <time>2025-06-19T13:18:55.948Z</time>
      </trkpt>
      <trkpt lat="49.2374" lon="2.07648">
        <ele>148.127192</ele>
        <time>2025-06-19T13:18:58.698Z</time>
      </trkpt>
      <trkpt lat="49.23751" lon="2.07656">
        <ele>148.321652</ele>
        <time>2025-06-19T13:19:02.710Z</time>
      </trkpt>
      <trkpt lat="49.2376" lon="2.07663">
        <ele>148.500952</ele>
        <time>2025-06-19T13:19:05.719Z</time>
      </trkpt>
      <trkpt lat="49.23769" lon="2.0767">
        <ele>148.665188</ele>
        <time>2025-06-19T13:19:08.706Z</time>
      </trkpt>
      <trkpt lat="49.23778" lon="2.07679">
        <ele>148.850414</ele>
        <time>2025-06-19T13:19:11.742Z</time>
      </trkpt>
      <trkpt lat="49.23787" lon="2.07686">
        <ele>149.013796</ele>
        <time>2025-06-19T13:19:14.707Z</time>
      </trkpt>
      <trkpt lat="49.23796" lon="2.07695">
        <ele>149.201914</ele>
        <time>2025-06-19T13:19:17.830Z</time>
      </trkpt>
      <trkpt lat="49.23805" lon="2.07704">
        <ele>149.37874</ele>
        <time>2025-06-19T13:19:20.721Z</time>
      </trkpt>
      <trkpt lat="49.23813" lon="2.07715">
        <ele>149.561462</ele>
        <time>2025-06-19T13:19:23.785Z</time>
      </trkpt>
      <trkpt lat="49.23822" lon="2.07722">
        <ele>149.73438</ele>
        <time>2025-06-19T13:19:26.721Z</time>
      </trkpt>
      <trkpt lat="49.23833" lon="2.07729">
        <ele>149.942982</ele>
        <time>2025-06-19T13:19:30.745Z</time>
      </trkpt>
      <trkpt lat="49.23842" lon="2.07734">
        <ele>150.094764</ele>
        <time>2025-06-19T13:19:33.700Z</time>
      </trkpt>
      <trkpt lat="49.23851" lon="2.0774">
        <ele>150.264796</ele>
        <time>2025-06-19T13:19:36.695Z</time>
      </trkpt>
      <trkpt lat="49.23861" lon="2.07747">
        <ele>150.447141</ele>
        <time>2025-06-19T13:19:39.717Z</time>
      </trkpt>
      <trkpt lat="49.2387" lon="2.07754">
        <ele>150.740075</ele>
        <time>2025-06-19T13:19:42.694Z</time>
      </trkpt>
      <trkpt lat="49.23879" lon="2.07761">
        <ele>151.104587</ele>
        <time>2025-06-19T13:19:45.702Z</time>
      </trkpt>
      <trkpt lat="49.23888" lon="2.07768">
        <ele>151.508075</ele>
        <time>2025-06-19T13:19:49.702Z</time>
      </trkpt>
      <trkpt lat="49.23899" lon="2.07776">
        <ele>151.95271</ele>
        <time>2025-06-19T13:19:53.715Z</time>
      </trkpt>
      <trkpt lat="49.23907" lon="2.07782">
        <ele>152.297617</ele>
        <time>2025-06-19T13:19:56.706Z</time>
      </trkpt>
      <trkpt lat="49.23916" lon="2.07788">
        <ele>152.647958</ele>
        <time>2025-06-19T13:19:59.705Z</time>
      </trkpt>
      <trkpt lat="49.23924" lon="2.07794">
        <ele>152.996281</ele>
        <time>2025-06-19T13:20:02.692Z</time>
      </trkpt>
      <trkpt lat="49.23935" lon="2.07801">
        <ele>153.427918</ele>
        <time>2025-06-19T13:20:06.700Z</time>
      </trkpt>
      <trkpt lat="49.23946" lon="2.07809">
        <ele>153.870452</ele>
        <time>2025-06-19T13:20:10.709Z</time>
      </trkpt>
      <trkpt lat="49.23956" lon="2.07814">
        <ele>154.269011</ele>
        <time>2025-06-19T13:20:14.705Z</time>
      </trkpt>
      <trkpt lat="49.23964" lon="2.07821">
        <ele>154.619117</ele>
        <time>2025-06-19T13:20:17.688Z</time>
      </trkpt>
      <trkpt lat="49.23973" lon="2.07828">
        <ele>155.019302</ele>
        <time>2025-06-19T13:20:20.700Z</time>
      </trkpt>
      <trkpt lat="49.23983" lon="2.07836">
        <ele>155.430483</ele>
        <time>2025-06-19T13:20:23.702Z</time>
      </trkpt>
      <trkpt lat="49.23993" lon="2.07842">
        <ele>155.815138</ele>
        <time>2025-06-19T13:20:26.714Z</time>
      </trkpt>
      <trkpt lat="49.24002" lon="2.07849">
        <ele>156.200893</ele>
        <time>2025-06-19T13:20:29.734Z</time>
      </trkpt>
      <trkpt lat="49.24011" lon="2.07855">
        <ele>156.556689</ele>
        <time>2025-06-19T13:20:32.695Z</time>
      </trkpt>
      <trkpt lat="49.24021" lon="2.07864">
        <ele>156.987185</ele>
        <time>2025-06-19T13:20:36.705Z</time>
      </trkpt>
      <trkpt lat="49.2403" lon="2.0787">
        <ele>157.507031</ele>
        <time>2025-06-19T13:20:40.703Z</time>
      </trkpt>
      <trkpt lat="49.2404" lon="2.07875">
        <ele>158.239847</ele>
        <time>2025-06-19T13:20:43.814Z</time>
      </trkpt>
      <trkpt lat="49.24054" lon="2.07885">
        <ele>159.305612</ele>
        <time>2025-06-19T13:20:48.701Z</time>
      </trkpt>
      <trkpt lat="49.24062" lon="2.07891">
        <ele>159.967085</ele>
        <time>2025-06-19T13:20:51.696Z</time>
      </trkpt>
      <trkpt lat="49.24071" lon="2.07897">
        <ele>160.649299</ele>
        <time>2025-06-19T13:20:54.762Z</time>
      </trkpt>
      <trkpt lat="49.2408" lon="2.07901">
        <ele>161.331963</ele>
        <time>2025-06-19T13:20:57.697Z</time>
      </trkpt>
      <trkpt lat="49.24092" lon="2.07907">
        <ele>162.201951</ele>
        <time>2025-06-19T13:21:00.707Z</time>
      </trkpt>
      <trkpt lat="49.24102" lon="2.07911">
        <ele>162.91944</ele>
        <time>2025-06-19T13:21:02.759Z</time>
      </trkpt>
      <trkpt lat="49.24111" lon="2.07914">
        <ele>163.620926</ele>
        <time>2025-06-19T13:21:04.699Z</time>
      </trkpt>
      <trkpt lat="49.24123" lon="2.07919">
        <ele>164.471984</ele>
        <time>2025-06-19T13:21:06.993Z</time>
      </trkpt>
      <trkpt lat="49.24136" lon="2.07923">
        <ele>165.417264</ele>
        <time>2025-06-19T13:21:08.716Z</time>
      </trkpt>
      <trkpt lat="49.24156" lon="2.07929">
        <ele>166.915717</ele>
        <time>2025-06-19T13:21:11.712Z</time>
      </trkpt>
      <trkpt lat="49.2417" lon="2.07931">
        <ele>167.867692</ele>
        <time>2025-06-19T13:21:13.818Z</time>
      </trkpt>
      <trkpt lat="49.24185" lon="2.07934">
        <ele>168.934251</ele>
        <time>2025-06-19T13:21:15.762Z</time>
      </trkpt>
      <trkpt lat="49.24201" lon="2.07936">
        <ele>170.025575</ele>
        <time>2025-06-19T13:21:17.804Z</time>
      </trkpt>
      <trkpt lat="49.24219" lon="2.07937">
        <ele>169.667319</ele>
        <time>2025-06-19T13:21:19.693Z</time>
      </trkpt>
      <trkpt lat="49.24236" lon="2.07938">
        <ele>169.319277</ele>
        <time>2025-06-19T13:21:21.790Z</time>
      </trkpt>
      <trkpt lat="49.24253" lon="2.07939">
        <ele>168.966997</ele>
        <time>2025-06-19T13:21:23.729Z</time>
      </trkpt>
      <trkpt lat="49.24262" lon="2.07939">
        <ele>168.783907</ele>
        <time>2025-06-19T13:21:24.814Z</time>
      </trkpt>
      <trkpt lat="49.24279" lon="2.07941">
        <ele>168.439356</ele>
        <time>2025-06-19T13:21:26.844Z</time>
      </trkpt>
      <trkpt lat="49.24296" lon="2.07941">
        <ele>168.091557</ele>
        <time>2025-06-19T13:21:28.713Z</time>
      </trkpt>
      <trkpt lat="49.24305" lon="2.07942">
        <ele>167.904273</ele>
        <time>2025-06-19T13:21:29.728Z</time>
      </trkpt>
      <trkpt lat="49.24322" lon="2.0794">
        <ele>167.558018</ele>
        <time>2025-06-19T13:21:31.774Z</time>
      </trkpt>
      <trkpt lat="49.24339" lon="2.07938">
        <ele>167.208772</ele>
        <time>2025-06-19T13:21:34.039Z</time>
      </trkpt>
      <trkpt lat="49.24356" lon="2.07935">
        <ele>166.865068</ele>
        <time>2025-06-19T13:21:36.064Z</time>
      </trkpt>
      <trkpt lat="49.24379" lon="2.07931">
        <ele>166.388214</ele>
        <time>2025-06-19T13:21:38.851Z</time>
      </trkpt>
      <trkpt lat="49.24394" lon="2.07928">
        <ele>166.220067</ele>
        <time>2025-06-19T13:21:40.696Z</time>
      </trkpt>
      <trkpt lat="49.24409" lon="2.07925">
        <ele>166.048447</ele>
        <time>2025-06-19T13:21:42.710Z</time>
      </trkpt>
      <trkpt lat="49.24424" lon="2.07922">
        <ele>165.884093</ele>
        <time>2025-06-19T13:21:44.976Z</time>
      </trkpt>
      <trkpt lat="49.24438" lon="2.07919">
        <ele>165.721547</ele>
        <time>2025-06-19T13:21:46.698Z</time>
      </trkpt>
      <trkpt lat="49.24452" lon="2.07917">
        <ele>165.564467</ele>
        <time>2025-06-19T13:21:48.708Z</time>
      </trkpt>
      <trkpt lat="49.24465" lon="2.07914">
        <ele>165.419699</ele>
        <time>2025-06-19T13:21:50.712Z</time>
      </trkpt>
      <trkpt lat="49.24478" lon="2.07912">
        <ele>165.276414</ele>
        <time>2025-06-19T13:21:52.701Z</time>
      </trkpt>
      <trkpt lat="49.2449" lon="2.07908">
        <ele>165.135401</ele>
        <time>2025-06-19T13:21:54.697Z</time>
      </trkpt>
      <trkpt lat="49.24502" lon="2.07908">
        <ele>164.997586</ele>
        <time>2025-06-19T13:21:56.710Z</time>
      </trkpt>
      <trkpt lat="49.24514" lon="2.07914">
        <ele>164.862764</ele>
        <time>2025-06-19T13:21:58.692Z</time>
      </trkpt>
      <trkpt lat="49.24525" lon="2.07919">
        <ele>164.730354</ele>
        <time>2025-06-19T13:22:00.698Z</time>
      </trkpt>
      <trkpt lat="49.24537" lon="2.07918">
        <ele>164.592106</ele>
        <time>2025-06-19T13:22:02.704Z</time>
      </trkpt>
      <trkpt lat="49.24547" lon="2.07908">
        <ele>164.457975</ele>
        <time>2025-06-19T13:22:04.704Z</time>
      </trkpt>
      <trkpt lat="49.24558" lon="2.07896">
        <ele>164.287052</ele>
        <time>2025-06-19T13:22:06.707Z</time>
      </trkpt>
      <trkpt lat="49.2457" lon="2.07888">
        <ele>164.075431</ele>
        <time>2025-06-19T13:22:08.725Z</time>
      </trkpt>
      <trkpt lat="49.24582" lon="2.07884">
        <ele>163.876325</ele>
        <time>2025-06-19T13:22:10.705Z</time>
      </trkpt>
      <trkpt lat="49.24595" lon="2.0788">
        <ele>163.673327</ele>
        <time>2025-06-19T13:22:12.712Z</time>
      </trkpt>
      <trkpt lat="49.24608" lon="2.07877">
        <ele>163.471164</ele>
        <time>2025-06-19T13:22:14.775Z</time>
      </trkpt>
      <trkpt lat="49.24626" lon="2.07871">
        <ele>163.166465</ele>
        <time>2025-06-19T13:22:17.695Z</time>
      </trkpt>
      <trkpt lat="49.24639" lon="2.07867">
        <ele>162.95898</ele>
        <time>2025-06-19T13:22:19.697Z</time>
      </trkpt>
      <trkpt lat="49.24652" lon="2.07863">
        <ele>162.746063</ele>
        <time>2025-06-19T13:22:21.689Z</time>
      </trkpt>
      <trkpt lat="49.24666" lon="2.0786">
        <ele>162.530553</ele>
        <time>2025-06-19T13:22:23.723Z</time>
      </trkpt>
      <trkpt lat="49.24679" lon="2.07856">
        <ele>162.322123</ele>
        <time>2025-06-19T13:22:25.694Z</time>
      </trkpt>
      <trkpt lat="49.24692" lon="2.07852">
        <ele>162.102395</ele>
        <time>2025-06-19T13:22:27.968Z</time>
      </trkpt>
      <trkpt lat="49.24706" lon="2.0785">
        <ele>161.888083</ele>
        <time>2025-06-19T13:22:29.881Z</time>
      </trkpt>
      <trkpt lat="49.2472" lon="2.07848">
        <ele>161.6635</ele>
        <time>2025-06-19T13:22:31.770Z</time>
      </trkpt>
      <trkpt lat="49.24741" lon="2.07846">
        <ele>161.694821</ele>
        <time>2025-06-19T13:22:34.787Z</time>
      </trkpt>
      <trkpt lat="49.24755" lon="2.07846">
        <ele>161.914695</ele>
        <time>2025-06-19T13:22:37.239Z</time>
      </trkpt>
      <trkpt lat="49.24769" lon="2.07845">
        <ele>162.130049</ele>
        <time>2025-06-19T13:22:38.724Z</time>
      </trkpt>
      <trkpt lat="49.24782" lon="2.07844">
        <ele>162.331278</ele>
        <time>2025-06-19T13:22:40.737Z</time>
      </trkpt>
      <trkpt lat="49.24795" lon="2.07844">
        <ele>162.532467</ele>
        <time>2025-06-19T13:22:42.937Z</time>
      </trkpt>
      <trkpt lat="49.24808" lon="2.07845">
        <ele>162.73711</ele>
        <time>2025-06-19T13:22:44.790Z</time>
      </trkpt>
      <trkpt lat="49.24821" lon="2.07847">
        <ele>162.93305</ele>
        <time>2025-06-19T13:22:46.723Z</time>
      </trkpt>
      <trkpt lat="49.24833" lon="2.07849">
        <ele>163.125336</ele>
        <time>2025-06-19T13:22:48.684Z</time>
      </trkpt>
      <trkpt lat="49.24845" lon="2.0785">
        <ele>163.308581</ele>
        <time>2025-06-19T13:22:50.729Z</time>
      </trkpt>
      <trkpt lat="49.24862" lon="2.07853">
        <ele>163.568574</ele>
        <time>2025-06-19T13:22:53.709Z</time>
      </trkpt>
      <trkpt lat="49.24872" lon="2.07854">
        <ele>163.733229</ele>
        <time>2025-06-19T13:22:55.782Z</time>
      </trkpt>
      <trkpt lat="49.24882" lon="2.07857">
        <ele>163.890036</ele>
        <time>2025-06-19T13:22:57.700Z</time>
      </trkpt>
      <trkpt lat="49.24892" lon="2.0786">
        <ele>164.047934</ele>
        <time>2025-06-19T13:22:59.848Z</time>
      </trkpt>
      <trkpt lat="49.24902" lon="2.07863">
        <ele>164.197653</ele>
        <time>2025-06-19T13:23:01.851Z</time>
      </trkpt>
      <trkpt lat="49.24911" lon="2.07865">
        <ele>164.375126</ele>
        <time>2025-06-19T13:23:03.726Z</time>
      </trkpt>
      <trkpt lat="49.2492" lon="2.07868">
        <ele>164.648353</ele>
        <time>2025-06-19T13:23:05.826Z</time>
      </trkpt>
      <trkpt lat="49.2493" lon="2.0787">
        <ele>164.929228</ele>
        <time>2025-06-19T13:23:07.787Z</time>
      </trkpt>
      <trkpt lat="49.24943" lon="2.07874">
        <ele>165.321011</ele>
        <time>2025-06-19T13:23:10.707Z</time>
      </trkpt>
      <trkpt lat="49.24953" lon="2.07877">
        <ele>165.600855</ele>
        <time>2025-06-19T13:23:12.702Z</time>
      </trkpt>
      <trkpt lat="49.24962" lon="2.07878">
        <ele>165.874009</ele>
        <time>2025-06-19T13:23:14.710Z</time>
      </trkpt>
      <trkpt lat="49.24971" lon="2.07879">
        <ele>166.133377</ele>
        <time>2025-06-19T13:23:16.982Z</time>
      </trkpt>
      <trkpt lat="49.24981" lon="2.0788">
        <ele>166.41486</ele>
        <time>2025-06-19T13:23:18.691Z</time>
      </trkpt>
      <trkpt lat="49.24991" lon="2.07881">
        <ele>166.685641</ele>
        <time>2025-06-19T13:23:20.841Z</time>
      </trkpt>
      <trkpt lat="49.25" lon="2.07881">
        <ele>166.952389</ele>
        <time>2025-06-19T13:23:22.695Z</time>
      </trkpt>
      <trkpt lat="49.25013" lon="2.07881">
        <ele>167.328001</ele>
        <time>2025-06-19T13:23:25.695Z</time>
      </trkpt>
      <trkpt lat="49.25027" lon="2.07881">
        <ele>167.71797</ele>
        <time>2025-06-19T13:23:28.752Z</time>
      </trkpt>
      <trkpt lat="49.25039" lon="2.07881">
        <ele>168.082115</ele>
        <time>2025-06-19T13:23:31.716Z</time>
      </trkpt>
      <trkpt lat="49.25048" lon="2.0788">
        <ele>168.34701</ele>
        <time>2025-06-19T13:23:33.692Z</time>
      </trkpt>
      <trkpt lat="49.25061" lon="2.07878">
        <ele>168.714808</ele>
        <time>2025-06-19T13:23:36.720Z</time>
      </trkpt>
      <trkpt lat="49.25074" lon="2.07878">
        <ele>169.08761</ele>
        <time>2025-06-19T13:23:39.706Z</time>
      </trkpt>
      <trkpt lat="49.25086" lon="2.07876">
        <ele>169.433497</ele>
        <time>2025-06-19T13:23:42.705Z</time>
      </trkpt>
      <trkpt lat="49.25099" lon="2.07874">
        <ele>169.436984</ele>
        <time>2025-06-19T13:23:45.697Z</time>
      </trkpt>
      <trkpt lat="49.25112" lon="2.07873">
        <ele>169.417929</ele>
        <time>2025-06-19T13:23:48.703Z</time>
      </trkpt>
      <trkpt lat="49.25125" lon="2.07871">
        <ele>169.398544</ele>
        <time>2025-06-19T13:23:51.705Z</time>
      </trkpt>
      <trkpt lat="49.25134" lon="2.0787">
        <ele>169.385059</ele>
        <time>2025-06-19T13:23:53.700Z</time>
      </trkpt>
      <trkpt lat="49.25143" lon="2.07869">
        <ele>169.371823</ele>
        <time>2025-06-19T13:23:55.707Z</time>
      </trkpt>
      <trkpt lat="49.25157" lon="2.07867">
        <ele>169.352324</ele>
        <time>2025-06-19T13:23:58.713Z</time>
      </trkpt>
      <trkpt lat="49.25165" lon="2.07866">
        <ele>169.339283</ele>
        <time>2025-06-19T13:24:00.721Z</time>
      </trkpt>
      <trkpt lat="49.25175" lon="2.07865">
        <ele>169.325046</ele>
        <time>2025-06-19T13:24:02.697Z</time>
      </trkpt>
      <trkpt lat="49.25189" lon="2.07863">
        <ele>169.304957</ele>
        <time>2025-06-19T13:24:05.701Z</time>
      </trkpt>
      <trkpt lat="49.25198" lon="2.07862">
        <ele>169.29173</ele>
        <time>2025-06-19T13:24:07.704Z</time>
      </trkpt>
      <trkpt lat="49.25208" lon="2.07861">
        <ele>169.277202</ele>
        <time>2025-06-19T13:24:09.710Z</time>
      </trkpt>
      <trkpt lat="49.25217" lon="2.07859">
        <ele>169.263265</ele>
        <time>2025-06-19T13:24:11.696Z</time>
      </trkpt>
      <trkpt lat="49.25227" lon="2.07858">
        <ele>169.249447</ele>
        <time>2025-06-19T13:24:13.707Z</time>
      </trkpt>
      <trkpt lat="49.25236" lon="2.07857">
        <ele>169.235691</ele>
        <time>2025-06-19T13:24:15.714Z</time>
      </trkpt>
      <trkpt lat="49.25245" lon="2.07856">
        <ele>169.222218</ele>
        <time>2025-06-19T13:24:17.694Z</time>
      </trkpt>
      <trkpt lat="49.25255" lon="2.07856">
        <ele>169.208166</ele>
        <time>2025-06-19T13:24:19.709Z</time>
      </trkpt>
      <trkpt lat="49.25265" lon="2.07855">
        <ele>169.193968</ele>
        <time>2025-06-19T13:24:21.707Z</time>
      </trkpt>
      <trkpt lat="49.25274" lon="2.07853">
        <ele>169.288344</ele>
        <time>2025-06-19T13:24:23.691Z</time>
      </trkpt>
      <trkpt lat="49.25283" lon="2.07852">
        <ele>169.402689</ele>
        <time>2025-06-19T13:24:25.712Z</time>
      </trkpt>
      <trkpt lat="49.25293" lon="2.07851">
        <ele>169.521565</ele>
        <time>2025-06-19T13:24:27.727Z</time>
      </trkpt>
      <trkpt lat="49.25307" lon="2.07851">
        <ele>169.697851</ele>
        <time>2025-06-19T13:24:30.692Z</time>
      </trkpt>
      <trkpt lat="49.25322" lon="2.07849">
        <ele>169.889835</ele>
        <time>2025-06-19T13:24:33.728Z</time>
      </trkpt>
      <trkpt lat="49.25332" lon="2.07849">
        <ele>170.012404</ele>
        <time>2025-06-19T13:24:35.704Z</time>
      </trkpt>
      <trkpt lat="49.25341" lon="2.07849">
        <ele>170.127439</ele>
        <time>2025-06-19T13:24:37.698Z</time>
      </trkpt>
      <trkpt lat="49.2535" lon="2.07849">
        <ele>170.241238</ele>
        <time>2025-06-19T13:24:39.703Z</time>
      </trkpt>
      <trkpt lat="49.2536" lon="2.07849">
        <ele>170.362557</ele>
        <time>2025-06-19T13:24:41.705Z</time>
      </trkpt>
      <trkpt lat="49.25369" lon="2.0785">
        <ele>170.483901</ele>
        <time>2025-06-19T13:24:43.714Z</time>
      </trkpt>
      <trkpt lat="49.25378" lon="2.07851">
        <ele>170.596719</ele>
        <time>2025-06-19T13:24:45.716Z</time>
      </trkpt>
      <trkpt lat="49.25388" lon="2.07852">
        <ele>170.716209</ele>
        <time>2025-06-19T13:24:47.708Z</time>
      </trkpt>
      <trkpt lat="49.25398" lon="2.07853">
        <ele>170.841365</ele>
        <time>2025-06-19T13:24:49.691Z</time>
      </trkpt>
      <trkpt lat="49.25408" lon="2.07855">
        <ele>170.963733</ele>
        <time>2025-06-19T13:24:51.704Z</time>
      </trkpt>
      <trkpt lat="49.25418" lon="2.07857">
        <ele>171.089928</ele>
        <time>2025-06-19T13:24:53.713Z</time>
      </trkpt>
      <trkpt lat="49.25427" lon="2.07859">
        <ele>171.209818</ele>
        <time>2025-06-19T13:24:55.711Z</time>
      </trkpt>
      <trkpt lat="49.25436" lon="2.07861">
        <ele>171.326363</ele>
        <time>2025-06-19T13:24:57.720Z</time>
      </trkpt>
      <trkpt lat="49.25446" lon="2.07864">
        <ele>171.442432</ele>
        <time>2025-06-19T13:24:59.719Z</time>
      </trkpt>
      <trkpt lat="49.25455" lon="2.07867">
        <ele>171.491097</ele>
        <time>2025-06-19T13:25:01.720Z</time>
      </trkpt>
      <trkpt lat="49.25465" lon="2.0787">
        <ele>171.542092</ele>
        <time>2025-06-19T13:25:03.709Z</time>
      </trkpt>
      <trkpt lat="49.25475" lon="2.07873">
        <ele>171.590718</ele>
        <time>2025-06-19T13:25:05.711Z</time>
      </trkpt>
      <trkpt lat="49.25484" lon="2.07877">
        <ele>171.639978</ele>
        <time>2025-06-19T13:25:07.705Z</time>
      </trkpt>
      <trkpt lat="49.25494" lon="2.07881">
        <ele>171.689726</ele>
        <time>2025-06-19T13:25:09.716Z</time>
      </trkpt>
      <trkpt lat="49.25504" lon="2.07884">
        <ele>171.739885</ele>
        <time>2025-06-19T13:25:11.709Z</time>
      </trkpt>
      <trkpt lat="49.25514" lon="2.07888">
        <ele>171.790753</ele>
        <time>2025-06-19T13:25:13.713Z</time>
      </trkpt>
      <trkpt lat="49.25523" lon="2.07891">
        <ele>171.839379</ele>
        <time>2025-06-19T13:25:15.718Z</time>
      </trkpt>
      <trkpt lat="49.26352" lon="2.07669">
        <ele>176.351509</ele>
        <time>2025-06-19T13:28:36.053Z</time>
      </trkpt>
      <trkpt lat="49.26354" lon="2.07651">
        <ele>176.542127</ele>
        <time>2025-06-19T13:28:37.693Z</time>
      </trkpt>
      <trkpt lat="49.26354" lon="2.07631">
        <ele>176.755357</ele>
        <time>2025-06-19T13:28:39.694Z</time>
      </trkpt>
      <trkpt lat="49.26356" lon="2.07614">
        <ele>176.949398</ele>
        <time>2025-06-19T13:28:41.698Z</time>
      </trkpt>
      <trkpt lat="49.26358" lon="2.07596">
        <ele>177.138554</ele>
        <time>2025-06-19T13:28:43.691Z</time>
      </trkpt>
      <trkpt lat="49.26361" lon="2.07578">
        <ele>177.339933</ele>
        <time>2025-06-19T13:28:45.693Z</time>
      </trkpt>
      <trkpt lat="49.26364" lon="2.07563">
        <ele>177.505799</ele>
        <time>2025-06-19T13:28:47.698Z</time>
      </trkpt>
      <trkpt lat="49.26363" lon="2.07543">
        <ele>177.720301</ele>
        <time>2025-06-19T13:28:49.703Z</time>
      </trkpt>
      <trkpt lat="49.26363" lon="2.07525">
        <ele>177.908892</ele>
        <time>2025-06-19T13:28:51.696Z</time>
      </trkpt>
      <trkpt lat="49.26364" lon="2.07508">
        <ele>178.09864</ele>
        <time>2025-06-19T13:28:53.691Z</time>
      </trkpt>
      <trkpt lat="49.26363" lon="2.07491">
        <ele>178.281875</ele>
        <time>2025-06-19T13:28:55.696Z</time>
      </trkpt>
      <trkpt lat="49.26362" lon="2.07474">
        <ele>178.460639</ele>
        <time>2025-06-19T13:28:57.697Z</time>
      </trkpt>
      <trkpt lat="49.26361" lon="2.07458">
        <ele>178.634074</ele>
        <time>2025-06-19T13:28:59.697Z</time>
      </trkpt>
      <trkpt lat="49.2636" lon="2.07442">
        <ele>178.804494</ele>
        <time>2025-06-19T13:29:01.691Z</time>
      </trkpt>
      <trkpt lat="49.26359" lon="2.07428">
        <ele>178.916109</ele>
        <time>2025-06-19T13:29:03.698Z</time>
      </trkpt>
      <trkpt lat="49.26357" lon="2.07413">
        <ele>178.68076</ele>
        <time>2025-06-19T13:29:05.695Z</time>
      </trkpt>
      <trkpt lat="49.26356" lon="2.07396">
        <ele>178.429722</ele>
        <time>2025-06-19T13:29:07.700Z</time>
      </trkpt>
      <trkpt lat="49.26355" lon="2.0738">
        <ele>178.188919</ele>
        <time>2025-06-19T13:29:09.694Z</time>
      </trkpt>
      <trkpt lat="49.26354" lon="2.07365">
        <ele>177.965239</ele>
        <time>2025-06-19T13:29:11.696Z</time>
      </trkpt>
      <trkpt lat="49.26354" lon="2.07351">
        <ele>177.750061</ele>
        <time>2025-06-19T13:29:13.697Z</time>
      </trkpt>
      <trkpt lat="49.26353" lon="2.07337">
        <ele>177.534096</ele>
        <time>2025-06-19T13:29:15.690Z</time>
      </trkpt>
      <trkpt lat="49.26351" lon="2.07322">
        <ele>177.306872</ele>
        <time>2025-06-19T13:29:17.698Z</time>
      </trkpt>
      <trkpt lat="49.2635" lon="2.07306">
        <ele>177.067733</ele>
        <time>2025-06-19T13:29:19.709Z</time>
      </trkpt>
      <trkpt lat="49.26349" lon="2.07291">
        <ele>176.844302</ele>
        <time>2025-06-19T13:29:21.705Z</time>
      </trkpt>
      <trkpt lat="49.26348" lon="2.07276">
        <ele>176.606352</ele>
        <time>2025-06-19T13:29:23.714Z</time>
      </trkpt>
      <trkpt lat="49.26346" lon="2.07259">
        <ele>176.356232</ele>
        <time>2025-06-19T13:29:25.708Z</time>
      </trkpt>
      <trkpt lat="49.26345" lon="2.07243">
        <ele>176.117625</ele>
        <time>2025-06-19T13:29:27.715Z</time>
      </trkpt>
      <trkpt lat="49.26343" lon="2.07229">
        <ele>175.896545</ele>
        <time>2025-06-19T13:29:29.711Z</time>
      </trkpt>
      <trkpt lat="49.2634" lon="2.07215">
        <ele>175.680204</ele>
        <time>2025-06-19T13:29:31.705Z</time>
      </trkpt>
      <trkpt lat="49.26338" lon="2.07201">
        <ele>175.456125</ele>
        <time>2025-06-19T13:29:33.695Z</time>
      </trkpt>
      <trkpt lat="49.26336" lon="2.07184">
        <ele>175.210421</ele>
        <time>2025-06-19T13:29:35.691Z</time>
      </trkpt>
      <trkpt lat="49.26336" lon="2.07168">
        <ele>174.968656</ele>
        <time>2025-06-19T13:29:37.706Z</time>
      </trkpt>
      <trkpt lat="49.26335" lon="2.07152">
        <ele>174.904983</ele>
        <time>2025-06-19T13:29:39.727Z</time>
      </trkpt>
      <trkpt lat="49.26333" lon="2.07137">
        <ele>175.246187</ele>
        <time>2025-06-19T13:29:41.705Z</time>
      </trkpt>
      <trkpt lat="49.26332" lon="2.07122">
        <ele>175.584124</ele>
        <time>2025-06-19T13:29:43.691Z</time>
      </trkpt>
      <trkpt lat="49.26332" lon="2.07108">
        <ele>175.900803</ele>
        <time>2025-06-19T13:29:45.698Z</time>
      </trkpt>
      <trkpt lat="49.2633" lon="2.07093">
        <ele>176.219797</ele>
        <time>2025-06-19T13:29:47.712Z</time>
      </trkpt>
      <trkpt lat="49.26329" lon="2.07079">
        <ele>176.546363</ele>
        <time>2025-06-19T13:29:49.708Z</time>
      </trkpt>
      <trkpt lat="49.26327" lon="2.07064">
        <ele>176.875104</ele>
        <time>2025-06-19T13:29:51.706Z</time>
      </trkpt>
      <trkpt lat="49.26325" lon="2.07049">
        <ele>177.221866</ele>
        <time>2025-06-19T13:29:53.702Z</time>
      </trkpt>
      <trkpt lat="49.26323" lon="2.07033">
        <ele>177.576729</ele>
        <time>2025-06-19T13:29:55.705Z</time>
      </trkpt>
      <trkpt lat="49.26321" lon="2.07018">
        <ele>177.921747</ele>
        <time>2025-06-19T13:29:57.686Z</time>
      </trkpt>
      <trkpt lat="49.26321" lon="2.07002">
        <ele>178.2633</ele>
        <time>2025-06-19T13:29:59.716Z</time>
      </trkpt>
      <trkpt lat="49.26319" lon="2.06986">
        <ele>178.633739</ele>
        <time>2025-06-19T13:30:01.710Z</time>
      </trkpt>
      <trkpt lat="49.26316" lon="2.06969">
        <ele>179.010682</ele>
        <time>2025-06-19T13:30:03.685Z</time>
      </trkpt>
      <trkpt lat="49.26315" lon="2.06952">
        <ele>179.402652</ele>
        <time>2025-06-19T13:30:05.712Z</time>
      </trkpt>
      <trkpt lat="49.26312" lon="2.06935">
        <ele>179.778939</ele>
        <time>2025-06-19T13:30:07.707Z</time>
      </trkpt>
      <trkpt lat="49.26312" lon="2.06918">
        <ele>180.153836</ele>
        <time>2025-06-19T13:30:09.718Z</time>
      </trkpt>
      <trkpt lat="49.26311" lon="2.06901">
        <ele>180.539187</ele>
        <time>2025-06-19T13:30:11.705Z</time>
      </trkpt>
      <trkpt lat="49.26311" lon="2.06883">
        <ele>180.885366</ele>
        <time>2025-06-19T13:30:13.719Z</time>
      </trkpt>
      <trkpt lat="49.26312" lon="2.06867">
        <ele>180.726909</ele>
        <time>2025-06-19T13:30:15.716Z</time>
      </trkpt>
      <trkpt lat="49.26313" lon="2.06849">
        <ele>180.560684</ele>
        <time>2025-06-19T13:30:17.714Z</time>
      </trkpt>
      <trkpt lat="49.26314" lon="2.06832">
        <ele>180.397183</ele>
        <time>2025-06-19T13:30:19.722Z</time>
      </trkpt>
      <trkpt lat="49.26316" lon="2.06816">
        <ele>180.237588</ele>
        <time>2025-06-19T13:30:21.722Z</time>
      </trkpt>
      <trkpt lat="49.26317" lon="2.06798">
        <ele>180.070245</ele>
        <time>2025-06-19T13:30:23.714Z</time>
      </trkpt>
      <trkpt lat="49.26318" lon="2.0678">
        <ele>179.897934</ele>
        <time>2025-06-19T13:30:25.721Z</time>
      </trkpt>
      <trkpt lat="49.26319" lon="2.06762">
        <ele>179.718415</ele>
        <time>2025-06-19T13:30:27.713Z</time>
      </trkpt>
      <trkpt lat="49.2632" lon="2.06742">
        <ele>179.532344</ele>
        <time>2025-06-19T13:30:29.723Z</time>
      </trkpt>
      <trkpt lat="49.26322" lon="2.06723">
        <ele>179.34499</ele>
        <time>2025-06-19T13:30:31.722Z</time>
      </trkpt>
      <trkpt lat="49.26323" lon="2.06702">
        <ele>179.151379</ele>
        <time>2025-06-19T13:30:33.719Z</time>
      </trkpt>
      <trkpt lat="49.26325" lon="2.06683">
        <ele>178.962661</ele>
        <time>2025-06-19T13:30:35.711Z</time>
      </trkpt>
      <trkpt lat="49.26326" lon="2.06662">
        <ele>178.760368</ele>
        <time>2025-06-19T13:30:37.710Z</time>
      </trkpt>
      <trkpt lat="49.26331" lon="2.06641">
        <ele>178.551951</ele>
        <time>2025-06-19T13:30:39.706Z</time>
      </trkpt>
      <trkpt lat="49.26338" lon="2.06621">
        <ele>178.33725</ele>
        <time>2025-06-19T13:30:41.703Z</time>
      </trkpt>
      <trkpt lat="49.26344" lon="2.06601">
        <ele>178.185393</ele>
        <time>2025-06-19T13:30:43.714Z</time>
      </trkpt>
      <trkpt lat="49.26352" lon="2.06581">
        <ele>178.054848</ele>
        <time>2025-06-19T13:30:45.715Z</time>
      </trkpt>
      <trkpt lat="49.2636" lon="2.06561">
        <ele>177.923581</ele>
        <time>2025-06-19T13:30:47.729Z</time>
      </trkpt>
      <trkpt lat="49.26368" lon="2.0654">
        <ele>177.784226</ele>
        <time>2025-06-19T13:30:49.705Z</time>
      </trkpt>
      <trkpt lat="49.26376" lon="2.06518">
        <ele>177.643879</ele>
        <time>2025-06-19T13:30:51.704Z</time>
      </trkpt>
      <trkpt lat="49.26383" lon="2.06496">
        <ele>177.50651</ele>
        <time>2025-06-19T13:30:53.705Z</time>
      </trkpt>
      <trkpt lat="49.2639" lon="2.06475">
        <ele>177.371527</ele>
        <time>2025-06-19T13:30:55.693Z</time>
      </trkpt>
      <trkpt lat="49.26396" lon="2.06453">
        <ele>177.241399</ele>
        <time>2025-06-19T13:30:57.710Z</time>
      </trkpt>
      <trkpt lat="49.264" lon="2.06432">
        <ele>177.114595</ele>
        <time>2025-06-19T13:30:59.694Z</time>
      </trkpt>
      <trkpt lat="49.26405" lon="2.06412">
        <ele>176.993919</ele>
        <time>2025-06-19T13:31:01.696Z</time>
      </trkpt>
      <trkpt lat="49.2641" lon="2.06392">
        <ele>176.875269</ele>
        <time>2025-06-19T13:31:03.701Z</time>
      </trkpt>
      <trkpt lat="49.26416" lon="2.06373">
        <ele>176.75825</ele>
        <time>2025-06-19T13:31:05.704Z</time>
      </trkpt>
      <trkpt lat="49.26421" lon="2.06353">
        <ele>176.87307</ele>
        <time>2025-06-19T13:31:07.713Z</time>
      </trkpt>
      <trkpt lat="49.26426" lon="2.06332">
        <ele>177.090267</ele>
        <time>2025-06-19T13:31:09.707Z</time>
      </trkpt>
      <trkpt lat="49.26431" lon="2.06313">
        <ele>177.300193</ele>
        <time>2025-06-19T13:31:11.697Z</time>
      </trkpt>
      <trkpt lat="49.26435" lon="2.06295">
        <ele>177.498036</ele>
        <time>2025-06-19T13:31:13.704Z</time>
      </trkpt>
      <trkpt lat="49.26441" lon="2.06278">
        <ele>177.68191</ele>
        <time>2025-06-19T13:31:15.711Z</time>
      </trkpt>
      <trkpt lat="49.26447" lon="2.06263">
        <ele>177.858596</ele>
        <time>2025-06-19T13:31:17.713Z</time>
      </trkpt>
      <trkpt lat="49.26453" lon="2.0625">
        <ele>178.023416</ele>
        <time>2025-06-19T13:31:19.701Z</time>
      </trkpt>
      <trkpt lat="49.2646" lon="2.06238">
        <ele>178.18743</ele>
        <time>2025-06-19T13:31:21.695Z</time>
      </trkpt>
      <trkpt lat="49.26467" lon="2.06227">
        <ele>178.340522</ele>
        <time>2025-06-19T13:31:23.698Z</time>
      </trkpt>
      <trkpt lat="49.26475" lon="2.06217">
        <ele>178.496302</ele>
        <time>2025-06-19T13:31:25.706Z</time>
      </trkpt>
      <trkpt lat="49.26484" lon="2.06209">
        <ele>178.659053</ele>
        <time>2025-06-19T13:31:27.696Z</time>
      </trkpt>
      <trkpt lat="49.26493" lon="2.06201">
        <ele>178.82279</ele>
        <time>2025-06-19T13:31:29.710Z</time>
      </trkpt>
      <trkpt lat="49.26503" lon="2.06194">
        <ele>178.993005</ele>
        <time>2025-06-19T13:31:31.705Z</time>
      </trkpt>
      <trkpt lat="49.26513" lon="2.06187">
        <ele>179.156111</ele>
        <time>2025-06-19T13:31:33.707Z</time>
      </trkpt>
      <trkpt lat="49.26522" lon="2.06181">
        <ele>179.309774</ele>
        <time>2025-06-19T13:31:35.705Z</time>
      </trkpt>
      <trkpt lat="49.26531" lon="2.06173">
        <ele>179.469834</ele>
        <time>2025-06-19T13:31:37.704Z</time>
      </trkpt>
      <trkpt lat="49.2654" lon="2.06167">
        <ele>179.576519</ele>
        <time>2025-06-19T13:31:39.695Z</time>
      </trkpt>
      <trkpt lat="49.26548" lon="2.0616">
        <ele>179.667645</ele>
        <time>2025-06-19T13:31:41.725Z</time>
      </trkpt>
      <trkpt lat="49.26558" lon="2.06152">
        <ele>179.765532</ele>
        <time>2025-06-19T13:31:43.704Z</time>
      </trkpt>
      <trkpt lat="49.26566" lon="2.06146">
        <ele>179.858933</ele>
        <time>2025-06-19T13:31:45.723Z</time>
      </trkpt>
      <trkpt lat="49.26575" lon="2.06139">
        <ele>179.953147</ele>
        <time>2025-06-19T13:31:47.705Z</time>
      </trkpt>
      <trkpt lat="49.26584" lon="2.06132">
        <ele>180.049332</ele>
        <time>2025-06-19T13:31:49.719Z</time>
      </trkpt>
      <trkpt lat="49.26594" lon="2.06125">
        <ele>180.146426</ele>
        <time>2025-06-19T13:31:51.714Z</time>
      </trkpt>
      <trkpt lat="49.26602" lon="2.06119">
        <ele>180.238393</ele>
        <time>2025-06-19T13:31:53.721Z</time>
      </trkpt>
      <trkpt lat="49.26611" lon="2.06111">
        <ele>180.336043</ele>
        <time>2025-06-19T13:31:55.722Z</time>
      </trkpt>
      <trkpt lat="49.26621" lon="2.06104">
        <ele>180.435877</ele>
        <time>2025-06-19T13:31:57.712Z</time>
      </trkpt>
      <trkpt lat="49.2663" lon="2.06097">
        <ele>180.532346</ele>
        <time>2025-06-19T13:31:59.716Z</time>
      </trkpt>
      <trkpt lat="49.26638" lon="2.06089">
        <ele>180.625393</ele>
        <time>2025-06-19T13:32:01.702Z</time>
      </trkpt>
      <trkpt lat="49.26647" lon="2.06081">
        <ele>180.71936</ele>
        <time>2025-06-19T13:32:03.716Z</time>
      </trkpt>
      <trkpt lat="49.26656" lon="2.06075">
        <ele>180.809398</ele>
        <time>2025-06-19T13:32:05.716Z</time>
      </trkpt>
      <trkpt lat="49.26664" lon="2.06068">
        <ele>180.904453</ele>
        <time>2025-06-19T13:32:07.712Z</time>
      </trkpt>
      <trkpt lat="49.26673" lon="2.06061">
        <ele>180.99585</ele>
        <time>2025-06-19T13:32:09.715Z</time>
      </trkpt>
      <trkpt lat="49.26682" lon="2.06055">
        <ele>181.090372</ele>
        <time>2025-06-19T13:32:11.711Z</time>
      </trkpt>
      <trkpt lat="49.26691" lon="2.06048">
        <ele>181.187407</ele>
        <time>2025-06-19T13:32:13.702Z</time>
      </trkpt>
      <trkpt lat="49.267" lon="2.06041">
        <ele>181.235749</ele>
        <time>2025-06-19T13:32:15.716Z</time>
      </trkpt>
      <trkpt lat="49.26709" lon="2.06034">
        <ele>181.275648</ele>
        <time>2025-06-19T13:32:17.708Z</time>
      </trkpt>
      <trkpt lat="49.26718" lon="2.06027">
        <ele>181.316636</ele>
        <time>2025-06-19T13:32:19.701Z</time>
      </trkpt>
      <trkpt lat="49.26727" lon="2.0602">
        <ele>181.357384</ele>
        <time>2025-06-19T13:32:21.714Z</time>
      </trkpt>
      <trkpt lat="49.26735" lon="2.06014">
        <ele>181.395216</ele>
        <time>2025-06-19T13:32:23.704Z</time>
      </trkpt>
      <trkpt lat="49.26744" lon="2.06008">
        <ele>181.436021</ele>
        <time>2025-06-19T13:32:25.717Z</time>
      </trkpt>
      <trkpt lat="49.26753" lon="2.06001">
        <ele>181.47531</ele>
        <time>2025-06-19T13:32:27.693Z</time>
      </trkpt>
      <trkpt lat="49.26761" lon="2.05994">
        <ele>181.516438</ele>
        <time>2025-06-19T13:32:29.710Z</time>
      </trkpt>
      <trkpt lat="49.2677" lon="2.05986">
        <ele>181.558542</ele>
        <time>2025-06-19T13:32:31.718Z</time>
      </trkpt>
      <trkpt lat="49.26779" lon="2.05979">
        <ele>181.600382</ele>
        <time>2025-06-19T13:32:33.701Z</time>
      </trkpt>
      <trkpt lat="49.26788" lon="2.05972">
        <ele>181.64101</ele>
        <time>2025-06-19T13:32:35.702Z</time>
      </trkpt>
      <trkpt lat="49.26797" lon="2.05965">
        <ele>181.681197</ele>
        <time>2025-06-19T13:32:37.692Z</time>
      </trkpt>
      <trkpt lat="49.26806" lon="2.05957">
        <ele>181.723407</ele>
        <time>2025-06-19T13:32:39.701Z</time>
      </trkpt>
      <trkpt lat="49.26816" lon="2.05951">
        <ele>181.769048</ele>
        <time>2025-06-19T13:32:41.702Z</time>
      </trkpt>
      <trkpt lat="49.26826" lon="2.05943">
        <ele>181.813721</ele>
        <time>2025-06-19T13:32:43.690Z</time>
      </trkpt>
      <trkpt lat="49.26835" lon="2.05935">
        <ele>181.857999</ele>
        <time>2025-06-19T13:32:45.699Z</time>
      </trkpt>
      <trkpt lat="49.26845" lon="2.05928">
        <ele>181.90215</ele>
        <time>2025-06-19T13:32:47.703Z</time>
      </trkpt>
      <trkpt lat="49.26855" lon="2.0592">
        <ele>181.967524</ele>
        <time>2025-06-19T13:32:49.694Z</time>
      </trkpt>
      <trkpt lat="49.26865" lon="2.05913">
        <ele>182.112139</ele>
        <time>2025-06-19T13:32:51.706Z</time>
      </trkpt>
      <trkpt lat="49.26875" lon="2.05905">
        <ele>182.254852</ele>
        <time>2025-06-19T13:32:53.710Z</time>
      </trkpt>
      <trkpt lat="49.26885" lon="2.05898">
        <ele>182.396658</ele>
        <time>2025-06-19T13:32:55.701Z</time>
      </trkpt>
      <trkpt lat="49.26895" lon="2.0589">
        <ele>182.537117</ele>
        <time>2025-06-19T13:32:57.712Z</time>
      </trkpt>
      <trkpt lat="49.26905" lon="2.05882">
        <ele>182.680642</ele>
        <time>2025-06-19T13:32:59.720Z</time>
      </trkpt>
      <trkpt lat="49.26915" lon="2.05873">
        <ele>182.826166</ele>
        <time>2025-06-19T13:33:01.705Z</time>
      </trkpt>
      <trkpt lat="49.26924" lon="2.05864">
        <ele>182.96787</ele>
        <time>2025-06-19T13:33:03.702Z</time>
      </trkpt>
      <trkpt lat="49.26934" lon="2.05855">
        <ele>183.111662</ele>
        <time>2025-06-19T13:33:05.704Z</time>
      </trkpt>
      <trkpt lat="49.26943" lon="2.05845">
        <ele>183.253537</ele>
        <time>2025-06-19T13:33:07.709Z</time>
      </trkpt>
      <trkpt lat="49.26951" lon="2.05835">
        <ele>183.38786</ele>
        <time>2025-06-19T13:33:09.697Z</time>
      </trkpt>
      <trkpt lat="49.2696" lon="2.05825">
        <ele>183.525679</ele>
        <time>2025-06-19T13:33:11.703Z</time>
      </trkpt>
      <trkpt lat="49.26969" lon="2.05815">
        <ele>183.668026</ele>
        <time>2025-06-19T13:33:13.705Z</time>
      </trkpt>
      <trkpt lat="49.26978" lon="2.05804">
        <ele>183.810424</ele>
        <time>2025-06-19T13:33:15.709Z</time>
      </trkpt>
      <trkpt lat="49.26987" lon="2.05794">
        <ele>183.954307</ele>
        <time>2025-06-19T13:33:17.709Z</time>
      </trkpt>
      <trkpt lat="49.26996" lon="2.05784">
        <ele>184.094725</ele>
        <time>2025-06-19T13:33:19.703Z</time>
      </trkpt>
      <trkpt lat="49.27004" lon="2.05774">
        <ele>184.221716</ele>
        <time>2025-06-19T13:33:21.697Z</time>
      </trkpt>
      <trkpt lat="49.27012" lon="2.05764">
        <ele>184.151572</ele>
        <time>2025-06-19T13:33:23.695Z</time>
      </trkpt>
      <trkpt lat="49.27021" lon="2.05754">
        <ele>184.080469</ele>
        <time>2025-06-19T13:33:25.704Z</time>
      </trkpt>
      <trkpt lat="49.27029" lon="2.05744">
        <ele>184.010664</ele>
        <time>2025-06-19T13:33:27.702Z</time>
      </trkpt>
      <trkpt lat="49.27037" lon="2.05735">
        <ele>183.943791</ele>
        <time>2025-06-19T13:33:29.704Z</time>
      </trkpt>
      <trkpt lat="49.27045" lon="2.05725">
        <ele>183.876389</ele>
        <time>2025-06-19T13:33:31.701Z</time>
      </trkpt>
      <trkpt lat="49.27053" lon="2.05715">
        <ele>183.806601</ele>
        <time>2025-06-19T13:33:33.716Z</time>
      </trkpt>
      <trkpt lat="49.27062" lon="2.05706">
        <ele>183.735961</ele>
        <time>2025-06-19T13:33:35.701Z</time>
      </trkpt>
      <trkpt lat="49.2707" lon="2.05696">
        <ele>183.666379</ele>
        <time>2025-06-19T13:33:37.707Z</time>
      </trkpt>
      <trkpt lat="49.27079" lon="2.05686">
        <ele>183.592639</ele>
        <time>2025-06-19T13:33:39.700Z</time>
      </trkpt>
      <trkpt lat="49.27088" lon="2.05675">
        <ele>183.51599</ele>
        <time>2025-06-19T13:33:41.714Z</time>
      </trkpt>
      <trkpt lat="49.27097" lon="2.05664">
        <ele>183.441718</ele>
        <time>2025-06-19T13:33:43.709Z</time>
      </trkpt>
      <trkpt lat="49.27106" lon="2.05653">
        <ele>183.364803</ele>
        <time>2025-06-19T13:33:45.716Z</time>
      </trkpt>
      <trkpt lat="49.27115" lon="2.05642">
        <ele>183.287095</ele>
        <time>2025-06-19T13:33:47.696Z</time>
      </trkpt>
      <trkpt lat="49.27125" lon="2.0563">
        <ele>183.202513</ele>
        <time>2025-06-19T13:33:49.711Z</time>
      </trkpt>
      <trkpt lat="49.27136" lon="2.05618">
        <ele>183.113443</ele>
        <time>2025-06-19T13:33:51.703Z</time>
      </trkpt>
      <trkpt lat="49.27147" lon="2.05605">
        <ele>183.031665</ele>
        <time>2025-06-19T13:33:53.706Z</time>
      </trkpt>
      <trkpt lat="49.27156" lon="2.05593">
        <ele>183.128984</ele>
        <time>2025-06-19T13:33:55.702Z</time>
      </trkpt>
      <trkpt lat="49.27166" lon="2.0558">
        <ele>183.225342</ele>
        <time>2025-06-19T13:33:57.713Z</time>
      </trkpt>
      <trkpt lat="49.27175" lon="2.05569">
        <ele>183.318619</ele>
        <time>2025-06-19T13:33:59.707Z</time>
      </trkpt>
      <trkpt lat="49.27185" lon="2.05557">
        <ele>183.411876</ele>
        <time>2025-06-19T13:34:01.722Z</time>
      </trkpt>
      <trkpt lat="49.27195" lon="2.05546">
        <ele>183.505752</ele>
        <time>2025-06-19T13:34:03.711Z</time>
      </trkpt>
      <trkpt lat="49.27204" lon="2.05535">
        <ele>183.594484</ele>
        <time>2025-06-19T13:34:05.704Z</time>
      </trkpt>
      <trkpt lat="49.27213" lon="2.05524">
        <ele>183.682279</ele>
        <time>2025-06-19T13:34:07.697Z</time>
      </trkpt>
      <trkpt lat="49.27222" lon="2.05514">
        <ele>183.766725</ele>
        <time>2025-06-19T13:34:09.703Z</time>
      </trkpt>
      <trkpt lat="49.27231" lon="2.05503">
        <ele>183.852083</ele>
        <time>2025-06-19T13:34:11.702Z</time>
      </trkpt>
      <trkpt lat="49.27239" lon="2.05492">
        <ele>183.938087</ele>
        <time>2025-06-19T13:34:13.709Z</time>
      </trkpt>
      <trkpt lat="49.27248" lon="2.05483">
        <ele>184.021637</ele>
        <time>2025-06-19T13:34:15.700Z</time>
      </trkpt>
      <trkpt lat="49.27257" lon="2.05472">
        <ele>184.108221</ele>
        <time>2025-06-19T13:34:17.704Z</time>
      </trkpt>
      <trkpt lat="49.27266" lon="2.05462">
        <ele>184.194796</ele>
        <time>2025-06-19T13:34:19.712Z</time>
      </trkpt>
      <trkpt lat="49.27275" lon="2.0545">
        <ele>184.283213</ele>
        <time>2025-06-19T13:34:21.700Z</time>
      </trkpt>
      <trkpt lat="49.27284" lon="2.0544">
        <ele>184.369827</ele>
        <time>2025-06-19T13:34:23.715Z</time>
      </trkpt>
      <trkpt lat="49.27293" lon="2.05429">
        <ele>184.406433</ele>
        <time>2025-06-19T13:34:25.701Z</time>
      </trkpt>
      <trkpt lat="49.27302" lon="2.05419">
        <ele>184.411164</ele>
        <time>2025-06-19T13:34:27.710Z</time>
      </trkpt>
      <trkpt lat="49.2731" lon="2.05408">
        <ele>184.415833</ele>
        <time>2025-06-19T13:34:29.702Z</time>
      </trkpt>
      <trkpt lat="49.27318" lon="2.05397">
        <ele>184.420442</ele>
        <time>2025-06-19T13:34:31.700Z</time>
      </trkpt>
      <trkpt lat="49.27326" lon="2.05387">
        <ele>184.424885</ele>
        <time>2025-06-19T13:34:33.704Z</time>
      </trkpt>
      <trkpt lat="49.27334" lon="2.05378">
        <ele>184.429331</ele>
        <time>2025-06-19T13:34:35.715Z</time>
      </trkpt>
      <trkpt lat="49.27343" lon="2.05368">
        <ele>184.433943</ele>
        <time>2025-06-19T13:34:37.698Z</time>
      </trkpt>
      <trkpt lat="49.27351" lon="2.05358">
        <ele>184.438541</ele>
        <time>2025-06-19T13:34:39.704Z</time>
      </trkpt>
      <trkpt lat="49.27359" lon="2.05348">
        <ele>184.442864</ele>
        <time>2025-06-19T13:34:41.684Z</time>
      </trkpt>
      <trkpt lat="49.27367" lon="2.05339">
        <ele>184.447238</ele>
        <time>2025-06-19T13:34:43.698Z</time>
      </trkpt>
      <trkpt lat="49.27375" lon="2.05329">
        <ele>184.451631</ele>
        <time>2025-06-19T13:34:45.692Z</time>
      </trkpt>
      <trkpt lat="49.27383" lon="2.05318">
        <ele>184.456046</ele>
        <time>2025-06-19T13:34:47.722Z</time>
      </trkpt>
      <trkpt lat="49.27391" lon="2.05309">
        <ele>184.460471</ele>
        <time>2025-06-19T13:34:49.689Z</time>
      </trkpt>
      <trkpt lat="49.274" lon="2.053">
        <ele>184.46487</ele>
        <time>2025-06-19T13:34:51.702Z</time>
      </trkpt>
      <trkpt lat="49.27408" lon="2.05291">
        <ele>184.469278</ele>
        <time>2025-06-19T13:34:53.717Z</time>
      </trkpt>
      <trkpt lat="49.27417" lon="2.05281">
        <ele>184.473924</ele>
        <time>2025-06-19T13:34:55.712Z</time>
      </trkpt>
      <trkpt lat="49.27425" lon="2.05271">
        <ele>184.478503</ele>
        <time>2025-06-19T13:34:57.700Z</time>
      </trkpt>
      <trkpt lat="49.27434" lon="2.05261">
        <ele>184.563246</ele>
        <time>2025-06-19T13:34:59.703Z</time>
      </trkpt>
      <trkpt lat="49.27442" lon="2.0525">
        <ele>184.720468</ele>
        <time>2025-06-19T13:35:01.703Z</time>
      </trkpt>
      <trkpt lat="49.27451" lon="2.0524">
        <ele>184.868681</ele>
        <time>2025-06-19T13:35:03.699Z</time>
      </trkpt>
      <trkpt lat="49.27459" lon="2.05231">
        <ele>185.017441</ele>
        <time>2025-06-19T13:35:05.697Z</time>
      </trkpt>
      <trkpt lat="49.27467" lon="2.05221">
        <ele>185.165237</ele>
        <time>2025-06-19T13:35:07.705Z</time>
      </trkpt>
      <trkpt lat="49.27475" lon="2.0521">
        <ele>185.321339</ele>
        <time>2025-06-19T13:35:09.711Z</time>
      </trkpt>
      <trkpt lat="49.27484" lon="2.052">
        <ele>185.472359</ele>
        <time>2025-06-19T13:35:11.706Z</time>
      </trkpt>
      <trkpt lat="49.27493" lon="2.0519">
        <ele>185.630164</ele>
        <time>2025-06-19T13:35:13.698Z</time>
      </trkpt>
      <trkpt lat="49.27501" lon="2.0518">
        <ele>185.780034</ele>
        <time>2025-06-19T13:35:15.688Z</time>
      </trkpt>
      <trkpt lat="49.27509" lon="2.0517">
        <ele>185.928208</ele>
        <time>2025-06-19T13:35:17.699Z</time>
      </trkpt>
      <trkpt lat="49.27517" lon="2.0516">
        <ele>186.071426</ele>
        <time>2025-06-19T13:35:19.705Z</time>
      </trkpt>
      <trkpt lat="49.27525" lon="2.05151">
        <ele>186.218547</ele>
        <time>2025-06-19T13:35:21.696Z</time>
      </trkpt>
      <trkpt lat="49.27532" lon="2.05142">
        <ele>186.352721</ele>
        <time>2025-06-19T13:35:23.696Z</time>
      </trkpt>
      <trkpt lat="49.27541" lon="2.05133">
        <ele>186.500469</ele>
        <time>2025-06-19T13:35:25.696Z</time>
      </trkpt>
      <trkpt lat="49.27549" lon="2.05123">
        <ele>186.647521</ele>
        <time>2025-06-19T13:35:27.703Z</time>
      </trkpt>
      <trkpt lat="49.27557" lon="2.05114">
        <ele>186.791337</ele>
        <time>2025-06-19T13:35:29.703Z</time>
      </trkpt>
      <trkpt lat="49.27565" lon="2.05105">
        <ele>186.933901</ele>
        <time>2025-06-19T13:35:31.703Z</time>
      </trkpt>
      <trkpt lat="49.27574" lon="2.05095">
        <ele>187.081929</ele>
        <time>2025-06-19T13:35:33.711Z</time>
      </trkpt>
      <trkpt lat="49.27581" lon="2.05086">
        <ele>187.228316</ele>
        <time>2025-06-19T13:35:35.702Z</time>
      </trkpt>
      <trkpt lat="49.27589" lon="2.05077">
        <ele>187.368139</ele>
        <time>2025-06-19T13:35:37.694Z</time>
      </trkpt>
      <trkpt lat="49.27596" lon="2.05069">
        <ele>187.509085</ele>
        <time>2025-06-19T13:35:39.724Z</time>
      </trkpt>
      <trkpt lat="49.27604" lon="2.0506">
        <ele>187.655347</ele>
        <time>2025-06-19T13:35:41.710Z</time>
      </trkpt>
      <trkpt lat="49.27613" lon="2.05052">
        <ele>187.802003</ele>
        <time>2025-06-19T13:35:43.690Z</time>
      </trkpt>
      <trkpt lat="49.27621" lon="2.05045">
        <ele>187.944486</ele>
        <time>2025-06-19T13:35:45.694Z</time>
      </trkpt>
      <trkpt lat="49.2763" lon="2.0504">
        <ele>188.087432</ele>
        <time>2025-06-19T13:35:47.703Z</time>
      </trkpt>
      <trkpt lat="49.2764" lon="2.05035">
        <ele>188.23944</ele>
        <time>2025-06-19T13:35:49.712Z</time>
      </trkpt>
      <trkpt lat="49.27651" lon="2.05034">
        <ele>188.402084</ele>
        <time>2025-06-19T13:35:51.708Z</time>
      </trkpt>
      <trkpt lat="49.27661" lon="2.05033">
        <ele>188.551001</ele>
        <time>2025-06-19T13:35:53.694Z</time>
      </trkpt>
      <trkpt lat="49.27672" lon="2.05033">
        <ele>188.712916</ele>
        <time>2025-06-19T13:35:55.706Z</time>
      </trkpt>
      <trkpt lat="49.27681" lon="2.05031">
        <ele>188.846388</ele>
        <time>2025-06-19T13:35:57.712Z</time>
      </trkpt>
      <trkpt lat="49.27695" lon="2.05029">
        <ele>189.053362</ele>
        <time>2025-06-19T13:36:00.715Z</time>
      </trkpt>
      <trkpt lat="49.27705" lon="2.05028">
        <ele>189.209688</ele>
        <time>2025-06-19T13:36:02.699Z</time>
      </trkpt>
      <trkpt lat="49.27716" lon="2.05027">
        <ele>189.364759</ele>
        <time>2025-06-19T13:36:04.702Z</time>
      </trkpt>
      <trkpt lat="49.27727" lon="2.05025">
        <ele>189.530042</ele>
        <time>2025-06-19T13:36:06.707Z</time>
      </trkpt>
      <trkpt lat="49.27738" lon="2.05025">
        <ele>189.695055</ele>
        <time>2025-06-19T13:36:08.696Z</time>
      </trkpt>
      <trkpt lat="49.27749" lon="2.05024">
        <ele>189.482649</ele>
        <time>2025-06-19T13:36:10.694Z</time>
      </trkpt>
      <trkpt lat="49.2776" lon="2.05019">
        <ele>189.233049</ele>
        <time>2025-06-19T13:36:12.703Z</time>
      </trkpt>
      <trkpt lat="49.2777" lon="2.05012">
        <ele>188.981587</ele>
        <time>2025-06-19T13:36:14.701Z</time>
      </trkpt>
      <trkpt lat="49.2778" lon="2.05005">
        <ele>188.725329</ele>
        <time>2025-06-19T13:36:16.696Z</time>
      </trkpt>
      <trkpt lat="49.27788" lon="2.04995">
        <ele>188.481448</ele>
        <time>2025-06-19T13:36:18.702Z</time>
      </trkpt>
      <trkpt lat="49.27797" lon="2.04984">
        <ele>188.220488</ele>
        <time>2025-06-19T13:36:20.702Z</time>
      </trkpt>
      <trkpt lat="49.27802" lon="2.04968">
        <ele>187.952335</ele>
        <time>2025-06-19T13:36:22.705Z</time>
      </trkpt>
      <trkpt lat="49.27805" lon="2.04951">
        <ele>187.689477</ele>
        <time>2025-06-19T13:36:24.690Z</time>
      </trkpt>
      <trkpt lat="49.27805" lon="2.04933">
        <ele>187.420122</ele>
        <time>2025-06-19T13:36:26.699Z</time>
      </trkpt>
      <trkpt lat="49.27805" lon="2.04916">
        <ele>187.164308</ele>
        <time>2025-06-19T13:36:28.691Z</time>
      </trkpt>
      <trkpt lat="49.27804" lon="2.04897">
        <ele>186.888818</ele>
        <time>2025-06-19T13:36:30.693Z</time>
      </trkpt>
      <trkpt lat="49.27804" lon="2.04882">
        <ele>186.65245</ele>
        <time>2025-06-19T13:36:32.701Z</time>
      </trkpt>
      <trkpt lat="49.27805" lon="2.04867">
        <ele>186.425995</ele>
        <time>2025-06-19T13:36:34.696Z</time>
      </trkpt>
      <trkpt lat="49.27805" lon="2.04851">
        <ele>186.19263</ele>
        <time>2025-06-19T13:36:36.721Z</time>
      </trkpt>
      <trkpt lat="49.27804" lon="2.04833">
        <ele>185.918744</ele>
        <time>2025-06-19T13:36:38.710Z</time>
      </trkpt>
      <trkpt lat="49.27804" lon="2.04814">
        <ele>185.632874</ele>
        <time>2025-06-19T13:36:40.709Z</time>
      </trkpt>
      <trkpt lat="49.27803" lon="2.04796">
        <ele>185.23196</ele>
        <time>2025-06-19T13:36:42.703Z</time>
      </trkpt>
      <trkpt lat="49.27803" lon="2.04781">
        <ele>184.848097</ele>
        <time>2025-06-19T13:36:46.690Z</time>
      </trkpt>
      <trkpt lat="49.278" lon="2.04796">
        <ele>184.470948</ele>
        <time>2025-06-19T13:37:00.705Z</time>
      </trkpt>
      <trkpt lat="49.27801" lon="2.04813">
        <ele>184.03649</ele>
        <time>2025-06-19T13:37:04.730Z</time>
      </trkpt>
      <trkpt lat="49.278" lon="2.04828">
        <ele>183.680613</ele>
        <time>2025-06-19T13:37:07.713Z</time>
      </trkpt>
      <trkpt lat="49.27802" lon="2.04843">
        <ele>183.314279</ele>
        <time>2025-06-19T13:37:10.696Z</time>
      </trkpt>
      <trkpt lat="49.278" lon="2.04859">
        <ele>182.9207</ele>
        <time>2025-06-19T13:37:14.701Z</time>
      </trkpt>
      <trkpt lat="49.27801" lon="2.04874">
        <ele>182.532218</ele>
        <time>2025-06-19T13:37:18.702Z</time>
      </trkpt>
      <trkpt lat="49.27801" lon="2.0489">
        <ele>182.139651</ele>
        <time>2025-06-19T13:37:22.717Z</time>
      </trkpt>
      <trkpt lat="49.27801" lon="2.04907">
        <ele>181.727531</ele>
        <time>2025-06-19T13:37:25.715Z</time>
      </trkpt>
      <trkpt lat="49.27802" lon="2.04923">
        <ele>181.332136</ele>
        <time>2025-06-19T13:37:28.726Z</time>
      </trkpt>
      <trkpt lat="49.27809" lon="2.04934">
        <ele>180.946234</ele>
        <time>2025-06-19T13:37:32.721Z</time>
      </trkpt>
      <trkpt lat="49.27819" lon="2.04931">
        <ele>180.582003</ele>
        <time>2025-06-19T13:37:35.710Z</time>
      </trkpt>
      <trkpt lat="49.27829" lon="2.04934">
        <ele>180.203009</ele>
        <time>2025-06-19T13:37:38.702Z</time>
      </trkpt>
      <trkpt lat="49.2784" lon="2.04938">
        <ele>179.765348</ele>
        <time>2025-06-19T13:37:41.694Z</time>
      </trkpt>
      <trkpt lat="49.27853" lon="2.04942">
        <ele>179.254743</ele>
        <time>2025-06-19T13:37:44.702Z</time>
      </trkpt>
      <trkpt lat="49.27862" lon="2.04946">
        <ele>178.910295</ele>
        <time>2025-06-19T13:37:46.705Z</time>
      </trkpt>
      <trkpt lat="49.27873" lon="2.04949">
        <ele>178.804336</ele>
        <time>2025-06-19T13:37:48.713Z</time>
      </trkpt>
      <trkpt lat="49.27882" lon="2.04952">
        <ele>178.77965</ele>
        <time>2025-06-19T13:37:50.710Z</time>
      </trkpt>
      <trkpt lat="49.27892" lon="2.04957">
        <ele>178.753106</ele>
        <time>2025-06-19T13:37:52.698Z</time>
      </trkpt>
      <trkpt lat="49.27905" lon="2.04957">
        <ele>178.717144</ele>
        <time>2025-06-19T13:37:55.697Z</time>
      </trkpt>
      <trkpt lat="49.27916" lon="2.04948">
        <ele>178.684159</ele>
        <time>2025-06-19T13:37:57.693Z</time>
      </trkpt>
      <trkpt lat="49.2793" lon="2.04937">
        <ele>178.643815</ele>
        <time>2025-06-19T13:37:59.700Z</time>
      </trkpt>
      <trkpt lat="49.27943" lon="2.04927">
        <ele>178.605747</ele>
        <time>2025-06-19T13:38:01.709Z</time>
      </trkpt>
      <trkpt lat="49.27953" lon="2.04916">
        <ele>178.571074</ele>
        <time>2025-06-19T13:38:03.699Z</time>
      </trkpt>
      <trkpt lat="49.27963" lon="2.04902">
        <ele>178.536349</ele>
        <time>2025-06-19T13:38:05.695Z</time>
      </trkpt>
      <trkpt lat="49.27971" lon="2.0489">
        <ele>178.506444</ele>
        <time>2025-06-19T13:38:07.688Z</time>
      </trkpt>
      <trkpt lat="49.27979" lon="2.04875">
        <ele>178.473819</ele>
        <time>2025-06-19T13:38:10.708Z</time>
      </trkpt>
      <trkpt lat="49.27974" lon="2.04858">
        <ele>178.442592</ele>
        <time>2025-06-19T13:38:13.697Z</time>
      </trkpt>
      <trkpt lat="49.27971" lon="2.04845">
        <ele>178.417854</ele>
        <time>2025-06-19T13:38:15.701Z</time>
      </trkpt>
      <trkpt lat="49.27967" lon="2.0483">
        <ele>178.390959</ele>
        <time>2025-06-19T13:38:17.692Z</time>
      </trkpt>
      <trkpt lat="49.27963" lon="2.04816">
        <ele>178.363942</ele>
        <time>2025-06-19T13:38:19.715Z</time>
      </trkpt>
      <trkpt lat="49.2796" lon="2.04799">
        <ele>178.114336</ele>
        <time>2025-06-19T13:38:21.706Z</time>
      </trkpt>
      <trkpt lat="49.27959" lon="2.04781">
        <ele>177.708808</ele>
        <time>2025-06-19T13:38:23.711Z</time>
      </trkpt>
      <trkpt lat="49.27959" lon="2.04762">
        <ele>177.290582</ele>
        <time>2025-06-19T13:38:25.704Z</time>
      </trkpt>
      <trkpt lat="49.27962" lon="2.04744">
        <ele>176.878189</ele>
        <time>2025-06-19T13:38:27.698Z</time>
      </trkpt>
      <trkpt lat="49.27968" lon="2.04726">
        <ele>176.425645</ele>
        <time>2025-06-19T13:38:29.693Z</time>
      </trkpt>
      <trkpt lat="49.27975" lon="2.04708">
        <ele>175.962174</ele>
        <time>2025-06-19T13:38:31.694Z</time>
      </trkpt>
      <trkpt lat="49.27983" lon="2.0469">
        <ele>175.473842</ele>
        <time>2025-06-19T13:38:33.688Z</time>
      </trkpt>
      <trkpt lat="49.27991" lon="2.04672">
        <ele>174.983179</ele>
        <time>2025-06-19T13:38:35.690Z</time>
      </trkpt>
      <trkpt lat="49.28" lon="2.04653">
        <ele>174.462475</ele>
        <time>2025-06-19T13:38:37.706Z</time>
      </trkpt>
      <trkpt lat="49.28008" lon="2.04637">
        <ele>174.020229</ele>
        <time>2025-06-19T13:38:39.706Z</time>
      </trkpt>
      <trkpt lat="49.28014" lon="2.04623">
        <ele>173.651289</ele>
        <time>2025-06-19T13:38:41.705Z</time>
      </trkpt>
      <trkpt lat="49.28021" lon="2.04606">
        <ele>173.211265</ele>
        <time>2025-06-19T13:38:44.720Z</time>
      </trkpt>
      <trkpt lat="49.28028" lon="2.04597">
        <ele>172.897994</ele>
        <time>2025-06-19T13:38:46.715Z</time>
      </trkpt>
      <trkpt lat="49.28037" lon="2.04589">
        <ele>172.548446</ele>
        <time>2025-06-19T13:38:48.709Z</time>
      </trkpt>
      <trkpt lat="49.28045" lon="2.0458">
        <ele>172.233818</ele>
        <time>2025-06-19T13:38:50.707Z</time>
      </trkpt>
      <trkpt lat="49.28054" lon="2.04572">
        <ele>172.402761</ele>
        <time>2025-06-19T13:38:52.713Z</time>
      </trkpt>
      <trkpt lat="49.28062" lon="2.04562">
        <ele>172.572728</ele>
        <time>2025-06-19T13:38:54.715Z</time>
      </trkpt>
      <trkpt lat="49.2807" lon="2.04553">
        <ele>172.740048</ele>
        <time>2025-06-19T13:38:56.700Z</time>
      </trkpt>
      <trkpt lat="49.28077" lon="2.04542">
        <ele>172.907177</ele>
        <time>2025-06-19T13:38:58.715Z</time>
      </trkpt>
      <trkpt lat="49.28083" lon="2.0453">
        <ele>173.074467</ele>
        <time>2025-06-19T13:39:00.706Z</time>
      </trkpt>
      <trkpt lat="49.2809" lon="2.04519">
        <ele>173.243323</ele>
        <time>2025-06-19T13:39:02.701Z</time>
      </trkpt>
      <trkpt lat="49.28097" lon="2.04507">
        <ele>173.405917</ele>
        <time>2025-06-19T13:39:04.703Z</time>
      </trkpt>
      <trkpt lat="49.28102" lon="2.04495">
        <ele>173.56775</ele>
        <time>2025-06-19T13:39:06.703Z</time>
      </trkpt>
      <trkpt lat="49.28111" lon="2.04481">
        <ele>173.778014</ele>
        <time>2025-06-19T13:39:09.696Z</time>
      </trkpt>
      <trkpt lat="49.28118" lon="2.04466">
        <ele>173.977183</ele>
        <time>2025-06-19T13:39:12.697Z</time>
      </trkpt>
      <trkpt lat="49.28126" lon="2.04454">
        <ele>174.159944</ele>
        <time>2025-06-19T13:39:15.703Z</time>
      </trkpt>
      <trkpt lat="49.28133" lon="2.04441">
        <ele>174.347566</ele>
        <time>2025-06-19T13:39:18.697Z</time>
      </trkpt>
      <trkpt lat="49.2814" lon="2.04427">
        <ele>174.533253</ele>
        <time>2025-06-19T13:39:21.693Z</time>
      </trkpt>
      <trkpt lat="49.28147" lon="2.04414">
        <ele>174.718432</ele>
        <time>2025-06-19T13:39:24.720Z</time>
      </trkpt>
      <trkpt lat="49.28155" lon="2.044">
        <ele>174.913738</ele>
        <time>2025-06-19T13:39:27.694Z</time>
      </trkpt>
      <trkpt lat="49.28162" lon="2.04387">
        <ele>175.105062</ele>
        <time>2025-06-19T13:39:30.698Z</time>
      </trkpt>
      <trkpt lat="49.2817" lon="2.04374">
        <ele>175.254416</ele>
        <time>2025-06-19T13:39:33.701Z</time>
      </trkpt>
      <trkpt lat="49.28177" lon="2.04361">
        <ele>175.355741</ele>
        <time>2025-06-19T13:39:36.695Z</time>
      </trkpt>
      <trkpt lat="49.28184" lon="2.04349">
        <ele>175.458139</ele>
        <time>2025-06-19T13:39:39.698Z</time>
      </trkpt>
      <trkpt lat="49.28192" lon="2.04336">
        <ele>175.560668</ele>
        <time>2025-06-19T13:39:42.701Z</time>
      </trkpt>
      <trkpt lat="49.28198" lon="2.04322">
        <ele>175.663433</ele>
        <time>2025-06-19T13:39:45.698Z</time>
      </trkpt>
      <trkpt lat="49.28205" lon="2.0431">
        <ele>175.764896</ele>
        <time>2025-06-19T13:39:48.723Z</time>
      </trkpt>
      <trkpt lat="49.28212" lon="2.04297">
        <ele>175.867283</ele>
        <time>2025-06-19T13:39:51.692Z</time>
      </trkpt>
      <trkpt lat="49.28219" lon="2.04284">
        <ele>175.969353</ele>
        <time>2025-06-19T13:39:54.704Z</time>
      </trkpt>
      <trkpt lat="49.28226" lon="2.04272">
        <ele>176.06334</ele>
        <time>2025-06-19T13:39:57.692Z</time>
      </trkpt>
      <trkpt lat="49.28235" lon="2.04268">
        <ele>176.149324</ele>
        <time>2025-06-19T13:40:00.699Z</time>
      </trkpt>
      <trkpt lat="49.28244" lon="2.04267">
        <ele>176.233956</ele>
        <time>2025-06-19T13:40:03.701Z</time>
      </trkpt>
      <trkpt lat="49.28253" lon="2.04272">
        <ele>176.324058</ele>
        <time>2025-06-19T13:40:06.691Z</time>
      </trkpt>
      <trkpt lat="49.28262" lon="2.04279">
        <ele>176.418775</ele>
        <time>2025-06-19T13:40:09.700Z</time>
      </trkpt>
      <trkpt lat="49.28271" lon="2.04284">
        <ele>176.508467</ele>
        <time>2025-06-19T13:40:12.694Z</time>
      </trkpt>
      <trkpt lat="49.28281" lon="2.04288">
        <ele>176.601276</ele>
        <time>2025-06-19T13:40:15.697Z</time>
      </trkpt>
      <trkpt lat="49.2829" lon="2.04294">
        <ele>176.696199</ele>
        <time>2025-06-19T13:40:18.723Z</time>
      </trkpt>
      <trkpt lat="49.283" lon="2.043">
        <ele>176.790266</ele>
        <time>2025-06-19T13:40:21.705Z</time>
      </trkpt>
      <trkpt lat="49.28311" lon="2.04306">
        <ele>176.803046</ele>
        <time>2025-06-19T13:40:24.706Z</time>
      </trkpt>
      <trkpt lat="49.2832" lon="2.0431">
        <ele>176.557958</ele>
        <time>2025-06-19T13:40:26.694Z</time>
      </trkpt>
      <trkpt lat="49.2833" lon="2.04314">
        <ele>176.298688</ele>
        <time>2025-06-19T13:40:28.703Z</time>
      </trkpt>
      <trkpt lat="49.28341" lon="2.04319">
        <ele>176.006685</ele>
        <time>2025-06-19T13:40:30.689Z</time>
      </trkpt>
      <trkpt lat="49.28353" lon="2.04322">
        <ele>175.685488</ele>
        <time>2025-06-19T13:40:32.703Z</time>
      </trkpt>
      <trkpt lat="49.28367" lon="2.04325">
        <ele>175.338262</ele>
        <time>2025-06-19T13:40:34.692Z</time>
      </trkpt>
      <trkpt lat="49.28381" lon="2.04326">
        <ele>174.975186</ele>
        <time>2025-06-19T13:40:36.703Z</time>
      </trkpt>
      <trkpt lat="49.28395" lon="2.04325">
        <ele>174.607108</ele>
        <time>2025-06-19T13:40:38.697Z</time>
      </trkpt>
      <trkpt lat="49.28409" lon="2.04324">
        <ele>174.262389</ele>
        <time>2025-06-19T13:40:40.687Z</time>
      </trkpt>
      <trkpt lat="49.28423" lon="2.04324">
        <ele>173.904703</ele>
        <time>2025-06-19T13:40:42.696Z</time>
      </trkpt>
      <trkpt lat="49.28436" lon="2.04325">
        <ele>173.546592</ele>
        <time>2025-06-19T13:40:44.704Z</time>
      </trkpt>
      <trkpt lat="49.2845" lon="2.04327">
        <ele>173.205994</ele>
        <time>2025-06-19T13:40:46.701Z</time>
      </trkpt>
      <trkpt lat="49.28462" lon="2.04329">
        <ele>172.890564</ele>
        <time>2025-06-19T13:40:48.697Z</time>
      </trkpt>
      <trkpt lat="49.28474" lon="2.04331">
        <ele>172.567106</ele>
        <time>2025-06-19T13:40:50.704Z</time>
      </trkpt>
      <trkpt lat="49.28485" lon="2.04333">
        <ele>172.281307</ele>
        <time>2025-06-19T13:40:52.701Z</time>
      </trkpt>
      <trkpt lat="49.28496" lon="2.04337">
        <ele>172.202327</ele>
        <time>2025-06-19T13:40:54.705Z</time>
      </trkpt>
      <trkpt lat="49.28505" lon="2.0434">
        <ele>172.152823</ele>
        <time>2025-06-19T13:40:56.699Z</time>
      </trkpt>
      <trkpt lat="49.28514" lon="2.04344">
        <ele>172.104858</ele>
        <time>2025-06-19T13:40:58.708Z</time>
      </trkpt>
      <trkpt lat="49.28523" lon="2.04348">
        <ele>172.054524</ele>
        <time>2025-06-19T13:41:00.702Z</time>
      </trkpt>
      <trkpt lat="49.28533" lon="2.04353">
        <ele>172.002601</ele>
        <time>2025-06-19T13:41:02.689Z</time>
      </trkpt>
      <trkpt lat="49.28542" lon="2.04357">
        <ele>171.952473</ele>
        <time>2025-06-19T13:41:04.691Z</time>
      </trkpt>
      <trkpt lat="49.28551" lon="2.04361">
        <ele>171.903832</ele>
        <time>2025-06-19T13:41:06.694Z</time>
      </trkpt>
      <trkpt lat="49.28559" lon="2.04366">
        <ele>171.856342</ele>
        <time>2025-06-19T13:41:08.700Z</time>
      </trkpt>
      <trkpt lat="49.28568" lon="2.04372">
        <ele>171.804069</ele>
        <time>2025-06-19T13:41:10.703Z</time>
      </trkpt>
      <trkpt lat="49.28578" lon="2.0438">
        <ele>171.749252</ele>
        <time>2025-06-19T13:41:12.693Z</time>
      </trkpt>
      <trkpt lat="49.28587" lon="2.04387">
        <ele>171.693914</ele>
        <time>2025-06-19T13:41:14.709Z</time>
      </trkpt>
      <trkpt lat="49.28597" lon="2.04393">
        <ele>171.63973</ele>
        <time>2025-06-19T13:41:16.711Z</time>
      </trkpt>
      <trkpt lat="49.28606" lon="2.04399">
        <ele>171.58698</ele>
        <time>2025-06-19T13:41:18.696Z</time>
      </trkpt>
      <trkpt lat="49.28616" lon="2.04405">
        <ele>171.535109</ele>
        <time>2025-06-19T13:41:20.696Z</time>
      </trkpt>
      <trkpt lat="49.28624" lon="2.04411">
        <ele>171.486783</ele>
        <time>2025-06-19T13:41:22.702Z</time>
      </trkpt>
      <trkpt lat="49.28633" lon="2.04416">
        <ele>171.43503</ele>
        <time>2025-06-19T13:41:24.703Z</time>
      </trkpt>
      <trkpt lat="49.28642" lon="2.04422">
        <ele>171.385975</ele>
        <time>2025-06-19T13:41:26.706Z</time>
      </trkpt>
      <trkpt lat="49.28655" lon="2.04428">
        <ele>171.314825</ele>
        <time>2025-06-19T13:41:29.718Z</time>
      </trkpt>
      <trkpt lat="49.28664" lon="2.04432">
        <ele>171.257233</ele>
        <time>2025-06-19T13:41:31.709Z</time>
      </trkpt>
      <trkpt lat="49.28673" lon="2.04437">
        <ele>171.201291</ele>
        <time>2025-06-19T13:41:33.689Z</time>
      </trkpt>
      <trkpt lat="49.28683" lon="2.04439">
        <ele>171.139217</ele>
        <time>2025-06-19T13:41:35.689Z</time>
      </trkpt>
      <trkpt lat="49.28692" lon="2.04443">
        <ele>171.078081</ele>
        <time>2025-06-19T13:41:37.692Z</time>
      </trkpt>
      <trkpt lat="49.28702" lon="2.04447">
        <ele>171.016725</ele>
        <time>2025-06-19T13:41:39.694Z</time>
      </trkpt>
      <trkpt lat="49.28712" lon="2.04451">
        <ele>170.953026</ele>
        <time>2025-06-19T13:41:41.713Z</time>
      </trkpt>
      <trkpt lat="49.28723" lon="2.04455">
        <ele>170.885967</ele>
        <time>2025-06-19T13:41:43.699Z</time>
      </trkpt>
      <trkpt lat="49.28734" lon="2.04458">
        <ele>170.819545</ele>
        <time>2025-06-19T13:41:45.704Z</time>
      </trkpt>
      <trkpt lat="49.28744" lon="2.04463">
        <ele>170.752165</ele>
        <time>2025-06-19T13:41:47.703Z</time>
      </trkpt>
      <trkpt lat="49.28755" lon="2.04467">
        <ele>170.684619</ele>
        <time>2025-06-19T13:41:49.706Z</time>
      </trkpt>
      <trkpt lat="49.28765" lon="2.04471">
        <ele>170.619536</ele>
        <time>2025-06-19T13:41:51.706Z</time>
      </trkpt>
      <trkpt lat="49.28776" lon="2.04475">
        <ele>170.554157</ele>
        <time>2025-06-19T13:41:53.702Z</time>
      </trkpt>
      <trkpt lat="49.28786" lon="2.04479">
        <ele>170.489275</ele>
        <time>2025-06-19T13:41:55.704Z</time>
      </trkpt>
      <trkpt lat="49.28796" lon="2.04483">
        <ele>170.423303</ele>
        <time>2025-06-19T13:41:57.700Z</time>
      </trkpt>
      <trkpt lat="49.28807" lon="2.04487">
        <ele>170.355857</ele>
        <time>2025-06-19T13:41:59.706Z</time>
      </trkpt>
      <trkpt lat="49.28817" lon="2.04491">
        <ele>170.292256</ele>
        <time>2025-06-19T13:42:01.699Z</time>
      </trkpt>
      <trkpt lat="49.28827" lon="2.04495">
        <ele>170.229046</ele>
        <time>2025-06-19T13:42:03.696Z</time>
      </trkpt>
      <trkpt lat="49.28839" lon="2.04499">
        <ele>170.523626</ele>
        <time>2025-06-19T13:42:05.694Z</time>
      </trkpt>
      <trkpt lat="49.28849" lon="2.045">
        <ele>170.85588</ele>
        <time>2025-06-19T13:42:07.693Z</time>
      </trkpt>
      <trkpt lat="49.2886" lon="2.045">
        <ele>171.187984</ele>
        <time>2025-06-19T13:42:09.692Z</time>
      </trkpt>
      <trkpt lat="49.2887" lon="2.04498">
        <ele>171.506402</ele>
        <time>2025-06-19T13:42:11.689Z</time>
      </trkpt>
      <trkpt lat="49.2888" lon="2.04497">
        <ele>171.817744</ele>
        <time>2025-06-19T13:42:13.695Z</time>
      </trkpt>
      <trkpt lat="49.2889" lon="2.04495">
        <ele>172.126833</ele>
        <time>2025-06-19T13:42:15.693Z</time>
      </trkpt>
      <trkpt lat="49.289" lon="2.04494">
        <ele>172.446671</ele>
        <time>2025-06-19T13:42:17.689Z</time>
      </trkpt>
      <trkpt lat="49.2891" lon="2.04493">
        <ele>172.755523</ele>
        <time>2025-06-19T13:42:19.697Z</time>
      </trkpt>
      <trkpt lat="49.28919" lon="2.04489">
        <ele>173.066238</ele>
        <time>2025-06-19T13:42:21.698Z</time>
      </trkpt>
      <trkpt lat="49.28929" lon="2.04488">
        <ele>173.38179</ele>
        <time>2025-06-19T13:42:23.709Z</time>
      </trkpt>
      <trkpt lat="49.2894" lon="2.04486">
        <ele>173.706919</ele>
        <time>2025-06-19T13:42:25.686Z</time>
      </trkpt>
      <trkpt lat="49.2895" lon="2.04483">
        <ele>174.026103</ele>
        <time>2025-06-19T13:42:27.702Z</time>
      </trkpt>
      <trkpt lat="49.2896" lon="2.04482">
        <ele>174.356159</ele>
        <time>2025-06-19T13:42:29.706Z</time>
      </trkpt>
      <trkpt lat="49.28971" lon="2.04482">
        <ele>174.681868</ele>
        <time>2025-06-19T13:42:31.704Z</time>
      </trkpt>
      <trkpt lat="49.28981" lon="2.04482">
        <ele>175.001295</ele>
        <time>2025-06-19T13:42:33.688Z</time>
      </trkpt>
      <trkpt lat="49.28992" lon="2.04483">
        <ele>175.340546</ele>
        <time>2025-06-19T13:42:35.719Z</time>
      </trkpt>
      <trkpt lat="49.29002" lon="2.04485">
        <ele>175.668298</ele>
        <time>2025-06-19T13:42:37.703Z</time>
      </trkpt>
      <trkpt lat="49.29013" lon="2.04487">
        <ele>175.89364</ele>
        <time>2025-06-19T13:42:39.699Z</time>
      </trkpt>
      <trkpt lat="49.29023" lon="2.04487">
        <ele>175.988748</ele>
        <time>2025-06-19T13:42:41.705Z</time>
      </trkpt>
      <trkpt lat="49.29033" lon="2.04487">
        <ele>176.083883</ele>
        <time>2025-06-19T13:42:43.707Z</time>
      </trkpt>
      <trkpt lat="49.29043" lon="2.04485">
        <ele>176.180566</ele>
        <time>2025-06-19T13:42:45.701Z</time>
      </trkpt>
      <trkpt lat="49.29053" lon="2.04482">
        <ele>176.272297</ele>
        <time>2025-06-19T13:42:47.692Z</time>
      </trkpt>
      <trkpt lat="49.29062" lon="2.04478">
        <ele>176.366206</ele>
        <time>2025-06-19T13:42:49.688Z</time>
      </trkpt>
      <trkpt lat="49.29072" lon="2.04475">
        <ele>176.461476</ele>
        <time>2025-06-19T13:42:51.693Z</time>
      </trkpt>
      <trkpt lat="49.29082" lon="2.04471">
        <ele>176.558777</ele>
        <time>2025-06-19T13:42:53.707Z</time>
      </trkpt>
      <trkpt lat="49.29091" lon="2.04467">
        <ele>176.648274</ele>
        <time>2025-06-19T13:42:55.691Z</time>
      </trkpt>
      <trkpt lat="49.29101" lon="2.04464">
        <ele>176.745319</ele>
        <time>2025-06-19T13:42:57.691Z</time>
      </trkpt>
      <trkpt lat="49.29111" lon="2.04462">
        <ele>176.838801</ele>
        <time>2025-06-19T13:42:59.696Z</time>
      </trkpt>
      <trkpt lat="49.29121" lon="2.04459">
        <ele>176.933879</ele>
        <time>2025-06-19T13:43:01.694Z</time>
      </trkpt>
      <trkpt lat="49.29131" lon="2.04455">
        <ele>177.030822</ele>
        <time>2025-06-19T13:43:03.691Z</time>
      </trkpt>
      <trkpt lat="49.29141" lon="2.04452">
        <ele>177.121968</ele>
        <time>2025-06-19T13:43:05.687Z</time>
      </trkpt>
      <trkpt lat="49.2915" lon="2.0445">
        <ele>177.211184</ele>
        <time>2025-06-19T13:43:07.708Z</time>
      </trkpt>
      <trkpt lat="49.2916" lon="2.04449">
        <ele>177.309138</ele>
        <time>2025-06-19T13:43:09.700Z</time>
      </trkpt>
      <trkpt lat="49.2917" lon="2.04449">
        <ele>177.401354</ele>
        <time>2025-06-19T13:43:11.696Z</time>
      </trkpt>
      <trkpt lat="49.2918" lon="2.04448">
        <ele>177.494711</ele>
        <time>2025-06-19T13:43:13.698Z</time>
      </trkpt>
      <trkpt lat="49.29189" lon="2.04448">
        <ele>177.587171</ele>
        <time>2025-06-19T13:43:15.694Z</time>
      </trkpt>
      <trkpt lat="49.29199" lon="2.04449">
        <ele>177.693144</ele>
        <time>2025-06-19T13:43:17.714Z</time>
      </trkpt>
      <trkpt lat="49.29209" lon="2.04451">
        <ele>177.797118</ele>
        <time>2025-06-19T13:43:19.702Z</time>
      </trkpt>
      <trkpt lat="49.29221" lon="2.04449">
        <ele>177.921343</ele>
        <time>2025-06-19T13:43:21.695Z</time>
      </trkpt>
      <trkpt lat="49.29233" lon="2.04454">
        <ele>178.057063</ele>
        <time>2025-06-19T13:43:24.688Z</time>
      </trkpt>
      <trkpt lat="49.29244" lon="2.04457">
        <ele>178.167855</ele>
        <time>2025-06-19T13:43:26.696Z</time>
      </trkpt>
      <trkpt lat="49.29253" lon="2.04461">
        <ele>178.269785</ele>
        <time>2025-06-19T13:43:28.705Z</time>
      </trkpt>
      <trkpt lat="49.29263" lon="2.04463">
        <ele>178.373991</ele>
        <time>2025-06-19T13:43:30.696Z</time>
      </trkpt>
      <trkpt lat="49.29272" lon="2.04467">
        <ele>178.476924</ele>
        <time>2025-06-19T13:43:32.696Z</time>
      </trkpt>
      <trkpt lat="49.29282" lon="2.0447">
        <ele>178.580916</ele>
        <time>2025-06-19T13:43:34.712Z</time>
      </trkpt>
      <trkpt lat="49.29291" lon="2.04473">
        <ele>178.682267</ele>
        <time>2025-06-19T13:43:36.701Z</time>
      </trkpt>
      <trkpt lat="49.29301" lon="2.04478">
        <ele>178.786774</ele>
        <time>2025-06-19T13:43:38.714Z</time>
      </trkpt>
      <trkpt lat="49.2931" lon="2.04481">
        <ele>178.89195</ele>
        <time>2025-06-19T13:43:40.697Z</time>
      </trkpt>
      <trkpt lat="49.2932" lon="2.04485">
        <ele>178.998679</ele>
        <time>2025-06-19T13:43:42.711Z</time>
      </trkpt>
      <trkpt lat="49.2933" lon="2.04489">
        <ele>179.103855</ele>
        <time>2025-06-19T13:43:44.696Z</time>
      </trkpt>
      <trkpt lat="49.29339" lon="2.04493">
        <ele>179.209191</ele>
        <time>2025-06-19T13:43:46.705Z</time>
      </trkpt>
      <trkpt lat="49.29349" lon="2.04497">
        <ele>179.316312</ele>
        <time>2025-06-19T13:43:48.716Z</time>
      </trkpt>
      <trkpt lat="49.29358" lon="2.04503">
        <ele>179.422659</ele>
        <time>2025-06-19T13:43:50.693Z</time>
      </trkpt>
      <trkpt lat="49.29367" lon="2.04508">
        <ele>179.533544</ele>
        <time>2025-06-19T13:43:52.697Z</time>
      </trkpt>
      <trkpt lat="49.29377" lon="2.04511">
        <ele>179.65184</ele>
        <time>2025-06-19T13:43:54.701Z</time>
      </trkpt>
      <trkpt lat="49.29386" lon="2.04516">
        <ele>179.7646</ele>
        <time>2025-06-19T13:43:56.702Z</time>
      </trkpt>
      <trkpt lat="49.29395" lon="2.0452">
        <ele>179.873721</ele>
        <time>2025-06-19T13:43:58.702Z</time>
      </trkpt>
      <trkpt lat="49.29403" lon="2.04526">
        <ele>179.984947</ele>
        <time>2025-06-19T13:44:00.703Z</time>
      </trkpt>
      <trkpt lat="49.29412" lon="2.0453">
        <ele>180.09845</ele>
        <time>2025-06-19T13:44:02.709Z</time>
      </trkpt>
      <trkpt lat="49.29421" lon="2.04535">
        <ele>180.210237</ele>
        <time>2025-06-19T13:44:04.700Z</time>
      </trkpt>
      <trkpt lat="49.2943" lon="2.0454">
        <ele>180.318882</ele>
        <time>2025-06-19T13:44:06.699Z</time>
      </trkpt>
      <trkpt lat="49.29442" lon="2.04547">
        <ele>180.479633</ele>
        <time>2025-06-19T13:44:09.703Z</time>
      </trkpt>
      <trkpt lat="49.29452" lon="2.04552">
        <ele>180.597842</ele>
        <time>2025-06-19T13:44:11.700Z</time>
      </trkpt>
      <trkpt lat="49.29464" lon="2.04559">
        <ele>180.753277</ele>
        <time>2025-06-19T13:44:14.701Z</time>
      </trkpt>
      <trkpt lat="49.29477" lon="2.04566">
        <ele>180.910405</ele>
        <time>2025-06-19T13:44:17.712Z</time>
      </trkpt>
      <trkpt lat="49.29485" lon="2.04571">
        <ele>181.021101</ele>
        <time>2025-06-19T13:44:19.693Z</time>
      </trkpt>
      <trkpt lat="49.29497" lon="2.04579">
        <ele>181.176656</ele>
        <time>2025-06-19T13:44:22.708Z</time>
      </trkpt>
      <trkpt lat="49.29509" lon="2.04587">
        <ele>181.333922</ele>
        <time>2025-06-19T13:44:25.695Z</time>
      </trkpt>
      <trkpt lat="49.29517" lon="2.04593">
        <ele>181.441759</ele>
        <time>2025-06-19T13:44:27.708Z</time>
      </trkpt>
      <trkpt lat="49.29529" lon="2.04603">
        <ele>181.611415</ele>
        <time>2025-06-19T13:44:30.700Z</time>
      </trkpt>
      <trkpt lat="49.29537" lon="2.04609">
        <ele>181.789857</ele>
        <time>2025-06-19T13:44:32.698Z</time>
      </trkpt>
      <trkpt lat="49.29545" lon="2.04616">
        <ele>181.965467</ele>
        <time>2025-06-19T13:44:34.708Z</time>
      </trkpt>
      <trkpt lat="49.29554" lon="2.04623">
        <ele>182.153184</ele>
        <time>2025-06-19T13:44:36.706Z</time>
      </trkpt>
      <trkpt lat="49.29562" lon="2.04629">
        <ele>182.328189</ele>
        <time>2025-06-19T13:44:38.723Z</time>
      </trkpt>
      <trkpt lat="49.29574" lon="2.04639">
        <ele>182.58871</ele>
        <time>2025-06-19T13:44:41.702Z</time>
      </trkpt>
      <trkpt lat="49.29586" lon="2.04648">
        <ele>182.845208</ele>
        <time>2025-06-19T13:44:44.705Z</time>
      </trkpt>
      <trkpt lat="49.29597" lon="2.04657">
        <ele>183.095369</ele>
        <time>2025-06-19T13:44:47.708Z</time>
      </trkpt>
      <trkpt lat="49.29608" lon="2.04667">
        <ele>183.340491</ele>
        <time>2025-06-19T13:44:50.703Z</time>
      </trkpt>
      <trkpt lat="49.29619" lon="2.04675">
        <ele>183.577504</ele>
        <time>2025-06-19T13:44:53.704Z</time>
      </trkpt>
      <trkpt lat="49.29631" lon="2.04685">
        <ele>183.828246</ele>
        <time>2025-06-19T13:44:56.707Z</time>
      </trkpt>
      <trkpt lat="49.29642" lon="2.04694">
        <ele>184.078406</ele>
        <time>2025-06-19T13:44:59.710Z</time>
      </trkpt>
      <trkpt lat="49.29653" lon="2.04703">
        <ele>184.325222</ele>
        <time>2025-06-19T13:45:02.715Z</time>
      </trkpt>
      <trkpt lat="49.29664" lon="2.04713">
        <ele>184.571146</ele>
        <time>2025-06-19T13:45:05.690Z</time>
      </trkpt>
      <trkpt lat="49.29676" lon="2.04724">
        <ele>184.831831</ele>
        <time>2025-06-19T13:45:08.716Z</time>
      </trkpt>
      <trkpt lat="49.29684" lon="2.04731">
        <ele>185.006831</ele>
        <time>2025-06-19T13:45:10.708Z</time>
      </trkpt>
      <trkpt lat="49.29691" lon="2.04739">
        <ele>184.991244</ele>
        <time>2025-06-19T13:45:12.703Z</time>
      </trkpt>
      <trkpt lat="49.29699" lon="2.04747">
        <ele>184.881575</ele>
        <time>2025-06-19T13:45:14.708Z</time>
      </trkpt>
      <trkpt lat="49.29708" lon="2.04756">
        <ele>184.76383</ele>
        <time>2025-06-19T13:45:16.706Z</time>
      </trkpt>
      <trkpt lat="49.29715" lon="2.04764">
        <ele>184.657091</ele>
        <time>2025-06-19T13:45:18.694Z</time>
      </trkpt>
      <trkpt lat="49.29724" lon="2.04773">
        <ele>184.543734</ele>
        <time>2025-06-19T13:45:20.721Z</time>
      </trkpt>
      <trkpt lat="49.29731" lon="2.04782">
        <ele>184.432511</ele>
        <time>2025-06-19T13:45:22.711Z</time>
      </trkpt>
      <trkpt lat="49.2974" lon="2.0479">
        <ele>184.317916</ele>
        <time>2025-06-19T13:45:24.700Z</time>
      </trkpt>
      <trkpt lat="49.29749" lon="2.048">
        <ele>184.193436</ele>
        <time>2025-06-19T13:45:26.698Z</time>
      </trkpt>
      <trkpt lat="49.29758" lon="2.04808">
        <ele>184.064882</ele>
        <time>2025-06-19T13:45:28.716Z</time>
      </trkpt>
      <trkpt lat="49.29767" lon="2.04819">
        <ele>183.941409</ele>
        <time>2025-06-19T13:45:30.708Z</time>
      </trkpt>
      <trkpt lat="49.29776" lon="2.04829">
        <ele>183.811535</ele>
        <time>2025-06-19T13:45:32.703Z</time>
      </trkpt>
      <trkpt lat="49.29784" lon="2.04839">
        <ele>183.688062</ele>
        <time>2025-06-19T13:45:34.702Z</time>
      </trkpt>
      <trkpt lat="49.29793" lon="2.0485">
        <ele>183.564015</ele>
        <time>2025-06-19T13:45:36.698Z</time>
      </trkpt>
      <trkpt lat="49.298" lon="2.04862">
        <ele>183.444459</ele>
        <time>2025-06-19T13:45:38.696Z</time>
      </trkpt>
      <trkpt lat="49.29807" lon="2.04874">
        <ele>183.322576</ele>
        <time>2025-06-19T13:45:40.714Z</time>
      </trkpt>
      <trkpt lat="49.29815" lon="2.04885">
        <ele>183.199651</ele>
        <time>2025-06-19T13:45:42.719Z</time>
      </trkpt>
      <trkpt lat="49.29822" lon="2.04898">
        <ele>183.072596</ele>
        <time>2025-06-19T13:45:44.711Z</time>
      </trkpt>
      <trkpt lat="49.29829" lon="2.0491">
        <ele>183.122611</ele>
        <time>2025-06-19T13:45:46.710Z</time>
      </trkpt>
      <trkpt lat="49.29837" lon="2.04923">
        <ele>183.384618</ele>
        <time>2025-06-19T13:45:48.701Z</time>
      </trkpt>
      <trkpt lat="49.29844" lon="2.04935">
        <ele>183.633349</ele>
        <time>2025-06-19T13:45:50.711Z</time>
      </trkpt>
      <trkpt lat="49.29851" lon="2.04947">
        <ele>183.873464</ele>
        <time>2025-06-19T13:45:52.714Z</time>
      </trkpt>
      <trkpt lat="49.29858" lon="2.04958">
        <ele>184.123829</ele>
        <time>2025-06-19T13:45:54.698Z</time>
      </trkpt>
      <trkpt lat="49.29867" lon="2.04971">
        <ele>184.395153</ele>
        <time>2025-06-19T13:45:56.693Z</time>
      </trkpt>
      <trkpt lat="49.29874" lon="2.04982">
        <ele>184.644417</ele>
        <time>2025-06-19T13:45:58.702Z</time>
      </trkpt>
      <trkpt lat="49.29882" lon="2.04993">
        <ele>184.892257</ele>
        <time>2025-06-19T13:46:00.710Z</time>
      </trkpt>
      <trkpt lat="49.2989" lon="2.05004">
        <ele>185.149108</ele>
        <time>2025-06-19T13:46:02.697Z</time>
      </trkpt>
      <trkpt lat="49.29899" lon="2.05014">
        <ele>185.400472</ele>
        <time>2025-06-19T13:46:04.702Z</time>
      </trkpt>
      <trkpt lat="49.29907" lon="2.05024">
        <ele>185.646155</ele>
        <time>2025-06-19T13:46:06.704Z</time>
      </trkpt>
      <trkpt lat="49.29916" lon="2.05032">
        <ele>185.883647</ele>
        <time>2025-06-19T13:46:08.688Z</time>
      </trkpt>
      <trkpt lat="49.29925" lon="2.0504">
        <ele>186.124343</ele>
        <time>2025-06-19T13:46:10.692Z</time>
      </trkpt>
      <trkpt lat="49.29933" lon="2.05049">
        <ele>186.372403</ele>
        <time>2025-06-19T13:46:12.698Z</time>
      </trkpt>
      <trkpt lat="49.29943" lon="2.05057">
        <ele>186.639066</ele>
        <time>2025-06-19T13:46:14.689Z</time>
      </trkpt>
      <trkpt lat="49.29952" lon="2.05065">
        <ele>186.881505</ele>
        <time>2025-06-19T13:46:16.706Z</time>
      </trkpt>
      <trkpt lat="49.29961" lon="2.05073">
        <ele>187.113522</ele>
        <time>2025-06-19T13:46:18.704Z</time>
      </trkpt>
      <trkpt lat="49.2997" lon="2.05079">
        <ele>187.308904</ele>
        <time>2025-06-19T13:46:20.704Z</time>
      </trkpt>
      <trkpt lat="49.29979" lon="2.05086">
        <ele>187.45316</ele>
        <time>2025-06-19T13:46:22.704Z</time>
      </trkpt>
      <trkpt lat="49.29988" lon="2.05091">
        <ele>187.607854</ele>
        <time>2025-06-19T13:46:24.705Z</time>
      </trkpt>
      <trkpt lat="49.29998" lon="2.05097">
        <ele>187.770377</ele>
        <time>2025-06-19T13:46:26.707Z</time>
      </trkpt>
      <trkpt lat="49.30007" lon="2.05103">
        <ele>187.921278</ele>
        <time>2025-06-19T13:46:28.706Z</time>
      </trkpt>
      <trkpt lat="49.30017" lon="2.05108">
        <ele>188.072421</ele>
        <time>2025-06-19T13:46:30.703Z</time>
      </trkpt>
      <trkpt lat="49.30026" lon="2.05113">
        <ele>188.219349</ele>
        <time>2025-06-19T13:46:32.694Z</time>
      </trkpt>
      <trkpt lat="49.30034" lon="2.05119">
        <ele>188.361683</ele>
        <time>2025-06-19T13:46:34.693Z</time>
      </trkpt>
      <trkpt lat="49.30043" lon="2.05124">
        <ele>188.508551</ele>
        <time>2025-06-19T13:46:36.704Z</time>
      </trkpt>
      <trkpt lat="49.30056" lon="2.0513">
        <ele>188.709591</ele>
        <time>2025-06-19T13:46:39.684Z</time>
      </trkpt>
      <trkpt lat="49.30065" lon="2.05133">
        <ele>188.85479</ele>
        <time>2025-06-19T13:46:41.701Z</time>
      </trkpt>
      <trkpt lat="49.30074" lon="2.05137">
        <ele>188.997538</ele>
        <time>2025-06-19T13:46:43.697Z</time>
      </trkpt>
      <trkpt lat="49.30084" lon="2.05139">
        <ele>189.146916</ele>
        <time>2025-06-19T13:46:45.699Z</time>
      </trkpt>
      <trkpt lat="49.30093" lon="2.05138">
        <ele>189.290532</ele>
        <time>2025-06-19T13:46:47.713Z</time>
      </trkpt>
      <trkpt lat="49.30104" lon="2.05138">
        <ele>189.453585</ele>
        <time>2025-06-19T13:46:49.709Z</time>
      </trkpt>
      <trkpt lat="49.30114" lon="2.05135">
        <ele>189.610366</ele>
        <time>2025-06-19T13:46:51.698Z</time>
      </trkpt>
      <trkpt lat="49.30125" lon="2.05136">
        <ele>189.771875</ele>
        <time>2025-06-19T13:46:53.697Z</time>
      </trkpt>
      <trkpt lat="49.30136" lon="2.05137">
        <ele>189.940025</ele>
        <time>2025-06-19T13:46:55.695Z</time>
      </trkpt>
      <trkpt lat="49.30146" lon="2.05139">
        <ele>189.993843</ele>
        <time>2025-06-19T13:46:57.702Z</time>
      </trkpt>
      <trkpt lat="49.30157" lon="2.0514">
        <ele>190.030235</ele>
        <time>2025-06-19T13:46:59.711Z</time>
      </trkpt>
      <trkpt lat="49.30168" lon="2.0514">
        <ele>190.066815</ele>
        <time>2025-06-19T13:47:01.693Z</time>
      </trkpt>
      <trkpt lat="49.30179" lon="2.05142">
        <ele>190.103845</ele>
        <time>2025-06-19T13:47:03.702Z</time>
      </trkpt>
      <trkpt lat="49.3019" lon="2.0514">
        <ele>190.140858</ele>
        <time>2025-06-19T13:47:05.695Z</time>
      </trkpt>
      <trkpt lat="49.30201" lon="2.0514">
        <ele>190.179172</ele>
        <time>2025-06-19T13:47:07.695Z</time>
      </trkpt>
      <trkpt lat="49.30213" lon="2.05139">
        <ele>190.218125</ele>
        <time>2025-06-19T13:47:09.706Z</time>
      </trkpt>
      <trkpt lat="49.30223" lon="2.05138">
        <ele>190.255213</ele>
        <time>2025-06-19T13:47:11.704Z</time>
      </trkpt>
      <trkpt lat="49.30235" lon="2.05138">
        <ele>190.293517</ele>
        <time>2025-06-19T13:47:13.695Z</time>
      </trkpt>
      <trkpt lat="49.30245" lon="2.05141">
        <ele>190.32936</ele>
        <time>2025-06-19T13:47:15.711Z</time>
      </trkpt>
      <trkpt lat="49.30255" lon="2.05147">
        <ele>190.364782</ele>
        <time>2025-06-19T13:47:17.698Z</time>
      </trkpt>
      <trkpt lat="49.30265" lon="2.05153">
        <ele>190.401863</ele>
        <time>2025-06-19T13:47:19.689Z</time>
      </trkpt>
      <trkpt lat="49.30275" lon="2.0516">
        <ele>190.437007</ele>
        <time>2025-06-19T13:47:21.699Z</time>
      </trkpt>
      <trkpt lat="49.30285" lon="2.05166">
        <ele>190.474648</ele>
        <time>2025-06-19T13:47:23.698Z</time>
      </trkpt>
      <trkpt lat="49.30295" lon="2.05173">
        <ele>190.512098</ele>
        <time>2025-06-19T13:47:25.685Z</time>
      </trkpt>
      <trkpt lat="49.30304" lon="2.0518">
        <ele>190.546994</ele>
        <time>2025-06-19T13:47:27.705Z</time>
      </trkpt>
      <trkpt lat="49.30313" lon="2.05187">
        <ele>190.596437</ele>
        <time>2025-06-19T13:47:29.696Z</time>
      </trkpt>
      <trkpt lat="49.30318" lon="2.05199">
        <ele>190.699719</ele>
        <time>2025-06-19T13:47:31.694Z</time>
      </trkpt>
      <trkpt lat="49.30322" lon="2.05214">
        <ele>190.814736</ele>
        <time>2025-06-19T13:47:33.692Z</time>
      </trkpt>
      <trkpt lat="49.30326" lon="2.05229">
        <ele>190.928606</ele>
        <time>2025-06-19T13:47:35.685Z</time>
      </trkpt>
      <trkpt lat="49.3033" lon="2.05244">
        <ele>191.040116</ele>
        <time>2025-06-19T13:47:37.711Z</time>
      </trkpt>
      <trkpt lat="49.30333" lon="2.05258">
        <ele>191.142241</ele>
        <time>2025-06-19T13:47:39.697Z</time>
      </trkpt>
      <trkpt lat="49.30336" lon="2.05277">
        <ele>191.287657</ele>
        <time>2025-06-19T13:47:42.700Z</time>
      </trkpt>
      <trkpt lat="49.30339" lon="2.05291">
        <ele>191.391098</ele>
        <time>2025-06-19T13:47:44.695Z</time>
      </trkpt>
      <trkpt lat="49.30342" lon="2.05306">
        <ele>191.500902</ele>
        <time>2025-06-19T13:47:46.693Z</time>
      </trkpt>
      <trkpt lat="49.30344" lon="2.05321">
        <ele>191.608712</ele>
        <time>2025-06-19T13:47:48.703Z</time>
      </trkpt>
      <trkpt lat="49.30344" lon="2.05337">
        <ele>191.716181</ele>
        <time>2025-06-19T13:47:50.703Z</time>
      </trkpt>
      <trkpt lat="49.30346" lon="2.05351">
        <ele>191.820496</ele>
        <time>2025-06-19T13:47:52.693Z</time>
      </trkpt>
      <trkpt lat="49.30347" lon="2.05366">
        <ele>191.924742</ele>
        <time>2025-06-19T13:47:54.694Z</time>
      </trkpt>
      <trkpt lat="49.30349" lon="2.0538">
        <ele>192.028882</ele>
        <time>2025-06-19T13:47:56.695Z</time>
      </trkpt>
      <trkpt lat="49.30353" lon="2.05395">
        <ele>192.135774</ele>
        <time>2025-06-19T13:47:58.694Z</time>
      </trkpt>
      <trkpt lat="49.30356" lon="2.05409">
        <ele>192.24135</ele>
        <time>2025-06-19T13:48:00.690Z</time>
      </trkpt>
      <trkpt lat="49.3036" lon="2.05423">
        <ele>192.347865</ele>
        <time>2025-06-19T13:48:02.699Z</time>
      </trkpt>
      <trkpt lat="49.30364" lon="2.05437">
        <ele>192.454646</ele>
        <time>2025-06-19T13:48:04.691Z</time>
      </trkpt>
      <trkpt lat="49.30368" lon="2.0545">
        <ele>192.637213</ele>
        <time>2025-06-19T13:48:06.689Z</time>
      </trkpt>
      <trkpt lat="49.30372" lon="2.05463">
        <ele>192.911607</ele>
        <time>2025-06-19T13:48:08.690Z</time>
      </trkpt>
      <trkpt lat="49.3038" lon="2.05475">
        <ele>193.222334</ele>
        <time>2025-06-19T13:48:11.702Z</time>
      </trkpt>
      <trkpt lat="49.30391" lon="2.05473">
        <ele>193.54082</ele>
        <time>2025-06-19T13:48:14.699Z</time>
      </trkpt>
      <trkpt lat="49.304" lon="2.05464">
        <ele>193.860835</ele>
        <time>2025-06-19T13:48:17.689Z</time>
      </trkpt>
      <trkpt lat="49.30412" lon="2.05459">
        <ele>194.223181</ele>
        <time>2025-06-19T13:48:20.704Z</time>
      </trkpt>
      <trkpt lat="49.30423" lon="2.05454">
        <ele>194.545226</ele>
        <time>2025-06-19T13:48:23.697Z</time>
      </trkpt>
      <trkpt lat="49.30434" lon="2.05451">
        <ele>194.872904</ele>
        <time>2025-06-19T13:48:26.697Z</time>
      </trkpt>
      <trkpt lat="49.30447" lon="2.0545">
        <ele>195.232536</ele>
        <time>2025-06-19T13:48:29.693Z</time>
      </trkpt>
      <trkpt lat="49.30458" lon="2.05448">
        <ele>195.54752</ele>
        <time>2025-06-19T13:48:32.693Z</time>
      </trkpt>
      <trkpt lat="49.30469" lon="2.05447">
        <ele>195.88431</ele>
        <time>2025-06-19T13:48:35.716Z</time>
      </trkpt>
      <trkpt lat="49.3048" lon="2.05446">
        <ele>196.20378</ele>
        <time>2025-06-19T13:48:38.686Z</time>
      </trkpt>
      <trkpt lat="49.30491" lon="2.05444">
        <ele>196.516116</ele>
        <time>2025-06-19T13:48:41.691Z</time>
      </trkpt>
      <trkpt lat="49.30502" lon="2.05442">
        <ele>196.828243</ele>
        <time>2025-06-19T13:48:44.694Z</time>
      </trkpt>
      <trkpt lat="49.30513" lon="2.05441">
        <ele>197.133626</ele>
        <time>2025-06-19T13:48:47.708Z</time>
      </trkpt>
      <trkpt lat="49.30522" lon="2.0544">
        <ele>197.415818</ele>
        <time>2025-06-19T13:48:50.702Z</time>
      </trkpt>
      <trkpt lat="49.30533" lon="2.0544">
        <ele>197.712093</ele>
        <time>2025-06-19T13:48:53.696Z</time>
      </trkpt>
      <trkpt lat="49.30544" lon="2.05441">
        <ele>198.067013</ele>
        <time>2025-06-19T13:48:56.707Z</time>
      </trkpt>
      <trkpt lat="49.30554" lon="2.05443">
        <ele>198.410849</ele>
        <time>2025-06-19T13:48:59.692Z</time>
      </trkpt>
      <trkpt lat="49.30565" lon="2.05445">
        <ele>198.758148</ele>
        <time>2025-06-19T13:49:02.693Z</time>
      </trkpt>
      <trkpt lat="49.30576" lon="2.05448">
        <ele>199.115015</ele>
        <time>2025-06-19T13:49:05.697Z</time>
      </trkpt>
      <trkpt lat="49.30587" lon="2.05451">
        <ele>199.473708</ele>
        <time>2025-06-19T13:49:08.705Z</time>
      </trkpt>
      <trkpt lat="49.30598" lon="2.05454">
        <ele>199.837442</ele>
        <time>2025-06-19T13:49:11.697Z</time>
      </trkpt>
      <trkpt lat="49.30608" lon="2.05457">
        <ele>200.177496</ele>
        <time>2025-06-19T13:49:14.706Z</time>
      </trkpt>
      <trkpt lat="49.30619" lon="2.0546">
        <ele>200.52317</ele>
        <time>2025-06-19T13:49:17.694Z</time>
      </trkpt>
      <trkpt lat="49.3063" lon="2.05464">
        <ele>200.879632</ele>
        <time>2025-06-19T13:49:20.697Z</time>
      </trkpt>
      <trkpt lat="49.3064" lon="2.05468">
        <ele>201.230358</ele>
        <time>2025-06-19T13:49:23.687Z</time>
      </trkpt>
      <trkpt lat="49.30651" lon="2.05475">
        <ele>201.587088</ele>
        <time>2025-06-19T13:49:26.700Z</time>
      </trkpt>
      <trkpt lat="49.30661" lon="2.05481">
        <ele>201.949042</ele>
        <time>2025-06-19T13:49:29.698Z</time>
      </trkpt>
      <trkpt lat="49.30671" lon="2.05487">
        <ele>202.305184</ele>
        <time>2025-06-19T13:49:32.696Z</time>
      </trkpt>
      <trkpt lat="49.30681" lon="2.05494">
        <ele>202.652176</ele>
        <time>2025-06-19T13:49:35.690Z</time>
      </trkpt>
      <trkpt lat="49.30691" lon="2.055">
        <ele>202.998615</ele>
        <time>2025-06-19T13:49:38.701Z</time>
      </trkpt>
      <trkpt lat="49.30701" lon="2.05506">
        <ele>203.346302</ele>
        <time>2025-06-19T13:49:41.693Z</time>
      </trkpt>
      <trkpt lat="49.30711" lon="2.05511">
        <ele>203.730372</ele>
        <time>2025-06-19T13:49:44.691Z</time>
      </trkpt>
      <trkpt lat="49.30722" lon="2.05516">
        <ele>204.135077</ele>
        <time>2025-06-19T13:49:47.697Z</time>
      </trkpt>
      <trkpt lat="49.30732" lon="2.0552">
        <ele>204.524458</ele>
        <time>2025-06-19T13:49:50.696Z</time>
      </trkpt>
      <trkpt lat="49.30742" lon="2.05525">
        <ele>204.913289</ele>
        <time>2025-06-19T13:49:53.697Z</time>
      </trkpt>
      <trkpt lat="49.30752" lon="2.0553">
        <ele>205.310573</ele>
        <time>2025-06-19T13:49:56.690Z</time>
      </trkpt>
      <trkpt lat="49.3076" lon="2.05537">
        <ele>205.681914</ele>
        <time>2025-06-19T13:49:59.699Z</time>
      </trkpt>
      <trkpt lat="49.3077" lon="2.05541">
        <ele>206.041203</ele>
        <time>2025-06-19T13:50:02.686Z</time>
      </trkpt>
      <trkpt lat="49.30778" lon="2.05547">
        <ele>206.403041</ele>
        <time>2025-06-19T13:50:05.712Z</time>
      </trkpt>
      <trkpt lat="49.30788" lon="2.05553">
        <ele>206.772366</ele>
        <time>2025-06-19T13:50:08.700Z</time>
      </trkpt>
      <trkpt lat="49.30797" lon="2.05559">
        <ele>207.146493</ele>
        <time>2025-06-19T13:50:11.697Z</time>
      </trkpt>
      <trkpt lat="49.30806" lon="2.05566">
        <ele>207.542488</ele>
        <time>2025-06-19T13:50:14.692Z</time>
      </trkpt>
      <trkpt lat="49.30816" lon="2.05572">
        <ele>207.936388</ele>
        <time>2025-06-19T13:50:17.692Z</time>
      </trkpt>
      <trkpt lat="49.30825" lon="2.05579">
        <ele>208.312188</ele>
        <time>2025-06-19T13:50:20.708Z</time>
      </trkpt>
      <trkpt lat="49.30833" lon="2.05586">
        <ele>208.665177</ele>
        <time>2025-06-19T13:50:23.701Z</time>
      </trkpt>
      <trkpt lat="49.30842" lon="2.05594">
        <ele>209.060142</ele>
        <time>2025-06-19T13:50:26.700Z</time>
      </trkpt>
      <trkpt lat="49.3085" lon="2.05604">
        <ele>209.446347</ele>
        <time>2025-06-19T13:50:29.711Z</time>
      </trkpt>
      <trkpt lat="49.30858" lon="2.05613">
        <ele>209.823859</ele>
        <time>2025-06-19T13:50:32.715Z</time>
      </trkpt>
      <trkpt lat="49.30867" lon="2.05621">
        <ele>210.20249</ele>
        <time>2025-06-19T13:50:35.719Z</time>
      </trkpt>
      <trkpt lat="49.30875" lon="2.0563">
        <ele>210.336054</ele>
        <time>2025-06-19T13:50:38.710Z</time>
      </trkpt>
      <trkpt lat="49.30883" lon="2.05639">
        <ele>210.462798</ele>
        <time>2025-06-19T13:50:41.718Z</time>
      </trkpt>
      <trkpt lat="49.30891" lon="2.05648">
        <ele>210.579858</ele>
        <time>2025-06-19T13:50:44.716Z</time>
      </trkpt>
      <trkpt lat="49.30898" lon="2.05658">
        <ele>210.697339</ele>
        <time>2025-06-19T13:50:47.707Z</time>
      </trkpt>
      <trkpt lat="49.30906" lon="2.05666">
        <ele>210.813824</ele>
        <time>2025-06-19T13:50:50.721Z</time>
      </trkpt>
      <trkpt lat="49.30914" lon="2.05676">
        <ele>210.933626</ele>
        <time>2025-06-19T13:50:53.700Z</time>
      </trkpt>
      <trkpt lat="49.30922" lon="2.05686">
        <ele>211.055216</ele>
        <time>2025-06-19T13:50:56.698Z</time>
      </trkpt>
      <trkpt lat="49.30929" lon="2.05694">
        <ele>211.16738</ele>
        <time>2025-06-19T13:50:59.692Z</time>
      </trkpt>
      <trkpt lat="49.30936" lon="2.05704">
        <ele>211.283429</ele>
        <time>2025-06-19T13:51:02.705Z</time>
      </trkpt>
      <trkpt lat="49.30944" lon="2.05713">
        <ele>211.39942</ele>
        <time>2025-06-19T13:51:05.691Z</time>
      </trkpt>
      <trkpt lat="49.30951" lon="2.05721">
        <ele>211.51205</ele>
        <time>2025-06-19T13:51:08.695Z</time>
      </trkpt>
      <trkpt lat="49.30959" lon="2.0573">
        <ele>211.626581</ele>
        <time>2025-06-19T13:51:11.699Z</time>
      </trkpt>
      <trkpt lat="49.30966" lon="2.05739">
        <ele>211.741137</ele>
        <time>2025-06-19T13:51:14.699Z</time>
      </trkpt>
      <trkpt lat="49.30975" lon="2.05748">
        <ele>211.862417</ele>
        <time>2025-06-19T13:51:17.698Z</time>
      </trkpt>
      <trkpt lat="49.30983" lon="2.05756">
        <ele>211.980218</ele>
        <time>2025-06-19T13:51:20.700Z</time>
      </trkpt>
      <trkpt lat="49.30991" lon="2.05764">
        <ele>212.095429</ele>
        <time>2025-06-19T13:51:23.695Z</time>
      </trkpt>
      <trkpt lat="49.30998" lon="2.05774">
        <ele>212.214027</ele>
        <time>2025-06-19T13:51:26.693Z</time>
      </trkpt>
      <trkpt lat="49.31006" lon="2.05782">
        <ele>212.327356</ele>
        <time>2025-06-19T13:51:29.700Z</time>
      </trkpt>
      <trkpt lat="49.31016" lon="2.05792">
        <ele>212.570238</ele>
        <time>2025-06-19T13:51:33.688Z</time>
      </trkpt>
      <trkpt lat="49.31025" lon="2.058">
        <ele>212.845411</ele>
        <time>2025-06-19T13:51:36.699Z</time>
      </trkpt>
      <trkpt lat="49.31034" lon="2.05807">
        <ele>213.128474</ele>
        <time>2025-06-19T13:51:39.701Z</time>
      </trkpt>
      <trkpt lat="49.31043" lon="2.05813">
        <ele>213.407018</ele>
        <time>2025-06-19T13:51:42.703Z</time>
      </trkpt>
      <trkpt lat="49.31052" lon="2.05817">
        <ele>213.67675</ele>
        <time>2025-06-19T13:51:45.710Z</time>
      </trkpt>
      <trkpt lat="49.31061" lon="2.05821">
        <ele>213.939513</ele>
        <time>2025-06-19T13:51:48.703Z</time>
      </trkpt>
      <trkpt lat="49.3107" lon="2.05826">
        <ele>214.207168</ele>
        <time>2025-06-19T13:51:51.697Z</time>
      </trkpt>
      <trkpt lat="49.3108" lon="2.0583">
        <ele>214.489651</ele>
        <time>2025-06-19T13:51:54.688Z</time>
      </trkpt>
      <trkpt lat="49.3109" lon="2.05834">
        <ele>214.765131</ele>
        <time>2025-06-19T13:51:57.689Z</time>
      </trkpt>
      <trkpt lat="49.311" lon="2.05838">
        <ele>215.051875</ele>
        <time>2025-06-19T13:52:00.689Z</time>
      </trkpt>
      <trkpt lat="49.31109" lon="2.05842">
        <ele>215.327975</ele>
        <time>2025-06-19T13:52:03.701Z</time>
      </trkpt>
      <trkpt lat="49.31119" lon="2.05846">
        <ele>215.603892</ele>
        <time>2025-06-19T13:52:06.695Z</time>
      </trkpt>
      <trkpt lat="49.31128" lon="2.0585">
        <ele>215.871982</ele>
        <time>2025-06-19T13:52:09.690Z</time>
      </trkpt>
      <trkpt lat="49.31138" lon="2.05856">
        <ele>216.173327</ele>
        <time>2025-06-19T13:52:12.716Z</time>
      </trkpt>
      <trkpt lat="49.31148" lon="2.05863">
        <ele>216.488951</ele>
        <time>2025-06-19T13:52:15.697Z</time>
      </trkpt>
      <trkpt lat="49.31159" lon="2.05869">
        <ele>216.801991</ele>
        <time>2025-06-19T13:52:18.697Z</time>
      </trkpt>
      <trkpt lat="49.31169" lon="2.05875">
        <ele>217.113678</ele>
        <time>2025-06-19T13:52:21.699Z</time>
      </trkpt>
      <trkpt lat="49.31179" lon="2.05882">
        <ele>217.419006</ele>
        <time>2025-06-19T13:52:24.699Z</time>
      </trkpt>
      <trkpt lat="49.31189" lon="2.05887">
        <ele>218.664348</ele>
        <time>2025-06-19T13:52:27.700Z</time>
      </trkpt>
      <trkpt lat="49.31199" lon="2.05895">
        <ele>219.851838</ele>
        <time>2025-06-19T13:52:30.694Z</time>
      </trkpt>
      <trkpt lat="49.31208" lon="2.05903">
        <ele>221.070722</ele>
        <time>2025-06-19T13:52:33.696Z</time>
      </trkpt>
      <trkpt lat="49.31217" lon="2.05911">
        <ele>222.286385</ele>
        <time>2025-06-19T13:52:36.692Z</time>
      </trkpt>
      <trkpt lat="49.31226" lon="2.05919">
        <ele>223.470346</ele>
        <time>2025-06-19T13:52:39.696Z</time>
      </trkpt>
      <trkpt lat="49.31235" lon="2.05926">
        <ele>224.715637</ele>
        <time>2025-06-19T13:52:42.705Z</time>
      </trkpt>
      <trkpt lat="49.31245" lon="2.05933">
        <ele>225.927133</ele>
        <time>2025-06-19T13:52:45.691Z</time>
      </trkpt>
      <trkpt lat="49.31256" lon="2.05938">
        <ele>227.19974</ele>
        <time>2025-06-19T13:52:48.700Z</time>
      </trkpt>
      <trkpt lat="49.31267" lon="2.05942">
        <ele>228.499244</ele>
        <time>2025-06-19T13:52:51.690Z</time>
      </trkpt>
      <trkpt lat="49.31277" lon="2.05944">
        <ele>229.748851</ele>
        <time>2025-06-19T13:52:54.693Z</time>
      </trkpt>
      <trkpt lat="49.31288" lon="2.05947">
        <ele>231.019263</ele>
        <time>2025-06-19T13:52:57.693Z</time>
      </trkpt>
      <trkpt lat="49.31299" lon="2.05953">
        <ele>232.293893</ele>
        <time>2025-06-19T13:53:00.691Z</time>
      </trkpt>
      <trkpt lat="49.31309" lon="2.05958">
        <ele>233.566909</ele>
        <time>2025-06-19T13:53:03.700Z</time>
      </trkpt>
      <trkpt lat="49.3132" lon="2.05964">
        <ele>234.833915</ele>
        <time>2025-06-19T13:53:06.698Z</time>
      </trkpt>
      <trkpt lat="49.3133" lon="2.0597">
        <ele>236.103569</ele>
        <time>2025-06-19T13:53:09.697Z</time>
      </trkpt>
      <trkpt lat="49.3134" lon="2.05978">
        <ele>237.441393</ele>
        <time>2025-06-19T13:53:12.692Z</time>
      </trkpt>
      <trkpt lat="49.3135" lon="2.05987">
        <ele>237.93675</ele>
        <time>2025-06-19T13:53:15.703Z</time>
      </trkpt>
      <trkpt lat="49.3136" lon="2.05997">
        <ele>237.64661</ele>
        <time>2025-06-19T13:53:18.699Z</time>
      </trkpt>
      <trkpt lat="49.3137" lon="2.06007">
        <ele>237.359496</ele>
        <time>2025-06-19T13:53:21.700Z</time>
      </trkpt>
      <trkpt lat="49.31379" lon="2.06017">
        <ele>237.073298</ele>
        <time>2025-06-19T13:53:24.702Z</time>
      </trkpt>
      <trkpt lat="49.31388" lon="2.06026">
        <ele>236.806233</ele>
        <time>2025-06-19T13:53:27.703Z</time>
      </trkpt>
      <trkpt lat="49.31396" lon="2.06036">
        <ele>236.55703</ele>
        <time>2025-06-19T13:53:30.694Z</time>
      </trkpt>
      <trkpt lat="49.31404" lon="2.06045">
        <ele>236.294955</ele>
        <time>2025-06-19T13:53:33.694Z</time>
      </trkpt>
      <trkpt lat="49.31412" lon="2.06055">
        <ele>236.046766</ele>
        <time>2025-06-19T13:53:36.700Z</time>
      </trkpt>
      <trkpt lat="49.3142" lon="2.06065">
        <ele>235.785759</ele>
        <time>2025-06-19T13:53:39.690Z</time>
      </trkpt>
      <trkpt lat="49.31428" lon="2.06075">
        <ele>235.526659</ele>
        <time>2025-06-19T13:53:42.692Z</time>
      </trkpt>
      <trkpt lat="49.31437" lon="2.06084">
        <ele>235.2754</ele>
        <time>2025-06-19T13:53:45.693Z</time>
      </trkpt>
      <trkpt lat="49.31445" lon="2.06094">
        <ele>235.009224</ele>
        <time>2025-06-19T13:53:48.698Z</time>
      </trkpt>
      <trkpt lat="49.31453" lon="2.06103">
        <ele>234.748103</ele>
        <time>2025-06-19T13:53:51.698Z</time>
      </trkpt>
      <trkpt lat="49.31462" lon="2.06113">
        <ele>234.488084</ele>
        <time>2025-06-19T13:53:54.703Z</time>
      </trkpt>
      <trkpt lat="49.3147" lon="2.06123">
        <ele>234.227039</ele>
        <time>2025-06-19T13:53:57.700Z</time>
      </trkpt>
      <trkpt lat="49.31478" lon="2.06133">
        <ele>233.96498</ele>
        <time>2025-06-19T13:54:00.699Z</time>
      </trkpt>
      <trkpt lat="49.31487" lon="2.06143">
        <ele>233.696629</ele>
        <time>2025-06-19T13:54:03.693Z</time>
      </trkpt>
      <trkpt lat="49.31496" lon="2.06152">
        <ele>233.895096</ele>
        <time>2025-06-19T13:54:06.701Z</time>
      </trkpt>
      <trkpt lat="49.31504" lon="2.06162">
        <ele>234.335573</ele>
        <time>2025-06-19T13:54:09.695Z</time>
      </trkpt>
      <trkpt lat="49.31513" lon="2.06171">
        <ele>234.780165</ele>
        <time>2025-06-19T13:54:12.695Z</time>
      </trkpt>
      <trkpt lat="49.31521" lon="2.06182">
        <ele>235.219214</ele>
        <time>2025-06-19T13:54:15.693Z</time>
      </trkpt>
      <trkpt lat="49.3153" lon="2.06189">
        <ele>235.653223</ele>
        <time>2025-06-19T13:54:18.697Z</time>
      </trkpt>
      <trkpt lat="49.31541" lon="2.06192">
        <ele>236.094266</ele>
        <time>2025-06-19T13:54:21.687Z</time>
      </trkpt>
      <trkpt lat="49.31551" lon="2.06189">
        <ele>236.505817</ele>
        <time>2025-06-19T13:54:24.691Z</time>
      </trkpt>
      <trkpt lat="49.3156" lon="2.06185">
        <ele>236.909214</ele>
        <time>2025-06-19T13:54:27.692Z</time>
      </trkpt>
      <trkpt lat="49.31569" lon="2.06181">
        <ele>237.302115</ele>
        <time>2025-06-19T13:54:30.693Z</time>
      </trkpt>
      <trkpt lat="49.31578" lon="2.06177">
        <ele>237.676826</ele>
        <time>2025-06-19T13:54:33.697Z</time>
      </trkpt>
      <trkpt lat="49.31589" lon="2.06172">
        <ele>238.167272</ele>
        <time>2025-06-19T13:54:37.695Z</time>
      </trkpt>
      <trkpt lat="49.316" lon="2.06167">
        <ele>238.651254</ele>
        <time>2025-06-19T13:54:41.686Z</time>
      </trkpt>
      <trkpt lat="49.31612" lon="2.06161">
        <ele>239.142705</ele>
        <time>2025-06-19T13:54:45.692Z</time>
      </trkpt>
      <trkpt lat="49.31621" lon="2.06158">
        <ele>239.531254</ele>
        <time>2025-06-19T13:54:48.693Z</time>
      </trkpt>
      <trkpt lat="49.31629" lon="2.06154">
        <ele>239.907501</ele>
        <time>2025-06-19T13:54:51.695Z</time>
      </trkpt>
      <trkpt lat="49.31638" lon="2.0615">
        <ele>240.280789</ele>
        <time>2025-06-19T13:54:54.696Z</time>
      </trkpt>
      <trkpt lat="49.31647" lon="2.06147">
        <ele>240.664229</ele>
        <time>2025-06-19T13:54:57.702Z</time>
      </trkpt>
      <trkpt lat="49.31656" lon="2.06142">
        <ele>241.051595</ele>
        <time>2025-06-19T13:55:00.690Z</time>
      </trkpt>
      <trkpt lat="49.31665" lon="2.06138">
        <ele>241.939406</ele>
        <time>2025-06-19T13:55:03.700Z</time>
      </trkpt>
      <trkpt lat="49.31674" lon="2.06134">
        <ele>242.83796</ele>
        <time>2025-06-19T13:55:06.699Z</time>
      </trkpt>
      <trkpt lat="49.31683" lon="2.0613">
        <ele>243.709194</ele>
        <time>2025-06-19T13:55:09.691Z</time>
      </trkpt>
      <trkpt lat="49.31691" lon="2.06126">
        <ele>244.565914</ele>
        <time>2025-06-19T13:55:12.692Z</time>
      </trkpt>
      <trkpt lat="49.317" lon="2.06122">
        <ele>245.424579</ele>
        <time>2025-06-19T13:55:15.688Z</time>
      </trkpt>
      <trkpt lat="49.31709" lon="2.06117">
        <ele>246.287112</ele>
        <time>2025-06-19T13:55:18.700Z</time>
      </trkpt>
      <trkpt lat="49.31718" lon="2.06113">
        <ele>247.160123</ele>
        <time>2025-06-19T13:55:21.702Z</time>
      </trkpt>
      <trkpt lat="49.31727" lon="2.0611">
        <ele>248.046339</ele>
        <time>2025-06-19T13:55:24.691Z</time>
      </trkpt>
      <trkpt lat="49.31738" lon="2.06107">
        <ele>249.170387</ele>
        <time>2025-06-19T13:55:28.695Z</time>
      </trkpt>
      <trkpt lat="49.31747" lon="2.06106">
        <ele>250.028485</ele>
        <time>2025-06-19T13:55:31.691Z</time>
      </trkpt>
      <trkpt lat="49.31757" lon="2.06107">
        <ele>250.924392</ele>
        <time>2025-06-19T13:55:34.689Z</time>
      </trkpt>
      <trkpt lat="49.31767" lon="2.06111">
        <ele>251.888625</ele>
        <time>2025-06-19T13:55:37.695Z</time>
      </trkpt>
      <trkpt lat="49.31776" lon="2.06116">
        <ele>252.822038</ele>
        <time>2025-06-19T13:55:40.696Z</time>
      </trkpt>
      <trkpt lat="49.31786" lon="2.06121">
        <ele>253.822135</ele>
        <time>2025-06-19T13:55:43.697Z</time>
      </trkpt>
      <trkpt lat="49.31796" lon="2.06126">
        <ele>254.838593</ele>
        <time>2025-06-19T13:55:46.699Z</time>
      </trkpt>
      <trkpt lat="49.31806" lon="2.06132">
        <ele>255.849637</ele>
        <time>2025-06-19T13:55:49.699Z</time>
      </trkpt>
      <trkpt lat="49.31816" lon="2.06139">
        <ele>256.899143</ele>
        <time>2025-06-19T13:55:52.700Z</time>
      </trkpt>
      <trkpt lat="49.31826" lon="2.06147">
        <ele>257.927479</ele>
        <time>2025-06-19T13:55:55.695Z</time>
      </trkpt>
      <trkpt lat="49.31836" lon="2.06153">
        <ele>258.233993</ele>
        <time>2025-06-19T13:55:58.692Z</time>
      </trkpt>
      <trkpt lat="49.31845" lon="2.0616">
        <ele>258.353648</ele>
        <time>2025-06-19T13:56:01.690Z</time>
      </trkpt>
      <trkpt lat="49.31854" lon="2.06167">
        <ele>258.475372</ele>
        <time>2025-06-19T13:56:04.694Z</time>
      </trkpt>
      <trkpt lat="49.31865" lon="2.06174">
        <ele>258.606125</ele>
        <time>2025-06-19T13:56:07.706Z</time>
      </trkpt>
      <trkpt lat="49.31876" lon="2.0618">
        <ele>258.74036</ele>
        <time>2025-06-19T13:56:10.696Z</time>
      </trkpt>
      <trkpt lat="49.31886" lon="2.06188">
        <ele>258.875658</ele>
        <time>2025-06-19T13:56:13.692Z</time>
      </trkpt>
      <trkpt lat="49.31897" lon="2.06196">
        <ele>259.020827</ele>
        <time>2025-06-19T13:56:16.700Z</time>
      </trkpt>
      <trkpt lat="49.31908" lon="2.06205">
        <ele>259.165359</ele>
        <time>2025-06-19T13:56:19.690Z</time>
      </trkpt>
      <trkpt lat="49.31918" lon="2.06217">
        <ele>259.311034</ele>
        <time>2025-06-19T13:56:22.691Z</time>
      </trkpt>
      <trkpt lat="49.31928" lon="2.06228">
        <ele>259.453989</ele>
        <time>2025-06-19T13:56:25.690Z</time>
      </trkpt>
      <trkpt lat="49.3194" lon="2.06238">
        <ele>259.60392</ele>
        <time>2025-06-19T13:56:28.701Z</time>
      </trkpt>
      <trkpt lat="49.3195" lon="2.06247">
        <ele>259.747805</ele>
        <time>2025-06-19T13:56:31.700Z</time>
      </trkpt>
      <trkpt lat="49.31962" lon="2.06257">
        <ele>259.899621</ele>
        <time>2025-06-19T13:56:34.697Z</time>
      </trkpt>
      <trkpt lat="49.3197" lon="2.06264">
        <ele>260.00577</ele>
        <time>2025-06-19T13:56:36.692Z</time>
      </trkpt>
      <trkpt lat="49.31982" lon="2.06273">
        <ele>260.161665</ele>
        <time>2025-06-19T13:56:39.693Z</time>
      </trkpt>
      <trkpt lat="49.3199" lon="2.0628">
        <ele>260.203117</ele>
        <time>2025-06-19T13:56:41.697Z</time>
      </trkpt>
      <trkpt lat="49.32002" lon="2.06289">
        <ele>260.152322</ele>
        <time>2025-06-19T13:56:44.699Z</time>
      </trkpt>
      <trkpt lat="49.32014" lon="2.06299">
        <ele>260.100825</ele>
        <time>2025-06-19T13:56:47.699Z</time>
      </trkpt>
      <trkpt lat="49.32022" lon="2.06306">
        <ele>260.064649</ele>
        <time>2025-06-19T13:56:49.703Z</time>
      </trkpt>
      <trkpt lat="49.32034" lon="2.06316">
        <ele>260.012024</ele>
        <time>2025-06-19T13:56:52.697Z</time>
      </trkpt>
      <trkpt lat="49.32046" lon="2.06326">
        <ele>259.960089</ele>
        <time>2025-06-19T13:56:55.701Z</time>
      </trkpt>
      <trkpt lat="49.32055" lon="2.06333">
        <ele>259.922361</ele>
        <time>2025-06-19T13:56:57.699Z</time>
      </trkpt>
      <trkpt lat="49.32063" lon="2.06341">
        <ele>259.885679</ele>
        <time>2025-06-19T13:56:59.704Z</time>
      </trkpt>
      <trkpt lat="49.32072" lon="2.06349">
        <ele>259.847497</ele>
        <time>2025-06-19T13:57:01.692Z</time>
      </trkpt>
      <trkpt lat="49.3208" lon="2.06356">
        <ele>259.811468</ele>
        <time>2025-06-19T13:57:03.708Z</time>
      </trkpt>
      <trkpt lat="49.32087" lon="2.06365">
        <ele>259.776072</ele>
        <time>2025-06-19T13:57:05.699Z</time>
      </trkpt>
      <trkpt lat="49.32098" lon="2.06375">
        <ele>259.726923</ele>
        <time>2025-06-19T13:57:08.690Z</time>
      </trkpt>
      <trkpt lat="49.32105" lon="2.06383">
        <ele>259.691515</ele>
        <time>2025-06-19T13:57:10.701Z</time>
      </trkpt>
      <trkpt lat="49.32115" lon="2.06397">
        <ele>259.639729</ele>
        <time>2025-06-19T13:57:13.693Z</time>
      </trkpt>
      <trkpt lat="49.32123" lon="2.06408">
        <ele>259.599996</ele>
        <time>2025-06-19T13:57:15.694Z</time>
      </trkpt>
      <trkpt lat="49.32131" lon="2.06418">
        <ele>259.560914</ele>
        <time>2025-06-19T13:57:17.688Z</time>
      </trkpt>
      <trkpt lat="49.3214" lon="2.06428">
        <ele>259.470208</ele>
        <time>2025-06-19T13:57:19.704Z</time>
      </trkpt>
      <trkpt lat="49.32148" lon="2.06438">
        <ele>259.27057</ele>
        <time>2025-06-19T13:57:21.696Z</time>
      </trkpt>
      <trkpt lat="49.32158" lon="2.06449">
        <ele>259.041951</ele>
        <time>2025-06-19T13:57:23.695Z</time>
      </trkpt>
      <trkpt lat="49.3217" lon="2.0646">
        <ele>258.794981</ele>
        <time>2025-06-19T13:57:25.692Z</time>
      </trkpt>
      <trkpt lat="49.3218" lon="2.06473">
        <ele>258.546179</ele>
        <time>2025-06-19T13:57:27.698Z</time>
      </trkpt>
      <trkpt lat="49.32189" lon="2.06488">
        <ele>258.301729</ele>
        <time>2025-06-19T13:57:29.702Z</time>
      </trkpt>
      <trkpt lat="49.32198" lon="2.06507">
        <ele>258.021912</ele>
        <time>2025-06-19T13:57:31.695Z</time>
      </trkpt>
      <trkpt lat="49.32205" lon="2.06525">
        <ele>257.766224</ele>
        <time>2025-06-19T13:57:33.702Z</time>
      </trkpt>
      <trkpt lat="49.32216" lon="2.06552">
        <ele>257.386637</ele>
        <time>2025-06-19T13:57:35.701Z</time>
      </trkpt>
      <trkpt lat="49.32221" lon="2.06575">
        <ele>257.095804</ele>
        <time>2025-06-19T13:57:37.706Z</time>
      </trkpt>
      <trkpt lat="49.32225" lon="2.0659">
        <ele>256.90357</ele>
        <time>2025-06-19T13:57:38.691Z</time>
      </trkpt>
      <trkpt lat="49.32229" lon="2.06604">
        <ele>256.722472</ele>
        <time>2025-06-19T13:57:39.702Z</time>
      </trkpt>
      <trkpt lat="49.32235" lon="2.06619">
        <ele>256.510085</ele>
        <time>2025-06-19T13:57:40.704Z</time>
      </trkpt>
      <trkpt lat="49.32244" lon="2.06645">
        <ele>256.305452</ele>
        <time>2025-06-19T13:57:42.692Z</time>
      </trkpt>
      <trkpt lat="49.32251" lon="2.06668">
        <ele>256.727627</ele>
        <time>2025-06-19T13:57:44.698Z</time>
      </trkpt>
      <trkpt lat="49.3226" lon="2.06689">
        <ele>257.140698</ele>
        <time>2025-06-19T13:57:46.704Z</time>
      </trkpt>
      <trkpt lat="49.32268" lon="2.06708">
        <ele>257.508165</ele>
        <time>2025-06-19T13:57:48.697Z</time>
      </trkpt>
      <trkpt lat="49.32275" lon="2.06719">
        <ele>257.787085</ele>
        <time>2025-06-19T13:57:50.693Z</time>
      </trkpt>
      <trkpt lat="49.32283" lon="2.06732">
        <ele>258.067738</ele>
        <time>2025-06-19T13:57:52.700Z</time>
      </trkpt>
      <trkpt lat="49.32291" lon="2.06742">
        <ele>258.327042</ele>
        <time>2025-06-19T13:57:54.705Z</time>
      </trkpt>
      <trkpt lat="49.32299" lon="2.06752">
        <ele>258.592812</ele>
        <time>2025-06-19T13:57:56.702Z</time>
      </trkpt>
      <trkpt lat="49.32307" lon="2.06763">
        <ele>258.86034</ele>
        <time>2025-06-19T13:57:58.701Z</time>
      </trkpt>
      <trkpt lat="49.32314" lon="2.06772">
        <ele>259.10995</ele>
        <time>2025-06-19T13:58:00.689Z</time>
      </trkpt>
      <trkpt lat="49.32322" lon="2.06783">
        <ele>259.365476</ele>
        <time>2025-06-19T13:58:02.706Z</time>
      </trkpt>
      <trkpt lat="49.3233" lon="2.06792">
        <ele>259.63338</ele>
        <time>2025-06-19T13:58:05.692Z</time>
      </trkpt>
      <trkpt lat="49.32338" lon="2.06806">
        <ele>259.946991</ele>
        <time>2025-06-19T13:58:08.700Z</time>
      </trkpt>
      <trkpt lat="49.32346" lon="2.06816">
        <ele>260.206716</ele>
        <time>2025-06-19T13:58:10.695Z</time>
      </trkpt>
      <trkpt lat="49.32356" lon="2.06825">
        <ele>260.496394</ele>
        <time>2025-06-19T13:58:13.683Z</time>
      </trkpt>
      <trkpt lat="49.32366" lon="2.06833">
        <ele>260.772547</ele>
        <time>2025-06-19T13:58:16.711Z</time>
      </trkpt>
      <trkpt lat="49.32374" lon="2.06844">
        <ele>260.751018</ele>
        <time>2025-06-19T13:58:19.697Z</time>
      </trkpt>
      <trkpt lat="49.32382" lon="2.06854">
        <ele>260.70094</ele>
        <time>2025-06-19T13:58:22.695Z</time>
      </trkpt>
      <trkpt lat="49.32388" lon="2.06865">
        <ele>260.657468</ele>
        <time>2025-06-19T13:58:25.685Z</time>
      </trkpt>
      <trkpt lat="49.32396" lon="2.06876">
        <ele>260.607652</ele>
        <time>2025-06-19T13:58:28.699Z</time>
      </trkpt>
      <trkpt lat="49.32405" lon="2.06886">
        <ele>260.554349</ele>
        <time>2025-06-19T13:58:31.695Z</time>
      </trkpt>
      <trkpt lat="49.32415" lon="2.06894">
        <ele>260.504758</ele>
        <time>2025-06-19T13:58:34.697Z</time>
      </trkpt>
      <trkpt lat="49.32423" lon="2.06902">
        <ele>260.45937</ele>
        <time>2025-06-19T13:58:37.698Z</time>
      </trkpt>
      <trkpt lat="49.32431" lon="2.06911">
        <ele>260.414473</ele>
        <time>2025-06-19T13:58:40.684Z</time>
      </trkpt>
      <trkpt lat="49.32438" lon="2.06921">
        <ele>260.368344</ele>
        <time>2025-06-19T13:58:43.687Z</time>
      </trkpt>
      <trkpt lat="49.32444" lon="2.06939">
        <ele>260.309599</ele>
        <time>2025-06-19T13:58:46.683Z</time>
      </trkpt>
      <trkpt lat="49.32449" lon="2.06952">
        <ele>260.263231</ele>
        <time>2025-06-19T13:58:48.689Z</time>
      </trkpt>
      <trkpt lat="49.32454" lon="2.06967">
        <ele>260.21445</ele>
        <time>2025-06-19T13:58:50.695Z</time>
      </trkpt>
      <trkpt lat="49.32458" lon="2.06981">
        <ele>260.164278</ele>
        <time>2025-06-19T13:58:52.692Z</time>
      </trkpt>
      <trkpt lat="49.32464" lon="2.06996">
        <ele>260.115011</ele>
        <time>2025-06-19T13:58:54.700Z</time>
      </trkpt>
      <trkpt lat="49.32468" lon="2.0701">
        <ele>260.066716</ele>
        <time>2025-06-19T13:58:56.695Z</time>
      </trkpt>
      <trkpt lat="49.32473" lon="2.07023">
        <ele>260.020724</ele>
        <time>2025-06-19T13:58:58.691Z</time>
      </trkpt>
      <trkpt lat="49.32478" lon="2.07036">
        <ele>259.974379</ele>
        <time>2025-06-19T13:59:00.701Z</time>
      </trkpt>
      <trkpt lat="49.32484" lon="2.07049">
        <ele>259.990947</ele>
        <time>2025-06-19T13:59:02.697Z</time>
      </trkpt>
      <trkpt lat="49.32489" lon="2.07064">
        <ele>260.031838</ele>
        <time>2025-06-19T13:59:04.682Z</time>
      </trkpt>
      <trkpt lat="49.32494" lon="2.07078">
        <ele>260.072791</ele>
        <time>2025-06-19T13:59:06.694Z</time>
      </trkpt>
      <trkpt lat="49.32499" lon="2.07092">
        <ele>260.11246</ele>
        <time>2025-06-19T13:59:08.691Z</time>
      </trkpt>
      <trkpt lat="49.32504" lon="2.07106">
        <ele>260.153851</ele>
        <time>2025-06-19T13:59:10.691Z</time>
      </trkpt>
      <trkpt lat="49.3251" lon="2.07122">
        <ele>260.198191</ele>
        <time>2025-06-19T13:59:12.695Z</time>
      </trkpt>
      <trkpt lat="49.32515" lon="2.07137">
        <ele>260.241683</ele>
        <time>2025-06-19T13:59:14.693Z</time>
      </trkpt>
      <trkpt lat="49.32521" lon="2.07151">
        <ele>260.282974</ele>
        <time>2025-06-19T13:59:16.694Z</time>
      </trkpt>
      <trkpt lat="49.32527" lon="2.07165">
        <ele>260.325964</ele>
        <time>2025-06-19T13:59:18.691Z</time>
      </trkpt>
      <trkpt lat="49.32533" lon="2.07179">
        <ele>260.368303</ele>
        <time>2025-06-19T13:59:20.706Z</time>
      </trkpt>
      <trkpt lat="49.32539" lon="2.07193">
        <ele>260.409826</ele>
        <time>2025-06-19T13:59:22.690Z</time>
      </trkpt>
      <trkpt lat="49.32545" lon="2.07206">
        <ele>260.451326</ele>
        <time>2025-06-19T13:59:24.694Z</time>
      </trkpt>
      <trkpt lat="49.32551" lon="2.0722">
        <ele>260.493883</ele>
        <time>2025-06-19T13:59:26.700Z</time>
      </trkpt>
      <trkpt lat="49.32557" lon="2.07234">
        <ele>260.533695</ele>
        <time>2025-06-19T13:59:28.702Z</time>
      </trkpt>
      <trkpt lat="49.32562" lon="2.07246">
        <ele>260.570607</ele>
        <time>2025-06-19T13:59:30.693Z</time>
      </trkpt>
      <trkpt lat="49.32568" lon="2.07262">
        <ele>260.616547</ele>
        <time>2025-06-19T13:59:33.693Z</time>
      </trkpt>
      <trkpt lat="49.32573" lon="2.07276">
        <ele>260.661969</ele>
        <time>2025-06-19T13:59:36.706Z</time>
      </trkpt>
      <trkpt lat="49.32578" lon="2.07288">
        <ele>260.784123</ele>
        <time>2025-06-19T13:59:39.690Z</time>
      </trkpt>
      <trkpt lat="49.32584" lon="2.07301">
        <ele>260.926805</ele>
        <time>2025-06-19T13:59:42.704Z</time>
      </trkpt>
      <trkpt lat="49.32592" lon="2.07316">
        <ele>261.095794</ele>
        <time>2025-06-19T13:59:45.686Z</time>
      </trkpt>
      <trkpt lat="49.32598" lon="2.07328">
        <ele>261.223938</ele>
        <time>2025-06-19T13:59:47.711Z</time>
      </trkpt>
      <trkpt lat="49.32605" lon="2.07344">
        <ele>261.397133</ele>
        <time>2025-06-19T13:59:50.703Z</time>
      </trkpt>
      <trkpt lat="49.32613" lon="2.07361">
        <ele>261.574381</ele>
        <time>2025-06-19T13:59:53.700Z</time>
      </trkpt>
      <trkpt lat="49.32619" lon="2.07377">
        <ele>261.742843</ele>
        <time>2025-06-19T13:59:56.696Z</time>
      </trkpt>
      <trkpt lat="49.32626" lon="2.07394">
        <ele>261.917884</ele>
        <time>2025-06-19T13:59:59.703Z</time>
      </trkpt>
      <trkpt lat="49.32631" lon="2.07405">
        <ele>262.042182</ele>
        <time>2025-06-19T14:00:01.706Z</time>
      </trkpt>
      <trkpt lat="49.32636" lon="2.07417">
        <ele>262.164293</ele>
        <time>2025-06-19T14:00:03.692Z</time>
      </trkpt>
      <trkpt lat="49.32642" lon="2.07435">
        <ele>262.340841</ele>
        <time>2025-06-19T14:00:06.707Z</time>
      </trkpt>
      <trkpt lat="49.32648" lon="2.07453">
        <ele>262.523462</ele>
        <time>2025-06-19T14:00:09.702Z</time>
      </trkpt>
      <trkpt lat="49.32653" lon="2.07467">
        <ele>262.651626</ele>
        <time>2025-06-19T14:00:11.699Z</time>
      </trkpt>
      <trkpt lat="49.32657" lon="2.0748">
        <ele>262.77841</ele>
        <time>2025-06-19T14:00:13.687Z</time>
      </trkpt>
      <trkpt lat="49.3266" lon="2.07493">
        <ele>262.902409</ele>
        <time>2025-06-19T14:00:15.701Z</time>
      </trkpt>
      <trkpt lat="49.32664" lon="2.07506">
        <ele>263.030459</ele>
        <time>2025-06-19T14:00:17.697Z</time>
      </trkpt>
      <trkpt lat="49.32668" lon="2.0752">
        <ele>263.370371</ele>
        <time>2025-06-19T14:00:19.700Z</time>
      </trkpt>
      <trkpt lat="49.32672" lon="2.07534">
        <ele>263.835353</ele>
        <time>2025-06-19T14:00:21.701Z</time>
      </trkpt>
      <trkpt lat="49.32675" lon="2.07548">
        <ele>264.301318</ele>
        <time>2025-06-19T14:00:23.700Z</time>
      </trkpt>
      <trkpt lat="49.32679" lon="2.07562">
        <ele>264.770135</ele>
        <time>2025-06-19T14:00:25.692Z</time>
      </trkpt>
      <trkpt lat="49.32683" lon="2.07575">
        <ele>265.226623</ele>
        <time>2025-06-19T14:00:27.703Z</time>
      </trkpt>
      <trkpt lat="49.32687" lon="2.07588">
        <ele>265.67554</ele>
        <time>2025-06-19T14:00:29.702Z</time>
      </trkpt>
      <trkpt lat="49.3269" lon="2.07601">
        <ele>266.107494</ele>
        <time>2025-06-19T14:00:31.701Z</time>
      </trkpt>
      <trkpt lat="49.32695" lon="2.0762">
        <ele>266.739849</ele>
        <time>2025-06-19T14:00:34.692Z</time>
      </trkpt>
      <trkpt lat="49.32699" lon="2.07634">
        <ele>267.201995</ele>
        <time>2025-06-19T14:00:36.697Z</time>
      </trkpt>
      <trkpt lat="49.32703" lon="2.07647">
        <ele>267.647187</ele>
        <time>2025-06-19T14:00:38.689Z</time>
      </trkpt>
      <trkpt lat="49.32707" lon="2.07661">
        <ele>268.108431</ele>
        <time>2025-06-19T14:00:40.700Z</time>
      </trkpt>
      <trkpt lat="49.32711" lon="2.07674">
        <ele>268.569676</ele>
        <time>2025-06-19T14:00:42.692Z</time>
      </trkpt>
      <trkpt lat="49.32715" lon="2.07688">
        <ele>269.036562</ele>
        <time>2025-06-19T14:00:44.696Z</time>
      </trkpt>
      <trkpt lat="49.32719" lon="2.07702">
        <ele>269.489286</ele>
        <time>2025-06-19T14:00:46.691Z</time>
      </trkpt>
      <trkpt lat="49.32723" lon="2.07715">
        <ele>269.957307</ele>
        <time>2025-06-19T14:00:48.680Z</time>
      </trkpt>
      <trkpt lat="49.32727" lon="2.07729">
        <ele>270.407309</ele>
        <time>2025-06-19T14:00:50.697Z</time>
      </trkpt>
      <trkpt lat="49.32731" lon="2.07742">
        <ele>270.87702</ele>
        <time>2025-06-19T14:00:52.688Z</time>
      </trkpt>
      <trkpt lat="49.32735" lon="2.07756">
        <ele>271.329743</ele>
        <time>2025-06-19T14:00:54.696Z</time>
      </trkpt>
      <trkpt lat="49.32739" lon="2.0777">
        <ele>271.63719</ele>
        <time>2025-06-19T14:00:56.702Z</time>
      </trkpt>
      <trkpt lat="49.32743" lon="2.07784">
        <ele>271.705568</ele>
        <time>2025-06-19T14:00:58.691Z</time>
      </trkpt>
      <trkpt lat="49.32747" lon="2.07798">
        <ele>271.771593</ele>
        <time>2025-06-19T14:01:00.692Z</time>
      </trkpt>
      <trkpt lat="49.32751" lon="2.07812">
        <ele>271.838494</ele>
        <time>2025-06-19T14:01:02.698Z</time>
      </trkpt>
      <trkpt lat="49.32755" lon="2.07825">
        <ele>271.90502</ele>
        <time>2025-06-19T14:01:04.693Z</time>
      </trkpt>
      <trkpt lat="49.32759" lon="2.07839">
        <ele>271.971737</ele>
        <time>2025-06-19T14:01:06.695Z</time>
      </trkpt>
      <trkpt lat="49.32765" lon="2.07852">
        <ele>272.03876</ele>
        <time>2025-06-19T14:01:08.696Z</time>
      </trkpt>
      <trkpt lat="49.3277" lon="2.07865">
        <ele>272.106863</ele>
        <time>2025-06-19T14:01:10.696Z</time>
      </trkpt>
      <trkpt lat="49.32776" lon="2.07877">
        <ele>272.174021</ele>
        <time>2025-06-19T14:01:12.694Z</time>
      </trkpt>
      <trkpt lat="49.32782" lon="2.07889">
        <ele>272.240479</ele>
        <time>2025-06-19T14:01:14.707Z</time>
      </trkpt>
      <trkpt lat="49.32789" lon="2.07901">
        <ele>272.309911</ele>
        <time>2025-06-19T14:01:16.702Z</time>
      </trkpt>
      <trkpt lat="49.32795" lon="2.07913">
        <ele>272.376312</ele>
        <time>2025-06-19T14:01:18.701Z</time>
      </trkpt>
      <trkpt lat="49.32801" lon="2.07926">
        <ele>272.44666</ele>
        <time>2025-06-19T14:01:20.712Z</time>
      </trkpt>
      <trkpt lat="49.32808" lon="2.07938">
        <ele>272.516667</ele>
        <time>2025-06-19T14:01:22.704Z</time>
      </trkpt>
      <trkpt lat="49.32815" lon="2.0795">
        <ele>272.586433</ele>
        <time>2025-06-19T14:01:24.695Z</time>
      </trkpt>
      <trkpt lat="49.32821" lon="2.07962">
        <ele>272.654869</ele>
        <time>2025-06-19T14:01:26.697Z</time>
      </trkpt>
      <trkpt lat="49.32828" lon="2.07974">
        <ele>272.72445</ele>
        <time>2025-06-19T14:01:28.691Z</time>
      </trkpt>
      <trkpt lat="49.32835" lon="2.07986">
        <ele>272.794654</ele>
        <time>2025-06-19T14:01:30.690Z</time>
      </trkpt>
      <trkpt lat="49.32841" lon="2.07998">
        <ele>272.35477</ele>
        <time>2025-06-19T14:01:32.703Z</time>
      </trkpt>
      <trkpt lat="49.32849" lon="2.08009">
        <ele>271.567829</ele>
        <time>2025-06-19T14:01:34.688Z</time>
      </trkpt>
      <trkpt lat="49.32856" lon="2.0802">
        <ele>270.756876</ele>
        <time>2025-06-19T14:01:36.714Z</time>
      </trkpt>
      <trkpt lat="49.32864" lon="2.08031">
        <ele>269.99859</ele>
        <time>2025-06-19T14:01:38.697Z</time>
      </trkpt>
      <trkpt lat="49.32871" lon="2.08041">
        <ele>269.226883</ele>
        <time>2025-06-19T14:01:40.711Z</time>
      </trkpt>
      <trkpt lat="49.32878" lon="2.08051">
        <ele>268.479871</ele>
        <time>2025-06-19T14:01:42.690Z</time>
      </trkpt>
      <trkpt lat="49.32886" lon="2.08061">
        <ele>267.724897</ele>
        <time>2025-06-19T14:01:44.689Z</time>
      </trkpt>
      <trkpt lat="49.32894" lon="2.08072">
        <ele>266.940432</ele>
        <time>2025-06-19T14:01:46.698Z</time>
      </trkpt>
      <trkpt lat="49.32902" lon="2.08082">
        <ele>266.153847</ele>
        <time>2025-06-19T14:01:48.699Z</time>
      </trkpt>
      <trkpt lat="49.3291" lon="2.08092">
        <ele>265.369987</ele>
        <time>2025-06-19T14:01:50.703Z</time>
      </trkpt>
      <trkpt lat="49.32918" lon="2.08101">
        <ele>264.577661</ele>
        <time>2025-06-19T14:01:52.697Z</time>
      </trkpt>
      <trkpt lat="49.32926" lon="2.08111">
        <ele>263.781317</ele>
        <time>2025-06-19T14:01:54.686Z</time>
      </trkpt>
      <trkpt lat="49.32935" lon="2.0812">
        <ele>262.963278</ele>
        <time>2025-06-19T14:01:56.691Z</time>
      </trkpt>
      <trkpt lat="49.32944" lon="2.08129">
        <ele>262.162571</ele>
        <time>2025-06-19T14:01:58.702Z</time>
      </trkpt>
      <trkpt lat="49.32954" lon="2.08136">
        <ele>261.345569</ele>
        <time>2025-06-19T14:02:00.695Z</time>
      </trkpt>
      <trkpt lat="49.32963" lon="2.08145">
        <ele>260.485591</ele>
        <time>2025-06-19T14:02:02.695Z</time>
      </trkpt>
      <trkpt lat="49.32973" lon="2.08153">
        <ele>259.665459</ele>
        <time>2025-06-19T14:02:04.689Z</time>
      </trkpt>
      <trkpt lat="49.32982" lon="2.08162">
        <ele>258.954019</ele>
        <time>2025-06-19T14:02:06.697Z</time>
      </trkpt>
      <trkpt lat="49.32992" lon="2.0817">
        <ele>258.459744</ele>
        <time>2025-06-19T14:02:08.700Z</time>
      </trkpt>
      <trkpt lat="49.33001" lon="2.08178">
        <ele>257.984319</ele>
        <time>2025-06-19T14:02:10.687Z</time>
      </trkpt>
      <trkpt lat="49.33011" lon="2.08188">
        <ele>257.489412</ele>
        <time>2025-06-19T14:02:12.691Z</time>
      </trkpt>
      <trkpt lat="49.3302" lon="2.08196">
        <ele>257.011623</ele>
        <time>2025-06-19T14:02:14.695Z</time>
      </trkpt>
      <trkpt lat="49.33029" lon="2.08204">
        <ele>256.533835</ele>
        <time>2025-06-19T14:02:16.680Z</time>
      </trkpt>
      <trkpt lat="49.33039" lon="2.08213">
        <ele>256.04197</ele>
        <time>2025-06-19T14:02:18.706Z</time>
      </trkpt>
      <trkpt lat="49.33049" lon="2.08222">
        <ele>255.544847</ele>
        <time>2025-06-19T14:02:20.692Z</time>
      </trkpt>
      <trkpt lat="49.33058" lon="2.08231">
        <ele>255.045068</ele>
        <time>2025-06-19T14:02:22.693Z</time>
      </trkpt>
      <trkpt lat="49.33068" lon="2.0824">
        <ele>254.537432</ele>
        <time>2025-06-19T14:02:24.695Z</time>
      </trkpt>
      <trkpt lat="49.33078" lon="2.08249">
        <ele>254.032793</ele>
        <time>2025-06-19T14:02:26.691Z</time>
      </trkpt>
      <trkpt lat="49.33088" lon="2.08258">
        <ele>253.53256</ele>
        <time>2025-06-19T14:02:28.695Z</time>
      </trkpt>
      <trkpt lat="49.33098" lon="2.08267">
        <ele>253.015627</ele>
        <time>2025-06-19T14:02:30.703Z</time>
      </trkpt>
      <trkpt lat="49.33109" lon="2.08276">
        <ele>252.466186</ele>
        <time>2025-06-19T14:02:32.692Z</time>
      </trkpt>
      <trkpt lat="49.33119" lon="2.08286">
        <ele>251.930748</ele>
        <time>2025-06-19T14:02:34.702Z</time>
      </trkpt>
      <trkpt lat="49.3313" lon="2.08296">
        <ele>251.365569</ele>
        <time>2025-06-19T14:02:36.698Z</time>
      </trkpt>
      <trkpt lat="49.33141" lon="2.08306">
        <ele>250.734544</ele>
        <time>2025-06-19T14:02:38.707Z</time>
      </trkpt>
      <trkpt lat="49.33151" lon="2.08314">
        <ele>250.078474</ele>
        <time>2025-06-19T14:02:40.707Z</time>
      </trkpt>
      <trkpt lat="49.33162" lon="2.08323">
        <ele>249.427185</ele>
        <time>2025-06-19T14:02:42.696Z</time>
      </trkpt>
      <trkpt lat="49.33172" lon="2.08334">
        <ele>248.743661</ele>
        <time>2025-06-19T14:02:44.691Z</time>
      </trkpt>
      <trkpt lat="49.33183" lon="2.08345">
        <ele>248.029423</ele>
        <time>2025-06-19T14:02:46.694Z</time>
      </trkpt>
      <trkpt lat="49.33193" lon="2.08358">
        <ele>247.322031</ele>
        <time>2025-06-19T14:02:48.701Z</time>
      </trkpt>
      <trkpt lat="49.332" lon="2.08376">
        <ele>246.595186</ele>
        <time>2025-06-19T14:02:50.690Z</time>
      </trkpt>
      <trkpt lat="49.33203" lon="2.08397">
        <ele>245.814844</ele>
        <time>2025-06-19T14:02:52.687Z</time>
      </trkpt>
      <trkpt lat="49.33202" lon="2.08418">
        <ele>245.049728</ele>
        <time>2025-06-19T14:02:54.691Z</time>
      </trkpt>
      <trkpt lat="49.33196" lon="2.08439">
        <ele>244.244294</ele>
        <time>2025-06-19T14:02:56.694Z</time>
      </trkpt>
      <trkpt lat="49.33188" lon="2.08459">
        <ele>243.398935</ele>
        <time>2025-06-19T14:02:58.689Z</time>
      </trkpt>
      <trkpt lat="49.33179" lon="2.08479">
        <ele>242.540536</ele>
        <time>2025-06-19T14:03:00.699Z</time>
      </trkpt>
      <trkpt lat="49.33167" lon="2.0849">
        <ele>241.778674</ele>
        <time>2025-06-19T14:03:02.695Z</time>
      </trkpt>
      <trkpt lat="49.33154" lon="2.08502">
        <ele>240.925188</ele>
        <time>2025-06-19T14:03:04.707Z</time>
      </trkpt>
      <trkpt lat="49.33143" lon="2.08516">
        <ele>240.100553</ele>
        <time>2025-06-19T14:03:06.699Z</time>
      </trkpt>
      <trkpt lat="49.33138" lon="2.08533">
        <ele>239.389017</ele>
        <time>2025-06-19T14:03:08.692Z</time>
      </trkpt>
      <trkpt lat="49.33137" lon="2.08553">
        <ele>238.608329</ele>
        <time>2025-06-19T14:03:10.686Z</time>
      </trkpt>
      <trkpt lat="49.33135" lon="2.08575">
        <ele>237.754617</ele>
        <time>2025-06-19T14:03:12.696Z</time>
      </trkpt>
      <trkpt lat="49.33134" lon="2.08599">
        <ele>236.851711</ele>
        <time>2025-06-19T14:03:14.704Z</time>
      </trkpt>
      <trkpt lat="49.33134" lon="2.08622">
        <ele>235.954922</ele>
        <time>2025-06-19T14:03:16.699Z</time>
      </trkpt>
      <trkpt lat="49.3313" lon="2.08646">
        <ele>235.036297</ele>
        <time>2025-06-19T14:03:18.699Z</time>
      </trkpt>
      <trkpt lat="49.33126" lon="2.08666">
        <ele>234.225271</ele>
        <time>2025-06-19T14:03:20.701Z</time>
      </trkpt>
      <trkpt lat="49.33121" lon="2.08684">
        <ele>233.480872</ele>
        <time>2025-06-19T14:03:22.706Z</time>
      </trkpt>
      <trkpt lat="49.33113" lon="2.08704">
        <ele>232.580386</ele>
        <time>2025-06-19T14:03:24.689Z</time>
      </trkpt>
      <trkpt lat="49.33103" lon="2.08723">
        <ele>231.644187</ele>
        <time>2025-06-19T14:03:26.699Z</time>
      </trkpt>
      <trkpt lat="49.33091" lon="2.08732">
        <ele>230.856402</ele>
        <time>2025-06-19T14:03:28.695Z</time>
      </trkpt>
      <trkpt lat="49.33076" lon="2.08734">
        <ele>230.190966</ele>
        <time>2025-06-19T14:03:30.698Z</time>
      </trkpt>
      <trkpt lat="49.33062" lon="2.08731">
        <ele>229.616045</ele>
        <time>2025-06-19T14:03:32.715Z</time>
      </trkpt>
      <trkpt lat="49.3305" lon="2.08735">
        <ele>229.067625</ele>
        <time>2025-06-19T14:03:34.710Z</time>
      </trkpt>
      <trkpt lat="49.33039" lon="2.08748">
        <ele>228.462627</ele>
        <time>2025-06-19T14:03:36.690Z</time>
      </trkpt>
      <trkpt lat="49.33036" lon="2.08767">
        <ele>227.918311</ele>
        <time>2025-06-19T14:03:38.689Z</time>
      </trkpt>
      <trkpt lat="49.33039" lon="2.08785">
        <ele>227.389169</ele>
        <time>2025-06-19T14:03:40.693Z</time>
      </trkpt>
      <trkpt lat="49.3305" lon="2.08795">
        <ele>226.846203</ele>
        <time>2025-06-19T14:03:42.698Z</time>
      </trkpt>
      <trkpt lat="49.33064" lon="2.08795">
        <ele>226.202514</ele>
        <time>2025-06-19T14:03:44.699Z</time>
      </trkpt>
      <trkpt lat="49.3308" lon="2.08788">
        <ele>225.50691</ele>
        <time>2025-06-19T14:03:46.688Z</time>
      </trkpt>
      <trkpt lat="49.33095" lon="2.0878">
        <ele>224.793132</ele>
        <time>2025-06-19T14:03:48.696Z</time>
      </trkpt>
      <trkpt lat="49.33111" lon="2.08772">
        <ele>224.093937</ele>
        <time>2025-06-19T14:03:50.685Z</time>
      </trkpt>
      <trkpt lat="49.33125" lon="2.08766">
        <ele>223.464031</ele>
        <time>2025-06-19T14:03:52.688Z</time>
      </trkpt>
      <trkpt lat="49.3314" lon="2.08757">
        <ele>222.700506</ele>
        <time>2025-06-19T14:03:54.699Z</time>
      </trkpt>
      <trkpt lat="49.33149" lon="2.0875">
        <ele>222.119575</ele>
        <time>2025-06-19T14:03:55.683Z</time>
      </trkpt>
      <trkpt lat="49.33157" lon="2.08742">
        <ele>221.570137</ele>
        <time>2025-06-19T14:03:56.699Z</time>
      </trkpt>
      <trkpt lat="49.33165" lon="2.08734">
        <ele>221.044339</ele>
        <time>2025-06-19T14:03:57.700Z</time>
      </trkpt>
      <trkpt lat="49.33177" lon="2.0872">
        <ele>220.156084</ele>
        <time>2025-06-19T14:03:59.707Z</time>
      </trkpt>
      <trkpt lat="49.33191" lon="2.08704">
        <ele>219.180356</ele>
        <time>2025-06-19T14:04:01.704Z</time>
      </trkpt>
      <trkpt lat="49.33205" lon="2.08687">
        <ele>218.157434</ele>
        <time>2025-06-19T14:04:03.709Z</time>
      </trkpt>
      <trkpt lat="49.33222" lon="2.08677">
        <ele>217.154327</ele>
        <time>2025-06-19T14:04:05.696Z</time>
      </trkpt>
      <trkpt lat="49.3324" lon="2.08674">
        <ele>216.105955</ele>
        <time>2025-06-19T14:04:07.696Z</time>
      </trkpt>
      <trkpt lat="49.33251" lon="2.08674">
        <ele>215.522806</ele>
        <time>2025-06-19T14:04:08.685Z</time>
      </trkpt>
      <trkpt lat="49.3326" lon="2.08674">
        <ele>214.968565</ele>
        <time>2025-06-19T14:04:09.692Z</time>
      </trkpt>
      <trkpt lat="49.3327" lon="2.08677">
        <ele>214.413083</ele>
        <time>2025-06-19T14:04:10.692Z</time>
      </trkpt>
      <trkpt lat="49.3328" lon="2.0868">
        <ele>213.818413</ele>
        <time>2025-06-19T14:04:11.698Z</time>
      </trkpt>
      <trkpt lat="49.3329" lon="2.08682">
        <ele>213.293014</ele>
        <time>2025-06-19T14:04:12.697Z</time>
      </trkpt>
      <trkpt lat="49.33306" lon="2.08686">
        <ele>212.397544</ele>
        <time>2025-06-19T14:04:14.691Z</time>
      </trkpt>
      <trkpt lat="49.33324" lon="2.08685">
        <ele>211.509616</ele>
        <time>2025-06-19T14:04:16.702Z</time>
      </trkpt>
      <trkpt lat="49.33333" lon="2.08684">
        <ele>211.055543</ele>
        <time>2025-06-19T14:04:17.696Z</time>
      </trkpt>
      <trkpt lat="49.33343" lon="2.08683">
        <ele>210.578102</ele>
        <time>2025-06-19T14:04:18.701Z</time>
      </trkpt>
      <trkpt lat="49.33352" lon="2.0868">
        <ele>210.116805</ele>
        <time>2025-06-19T14:04:19.699Z</time>
      </trkpt>
      <trkpt lat="49.33369" lon="2.08672">
        <ele>209.220906</ele>
        <time>2025-06-19T14:04:21.692Z</time>
      </trkpt>
      <trkpt lat="49.33385" lon="2.08662">
        <ele>208.347826</ele>
        <time>2025-06-19T14:04:23.693Z</time>
      </trkpt>
      <trkpt lat="49.33399" lon="2.08647">
        <ele>207.52068</ele>
        <time>2025-06-19T14:04:25.694Z</time>
      </trkpt>
      <trkpt lat="49.33411" lon="2.08628">
        <ele>206.671739</ele>
        <time>2025-06-19T14:04:27.693Z</time>
      </trkpt>
      <trkpt lat="49.33419" lon="2.08609">
        <ele>205.907156</ele>
        <time>2025-06-19T14:04:29.696Z</time>
      </trkpt>
      <trkpt lat="49.33425" lon="2.08587">
        <ele>205.139458</ele>
        <time>2025-06-19T14:04:31.693Z</time>
      </trkpt>
      <trkpt lat="49.33435" lon="2.0857">
        <ele>204.390887</ele>
        <time>2025-06-19T14:04:33.682Z</time>
      </trkpt>
      <trkpt lat="49.3345" lon="2.08562">
        <ele>203.676693</ele>
        <time>2025-06-19T14:04:35.690Z</time>
      </trkpt>
      <trkpt lat="49.33467" lon="2.08565">
        <ele>203.014884</ele>
        <time>2025-06-19T14:04:37.697Z</time>
      </trkpt>
      <trkpt lat="49.33484" lon="2.08571">
        <ele>202.346177</ele>
        <time>2025-06-19T14:04:39.698Z</time>
      </trkpt>
      <trkpt lat="49.33501" lon="2.08576">
        <ele>201.681256</ele>
        <time>2025-06-19T14:04:41.686Z</time>
      </trkpt>
      <trkpt lat="49.33517" lon="2.08582">
        <ele>201.015264</ele>
        <time>2025-06-19T14:04:43.711Z</time>
      </trkpt>
      <trkpt lat="49.33534" lon="2.08588">
        <ele>200.367591</ele>
        <time>2025-06-19T14:04:45.702Z</time>
      </trkpt>
      <trkpt lat="49.33549" lon="2.08593">
        <ele>199.744248</ele>
        <time>2025-06-19T14:04:47.695Z</time>
      </trkpt>
      <trkpt lat="49.33565" lon="2.08599">
        <ele>199.125239</ele>
        <time>2025-06-19T14:04:49.698Z</time>
      </trkpt>
      <trkpt lat="49.33581" lon="2.08604">
        <ele>198.502999</ele>
        <time>2025-06-19T14:04:51.697Z</time>
      </trkpt>
      <trkpt lat="49.33596" lon="2.08609">
        <ele>197.908306</ele>
        <time>2025-06-19T14:04:53.700Z</time>
      </trkpt>
      <trkpt lat="49.3361" lon="2.08614">
        <ele>197.332493</ele>
        <time>2025-06-19T14:04:55.696Z</time>
      </trkpt>
      <trkpt lat="49.33624" lon="2.08619">
        <ele>196.790656</ele>
        <time>2025-06-19T14:04:57.687Z</time>
      </trkpt>
      <trkpt lat="49.33637" lon="2.08624">
        <ele>196.29939</ele>
        <time>2025-06-19T14:04:59.690Z</time>
      </trkpt>
      <trkpt lat="49.33651" lon="2.08629">
        <ele>195.803829</ele>
        <time>2025-06-19T14:05:01.689Z</time>
      </trkpt>
      <trkpt lat="49.33665" lon="2.08633">
        <ele>195.300765</ele>
        <time>2025-06-19T14:05:03.698Z</time>
      </trkpt>
      <trkpt lat="49.33678" lon="2.08638">
        <ele>194.803638</ele>
        <time>2025-06-19T14:05:05.698Z</time>
      </trkpt>
      <trkpt lat="49.33692" lon="2.08643">
        <ele>194.300574</ele>
        <time>2025-06-19T14:05:07.692Z</time>
      </trkpt>
      <trkpt lat="49.33705" lon="2.08647">
        <ele>193.824977</ele>
        <time>2025-06-19T14:05:09.689Z</time>
      </trkpt>
      <trkpt lat="49.33718" lon="2.08651">
        <ele>193.331356</ele>
        <time>2025-06-19T14:05:11.690Z</time>
      </trkpt>
      <trkpt lat="49.33732" lon="2.08656">
        <ele>192.840292</ele>
        <time>2025-06-19T14:05:13.698Z</time>
      </trkpt>
      <trkpt lat="49.33745" lon="2.0866">
        <ele>192.35813</ele>
        <time>2025-06-19T14:05:15.690Z</time>
      </trkpt>
      <trkpt lat="49.33759" lon="2.08664">
        <ele>191.861452</ele>
        <time>2025-06-19T14:05:17.697Z</time>
      </trkpt>
      <trkpt lat="49.33773" lon="2.08668">
        <ele>191.342319</ele>
        <time>2025-06-19T14:05:19.706Z</time>
      </trkpt>
      <trkpt lat="49.33787" lon="2.08672">
        <ele>190.817903</ele>
        <time>2025-06-19T14:05:21.701Z</time>
      </trkpt>
      <trkpt lat="49.33801" lon="2.08676">
        <ele>190.346527</ele>
        <time>2025-06-19T14:05:23.685Z</time>
      </trkpt>
      <trkpt lat="49.33815" lon="2.08681">
        <ele>189.945736</ele>
        <time>2025-06-19T14:05:25.699Z</time>
      </trkpt>
      <trkpt lat="49.33829" lon="2.08685">
        <ele>189.541005</ele>
        <time>2025-06-19T14:05:27.684Z</time>
      </trkpt>
      <trkpt lat="49.33843" lon="2.08688">
        <ele>189.133101</ele>
        <time>2025-06-19T14:05:29.691Z</time>
      </trkpt>
      <trkpt lat="49.33857" lon="2.08691">
        <ele>188.732596</ele>
        <time>2025-06-19T14:05:31.702Z</time>
      </trkpt>
      <trkpt lat="49.33872" lon="2.08695">
        <ele>188.314754</ele>
        <time>2025-06-19T14:05:33.694Z</time>
      </trkpt>
      <trkpt lat="49.33887" lon="2.08698">
        <ele>187.896631</ele>
        <time>2025-06-19T14:05:35.687Z</time>
      </trkpt>
      <trkpt lat="49.33902" lon="2.08702">
        <ele>187.466753</ele>
        <time>2025-06-19T14:05:37.690Z</time>
      </trkpt>
      <trkpt lat="49.33917" lon="2.08706">
        <ele>187.032857</ele>
        <time>2025-06-19T14:05:39.693Z</time>
      </trkpt>
      <trkpt lat="49.33932" lon="2.0871">
        <ele>186.588718</ele>
        <time>2025-06-19T14:05:41.707Z</time>
      </trkpt>
      <trkpt lat="49.33949" lon="2.08714">
        <ele>186.119135</ele>
        <time>2025-06-19T14:05:43.689Z</time>
      </trkpt>
      <trkpt lat="49.33965" lon="2.08718">
        <ele>185.638637</ele>
        <time>2025-06-19T14:05:45.705Z</time>
      </trkpt>
      <trkpt lat="49.33982" lon="2.08721">
        <ele>185.434102</ele>
        <time>2025-06-19T14:05:47.700Z</time>
      </trkpt>
      <trkpt lat="49.33999" lon="2.08725">
        <ele>185.465705</ele>
        <time>2025-06-19T14:05:49.701Z</time>
      </trkpt>
      <trkpt lat="49.34016" lon="2.08729">
        <ele>185.497569</ele>
        <time>2025-06-19T14:05:51.692Z</time>
      </trkpt>
      <trkpt lat="49.34032" lon="2.08736">
        <ele>185.528642</ele>
        <time>2025-06-19T14:05:53.693Z</time>
      </trkpt>
      <trkpt lat="49.34048" lon="2.0874">
        <ele>185.560321</ele>
        <time>2025-06-19T14:05:55.697Z</time>
      </trkpt>
      <trkpt lat="49.34065" lon="2.08744">
        <ele>185.591551</ele>
        <time>2025-06-19T14:05:57.694Z</time>
      </trkpt>
      <trkpt lat="49.34079" lon="2.08747">
        <ele>185.618632</ele>
        <time>2025-06-19T14:05:59.701Z</time>
      </trkpt>
      <trkpt lat="49.34091" lon="2.0875">
        <ele>185.642083</ele>
        <time>2025-06-19T14:06:01.695Z</time>
      </trkpt>
      <trkpt lat="49.34102" lon="2.08753">
        <ele>185.662727</ele>
        <time>2025-06-19T14:06:03.694Z</time>
      </trkpt>
      <trkpt lat="49.34111" lon="2.08754">
        <ele>185.680686</ele>
        <time>2025-06-19T14:06:05.703Z</time>
      </trkpt>
      <trkpt lat="49.34121" lon="2.08757">
        <ele>185.698671</ele>
        <time>2025-06-19T14:06:07.691Z</time>
      </trkpt>
      <trkpt lat="49.34131" lon="2.08762">
        <ele>185.719344</ele>
        <time>2025-06-19T14:06:10.694Z</time>
      </trkpt>
      <trkpt lat="49.34134" lon="2.0878">
        <ele>185.741809</ele>
        <time>2025-06-19T14:06:14.695Z</time>
      </trkpt>
      <trkpt lat="49.34129" lon="2.08798">
        <ele>185.82604</ele>
        <time>2025-06-19T14:06:17.687Z</time>
      </trkpt>
      <trkpt lat="49.34127" lon="2.08812">
        <ele>185.949663</ele>
        <time>2025-06-19T14:06:19.699Z</time>
      </trkpt>
      <trkpt lat="49.34124" lon="2.08827">
        <ele>186.080749</ele>
        <time>2025-06-19T14:06:21.690Z</time>
      </trkpt>
      <trkpt lat="49.34123" lon="2.08843">
        <ele>186.218339</ele>
        <time>2025-06-19T14:06:23.694Z</time>
      </trkpt>
      <trkpt lat="49.34123" lon="2.08858">
        <ele>186.345379</ele>
        <time>2025-06-19T14:06:25.692Z</time>
      </trkpt>
      <trkpt lat="49.34124" lon="2.08872">
        <ele>186.471856</ele>
        <time>2025-06-19T14:06:27.688Z</time>
      </trkpt>
      <trkpt lat="49.34126" lon="2.08886">
        <ele>186.594885</ele>
        <time>2025-06-19T14:06:29.693Z</time>
      </trkpt>
      <trkpt lat="49.34128" lon="2.08901">
        <ele>186.719894</ele>
        <time>2025-06-19T14:06:31.708Z</time>
      </trkpt>
      <trkpt lat="49.3413" lon="2.08915">
        <ele>186.844066</ele>
        <time>2025-06-19T14:06:33.690Z</time>
      </trkpt>
      <trkpt lat="49.34132" lon="2.08929">
        <ele>186.968761</ele>
        <time>2025-06-19T14:06:35.692Z</time>
      </trkpt>
      <trkpt lat="49.34133" lon="2.08943">
        <ele>187.089724</ele>
        <time>2025-06-19T14:06:37.702Z</time>
      </trkpt>
      <trkpt lat="49.34134" lon="2.08958">
        <ele>187.212649</ele>
        <time>2025-06-19T14:06:39.690Z</time>
      </trkpt>
      <trkpt lat="49.34136" lon="2.08972">
        <ele>187.340347</ele>
        <time>2025-06-19T14:06:41.698Z</time>
      </trkpt>
      <trkpt lat="49.34137" lon="2.08987">
        <ele>187.462992</ele>
        <time>2025-06-19T14:06:43.694Z</time>
      </trkpt>
      <trkpt lat="49.34139" lon="2.09004">
        <ele>187.6157</ele>
        <time>2025-06-19T14:06:47.704Z</time>
      </trkpt>
      <trkpt lat="49.3414" lon="2.09023">
        <ele>187.772383</ele>
        <time>2025-06-19T14:06:50.693Z</time>
      </trkpt>
      <trkpt lat="49.34139" lon="2.09043">
        <ele>187.941374</ele>
        <time>2025-06-19T14:06:53.694Z</time>
      </trkpt>
      <trkpt lat="49.34138" lon="2.09062">
        <ele>188.106959</ele>
        <time>2025-06-19T14:06:56.696Z</time>
      </trkpt>
      <trkpt lat="49.34145" lon="2.09073">
        <ele>188.150416</ele>
        <time>2025-06-19T14:06:59.691Z</time>
      </trkpt>
      <trkpt lat="49.34155" lon="2.0908">
        <ele>188.198125</ele>
        <time>2025-06-19T14:07:02.692Z</time>
      </trkpt>
      <trkpt lat="49.34165" lon="2.09086">
        <ele>188.244573</ele>
        <time>2025-06-19T14:07:05.692Z</time>
      </trkpt>
      <trkpt lat="49.34174" lon="2.09091">
        <ele>188.283864</ele>
        <time>2025-06-19T14:07:08.685Z</time>
      </trkpt>
      <trkpt lat="49.34184" lon="2.09094">
        <ele>188.325811</ele>
        <time>2025-06-19T14:07:11.703Z</time>
      </trkpt>
      <trkpt lat="49.34195" lon="2.09097">
        <ele>188.375573</ele>
        <time>2025-06-19T14:07:14.695Z</time>
      </trkpt>
      <trkpt lat="49.34207" lon="2.09099">
        <ele>188.42721</ele>
        <time>2025-06-19T14:07:17.694Z</time>
      </trkpt>
      <trkpt lat="49.34219" lon="2.09101">
        <ele>188.479394</ele>
        <time>2025-06-19T14:07:20.688Z</time>
      </trkpt>
      <trkpt lat="49.34232" lon="2.09101">
        <ele>188.531514</ele>
        <time>2025-06-19T14:07:23.691Z</time>
      </trkpt>
      <trkpt lat="49.34244" lon="2.09101">
        <ele>188.585315</ele>
        <time>2025-06-19T14:07:26.696Z</time>
      </trkpt>
      <trkpt lat="49.34257" lon="2.09101">
        <ele>188.641681</ele>
        <time>2025-06-19T14:07:29.693Z</time>
      </trkpt>
      <trkpt lat="49.34267" lon="2.091">
        <ele>188.681488</ele>
        <time>2025-06-19T14:07:31.694Z</time>
      </trkpt>
      <trkpt lat="49.34276" lon="2.09097">
        <ele>188.721592</ele>
        <time>2025-06-19T14:07:33.700Z</time>
      </trkpt>
      <trkpt lat="49.34285" lon="2.09094">
        <ele>188.762413</ele>
        <time>2025-06-19T14:07:35.687Z</time>
      </trkpt>
      <trkpt lat="49.34295" lon="2.09092">
        <ele>188.80551</ele>
        <time>2025-06-19T14:07:37.700Z</time>
      </trkpt>
      <trkpt lat="49.34306" lon="2.0909">
        <ele>188.850023</ele>
        <time>2025-06-19T14:07:39.699Z</time>
      </trkpt>
      <trkpt lat="49.34316" lon="2.0909">
        <ele>188.790213</ele>
        <time>2025-06-19T14:07:41.692Z</time>
      </trkpt>
      <trkpt lat="49.34326" lon="2.09091">
        <ele>188.577858</ele>
        <time>2025-06-19T14:07:43.690Z</time>
      </trkpt>
      <trkpt lat="49.34336" lon="2.09093">
        <ele>188.367262</ele>
        <time>2025-06-19T14:07:45.697Z</time>
      </trkpt>
      <trkpt lat="49.34349" lon="2.09094">
        <ele>188.08994</ele>
        <time>2025-06-19T14:07:48.687Z</time>
      </trkpt>
      <trkpt lat="49.34362" lon="2.09096">
        <ele>187.818017</ele>
        <time>2025-06-19T14:07:51.701Z</time>
      </trkpt>
      <trkpt lat="49.34371" lon="2.091">
        <ele>187.62023</ele>
        <time>2025-06-19T14:07:53.697Z</time>
      </trkpt>
      <trkpt lat="49.3438" lon="2.09106">
        <ele>187.420197</ele>
        <time>2025-06-19T14:07:55.704Z</time>
      </trkpt>
      <trkpt lat="49.34389" lon="2.09113">
        <ele>187.200357</ele>
        <time>2025-06-19T14:07:57.709Z</time>
      </trkpt>
      <trkpt lat="49.34399" lon="2.09121">
        <ele>186.976945</ele>
        <time>2025-06-19T14:07:59.693Z</time>
      </trkpt>
      <trkpt lat="49.34408" lon="2.09129">
        <ele>186.750188</ele>
        <time>2025-06-19T14:08:01.692Z</time>
      </trkpt>
      <trkpt lat="49.34417" lon="2.09138">
        <ele>186.522841</ele>
        <time>2025-06-19T14:08:03.702Z</time>
      </trkpt>
      <trkpt lat="49.34426" lon="2.09147">
        <ele>186.300499</ele>
        <time>2025-06-19T14:08:05.687Z</time>
      </trkpt>
      <trkpt lat="49.34436" lon="2.09155">
        <ele>186.065755</ele>
        <time>2025-06-19T14:08:07.698Z</time>
      </trkpt>
      <trkpt lat="49.34446" lon="2.09162">
        <ele>185.83658</ele>
        <time>2025-06-19T14:08:09.692Z</time>
      </trkpt>
      <trkpt lat="49.34456" lon="2.09167">
        <ele>185.616231</ele>
        <time>2025-06-19T14:08:11.682Z</time>
      </trkpt>
      <trkpt lat="49.34467" lon="2.09172">
        <ele>185.380538</ele>
        <time>2025-06-19T14:08:13.697Z</time>
      </trkpt>
      <trkpt lat="49.34478" lon="2.09177">
        <ele>185.132637</ele>
        <time>2025-06-19T14:08:15.693Z</time>
      </trkpt>
      <trkpt lat="49.3449" lon="2.09184">
        <ele>184.718337</ele>
        <time>2025-06-19T14:08:17.697Z</time>
      </trkpt>
      <trkpt lat="49.34501" lon="2.09191">
        <ele>184.299854</ele>
        <time>2025-06-19T14:08:19.691Z</time>
      </trkpt>
      <trkpt lat="49.34511" lon="2.09201">
        <ele>183.891956</ele>
        <time>2025-06-19T14:08:21.694Z</time>
      </trkpt>
      <trkpt lat="49.34521" lon="2.09211">
        <ele>183.48699</ele>
        <time>2025-06-19T14:08:23.704Z</time>
      </trkpt>
      <trkpt lat="49.3453" lon="2.0922">
        <ele>183.120458</ele>
        <time>2025-06-19T14:08:25.709Z</time>
      </trkpt>
      <trkpt lat="49.3454" lon="2.09227">
        <ele>182.757821</ele>
        <time>2025-06-19T14:08:27.691Z</time>
      </trkpt>
      <trkpt lat="49.34549" lon="2.09234">
        <ele>182.412416</ele>
        <time>2025-06-19T14:08:29.695Z</time>
      </trkpt>
      <trkpt lat="49.34557" lon="2.09243">
        <ele>182.05023</ele>
        <time>2025-06-19T14:08:31.703Z</time>
      </trkpt>
      <trkpt lat="49.34566" lon="2.09255">
        <ele>181.678104</ele>
        <time>2025-06-19T14:08:33.698Z</time>
      </trkpt>
      <trkpt lat="49.34574" lon="2.09267">
        <ele>181.283906</ele>
        <time>2025-06-19T14:08:35.687Z</time>
      </trkpt>
      <trkpt lat="49.34583" lon="2.09278">
        <ele>180.872211</ele>
        <time>2025-06-19T14:08:37.702Z</time>
      </trkpt>
      <trkpt lat="49.34594" lon="2.09289">
        <ele>180.434489</ele>
        <time>2025-06-19T14:08:39.697Z</time>
      </trkpt>
      <trkpt lat="49.34605" lon="2.093">
        <ele>179.986363</ele>
        <time>2025-06-19T14:08:41.690Z</time>
      </trkpt>
      <trkpt lat="49.34616" lon="2.0931">
        <ele>179.542676</ele>
        <time>2025-06-19T14:08:43.694Z</time>
      </trkpt>
      <trkpt lat="49.34628" lon="2.09318">
        <ele>179.117181</ele>
        <time>2025-06-19T14:08:45.690Z</time>
      </trkpt>
      <trkpt lat="49.34639" lon="2.09327">
        <ele>178.853818</ele>
        <time>2025-06-19T14:08:47.692Z</time>
      </trkpt>
      <trkpt lat="49.34649" lon="2.09335">
        <ele>178.716425</ele>
        <time>2025-06-19T14:08:49.692Z</time>
      </trkpt>
      <trkpt lat="49.34658" lon="2.09344">
        <ele>178.572028</ele>
        <time>2025-06-19T14:08:52.695Z</time>
      </trkpt>
      <trkpt lat="49.34666" lon="2.09352">
        <ele>178.450447</ele>
        <time>2025-06-19T14:08:54.691Z</time>
      </trkpt>
      <trkpt lat="49.34673" lon="2.09362">
        <ele>178.330271</ele>
        <time>2025-06-19T14:08:56.689Z</time>
      </trkpt>
      <trkpt lat="49.3468" lon="2.09371">
        <ele>178.20598</ele>
        <time>2025-06-19T14:08:58.686Z</time>
      </trkpt>
      <trkpt lat="49.34687" lon="2.09382">
        <ele>178.077086</ele>
        <time>2025-06-19T14:09:00.685Z</time>
      </trkpt>
      <trkpt lat="49.34695" lon="2.09393">
        <ele>177.940501</ele>
        <time>2025-06-19T14:09:02.693Z</time>
      </trkpt>
      <trkpt lat="49.34703" lon="2.09406">
        <ele>177.793876</ele>
        <time>2025-06-19T14:09:04.693Z</time>
      </trkpt>
      <trkpt lat="49.34711" lon="2.09419">
        <ele>177.637657</ele>
        <time>2025-06-19T14:09:06.698Z</time>
      </trkpt>
      <trkpt lat="49.34718" lon="2.09433">
        <ele>177.490067</ele>
        <time>2025-06-19T14:09:08.699Z</time>
      </trkpt>
      <trkpt lat="49.34723" lon="2.09448">
        <ele>177.349103</ele>
        <time>2025-06-19T14:09:10.698Z</time>
      </trkpt>
      <trkpt lat="49.34728" lon="2.09464">
        <ele>177.207316</ele>
        <time>2025-06-19T14:09:12.695Z</time>
      </trkpt>
      <trkpt lat="49.34734" lon="2.09478">
        <ele>177.067244</ele>
        <time>2025-06-19T14:09:14.688Z</time>
      </trkpt>
      <trkpt lat="49.3474" lon="2.09491">
        <ele>176.929104</ele>
        <time>2025-06-19T14:09:16.689Z</time>
      </trkpt>
      <trkpt lat="49.34748" lon="2.09503">
        <ele>176.790307</ele>
        <time>2025-06-19T14:09:18.686Z</time>
      </trkpt>
      <trkpt lat="49.34756" lon="2.09514">
        <ele>176.644823</ele>
        <time>2025-06-19T14:09:20.703Z</time>
      </trkpt>
      <trkpt lat="49.34766" lon="2.09525">
        <ele>176.551421</ele>
        <time>2025-06-19T14:09:22.704Z</time>
      </trkpt>
      <trkpt lat="49.34776" lon="2.09535">
        <ele>176.45524</ele>
        <time>2025-06-19T14:09:24.695Z</time>
      </trkpt>
      <trkpt lat="49.34787" lon="2.09544">
        <ele>176.358147</ele>
        <time>2025-06-19T14:09:26.693Z</time>
      </trkpt>
      <trkpt lat="49.34798" lon="2.09554">
        <ele>176.253721</ele>
        <time>2025-06-19T14:09:28.696Z</time>
      </trkpt>
      <trkpt lat="49.34809" lon="2.09564">
        <ele>176.150566</ele>
        <time>2025-06-19T14:09:30.687Z</time>
      </trkpt>
      <trkpt lat="49.34821" lon="2.09574">
        <ele>176.046644</ele>
        <time>2025-06-19T14:09:32.695Z</time>
      </trkpt>
      <trkpt lat="49.34832" lon="2.09584">
        <ele>175.945473</ele>
        <time>2025-06-19T14:09:34.687Z</time>
      </trkpt>
      <trkpt lat="49.34842" lon="2.09593">
        <ele>175.85214</ele>
        <time>2025-06-19T14:09:36.688Z</time>
      </trkpt>
      <trkpt lat="49.34852" lon="2.09601">
        <ele>175.762768</ele>
        <time>2025-06-19T14:09:38.692Z</time>
      </trkpt>
      <trkpt lat="49.34862" lon="2.09608">
        <ele>175.679996</ele>
        <time>2025-06-19T14:09:40.695Z</time>
      </trkpt>
      <trkpt lat="49.34871" lon="2.09616">
        <ele>175.598839</ele>
        <time>2025-06-19T14:09:42.690Z</time>
      </trkpt>
      <trkpt lat="49.3488" lon="2.09623">
        <ele>175.517014</ele>
        <time>2025-06-19T14:09:44.689Z</time>
      </trkpt>
      <trkpt lat="49.34888" lon="2.0963">
        <ele>175.442276</ele>
        <time>2025-06-19T14:09:46.688Z</time>
      </trkpt>
      <trkpt lat="49.34898" lon="2.09642">
        <ele>175.341991</ele>
        <time>2025-06-19T14:09:49.698Z</time>
      </trkpt>
      <trkpt lat="49.34907" lon="2.09654">
        <ele>175.246332</ele>
        <time>2025-06-19T14:09:52.697Z</time>
      </trkpt>
      <trkpt lat="49.34915" lon="2.09667">
        <ele>175.228802</ele>
        <time>2025-06-19T14:09:55.686Z</time>
      </trkpt>
      <trkpt lat="49.34923" lon="2.09678">
        <ele>175.234052</ele>
        <time>2025-06-19T14:09:58.696Z</time>
      </trkpt>
      <trkpt lat="49.34931" lon="2.09684">
        <ele>175.238436</ele>
        <time>2025-06-19T14:10:00.697Z</time>
      </trkpt>
      <trkpt lat="49.34941" lon="2.09688">
        <ele>175.243241</ele>
        <time>2025-06-19T14:10:02.688Z</time>
      </trkpt>
      <trkpt lat="49.34951" lon="2.09691">
        <ele>175.248413</ele>
        <time>2025-06-19T14:10:04.702Z</time>
      </trkpt>
      <trkpt lat="49.34963" lon="2.09694">
        <ele>175.254038</ele>
        <time>2025-06-19T14:10:06.696Z</time>
      </trkpt>
      <trkpt lat="49.34975" lon="2.09698">
        <ele>175.259876</ele>
        <time>2025-06-19T14:10:08.697Z</time>
      </trkpt>
      <trkpt lat="49.34986" lon="2.09701">
        <ele>175.265372</ele>
        <time>2025-06-19T14:10:10.695Z</time>
      </trkpt>
      <trkpt lat="49.34997" lon="2.09706">
        <ele>175.270877</ele>
        <time>2025-06-19T14:10:12.696Z</time>
      </trkpt>
      <trkpt lat="49.35008" lon="2.09711">
        <ele>175.276371</ele>
        <time>2025-06-19T14:10:14.684Z</time>
      </trkpt>
      <trkpt lat="49.35019" lon="2.09717">
        <ele>175.281957</ele>
        <time>2025-06-19T14:10:16.697Z</time>
      </trkpt>
      <trkpt lat="49.35031" lon="2.09722">
        <ele>175.287765</ele>
        <time>2025-06-19T14:10:18.699Z</time>
      </trkpt>
      <trkpt lat="49.35043" lon="2.09728">
        <ele>175.293896</ele>
        <time>2025-06-19T14:10:20.697Z</time>
      </trkpt>
      <trkpt lat="49.35054" lon="2.09732">
        <ele>175.299612</ele>
        <time>2025-06-19T14:10:22.704Z</time>
      </trkpt>
      <trkpt lat="49.35066" lon="2.09737">
        <ele>175.305493</ele>
        <time>2025-06-19T14:10:24.699Z</time>
      </trkpt>
      <trkpt lat="49.35077" lon="2.09744">
        <ele>175.311267</ele>
        <time>2025-06-19T14:10:26.699Z</time>
      </trkpt>
      <trkpt lat="49.35089" lon="2.09749">
        <ele>175.198014</ele>
        <time>2025-06-19T14:10:28.689Z</time>
      </trkpt>
      <trkpt lat="49.351" lon="2.09755">
        <ele>175.086187</ele>
        <time>2025-06-19T14:10:30.694Z</time>
      </trkpt>
      <trkpt lat="49.35112" lon="2.0976">
        <ele>174.971296</ele>
        <time>2025-06-19T14:10:32.696Z</time>
      </trkpt>
      <trkpt lat="49.35123" lon="2.09765">
        <ele>174.863985</ele>
        <time>2025-06-19T14:10:34.694Z</time>
      </trkpt>
      <trkpt lat="49.35135" lon="2.0977">
        <ele>174.748961</ele>
        <time>2025-06-19T14:10:36.688Z</time>
      </trkpt>
      <trkpt lat="49.35146" lon="2.09775">
        <ele>174.63407</ele>
        <time>2025-06-19T14:10:38.702Z</time>
      </trkpt>
      <trkpt lat="49.35158" lon="2.0978">
        <ele>174.522835</ele>
        <time>2025-06-19T14:10:40.701Z</time>
      </trkpt>
      <trkpt lat="49.35168" lon="2.09784">
        <ele>174.420519</ele>
        <time>2025-06-19T14:10:42.697Z</time>
      </trkpt>
      <trkpt lat="49.35179" lon="2.09789">
        <ele>174.32039</ele>
        <time>2025-06-19T14:10:44.692Z</time>
      </trkpt>
      <trkpt lat="49.35191" lon="2.09795">
        <ele>174.195802</ele>
        <time>2025-06-19T14:10:47.705Z</time>
      </trkpt>
      <trkpt lat="49.35199" lon="2.0981">
        <ele>174.081327</ele>
        <time>2025-06-19T14:10:50.687Z</time>
      </trkpt>
      <trkpt lat="49.35197" lon="2.09824">
        <ele>173.99398</ele>
        <time>2025-06-19T14:10:52.691Z</time>
      </trkpt>
      <trkpt lat="49.35195" lon="2.09838">
        <ele>173.904639</ele>
        <time>2025-06-19T14:10:54.690Z</time>
      </trkpt>
      <trkpt lat="49.35192" lon="2.09857">
        <ele>173.784888</ele>
        <time>2025-06-19T14:10:57.706Z</time>
      </trkpt>
      <trkpt lat="49.35188" lon="2.09878">
        <ele>173.651535</ele>
        <time>2025-06-19T14:11:00.698Z</time>
      </trkpt>
      <trkpt lat="49.35184" lon="2.09896">
        <ele>173.389833</ele>
        <time>2025-06-19T14:11:02.696Z</time>
      </trkpt>
      <trkpt lat="49.3518" lon="2.09911">
        <ele>173.105374</ele>
        <time>2025-06-19T14:11:04.687Z</time>
      </trkpt>
      <trkpt lat="49.35176" lon="2.09928">
        <ele>172.810775</ele>
        <time>2025-06-19T14:11:06.701Z</time>
      </trkpt>
      <trkpt lat="49.35173" lon="2.09945">
        <ele>172.515635</ele>
        <time>2025-06-19T14:11:08.684Z</time>
      </trkpt>
      <trkpt lat="49.35173" lon="2.09964">
        <ele>172.203289</ele>
        <time>2025-06-19T14:11:10.689Z</time>
      </trkpt>
      <trkpt lat="49.35173" lon="2.09981">
        <ele>171.91423</ele>
        <time>2025-06-19T14:11:12.692Z</time>
      </trkpt>
      <trkpt lat="49.35175" lon="2.10001">
        <ele>171.582934</ele>
        <time>2025-06-19T14:11:14.704Z</time>
      </trkpt>
      <trkpt lat="49.3518" lon="2.1002">
        <ele>171.249642</ele>
        <time>2025-06-19T14:11:16.689Z</time>
      </trkpt>
      <trkpt lat="49.35186" lon="2.10038">
        <ele>170.911401</ele>
        <time>2025-06-19T14:11:18.691Z</time>
      </trkpt>
      <trkpt lat="49.35193" lon="2.10056">
        <ele>170.570968</ele>
        <time>2025-06-19T14:11:20.694Z</time>
      </trkpt>
      <trkpt lat="49.35199" lon="2.10072">
        <ele>170.255376</ele>
        <time>2025-06-19T14:11:22.690Z</time>
      </trkpt>
      <trkpt lat="49.35205" lon="2.10089">
        <ele>169.934804</ele>
        <time>2025-06-19T14:11:24.691Z</time>
      </trkpt>
      <trkpt lat="49.3521" lon="2.10107">
        <ele>169.606664</ele>
        <time>2025-06-19T14:11:26.708Z</time>
      </trkpt>
      <trkpt lat="49.35216" lon="2.10126">
        <ele>169.269298</ele>
        <time>2025-06-19T14:11:28.698Z</time>
      </trkpt>
      <trkpt lat="49.35222" lon="2.10145">
        <ele>169.150743</ele>
        <time>2025-06-19T14:11:30.696Z</time>
      </trkpt>
      <trkpt lat="49.35227" lon="2.10166">
        <ele>169.502442</ele>
        <time>2025-06-19T14:11:32.700Z</time>
      </trkpt>
      <trkpt lat="49.35231" lon="2.10186">
        <ele>169.816852</ele>
        <time>2025-06-19T14:11:34.710Z</time>
      </trkpt>
      <trkpt lat="49.35235" lon="2.10206">
        <ele>170.137686</ele>
        <time>2025-06-19T14:11:36.688Z</time>
      </trkpt>
      <trkpt lat="49.35238" lon="2.10227">
        <ele>170.463281</ele>
        <time>2025-06-19T14:11:38.698Z</time>
      </trkpt>
      <trkpt lat="49.35241" lon="2.10246">
        <ele>170.762236</ele>
        <time>2025-06-19T14:11:40.686Z</time>
      </trkpt>
      <trkpt lat="49.35243" lon="2.10265">
        <ele>171.062989</ele>
        <time>2025-06-19T14:11:42.694Z</time>
      </trkpt>
      <trkpt lat="49.35248" lon="2.10287">
        <ele>171.422573</ele>
        <time>2025-06-19T14:11:44.686Z</time>
      </trkpt>
      <trkpt lat="49.35252" lon="2.10309">
        <ele>171.773481</ele>
        <time>2025-06-19T14:11:46.696Z</time>
      </trkpt>
      <trkpt lat="49.35257" lon="2.10334">
        <ele>172.162804</ele>
        <time>2025-06-19T14:11:48.682Z</time>
      </trkpt>
      <trkpt lat="49.3526" lon="2.10354">
        <ele>172.486631</ele>
        <time>2025-06-19T14:11:50.697Z</time>
      </trkpt>
      <trkpt lat="49.35267" lon="2.10378">
        <ele>172.880482</ele>
        <time>2025-06-19T14:11:52.693Z</time>
      </trkpt>
      <trkpt lat="49.35273" lon="2.104">
        <ele>173.248569</ele>
        <time>2025-06-19T14:11:54.705Z</time>
      </trkpt>
      <trkpt lat="49.35278" lon="2.10422">
        <ele>172.874121</ele>
        <time>2025-06-19T14:11:56.693Z</time>
      </trkpt>
      <trkpt lat="49.35285" lon="2.10443">
        <ele>172.451648</ele>
        <time>2025-06-19T14:11:58.706Z</time>
      </trkpt>
      <trkpt lat="49.35291" lon="2.10465">
        <ele>172.02848</ele>
        <time>2025-06-19T14:12:00.695Z</time>
      </trkpt>
      <trkpt lat="49.35298" lon="2.10486">
        <ele>171.609362</ele>
        <time>2025-06-19T14:12:02.704Z</time>
      </trkpt>
      <trkpt lat="49.35303" lon="2.10508">
        <ele>171.198847</ele>
        <time>2025-06-19T14:12:04.683Z</time>
      </trkpt>
      <trkpt lat="49.35309" lon="2.10529">
        <ele>170.779138</ele>
        <time>2025-06-19T14:12:06.686Z</time>
      </trkpt>
      <trkpt lat="49.35314" lon="2.1055">
        <ele>170.373734</ele>
        <time>2025-06-19T14:12:08.695Z</time>
      </trkpt>
      <trkpt lat="49.35318" lon="2.10572">
        <ele>169.971418</ele>
        <time>2025-06-19T14:12:10.690Z</time>
      </trkpt>
      <trkpt lat="49.35322" lon="2.10592">
        <ele>169.594679</ele>
        <time>2025-06-19T14:12:12.691Z</time>
      </trkpt>
      <trkpt lat="49.35325" lon="2.10613">
        <ele>169.220887</ele>
        <time>2025-06-19T14:12:14.713Z</time>
      </trkpt>
      <trkpt lat="49.35328" lon="2.10632">
        <ele>168.86736</ele>
        <time>2025-06-19T14:12:16.691Z</time>
      </trkpt>
      <trkpt lat="49.3533" lon="2.10652">
        <ele>168.513209</ele>
        <time>2025-06-19T14:12:18.702Z</time>
      </trkpt>
      <trkpt lat="49.35332" lon="2.10671">
        <ele>168.287109</ele>
        <time>2025-06-19T14:12:20.686Z</time>
      </trkpt>
      <trkpt lat="49.35334" lon="2.1069">
        <ele>168.192673</ele>
        <time>2025-06-19T14:12:22.688Z</time>
      </trkpt>
      <trkpt lat="49.35338" lon="2.10708">
        <ele>168.101747</ele>
        <time>2025-06-19T14:12:24.698Z</time>
      </trkpt>
      <trkpt lat="49.35342" lon="2.10723">
        <ele>168.018089</ele>
        <time>2025-06-19T14:12:26.693Z</time>
      </trkpt>
      <trkpt lat="49.35345" lon="2.10739">
        <ele>167.934501</ele>
        <time>2025-06-19T14:12:28.695Z</time>
      </trkpt>
      <trkpt lat="49.3535" lon="2.10754">
        <ele>167.856579</ele>
        <time>2025-06-19T14:12:30.698Z</time>
      </trkpt>
      <trkpt lat="49.35354" lon="2.10768">
        <ele>167.777446</ele>
        <time>2025-06-19T14:12:32.694Z</time>
      </trkpt>
      <trkpt lat="49.35357" lon="2.10784">
        <ele>167.695729</ele>
        <time>2025-06-19T14:12:34.694Z</time>
      </trkpt>
      <trkpt lat="49.35362" lon="2.108">
        <ele>167.611468</ele>
        <time>2025-06-19T14:12:36.702Z</time>
      </trkpt>
      <trkpt lat="49.35366" lon="2.10814">
        <ele>167.534447</ele>
        <time>2025-06-19T14:12:38.687Z</time>
      </trkpt>
      <trkpt lat="49.3537" lon="2.10828">
        <ele>167.456341</ele>
        <time>2025-06-19T14:12:40.703Z</time>
      </trkpt>
      <trkpt lat="49.35375" lon="2.10844">
        <ele>167.371903</ele>
        <time>2025-06-19T14:12:42.694Z</time>
      </trkpt>
      <trkpt lat="49.3538" lon="2.10859">
        <ele>167.28947</ele>
        <time>2025-06-19T14:12:44.698Z</time>
      </trkpt>
      <trkpt lat="49.35385" lon="2.10873">
        <ele>167.20494</ele>
        <time>2025-06-19T14:12:46.701Z</time>
      </trkpt>
      <trkpt lat="49.35392" lon="2.10889">
        <ele>167.115926</ele>
        <time>2025-06-19T14:12:48.688Z</time>
      </trkpt>
      <trkpt lat="49.35398" lon="2.10904">
        <ele>167.024457</ele>
        <time>2025-06-19T14:12:50.695Z</time>
      </trkpt>
      <trkpt lat="49.35407" lon="2.1092">
        <ele>166.840516</ele>
        <time>2025-06-19T14:12:52.704Z</time>
      </trkpt>
      <trkpt lat="49.35415" lon="2.10937">
        <ele>166.574767</ele>
        <time>2025-06-19T14:12:54.691Z</time>
      </trkpt>
      <trkpt lat="49.35424" lon="2.10955">
        <ele>166.283371</ele>
        <time>2025-06-19T14:12:56.690Z</time>
      </trkpt>
      <trkpt lat="49.35434" lon="2.10975">
        <ele>165.975048</ele>
        <time>2025-06-19T14:12:58.686Z</time>
      </trkpt>
      <trkpt lat="49.35443" lon="2.10996">
        <ele>165.653264</ele>
        <time>2025-06-19T14:13:00.700Z</time>
      </trkpt>
      <trkpt lat="49.35451" lon="2.11019">
        <ele>165.3183</ele>
        <time>2025-06-19T14:13:02.691Z</time>
      </trkpt>
      <trkpt lat="49.3546" lon="2.11043">
        <ele>164.97605</ele>
        <time>2025-06-19T14:13:04.688Z</time>
      </trkpt>
      <trkpt lat="49.35468" lon="2.11065">
        <ele>164.663947</ele>
        <time>2025-06-19T14:13:06.700Z</time>
      </trkpt>
      <trkpt lat="49.35474" lon="2.11087">
        <ele>164.355373</ele>
        <time>2025-06-19T14:13:08.689Z</time>
      </trkpt>
      <trkpt lat="49.3548" lon="2.1111">
        <ele>164.053016</ele>
        <time>2025-06-19T14:13:10.693Z</time>
      </trkpt>
      <trkpt lat="49.35485" lon="2.11132">
        <ele>163.756071</ele>
        <time>2025-06-19T14:13:12.705Z</time>
      </trkpt>
      <trkpt lat="49.3549" lon="2.11153">
        <ele>163.471635</ele>
        <time>2025-06-19T14:13:14.699Z</time>
      </trkpt>
      <trkpt lat="49.35496" lon="2.11175">
        <ele>163.298974</ele>
        <time>2025-06-19T14:13:16.702Z</time>
      </trkpt>
      <trkpt lat="49.35501" lon="2.11196">
        <ele>163.131164</ele>
        <time>2025-06-19T14:13:18.689Z</time>
      </trkpt>
      <trkpt lat="49.35507" lon="2.11216">
        <ele>162.967989</ele>
        <time>2025-06-19T14:13:20.697Z</time>
      </trkpt>
      <trkpt lat="49.35512" lon="2.11237">
        <ele>162.802941</ele>
        <time>2025-06-19T14:13:22.701Z</time>
      </trkpt>
      <trkpt lat="49.35518" lon="2.11257">
        <ele>162.641581</ele>
        <time>2025-06-19T14:13:24.691Z</time>
      </trkpt>
      <trkpt lat="49.35523" lon="2.11277">
        <ele>162.478757</ele>
        <time>2025-06-19T14:13:26.693Z</time>
      </trkpt>
      <trkpt lat="49.35528" lon="2.11297">
        <ele>162.314899</ele>
        <time>2025-06-19T14:13:28.692Z</time>
      </trkpt>
      <trkpt lat="49.35534" lon="2.11317">
        <ele>162.153092</ele>
        <time>2025-06-19T14:13:30.691Z</time>
      </trkpt>
      <trkpt lat="49.3554" lon="2.11337">
        <ele>161.991285</ele>
        <time>2025-06-19T14:13:32.696Z</time>
      </trkpt>
      <trkpt lat="49.35546" lon="2.11357">
        <ele>161.833004</ele>
        <time>2025-06-19T14:13:34.694Z</time>
      </trkpt>
      <trkpt lat="49.3555" lon="2.11371">
        <ele>161.715963</ele>
        <time>2025-06-19T14:13:36.705Z</time>
      </trkpt>
      <trkpt lat="49.35554" lon="2.11386">
        <ele>161.592109</ele>
        <time>2025-06-19T14:13:40.700Z</time>
      </trkpt>
      <trkpt lat="49.35559" lon="2.11398">
        <ele>161.487401</ele>
        <time>2025-06-19T14:15:47.691Z</time>
      </trkpt>
      <trkpt lat="49.35563" lon="2.11411">
        <ele>161.28573</ele>
        <time>2025-06-19T14:15:58.685Z</time>
      </trkpt>
      <trkpt lat="49.35569" lon="2.11428">
        <ele>160.913216</ele>
        <time>2025-06-19T14:16:02.692Z</time>
      </trkpt>
      <trkpt lat="49.35573" lon="2.11443">
        <ele>160.58831</ele>
        <time>2025-06-19T14:16:05.685Z</time>
      </trkpt>
      <trkpt lat="49.35577" lon="2.11457">
        <ele>160.269388</ele>
        <time>2025-06-19T14:16:08.690Z</time>
      </trkpt>
      <trkpt lat="49.35582" lon="2.11473">
        <ele>159.926003</ele>
        <time>2025-06-19T14:16:11.705Z</time>
      </trkpt>
      <trkpt lat="49.35588" lon="2.11491">
        <ele>159.534875</ele>
        <time>2025-06-19T14:16:14.702Z</time>
      </trkpt>
      <trkpt lat="49.35592" lon="2.11503">
        <ele>159.250639</ele>
        <time>2025-06-19T14:16:16.694Z</time>
      </trkpt>
      <trkpt lat="49.35596" lon="2.11516">
        <ele>158.967527</ele>
        <time>2025-06-19T14:16:18.701Z</time>
      </trkpt>
      <trkpt lat="49.356" lon="2.11529">
        <ele>158.679728</ele>
        <time>2025-06-19T14:16:20.694Z</time>
      </trkpt>
      <trkpt lat="49.35604" lon="2.11542">
        <ele>158.403591</ele>
        <time>2025-06-19T14:16:22.688Z</time>
      </trkpt>
      <trkpt lat="49.3561" lon="2.11559">
        <ele>158.015662</ele>
        <time>2025-06-19T14:16:25.692Z</time>
      </trkpt>
      <trkpt lat="49.35615" lon="2.11575">
        <ele>157.655472</ele>
        <time>2025-06-19T14:16:28.683Z</time>
      </trkpt>
      <trkpt lat="49.35618" lon="2.11591">
        <ele>157.32058</ele>
        <time>2025-06-19T14:16:32.700Z</time>
      </trkpt>
      <trkpt lat="49.35609" lon="2.11599">
        <ele>156.990579</ele>
        <time>2025-06-19T14:16:39.695Z</time>
      </trkpt>
      <trkpt lat="49.35601" lon="2.11607">
        <ele>156.706842</ele>
        <time>2025-06-19T14:16:42.697Z</time>
      </trkpt>
      <trkpt lat="49.35591" lon="2.11617">
        <ele>156.339104</ele>
        <time>2025-06-19T14:16:45.695Z</time>
      </trkpt>
      <trkpt lat="49.35581" lon="2.11627">
        <ele>155.974325</ele>
        <time>2025-06-19T14:16:48.715Z</time>
      </trkpt>
      <trkpt lat="49.35572" lon="2.11629">
        <ele>155.921456</ele>
        <time>2025-06-19T14:16:51.690Z</time>
      </trkpt>
      <trkpt lat="49.35564" lon="2.1162">
        <ele>155.921456</ele>
        <time>2025-06-19T14:16:54.684Z</time>
      </trkpt>
      <trkpt lat="49.35556" lon="2.11607">
        <ele>155.921456</ele>
        <time>2025-06-19T14:16:58.688Z</time>
      </trkpt>
      <trkpt lat="49.3555" lon="2.11596">
        <ele>155.921456</ele>
        <time>2025-06-19T14:17:02.698Z</time>
      </trkpt>
      <trkpt lat="49.35542" lon="2.11584">
        <ele>155.921456</ele>
        <time>2025-06-19T14:17:06.688Z</time>
      </trkpt>
      <trkpt lat="49.35534" lon="2.11571">
        <ele>155.921456</ele>
        <time>2025-06-19T14:17:10.698Z</time>
      </trkpt>
      <trkpt lat="49.35528" lon="2.11561">
        <ele>155.921456</ele>
        <time>2025-06-19T14:17:13.691Z</time>
      </trkpt>
      <trkpt lat="49.3552" lon="2.11551">
        <ele>155.921456</ele>
        <time>2025-06-19T14:17:16.697Z</time>
      </trkpt>
      <trkpt lat="49.35513" lon="2.1154">
        <ele>155.921456</ele>
        <time>2025-06-19T14:17:19.700Z</time>
      </trkpt>
      <trkpt lat="49.35506" lon="2.11529">
        <ele>155.921456</ele>
        <time>2025-06-19T14:17:22.695Z</time>
      </trkpt>
      <trkpt lat="49.35498" lon="2.11522">
        <ele>155.921456</ele>
        <time>2025-06-19T14:17:25.685Z</time>
      </trkpt>
      <trkpt lat="49.35489" lon="2.11517">
        <ele>155.921456</ele>
        <time>2025-06-19T14:17:28.689Z</time>
      </trkpt>
      <trkpt lat="49.3548" lon="2.11517">
        <ele>155.921456</ele>
        <time>2025-06-19T14:17:31.691Z</time>
      </trkpt>
      <trkpt lat="49.35471" lon="2.11521">
        <ele>155.921456</ele>
        <time>2025-06-19T14:17:34.703Z</time>
      </trkpt>
      <trkpt lat="49.35461" lon="2.11527">
        <ele>155.921456</ele>
        <time>2025-06-19T14:17:37.697Z</time>
      </trkpt>
      <trkpt lat="49.35451" lon="2.11534">
        <ele>155.921456</ele>
        <time>2025-06-19T14:17:40.712Z</time>
      </trkpt>
      <trkpt lat="49.35442" lon="2.11527">
        <ele>155.921456</ele>
        <time>2025-06-19T14:17:43.693Z</time>
      </trkpt>
      <trkpt lat="49.35435" lon="2.11514">
        <ele>155.921456</ele>
        <time>2025-06-19T14:17:47.702Z</time>
      </trkpt>
      <trkpt lat="49.35431" lon="2.11499">
        <ele>155.921456</ele>
        <time>2025-06-19T14:17:51.710Z</time>
      </trkpt>
      <trkpt lat="49.35435" lon="2.11485">
        <ele>155.921456</ele>
        <time>2025-06-19T14:17:57.696Z</time>
      </trkpt>
      <trkpt lat="49.35445" lon="2.11488">
        <ele>155.921456</ele>
        <time>2025-06-19T14:18:06.704Z</time>
      </trkpt>
      <trkpt lat="49.35456" lon="2.11494">
        <ele>155.921456</ele>
        <time>2025-06-19T14:18:11.688Z</time>
      </trkpt>
    </trkseg>
  </trk>
</gpx>